<?xml version="1.0" encoding="UTF-8" standalone="no" ?>
<gpx xmlns="http://www.topografix.com/GPX/1/1" xmlns:xsi="http://www.w3.org/2001/XMLSchema-instance" xsi:schemaLocation="http://www.topografix.com/GPX/1/1 http://www.topografix.com/GPX/1/1/gpx.xsd" version="1.1" creator="VisuGPX - https://www.visugpx.com">
  <metadata>
    <name>TET_B-04-S_20240507</name>
    <desc><![CDATA[

]]></desc>
  </metadata>
  <wpt lat="50.59941" lon="3.49426">
    <ele>58.2</ele>
    <name><![CDATA[2 options - see text]]></name>
    <desc><![CDATA[You can go to the left (trough the pit) when dry conditions and then go back to the trail.<br />Keep right (and avoid the pit) @ heavy rainfall or wet/muddy conditions!]]></desc>
    <cmt><![CDATA[You can go to the left (trough the pit) when dry conditions and then go back to the trail.<br />Keep right (and avoid the pit) @ heavy rainfall or wet/muddy conditions!]]></cmt>
    <type><![CDATA[user]]></type>
  </wpt>
  <wpt lat="50.59648" lon="3.60122">
    <ele>48.5</ele>
    <name><![CDATA[Fuel_B12]]></name>
    <type><![CDATA[user]]></type>
  </wpt>
  <wpt lat="50.50825" lon="3.42526">
    <ele>22</ele>
    <name><![CDATA[Fuel_B13]]></name>
    <type><![CDATA[user]]></type>
  </wpt>
  <trk>
    <name><![CDATA[TET_B-04-S_20240507]]></name>
    <extensions>
      <line xmlns="http://www.topografix.com/GPX/gpx_style/0/2">
        <color>0000FF</color>
        <width>4</width>
      </line>
    </extensions>
    <trkseg>
      <trkpt lat="50.50266" lon="3.43223">
        <ele>21.2</ele>
        <time>2022-05-05T00:45:14Z</time>
      </trkpt>
      <trkpt lat="50.50275" lon="3.43218">
        <ele>21.1</ele>
        <time>2022-05-05T00:45:15Z</time>
      </trkpt>
      <trkpt lat="50.50285" lon="3.43213">
        <ele>21</ele>
        <time>2022-05-05T00:45:16Z</time>
      </trkpt>
      <trkpt lat="50.50295" lon="3.4321">
        <ele>21</ele>
        <time>2022-05-05T00:45:17Z</time>
      </trkpt>
      <trkpt lat="50.50305" lon="3.43208">
        <ele>20.9</ele>
        <time>2022-05-05T00:45:18Z</time>
      </trkpt>
      <trkpt lat="50.50313" lon="3.43205">
        <ele>20.9</ele>
        <time>2022-05-05T00:45:18Z</time>
      </trkpt>
      <trkpt lat="50.5032" lon="3.43202">
        <ele>20.8</ele>
        <time>2022-05-05T00:45:19Z</time>
      </trkpt>
      <trkpt lat="50.50326" lon="3.432">
        <ele>20.7</ele>
        <time>2022-05-05T00:45:20Z</time>
      </trkpt>
      <trkpt lat="50.50332" lon="3.43202">
        <ele>20.5</ele>
        <time>2022-05-05T00:45:20Z</time>
      </trkpt>
      <trkpt lat="50.50337" lon="3.432">
        <ele>20.3</ele>
        <time>2022-05-05T00:45:21Z</time>
      </trkpt>
      <trkpt lat="50.50342" lon="3.43199">
        <ele>20.1</ele>
        <time>2022-05-05T00:45:21Z</time>
      </trkpt>
      <trkpt lat="50.50347" lon="3.43201">
        <ele>20</ele>
        <time>2022-05-05T00:45:22Z</time>
      </trkpt>
      <trkpt lat="50.50351" lon="3.43202">
        <ele>20</ele>
        <time>2022-05-05T00:45:22Z</time>
      </trkpt>
      <trkpt lat="50.50355" lon="3.43206">
        <ele>19.9</ele>
        <time>2022-05-05T00:45:23Z</time>
      </trkpt>
      <trkpt lat="50.50359" lon="3.43211">
        <ele>19.9</ele>
        <time>2022-05-05T00:45:23Z</time>
      </trkpt>
      <trkpt lat="50.50364" lon="3.43209">
        <ele>19.9</ele>
        <time>2022-05-05T00:45:23Z</time>
      </trkpt>
      <trkpt lat="50.50369" lon="3.43203">
        <ele>19.9</ele>
        <time>2022-05-05T00:45:24Z</time>
      </trkpt>
      <trkpt lat="50.50376" lon="3.43194">
        <ele>19.8</ele>
        <time>2022-05-05T00:45:25Z</time>
      </trkpt>
      <trkpt lat="50.50383" lon="3.43185">
        <ele>19.6</ele>
        <time>2022-05-05T00:45:26Z</time>
      </trkpt>
      <trkpt lat="50.50391" lon="3.43176">
        <ele>19.4</ele>
        <time>2022-05-05T00:45:27Z</time>
      </trkpt>
      <trkpt lat="50.50397" lon="3.43168">
        <ele>19.2</ele>
        <time>2022-05-05T00:45:28Z</time>
      </trkpt>
      <trkpt lat="50.50403" lon="3.43159">
        <ele>19.1</ele>
        <time>2022-05-05T00:45:28Z</time>
      </trkpt>
      <trkpt lat="50.5041" lon="3.43151">
        <ele>19.1</ele>
        <time>2022-05-05T00:45:29Z</time>
      </trkpt>
      <trkpt lat="50.50417" lon="3.4314">
        <ele>19</ele>
        <time>2022-05-05T00:45:30Z</time>
      </trkpt>
      <trkpt lat="50.50424" lon="3.43131">
        <ele>19</ele>
        <time>2022-05-05T00:45:31Z</time>
      </trkpt>
      <trkpt lat="50.50432" lon="3.43121">
        <ele>18.9</ele>
        <time>2022-05-05T00:45:32Z</time>
      </trkpt>
      <trkpt lat="50.5044" lon="3.43111">
        <ele>18.9</ele>
        <time>2022-05-05T00:45:33Z</time>
      </trkpt>
      <trkpt lat="50.50447" lon="3.43102">
        <ele>18.9</ele>
        <time>2022-05-05T00:45:34Z</time>
      </trkpt>
      <trkpt lat="50.50454" lon="3.43094">
        <ele>18.9</ele>
        <time>2022-05-05T00:45:35Z</time>
      </trkpt>
      <trkpt lat="50.5046" lon="3.43085">
        <ele>18.8</ele>
        <time>2022-05-05T00:45:35Z</time>
      </trkpt>
      <trkpt lat="50.50467" lon="3.43076">
        <ele>18.7</ele>
        <time>2022-05-05T00:45:36Z</time>
      </trkpt>
      <trkpt lat="50.50475" lon="3.43066">
        <ele>18.5</ele>
        <time>2022-05-05T00:45:37Z</time>
      </trkpt>
      <trkpt lat="50.50482" lon="3.43056">
        <ele>18.5</ele>
        <time>2022-05-05T00:45:38Z</time>
      </trkpt>
      <trkpt lat="50.50488" lon="3.43046">
        <ele>18.5</ele>
        <time>2022-05-05T00:45:39Z</time>
      </trkpt>
      <trkpt lat="50.50494" lon="3.43037">
        <ele>18.4</ele>
        <time>2022-05-05T00:45:40Z</time>
      </trkpt>
      <trkpt lat="50.505" lon="3.43028">
        <ele>18.3</ele>
        <time>2022-05-05T00:45:41Z</time>
      </trkpt>
      <trkpt lat="50.50507" lon="3.43019">
        <ele>18.2</ele>
        <time>2022-05-05T00:45:41Z</time>
      </trkpt>
      <trkpt lat="50.50514" lon="3.4301">
        <ele>18.1</ele>
        <time>2022-05-05T00:45:42Z</time>
      </trkpt>
      <trkpt lat="50.5052" lon="3.43001">
        <ele>18</ele>
        <time>2022-05-05T00:45:43Z</time>
      </trkpt>
      <trkpt lat="50.50526" lon="3.42992">
        <ele>17.9</ele>
        <time>2022-05-05T00:45:44Z</time>
      </trkpt>
      <trkpt lat="50.50531" lon="3.42983">
        <ele>17.9</ele>
        <time>2022-05-05T00:45:44Z</time>
      </trkpt>
      <trkpt lat="50.50537" lon="3.42973">
        <ele>17.9</ele>
        <time>2022-05-05T00:45:45Z</time>
      </trkpt>
      <trkpt lat="50.50544" lon="3.42961">
        <ele>17.9</ele>
        <time>2022-05-05T00:45:46Z</time>
      </trkpt>
      <trkpt lat="50.50551" lon="3.42948">
        <ele>18</ele>
        <time>2022-05-05T00:45:47Z</time>
      </trkpt>
      <trkpt lat="50.50559" lon="3.42934">
        <ele>18.2</ele>
        <time>2022-05-05T00:45:49Z</time>
      </trkpt>
      <trkpt lat="50.50568" lon="3.4292">
        <ele>18.4</ele>
        <time>2022-05-05T00:45:50Z</time>
      </trkpt>
      <trkpt lat="50.50578" lon="3.42904">
        <ele>18.6</ele>
        <time>2022-05-05T00:45:51Z</time>
      </trkpt>
      <trkpt lat="50.50588" lon="3.42889">
        <ele>18.7</ele>
        <time>2022-05-05T00:45:52Z</time>
      </trkpt>
      <trkpt lat="50.50598" lon="3.42873">
        <ele>18.8</ele>
        <time>2022-05-05T00:45:54Z</time>
      </trkpt>
      <trkpt lat="50.50607" lon="3.42858">
        <ele>18.9</ele>
        <time>2022-05-05T00:45:55Z</time>
      </trkpt>
      <trkpt lat="50.50616" lon="3.42845">
        <ele>19.2</ele>
        <time>2022-05-05T00:45:56Z</time>
      </trkpt>
      <trkpt lat="50.50623" lon="3.42832">
        <ele>19.4</ele>
        <time>2022-05-05T00:45:57Z</time>
      </trkpt>
      <trkpt lat="50.5063" lon="3.42822">
        <ele>19.6</ele>
        <time>2022-05-05T00:45:58Z</time>
      </trkpt>
      <trkpt lat="50.50636" lon="3.42813">
        <ele>19.8</ele>
        <time>2022-05-05T00:45:59Z</time>
      </trkpt>
      <trkpt lat="50.50641" lon="3.42805">
        <ele>19.8</ele>
        <time>2022-05-05T00:46:00Z</time>
      </trkpt>
      <trkpt lat="50.50644" lon="3.428">
        <ele>19.9</ele>
        <time>2022-05-05T00:46:00Z</time>
      </trkpt>
      <trkpt lat="50.50646" lon="3.42797">
        <ele>20</ele>
        <time>2022-05-05T00:46:00Z</time>
      </trkpt>
      <trkpt lat="50.50648" lon="3.42794">
        <ele>20.1</ele>
        <time>2022-05-05T00:46:00Z</time>
      </trkpt>
      <trkpt lat="50.50649" lon="3.42792">
        <ele>20.3</ele>
        <time>2022-05-05T00:46:01Z</time>
      </trkpt>
      <trkpt lat="50.50649" lon="3.4279">
        <ele>20.4</ele>
        <time>2022-05-05T00:46:01Z</time>
      </trkpt>
      <trkpt lat="50.50649" lon="3.42788">
        <ele>20.5</ele>
        <time>2022-05-05T00:46:01Z</time>
      </trkpt>
      <trkpt lat="50.50649" lon="3.42785">
        <ele>20.5</ele>
        <time>2022-05-05T00:46:01Z</time>
      </trkpt>
      <trkpt lat="50.50647" lon="3.4278">
        <ele>20.6</ele>
        <time>2022-05-05T00:46:01Z</time>
      </trkpt>
      <trkpt lat="50.50646" lon="3.42773">
        <ele>20.7</ele>
        <time>2022-05-05T00:46:02Z</time>
      </trkpt>
      <trkpt lat="50.50647" lon="3.42764">
        <ele>20.8</ele>
        <time>2022-05-05T00:46:02Z</time>
      </trkpt>
      <trkpt lat="50.50648" lon="3.42755">
        <ele>20.9</ele>
        <time>2022-05-05T00:46:03Z</time>
      </trkpt>
      <trkpt lat="50.50651" lon="3.42746">
        <ele>21.1</ele>
        <time>2022-05-05T00:46:04Z</time>
      </trkpt>
      <trkpt lat="50.50655" lon="3.42736">
        <ele>21.3</ele>
        <time>2022-05-05T00:46:04Z</time>
      </trkpt>
      <trkpt lat="50.5066" lon="3.42726">
        <ele>21.4</ele>
        <time>2022-05-05T00:46:05Z</time>
      </trkpt>
      <trkpt lat="50.50666" lon="3.42715">
        <ele>21.5</ele>
        <time>2022-05-05T00:46:06Z</time>
      </trkpt>
      <trkpt lat="50.50672" lon="3.42705">
        <ele>21.7</ele>
        <time>2022-05-05T00:46:07Z</time>
      </trkpt>
      <trkpt lat="50.50679" lon="3.42694">
        <ele>21.9</ele>
        <time>2022-05-05T00:46:08Z</time>
      </trkpt>
      <trkpt lat="50.50684" lon="3.42683">
        <ele>22.1</ele>
        <time>2022-05-05T00:46:09Z</time>
      </trkpt>
      <trkpt lat="50.50691" lon="3.42672">
        <ele>22.3</ele>
        <time>2022-05-05T00:46:09Z</time>
      </trkpt>
      <trkpt lat="50.50696" lon="3.42661">
        <ele>22.4</ele>
        <time>2022-05-05T00:46:10Z</time>
      </trkpt>
      <trkpt lat="50.50703" lon="3.42649">
        <ele>22.6</ele>
        <time>2022-05-05T00:46:11Z</time>
      </trkpt>
      <trkpt lat="50.50708" lon="3.42638">
        <ele>22.6</ele>
        <time>2022-05-05T00:46:12Z</time>
      </trkpt>
      <trkpt lat="50.50713" lon="3.42627">
        <ele>22.5</ele>
        <time>2022-05-05T00:46:13Z</time>
      </trkpt>
      <trkpt lat="50.50718" lon="3.42617">
        <ele>22.5</ele>
        <time>2022-05-05T00:46:14Z</time>
      </trkpt>
      <trkpt lat="50.50723" lon="3.42607">
        <ele>22.6</ele>
        <time>2022-05-05T00:46:14Z</time>
      </trkpt>
      <trkpt lat="50.50729" lon="3.42597">
        <ele>22.6</ele>
        <time>2022-05-05T00:46:15Z</time>
      </trkpt>
      <trkpt lat="50.50734" lon="3.42587">
        <ele>22.5</ele>
        <time>2022-05-05T00:46:16Z</time>
      </trkpt>
      <trkpt lat="50.50739" lon="3.42576">
        <ele>22.3</ele>
        <time>2022-05-05T00:46:17Z</time>
      </trkpt>
      <trkpt lat="50.50744" lon="3.42567">
        <ele>22.2</ele>
        <time>2022-05-05T00:46:18Z</time>
      </trkpt>
      <trkpt lat="50.50748" lon="3.42558">
        <ele>22.1</ele>
        <time>2022-05-05T00:46:18Z</time>
      </trkpt>
      <trkpt lat="50.50753" lon="3.42549">
        <ele>22</ele>
        <time>2022-05-05T00:46:19Z</time>
      </trkpt>
      <trkpt lat="50.50757" lon="3.42542">
        <ele>21.9</ele>
        <time>2022-05-05T00:46:20Z</time>
      </trkpt>
      <trkpt lat="50.5076" lon="3.42534">
        <ele>21.9</ele>
        <time>2022-05-05T00:46:20Z</time>
      </trkpt>
      <trkpt lat="50.50764" lon="3.42527">
        <ele>21.9</ele>
        <time>2022-05-05T00:46:21Z</time>
      </trkpt>
      <trkpt lat="50.50768" lon="3.4252">
        <ele>21.9</ele>
        <time>2022-05-05T00:46:21Z</time>
      </trkpt>
      <trkpt lat="50.50772" lon="3.42514">
        <ele>21.9</ele>
        <time>2022-05-05T00:46:22Z</time>
      </trkpt>
      <trkpt lat="50.50776" lon="3.42508">
        <ele>21.9</ele>
        <time>2022-05-05T00:46:22Z</time>
      </trkpt>
      <trkpt lat="50.5078" lon="3.42502">
        <ele>21.9</ele>
        <time>2022-05-05T00:46:23Z</time>
      </trkpt>
      <trkpt lat="50.50783" lon="3.42496">
        <ele>21.9</ele>
        <time>2022-05-05T00:46:23Z</time>
      </trkpt>
      <trkpt lat="50.50787" lon="3.4249">
        <ele>21.9</ele>
        <time>2022-05-05T00:46:24Z</time>
      </trkpt>
      <trkpt lat="50.50789" lon="3.42483">
        <ele>21.9</ele>
        <time>2022-05-05T00:46:24Z</time>
      </trkpt>
      <trkpt lat="50.50792" lon="3.42478">
        <ele>21.9</ele>
        <time>2022-05-05T00:46:25Z</time>
      </trkpt>
      <trkpt lat="50.50793" lon="3.42473">
        <ele>21.9</ele>
        <time>2022-05-05T00:46:25Z</time>
      </trkpt>
      <trkpt lat="50.50795" lon="3.42467">
        <ele>21.9</ele>
        <time>2022-05-05T00:46:25Z</time>
      </trkpt>
      <trkpt lat="50.50798" lon="3.42459">
        <ele>21.9</ele>
        <time>2022-05-05T00:46:26Z</time>
      </trkpt>
      <trkpt lat="50.50802" lon="3.42447">
        <ele>21.9</ele>
        <time>2022-05-05T00:46:27Z</time>
      </trkpt>
      <trkpt lat="50.50807" lon="3.42435">
        <ele>21.9</ele>
        <time>2022-05-05T00:46:28Z</time>
      </trkpt>
      <trkpt lat="50.50812" lon="3.42423">
        <ele>21.9</ele>
        <time>2022-05-05T00:46:29Z</time>
      </trkpt>
      <trkpt lat="50.50817" lon="3.42411">
        <ele>21.9</ele>
        <time>2022-05-05T00:46:29Z</time>
      </trkpt>
      <trkpt lat="50.50821" lon="3.42398">
        <ele>21.9</ele>
        <time>2022-05-05T00:46:30Z</time>
      </trkpt>
      <trkpt lat="50.50827" lon="3.42386">
        <ele>21.9</ele>
        <time>2022-05-05T00:46:31Z</time>
      </trkpt>
      <trkpt lat="50.50832" lon="3.42374">
        <ele>21.9</ele>
        <time>2022-05-05T00:46:32Z</time>
      </trkpt>
      <trkpt lat="50.50836" lon="3.42361">
        <ele>21.9</ele>
        <time>2022-05-05T00:46:33Z</time>
      </trkpt>
      <trkpt lat="50.5084" lon="3.42349">
        <ele>21.9</ele>
        <time>2022-05-05T00:46:34Z</time>
      </trkpt>
      <trkpt lat="50.50845" lon="3.42338">
        <ele>21.9</ele>
        <time>2022-05-05T00:46:35Z</time>
      </trkpt>
      <trkpt lat="50.50849" lon="3.42326">
        <ele>21.9</ele>
        <time>2022-05-05T00:46:35Z</time>
      </trkpt>
      <trkpt lat="50.50852" lon="3.42314">
        <ele>21.9</ele>
        <time>2022-05-05T00:46:36Z</time>
      </trkpt>
      <trkpt lat="50.50856" lon="3.42302">
        <ele>21.9</ele>
        <time>2022-05-05T00:46:37Z</time>
      </trkpt>
      <trkpt lat="50.50858" lon="3.4229">
        <ele>21.9</ele>
        <time>2022-05-05T00:46:38Z</time>
      </trkpt>
      <trkpt lat="50.5086" lon="3.42278">
        <ele>21.9</ele>
        <time>2022-05-05T00:46:38Z</time>
      </trkpt>
      <trkpt lat="50.50863" lon="3.42266">
        <ele>21.9</ele>
        <time>2022-05-05T00:46:39Z</time>
      </trkpt>
      <trkpt lat="50.50866" lon="3.42255">
        <ele>21.9</ele>
        <time>2022-05-05T00:46:40Z</time>
      </trkpt>
      <trkpt lat="50.50868" lon="3.42244">
        <ele>21.9</ele>
        <time>2022-05-05T00:46:41Z</time>
      </trkpt>
      <trkpt lat="50.5087" lon="3.42232">
        <ele>21.9</ele>
        <time>2022-05-05T00:46:41Z</time>
      </trkpt>
      <trkpt lat="50.50872" lon="3.42219">
        <ele>21.9</ele>
        <time>2022-05-05T00:46:42Z</time>
      </trkpt>
      <trkpt lat="50.50874" lon="3.42205">
        <ele>21.9</ele>
        <time>2022-05-05T00:46:43Z</time>
      </trkpt>
      <trkpt lat="50.50877" lon="3.42192">
        <ele>21.9</ele>
        <time>2022-05-05T00:46:44Z</time>
      </trkpt>
      <trkpt lat="50.5088" lon="3.42179">
        <ele>21.9</ele>
        <time>2022-05-05T00:46:45Z</time>
      </trkpt>
      <trkpt lat="50.50882" lon="3.42165">
        <ele>21.9</ele>
        <time>2022-05-05T00:46:46Z</time>
      </trkpt>
      <trkpt lat="50.50885" lon="3.42152">
        <ele>21.9</ele>
        <time>2022-05-05T00:46:46Z</time>
      </trkpt>
      <trkpt lat="50.50888" lon="3.42138">
        <ele>21.9</ele>
        <time>2022-05-05T00:46:47Z</time>
      </trkpt>
      <trkpt lat="50.50891" lon="3.42124">
        <ele>21.9</ele>
        <time>2022-05-05T00:46:48Z</time>
      </trkpt>
      <trkpt lat="50.50895" lon="3.42109">
        <ele>21.9</ele>
        <time>2022-05-05T00:46:49Z</time>
      </trkpt>
      <trkpt lat="50.509" lon="3.42092">
        <ele>21.9</ele>
        <time>2022-05-05T00:46:50Z</time>
      </trkpt>
      <trkpt lat="50.50904" lon="3.42076">
        <ele>21.9</ele>
        <time>2022-05-05T00:46:51Z</time>
      </trkpt>
      <trkpt lat="50.50908" lon="3.42062">
        <ele>21.9</ele>
        <time>2022-05-05T00:46:52Z</time>
      </trkpt>
      <trkpt lat="50.50911" lon="3.42049">
        <ele>21.9</ele>
        <time>2022-05-05T00:46:53Z</time>
      </trkpt>
      <trkpt lat="50.50914" lon="3.42037">
        <ele>21.9</ele>
        <time>2022-05-05T00:46:54Z</time>
      </trkpt>
      <trkpt lat="50.50917" lon="3.42026">
        <ele>21.9</ele>
        <time>2022-05-05T00:46:55Z</time>
      </trkpt>
      <trkpt lat="50.5092" lon="3.42016">
        <ele>21.9</ele>
        <time>2022-05-05T00:46:55Z</time>
      </trkpt>
      <trkpt lat="50.50922" lon="3.42008">
        <ele>21.9</ele>
        <time>2022-05-05T00:46:56Z</time>
      </trkpt>
      <trkpt lat="50.50925" lon="3.42">
        <ele>21.9</ele>
        <time>2022-05-05T00:46:56Z</time>
      </trkpt>
      <trkpt lat="50.50929" lon="3.41994">
        <ele>22</ele>
        <time>2022-05-05T00:46:57Z</time>
      </trkpt>
      <trkpt lat="50.50932" lon="3.41989">
        <ele>22.1</ele>
        <time>2022-05-05T00:46:57Z</time>
      </trkpt>
      <trkpt lat="50.50937" lon="3.41983">
        <ele>22.2</ele>
        <time>2022-05-05T00:46:58Z</time>
      </trkpt>
      <trkpt lat="50.50943" lon="3.41978">
        <ele>22.4</ele>
        <time>2022-05-05T00:46:59Z</time>
      </trkpt>
      <trkpt lat="50.50948" lon="3.41972">
        <ele>22.5</ele>
        <time>2022-05-05T00:46:59Z</time>
      </trkpt>
      <trkpt lat="50.50953" lon="3.41966">
        <ele>22.7</ele>
        <time>2022-05-05T00:47:00Z</time>
      </trkpt>
      <trkpt lat="50.50956" lon="3.41962">
        <ele>22.9</ele>
        <time>2022-05-05T00:47:00Z</time>
      </trkpt>
      <trkpt lat="50.50959" lon="3.41959">
        <ele>23</ele>
        <time>2022-05-05T00:47:01Z</time>
      </trkpt>
      <trkpt lat="50.50961" lon="3.41956">
        <ele>23</ele>
        <time>2022-05-05T00:47:01Z</time>
      </trkpt>
      <trkpt lat="50.50963" lon="3.41955">
        <ele>23.1</ele>
        <time>2022-05-05T00:47:01Z</time>
      </trkpt>
      <trkpt lat="50.50965" lon="3.41956">
        <ele>23.1</ele>
        <time>2022-05-05T00:47:01Z</time>
      </trkpt>
      <trkpt lat="50.50965" lon="3.41957">
        <ele>23.1</ele>
        <time>2022-05-05T00:47:01Z</time>
      </trkpt>
      <trkpt lat="50.50965" lon="3.41958">
        <ele>23.2</ele>
        <time>2022-05-05T00:47:01Z</time>
      </trkpt>
      <trkpt lat="50.50965" lon="3.41959">
        <ele>23.2</ele>
        <time>2022-05-05T00:47:01Z</time>
      </trkpt>
      <trkpt lat="50.50965" lon="3.41959">
        <ele>23.2</ele>
        <time>2022-05-05T00:47:01Z</time>
      </trkpt>
      <trkpt lat="50.50965" lon="3.41959">
        <ele>23.2</ele>
        <time>2022-05-05T00:47:01Z</time>
      </trkpt>
      <trkpt lat="50.50965" lon="3.41958">
        <ele>23.2</ele>
        <time>2022-05-05T00:47:01Z</time>
      </trkpt>
      <trkpt lat="50.50965" lon="3.41959">
        <ele>23.2</ele>
        <time>2022-05-05T00:47:02Z</time>
      </trkpt>
      <trkpt lat="50.50966" lon="3.41959">
        <ele>23.3</ele>
        <time>2022-05-05T00:47:02Z</time>
      </trkpt>
      <trkpt lat="50.50967" lon="3.41959">
        <ele>23.3</ele>
        <time>2022-05-05T00:47:02Z</time>
      </trkpt>
      <trkpt lat="50.50967" lon="3.4196">
        <ele>23.3</ele>
        <time>2022-05-05T00:47:02Z</time>
      </trkpt>
      <trkpt lat="50.50968" lon="3.41961">
        <ele>23.3</ele>
        <time>2022-05-05T00:47:02Z</time>
      </trkpt>
      <trkpt lat="50.50969" lon="3.41961">
        <ele>23.3</ele>
        <time>2022-05-05T00:47:02Z</time>
      </trkpt>
      <trkpt lat="50.5097" lon="3.41962">
        <ele>23.4</ele>
        <time>2022-05-05T00:47:02Z</time>
      </trkpt>
      <trkpt lat="50.50971" lon="3.41963">
        <ele>23.4</ele>
        <time>2022-05-05T00:47:02Z</time>
      </trkpt>
      <trkpt lat="50.50971" lon="3.41964">
        <ele>23.4</ele>
        <time>2022-05-05T00:47:02Z</time>
      </trkpt>
      <trkpt lat="50.50971" lon="3.41965">
        <ele>23.5</ele>
        <time>2022-05-05T00:47:02Z</time>
      </trkpt>
      <trkpt lat="50.50971" lon="3.41967">
        <ele>23.5</ele>
        <time>2022-05-05T00:47:02Z</time>
      </trkpt>
      <trkpt lat="50.50973" lon="3.4197">
        <ele>23.6</ele>
        <time>2022-05-05T00:47:03Z</time>
      </trkpt>
      <trkpt lat="50.50974" lon="3.41979">
        <ele>23.7</ele>
        <time>2022-05-05T00:47:03Z</time>
      </trkpt>
      <trkpt lat="50.50978" lon="3.4199">
        <ele>23.7</ele>
        <time>2022-05-05T00:47:04Z</time>
      </trkpt>
      <trkpt lat="50.50983" lon="3.42004">
        <ele>23.8</ele>
        <time>2022-05-05T00:47:05Z</time>
      </trkpt>
      <trkpt lat="50.50988" lon="3.42018">
        <ele>23.8</ele>
        <time>2022-05-05T00:47:06Z</time>
      </trkpt>
      <trkpt lat="50.50993" lon="3.42034">
        <ele>23.6</ele>
        <time>2022-05-05T00:47:07Z</time>
      </trkpt>
      <trkpt lat="50.50998" lon="3.42052">
        <ele>23.3</ele>
        <time>2022-05-05T00:47:08Z</time>
      </trkpt>
      <trkpt lat="50.51002" lon="3.42071">
        <ele>23.1</ele>
        <time>2022-05-05T00:47:09Z</time>
      </trkpt>
      <trkpt lat="50.51006" lon="3.42091">
        <ele>23.1</ele>
        <time>2022-05-05T00:47:11Z</time>
      </trkpt>
      <trkpt lat="50.51009" lon="3.42113">
        <ele>23.1</ele>
        <time>2022-05-05T00:47:12Z</time>
      </trkpt>
      <trkpt lat="50.51011" lon="3.42135">
        <ele>23.1</ele>
        <time>2022-05-05T00:47:13Z</time>
      </trkpt>
      <trkpt lat="50.51012" lon="3.42155">
        <ele>23</ele>
        <time>2022-05-05T00:47:15Z</time>
      </trkpt>
      <trkpt lat="50.51012" lon="3.42174">
        <ele>23</ele>
        <time>2022-05-05T00:47:16Z</time>
      </trkpt>
      <trkpt lat="50.51012" lon="3.42192">
        <ele>23.1</ele>
        <time>2022-05-05T00:47:17Z</time>
      </trkpt>
      <trkpt lat="50.5101" lon="3.42207">
        <ele>23</ele>
        <time>2022-05-05T00:47:18Z</time>
      </trkpt>
      <trkpt lat="50.51009" lon="3.4222">
        <ele>23</ele>
        <time>2022-05-05T00:47:18Z</time>
      </trkpt>
      <trkpt lat="50.51007" lon="3.4223">
        <ele>22.9</ele>
        <time>2022-05-05T00:47:19Z</time>
      </trkpt>
      <trkpt lat="50.51005" lon="3.42238">
        <ele>22.9</ele>
        <time>2022-05-05T00:47:20Z</time>
      </trkpt>
      <trkpt lat="50.51005" lon="3.42243">
        <ele>22.9</ele>
        <time>2022-05-05T00:47:20Z</time>
      </trkpt>
      <trkpt lat="50.51005" lon="3.42247">
        <ele>22.9</ele>
        <time>2022-05-05T00:47:20Z</time>
      </trkpt>
      <trkpt lat="50.51006" lon="3.42247">
        <ele>22.9</ele>
        <time>2022-05-05T00:47:20Z</time>
      </trkpt>
      <trkpt lat="50.51009" lon="3.42244">
        <ele>22.9</ele>
        <time>2022-05-05T00:47:21Z</time>
      </trkpt>
      <trkpt lat="50.51013" lon="3.42239">
        <ele>22.9</ele>
        <time>2022-05-05T00:47:21Z</time>
      </trkpt>
      <trkpt lat="50.51016" lon="3.42232">
        <ele>22.9</ele>
        <time>2022-05-05T00:47:22Z</time>
      </trkpt>
      <trkpt lat="50.51019" lon="3.42225">
        <ele>22.9</ele>
        <time>2022-05-05T00:47:22Z</time>
      </trkpt>
      <trkpt lat="50.51023" lon="3.4222">
        <ele>22.9</ele>
        <time>2022-05-05T00:47:23Z</time>
      </trkpt>
      <trkpt lat="50.51027" lon="3.42215">
        <ele>22.9</ele>
        <time>2022-05-05T00:47:23Z</time>
      </trkpt>
      <trkpt lat="50.51032" lon="3.42215">
        <ele>22.9</ele>
        <time>2022-05-05T00:47:24Z</time>
      </trkpt>
      <trkpt lat="50.51037" lon="3.42217">
        <ele>22.9</ele>
        <time>2022-05-05T00:47:24Z</time>
      </trkpt>
      <trkpt lat="50.51043" lon="3.42217">
        <ele>23</ele>
        <time>2022-05-05T00:47:25Z</time>
      </trkpt>
      <trkpt lat="50.51049" lon="3.42216">
        <ele>23.2</ele>
        <time>2022-05-05T00:47:25Z</time>
      </trkpt>
      <trkpt lat="50.51055" lon="3.42214">
        <ele>23.3</ele>
        <time>2022-05-05T00:47:26Z</time>
      </trkpt>
      <trkpt lat="50.5106" lon="3.42212">
        <ele>23.5</ele>
        <time>2022-05-05T00:47:26Z</time>
      </trkpt>
      <trkpt lat="50.51066" lon="3.42207">
        <ele>23.7</ele>
        <time>2022-05-05T00:47:27Z</time>
      </trkpt>
      <trkpt lat="50.51071" lon="3.422">
        <ele>23.7</ele>
        <time>2022-05-05T00:47:28Z</time>
      </trkpt>
      <trkpt lat="50.51078" lon="3.42192">
        <ele>23.8</ele>
        <time>2022-05-05T00:47:28Z</time>
      </trkpt>
      <trkpt lat="50.51084" lon="3.42182">
        <ele>23.8</ele>
        <time>2022-05-05T00:47:29Z</time>
      </trkpt>
      <trkpt lat="50.5109" lon="3.42173">
        <ele>23.9</ele>
        <time>2022-05-05T00:47:30Z</time>
      </trkpt>
      <trkpt lat="50.51096" lon="3.42163">
        <ele>23.9</ele>
        <time>2022-05-05T00:47:31Z</time>
      </trkpt>
      <trkpt lat="50.51103" lon="3.42153">
        <ele>23.9</ele>
        <time>2022-05-05T00:47:32Z</time>
      </trkpt>
      <trkpt lat="50.51111" lon="3.42143">
        <ele>24</ele>
        <time>2022-05-05T00:47:33Z</time>
      </trkpt>
      <trkpt lat="50.51119" lon="3.42134">
        <ele>24.3</ele>
        <time>2022-05-05T00:47:34Z</time>
      </trkpt>
      <trkpt lat="50.51127" lon="3.42125">
        <ele>24.5</ele>
        <time>2022-05-05T00:47:35Z</time>
      </trkpt>
      <trkpt lat="50.51135" lon="3.42116">
        <ele>24.6</ele>
        <time>2022-05-05T00:47:36Z</time>
      </trkpt>
      <trkpt lat="50.51143" lon="3.42107">
        <ele>24.7</ele>
        <time>2022-05-05T00:47:36Z</time>
      </trkpt>
      <trkpt lat="50.51151" lon="3.42099">
        <ele>24.8</ele>
        <time>2022-05-05T00:47:37Z</time>
      </trkpt>
      <trkpt lat="50.5116" lon="3.42091">
        <ele>24.8</ele>
        <time>2022-05-05T00:47:38Z</time>
      </trkpt>
      <trkpt lat="50.51169" lon="3.42083">
        <ele>24.8</ele>
        <time>2022-05-05T00:47:39Z</time>
      </trkpt>
      <trkpt lat="50.51178" lon="3.42075">
        <ele>24.9</ele>
        <time>2022-05-05T00:47:40Z</time>
      </trkpt>
      <trkpt lat="50.51187" lon="3.42067">
        <ele>25</ele>
        <time>2022-05-05T00:47:41Z</time>
      </trkpt>
      <trkpt lat="50.51196" lon="3.42058">
        <ele>25.1</ele>
        <time>2022-05-05T00:47:42Z</time>
      </trkpt>
      <trkpt lat="50.51206" lon="3.42051">
        <ele>25.4</ele>
        <time>2022-05-05T00:47:43Z</time>
      </trkpt>
      <trkpt lat="50.51215" lon="3.42043">
        <ele>25.6</ele>
        <time>2022-05-05T00:47:44Z</time>
      </trkpt>
      <trkpt lat="50.51224" lon="3.42036">
        <ele>25.7</ele>
        <time>2022-05-05T00:47:45Z</time>
      </trkpt>
      <trkpt lat="50.51232" lon="3.42029">
        <ele>25.8</ele>
        <time>2022-05-05T00:47:46Z</time>
      </trkpt>
      <trkpt lat="50.51241" lon="3.42023">
        <ele>25.8</ele>
        <time>2022-05-05T00:47:47Z</time>
      </trkpt>
      <trkpt lat="50.51251" lon="3.42017">
        <ele>25.8</ele>
        <time>2022-05-05T00:47:48Z</time>
      </trkpt>
      <trkpt lat="50.51261" lon="3.42012">
        <ele>25.9</ele>
        <time>2022-05-05T00:47:49Z</time>
      </trkpt>
      <trkpt lat="50.51271" lon="3.42006">
        <ele>25.9</ele>
        <time>2022-05-05T00:47:50Z</time>
      </trkpt>
      <trkpt lat="50.51281" lon="3.42002">
        <ele>25.9</ele>
        <time>2022-05-05T00:47:51Z</time>
      </trkpt>
      <trkpt lat="50.51291" lon="3.41997">
        <ele>25.9</ele>
        <time>2022-05-05T00:47:52Z</time>
      </trkpt>
      <trkpt lat="50.51301" lon="3.41993">
        <ele>25.9</ele>
        <time>2022-05-05T00:47:53Z</time>
      </trkpt>
      <trkpt lat="50.51312" lon="3.4199">
        <ele>25.9</ele>
        <time>2022-05-05T00:47:54Z</time>
      </trkpt>
      <trkpt lat="50.51323" lon="3.41986">
        <ele>25.9</ele>
        <time>2022-05-05T00:47:55Z</time>
      </trkpt>
      <trkpt lat="50.51334" lon="3.41983">
        <ele>25.9</ele>
        <time>2022-05-05T00:47:56Z</time>
      </trkpt>
      <trkpt lat="50.51344" lon="3.41981">
        <ele>25.9</ele>
        <time>2022-05-05T00:47:57Z</time>
      </trkpt>
      <trkpt lat="50.51355" lon="3.41977">
        <ele>25.9</ele>
        <time>2022-05-05T00:47:58Z</time>
      </trkpt>
      <trkpt lat="50.51365" lon="3.41975">
        <ele>25.9</ele>
        <time>2022-05-05T00:47:59Z</time>
      </trkpt>
      <trkpt lat="50.51374" lon="3.41973">
        <ele>25.9</ele>
        <time>2022-05-05T00:48:00Z</time>
      </trkpt>
      <trkpt lat="50.51384" lon="3.41972">
        <ele>25.9</ele>
        <time>2022-05-05T00:48:01Z</time>
      </trkpt>
      <trkpt lat="50.51393" lon="3.4197">
        <ele>25.9</ele>
        <time>2022-05-05T00:48:02Z</time>
      </trkpt>
      <trkpt lat="50.51403" lon="3.41969">
        <ele>25.9</ele>
        <time>2022-05-05T00:48:03Z</time>
      </trkpt>
      <trkpt lat="50.51413" lon="3.41966">
        <ele>25.9</ele>
        <time>2022-05-05T00:48:04Z</time>
      </trkpt>
      <trkpt lat="50.51422" lon="3.41964">
        <ele>26</ele>
        <time>2022-05-05T00:48:05Z</time>
      </trkpt>
      <trkpt lat="50.51429" lon="3.41962">
        <ele>26.1</ele>
        <time>2022-05-05T00:48:05Z</time>
      </trkpt>
      <trkpt lat="50.51437" lon="3.41961">
        <ele>26.3</ele>
        <time>2022-05-05T00:48:06Z</time>
      </trkpt>
      <trkpt lat="50.51444" lon="3.4196">
        <ele>26.4</ele>
        <time>2022-05-05T00:48:07Z</time>
      </trkpt>
      <trkpt lat="50.5145" lon="3.41959">
        <ele>26.6</ele>
        <time>2022-05-05T00:48:08Z</time>
      </trkpt>
      <trkpt lat="50.51456" lon="3.41957">
        <ele>26.7</ele>
        <time>2022-05-05T00:48:08Z</time>
      </trkpt>
      <trkpt lat="50.51461" lon="3.41956">
        <ele>26.8</ele>
        <time>2022-05-05T00:48:09Z</time>
      </trkpt>
      <trkpt lat="50.51465" lon="3.41954">
        <ele>26.8</ele>
        <time>2022-05-05T00:48:09Z</time>
      </trkpt>
      <trkpt lat="50.51479" lon="3.41949">
        <ele>26.9</ele>
        <time>2022-05-05T00:48:10Z</time>
      </trkpt>
      <trkpt lat="50.51481" lon="3.41957">
        <ele>26.9</ele>
        <time>2022-05-05T00:48:11Z</time>
      </trkpt>
      <trkpt lat="50.51484" lon="3.41965">
        <ele>26.8</ele>
        <time>2022-05-05T00:48:11Z</time>
      </trkpt>
      <trkpt lat="50.51487" lon="3.41974">
        <ele>26.7</ele>
        <time>2022-05-05T00:48:12Z</time>
      </trkpt>
      <trkpt lat="50.51489" lon="3.41983">
        <ele>26.6</ele>
        <time>2022-05-05T00:48:13Z</time>
      </trkpt>
      <trkpt lat="50.51492" lon="3.41993">
        <ele>26.4</ele>
        <time>2022-05-05T00:48:13Z</time>
      </trkpt>
      <trkpt lat="50.51496" lon="3.42004">
        <ele>26.3</ele>
        <time>2022-05-05T00:48:14Z</time>
      </trkpt>
      <trkpt lat="50.51502" lon="3.42013">
        <ele>26.1</ele>
        <time>2022-05-05T00:48:15Z</time>
      </trkpt>
      <trkpt lat="50.51506" lon="3.42023">
        <ele>26</ele>
        <time>2022-05-05T00:48:15Z</time>
      </trkpt>
      <trkpt lat="50.51511" lon="3.42034">
        <ele>25.9</ele>
        <time>2022-05-05T00:48:16Z</time>
      </trkpt>
      <trkpt lat="50.51515" lon="3.42044">
        <ele>25.7</ele>
        <time>2022-05-05T00:48:17Z</time>
      </trkpt>
      <trkpt lat="50.51519" lon="3.42054">
        <ele>25.5</ele>
        <time>2022-05-05T00:48:18Z</time>
      </trkpt>
      <trkpt lat="50.51521" lon="3.4206">
        <ele>25.3</ele>
        <time>2022-05-05T00:48:18Z</time>
      </trkpt>
      <trkpt lat="50.51522" lon="3.42064">
        <ele>25.1</ele>
        <time>2022-05-05T00:48:18Z</time>
      </trkpt>
      <trkpt lat="50.51524" lon="3.42068">
        <ele>25</ele>
        <time>2022-05-05T00:48:19Z</time>
      </trkpt>
      <trkpt lat="50.51524" lon="3.42071">
        <ele>25</ele>
        <time>2022-05-05T00:48:19Z</time>
      </trkpt>
      <trkpt lat="50.51525" lon="3.42077">
        <ele>24.9</ele>
        <time>2022-05-05T00:48:19Z</time>
      </trkpt>
      <trkpt lat="50.51527" lon="3.42085">
        <ele>24.9</ele>
        <time>2022-05-05T00:48:20Z</time>
      </trkpt>
      <trkpt lat="50.51533" lon="3.42096">
        <ele>24.9</ele>
        <time>2022-05-05T00:48:21Z</time>
      </trkpt>
      <trkpt lat="50.51539" lon="3.42111">
        <ele>24.7</ele>
        <time>2022-05-05T00:48:22Z</time>
      </trkpt>
      <trkpt lat="50.51545" lon="3.42131">
        <ele>24.3</ele>
        <time>2022-05-05T00:48:23Z</time>
      </trkpt>
      <trkpt lat="50.5155" lon="3.42152">
        <ele>23.9</ele>
        <time>2022-05-05T00:48:24Z</time>
      </trkpt>
      <trkpt lat="50.51555" lon="3.42173">
        <ele>23.6</ele>
        <time>2022-05-05T00:48:26Z</time>
      </trkpt>
      <trkpt lat="50.51561" lon="3.42194">
        <ele>23.2</ele>
        <time>2022-05-05T00:48:27Z</time>
      </trkpt>
      <trkpt lat="50.51566" lon="3.42214">
        <ele>22.6</ele>
        <time>2022-05-05T00:48:28Z</time>
      </trkpt>
      <trkpt lat="50.51572" lon="3.42234">
        <ele>21.8</ele>
        <time>2022-05-05T00:48:30Z</time>
      </trkpt>
      <trkpt lat="50.5158" lon="3.4225">
        <ele>20.4</ele>
        <time>2022-05-05T00:48:31Z</time>
      </trkpt>
      <trkpt lat="50.51584" lon="3.42268">
        <ele>19.2</ele>
        <time>2022-05-05T00:48:32Z</time>
      </trkpt>
      <trkpt lat="50.51589" lon="3.42284">
        <ele>18.3</ele>
        <time>2022-05-05T00:48:33Z</time>
      </trkpt>
      <trkpt lat="50.51593" lon="3.42299">
        <ele>17.5</ele>
        <time>2022-05-05T00:48:34Z</time>
      </trkpt>
      <trkpt lat="50.51597" lon="3.42313">
        <ele>16.9</ele>
        <time>2022-05-05T00:48:35Z</time>
      </trkpt>
      <trkpt lat="50.516" lon="3.42327">
        <ele>16.4</ele>
        <time>2022-05-05T00:48:36Z</time>
      </trkpt>
      <trkpt lat="50.51603" lon="3.42342">
        <ele>15.9</ele>
        <time>2022-05-05T00:48:37Z</time>
      </trkpt>
      <trkpt lat="50.51603" lon="3.42359">
        <ele>15.6</ele>
        <time>2022-05-05T00:48:38Z</time>
      </trkpt>
      <trkpt lat="50.51599" lon="3.42378">
        <ele>14</ele>
        <time>2022-05-05T00:48:39Z</time>
      </trkpt>
      <trkpt lat="50.51596" lon="3.424">
        <ele>13.8</ele>
        <time>2022-05-05T00:48:41Z</time>
      </trkpt>
      <trkpt lat="50.51592" lon="3.42426">
        <ele>13.8</ele>
        <time>2022-05-05T00:48:42Z</time>
      </trkpt>
      <trkpt lat="50.5159" lon="3.42454">
        <ele>13.7</ele>
        <time>2022-05-05T00:48:44Z</time>
      </trkpt>
      <trkpt lat="50.51586" lon="3.42484">
        <ele>13.6</ele>
        <time>2022-05-05T00:48:46Z</time>
      </trkpt>
      <trkpt lat="50.51585" lon="3.42517">
        <ele>13.6</ele>
        <time>2022-05-05T00:48:48Z</time>
      </trkpt>
      <trkpt lat="50.51583" lon="3.42549">
        <ele>13.4</ele>
        <time>2022-05-05T00:48:50Z</time>
      </trkpt>
      <trkpt lat="50.5158" lon="3.42585">
        <ele>13.4</ele>
        <time>2022-05-05T00:48:52Z</time>
      </trkpt>
      <trkpt lat="50.51575" lon="3.42616">
        <ele>13</ele>
        <time>2022-05-05T00:48:54Z</time>
      </trkpt>
      <trkpt lat="50.51572" lon="3.42652">
        <ele>12.5</ele>
        <time>2022-05-05T00:48:56Z</time>
      </trkpt>
      <trkpt lat="50.51569" lon="3.42685">
        <ele>19.6</ele>
        <time>2022-05-05T00:48:58Z</time>
      </trkpt>
      <trkpt lat="50.51567" lon="3.4272">
        <ele>19.5</ele>
        <time>2022-05-05T00:49:00Z</time>
      </trkpt>
      <trkpt lat="50.51564" lon="3.4275">
        <ele>19</ele>
        <time>2022-05-05T00:49:02Z</time>
      </trkpt>
      <trkpt lat="50.51561" lon="3.42774">
        <ele>18.7</ele>
        <time>2022-05-05T00:49:04Z</time>
      </trkpt>
      <trkpt lat="50.51559" lon="3.42802">
        <ele>18.1</ele>
        <time>2022-05-05T00:49:05Z</time>
      </trkpt>
      <trkpt lat="50.51554" lon="3.42832">
        <ele>17.9</ele>
        <time>2022-05-05T00:49:07Z</time>
      </trkpt>
      <trkpt lat="50.51552" lon="3.42858">
        <ele>17.9</ele>
        <time>2022-05-05T00:49:09Z</time>
      </trkpt>
      <trkpt lat="50.5155" lon="3.42884">
        <ele>17.6</ele>
        <time>2022-05-05T00:49:10Z</time>
      </trkpt>
      <trkpt lat="50.51547" lon="3.42909">
        <ele>17.3</ele>
        <time>2022-05-05T00:49:12Z</time>
      </trkpt>
      <trkpt lat="50.51545" lon="3.42932">
        <ele>17.1</ele>
        <time>2022-05-05T00:49:13Z</time>
      </trkpt>
      <trkpt lat="50.51543" lon="3.42954">
        <ele>17</ele>
        <time>2022-05-05T00:49:15Z</time>
      </trkpt>
      <trkpt lat="50.51541" lon="3.42976">
        <ele>17</ele>
        <time>2022-05-05T00:49:16Z</time>
      </trkpt>
      <trkpt lat="50.5154" lon="3.42996">
        <ele>16.9</ele>
        <time>2022-05-05T00:49:17Z</time>
      </trkpt>
      <trkpt lat="50.51539" lon="3.43022">
        <ele>16.9</ele>
        <time>2022-05-05T00:49:19Z</time>
      </trkpt>
      <trkpt lat="50.51538" lon="3.43046">
        <ele>16.9</ele>
        <time>2022-05-05T00:49:20Z</time>
      </trkpt>
      <trkpt lat="50.51535" lon="3.43071">
        <ele>16.9</ele>
        <time>2022-05-05T00:49:22Z</time>
      </trkpt>
      <trkpt lat="50.51534" lon="3.43094">
        <ele>16.9</ele>
        <time>2022-05-05T00:49:23Z</time>
      </trkpt>
      <trkpt lat="50.51532" lon="3.43116">
        <ele>16.9</ele>
        <time>2022-05-05T00:49:24Z</time>
      </trkpt>
      <trkpt lat="50.51529" lon="3.43138">
        <ele>16.9</ele>
        <time>2022-05-05T00:49:26Z</time>
      </trkpt>
      <trkpt lat="50.51527" lon="3.43157">
        <ele>16.9</ele>
        <time>2022-05-05T00:49:27Z</time>
      </trkpt>
      <trkpt lat="50.51524" lon="3.43175">
        <ele>16.9</ele>
        <time>2022-05-05T00:49:28Z</time>
      </trkpt>
      <trkpt lat="50.51523" lon="3.43197">
        <ele>16.9</ele>
        <time>2022-05-05T00:49:29Z</time>
      </trkpt>
      <trkpt lat="50.51526" lon="3.43217">
        <ele>16.9</ele>
        <time>2022-05-05T00:49:31Z</time>
      </trkpt>
      <trkpt lat="50.51529" lon="3.43241">
        <ele>16.9</ele>
        <time>2022-05-05T00:49:32Z</time>
      </trkpt>
      <trkpt lat="50.51534" lon="3.43262">
        <ele>16.9</ele>
        <time>2022-05-05T00:49:34Z</time>
      </trkpt>
      <trkpt lat="50.5154" lon="3.43282">
        <ele>16.8</ele>
        <time>2022-05-05T00:49:35Z</time>
      </trkpt>
      <trkpt lat="50.51546" lon="3.43302">
        <ele>16.8</ele>
        <time>2022-05-05T00:49:36Z</time>
      </trkpt>
      <trkpt lat="50.51552" lon="3.4332">
        <ele>16.9</ele>
        <time>2022-05-05T00:49:37Z</time>
      </trkpt>
      <trkpt lat="50.51558" lon="3.43338">
        <ele>16.8</ele>
        <time>2022-05-05T00:49:39Z</time>
      </trkpt>
      <trkpt lat="50.51563" lon="3.43355">
        <ele>16.9</ele>
        <time>2022-05-05T00:49:40Z</time>
      </trkpt>
      <trkpt lat="50.5157" lon="3.43371">
        <ele>16.9</ele>
        <time>2022-05-05T00:49:41Z</time>
      </trkpt>
      <trkpt lat="50.51574" lon="3.43388">
        <ele>16.9</ele>
        <time>2022-05-05T00:49:42Z</time>
      </trkpt>
      <trkpt lat="50.51579" lon="3.43407">
        <ele>16.9</ele>
        <time>2022-05-05T00:49:43Z</time>
      </trkpt>
      <trkpt lat="50.51589" lon="3.43421">
        <ele>16.9</ele>
        <time>2022-05-05T00:49:45Z</time>
      </trkpt>
      <trkpt lat="50.51599" lon="3.4344">
        <ele>16.9</ele>
        <time>2022-05-05T00:49:46Z</time>
      </trkpt>
      <trkpt lat="50.51611" lon="3.43456">
        <ele>16.9</ele>
        <time>2022-05-05T00:49:48Z</time>
      </trkpt>
      <trkpt lat="50.51623" lon="3.4347">
        <ele>16.9</ele>
        <time>2022-05-05T00:49:49Z</time>
      </trkpt>
      <trkpt lat="50.51633" lon="3.43484">
        <ele>16.9</ele>
        <time>2022-05-05T00:49:50Z</time>
      </trkpt>
      <trkpt lat="50.51642" lon="3.43497">
        <ele>17</ele>
        <time>2022-05-05T00:49:51Z</time>
      </trkpt>
      <trkpt lat="50.51654" lon="3.43512">
        <ele>17.3</ele>
        <time>2022-05-05T00:49:53Z</time>
      </trkpt>
      <trkpt lat="50.51666" lon="3.43527">
        <ele>17.5</ele>
        <time>2022-05-05T00:49:54Z</time>
      </trkpt>
      <trkpt lat="50.51676" lon="3.43543">
        <ele>17.6</ele>
        <time>2022-05-05T00:49:56Z</time>
      </trkpt>
      <trkpt lat="50.51683" lon="3.4356">
        <ele>18</ele>
        <time>2022-05-05T00:49:57Z</time>
      </trkpt>
      <trkpt lat="50.51692" lon="3.43576">
        <ele>18.3</ele>
        <time>2022-05-05T00:49:58Z</time>
      </trkpt>
      <trkpt lat="50.51703" lon="3.43592">
        <ele>18.5</ele>
        <time>2022-05-05T00:50:00Z</time>
      </trkpt>
      <trkpt lat="50.51714" lon="3.43606">
        <ele>18.7</ele>
        <time>2022-05-05T00:50:01Z</time>
      </trkpt>
      <trkpt lat="50.51723" lon="3.43621">
        <ele>18.9</ele>
        <time>2022-05-05T00:50:02Z</time>
      </trkpt>
      <trkpt lat="50.51733" lon="3.43632">
        <ele>19.3</ele>
        <time>2022-05-05T00:50:03Z</time>
      </trkpt>
      <trkpt lat="50.51744" lon="3.43645">
        <ele>19.5</ele>
        <time>2022-05-05T00:50:05Z</time>
      </trkpt>
      <trkpt lat="50.51754" lon="3.43658">
        <ele>19.6</ele>
        <time>2022-05-05T00:50:06Z</time>
      </trkpt>
      <trkpt lat="50.51764" lon="3.43672">
        <ele>19.7</ele>
        <time>2022-05-05T00:50:07Z</time>
      </trkpt>
      <trkpt lat="50.51774" lon="3.43681">
        <ele>19.8</ele>
        <time>2022-05-05T00:50:08Z</time>
      </trkpt>
      <trkpt lat="50.51783" lon="3.43695">
        <ele>19.8</ele>
        <time>2022-05-05T00:50:10Z</time>
      </trkpt>
      <trkpt lat="50.51792" lon="3.43707">
        <ele>19.9</ele>
        <time>2022-05-05T00:50:11Z</time>
      </trkpt>
      <trkpt lat="50.51801" lon="3.43722">
        <ele>20.2</ele>
        <time>2022-05-05T00:50:12Z</time>
      </trkpt>
      <trkpt lat="50.51812" lon="3.43734">
        <ele>20.4</ele>
        <time>2022-05-05T00:50:13Z</time>
      </trkpt>
      <trkpt lat="50.51823" lon="3.43749">
        <ele>20.5</ele>
        <time>2022-05-05T00:50:15Z</time>
      </trkpt>
      <trkpt lat="50.51831" lon="3.43758">
        <ele>20.4</ele>
        <time>2022-05-05T00:50:16Z</time>
      </trkpt>
      <trkpt lat="50.51839" lon="3.4377">
        <ele>20.3</ele>
        <time>2022-05-05T00:50:17Z</time>
      </trkpt>
      <trkpt lat="50.51845" lon="3.43779">
        <ele>20.1</ele>
        <time>2022-05-05T00:50:17Z</time>
      </trkpt>
      <trkpt lat="50.5185" lon="3.43784">
        <ele>20</ele>
        <time>2022-05-05T00:50:18Z</time>
      </trkpt>
      <trkpt lat="50.51855" lon="3.43783">
        <ele>20</ele>
        <time>2022-05-05T00:50:18Z</time>
      </trkpt>
      <trkpt lat="50.5186" lon="3.43786">
        <ele>19.9</ele>
        <time>2022-05-05T00:50:19Z</time>
      </trkpt>
      <trkpt lat="50.51873" lon="3.43784">
        <ele>19.9</ele>
        <time>2022-05-05T00:50:20Z</time>
      </trkpt>
      <trkpt lat="50.51885" lon="3.43777">
        <ele>19.9</ele>
        <time>2022-05-05T00:50:21Z</time>
      </trkpt>
      <trkpt lat="50.51897" lon="3.43766">
        <ele>19.9</ele>
        <time>2022-05-05T00:50:23Z</time>
      </trkpt>
      <trkpt lat="50.5191" lon="3.43757">
        <ele>19.9</ele>
        <time>2022-05-05T00:50:24Z</time>
      </trkpt>
      <trkpt lat="50.51922" lon="3.43751">
        <ele>19.9</ele>
        <time>2022-05-05T00:50:25Z</time>
      </trkpt>
      <trkpt lat="50.51936" lon="3.43743">
        <ele>19.8</ele>
        <time>2022-05-05T00:50:27Z</time>
      </trkpt>
      <trkpt lat="50.51948" lon="3.43739">
        <ele>19.6</ele>
        <time>2022-05-05T00:50:28Z</time>
      </trkpt>
      <trkpt lat="50.51961" lon="3.43735">
        <ele>19.3</ele>
        <time>2022-05-05T00:50:29Z</time>
      </trkpt>
      <trkpt lat="50.51972" lon="3.43728">
        <ele>19.3</ele>
        <time>2022-05-05T00:50:30Z</time>
      </trkpt>
      <trkpt lat="50.51982" lon="3.43722">
        <ele>19.4</ele>
        <time>2022-05-05T00:50:31Z</time>
      </trkpt>
      <trkpt lat="50.51992" lon="3.43716">
        <ele>19.6</ele>
        <time>2022-05-05T00:50:32Z</time>
      </trkpt>
      <trkpt lat="50.51999" lon="3.43709">
        <ele>19.7</ele>
        <time>2022-05-05T00:50:33Z</time>
      </trkpt>
      <trkpt lat="50.52004" lon="3.43703">
        <ele>19.7</ele>
        <time>2022-05-05T00:50:34Z</time>
      </trkpt>
      <trkpt lat="50.52007" lon="3.43699">
        <ele>19.8</ele>
        <time>2022-05-05T00:50:34Z</time>
      </trkpt>
      <trkpt lat="50.5201" lon="3.43701">
        <ele>19.8</ele>
        <time>2022-05-05T00:50:34Z</time>
      </trkpt>
      <trkpt lat="50.52013" lon="3.43704">
        <ele>19.8</ele>
        <time>2022-05-05T00:50:35Z</time>
      </trkpt>
      <trkpt lat="50.52016" lon="3.43715">
        <ele>19.9</ele>
        <time>2022-05-05T00:50:35Z</time>
      </trkpt>
      <trkpt lat="50.52021" lon="3.43723">
        <ele>19.9</ele>
        <time>2022-05-05T00:50:36Z</time>
      </trkpt>
      <trkpt lat="50.52029" lon="3.43731">
        <ele>19.9</ele>
        <time>2022-05-05T00:50:37Z</time>
      </trkpt>
      <trkpt lat="50.52038" lon="3.43739">
        <ele>19.9</ele>
        <time>2022-05-05T00:50:38Z</time>
      </trkpt>
      <trkpt lat="50.52043" lon="3.43746">
        <ele>19.8</ele>
        <time>2022-05-05T00:50:39Z</time>
      </trkpt>
      <trkpt lat="50.5205" lon="3.43755">
        <ele>19.6</ele>
        <time>2022-05-05T00:50:39Z</time>
      </trkpt>
      <trkpt lat="50.52059" lon="3.43765">
        <ele>19.4</ele>
        <time>2022-05-05T00:50:40Z</time>
      </trkpt>
      <trkpt lat="50.52069" lon="3.43774">
        <ele>19.2</ele>
        <time>2022-05-05T00:50:42Z</time>
      </trkpt>
      <trkpt lat="50.52078" lon="3.43787">
        <ele>19.1</ele>
        <time>2022-05-05T00:50:43Z</time>
      </trkpt>
      <trkpt lat="50.52088" lon="3.43798">
        <ele>19</ele>
        <time>2022-05-05T00:50:44Z</time>
      </trkpt>
      <trkpt lat="50.52095" lon="3.43806">
        <ele>19</ele>
        <time>2022-05-05T00:50:45Z</time>
      </trkpt>
      <trkpt lat="50.52102" lon="3.43815">
        <ele>18.9</ele>
        <time>2022-05-05T00:50:46Z</time>
      </trkpt>
      <trkpt lat="50.52109" lon="3.43822">
        <ele>18.9</ele>
        <time>2022-05-05T00:50:46Z</time>
      </trkpt>
      <trkpt lat="50.52115" lon="3.43831">
        <ele>18.9</ele>
        <time>2022-05-05T00:50:47Z</time>
      </trkpt>
      <trkpt lat="50.52122" lon="3.43839">
        <ele>18.9</ele>
        <time>2022-05-05T00:50:48Z</time>
      </trkpt>
      <trkpt lat="50.52128" lon="3.4385">
        <ele>18.9</ele>
        <time>2022-05-05T00:50:49Z</time>
      </trkpt>
      <trkpt lat="50.52134" lon="3.43863">
        <ele>18.9</ele>
        <time>2022-05-05T00:50:50Z</time>
      </trkpt>
      <trkpt lat="50.52141" lon="3.43874">
        <ele>18.9</ele>
        <time>2022-05-05T00:50:51Z</time>
      </trkpt>
      <trkpt lat="50.52152" lon="3.43882">
        <ele>18.9</ele>
        <time>2022-05-05T00:50:52Z</time>
      </trkpt>
      <trkpt lat="50.52159" lon="3.43893">
        <ele>18.9</ele>
        <time>2022-05-05T00:50:53Z</time>
      </trkpt>
      <trkpt lat="50.52169" lon="3.43902">
        <ele>18.9</ele>
        <time>2022-05-05T00:50:54Z</time>
      </trkpt>
      <trkpt lat="50.52177" lon="3.43908">
        <ele>18.9</ele>
        <time>2022-05-05T00:50:55Z</time>
      </trkpt>
      <trkpt lat="50.52184" lon="3.43914">
        <ele>18.9</ele>
        <time>2022-05-05T00:50:56Z</time>
      </trkpt>
      <trkpt lat="50.52191" lon="3.4392">
        <ele>18.9</ele>
        <time>2022-05-05T00:50:56Z</time>
      </trkpt>
      <trkpt lat="50.52198" lon="3.43928">
        <ele>18.9</ele>
        <time>2022-05-05T00:50:57Z</time>
      </trkpt>
      <trkpt lat="50.52206" lon="3.43937">
        <ele>18.9</ele>
        <time>2022-05-05T00:50:58Z</time>
      </trkpt>
      <trkpt lat="50.52213" lon="3.43946">
        <ele>18.9</ele>
        <time>2022-05-05T00:50:59Z</time>
      </trkpt>
      <trkpt lat="50.52219" lon="3.43953">
        <ele>18.9</ele>
        <time>2022-05-05T00:51:00Z</time>
      </trkpt>
      <trkpt lat="50.52225" lon="3.43961">
        <ele>18.9</ele>
        <time>2022-05-05T00:51:00Z</time>
      </trkpt>
      <trkpt lat="50.52232" lon="3.43973">
        <ele>18.9</ele>
        <time>2022-05-05T00:51:01Z</time>
      </trkpt>
      <trkpt lat="50.52239" lon="3.43987">
        <ele>18.9</ele>
        <time>2022-05-05T00:51:02Z</time>
      </trkpt>
      <trkpt lat="50.52247" lon="3.43998">
        <ele>18.9</ele>
        <time>2022-05-05T00:51:03Z</time>
      </trkpt>
      <trkpt lat="50.52257" lon="3.44007">
        <ele>18.9</ele>
        <time>2022-05-05T00:51:05Z</time>
      </trkpt>
      <trkpt lat="50.5226" lon="3.44024">
        <ele>18.9</ele>
        <time>2022-05-05T00:51:06Z</time>
      </trkpt>
      <trkpt lat="50.52267" lon="3.44035">
        <ele>18.9</ele>
        <time>2022-05-05T00:51:07Z</time>
      </trkpt>
      <trkpt lat="50.52275" lon="3.44048">
        <ele>18.9</ele>
        <time>2022-05-05T00:51:08Z</time>
      </trkpt>
      <trkpt lat="50.52282" lon="3.44058">
        <ele>18.9</ele>
        <time>2022-05-05T00:51:09Z</time>
      </trkpt>
      <trkpt lat="50.52287" lon="3.44069">
        <ele>18.8</ele>
        <time>2022-05-05T00:51:09Z</time>
      </trkpt>
      <trkpt lat="50.52289" lon="3.44082">
        <ele>18.6</ele>
        <time>2022-05-05T00:51:10Z</time>
      </trkpt>
      <trkpt lat="50.52294" lon="3.44094">
        <ele>18.4</ele>
        <time>2022-05-05T00:51:11Z</time>
      </trkpt>
      <trkpt lat="50.52298" lon="3.44105">
        <ele>18.2</ele>
        <time>2022-05-05T00:51:12Z</time>
      </trkpt>
      <trkpt lat="50.52304" lon="3.44112">
        <ele>18.1</ele>
        <time>2022-05-05T00:51:13Z</time>
      </trkpt>
      <trkpt lat="50.52306" lon="3.44114">
        <ele>18</ele>
        <time>2022-05-05T00:51:13Z</time>
      </trkpt>
      <trkpt lat="50.5231" lon="3.44122">
        <ele>18</ele>
        <time>2022-05-05T00:51:13Z</time>
      </trkpt>
      <trkpt lat="50.52317" lon="3.44128">
        <ele>17.9</ele>
        <time>2022-05-05T00:51:14Z</time>
      </trkpt>
      <trkpt lat="50.52325" lon="3.44134">
        <ele>17.9</ele>
        <time>2022-05-05T00:51:15Z</time>
      </trkpt>
      <trkpt lat="50.52335" lon="3.44138">
        <ele>17.9</ele>
        <time>2022-05-05T00:51:16Z</time>
      </trkpt>
      <trkpt lat="50.52346" lon="3.44144">
        <ele>17.9</ele>
        <time>2022-05-05T00:51:17Z</time>
      </trkpt>
      <trkpt lat="50.52358" lon="3.44152">
        <ele>17.9</ele>
        <time>2022-05-05T00:51:18Z</time>
      </trkpt>
      <trkpt lat="50.52368" lon="3.44158">
        <ele>17.9</ele>
        <time>2022-05-05T00:51:19Z</time>
      </trkpt>
      <trkpt lat="50.52378" lon="3.44165">
        <ele>17.9</ele>
        <time>2022-05-05T00:51:20Z</time>
      </trkpt>
      <trkpt lat="50.52387" lon="3.44171">
        <ele>17.9</ele>
        <time>2022-05-05T00:51:21Z</time>
      </trkpt>
      <trkpt lat="50.52394" lon="3.44178">
        <ele>17.9</ele>
        <time>2022-05-05T00:51:22Z</time>
      </trkpt>
      <trkpt lat="50.52402" lon="3.44187">
        <ele>17.9</ele>
        <time>2022-05-05T00:51:23Z</time>
      </trkpt>
      <trkpt lat="50.52409" lon="3.44196">
        <ele>17.9</ele>
        <time>2022-05-05T00:51:24Z</time>
      </trkpt>
      <trkpt lat="50.52418" lon="3.44205">
        <ele>17.9</ele>
        <time>2022-05-05T00:51:25Z</time>
      </trkpt>
      <trkpt lat="50.52424" lon="3.44217">
        <ele>17.9</ele>
        <time>2022-05-05T00:51:26Z</time>
      </trkpt>
      <trkpt lat="50.52429" lon="3.44227">
        <ele>17.9</ele>
        <time>2022-05-05T00:51:27Z</time>
      </trkpt>
      <trkpt lat="50.52433" lon="3.44235">
        <ele>17.9</ele>
        <time>2022-05-05T00:51:27Z</time>
      </trkpt>
      <trkpt lat="50.52433" lon="3.44245">
        <ele>17.9</ele>
        <time>2022-05-05T00:51:28Z</time>
      </trkpt>
      <trkpt lat="50.52435" lon="3.44251">
        <ele>17.9</ele>
        <time>2022-05-05T00:51:28Z</time>
      </trkpt>
      <trkpt lat="50.52433" lon="3.44261">
        <ele>17.9</ele>
        <time>2022-05-05T00:51:29Z</time>
      </trkpt>
      <trkpt lat="50.5243" lon="3.44274">
        <ele>17.7</ele>
        <time>2022-05-05T00:51:30Z</time>
      </trkpt>
      <trkpt lat="50.52429" lon="3.4429">
        <ele>17.5</ele>
        <time>2022-05-05T00:51:31Z</time>
      </trkpt>
      <trkpt lat="50.52427" lon="3.4431">
        <ele>17.3</ele>
        <time>2022-05-05T00:51:32Z</time>
      </trkpt>
      <trkpt lat="50.52424" lon="3.44334">
        <ele>17.1</ele>
        <time>2022-05-05T00:51:33Z</time>
      </trkpt>
      <trkpt lat="50.52424" lon="3.44356">
        <ele>17</ele>
        <time>2022-05-05T00:51:35Z</time>
      </trkpt>
      <trkpt lat="50.52422" lon="3.44376">
        <ele>17</ele>
        <time>2022-05-05T00:51:36Z</time>
      </trkpt>
      <trkpt lat="50.5242" lon="3.44393">
        <ele>16.9</ele>
        <time>2022-05-05T00:51:37Z</time>
      </trkpt>
      <trkpt lat="50.52418" lon="3.44409">
        <ele>16.9</ele>
        <time>2022-05-05T00:51:38Z</time>
      </trkpt>
      <trkpt lat="50.52418" lon="3.44423">
        <ele>16.9</ele>
        <time>2022-05-05T00:51:39Z</time>
      </trkpt>
      <trkpt lat="50.52417" lon="3.44438">
        <ele>16.9</ele>
        <time>2022-05-05T00:51:40Z</time>
      </trkpt>
      <trkpt lat="50.52418" lon="3.44451">
        <ele>16.9</ele>
        <time>2022-05-05T00:51:41Z</time>
      </trkpt>
      <trkpt lat="50.52423" lon="3.44463">
        <ele>16.9</ele>
        <time>2022-05-05T00:51:41Z</time>
      </trkpt>
      <trkpt lat="50.52425" lon="3.44475">
        <ele>16.9</ele>
        <time>2022-05-05T00:51:42Z</time>
      </trkpt>
      <trkpt lat="50.52428" lon="3.44484">
        <ele>16.9</ele>
        <time>2022-05-05T00:51:43Z</time>
      </trkpt>
      <trkpt lat="50.52433" lon="3.44492">
        <ele>16.9</ele>
        <time>2022-05-05T00:51:43Z</time>
      </trkpt>
      <trkpt lat="50.52439" lon="3.44499">
        <ele>16.9</ele>
        <time>2022-05-05T00:51:44Z</time>
      </trkpt>
      <trkpt lat="50.52446" lon="3.44504">
        <ele>16.9</ele>
        <time>2022-05-05T00:51:45Z</time>
      </trkpt>
      <trkpt lat="50.52455" lon="3.44509">
        <ele>16.9</ele>
        <time>2022-05-05T00:51:46Z</time>
      </trkpt>
      <trkpt lat="50.52465" lon="3.44513">
        <ele>16.9</ele>
        <time>2022-05-05T00:51:47Z</time>
      </trkpt>
      <trkpt lat="50.52473" lon="3.44515">
        <ele>16.9</ele>
        <time>2022-05-05T00:51:48Z</time>
      </trkpt>
      <trkpt lat="50.5248" lon="3.4452">
        <ele>16.9</ele>
        <time>2022-05-05T00:51:48Z</time>
      </trkpt>
      <trkpt lat="50.52485" lon="3.44527">
        <ele>16.8</ele>
        <time>2022-05-05T00:51:49Z</time>
      </trkpt>
      <trkpt lat="50.52489" lon="3.44534">
        <ele>16.7</ele>
        <time>2022-05-05T00:51:49Z</time>
      </trkpt>
      <trkpt lat="50.52491" lon="3.44546">
        <ele>16.5</ele>
        <time>2022-05-05T00:51:50Z</time>
      </trkpt>
      <trkpt lat="50.52492" lon="3.44561">
        <ele>16.4</ele>
        <time>2022-05-05T00:51:51Z</time>
      </trkpt>
      <trkpt lat="50.52492" lon="3.44578">
        <ele>16.3</ele>
        <time>2022-05-05T00:51:52Z</time>
      </trkpt>
      <trkpt lat="50.52493" lon="3.44596">
        <ele>16.3</ele>
        <time>2022-05-05T00:51:53Z</time>
      </trkpt>
      <trkpt lat="50.52493" lon="3.44614">
        <ele>16.3</ele>
        <time>2022-05-05T00:51:54Z</time>
      </trkpt>
      <trkpt lat="50.52494" lon="3.44632">
        <ele>16.5</ele>
        <time>2022-05-05T00:51:55Z</time>
      </trkpt>
      <trkpt lat="50.52494" lon="3.44649">
        <ele>16.4</ele>
        <time>2022-05-05T00:51:56Z</time>
      </trkpt>
      <trkpt lat="50.52493" lon="3.44667">
        <ele>16.3</ele>
        <time>2022-05-05T00:51:58Z</time>
      </trkpt>
      <trkpt lat="50.52493" lon="3.44683">
        <ele>16.3</ele>
        <time>2022-05-05T00:51:59Z</time>
      </trkpt>
      <trkpt lat="50.52491" lon="3.44699">
        <ele>16.2</ele>
        <time>2022-05-05T00:51:59Z</time>
      </trkpt>
      <trkpt lat="50.52491" lon="3.44714">
        <ele>16.2</ele>
        <time>2022-05-05T00:52:00Z</time>
      </trkpt>
      <trkpt lat="50.52489" lon="3.44728">
        <ele>16.2</ele>
        <time>2022-05-05T00:52:01Z</time>
      </trkpt>
      <trkpt lat="50.52488" lon="3.44741">
        <ele>16.3</ele>
        <time>2022-05-05T00:52:02Z</time>
      </trkpt>
      <trkpt lat="50.52487" lon="3.44755">
        <ele>16.4</ele>
        <time>2022-05-05T00:52:03Z</time>
      </trkpt>
      <trkpt lat="50.52488" lon="3.44767">
        <ele>16.6</ele>
        <time>2022-05-05T00:52:04Z</time>
      </trkpt>
      <trkpt lat="50.5249" lon="3.44781">
        <ele>16.7</ele>
        <time>2022-05-05T00:52:04Z</time>
      </trkpt>
      <trkpt lat="50.52495" lon="3.44796">
        <ele>16.8</ele>
        <time>2022-05-05T00:52:06Z</time>
      </trkpt>
      <trkpt lat="50.525" lon="3.44813">
        <ele>16.8</ele>
        <time>2022-05-05T00:52:07Z</time>
      </trkpt>
      <trkpt lat="50.52506" lon="3.44832">
        <ele>16.8</ele>
        <time>2022-05-05T00:52:08Z</time>
      </trkpt>
      <trkpt lat="50.52512" lon="3.44851">
        <ele>16.9</ele>
        <time>2022-05-05T00:52:09Z</time>
      </trkpt>
      <trkpt lat="50.52518" lon="3.44869">
        <ele>16.9</ele>
        <time>2022-05-05T00:52:11Z</time>
      </trkpt>
      <trkpt lat="50.52524" lon="3.44887">
        <ele>16.9</ele>
        <time>2022-05-05T00:52:12Z</time>
      </trkpt>
      <trkpt lat="50.52529" lon="3.44902">
        <ele>16.9</ele>
        <time>2022-05-05T00:52:13Z</time>
      </trkpt>
      <trkpt lat="50.52534" lon="3.44916">
        <ele>16.9</ele>
        <time>2022-05-05T00:52:14Z</time>
      </trkpt>
      <trkpt lat="50.52538" lon="3.44929">
        <ele>16.9</ele>
        <time>2022-05-05T00:52:15Z</time>
      </trkpt>
      <trkpt lat="50.52542" lon="3.4494">
        <ele>17</ele>
        <time>2022-05-05T00:52:15Z</time>
      </trkpt>
      <trkpt lat="50.52544" lon="3.44949">
        <ele>17.1</ele>
        <time>2022-05-05T00:52:16Z</time>
      </trkpt>
      <trkpt lat="50.52546" lon="3.44955">
        <ele>17.1</ele>
        <time>2022-05-05T00:52:16Z</time>
      </trkpt>
      <trkpt lat="50.52549" lon="3.4496">
        <ele>17.1</ele>
        <time>2022-05-05T00:52:17Z</time>
      </trkpt>
      <trkpt lat="50.5255" lon="3.44964">
        <ele>17.1</ele>
        <time>2022-05-05T00:52:17Z</time>
      </trkpt>
      <trkpt lat="50.52552" lon="3.44967">
        <ele>17</ele>
        <time>2022-05-05T00:52:17Z</time>
      </trkpt>
      <trkpt lat="50.52552" lon="3.4497">
        <ele>17</ele>
        <time>2022-05-05T00:52:17Z</time>
      </trkpt>
      <trkpt lat="50.52553" lon="3.44972">
        <ele>16.9</ele>
        <time>2022-05-05T00:52:18Z</time>
      </trkpt>
      <trkpt lat="50.52553" lon="3.44975">
        <ele>16.9</ele>
        <time>2022-05-05T00:52:18Z</time>
      </trkpt>
      <trkpt lat="50.52554" lon="3.44978">
        <ele>16.9</ele>
        <time>2022-05-05T00:52:18Z</time>
      </trkpt>
      <trkpt lat="50.52555" lon="3.44983">
        <ele>17</ele>
        <time>2022-05-05T00:52:18Z</time>
      </trkpt>
      <trkpt lat="50.52558" lon="3.44988">
        <ele>17.1</ele>
        <time>2022-05-05T00:52:19Z</time>
      </trkpt>
      <trkpt lat="50.52561" lon="3.44996">
        <ele>17.2</ele>
        <time>2022-05-05T00:52:19Z</time>
      </trkpt>
      <trkpt lat="50.52566" lon="3.45006">
        <ele>17.4</ele>
        <time>2022-05-05T00:52:20Z</time>
      </trkpt>
      <trkpt lat="50.52573" lon="3.45016">
        <ele>17.6</ele>
        <time>2022-05-05T00:52:21Z</time>
      </trkpt>
      <trkpt lat="50.52578" lon="3.45027">
        <ele>17.7</ele>
        <time>2022-05-05T00:52:22Z</time>
      </trkpt>
      <trkpt lat="50.52583" lon="3.45041">
        <ele>17.8</ele>
        <time>2022-05-05T00:52:23Z</time>
      </trkpt>
      <trkpt lat="50.52588" lon="3.45057">
        <ele>17.8</ele>
        <time>2022-05-05T00:52:24Z</time>
      </trkpt>
      <trkpt lat="50.52592" lon="3.45073">
        <ele>17.8</ele>
        <time>2022-05-05T00:52:25Z</time>
      </trkpt>
      <trkpt lat="50.52597" lon="3.4509">
        <ele>17.9</ele>
        <time>2022-05-05T00:52:26Z</time>
      </trkpt>
      <trkpt lat="50.52602" lon="3.45107">
        <ele>17.9</ele>
        <time>2022-05-05T00:52:27Z</time>
      </trkpt>
      <trkpt lat="50.5261" lon="3.45121">
        <ele>17.9</ele>
        <time>2022-05-05T00:52:28Z</time>
      </trkpt>
      <trkpt lat="50.52619" lon="3.45133">
        <ele>17.9</ele>
        <time>2022-05-05T00:52:29Z</time>
      </trkpt>
      <trkpt lat="50.52629" lon="3.45145">
        <ele>17.9</ele>
        <time>2022-05-05T00:52:31Z</time>
      </trkpt>
      <trkpt lat="50.5264" lon="3.45157">
        <ele>17.9</ele>
        <time>2022-05-05T00:52:32Z</time>
      </trkpt>
      <trkpt lat="50.52651" lon="3.45168">
        <ele>17.9</ele>
        <time>2022-05-05T00:52:33Z</time>
      </trkpt>
      <trkpt lat="50.52663" lon="3.45182">
        <ele>17.9</ele>
        <time>2022-05-05T00:52:34Z</time>
      </trkpt>
      <trkpt lat="50.52674" lon="3.45195">
        <ele>17.9</ele>
        <time>2022-05-05T00:52:36Z</time>
      </trkpt>
      <trkpt lat="50.52684" lon="3.45209">
        <ele>18</ele>
        <time>2022-05-05T00:52:37Z</time>
      </trkpt>
      <trkpt lat="50.52693" lon="3.45223">
        <ele>18.1</ele>
        <time>2022-05-05T00:52:38Z</time>
      </trkpt>
      <trkpt lat="50.52699" lon="3.45239">
        <ele>18.1</ele>
        <time>2022-05-05T00:52:39Z</time>
      </trkpt>
      <trkpt lat="50.52704" lon="3.45258">
        <ele>18.2</ele>
        <time>2022-05-05T00:52:41Z</time>
      </trkpt>
      <trkpt lat="50.52708" lon="3.45278">
        <ele>18.5</ele>
        <time>2022-05-05T00:52:42Z</time>
      </trkpt>
      <trkpt lat="50.52711" lon="3.45298">
        <ele>18.6</ele>
        <time>2022-05-05T00:52:43Z</time>
      </trkpt>
      <trkpt lat="50.52713" lon="3.45317">
        <ele>18.7</ele>
        <time>2022-05-05T00:52:44Z</time>
      </trkpt>
      <trkpt lat="50.52716" lon="3.45334">
        <ele>18.8</ele>
        <time>2022-05-05T00:52:45Z</time>
      </trkpt>
      <trkpt lat="50.52718" lon="3.45349">
        <ele>18.8</ele>
        <time>2022-05-05T00:52:46Z</time>
      </trkpt>
      <trkpt lat="50.52721" lon="3.4536">
        <ele>18.8</ele>
        <time>2022-05-05T00:52:47Z</time>
      </trkpt>
      <trkpt lat="50.52723" lon="3.45369">
        <ele>18.9</ele>
        <time>2022-05-05T00:52:48Z</time>
      </trkpt>
      <trkpt lat="50.52724" lon="3.45376">
        <ele>18.9</ele>
        <time>2022-05-05T00:52:48Z</time>
      </trkpt>
      <trkpt lat="50.52722" lon="3.4538">
        <ele>18.9</ele>
        <time>2022-05-05T00:52:48Z</time>
      </trkpt>
      <trkpt lat="50.52717" lon="3.45385">
        <ele>18.9</ele>
        <time>2022-05-05T00:52:49Z</time>
      </trkpt>
      <trkpt lat="50.52712" lon="3.45394">
        <ele>18.9</ele>
        <time>2022-05-05T00:52:50Z</time>
      </trkpt>
      <trkpt lat="50.52704" lon="3.45405">
        <ele>18.9</ele>
        <time>2022-05-05T00:52:51Z</time>
      </trkpt>
      <trkpt lat="50.52697" lon="3.45416">
        <ele>19</ele>
        <time>2022-05-05T00:52:51Z</time>
      </trkpt>
      <trkpt lat="50.5269" lon="3.45428">
        <ele>19.3</ele>
        <time>2022-05-05T00:52:52Z</time>
      </trkpt>
      <trkpt lat="50.52682" lon="3.45437">
        <ele>19.5</ele>
        <time>2022-05-05T00:52:53Z</time>
      </trkpt>
      <trkpt lat="50.52674" lon="3.45446">
        <ele>19.6</ele>
        <time>2022-05-05T00:52:54Z</time>
      </trkpt>
      <trkpt lat="50.52667" lon="3.45456">
        <ele>19.7</ele>
        <time>2022-05-05T00:52:55Z</time>
      </trkpt>
      <trkpt lat="50.5266" lon="3.45465">
        <ele>19.8</ele>
        <time>2022-05-05T00:52:56Z</time>
      </trkpt>
      <trkpt lat="50.52655" lon="3.45476">
        <ele>19.7</ele>
        <time>2022-05-05T00:52:57Z</time>
      </trkpt>
      <trkpt lat="50.52652" lon="3.45489">
        <ele>19.7</ele>
        <time>2022-05-05T00:52:58Z</time>
      </trkpt>
      <trkpt lat="50.5265" lon="3.45506">
        <ele>19.7</ele>
        <time>2022-05-05T00:52:59Z</time>
      </trkpt>
      <trkpt lat="50.52647" lon="3.45525">
        <ele>19.7</ele>
        <time>2022-05-05T00:53:00Z</time>
      </trkpt>
      <trkpt lat="50.52643" lon="3.45544">
        <ele>19.8</ele>
        <time>2022-05-05T00:53:01Z</time>
      </trkpt>
      <trkpt lat="50.52639" lon="3.45563">
        <ele>19.8</ele>
        <time>2022-05-05T00:53:02Z</time>
      </trkpt>
      <trkpt lat="50.52635" lon="3.45581">
        <ele>19.8</ele>
        <time>2022-05-05T00:53:04Z</time>
      </trkpt>
      <trkpt lat="50.52631" lon="3.45599">
        <ele>19.9</ele>
        <time>2022-05-05T00:53:05Z</time>
      </trkpt>
      <trkpt lat="50.52627" lon="3.45615">
        <ele>19.9</ele>
        <time>2022-05-05T00:53:06Z</time>
      </trkpt>
      <trkpt lat="50.52625" lon="3.4563">
        <ele>19.9</ele>
        <time>2022-05-05T00:53:07Z</time>
      </trkpt>
      <trkpt lat="50.52622" lon="3.45644">
        <ele>20</ele>
        <time>2022-05-05T00:53:08Z</time>
      </trkpt>
      <trkpt lat="50.5262" lon="3.45659">
        <ele>20.2</ele>
        <time>2022-05-05T00:53:09Z</time>
      </trkpt>
      <trkpt lat="50.52618" lon="3.45675">
        <ele>20.3</ele>
        <time>2022-05-05T00:53:10Z</time>
      </trkpt>
      <trkpt lat="50.52615" lon="3.45691">
        <ele>20.5</ele>
        <time>2022-05-05T00:53:10Z</time>
      </trkpt>
      <trkpt lat="50.52613" lon="3.45707">
        <ele>20.6</ele>
        <time>2022-05-05T00:53:12Z</time>
      </trkpt>
      <trkpt lat="50.52611" lon="3.45725">
        <ele>20.7</ele>
        <time>2022-05-05T00:53:13Z</time>
      </trkpt>
      <trkpt lat="50.52608" lon="3.45743">
        <ele>20.8</ele>
        <time>2022-05-05T00:53:14Z</time>
      </trkpt>
      <trkpt lat="50.52606" lon="3.4576">
        <ele>20.8</ele>
        <time>2022-05-05T00:53:15Z</time>
      </trkpt>
      <trkpt lat="50.52605" lon="3.45776">
        <ele>20.8</ele>
        <time>2022-05-05T00:53:16Z</time>
      </trkpt>
      <trkpt lat="50.52603" lon="3.45791">
        <ele>20.9</ele>
        <time>2022-05-05T00:53:17Z</time>
      </trkpt>
      <trkpt lat="50.52602" lon="3.45807">
        <ele>20.9</ele>
        <time>2022-05-05T00:53:18Z</time>
      </trkpt>
      <trkpt lat="50.526" lon="3.45823">
        <ele>20.9</ele>
        <time>2022-05-05T00:53:19Z</time>
      </trkpt>
      <trkpt lat="50.52599" lon="3.45839">
        <ele>20.9</ele>
        <time>2022-05-05T00:53:20Z</time>
      </trkpt>
      <trkpt lat="50.52598" lon="3.45855">
        <ele>20.9</ele>
        <time>2022-05-05T00:53:21Z</time>
      </trkpt>
      <trkpt lat="50.52596" lon="3.4587">
        <ele>20.9</ele>
        <time>2022-05-05T00:53:21Z</time>
      </trkpt>
      <trkpt lat="50.52594" lon="3.45885">
        <ele>20.9</ele>
        <time>2022-05-05T00:53:22Z</time>
      </trkpt>
      <trkpt lat="50.52593" lon="3.45899">
        <ele>20.9</ele>
        <time>2022-05-05T00:53:23Z</time>
      </trkpt>
      <trkpt lat="50.52591" lon="3.45913">
        <ele>21</ele>
        <time>2022-05-05T00:53:24Z</time>
      </trkpt>
      <trkpt lat="50.5259" lon="3.45927">
        <ele>21.1</ele>
        <time>2022-05-05T00:53:25Z</time>
      </trkpt>
      <trkpt lat="50.52588" lon="3.45941">
        <ele>21.4</ele>
        <time>2022-05-05T00:53:26Z</time>
      </trkpt>
      <trkpt lat="50.52587" lon="3.45956">
        <ele>21.5</ele>
        <time>2022-05-05T00:53:27Z</time>
      </trkpt>
      <trkpt lat="50.52585" lon="3.45971">
        <ele>21.7</ele>
        <time>2022-05-05T00:53:28Z</time>
      </trkpt>
      <trkpt lat="50.52583" lon="3.45988">
        <ele>21.7</ele>
        <time>2022-05-05T00:53:29Z</time>
      </trkpt>
      <trkpt lat="50.52581" lon="3.46006">
        <ele>21.8</ele>
        <time>2022-05-05T00:53:30Z</time>
      </trkpt>
      <trkpt lat="50.5258" lon="3.46024">
        <ele>21.8</ele>
        <time>2022-05-05T00:53:31Z</time>
      </trkpt>
      <trkpt lat="50.52579" lon="3.46039">
        <ele>21.5</ele>
        <time>2022-05-05T00:53:32Z</time>
      </trkpt>
      <trkpt lat="50.52577" lon="3.46054">
        <ele>21.3</ele>
        <time>2022-05-05T00:53:33Z</time>
      </trkpt>
      <trkpt lat="50.52576" lon="3.46068">
        <ele>21.1</ele>
        <time>2022-05-05T00:53:34Z</time>
      </trkpt>
      <trkpt lat="50.52576" lon="3.46082">
        <ele>21</ele>
        <time>2022-05-05T00:53:34Z</time>
      </trkpt>
      <trkpt lat="50.52577" lon="3.46097">
        <ele>21</ele>
        <time>2022-05-05T00:53:35Z</time>
      </trkpt>
      <trkpt lat="50.52579" lon="3.46111">
        <ele>20.9</ele>
        <time>2022-05-05T00:53:36Z</time>
      </trkpt>
      <trkpt lat="50.52582" lon="3.46124">
        <ele>20.9</ele>
        <time>2022-05-05T00:53:37Z</time>
      </trkpt>
      <trkpt lat="50.52585" lon="3.46139">
        <ele>20.9</ele>
        <time>2022-05-05T00:53:38Z</time>
      </trkpt>
      <trkpt lat="50.52589" lon="3.46155">
        <ele>20.9</ele>
        <time>2022-05-05T00:53:39Z</time>
      </trkpt>
      <trkpt lat="50.52593" lon="3.46172">
        <ele>20.9</ele>
        <time>2022-05-05T00:53:40Z</time>
      </trkpt>
      <trkpt lat="50.52597" lon="3.46188">
        <ele>20.8</ele>
        <time>2022-05-05T00:53:41Z</time>
      </trkpt>
      <trkpt lat="50.52601" lon="3.46205">
        <ele>20.7</ele>
        <time>2022-05-05T00:53:42Z</time>
      </trkpt>
      <trkpt lat="50.52606" lon="3.4622">
        <ele>20.6</ele>
        <time>2022-05-05T00:53:43Z</time>
      </trkpt>
      <trkpt lat="50.52609" lon="3.46236">
        <ele>20.7</ele>
        <time>2022-05-05T00:53:44Z</time>
      </trkpt>
      <trkpt lat="50.52612" lon="3.46252">
        <ele>20.6</ele>
        <time>2022-05-05T00:53:45Z</time>
      </trkpt>
      <trkpt lat="50.52614" lon="3.46268">
        <ele>20.3</ele>
        <time>2022-05-05T00:53:46Z</time>
      </trkpt>
      <trkpt lat="50.52616" lon="3.46282">
        <ele>20.2</ele>
        <time>2022-05-05T00:53:47Z</time>
      </trkpt>
      <trkpt lat="50.52617" lon="3.46295">
        <ele>20.1</ele>
        <time>2022-05-05T00:53:48Z</time>
      </trkpt>
      <trkpt lat="50.52619" lon="3.46308">
        <ele>20</ele>
        <time>2022-05-05T00:53:49Z</time>
      </trkpt>
      <trkpt lat="50.52621" lon="3.46321">
        <ele>20</ele>
        <time>2022-05-05T00:53:50Z</time>
      </trkpt>
      <trkpt lat="50.52622" lon="3.46334">
        <ele>20</ele>
        <time>2022-05-05T00:53:50Z</time>
      </trkpt>
      <trkpt lat="50.52625" lon="3.46348">
        <ele>20.1</ele>
        <time>2022-05-05T00:53:51Z</time>
      </trkpt>
      <trkpt lat="50.5263" lon="3.46361">
        <ele>20.2</ele>
        <time>2022-05-05T00:53:52Z</time>
      </trkpt>
      <trkpt lat="50.52634" lon="3.46375">
        <ele>20.3</ele>
        <time>2022-05-05T00:53:53Z</time>
      </trkpt>
      <trkpt lat="50.52638" lon="3.46389">
        <ele>20.5</ele>
        <time>2022-05-05T00:53:54Z</time>
      </trkpt>
      <trkpt lat="50.52642" lon="3.46401">
        <ele>20.6</ele>
        <time>2022-05-05T00:53:55Z</time>
      </trkpt>
      <trkpt lat="50.52646" lon="3.46413">
        <ele>20.7</ele>
        <time>2022-05-05T00:53:56Z</time>
      </trkpt>
      <trkpt lat="50.52648" lon="3.46424">
        <ele>20.7</ele>
        <time>2022-05-05T00:53:56Z</time>
      </trkpt>
      <trkpt lat="50.52649" lon="3.46435">
        <ele>20.7</ele>
        <time>2022-05-05T00:53:57Z</time>
      </trkpt>
      <trkpt lat="50.5265" lon="3.46448">
        <ele>20.7</ele>
        <time>2022-05-05T00:53:58Z</time>
      </trkpt>
      <trkpt lat="50.52649" lon="3.46462">
        <ele>20.8</ele>
        <time>2022-05-05T00:53:59Z</time>
      </trkpt>
      <trkpt lat="50.52648" lon="3.46475">
        <ele>21</ele>
        <time>2022-05-05T00:53:59Z</time>
      </trkpt>
      <trkpt lat="50.52646" lon="3.46486">
        <ele>21.2</ele>
        <time>2022-05-05T00:54:00Z</time>
      </trkpt>
      <trkpt lat="50.52645" lon="3.46496">
        <ele>21.4</ele>
        <time>2022-05-05T00:54:01Z</time>
      </trkpt>
      <trkpt lat="50.52645" lon="3.46504">
        <ele>21.6</ele>
        <time>2022-05-05T00:54:01Z</time>
      </trkpt>
      <trkpt lat="50.52644" lon="3.46512">
        <ele>21.7</ele>
        <time>2022-05-05T00:54:02Z</time>
      </trkpt>
      <trkpt lat="50.52645" lon="3.46519">
        <ele>21.8</ele>
        <time>2022-05-05T00:54:02Z</time>
      </trkpt>
      <trkpt lat="50.52647" lon="3.46526">
        <ele>21.8</ele>
        <time>2022-05-05T00:54:03Z</time>
      </trkpt>
      <trkpt lat="50.52651" lon="3.46531">
        <ele>21.8</ele>
        <time>2022-05-05T00:54:03Z</time>
      </trkpt>
      <trkpt lat="50.52657" lon="3.46537">
        <ele>21.9</ele>
        <time>2022-05-05T00:54:04Z</time>
      </trkpt>
      <trkpt lat="50.52665" lon="3.46542">
        <ele>22</ele>
        <time>2022-05-05T00:54:05Z</time>
      </trkpt>
      <trkpt lat="50.52674" lon="3.4655">
        <ele>22.1</ele>
        <time>2022-05-05T00:54:06Z</time>
      </trkpt>
      <trkpt lat="50.52683" lon="3.46561">
        <ele>22.3</ele>
        <time>2022-05-05T00:54:07Z</time>
      </trkpt>
      <trkpt lat="50.52691" lon="3.46571">
        <ele>22.3</ele>
        <time>2022-05-05T00:54:08Z</time>
      </trkpt>
      <trkpt lat="50.52699" lon="3.46582">
        <ele>22.4</ele>
        <time>2022-05-05T00:54:09Z</time>
      </trkpt>
      <trkpt lat="50.52706" lon="3.46595">
        <ele>22.5</ele>
        <time>2022-05-05T00:54:10Z</time>
      </trkpt>
      <trkpt lat="50.52714" lon="3.46608">
        <ele>22.5</ele>
        <time>2022-05-05T00:54:11Z</time>
      </trkpt>
      <trkpt lat="50.52721" lon="3.46621">
        <ele>22.6</ele>
        <time>2022-05-05T00:54:12Z</time>
      </trkpt>
      <trkpt lat="50.52726" lon="3.46634">
        <ele>22.7</ele>
        <time>2022-05-05T00:54:13Z</time>
      </trkpt>
      <trkpt lat="50.52731" lon="3.46645">
        <ele>22.8</ele>
        <time>2022-05-05T00:54:14Z</time>
      </trkpt>
      <trkpt lat="50.52735" lon="3.46656">
        <ele>22.9</ele>
        <time>2022-05-05T00:54:14Z</time>
      </trkpt>
      <trkpt lat="50.52739" lon="3.46664">
        <ele>23.1</ele>
        <time>2022-05-05T00:54:15Z</time>
      </trkpt>
      <trkpt lat="50.52742" lon="3.46671">
        <ele>23.3</ele>
        <time>2022-05-05T00:54:15Z</time>
      </trkpt>
      <trkpt lat="50.52745" lon="3.46675">
        <ele>23.5</ele>
        <time>2022-05-05T00:54:16Z</time>
      </trkpt>
      <trkpt lat="50.52747" lon="3.46679">
        <ele>23.5</ele>
        <time>2022-05-05T00:54:16Z</time>
      </trkpt>
      <trkpt lat="50.52747" lon="3.46681">
        <ele>23.5</ele>
        <time>2022-05-05T00:54:16Z</time>
      </trkpt>
      <trkpt lat="50.52747" lon="3.46683">
        <ele>23.5</ele>
        <time>2022-05-05T00:54:16Z</time>
      </trkpt>
      <trkpt lat="50.52745" lon="3.46688">
        <ele>23.4</ele>
        <time>2022-05-05T00:54:17Z</time>
      </trkpt>
      <trkpt lat="50.52739" lon="3.46692">
        <ele>23.3</ele>
        <time>2022-05-05T00:54:17Z</time>
      </trkpt>
      <trkpt lat="50.52733" lon="3.467">
        <ele>23.2</ele>
        <time>2022-05-05T00:54:18Z</time>
      </trkpt>
      <trkpt lat="50.52725" lon="3.46709">
        <ele>23.1</ele>
        <time>2022-05-05T00:54:19Z</time>
      </trkpt>
      <trkpt lat="50.52716" lon="3.4672">
        <ele>23</ele>
        <time>2022-05-05T00:54:20Z</time>
      </trkpt>
      <trkpt lat="50.52706" lon="3.4673">
        <ele>23</ele>
        <time>2022-05-05T00:54:21Z</time>
      </trkpt>
      <trkpt lat="50.52696" lon="3.46739">
        <ele>23.1</ele>
        <time>2022-05-05T00:54:22Z</time>
      </trkpt>
      <trkpt lat="50.52686" lon="3.46749">
        <ele>23.2</ele>
        <time>2022-05-05T00:54:24Z</time>
      </trkpt>
      <trkpt lat="50.52677" lon="3.46759">
        <ele>23.2</ele>
        <time>2022-05-05T00:54:25Z</time>
      </trkpt>
      <trkpt lat="50.52668" lon="3.46768">
        <ele>23.2</ele>
        <time>2022-05-05T00:54:26Z</time>
      </trkpt>
      <trkpt lat="50.5266" lon="3.46777">
        <ele>23.2</ele>
        <time>2022-05-05T00:54:27Z</time>
      </trkpt>
      <trkpt lat="50.52652" lon="3.46787">
        <ele>23.2</ele>
        <time>2022-05-05T00:54:28Z</time>
      </trkpt>
      <trkpt lat="50.52644" lon="3.46797">
        <ele>23.2</ele>
        <time>2022-05-05T00:54:28Z</time>
      </trkpt>
      <trkpt lat="50.52636" lon="3.46805">
        <ele>23.2</ele>
        <time>2022-05-05T00:54:29Z</time>
      </trkpt>
      <trkpt lat="50.52627" lon="3.46812">
        <ele>23.1</ele>
        <time>2022-05-05T00:54:30Z</time>
      </trkpt>
      <trkpt lat="50.5262" lon="3.46819">
        <ele>23</ele>
        <time>2022-05-05T00:54:31Z</time>
      </trkpt>
      <trkpt lat="50.52614" lon="3.46827">
        <ele>23</ele>
        <time>2022-05-05T00:54:32Z</time>
      </trkpt>
      <trkpt lat="50.52608" lon="3.46836">
        <ele>22.9</ele>
        <time>2022-05-05T00:54:33Z</time>
      </trkpt>
      <trkpt lat="50.52603" lon="3.46847">
        <ele>22.9</ele>
        <time>2022-05-05T00:54:33Z</time>
      </trkpt>
      <trkpt lat="50.52598" lon="3.46859">
        <ele>22.9</ele>
        <time>2022-05-05T00:54:34Z</time>
      </trkpt>
      <trkpt lat="50.52592" lon="3.46873">
        <ele>22.9</ele>
        <time>2022-05-05T00:54:35Z</time>
      </trkpt>
      <trkpt lat="50.52586" lon="3.46887">
        <ele>22.9</ele>
        <time>2022-05-05T00:54:36Z</time>
      </trkpt>
      <trkpt lat="50.5258" lon="3.469">
        <ele>22.9</ele>
        <time>2022-05-05T00:54:37Z</time>
      </trkpt>
      <trkpt lat="50.52575" lon="3.46912">
        <ele>23</ele>
        <time>2022-05-05T00:54:38Z</time>
      </trkpt>
      <trkpt lat="50.5257" lon="3.46923">
        <ele>23.3</ele>
        <time>2022-05-05T00:54:39Z</time>
      </trkpt>
      <trkpt lat="50.52565" lon="3.46934">
        <ele>23.5</ele>
        <time>2022-05-05T00:54:40Z</time>
      </trkpt>
      <trkpt lat="50.5256" lon="3.46944">
        <ele>23.6</ele>
        <time>2022-05-05T00:54:41Z</time>
      </trkpt>
      <trkpt lat="50.52556" lon="3.46953">
        <ele>23.7</ele>
        <time>2022-05-05T00:54:41Z</time>
      </trkpt>
      <trkpt lat="50.52552" lon="3.46962">
        <ele>23.8</ele>
        <time>2022-05-05T00:54:42Z</time>
      </trkpt>
      <trkpt lat="50.52547" lon="3.46972">
        <ele>23.8</ele>
        <time>2022-05-05T00:54:43Z</time>
      </trkpt>
      <trkpt lat="50.52542" lon="3.46983">
        <ele>23.8</ele>
        <time>2022-05-05T00:54:43Z</time>
      </trkpt>
      <trkpt lat="50.52538" lon="3.46993">
        <ele>23.9</ele>
        <time>2022-05-05T00:54:44Z</time>
      </trkpt>
      <trkpt lat="50.52533" lon="3.47002">
        <ele>23.9</ele>
        <time>2022-05-05T00:54:45Z</time>
      </trkpt>
      <trkpt lat="50.5253" lon="3.47011">
        <ele>23.9</ele>
        <time>2022-05-05T00:54:46Z</time>
      </trkpt>
      <trkpt lat="50.52526" lon="3.47018">
        <ele>23.9</ele>
        <time>2022-05-05T00:54:46Z</time>
      </trkpt>
      <trkpt lat="50.52522" lon="3.47022">
        <ele>23.9</ele>
        <time>2022-05-05T00:54:47Z</time>
      </trkpt>
      <trkpt lat="50.52517" lon="3.47024">
        <ele>23.9</ele>
        <time>2022-05-05T00:54:47Z</time>
      </trkpt>
      <trkpt lat="50.52512" lon="3.47021">
        <ele>23.9</ele>
        <time>2022-05-05T00:54:48Z</time>
      </trkpt>
      <trkpt lat="50.52506" lon="3.47018">
        <ele>23.9</ele>
        <time>2022-05-05T00:54:48Z</time>
      </trkpt>
      <trkpt lat="50.525" lon="3.47013">
        <ele>23.9</ele>
        <time>2022-05-05T00:54:49Z</time>
      </trkpt>
      <trkpt lat="50.52493" lon="3.47007">
        <ele>23.9</ele>
        <time>2022-05-05T00:54:50Z</time>
      </trkpt>
      <trkpt lat="50.52482" lon="3.47004">
        <ele>23.9</ele>
        <time>2022-05-05T00:54:51Z</time>
      </trkpt>
      <trkpt lat="50.52473" lon="3.46996">
        <ele>23.9</ele>
        <time>2022-05-05T00:54:52Z</time>
      </trkpt>
      <trkpt lat="50.52465" lon="3.46989">
        <ele>23.9</ele>
        <time>2022-05-05T00:54:53Z</time>
      </trkpt>
      <trkpt lat="50.52457" lon="3.46982">
        <ele>23.9</ele>
        <time>2022-05-05T00:54:53Z</time>
      </trkpt>
      <trkpt lat="50.5245" lon="3.46975">
        <ele>23.9</ele>
        <time>2022-05-05T00:54:54Z</time>
      </trkpt>
      <trkpt lat="50.52443" lon="3.46968">
        <ele>23.9</ele>
        <time>2022-05-05T00:54:55Z</time>
      </trkpt>
      <trkpt lat="50.52436" lon="3.4696">
        <ele>23.9</ele>
        <time>2022-05-05T00:54:56Z</time>
      </trkpt>
      <trkpt lat="50.52429" lon="3.46953">
        <ele>24</ele>
        <time>2022-05-05T00:54:57Z</time>
      </trkpt>
      <trkpt lat="50.52423" lon="3.46946">
        <ele>24.2</ele>
        <time>2022-05-05T00:54:57Z</time>
      </trkpt>
      <trkpt lat="50.52416" lon="3.46938">
        <ele>24.3</ele>
        <time>2022-05-05T00:54:58Z</time>
      </trkpt>
      <trkpt lat="50.5241" lon="3.4693">
        <ele>24.4</ele>
        <time>2022-05-05T00:54:59Z</time>
      </trkpt>
      <trkpt lat="50.52403" lon="3.46923">
        <ele>24.4</ele>
        <time>2022-05-05T00:55:00Z</time>
      </trkpt>
      <trkpt lat="50.52397" lon="3.46916">
        <ele>24.2</ele>
        <time>2022-05-05T00:55:00Z</time>
      </trkpt>
      <trkpt lat="50.52391" lon="3.4691">
        <ele>24.1</ele>
        <time>2022-05-05T00:55:01Z</time>
      </trkpt>
      <trkpt lat="50.52385" lon="3.46903">
        <ele>24</ele>
        <time>2022-05-05T00:55:02Z</time>
      </trkpt>
      <trkpt lat="50.5238" lon="3.46897">
        <ele>24</ele>
        <time>2022-05-05T00:55:02Z</time>
      </trkpt>
      <trkpt lat="50.52374" lon="3.4689">
        <ele>23.9</ele>
        <time>2022-05-05T00:55:03Z</time>
      </trkpt>
      <trkpt lat="50.52368" lon="3.46883">
        <ele>23.9</ele>
        <time>2022-05-05T00:55:04Z</time>
      </trkpt>
      <trkpt lat="50.52362" lon="3.46875">
        <ele>23.9</ele>
        <time>2022-05-05T00:55:04Z</time>
      </trkpt>
      <trkpt lat="50.52356" lon="3.46869">
        <ele>23.9</ele>
        <time>2022-05-05T00:55:05Z</time>
      </trkpt>
      <trkpt lat="50.5235" lon="3.46861">
        <ele>23.9</ele>
        <time>2022-05-05T00:55:06Z</time>
      </trkpt>
      <trkpt lat="50.52344" lon="3.46853">
        <ele>23.9</ele>
        <time>2022-05-05T00:55:07Z</time>
      </trkpt>
      <trkpt lat="50.52337" lon="3.46846">
        <ele>23.9</ele>
        <time>2022-05-05T00:55:07Z</time>
      </trkpt>
      <trkpt lat="50.52331" lon="3.46838">
        <ele>23.9</ele>
        <time>2022-05-05T00:55:08Z</time>
      </trkpt>
      <trkpt lat="50.52325" lon="3.46831">
        <ele>23.9</ele>
        <time>2022-05-05T00:55:09Z</time>
      </trkpt>
      <trkpt lat="50.52319" lon="3.46823">
        <ele>23.9</ele>
        <time>2022-05-05T00:55:10Z</time>
      </trkpt>
      <trkpt lat="50.52312" lon="3.46815">
        <ele>23.9</ele>
        <time>2022-05-05T00:55:11Z</time>
      </trkpt>
      <trkpt lat="50.52306" lon="3.46808">
        <ele>23.9</ele>
        <time>2022-05-05T00:55:11Z</time>
      </trkpt>
      <trkpt lat="50.52299" lon="3.468">
        <ele>23.9</ele>
        <time>2022-05-05T00:55:12Z</time>
      </trkpt>
      <trkpt lat="50.52293" lon="3.46794">
        <ele>23.9</ele>
        <time>2022-05-05T00:55:13Z</time>
      </trkpt>
      <trkpt lat="50.52287" lon="3.46787">
        <ele>23.9</ele>
        <time>2022-05-05T00:55:13Z</time>
      </trkpt>
      <trkpt lat="50.52281" lon="3.46779">
        <ele>23.9</ele>
        <time>2022-05-05T00:55:14Z</time>
      </trkpt>
      <trkpt lat="50.52275" lon="3.46772">
        <ele>23.9</ele>
        <time>2022-05-05T00:55:15Z</time>
      </trkpt>
      <trkpt lat="50.52269" lon="3.46764">
        <ele>23.9</ele>
        <time>2022-05-05T00:55:16Z</time>
      </trkpt>
      <trkpt lat="50.52263" lon="3.46756">
        <ele>23.9</ele>
        <time>2022-05-05T00:55:16Z</time>
      </trkpt>
      <trkpt lat="50.52256" lon="3.4675">
        <ele>23.9</ele>
        <time>2022-05-05T00:55:17Z</time>
      </trkpt>
      <trkpt lat="50.52251" lon="3.46744">
        <ele>23.9</ele>
        <time>2022-05-05T00:55:18Z</time>
      </trkpt>
      <trkpt lat="50.52246" lon="3.46737">
        <ele>23.9</ele>
        <time>2022-05-05T00:55:18Z</time>
      </trkpt>
      <trkpt lat="50.52241" lon="3.46731">
        <ele>23.9</ele>
        <time>2022-05-05T00:55:19Z</time>
      </trkpt>
      <trkpt lat="50.52238" lon="3.46725">
        <ele>23.9</ele>
        <time>2022-05-05T00:55:19Z</time>
      </trkpt>
      <trkpt lat="50.52235" lon="3.4672">
        <ele>23.9</ele>
        <time>2022-05-05T00:55:20Z</time>
      </trkpt>
      <trkpt lat="50.52232" lon="3.46718">
        <ele>23.9</ele>
        <time>2022-05-05T00:55:20Z</time>
      </trkpt>
      <trkpt lat="50.52229" lon="3.46718">
        <ele>23.9</ele>
        <time>2022-05-05T00:55:20Z</time>
      </trkpt>
      <trkpt lat="50.52226" lon="3.46722">
        <ele>23.9</ele>
        <time>2022-05-05T00:55:21Z</time>
      </trkpt>
      <trkpt lat="50.52224" lon="3.46729">
        <ele>23.9</ele>
        <time>2022-05-05T00:55:21Z</time>
      </trkpt>
      <trkpt lat="50.52224" lon="3.4674">
        <ele>23.9</ele>
        <time>2022-05-05T00:55:22Z</time>
      </trkpt>
      <trkpt lat="50.52224" lon="3.46752">
        <ele>23.9</ele>
        <time>2022-05-05T00:55:23Z</time>
      </trkpt>
      <trkpt lat="50.52223" lon="3.46765">
        <ele>23.9</ele>
        <time>2022-05-05T00:55:23Z</time>
      </trkpt>
      <trkpt lat="50.52222" lon="3.46778">
        <ele>23.9</ele>
        <time>2022-05-05T00:55:24Z</time>
      </trkpt>
      <trkpt lat="50.52221" lon="3.4679">
        <ele>23.9</ele>
        <time>2022-05-05T00:55:25Z</time>
      </trkpt>
      <trkpt lat="50.52221" lon="3.46801">
        <ele>23.7</ele>
        <time>2022-05-05T00:55:26Z</time>
      </trkpt>
      <trkpt lat="50.52221" lon="3.46813">
        <ele>23.5</ele>
        <time>2022-05-05T00:55:26Z</time>
      </trkpt>
      <trkpt lat="50.52221" lon="3.46823">
        <ele>23.4</ele>
        <time>2022-05-05T00:55:27Z</time>
      </trkpt>
      <trkpt lat="50.52222" lon="3.46831">
        <ele>23.5</ele>
        <time>2022-05-05T00:55:27Z</time>
      </trkpt>
      <trkpt lat="50.5222" lon="3.46837">
        <ele>23.8</ele>
        <time>2022-05-05T00:55:28Z</time>
      </trkpt>
      <trkpt lat="50.52218" lon="3.46842">
        <ele>23.9</ele>
        <time>2022-05-05T00:55:28Z</time>
      </trkpt>
      <trkpt lat="50.52213" lon="3.46845">
        <ele>23.9</ele>
        <time>2022-05-05T00:55:29Z</time>
      </trkpt>
      <trkpt lat="50.52206" lon="3.46849">
        <ele>23.9</ele>
        <time>2022-05-05T00:55:29Z</time>
      </trkpt>
      <trkpt lat="50.522" lon="3.46852">
        <ele>23.9</ele>
        <time>2022-05-05T00:55:30Z</time>
      </trkpt>
      <trkpt lat="50.52192" lon="3.46854">
        <ele>23.9</ele>
        <time>2022-05-05T00:55:31Z</time>
      </trkpt>
      <trkpt lat="50.52185" lon="3.46853">
        <ele>23.9</ele>
        <time>2022-05-05T00:55:32Z</time>
      </trkpt>
      <trkpt lat="50.52177" lon="3.46853">
        <ele>23.9</ele>
        <time>2022-05-05T00:55:32Z</time>
      </trkpt>
      <trkpt lat="50.5217" lon="3.46851">
        <ele>23.9</ele>
        <time>2022-05-05T00:55:33Z</time>
      </trkpt>
      <trkpt lat="50.52163" lon="3.46847">
        <ele>23.9</ele>
        <time>2022-05-05T00:55:34Z</time>
      </trkpt>
      <trkpt lat="50.52154" lon="3.46839">
        <ele>23.9</ele>
        <time>2022-05-05T00:55:35Z</time>
      </trkpt>
      <trkpt lat="50.52146" lon="3.46831">
        <ele>23.7</ele>
        <time>2022-05-05T00:55:36Z</time>
      </trkpt>
      <trkpt lat="50.52138" lon="3.46825">
        <ele>23.5</ele>
        <time>2022-05-05T00:55:36Z</time>
      </trkpt>
      <trkpt lat="50.5213" lon="3.46818">
        <ele>23.3</ele>
        <time>2022-05-05T00:55:37Z</time>
      </trkpt>
      <trkpt lat="50.5212" lon="3.46812">
        <ele>23.1</ele>
        <time>2022-05-05T00:55:38Z</time>
      </trkpt>
      <trkpt lat="50.52111" lon="3.46804">
        <ele>23</ele>
        <time>2022-05-05T00:55:39Z</time>
      </trkpt>
      <trkpt lat="50.52101" lon="3.46796">
        <ele>23</ele>
        <time>2022-05-05T00:55:40Z</time>
      </trkpt>
      <trkpt lat="50.52092" lon="3.46787">
        <ele>22.9</ele>
        <time>2022-05-05T00:55:41Z</time>
      </trkpt>
      <trkpt lat="50.52081" lon="3.46779">
        <ele>22.9</ele>
        <time>2022-05-05T00:55:42Z</time>
      </trkpt>
      <trkpt lat="50.52071" lon="3.46771">
        <ele>22.9</ele>
        <time>2022-05-05T00:55:44Z</time>
      </trkpt>
      <trkpt lat="50.52062" lon="3.46766">
        <ele>22.9</ele>
        <time>2022-05-05T00:55:44Z</time>
      </trkpt>
      <trkpt lat="50.52054" lon="3.46761">
        <ele>23</ele>
        <time>2022-05-05T00:55:45Z</time>
      </trkpt>
      <trkpt lat="50.52047" lon="3.46754">
        <ele>23.2</ele>
        <time>2022-05-05T00:55:46Z</time>
      </trkpt>
      <trkpt lat="50.52039" lon="3.46747">
        <ele>23.3</ele>
        <time>2022-05-05T00:55:47Z</time>
      </trkpt>
      <trkpt lat="50.52032" lon="3.46739">
        <ele>23.3</ele>
        <time>2022-05-05T00:55:48Z</time>
      </trkpt>
      <trkpt lat="50.52025" lon="3.46731">
        <ele>23.3</ele>
        <time>2022-05-05T00:55:49Z</time>
      </trkpt>
      <trkpt lat="50.52018" lon="3.46725">
        <ele>23.4</ele>
        <time>2022-05-05T00:55:49Z</time>
      </trkpt>
      <trkpt lat="50.5201" lon="3.4672">
        <ele>23.4</ele>
        <time>2022-05-05T00:55:50Z</time>
      </trkpt>
      <trkpt lat="50.52001" lon="3.46715">
        <ele>23.3</ele>
        <time>2022-05-05T00:55:51Z</time>
      </trkpt>
      <trkpt lat="50.51992" lon="3.46709">
        <ele>23.2</ele>
        <time>2022-05-05T00:55:52Z</time>
      </trkpt>
      <trkpt lat="50.51982" lon="3.46702">
        <ele>23.1</ele>
        <time>2022-05-05T00:55:53Z</time>
      </trkpt>
      <trkpt lat="50.51973" lon="3.46696">
        <ele>23</ele>
        <time>2022-05-05T00:55:54Z</time>
      </trkpt>
      <trkpt lat="50.51964" lon="3.46691">
        <ele>23</ele>
        <time>2022-05-05T00:55:55Z</time>
      </trkpt>
      <trkpt lat="50.51954" lon="3.46687">
        <ele>22.9</ele>
        <time>2022-05-05T00:55:56Z</time>
      </trkpt>
      <trkpt lat="50.51944" lon="3.46684">
        <ele>22.9</ele>
        <time>2022-05-05T00:55:57Z</time>
      </trkpt>
      <trkpt lat="50.51935" lon="3.46682">
        <ele>22.9</ele>
        <time>2022-05-05T00:55:58Z</time>
      </trkpt>
      <trkpt lat="50.51925" lon="3.4668">
        <ele>22.9</ele>
        <time>2022-05-05T00:55:59Z</time>
      </trkpt>
      <trkpt lat="50.51914" lon="3.46679">
        <ele>22.9</ele>
        <time>2022-05-05T00:56:00Z</time>
      </trkpt>
      <trkpt lat="50.51903" lon="3.46678">
        <ele>22.9</ele>
        <time>2022-05-05T00:56:01Z</time>
      </trkpt>
      <trkpt lat="50.51893" lon="3.46676">
        <ele>22.9</ele>
        <time>2022-05-05T00:56:02Z</time>
      </trkpt>
      <trkpt lat="50.51883" lon="3.46676">
        <ele>22.9</ele>
        <time>2022-05-05T00:56:03Z</time>
      </trkpt>
      <trkpt lat="50.51873" lon="3.46677">
        <ele>22.9</ele>
        <time>2022-05-05T00:56:04Z</time>
      </trkpt>
      <trkpt lat="50.51863" lon="3.46678">
        <ele>22.9</ele>
        <time>2022-05-05T00:56:05Z</time>
      </trkpt>
      <trkpt lat="50.51853" lon="3.46677">
        <ele>22.9</ele>
        <time>2022-05-05T00:56:06Z</time>
      </trkpt>
      <trkpt lat="50.51844" lon="3.46674">
        <ele>22.9</ele>
        <time>2022-05-05T00:56:06Z</time>
      </trkpt>
      <trkpt lat="50.51834" lon="3.4667">
        <ele>22.9</ele>
        <time>2022-05-05T00:56:07Z</time>
      </trkpt>
      <trkpt lat="50.51823" lon="3.46668">
        <ele>22.9</ele>
        <time>2022-05-05T00:56:08Z</time>
      </trkpt>
      <trkpt lat="50.51812" lon="3.46665">
        <ele>22.9</ele>
        <time>2022-05-05T00:56:09Z</time>
      </trkpt>
      <trkpt lat="50.51802" lon="3.46662">
        <ele>22.9</ele>
        <time>2022-05-05T00:56:10Z</time>
      </trkpt>
      <trkpt lat="50.51791" lon="3.4666">
        <ele>22.9</ele>
        <time>2022-05-05T00:56:12Z</time>
      </trkpt>
      <trkpt lat="50.51778" lon="3.46656">
        <ele>22.9</ele>
        <time>2022-05-05T00:56:13Z</time>
      </trkpt>
      <trkpt lat="50.51765" lon="3.46653">
        <ele>22.9</ele>
        <time>2022-05-05T00:56:14Z</time>
      </trkpt>
      <trkpt lat="50.51752" lon="3.4665">
        <ele>22.7</ele>
        <time>2022-05-05T00:56:15Z</time>
      </trkpt>
      <trkpt lat="50.5174" lon="3.46647">
        <ele>22.5</ele>
        <time>2022-05-05T00:56:17Z</time>
      </trkpt>
      <trkpt lat="50.51728" lon="3.46644">
        <ele>22.2</ele>
        <time>2022-05-05T00:56:18Z</time>
      </trkpt>
      <trkpt lat="50.51717" lon="3.46642">
        <ele>22.1</ele>
        <time>2022-05-05T00:56:19Z</time>
      </trkpt>
      <trkpt lat="50.51707" lon="3.46641">
        <ele>22</ele>
        <time>2022-05-05T00:56:20Z</time>
      </trkpt>
      <trkpt lat="50.51697" lon="3.46639">
        <ele>22</ele>
        <time>2022-05-05T00:56:21Z</time>
      </trkpt>
      <trkpt lat="50.51688" lon="3.46638">
        <ele>21.9</ele>
        <time>2022-05-05T00:56:21Z</time>
      </trkpt>
      <trkpt lat="50.5168" lon="3.46636">
        <ele>21.9</ele>
        <time>2022-05-05T00:56:22Z</time>
      </trkpt>
      <trkpt lat="50.51673" lon="3.46634">
        <ele>21.9</ele>
        <time>2022-05-05T00:56:23Z</time>
      </trkpt>
      <trkpt lat="50.51666" lon="3.46632">
        <ele>21.9</ele>
        <time>2022-05-05T00:56:24Z</time>
      </trkpt>
      <trkpt lat="50.5166" lon="3.4663">
        <ele>21.9</ele>
        <time>2022-05-05T00:56:24Z</time>
      </trkpt>
      <trkpt lat="50.51654" lon="3.46627">
        <ele>21.9</ele>
        <time>2022-05-05T00:56:25Z</time>
      </trkpt>
      <trkpt lat="50.51648" lon="3.46621">
        <ele>21.9</ele>
        <time>2022-05-05T00:56:25Z</time>
      </trkpt>
      <trkpt lat="50.51641" lon="3.46616">
        <ele>21.9</ele>
        <time>2022-05-05T00:56:26Z</time>
      </trkpt>
      <trkpt lat="50.51636" lon="3.4661">
        <ele>21.9</ele>
        <time>2022-05-05T00:56:27Z</time>
      </trkpt>
      <trkpt lat="50.51631" lon="3.46605">
        <ele>21.9</ele>
        <time>2022-05-05T00:56:27Z</time>
      </trkpt>
      <trkpt lat="50.51626" lon="3.46601">
        <ele>21.9</ele>
        <time>2022-05-05T00:56:28Z</time>
      </trkpt>
      <trkpt lat="50.51621" lon="3.46598">
        <ele>21.9</ele>
        <time>2022-05-05T00:56:28Z</time>
      </trkpt>
      <trkpt lat="50.51617" lon="3.46596">
        <ele>21.9</ele>
        <time>2022-05-05T00:56:29Z</time>
      </trkpt>
      <trkpt lat="50.51613" lon="3.46594">
        <ele>21.9</ele>
        <time>2022-05-05T00:56:29Z</time>
      </trkpt>
      <trkpt lat="50.51611" lon="3.46593">
        <ele>21.9</ele>
        <time>2022-05-05T00:56:29Z</time>
      </trkpt>
      <trkpt lat="50.51608" lon="3.46605">
        <ele>21.8</ele>
        <time>2022-05-05T00:56:30Z</time>
      </trkpt>
      <trkpt lat="50.51614" lon="3.46606">
        <ele>21.8</ele>
        <time>2022-05-05T00:56:31Z</time>
      </trkpt>
      <trkpt lat="50.51618" lon="3.46614">
        <ele>21.8</ele>
        <time>2022-05-05T00:56:31Z</time>
      </trkpt>
      <trkpt lat="50.51622" lon="3.46618">
        <ele>21.8</ele>
        <time>2022-05-05T00:56:32Z</time>
      </trkpt>
      <trkpt lat="50.51627" lon="3.46622">
        <ele>21.8</ele>
        <time>2022-05-05T00:56:32Z</time>
      </trkpt>
      <trkpt lat="50.51631" lon="3.46626">
        <ele>21.8</ele>
        <time>2022-05-05T00:56:33Z</time>
      </trkpt>
      <trkpt lat="50.51633" lon="3.4663">
        <ele>21.7</ele>
        <time>2022-05-05T00:56:33Z</time>
      </trkpt>
      <trkpt lat="50.51635" lon="3.46632">
        <ele>21.7</ele>
        <time>2022-05-05T00:56:33Z</time>
      </trkpt>
      <trkpt lat="50.51636" lon="3.46634">
        <ele>21.8</ele>
        <time>2022-05-05T00:56:33Z</time>
      </trkpt>
      <trkpt lat="50.51636" lon="3.46636">
        <ele>21.8</ele>
        <time>2022-05-05T00:56:34Z</time>
      </trkpt>
      <trkpt lat="50.51636" lon="3.46641">
        <ele>21.8</ele>
        <time>2022-05-05T00:56:34Z</time>
      </trkpt>
      <trkpt lat="50.51636" lon="3.46648">
        <ele>21.8</ele>
        <time>2022-05-05T00:56:34Z</time>
      </trkpt>
      <trkpt lat="50.51635" lon="3.46657">
        <ele>21.7</ele>
        <time>2022-05-05T00:56:35Z</time>
      </trkpt>
      <trkpt lat="50.51635" lon="3.46667">
        <ele>21.5</ele>
        <time>2022-05-05T00:56:35Z</time>
      </trkpt>
      <trkpt lat="50.51634" lon="3.46678">
        <ele>21.3</ele>
        <time>2022-05-05T00:56:36Z</time>
      </trkpt>
      <trkpt lat="50.51633" lon="3.46688">
        <ele>21.1</ele>
        <time>2022-05-05T00:56:37Z</time>
      </trkpt>
      <trkpt lat="50.51631" lon="3.46698">
        <ele>21</ele>
        <time>2022-05-05T00:56:37Z</time>
      </trkpt>
      <trkpt lat="50.51629" lon="3.4671">
        <ele>21</ele>
        <time>2022-05-05T00:56:38Z</time>
      </trkpt>
      <trkpt lat="50.51628" lon="3.46721">
        <ele>21.1</ele>
        <time>2022-05-05T00:56:39Z</time>
      </trkpt>
      <trkpt lat="50.51628" lon="3.46733">
        <ele>21.2</ele>
        <time>2022-05-05T00:56:39Z</time>
      </trkpt>
      <trkpt lat="50.51627" lon="3.46746">
        <ele>21.3</ele>
        <time>2022-05-05T00:56:40Z</time>
      </trkpt>
      <trkpt lat="50.51625" lon="3.46759">
        <ele>21.4</ele>
        <time>2022-05-05T00:56:41Z</time>
      </trkpt>
      <trkpt lat="50.51622" lon="3.46771">
        <ele>21.4</ele>
        <time>2022-05-05T00:56:42Z</time>
      </trkpt>
      <trkpt lat="50.51618" lon="3.46783">
        <ele>21.5</ele>
        <time>2022-05-05T00:56:43Z</time>
      </trkpt>
      <trkpt lat="50.51614" lon="3.46795">
        <ele>21.7</ele>
        <time>2022-05-05T00:56:43Z</time>
      </trkpt>
      <trkpt lat="50.5161" lon="3.46807">
        <ele>21.7</ele>
        <time>2022-05-05T00:56:44Z</time>
      </trkpt>
      <trkpt lat="50.51606" lon="3.46822">
        <ele>21.8</ele>
        <time>2022-05-05T00:56:45Z</time>
      </trkpt>
      <trkpt lat="50.51599" lon="3.46834">
        <ele>21.8</ele>
        <time>2022-05-05T00:56:46Z</time>
      </trkpt>
      <trkpt lat="50.51592" lon="3.46844">
        <ele>21.8</ele>
        <time>2022-05-05T00:56:47Z</time>
      </trkpt>
      <trkpt lat="50.51584" lon="3.46853">
        <ele>21.9</ele>
        <time>2022-05-05T00:56:48Z</time>
      </trkpt>
      <trkpt lat="50.51578" lon="3.46866">
        <ele>21.9</ele>
        <time>2022-05-05T00:56:49Z</time>
      </trkpt>
      <trkpt lat="50.51571" lon="3.46877">
        <ele>22</ele>
        <time>2022-05-05T00:56:50Z</time>
      </trkpt>
      <trkpt lat="50.51565" lon="3.4689">
        <ele>22.2</ele>
        <time>2022-05-05T00:56:51Z</time>
      </trkpt>
      <trkpt lat="50.51559" lon="3.46902">
        <ele>22.5</ele>
        <time>2022-05-05T00:56:52Z</time>
      </trkpt>
      <trkpt lat="50.51553" lon="3.46914">
        <ele>22.6</ele>
        <time>2022-05-05T00:56:53Z</time>
      </trkpt>
      <trkpt lat="50.51548" lon="3.46926">
        <ele>22.7</ele>
        <time>2022-05-05T00:56:54Z</time>
      </trkpt>
      <trkpt lat="50.51542" lon="3.46937">
        <ele>22.7</ele>
        <time>2022-05-05T00:56:55Z</time>
      </trkpt>
      <trkpt lat="50.51537" lon="3.46948">
        <ele>22.6</ele>
        <time>2022-05-05T00:56:55Z</time>
      </trkpt>
      <trkpt lat="50.51531" lon="3.46959">
        <ele>22.5</ele>
        <time>2022-05-05T00:56:56Z</time>
      </trkpt>
      <trkpt lat="50.51526" lon="3.46971">
        <ele>22.5</ele>
        <time>2022-05-05T00:56:57Z</time>
      </trkpt>
      <trkpt lat="50.51521" lon="3.46982">
        <ele>22.6</ele>
        <time>2022-05-05T00:56:58Z</time>
      </trkpt>
      <trkpt lat="50.51516" lon="3.46994">
        <ele>22.5</ele>
        <time>2022-05-05T00:56:59Z</time>
      </trkpt>
      <trkpt lat="50.51512" lon="3.47004">
        <ele>22.3</ele>
        <time>2022-05-05T00:57:00Z</time>
      </trkpt>
      <trkpt lat="50.51509" lon="3.47015">
        <ele>22.2</ele>
        <time>2022-05-05T00:57:00Z</time>
      </trkpt>
      <trkpt lat="50.51506" lon="3.47026">
        <ele>22.1</ele>
        <time>2022-05-05T00:57:01Z</time>
      </trkpt>
      <trkpt lat="50.51502" lon="3.47038">
        <ele>22</ele>
        <time>2022-05-05T00:57:02Z</time>
      </trkpt>
      <trkpt lat="50.51499" lon="3.47052">
        <ele>22</ele>
        <time>2022-05-05T00:57:03Z</time>
      </trkpt>
      <trkpt lat="50.51497" lon="3.47068">
        <ele>21.9</ele>
        <time>2022-05-05T00:57:04Z</time>
      </trkpt>
      <trkpt lat="50.51494" lon="3.47086">
        <ele>21.9</ele>
        <time>2022-05-05T00:57:05Z</time>
      </trkpt>
      <trkpt lat="50.51492" lon="3.47104">
        <ele>21.9</ele>
        <time>2022-05-05T00:57:06Z</time>
      </trkpt>
      <trkpt lat="50.5149" lon="3.47121">
        <ele>22.1</ele>
        <time>2022-05-05T00:57:07Z</time>
      </trkpt>
      <trkpt lat="50.51488" lon="3.47136">
        <ele>22.3</ele>
        <time>2022-05-05T00:57:08Z</time>
      </trkpt>
      <trkpt lat="50.51486" lon="3.47149">
        <ele>22.5</ele>
        <time>2022-05-05T00:57:09Z</time>
      </trkpt>
      <trkpt lat="50.51485" lon="3.47161">
        <ele>22.6</ele>
        <time>2022-05-05T00:57:09Z</time>
      </trkpt>
      <trkpt lat="50.51483" lon="3.47171">
        <ele>22.7</ele>
        <time>2022-05-05T00:57:10Z</time>
      </trkpt>
      <trkpt lat="50.51483" lon="3.47179">
        <ele>22.8</ele>
        <time>2022-05-05T00:57:11Z</time>
      </trkpt>
      <trkpt lat="50.51481" lon="3.47184">
        <ele>22.7</ele>
        <time>2022-05-05T00:57:11Z</time>
      </trkpt>
      <trkpt lat="50.51479" lon="3.47188">
        <ele>22.6</ele>
        <time>2022-05-05T00:57:11Z</time>
      </trkpt>
      <trkpt lat="50.51478" lon="3.47191">
        <ele>22.5</ele>
        <time>2022-05-05T00:57:11Z</time>
      </trkpt>
      <trkpt lat="50.51476" lon="3.47194">
        <ele>22.4</ele>
        <time>2022-05-05T00:57:12Z</time>
      </trkpt>
      <trkpt lat="50.51473" lon="3.47198">
        <ele>22.3</ele>
        <time>2022-05-05T00:57:12Z</time>
      </trkpt>
      <trkpt lat="50.51469" lon="3.47222">
        <ele>22.5</ele>
        <time>2022-05-05T00:57:14Z</time>
      </trkpt>
      <trkpt lat="50.51466" lon="3.4723">
        <ele>22.6</ele>
        <time>2022-05-05T00:57:14Z</time>
      </trkpt>
      <trkpt lat="50.51463" lon="3.47239">
        <ele>22.7</ele>
        <time>2022-05-05T00:57:15Z</time>
      </trkpt>
      <trkpt lat="50.51461" lon="3.47248">
        <ele>22.8</ele>
        <time>2022-05-05T00:57:15Z</time>
      </trkpt>
      <trkpt lat="50.51458" lon="3.47257">
        <ele>22.8</ele>
        <time>2022-05-05T00:57:16Z</time>
      </trkpt>
      <trkpt lat="50.51455" lon="3.47265">
        <ele>22.8</ele>
        <time>2022-05-05T00:57:17Z</time>
      </trkpt>
      <trkpt lat="50.51451" lon="3.47274">
        <ele>22.9</ele>
        <time>2022-05-05T00:57:17Z</time>
      </trkpt>
      <trkpt lat="50.51448" lon="3.47284">
        <ele>22.9</ele>
        <time>2022-05-05T00:57:18Z</time>
      </trkpt>
      <trkpt lat="50.51444" lon="3.47295">
        <ele>22.9</ele>
        <time>2022-05-05T00:57:19Z</time>
      </trkpt>
      <trkpt lat="50.51439" lon="3.47306">
        <ele>22.9</ele>
        <time>2022-05-05T00:57:19Z</time>
      </trkpt>
      <trkpt lat="50.51433" lon="3.47317">
        <ele>23</ele>
        <time>2022-05-05T00:57:20Z</time>
      </trkpt>
      <trkpt lat="50.51427" lon="3.47328">
        <ele>23.2</ele>
        <time>2022-05-05T00:57:21Z</time>
      </trkpt>
      <trkpt lat="50.5142" lon="3.4734">
        <ele>23.4</ele>
        <time>2022-05-05T00:57:22Z</time>
      </trkpt>
      <trkpt lat="50.51413" lon="3.47352">
        <ele>23.6</ele>
        <time>2022-05-05T00:57:23Z</time>
      </trkpt>
      <trkpt lat="50.51407" lon="3.47365">
        <ele>23.7</ele>
        <time>2022-05-05T00:57:24Z</time>
      </trkpt>
      <trkpt lat="50.51402" lon="3.47379">
        <ele>23.9</ele>
        <time>2022-05-05T00:57:25Z</time>
      </trkpt>
      <trkpt lat="50.51397" lon="3.47394">
        <ele>24.2</ele>
        <time>2022-05-05T00:57:26Z</time>
      </trkpt>
      <trkpt lat="50.51391" lon="3.47411">
        <ele>24.4</ele>
        <time>2022-05-05T00:57:27Z</time>
      </trkpt>
      <trkpt lat="50.51386" lon="3.47428">
        <ele>24.6</ele>
        <time>2022-05-05T00:57:28Z</time>
      </trkpt>
      <trkpt lat="50.51381" lon="3.47444">
        <ele>24.9</ele>
        <time>2022-05-05T00:57:30Z</time>
      </trkpt>
      <trkpt lat="50.51376" lon="3.47458">
        <ele>25.2</ele>
        <time>2022-05-05T00:57:30Z</time>
      </trkpt>
      <trkpt lat="50.51372" lon="3.47472">
        <ele>25.5</ele>
        <time>2022-05-05T00:57:31Z</time>
      </trkpt>
      <trkpt lat="50.51368" lon="3.47485">
        <ele>25.6</ele>
        <time>2022-05-05T00:57:32Z</time>
      </trkpt>
      <trkpt lat="50.51363" lon="3.47498">
        <ele>25.8</ele>
        <time>2022-05-05T00:57:33Z</time>
      </trkpt>
      <trkpt lat="50.51359" lon="3.4751">
        <ele>25.8</ele>
        <time>2022-05-05T00:57:34Z</time>
      </trkpt>
      <trkpt lat="50.51355" lon="3.47522">
        <ele>26</ele>
        <time>2022-05-05T00:57:35Z</time>
      </trkpt>
      <trkpt lat="50.51351" lon="3.47532">
        <ele>26.3</ele>
        <time>2022-05-05T00:57:36Z</time>
      </trkpt>
      <trkpt lat="50.51348" lon="3.4754">
        <ele>26.5</ele>
        <time>2022-05-05T00:57:36Z</time>
      </trkpt>
      <trkpt lat="50.51347" lon="3.47548">
        <ele>26.7</ele>
        <time>2022-05-05T00:57:37Z</time>
      </trkpt>
      <trkpt lat="50.51347" lon="3.47556">
        <ele>26.9</ele>
        <time>2022-05-05T00:57:37Z</time>
      </trkpt>
      <trkpt lat="50.5135" lon="3.47563">
        <ele>27.1</ele>
        <time>2022-05-05T00:57:38Z</time>
      </trkpt>
      <trkpt lat="50.51354" lon="3.47571">
        <ele>27.2</ele>
        <time>2022-05-05T00:57:38Z</time>
      </trkpt>
      <trkpt lat="50.51359" lon="3.47581">
        <ele>27.3</ele>
        <time>2022-05-05T00:57:39Z</time>
      </trkpt>
      <trkpt lat="50.51365" lon="3.47592">
        <ele>27.5</ele>
        <time>2022-05-05T00:57:40Z</time>
      </trkpt>
      <trkpt lat="50.51372" lon="3.47605">
        <ele>27.6</ele>
        <time>2022-05-05T00:57:41Z</time>
      </trkpt>
      <trkpt lat="50.51381" lon="3.47618">
        <ele>27.7</ele>
        <time>2022-05-05T00:57:42Z</time>
      </trkpt>
      <trkpt lat="50.5139" lon="3.47634">
        <ele>27.8</ele>
        <time>2022-05-05T00:57:43Z</time>
      </trkpt>
      <trkpt lat="50.51399" lon="3.47651">
        <ele>27.8</ele>
        <time>2022-05-05T00:57:45Z</time>
      </trkpt>
      <trkpt lat="50.51409" lon="3.4767">
        <ele>27.8</ele>
        <time>2022-05-05T00:57:46Z</time>
      </trkpt>
      <trkpt lat="50.5142" lon="3.47689">
        <ele>27.9</ele>
        <time>2022-05-05T00:57:48Z</time>
      </trkpt>
      <trkpt lat="50.5143" lon="3.47708">
        <ele>28.1</ele>
        <time>2022-05-05T00:57:49Z</time>
      </trkpt>
      <trkpt lat="50.5144" lon="3.47725">
        <ele>28.3</ele>
        <time>2022-05-05T00:57:51Z</time>
      </trkpt>
      <trkpt lat="50.51449" lon="3.4774">
        <ele>28.5</ele>
        <time>2022-05-05T00:57:52Z</time>
      </trkpt>
      <trkpt lat="50.51457" lon="3.47755">
        <ele>28.6</ele>
        <time>2022-05-05T00:57:53Z</time>
      </trkpt>
      <trkpt lat="50.51464" lon="3.47767">
        <ele>28.7</ele>
        <time>2022-05-05T00:57:54Z</time>
      </trkpt>
      <trkpt lat="50.51471" lon="3.47778">
        <ele>28.8</ele>
        <time>2022-05-05T00:57:55Z</time>
      </trkpt>
      <trkpt lat="50.51477" lon="3.47791">
        <ele>28.8</ele>
        <time>2022-05-05T00:57:56Z</time>
      </trkpt>
      <trkpt lat="50.51483" lon="3.47805">
        <ele>28.8</ele>
        <time>2022-05-05T00:57:57Z</time>
      </trkpt>
      <trkpt lat="50.51488" lon="3.4782">
        <ele>28.9</ele>
        <time>2022-05-05T00:57:58Z</time>
      </trkpt>
      <trkpt lat="50.51492" lon="3.47835">
        <ele>28.9</ele>
        <time>2022-05-05T00:57:59Z</time>
      </trkpt>
      <trkpt lat="50.51497" lon="3.47849">
        <ele>29</ele>
        <time>2022-05-05T00:58:00Z</time>
      </trkpt>
      <trkpt lat="50.51501" lon="3.47862">
        <ele>29.2</ele>
        <time>2022-05-05T00:58:01Z</time>
      </trkpt>
      <trkpt lat="50.51508" lon="3.47874">
        <ele>29.4</ele>
        <time>2022-05-05T00:58:02Z</time>
      </trkpt>
      <trkpt lat="50.51516" lon="3.47887">
        <ele>29.6</ele>
        <time>2022-05-05T00:58:03Z</time>
      </trkpt>
      <trkpt lat="50.51525" lon="3.479">
        <ele>29.7</ele>
        <time>2022-05-05T00:58:04Z</time>
      </trkpt>
      <trkpt lat="50.51535" lon="3.47913">
        <ele>29.8</ele>
        <time>2022-05-05T00:58:05Z</time>
      </trkpt>
      <trkpt lat="50.51546" lon="3.47926">
        <ele>29.8</ele>
        <time>2022-05-05T00:58:07Z</time>
      </trkpt>
      <trkpt lat="50.51558" lon="3.4794">
        <ele>30</ele>
        <time>2022-05-05T00:58:08Z</time>
      </trkpt>
      <trkpt lat="50.51571" lon="3.47954">
        <ele>30.2</ele>
        <time>2022-05-05T00:58:10Z</time>
      </trkpt>
      <trkpt lat="50.51584" lon="3.47969">
        <ele>30.5</ele>
        <time>2022-05-05T00:58:11Z</time>
      </trkpt>
      <trkpt lat="50.51597" lon="3.47986">
        <ele>30.6</ele>
        <time>2022-05-05T00:58:13Z</time>
      </trkpt>
      <trkpt lat="50.5161" lon="3.48004">
        <ele>30.8</ele>
        <time>2022-05-05T00:58:14Z</time>
      </trkpt>
      <trkpt lat="50.51624" lon="3.48022">
        <ele>30.9</ele>
        <time>2022-05-05T00:58:16Z</time>
      </trkpt>
      <trkpt lat="50.51638" lon="3.48036">
        <ele>31</ele>
        <time>2022-05-05T00:58:18Z</time>
      </trkpt>
      <trkpt lat="50.5165" lon="3.48052">
        <ele>31</ele>
        <time>2022-05-05T00:58:19Z</time>
      </trkpt>
      <trkpt lat="50.51661" lon="3.48073">
        <ele>31</ele>
        <time>2022-05-05T00:58:21Z</time>
      </trkpt>
      <trkpt lat="50.5167" lon="3.48092">
        <ele>30.9</ele>
        <time>2022-05-05T00:58:22Z</time>
      </trkpt>
      <trkpt lat="50.5168" lon="3.48111">
        <ele>30.9</ele>
        <time>2022-05-05T00:58:24Z</time>
      </trkpt>
      <trkpt lat="50.51687" lon="3.48131">
        <ele>30.7</ele>
        <time>2022-05-05T00:58:25Z</time>
      </trkpt>
      <trkpt lat="50.51693" lon="3.48149">
        <ele>30.7</ele>
        <time>2022-05-05T00:58:26Z</time>
      </trkpt>
      <trkpt lat="50.517" lon="3.48163">
        <ele>30.8</ele>
        <time>2022-05-05T00:58:27Z</time>
      </trkpt>
      <trkpt lat="50.51707" lon="3.48175">
        <ele>30.8</ele>
        <time>2022-05-05T00:58:28Z</time>
      </trkpt>
      <trkpt lat="50.51716" lon="3.48181">
        <ele>30.8</ele>
        <time>2022-05-05T00:58:29Z</time>
      </trkpt>
      <trkpt lat="50.51723" lon="3.48191">
        <ele>30.8</ele>
        <time>2022-05-05T00:58:30Z</time>
      </trkpt>
      <trkpt lat="50.51729" lon="3.48197">
        <ele>30.9</ele>
        <time>2022-05-05T00:58:31Z</time>
      </trkpt>
      <trkpt lat="50.51735" lon="3.48205">
        <ele>30.8</ele>
        <time>2022-05-05T00:58:32Z</time>
      </trkpt>
      <trkpt lat="50.51739" lon="3.48213">
        <ele>30.6</ele>
        <time>2022-05-05T00:58:32Z</time>
      </trkpt>
      <trkpt lat="50.51743" lon="3.48223">
        <ele>30.5</ele>
        <time>2022-05-05T00:58:33Z</time>
      </trkpt>
      <trkpt lat="50.51749" lon="3.48227">
        <ele>30.4</ele>
        <time>2022-05-05T00:58:34Z</time>
      </trkpt>
      <trkpt lat="50.51754" lon="3.48231">
        <ele>30.3</ele>
        <time>2022-05-05T00:58:34Z</time>
      </trkpt>
      <trkpt lat="50.51757" lon="3.48236">
        <ele>30.2</ele>
        <time>2022-05-05T00:58:35Z</time>
      </trkpt>
      <trkpt lat="50.5176" lon="3.48238">
        <ele>30.2</ele>
        <time>2022-05-05T00:58:35Z</time>
      </trkpt>
      <trkpt lat="50.51762" lon="3.48241">
        <ele>30.1</ele>
        <time>2022-05-05T00:58:35Z</time>
      </trkpt>
      <trkpt lat="50.51762" lon="3.48244">
        <ele>30.1</ele>
        <time>2022-05-05T00:58:35Z</time>
      </trkpt>
      <trkpt lat="50.51761" lon="3.48246">
        <ele>30.2</ele>
        <time>2022-05-05T00:58:36Z</time>
      </trkpt>
      <trkpt lat="50.51761" lon="3.4825">
        <ele>30.2</ele>
        <time>2022-05-05T00:58:36Z</time>
      </trkpt>
      <trkpt lat="50.5176" lon="3.48252">
        <ele>30.3</ele>
        <time>2022-05-05T00:58:36Z</time>
      </trkpt>
      <trkpt lat="50.51757" lon="3.4827">
        <ele>30.6</ele>
        <time>2022-05-05T00:58:37Z</time>
      </trkpt>
      <trkpt lat="50.51758" lon="3.48279">
        <ele>30.6</ele>
        <time>2022-05-05T00:58:38Z</time>
      </trkpt>
      <trkpt lat="50.51756" lon="3.48287">
        <ele>30.6</ele>
        <time>2022-05-05T00:58:38Z</time>
      </trkpt>
      <trkpt lat="50.51753" lon="3.48298">
        <ele>30.7</ele>
        <time>2022-05-05T00:58:39Z</time>
      </trkpt>
      <trkpt lat="50.51752" lon="3.4831">
        <ele>30.7</ele>
        <time>2022-05-05T00:58:40Z</time>
      </trkpt>
      <trkpt lat="50.51749" lon="3.48323">
        <ele>30.8</ele>
        <time>2022-05-05T00:58:40Z</time>
      </trkpt>
      <trkpt lat="50.51747" lon="3.48336">
        <ele>31.1</ele>
        <time>2022-05-05T00:58:41Z</time>
      </trkpt>
      <trkpt lat="50.51746" lon="3.48347">
        <ele>31.3</ele>
        <time>2022-05-05T00:58:42Z</time>
      </trkpt>
      <trkpt lat="50.51747" lon="3.48358">
        <ele>31.4</ele>
        <time>2022-05-05T00:58:42Z</time>
      </trkpt>
      <trkpt lat="50.51746" lon="3.48367">
        <ele>31.2</ele>
        <time>2022-05-05T00:58:43Z</time>
      </trkpt>
      <trkpt lat="50.51742" lon="3.48371">
        <ele>31.1</ele>
        <time>2022-05-05T00:58:44Z</time>
      </trkpt>
      <trkpt lat="50.51738" lon="3.48401">
        <ele>30.9</ele>
        <time>2022-05-05T00:58:45Z</time>
      </trkpt>
      <trkpt lat="50.51736" lon="3.4841">
        <ele>30.9</ele>
        <time>2022-05-05T00:58:46Z</time>
      </trkpt>
      <trkpt lat="50.51735" lon="3.48417">
        <ele>30.9</ele>
        <time>2022-05-05T00:58:46Z</time>
      </trkpt>
      <trkpt lat="50.51733" lon="3.48424">
        <ele>30.9</ele>
        <time>2022-05-05T00:58:47Z</time>
      </trkpt>
      <trkpt lat="50.51731" lon="3.48431">
        <ele>30.9</ele>
        <time>2022-05-05T00:58:47Z</time>
      </trkpt>
      <trkpt lat="50.51729" lon="3.48438">
        <ele>30.9</ele>
        <time>2022-05-05T00:58:48Z</time>
      </trkpt>
      <trkpt lat="50.51726" lon="3.48445">
        <ele>30.9</ele>
        <time>2022-05-05T00:58:48Z</time>
      </trkpt>
      <trkpt lat="50.51724" lon="3.48453">
        <ele>30.9</ele>
        <time>2022-05-05T00:58:49Z</time>
      </trkpt>
      <trkpt lat="50.51721" lon="3.48459">
        <ele>30.9</ele>
        <time>2022-05-05T00:58:49Z</time>
      </trkpt>
      <trkpt lat="50.51717" lon="3.48468">
        <ele>30.9</ele>
        <time>2022-05-05T00:58:50Z</time>
      </trkpt>
      <trkpt lat="50.51713" lon="3.48477">
        <ele>30.9</ele>
        <time>2022-05-05T00:58:51Z</time>
      </trkpt>
      <trkpt lat="50.51708" lon="3.48487">
        <ele>30.9</ele>
        <time>2022-05-05T00:58:51Z</time>
      </trkpt>
      <trkpt lat="50.51703" lon="3.48494">
        <ele>30.9</ele>
        <time>2022-05-05T00:58:52Z</time>
      </trkpt>
      <trkpt lat="50.51697" lon="3.48503">
        <ele>30.9</ele>
        <time>2022-05-05T00:58:53Z</time>
      </trkpt>
      <trkpt lat="50.51691" lon="3.48511">
        <ele>30.9</ele>
        <time>2022-05-05T00:58:54Z</time>
      </trkpt>
      <trkpt lat="50.51686" lon="3.48519">
        <ele>30.9</ele>
        <time>2022-05-05T00:58:54Z</time>
      </trkpt>
      <trkpt lat="50.51679" lon="3.48528">
        <ele>30.9</ele>
        <time>2022-05-05T00:58:55Z</time>
      </trkpt>
      <trkpt lat="50.51673" lon="3.48537">
        <ele>30.9</ele>
        <time>2022-05-05T00:58:56Z</time>
      </trkpt>
      <trkpt lat="50.51667" lon="3.48546">
        <ele>30.9</ele>
        <time>2022-05-05T00:58:57Z</time>
      </trkpt>
      <trkpt lat="50.5166" lon="3.48556">
        <ele>30.9</ele>
        <time>2022-05-05T00:58:58Z</time>
      </trkpt>
      <trkpt lat="50.51654" lon="3.48565">
        <ele>30.9</ele>
        <time>2022-05-05T00:58:58Z</time>
      </trkpt>
      <trkpt lat="50.51648" lon="3.48574">
        <ele>30.9</ele>
        <time>2022-05-05T00:58:59Z</time>
      </trkpt>
      <trkpt lat="50.51641" lon="3.48584">
        <ele>30.9</ele>
        <time>2022-05-05T00:59:00Z</time>
      </trkpt>
      <trkpt lat="50.51635" lon="3.48594">
        <ele>30.9</ele>
        <time>2022-05-05T00:59:01Z</time>
      </trkpt>
      <trkpt lat="50.51628" lon="3.48604">
        <ele>30.9</ele>
        <time>2022-05-05T00:59:02Z</time>
      </trkpt>
      <trkpt lat="50.51621" lon="3.48615">
        <ele>30.9</ele>
        <time>2022-05-05T00:59:03Z</time>
      </trkpt>
      <trkpt lat="50.51614" lon="3.48625">
        <ele>30.9</ele>
        <time>2022-05-05T00:59:04Z</time>
      </trkpt>
      <trkpt lat="50.51607" lon="3.48636">
        <ele>30.9</ele>
        <time>2022-05-05T00:59:05Z</time>
      </trkpt>
      <trkpt lat="50.516" lon="3.48645">
        <ele>30.9</ele>
        <time>2022-05-05T00:59:05Z</time>
      </trkpt>
      <trkpt lat="50.51595" lon="3.48653">
        <ele>30.9</ele>
        <time>2022-05-05T00:59:06Z</time>
      </trkpt>
      <trkpt lat="50.51591" lon="3.4866">
        <ele>30.9</ele>
        <time>2022-05-05T00:59:07Z</time>
      </trkpt>
      <trkpt lat="50.51587" lon="3.48665">
        <ele>30.9</ele>
        <time>2022-05-05T00:59:07Z</time>
      </trkpt>
      <trkpt lat="50.51583" lon="3.48669">
        <ele>30.9</ele>
        <time>2022-05-05T00:59:08Z</time>
      </trkpt>
      <trkpt lat="50.5158" lon="3.48672">
        <ele>30.9</ele>
        <time>2022-05-05T00:59:08Z</time>
      </trkpt>
      <trkpt lat="50.51577" lon="3.48672">
        <ele>30.9</ele>
        <time>2022-05-05T00:59:08Z</time>
      </trkpt>
      <trkpt lat="50.51573" lon="3.48669">
        <ele>30.9</ele>
        <time>2022-05-05T00:59:09Z</time>
      </trkpt>
      <trkpt lat="50.5157" lon="3.48664">
        <ele>30.9</ele>
        <time>2022-05-05T00:59:09Z</time>
      </trkpt>
      <trkpt lat="50.51566" lon="3.48658">
        <ele>30.9</ele>
        <time>2022-05-05T00:59:10Z</time>
      </trkpt>
      <trkpt lat="50.51562" lon="3.48651">
        <ele>30.9</ele>
        <time>2022-05-05T00:59:10Z</time>
      </trkpt>
      <trkpt lat="50.51557" lon="3.48646">
        <ele>30.9</ele>
        <time>2022-05-05T00:59:11Z</time>
      </trkpt>
      <trkpt lat="50.51553" lon="3.4864">
        <ele>30.9</ele>
        <time>2022-05-05T00:59:11Z</time>
      </trkpt>
      <trkpt lat="50.51548" lon="3.48633">
        <ele>30.9</ele>
        <time>2022-05-05T00:59:12Z</time>
      </trkpt>
      <trkpt lat="50.51543" lon="3.48624">
        <ele>30.9</ele>
        <time>2022-05-05T00:59:13Z</time>
      </trkpt>
      <trkpt lat="50.51536" lon="3.48614">
        <ele>30.9</ele>
        <time>2022-05-05T00:59:13Z</time>
      </trkpt>
      <trkpt lat="50.51529" lon="3.48604">
        <ele>30.9</ele>
        <time>2022-05-05T00:59:14Z</time>
      </trkpt>
      <trkpt lat="50.51523" lon="3.48595">
        <ele>30.9</ele>
        <time>2022-05-05T00:59:15Z</time>
      </trkpt>
      <trkpt lat="50.51518" lon="3.48586">
        <ele>30.9</ele>
        <time>2022-05-05T00:59:16Z</time>
      </trkpt>
      <trkpt lat="50.51511" lon="3.48576">
        <ele>30.9</ele>
        <time>2022-05-05T00:59:17Z</time>
      </trkpt>
      <trkpt lat="50.51505" lon="3.48567">
        <ele>30.8</ele>
        <time>2022-05-05T00:59:18Z</time>
      </trkpt>
      <trkpt lat="50.51498" lon="3.48557">
        <ele>30.7</ele>
        <time>2022-05-05T00:59:18Z</time>
      </trkpt>
      <trkpt lat="50.51492" lon="3.48548">
        <ele>30.4</ele>
        <time>2022-05-05T00:59:19Z</time>
      </trkpt>
      <trkpt lat="50.51485" lon="3.4854">
        <ele>30.2</ele>
        <time>2022-05-05T00:59:20Z</time>
      </trkpt>
      <trkpt lat="50.51479" lon="3.48532">
        <ele>30.1</ele>
        <time>2022-05-05T00:59:21Z</time>
      </trkpt>
      <trkpt lat="50.51473" lon="3.48525">
        <ele>30</ele>
        <time>2022-05-05T00:59:22Z</time>
      </trkpt>
      <trkpt lat="50.51467" lon="3.48518">
        <ele>30</ele>
        <time>2022-05-05T00:59:22Z</time>
      </trkpt>
      <trkpt lat="50.51461" lon="3.48511">
        <ele>29.9</ele>
        <time>2022-05-05T00:59:23Z</time>
      </trkpt>
      <trkpt lat="50.51455" lon="3.48504">
        <ele>29.9</ele>
        <time>2022-05-05T00:59:24Z</time>
      </trkpt>
      <trkpt lat="50.51446" lon="3.48496">
        <ele>29.9</ele>
        <time>2022-05-05T00:59:25Z</time>
      </trkpt>
      <trkpt lat="50.51437" lon="3.48488">
        <ele>29.9</ele>
        <time>2022-05-05T00:59:26Z</time>
      </trkpt>
      <trkpt lat="50.51427" lon="3.48479">
        <ele>29.8</ele>
        <time>2022-05-05T00:59:27Z</time>
      </trkpt>
      <trkpt lat="50.51416" lon="3.48469">
        <ele>29.6</ele>
        <time>2022-05-05T00:59:28Z</time>
      </trkpt>
      <trkpt lat="50.51404" lon="3.48459">
        <ele>29.4</ele>
        <time>2022-05-05T00:59:29Z</time>
      </trkpt>
      <trkpt lat="50.51393" lon="3.48448">
        <ele>29.2</ele>
        <time>2022-05-05T00:59:31Z</time>
      </trkpt>
      <trkpt lat="50.51382" lon="3.48439">
        <ele>29.1</ele>
        <time>2022-05-05T00:59:32Z</time>
      </trkpt>
      <trkpt lat="50.51371" lon="3.48431">
        <ele>28.9</ele>
        <time>2022-05-05T00:59:33Z</time>
      </trkpt>
      <trkpt lat="50.5136" lon="3.48422">
        <ele>28.6</ele>
        <time>2022-05-05T00:59:34Z</time>
      </trkpt>
      <trkpt lat="50.5135" lon="3.48413">
        <ele>28.3</ele>
        <time>2022-05-05T00:59:35Z</time>
      </trkpt>
      <trkpt lat="50.51339" lon="3.48404">
        <ele>28.1</ele>
        <time>2022-05-05T00:59:36Z</time>
      </trkpt>
      <trkpt lat="50.51329" lon="3.48396">
        <ele>27.9</ele>
        <time>2022-05-05T00:59:37Z</time>
      </trkpt>
      <trkpt lat="50.51319" lon="3.48388">
        <ele>27.6</ele>
        <time>2022-05-05T00:59:38Z</time>
      </trkpt>
      <trkpt lat="50.5131" lon="3.4838">
        <ele>27.3</ele>
        <time>2022-05-05T00:59:39Z</time>
      </trkpt>
      <trkpt lat="50.51301" lon="3.48373">
        <ele>27.2</ele>
        <time>2022-05-05T00:59:40Z</time>
      </trkpt>
      <trkpt lat="50.51293" lon="3.48367">
        <ele>27</ele>
        <time>2022-05-05T00:59:41Z</time>
      </trkpt>
      <trkpt lat="50.51286" lon="3.48361">
        <ele>26.8</ele>
        <time>2022-05-05T00:59:42Z</time>
      </trkpt>
      <trkpt lat="50.5128" lon="3.48355">
        <ele>26.6</ele>
        <time>2022-05-05T00:59:43Z</time>
      </trkpt>
      <trkpt lat="50.51276" lon="3.48352">
        <ele>26.4</ele>
        <time>2022-05-05T00:59:43Z</time>
      </trkpt>
      <trkpt lat="50.51272" lon="3.48348">
        <ele>26.2</ele>
        <time>2022-05-05T00:59:43Z</time>
      </trkpt>
      <trkpt lat="50.51269" lon="3.48345">
        <ele>26.1</ele>
        <time>2022-05-05T00:59:44Z</time>
      </trkpt>
      <trkpt lat="50.51268" lon="3.48341">
        <ele>26</ele>
        <time>2022-05-05T00:59:44Z</time>
      </trkpt>
      <trkpt lat="50.51266" lon="3.48338">
        <ele>26</ele>
        <time>2022-05-05T00:59:44Z</time>
      </trkpt>
      <trkpt lat="50.51266" lon="3.48334">
        <ele>25.9</ele>
        <time>2022-05-05T00:59:45Z</time>
      </trkpt>
      <trkpt lat="50.51266" lon="3.48329">
        <ele>25.9</ele>
        <time>2022-05-05T00:59:45Z</time>
      </trkpt>
      <trkpt lat="50.51264" lon="3.48323">
        <ele>25.9</ele>
        <time>2022-05-05T00:59:45Z</time>
      </trkpt>
      <trkpt lat="50.51261" lon="3.48316">
        <ele>25.9</ele>
        <time>2022-05-05T00:59:46Z</time>
      </trkpt>
      <trkpt lat="50.51259" lon="3.48308">
        <ele>25.9</ele>
        <time>2022-05-05T00:59:46Z</time>
      </trkpt>
      <trkpt lat="50.51256" lon="3.48299">
        <ele>25.9</ele>
        <time>2022-05-05T00:59:47Z</time>
      </trkpt>
      <trkpt lat="50.51253" lon="3.48291">
        <ele>25.9</ele>
        <time>2022-05-05T00:59:47Z</time>
      </trkpt>
      <trkpt lat="50.5125" lon="3.48283">
        <ele>25.9</ele>
        <time>2022-05-05T00:59:48Z</time>
      </trkpt>
      <trkpt lat="50.51247" lon="3.48274">
        <ele>25.9</ele>
        <time>2022-05-05T00:59:49Z</time>
      </trkpt>
      <trkpt lat="50.51245" lon="3.48265">
        <ele>25.8</ele>
        <time>2022-05-05T00:59:49Z</time>
      </trkpt>
      <trkpt lat="50.51242" lon="3.48255">
        <ele>25.8</ele>
        <time>2022-05-05T00:59:50Z</time>
      </trkpt>
      <trkpt lat="50.51239" lon="3.48246">
        <ele>25.7</ele>
        <time>2022-05-05T00:59:51Z</time>
      </trkpt>
      <trkpt lat="50.51238" lon="3.48237">
        <ele>25.6</ele>
        <time>2022-05-05T00:59:51Z</time>
      </trkpt>
      <trkpt lat="50.51236" lon="3.48228">
        <ele>25.6</ele>
        <time>2022-05-05T00:59:52Z</time>
      </trkpt>
      <trkpt lat="50.51235" lon="3.4822">
        <ele>25.5</ele>
        <time>2022-05-05T00:59:52Z</time>
      </trkpt>
      <trkpt lat="50.51233" lon="3.48213">
        <ele>25.4</ele>
        <time>2022-05-05T00:59:53Z</time>
      </trkpt>
      <trkpt lat="50.51232" lon="3.48205">
        <ele>25.4</ele>
        <time>2022-05-05T00:59:53Z</time>
      </trkpt>
      <trkpt lat="50.5123" lon="3.48199">
        <ele>25.3</ele>
        <time>2022-05-05T00:59:53Z</time>
      </trkpt>
      <trkpt lat="50.51228" lon="3.48191">
        <ele>25.3</ele>
        <time>2022-05-05T00:59:54Z</time>
      </trkpt>
      <trkpt lat="50.51226" lon="3.48181">
        <ele>25.2</ele>
        <time>2022-05-05T00:59:55Z</time>
      </trkpt>
      <trkpt lat="50.51223" lon="3.48173">
        <ele>25.1</ele>
        <time>2022-05-05T00:59:55Z</time>
      </trkpt>
      <trkpt lat="50.5122" lon="3.48166">
        <ele>25.1</ele>
        <time>2022-05-05T00:59:56Z</time>
      </trkpt>
      <trkpt lat="50.51217" lon="3.48159">
        <ele>25</ele>
        <time>2022-05-05T00:59:56Z</time>
      </trkpt>
      <trkpt lat="50.51215" lon="3.48152">
        <ele>24.9</ele>
        <time>2022-05-05T00:59:57Z</time>
      </trkpt>
      <trkpt lat="50.51213" lon="3.48144">
        <ele>24.9</ele>
        <time>2022-05-05T00:59:57Z</time>
      </trkpt>
      <trkpt lat="50.5121" lon="3.48135">
        <ele>24.9</ele>
        <time>2022-05-05T00:59:58Z</time>
      </trkpt>
      <trkpt lat="50.51208" lon="3.48126">
        <ele>24.9</ele>
        <time>2022-05-05T00:59:58Z</time>
      </trkpt>
      <trkpt lat="50.51206" lon="3.48116">
        <ele>24.8</ele>
        <time>2022-05-05T00:59:59Z</time>
      </trkpt>
      <trkpt lat="50.51203" lon="3.48107">
        <ele>24.6</ele>
        <time>2022-05-05T01:00:00Z</time>
      </trkpt>
      <trkpt lat="50.51202" lon="3.48097">
        <ele>24.5</ele>
        <time>2022-05-05T01:00:00Z</time>
      </trkpt>
      <trkpt lat="50.51202" lon="3.48088">
        <ele>24.5</ele>
        <time>2022-05-05T01:00:01Z</time>
      </trkpt>
      <trkpt lat="50.512" lon="3.4808">
        <ele>24.6</ele>
        <time>2022-05-05T01:00:01Z</time>
      </trkpt>
      <trkpt lat="50.512" lon="3.48073">
        <ele>24.7</ele>
        <time>2022-05-05T01:00:02Z</time>
      </trkpt>
      <trkpt lat="50.51199" lon="3.48067">
        <ele>24.8</ele>
        <time>2022-05-05T01:00:02Z</time>
      </trkpt>
      <trkpt lat="50.51199" lon="3.48062">
        <ele>24.8</ele>
        <time>2022-05-05T01:00:02Z</time>
      </trkpt>
      <trkpt lat="50.51197" lon="3.4806">
        <ele>24.8</ele>
        <time>2022-05-05T01:00:03Z</time>
      </trkpt>
      <trkpt lat="50.51195" lon="3.48058">
        <ele>24.9</ele>
        <time>2022-05-05T01:00:03Z</time>
      </trkpt>
      <trkpt lat="50.51191" lon="3.48052">
        <ele>24.9</ele>
        <time>2022-05-05T01:00:03Z</time>
      </trkpt>
      <trkpt lat="50.51186" lon="3.48047">
        <ele>24.8</ele>
        <time>2022-05-05T01:00:04Z</time>
      </trkpt>
      <trkpt lat="50.51181" lon="3.4804">
        <ele>24.7</ele>
        <time>2022-05-05T01:00:05Z</time>
      </trkpt>
      <trkpt lat="50.51176" lon="3.48036">
        <ele>24.6</ele>
        <time>2022-05-05T01:00:05Z</time>
      </trkpt>
      <trkpt lat="50.51171" lon="3.48033">
        <ele>24.5</ele>
        <time>2022-05-05T01:00:06Z</time>
      </trkpt>
      <trkpt lat="50.51166" lon="3.48028">
        <ele>24.3</ele>
        <time>2022-05-05T01:00:06Z</time>
      </trkpt>
      <trkpt lat="50.5116" lon="3.48025">
        <ele>24.2</ele>
        <time>2022-05-05T01:00:07Z</time>
      </trkpt>
      <trkpt lat="50.51154" lon="3.4802">
        <ele>24</ele>
        <time>2022-05-05T01:00:07Z</time>
      </trkpt>
      <trkpt lat="50.51148" lon="3.48016">
        <ele>23.8</ele>
        <time>2022-05-05T01:00:08Z</time>
      </trkpt>
      <trkpt lat="50.51142" lon="3.48013">
        <ele>23.6</ele>
        <time>2022-05-05T01:00:09Z</time>
      </trkpt>
      <trkpt lat="50.51138" lon="3.48011">
        <ele>23.4</ele>
        <time>2022-05-05T01:00:09Z</time>
      </trkpt>
      <trkpt lat="50.51136" lon="3.4801">
        <ele>23.2</ele>
        <time>2022-05-05T01:00:09Z</time>
      </trkpt>
      <trkpt lat="50.51133" lon="3.4801">
        <ele>23.1</ele>
        <time>2022-05-05T01:00:09Z</time>
      </trkpt>
      <trkpt lat="50.51132" lon="3.48016">
        <ele>23</ele>
        <time>2022-05-05T01:00:10Z</time>
      </trkpt>
      <trkpt lat="50.51132" lon="3.48019">
        <ele>23</ele>
        <time>2022-05-05T01:00:10Z</time>
      </trkpt>
      <trkpt lat="50.51134" lon="3.48028">
        <ele>22.9</ele>
        <time>2022-05-05T01:00:11Z</time>
      </trkpt>
      <trkpt lat="50.51137" lon="3.48041">
        <ele>22.9</ele>
        <time>2022-05-05T01:00:11Z</time>
      </trkpt>
      <trkpt lat="50.5114" lon="3.48055">
        <ele>22.9</ele>
        <time>2022-05-05T01:00:12Z</time>
      </trkpt>
      <trkpt lat="50.51142" lon="3.4807">
        <ele>22.9</ele>
        <time>2022-05-05T01:00:13Z</time>
      </trkpt>
      <trkpt lat="50.51137" lon="3.48089">
        <ele>22.9</ele>
        <time>2022-05-05T01:00:15Z</time>
      </trkpt>
      <trkpt lat="50.5114" lon="3.48104">
        <ele>22.9</ele>
        <time>2022-05-05T01:00:15Z</time>
      </trkpt>
      <trkpt lat="50.51141" lon="3.4812">
        <ele>22.9</ele>
        <time>2022-05-05T01:00:16Z</time>
      </trkpt>
      <trkpt lat="50.51144" lon="3.48136">
        <ele>22.9</ele>
        <time>2022-05-05T01:00:17Z</time>
      </trkpt>
      <trkpt lat="50.51147" lon="3.48153">
        <ele>23</ele>
        <time>2022-05-05T01:00:19Z</time>
      </trkpt>
      <trkpt lat="50.51147" lon="3.48169">
        <ele>23.1</ele>
        <time>2022-05-05T01:00:20Z</time>
      </trkpt>
      <trkpt lat="50.51146" lon="3.48184">
        <ele>23.1</ele>
        <time>2022-05-05T01:00:20Z</time>
      </trkpt>
      <trkpt lat="50.51146" lon="3.48199">
        <ele>23.1</ele>
        <time>2022-05-05T01:00:21Z</time>
      </trkpt>
      <trkpt lat="50.51144" lon="3.48213">
        <ele>23.1</ele>
        <time>2022-05-05T01:00:22Z</time>
      </trkpt>
      <trkpt lat="50.51141" lon="3.48226">
        <ele>23.1</ele>
        <time>2022-05-05T01:00:23Z</time>
      </trkpt>
      <trkpt lat="50.51137" lon="3.4824">
        <ele>23.1</ele>
        <time>2022-05-05T01:00:24Z</time>
      </trkpt>
      <trkpt lat="50.51132" lon="3.48254">
        <ele>23</ele>
        <time>2022-05-05T01:00:25Z</time>
      </trkpt>
      <trkpt lat="50.51128" lon="3.48268">
        <ele>23</ele>
        <time>2022-05-05T01:00:26Z</time>
      </trkpt>
      <trkpt lat="50.51123" lon="3.48282">
        <ele>22.9</ele>
        <time>2022-05-05T01:00:27Z</time>
      </trkpt>
      <trkpt lat="50.51118" lon="3.48296">
        <ele>22.9</ele>
        <time>2022-05-05T01:00:28Z</time>
      </trkpt>
      <trkpt lat="50.51113" lon="3.4831">
        <ele>23</ele>
        <time>2022-05-05T01:00:29Z</time>
      </trkpt>
      <trkpt lat="50.51107" lon="3.48325">
        <ele>23</ele>
        <time>2022-05-05T01:00:30Z</time>
      </trkpt>
      <trkpt lat="50.51101" lon="3.48341">
        <ele>22.9</ele>
        <time>2022-05-05T01:00:31Z</time>
      </trkpt>
      <trkpt lat="50.51096" lon="3.48358">
        <ele>22.9</ele>
        <time>2022-05-05T01:00:32Z</time>
      </trkpt>
      <trkpt lat="50.5109" lon="3.48375">
        <ele>22.9</ele>
        <time>2022-05-05T01:00:33Z</time>
      </trkpt>
      <trkpt lat="50.5109" lon="3.48396">
        <ele>22.9</ele>
        <time>2022-05-05T01:00:35Z</time>
      </trkpt>
      <trkpt lat="50.51089" lon="3.48419">
        <ele>23</ele>
        <time>2022-05-05T01:00:36Z</time>
      </trkpt>
      <trkpt lat="50.51089" lon="3.48442">
        <ele>23</ele>
        <time>2022-05-05T01:00:37Z</time>
      </trkpt>
      <trkpt lat="50.51083" lon="3.48464">
        <ele>23.1</ele>
        <time>2022-05-05T01:00:39Z</time>
      </trkpt>
      <trkpt lat="50.51083" lon="3.48487">
        <ele>23</ele>
        <time>2022-05-05T01:00:40Z</time>
      </trkpt>
      <trkpt lat="50.51083" lon="3.48509">
        <ele>23</ele>
        <time>2022-05-05T01:00:42Z</time>
      </trkpt>
      <trkpt lat="50.51085" lon="3.48531">
        <ele>22.9</ele>
        <time>2022-05-05T01:00:43Z</time>
      </trkpt>
      <trkpt lat="50.51087" lon="3.48551">
        <ele>22.9</ele>
        <time>2022-05-05T01:00:44Z</time>
      </trkpt>
      <trkpt lat="50.51089" lon="3.4857">
        <ele>23</ele>
        <time>2022-05-05T01:00:45Z</time>
      </trkpt>
      <trkpt lat="50.5109" lon="3.48588">
        <ele>23.1</ele>
        <time>2022-05-05T01:00:46Z</time>
      </trkpt>
      <trkpt lat="50.5109" lon="3.48605">
        <ele>23.4</ele>
        <time>2022-05-05T01:00:47Z</time>
      </trkpt>
      <trkpt lat="50.51086" lon="3.4862">
        <ele>23.6</ele>
        <time>2022-05-05T01:00:48Z</time>
      </trkpt>
      <trkpt lat="50.51082" lon="3.48635">
        <ele>23.7</ele>
        <time>2022-05-05T01:00:49Z</time>
      </trkpt>
      <trkpt lat="50.51079" lon="3.48648">
        <ele>23.8</ele>
        <time>2022-05-05T01:00:50Z</time>
      </trkpt>
      <trkpt lat="50.51075" lon="3.48658">
        <ele>23.8</ele>
        <time>2022-05-05T01:00:51Z</time>
      </trkpt>
      <trkpt lat="50.51073" lon="3.48667">
        <ele>23.8</ele>
        <time>2022-05-05T01:00:51Z</time>
      </trkpt>
      <trkpt lat="50.51072" lon="3.48676">
        <ele>23.9</ele>
        <time>2022-05-05T01:00:52Z</time>
      </trkpt>
      <trkpt lat="50.51074" lon="3.48685">
        <ele>23.9</ele>
        <time>2022-05-05T01:00:53Z</time>
      </trkpt>
      <trkpt lat="50.51078" lon="3.48695">
        <ele>23.9</ele>
        <time>2022-05-05T01:00:53Z</time>
      </trkpt>
      <trkpt lat="50.51084" lon="3.48707">
        <ele>23.9</ele>
        <time>2022-05-05T01:00:54Z</time>
      </trkpt>
      <trkpt lat="50.51092" lon="3.48719">
        <ele>24</ele>
        <time>2022-05-05T01:00:55Z</time>
      </trkpt>
      <trkpt lat="50.51098" lon="3.48732">
        <ele>24.3</ele>
        <time>2022-05-05T01:00:56Z</time>
      </trkpt>
      <trkpt lat="50.51103" lon="3.48747">
        <ele>24.5</ele>
        <time>2022-05-05T01:00:57Z</time>
      </trkpt>
      <trkpt lat="50.51106" lon="3.48763">
        <ele>24.7</ele>
        <time>2022-05-05T01:00:58Z</time>
      </trkpt>
      <trkpt lat="50.51109" lon="3.48781">
        <ele>24.9</ele>
        <time>2022-05-05T01:00:59Z</time>
      </trkpt>
      <trkpt lat="50.51112" lon="3.48798">
        <ele>25.2</ele>
        <time>2022-05-05T01:01:00Z</time>
      </trkpt>
      <trkpt lat="50.51115" lon="3.48816">
        <ele>25.5</ele>
        <time>2022-05-05T01:01:02Z</time>
      </trkpt>
      <trkpt lat="50.5112" lon="3.48831">
        <ele>25.8</ele>
        <time>2022-05-05T01:01:03Z</time>
      </trkpt>
      <trkpt lat="50.51126" lon="3.48844">
        <ele>26.1</ele>
        <time>2022-05-05T01:01:04Z</time>
      </trkpt>
      <trkpt lat="50.51132" lon="3.48855">
        <ele>26.4</ele>
        <time>2022-05-05T01:01:04Z</time>
      </trkpt>
      <trkpt lat="50.51137" lon="3.48865">
        <ele>26.6</ele>
        <time>2022-05-05T01:01:05Z</time>
      </trkpt>
      <trkpt lat="50.51141" lon="3.48876">
        <ele>26.7</ele>
        <time>2022-05-05T01:01:06Z</time>
      </trkpt>
      <trkpt lat="50.51142" lon="3.48888">
        <ele>26.8</ele>
        <time>2022-05-05T01:01:07Z</time>
      </trkpt>
      <trkpt lat="50.51141" lon="3.48901">
        <ele>26.9</ele>
        <time>2022-05-05T01:01:08Z</time>
      </trkpt>
      <trkpt lat="50.51138" lon="3.48914">
        <ele>27</ele>
        <time>2022-05-05T01:01:08Z</time>
      </trkpt>
      <trkpt lat="50.51134" lon="3.48929">
        <ele>27.3</ele>
        <time>2022-05-05T01:01:09Z</time>
      </trkpt>
      <trkpt lat="50.51128" lon="3.48945">
        <ele>27.4</ele>
        <time>2022-05-05T01:01:10Z</time>
      </trkpt>
      <trkpt lat="50.51121" lon="3.48961">
        <ele>27.5</ele>
        <time>2022-05-05T01:01:12Z</time>
      </trkpt>
      <trkpt lat="50.51114" lon="3.48977">
        <ele>27.4</ele>
        <time>2022-05-05T01:01:13Z</time>
      </trkpt>
      <trkpt lat="50.51105" lon="3.48992">
        <ele>27.2</ele>
        <time>2022-05-05T01:01:14Z</time>
      </trkpt>
      <trkpt lat="50.51097" lon="3.49007">
        <ele>27.1</ele>
        <time>2022-05-05T01:01:15Z</time>
      </trkpt>
      <trkpt lat="50.5109" lon="3.49022">
        <ele>26.8</ele>
        <time>2022-05-05T01:01:16Z</time>
      </trkpt>
      <trkpt lat="50.51086" lon="3.49041">
        <ele>26.6</ele>
        <time>2022-05-05T01:01:18Z</time>
      </trkpt>
      <trkpt lat="50.51081" lon="3.49063">
        <ele>26.4</ele>
        <time>2022-05-05T01:01:19Z</time>
      </trkpt>
      <trkpt lat="50.51076" lon="3.49086">
        <ele>26.1</ele>
        <time>2022-05-05T01:01:20Z</time>
      </trkpt>
      <trkpt lat="50.51072" lon="3.49109">
        <ele>25.7</ele>
        <time>2022-05-05T01:01:22Z</time>
      </trkpt>
      <trkpt lat="50.51069" lon="3.49132">
        <ele>25.4</ele>
        <time>2022-05-05T01:01:23Z</time>
      </trkpt>
      <trkpt lat="50.51066" lon="3.49155">
        <ele>25.2</ele>
        <time>2022-05-05T01:01:25Z</time>
      </trkpt>
      <trkpt lat="50.51062" lon="3.49177">
        <ele>25</ele>
        <time>2022-05-05T01:01:26Z</time>
      </trkpt>
      <trkpt lat="50.51058" lon="3.49201">
        <ele>24.7</ele>
        <time>2022-05-05T01:01:28Z</time>
      </trkpt>
      <trkpt lat="50.51054" lon="3.49224">
        <ele>24.4</ele>
        <time>2022-05-05T01:01:29Z</time>
      </trkpt>
      <trkpt lat="50.51051" lon="3.49246">
        <ele>24.2</ele>
        <time>2022-05-05T01:01:30Z</time>
      </trkpt>
      <trkpt lat="50.51047" lon="3.49267">
        <ele>24.1</ele>
        <time>2022-05-05T01:01:32Z</time>
      </trkpt>
      <trkpt lat="50.51046" lon="3.49286">
        <ele>24</ele>
        <time>2022-05-05T01:01:33Z</time>
      </trkpt>
      <trkpt lat="50.51042" lon="3.493">
        <ele>24</ele>
        <time>2022-05-05T01:01:34Z</time>
      </trkpt>
      <trkpt lat="50.51039" lon="3.49313">
        <ele>23.9</ele>
        <time>2022-05-05T01:01:35Z</time>
      </trkpt>
      <trkpt lat="50.51038" lon="3.49325">
        <ele>23.9</ele>
        <time>2022-05-05T01:01:35Z</time>
      </trkpt>
      <trkpt lat="50.51036" lon="3.4934">
        <ele>23.7</ele>
        <time>2022-05-05T01:01:36Z</time>
      </trkpt>
      <trkpt lat="50.51038" lon="3.49358">
        <ele>23.5</ele>
        <time>2022-05-05T01:01:37Z</time>
      </trkpt>
      <trkpt lat="50.51044" lon="3.49372">
        <ele>23.4</ele>
        <time>2022-05-05T01:01:38Z</time>
      </trkpt>
      <trkpt lat="50.51051" lon="3.49383">
        <ele>23.4</ele>
        <time>2022-05-05T01:01:39Z</time>
      </trkpt>
      <trkpt lat="50.51057" lon="3.49396">
        <ele>23.3</ele>
        <time>2022-05-05T01:01:40Z</time>
      </trkpt>
      <trkpt lat="50.51072" lon="3.49406">
        <ele>23.1</ele>
        <time>2022-05-05T01:01:42Z</time>
      </trkpt>
      <trkpt lat="50.51081" lon="3.49419">
        <ele>23.1</ele>
        <time>2022-05-05T01:01:43Z</time>
      </trkpt>
      <trkpt lat="50.51088" lon="3.49434">
        <ele>23</ele>
        <time>2022-05-05T01:01:44Z</time>
      </trkpt>
      <trkpt lat="50.51096" lon="3.49446">
        <ele>23.1</ele>
        <time>2022-05-05T01:01:45Z</time>
      </trkpt>
      <trkpt lat="50.51104" lon="3.49459">
        <ele>23.2</ele>
        <time>2022-05-05T01:01:46Z</time>
      </trkpt>
      <trkpt lat="50.51112" lon="3.49473">
        <ele>23.3</ele>
        <time>2022-05-05T01:01:48Z</time>
      </trkpt>
      <trkpt lat="50.51122" lon="3.49487">
        <ele>23.5</ele>
        <time>2022-05-05T01:01:49Z</time>
      </trkpt>
      <trkpt lat="50.5113" lon="3.49502">
        <ele>23.6</ele>
        <time>2022-05-05T01:01:50Z</time>
      </trkpt>
      <trkpt lat="50.51139" lon="3.49511">
        <ele>23.6</ele>
        <time>2022-05-05T01:01:51Z</time>
      </trkpt>
      <trkpt lat="50.51149" lon="3.49519">
        <ele>23.7</ele>
        <time>2022-05-05T01:01:52Z</time>
      </trkpt>
      <trkpt lat="50.51162" lon="3.49522">
        <ele>23.8</ele>
        <time>2022-05-05T01:01:53Z</time>
      </trkpt>
      <trkpt lat="50.51174" lon="3.49522">
        <ele>23.8</ele>
        <time>2022-05-05T01:01:54Z</time>
      </trkpt>
      <trkpt lat="50.51186" lon="3.49527">
        <ele>23.9</ele>
        <time>2022-05-05T01:01:56Z</time>
      </trkpt>
      <trkpt lat="50.51196" lon="3.49537">
        <ele>24.1</ele>
        <time>2022-05-05T01:01:57Z</time>
      </trkpt>
      <trkpt lat="50.51207" lon="3.49543">
        <ele>24.4</ele>
        <time>2022-05-05T01:01:58Z</time>
      </trkpt>
      <trkpt lat="50.51217" lon="3.4955">
        <ele>24.7</ele>
        <time>2022-05-05T01:01:59Z</time>
      </trkpt>
      <trkpt lat="50.51228" lon="3.49555">
        <ele>24.8</ele>
        <time>2022-05-05T01:02:00Z</time>
      </trkpt>
      <trkpt lat="50.51237" lon="3.49559">
        <ele>24.9</ele>
        <time>2022-05-05T01:02:01Z</time>
      </trkpt>
      <trkpt lat="50.51244" lon="3.49562">
        <ele>25.1</ele>
        <time>2022-05-05T01:02:02Z</time>
      </trkpt>
      <trkpt lat="50.51252" lon="3.49565">
        <ele>25.3</ele>
        <time>2022-05-05T01:02:02Z</time>
      </trkpt>
      <trkpt lat="50.51259" lon="3.49568">
        <ele>25.5</ele>
        <time>2022-05-05T01:02:03Z</time>
      </trkpt>
      <trkpt lat="50.51264" lon="3.49574">
        <ele>25.6</ele>
        <time>2022-05-05T01:02:04Z</time>
      </trkpt>
      <trkpt lat="50.51271" lon="3.49578">
        <ele>25.7</ele>
        <time>2022-05-05T01:02:04Z</time>
      </trkpt>
      <trkpt lat="50.51274" lon="3.49589">
        <ele>25.8</ele>
        <time>2022-05-05T01:02:05Z</time>
      </trkpt>
      <trkpt lat="50.51277" lon="3.49601">
        <ele>25.8</ele>
        <time>2022-05-05T01:02:06Z</time>
      </trkpt>
      <trkpt lat="50.51279" lon="3.49616">
        <ele>25.8</ele>
        <time>2022-05-05T01:02:07Z</time>
      </trkpt>
      <trkpt lat="50.51279" lon="3.49632">
        <ele>25.8</ele>
        <time>2022-05-05T01:02:08Z</time>
      </trkpt>
      <trkpt lat="50.5128" lon="3.49647">
        <ele>25.6</ele>
        <time>2022-05-05T01:02:09Z</time>
      </trkpt>
      <trkpt lat="50.51282" lon="3.49659">
        <ele>25.4</ele>
        <time>2022-05-05T01:02:09Z</time>
      </trkpt>
      <trkpt lat="50.51286" lon="3.49672">
        <ele>25.2</ele>
        <time>2022-05-05T01:02:10Z</time>
      </trkpt>
      <trkpt lat="50.51294" lon="3.49686">
        <ele>25.2</ele>
        <time>2022-05-05T01:02:11Z</time>
      </trkpt>
      <trkpt lat="50.51301" lon="3.49698">
        <ele>25.1</ele>
        <time>2022-05-05T01:02:12Z</time>
      </trkpt>
      <trkpt lat="50.51308" lon="3.49711">
        <ele>25.1</ele>
        <time>2022-05-05T01:02:13Z</time>
      </trkpt>
      <trkpt lat="50.51314" lon="3.49727">
        <ele>25</ele>
        <time>2022-05-05T01:02:15Z</time>
      </trkpt>
      <trkpt lat="50.51318" lon="3.4974">
        <ele>25</ele>
        <time>2022-05-05T01:02:15Z</time>
      </trkpt>
      <trkpt lat="50.51322" lon="3.49751">
        <ele>24.9</ele>
        <time>2022-05-05T01:02:16Z</time>
      </trkpt>
      <trkpt lat="50.51323" lon="3.49765">
        <ele>24.9</ele>
        <time>2022-05-05T01:02:17Z</time>
      </trkpt>
      <trkpt lat="50.51324" lon="3.49781">
        <ele>24.8</ele>
        <time>2022-05-05T01:02:18Z</time>
      </trkpt>
      <trkpt lat="50.51323" lon="3.49797">
        <ele>24.7</ele>
        <time>2022-05-05T01:02:19Z</time>
      </trkpt>
      <trkpt lat="50.51325" lon="3.49815">
        <ele>24.5</ele>
        <time>2022-05-05T01:02:20Z</time>
      </trkpt>
      <trkpt lat="50.51327" lon="3.49834">
        <ele>24.3</ele>
        <time>2022-05-05T01:02:21Z</time>
      </trkpt>
      <trkpt lat="50.5133" lon="3.49854">
        <ele>24.1</ele>
        <time>2022-05-05T01:02:23Z</time>
      </trkpt>
      <trkpt lat="50.51331" lon="3.49869">
        <ele>24</ele>
        <time>2022-05-05T01:02:23Z</time>
      </trkpt>
      <trkpt lat="50.51331" lon="3.49886">
        <ele>24</ele>
        <time>2022-05-05T01:02:24Z</time>
      </trkpt>
      <trkpt lat="50.5133" lon="3.49901">
        <ele>23.9</ele>
        <time>2022-05-05T01:02:25Z</time>
      </trkpt>
      <trkpt lat="50.51329" lon="3.49915">
        <ele>23.9</ele>
        <time>2022-05-05T01:02:26Z</time>
      </trkpt>
      <trkpt lat="50.51329" lon="3.49928">
        <ele>23.9</ele>
        <time>2022-05-05T01:02:27Z</time>
      </trkpt>
      <trkpt lat="50.5133" lon="3.49942">
        <ele>23.9</ele>
        <time>2022-05-05T01:02:28Z</time>
      </trkpt>
      <trkpt lat="50.51332" lon="3.49955">
        <ele>23.9</ele>
        <time>2022-05-05T01:02:29Z</time>
      </trkpt>
      <trkpt lat="50.51336" lon="3.49967">
        <ele>23.9</ele>
        <time>2022-05-05T01:02:29Z</time>
      </trkpt>
      <trkpt lat="50.51341" lon="3.49984">
        <ele>23.9</ele>
        <time>2022-05-05T01:02:31Z</time>
      </trkpt>
      <trkpt lat="50.51348" lon="3.49996">
        <ele>23.9</ele>
        <time>2022-05-05T01:02:32Z</time>
      </trkpt>
      <trkpt lat="50.51355" lon="3.50008">
        <ele>23.9</ele>
        <time>2022-05-05T01:02:33Z</time>
      </trkpt>
      <trkpt lat="50.51362" lon="3.50017">
        <ele>24</ele>
        <time>2022-05-05T01:02:33Z</time>
      </trkpt>
      <trkpt lat="50.51367" lon="3.50023">
        <ele>24.2</ele>
        <time>2022-05-05T01:02:34Z</time>
      </trkpt>
      <trkpt lat="50.51374" lon="3.5003">
        <ele>24.4</ele>
        <time>2022-05-05T01:02:35Z</time>
      </trkpt>
      <trkpt lat="50.51383" lon="3.50032">
        <ele>24.5</ele>
        <time>2022-05-05T01:02:36Z</time>
      </trkpt>
      <trkpt lat="50.51392" lon="3.50031">
        <ele>24.7</ele>
        <time>2022-05-05T01:02:37Z</time>
      </trkpt>
      <trkpt lat="50.51402" lon="3.50031">
        <ele>24.8</ele>
        <time>2022-05-05T01:02:38Z</time>
      </trkpt>
      <trkpt lat="50.51414" lon="3.50027">
        <ele>24.8</ele>
        <time>2022-05-05T01:02:39Z</time>
      </trkpt>
      <trkpt lat="50.51424" lon="3.50027">
        <ele>24.8</ele>
        <time>2022-05-05T01:02:40Z</time>
      </trkpt>
      <trkpt lat="50.51435" lon="3.50026">
        <ele>24.8</ele>
        <time>2022-05-05T01:02:41Z</time>
      </trkpt>
      <trkpt lat="50.51444" lon="3.50027">
        <ele>24.8</ele>
        <time>2022-05-05T01:02:42Z</time>
      </trkpt>
      <trkpt lat="50.51454" lon="3.50029">
        <ele>24.9</ele>
        <time>2022-05-05T01:02:43Z</time>
      </trkpt>
      <trkpt lat="50.51461" lon="3.50039">
        <ele>25</ele>
        <time>2022-05-05T01:02:43Z</time>
      </trkpt>
      <trkpt lat="50.51469" lon="3.50039">
        <ele>25.3</ele>
        <time>2022-05-05T01:02:44Z</time>
      </trkpt>
      <trkpt lat="50.51476" lon="3.50038">
        <ele>25.6</ele>
        <time>2022-05-05T01:02:45Z</time>
      </trkpt>
      <trkpt lat="50.51484" lon="3.50038">
        <ele>25.8</ele>
        <time>2022-05-05T01:02:46Z</time>
      </trkpt>
      <trkpt lat="50.51493" lon="3.50037">
        <ele>26</ele>
        <time>2022-05-05T01:02:46Z</time>
      </trkpt>
      <trkpt lat="50.51502" lon="3.50037">
        <ele>26.1</ele>
        <time>2022-05-05T01:02:47Z</time>
      </trkpt>
      <trkpt lat="50.51512" lon="3.50036">
        <ele>26.2</ele>
        <time>2022-05-05T01:02:48Z</time>
      </trkpt>
      <trkpt lat="50.51521" lon="3.50035">
        <ele>26.3</ele>
        <time>2022-05-05T01:02:49Z</time>
      </trkpt>
      <trkpt lat="50.51532" lon="3.50036">
        <ele>26.5</ele>
        <time>2022-05-05T01:02:50Z</time>
      </trkpt>
      <trkpt lat="50.51542" lon="3.50034">
        <ele>26.7</ele>
        <time>2022-05-05T01:02:51Z</time>
      </trkpt>
      <trkpt lat="50.51553" lon="3.50027">
        <ele>26.9</ele>
        <time>2022-05-05T01:02:52Z</time>
      </trkpt>
      <trkpt lat="50.51561" lon="3.5002">
        <ele>26.9</ele>
        <time>2022-05-05T01:02:53Z</time>
      </trkpt>
      <trkpt lat="50.5157" lon="3.50013">
        <ele>26.9</ele>
        <time>2022-05-05T01:02:54Z</time>
      </trkpt>
      <trkpt lat="50.5158" lon="3.50004">
        <ele>27</ele>
        <time>2022-05-05T01:02:55Z</time>
      </trkpt>
      <trkpt lat="50.51589" lon="3.49997">
        <ele>27</ele>
        <time>2022-05-05T01:02:56Z</time>
      </trkpt>
      <trkpt lat="50.51598" lon="3.49988">
        <ele>26.9</ele>
        <time>2022-05-05T01:02:57Z</time>
      </trkpt>
      <trkpt lat="50.51609" lon="3.49982">
        <ele>26.8</ele>
        <time>2022-05-05T01:02:58Z</time>
      </trkpt>
      <trkpt lat="50.51621" lon="3.49978">
        <ele>26.6</ele>
        <time>2022-05-05T01:02:59Z</time>
      </trkpt>
      <trkpt lat="50.51629" lon="3.49972">
        <ele>26.4</ele>
        <time>2022-05-05T01:03:00Z</time>
      </trkpt>
      <trkpt lat="50.51639" lon="3.49966">
        <ele>26.2</ele>
        <time>2022-05-05T01:03:01Z</time>
      </trkpt>
      <trkpt lat="50.51648" lon="3.49962">
        <ele>26.1</ele>
        <time>2022-05-05T01:03:02Z</time>
      </trkpt>
      <trkpt lat="50.51658" lon="3.49956">
        <ele>26.1</ele>
        <time>2022-05-05T01:03:03Z</time>
      </trkpt>
      <trkpt lat="50.51667" lon="3.49955">
        <ele>26.3</ele>
        <time>2022-05-05T01:03:04Z</time>
      </trkpt>
      <trkpt lat="50.51677" lon="3.4996">
        <ele>26.5</ele>
        <time>2022-05-05T01:03:05Z</time>
      </trkpt>
      <trkpt lat="50.51686" lon="3.49972">
        <ele>26.6</ele>
        <time>2022-05-05T01:03:06Z</time>
      </trkpt>
      <trkpt lat="50.51694" lon="3.49986">
        <ele>26.7</ele>
        <time>2022-05-05T01:03:07Z</time>
      </trkpt>
      <trkpt lat="50.517" lon="3.49999">
        <ele>26.8</ele>
        <time>2022-05-05T01:03:08Z</time>
      </trkpt>
      <trkpt lat="50.51703" lon="3.50013">
        <ele>26.9</ele>
        <time>2022-05-05T01:03:09Z</time>
      </trkpt>
      <trkpt lat="50.51704" lon="3.50027">
        <ele>27</ele>
        <time>2022-05-05T01:03:10Z</time>
      </trkpt>
      <trkpt lat="50.51704" lon="3.50041">
        <ele>27.1</ele>
        <time>2022-05-05T01:03:11Z</time>
      </trkpt>
      <trkpt lat="50.51703" lon="3.50059">
        <ele>27.1</ele>
        <time>2022-05-05T01:03:12Z</time>
      </trkpt>
      <trkpt lat="50.517" lon="3.50075">
        <ele>27.2</ele>
        <time>2022-05-05T01:03:13Z</time>
      </trkpt>
      <trkpt lat="50.51696" lon="3.50091">
        <ele>27.3</ele>
        <time>2022-05-05T01:03:14Z</time>
      </trkpt>
      <trkpt lat="50.51695" lon="3.50106">
        <ele>27.5</ele>
        <time>2022-05-05T01:03:15Z</time>
      </trkpt>
      <trkpt lat="50.51693" lon="3.50122">
        <ele>27.7</ele>
        <time>2022-05-05T01:03:16Z</time>
      </trkpt>
      <trkpt lat="50.51692" lon="3.50139">
        <ele>27.7</ele>
        <time>2022-05-05T01:03:17Z</time>
      </trkpt>
      <trkpt lat="50.5169" lon="3.50155">
        <ele>27.8</ele>
        <time>2022-05-05T01:03:18Z</time>
      </trkpt>
      <trkpt lat="50.51694" lon="3.50165">
        <ele>27.9</ele>
        <time>2022-05-05T01:03:19Z</time>
      </trkpt>
      <trkpt lat="50.51695" lon="3.50176">
        <ele>27.9</ele>
        <time>2022-05-05T01:03:19Z</time>
      </trkpt>
      <trkpt lat="50.51697" lon="3.50187">
        <ele>28</ele>
        <time>2022-05-05T01:03:20Z</time>
      </trkpt>
      <trkpt lat="50.51699" lon="3.50199">
        <ele>28.2</ele>
        <time>2022-05-05T01:03:21Z</time>
      </trkpt>
      <trkpt lat="50.517" lon="3.50211">
        <ele>28.3</ele>
        <time>2022-05-05T01:03:22Z</time>
      </trkpt>
      <trkpt lat="50.51701" lon="3.50224">
        <ele>28.4</ele>
        <time>2022-05-05T01:03:22Z</time>
      </trkpt>
      <trkpt lat="50.51704" lon="3.50237">
        <ele>28.4</ele>
        <time>2022-05-05T01:03:23Z</time>
      </trkpt>
      <trkpt lat="50.51706" lon="3.50251">
        <ele>28.5</ele>
        <time>2022-05-05T01:03:24Z</time>
      </trkpt>
      <trkpt lat="50.51708" lon="3.50263">
        <ele>28.5</ele>
        <time>2022-05-05T01:03:25Z</time>
      </trkpt>
      <trkpt lat="50.51709" lon="3.50276">
        <ele>28.6</ele>
        <time>2022-05-05T01:03:26Z</time>
      </trkpt>
      <trkpt lat="50.51707" lon="3.5029">
        <ele>28.7</ele>
        <time>2022-05-05T01:03:26Z</time>
      </trkpt>
      <trkpt lat="50.51705" lon="3.50304">
        <ele>28.8</ele>
        <time>2022-05-05T01:03:27Z</time>
      </trkpt>
      <trkpt lat="50.51705" lon="3.50316">
        <ele>28.9</ele>
        <time>2022-05-05T01:03:28Z</time>
      </trkpt>
      <trkpt lat="50.51704" lon="3.50326">
        <ele>29</ele>
        <time>2022-05-05T01:03:29Z</time>
      </trkpt>
      <trkpt lat="50.51703" lon="3.50334">
        <ele>29.2</ele>
        <time>2022-05-05T01:03:29Z</time>
      </trkpt>
      <trkpt lat="50.51703" lon="3.50341">
        <ele>29.3</ele>
        <time>2022-05-05T01:03:30Z</time>
      </trkpt>
      <trkpt lat="50.51705" lon="3.50348">
        <ele>29.4</ele>
        <time>2022-05-05T01:03:30Z</time>
      </trkpt>
      <trkpt lat="50.51709" lon="3.50356">
        <ele>29.6</ele>
        <time>2022-05-05T01:03:31Z</time>
      </trkpt>
      <trkpt lat="50.51714" lon="3.50365">
        <ele>29.7</ele>
        <time>2022-05-05T01:03:31Z</time>
      </trkpt>
      <trkpt lat="50.51721" lon="3.50371">
        <ele>29.7</ele>
        <time>2022-05-05T01:03:32Z</time>
      </trkpt>
      <trkpt lat="50.51727" lon="3.5038">
        <ele>29.7</ele>
        <time>2022-05-05T01:03:33Z</time>
      </trkpt>
      <trkpt lat="50.51733" lon="3.50388">
        <ele>29.6</ele>
        <time>2022-05-05T01:03:34Z</time>
      </trkpt>
      <trkpt lat="50.5174" lon="3.50398">
        <ele>29.6</ele>
        <time>2022-05-05T01:03:35Z</time>
      </trkpt>
      <trkpt lat="50.51747" lon="3.50408">
        <ele>29.6</ele>
        <time>2022-05-05T01:03:35Z</time>
      </trkpt>
      <trkpt lat="50.51754" lon="3.50419">
        <ele>29.6</ele>
        <time>2022-05-05T01:03:36Z</time>
      </trkpt>
      <trkpt lat="50.51761" lon="3.5043">
        <ele>29.5</ele>
        <time>2022-05-05T01:03:37Z</time>
      </trkpt>
      <trkpt lat="50.51767" lon="3.50441">
        <ele>29.4</ele>
        <time>2022-05-05T01:03:38Z</time>
      </trkpt>
      <trkpt lat="50.51774" lon="3.50452">
        <ele>29.4</ele>
        <time>2022-05-05T01:03:39Z</time>
      </trkpt>
      <trkpt lat="50.51781" lon="3.50463">
        <ele>29.4</ele>
        <time>2022-05-05T01:03:40Z</time>
      </trkpt>
      <trkpt lat="50.51786" lon="3.50474">
        <ele>29.5</ele>
        <time>2022-05-05T01:03:41Z</time>
      </trkpt>
      <trkpt lat="50.51792" lon="3.50484">
        <ele>29.5</ele>
        <time>2022-05-05T01:03:42Z</time>
      </trkpt>
      <trkpt lat="50.51797" lon="3.50495">
        <ele>29.5</ele>
        <time>2022-05-05T01:03:43Z</time>
      </trkpt>
      <trkpt lat="50.51803" lon="3.50505">
        <ele>29.5</ele>
        <time>2022-05-05T01:03:43Z</time>
      </trkpt>
      <trkpt lat="50.51808" lon="3.50515">
        <ele>29.5</ele>
        <time>2022-05-05T01:03:44Z</time>
      </trkpt>
      <trkpt lat="50.51813" lon="3.50526">
        <ele>29.5</ele>
        <time>2022-05-05T01:03:45Z</time>
      </trkpt>
      <trkpt lat="50.51818" lon="3.50536">
        <ele>29.5</ele>
        <time>2022-05-05T01:03:46Z</time>
      </trkpt>
      <trkpt lat="50.51823" lon="3.50545">
        <ele>29.5</ele>
        <time>2022-05-05T01:03:46Z</time>
      </trkpt>
      <trkpt lat="50.51828" lon="3.50556">
        <ele>29.5</ele>
        <time>2022-05-05T01:03:47Z</time>
      </trkpt>
      <trkpt lat="50.51833" lon="3.50566">
        <ele>29.5</ele>
        <time>2022-05-05T01:03:48Z</time>
      </trkpt>
      <trkpt lat="50.51838" lon="3.50578">
        <ele>29.5</ele>
        <time>2022-05-05T01:03:49Z</time>
      </trkpt>
      <trkpt lat="50.51843" lon="3.5059">
        <ele>29.5</ele>
        <time>2022-05-05T01:03:50Z</time>
      </trkpt>
      <trkpt lat="50.51848" lon="3.50602">
        <ele>29.5</ele>
        <time>2022-05-05T01:03:51Z</time>
      </trkpt>
      <trkpt lat="50.51853" lon="3.50613">
        <ele>29.5</ele>
        <time>2022-05-05T01:03:51Z</time>
      </trkpt>
      <trkpt lat="50.51858" lon="3.50624">
        <ele>29.5</ele>
        <time>2022-05-05T01:03:52Z</time>
      </trkpt>
      <trkpt lat="50.51862" lon="3.50635">
        <ele>29.5</ele>
        <time>2022-05-05T01:03:53Z</time>
      </trkpt>
      <trkpt lat="50.51866" lon="3.50646">
        <ele>29.5</ele>
        <time>2022-05-05T01:03:54Z</time>
      </trkpt>
      <trkpt lat="50.5187" lon="3.50656">
        <ele>29.5</ele>
        <time>2022-05-05T01:03:55Z</time>
      </trkpt>
      <trkpt lat="50.51874" lon="3.50667">
        <ele>29.5</ele>
        <time>2022-05-05T01:03:55Z</time>
      </trkpt>
      <trkpt lat="50.51879" lon="3.5068">
        <ele>29.5</ele>
        <time>2022-05-05T01:03:56Z</time>
      </trkpt>
      <trkpt lat="50.51883" lon="3.50692">
        <ele>29.5</ele>
        <time>2022-05-05T01:03:57Z</time>
      </trkpt>
      <trkpt lat="50.51887" lon="3.50704">
        <ele>29.5</ele>
        <time>2022-05-05T01:03:58Z</time>
      </trkpt>
      <trkpt lat="50.51891" lon="3.50715">
        <ele>29.5</ele>
        <time>2022-05-05T01:03:59Z</time>
      </trkpt>
      <trkpt lat="50.51895" lon="3.50725">
        <ele>29.5</ele>
        <time>2022-05-05T01:03:59Z</time>
      </trkpt>
      <trkpt lat="50.51899" lon="3.50736">
        <ele>29.5</ele>
        <time>2022-05-05T01:04:00Z</time>
      </trkpt>
      <trkpt lat="50.51902" lon="3.50747">
        <ele>29.6</ele>
        <time>2022-05-05T01:04:01Z</time>
      </trkpt>
      <trkpt lat="50.51906" lon="3.50759">
        <ele>29.7</ele>
        <time>2022-05-05T01:04:02Z</time>
      </trkpt>
      <trkpt lat="50.51908" lon="3.50771">
        <ele>29.8</ele>
        <time>2022-05-05T01:04:02Z</time>
      </trkpt>
      <trkpt lat="50.5191" lon="3.50784">
        <ele>29.7</ele>
        <time>2022-05-05T01:04:03Z</time>
      </trkpt>
      <trkpt lat="50.51912" lon="3.50797">
        <ele>29.6</ele>
        <time>2022-05-05T01:04:04Z</time>
      </trkpt>
      <trkpt lat="50.51914" lon="3.50809">
        <ele>29.6</ele>
        <time>2022-05-05T01:04:05Z</time>
      </trkpt>
      <trkpt lat="50.51915" lon="3.50822">
        <ele>29.6</ele>
        <time>2022-05-05T01:04:06Z</time>
      </trkpt>
      <trkpt lat="50.51915" lon="3.50836">
        <ele>29.5</ele>
        <time>2022-05-05T01:04:06Z</time>
      </trkpt>
      <trkpt lat="50.51916" lon="3.50851">
        <ele>29.5</ele>
        <time>2022-05-05T01:04:07Z</time>
      </trkpt>
      <trkpt lat="50.51917" lon="3.50864">
        <ele>29.5</ele>
        <time>2022-05-05T01:04:08Z</time>
      </trkpt>
      <trkpt lat="50.51918" lon="3.50876">
        <ele>29.5</ele>
        <time>2022-05-05T01:04:09Z</time>
      </trkpt>
      <trkpt lat="50.51918" lon="3.50888">
        <ele>29.5</ele>
        <time>2022-05-05T01:04:10Z</time>
      </trkpt>
      <trkpt lat="50.51919" lon="3.50899">
        <ele>29.5</ele>
        <time>2022-05-05T01:04:10Z</time>
      </trkpt>
      <trkpt lat="50.5192" lon="3.5091">
        <ele>29.5</ele>
        <time>2022-05-05T01:04:11Z</time>
      </trkpt>
      <trkpt lat="50.51921" lon="3.50922">
        <ele>29.5</ele>
        <time>2022-05-05T01:04:12Z</time>
      </trkpt>
      <trkpt lat="50.51922" lon="3.50933">
        <ele>29.6</ele>
        <time>2022-05-05T01:04:12Z</time>
      </trkpt>
      <trkpt lat="50.51924" lon="3.50945">
        <ele>29.7</ele>
        <time>2022-05-05T01:04:13Z</time>
      </trkpt>
      <trkpt lat="50.51926" lon="3.50957">
        <ele>30</ele>
        <time>2022-05-05T01:04:14Z</time>
      </trkpt>
      <trkpt lat="50.51927" lon="3.5097">
        <ele>30.2</ele>
        <time>2022-05-05T01:04:15Z</time>
      </trkpt>
      <trkpt lat="50.5193" lon="3.50981">
        <ele>30.3</ele>
        <time>2022-05-05T01:04:15Z</time>
      </trkpt>
      <trkpt lat="50.51931" lon="3.50992">
        <ele>30.4</ele>
        <time>2022-05-05T01:04:16Z</time>
      </trkpt>
      <trkpt lat="50.51932" lon="3.51002">
        <ele>30.4</ele>
        <time>2022-05-05T01:04:17Z</time>
      </trkpt>
      <trkpt lat="50.51934" lon="3.51013">
        <ele>30.5</ele>
        <time>2022-05-05T01:04:17Z</time>
      </trkpt>
      <trkpt lat="50.51936" lon="3.51023">
        <ele>30.5</ele>
        <time>2022-05-05T01:04:18Z</time>
      </trkpt>
      <trkpt lat="50.51938" lon="3.51033">
        <ele>30.5</ele>
        <time>2022-05-05T01:04:19Z</time>
      </trkpt>
      <trkpt lat="50.5194" lon="3.51045">
        <ele>30.5</ele>
        <time>2022-05-05T01:04:19Z</time>
      </trkpt>
      <trkpt lat="50.51942" lon="3.51056">
        <ele>30.5</ele>
        <time>2022-05-05T01:04:20Z</time>
      </trkpt>
      <trkpt lat="50.51944" lon="3.51067">
        <ele>30.5</ele>
        <time>2022-05-05T01:04:21Z</time>
      </trkpt>
      <trkpt lat="50.51946" lon="3.51078">
        <ele>30.6</ele>
        <time>2022-05-05T01:04:21Z</time>
      </trkpt>
      <trkpt lat="50.51948" lon="3.51088">
        <ele>30.9</ele>
        <time>2022-05-05T01:04:22Z</time>
      </trkpt>
      <trkpt lat="50.5195" lon="3.51097">
        <ele>31</ele>
        <time>2022-05-05T01:04:23Z</time>
      </trkpt>
      <trkpt lat="50.51953" lon="3.51105">
        <ele>31.1</ele>
        <time>2022-05-05T01:04:23Z</time>
      </trkpt>
      <trkpt lat="50.51956" lon="3.51113">
        <ele>31.2</ele>
        <time>2022-05-05T01:04:24Z</time>
      </trkpt>
      <trkpt lat="50.51957" lon="3.51122">
        <ele>31.1</ele>
        <time>2022-05-05T01:04:24Z</time>
      </trkpt>
      <trkpt lat="50.51958" lon="3.51131">
        <ele>31</ele>
        <time>2022-05-05T01:04:25Z</time>
      </trkpt>
      <trkpt lat="50.51959" lon="3.51141">
        <ele>30.9</ele>
        <time>2022-05-05T01:04:25Z</time>
      </trkpt>
      <trkpt lat="50.51961" lon="3.5115">
        <ele>30.7</ele>
        <time>2022-05-05T01:04:26Z</time>
      </trkpt>
      <trkpt lat="50.51963" lon="3.51156">
        <ele>30.7</ele>
        <time>2022-05-05T01:04:26Z</time>
      </trkpt>
      <trkpt lat="50.51965" lon="3.51159">
        <ele>30.6</ele>
        <time>2022-05-05T01:04:27Z</time>
      </trkpt>
      <trkpt lat="50.5197" lon="3.5116">
        <ele>30.5</ele>
        <time>2022-05-05T01:04:27Z</time>
      </trkpt>
      <trkpt lat="50.51971" lon="3.51162">
        <ele>30.5</ele>
        <time>2022-05-05T01:04:27Z</time>
      </trkpt>
      <trkpt lat="50.51973" lon="3.51163">
        <ele>30.5</ele>
        <time>2022-05-05T01:04:27Z</time>
      </trkpt>
      <trkpt lat="50.51975" lon="3.51162">
        <ele>30.5</ele>
        <time>2022-05-05T01:04:28Z</time>
      </trkpt>
      <trkpt lat="50.51977" lon="3.51162">
        <ele>30.5</ele>
        <time>2022-05-05T01:04:28Z</time>
      </trkpt>
      <trkpt lat="50.5198" lon="3.51162">
        <ele>30.5</ele>
        <time>2022-05-05T01:04:28Z</time>
      </trkpt>
      <trkpt lat="50.51983" lon="3.51164">
        <ele>30.5</ele>
        <time>2022-05-05T01:04:28Z</time>
      </trkpt>
      <trkpt lat="50.51986" lon="3.51165">
        <ele>30.5</ele>
        <time>2022-05-05T01:04:29Z</time>
      </trkpt>
      <trkpt lat="50.51989" lon="3.51165">
        <ele>30.5</ele>
        <time>2022-05-05T01:04:29Z</time>
      </trkpt>
      <trkpt lat="50.51992" lon="3.51166">
        <ele>30.5</ele>
        <time>2022-05-05T01:04:29Z</time>
      </trkpt>
      <trkpt lat="50.51996" lon="3.51166">
        <ele>30.5</ele>
        <time>2022-05-05T01:04:30Z</time>
      </trkpt>
      <trkpt lat="50.52" lon="3.51168">
        <ele>30.5</ele>
        <time>2022-05-05T01:04:30Z</time>
      </trkpt>
      <trkpt lat="50.52003" lon="3.51169">
        <ele>30.5</ele>
        <time>2022-05-05T01:04:30Z</time>
      </trkpt>
      <trkpt lat="50.52007" lon="3.51172">
        <ele>30.5</ele>
        <time>2022-05-05T01:04:31Z</time>
      </trkpt>
      <trkpt lat="50.52011" lon="3.51172">
        <ele>30.6</ele>
        <time>2022-05-05T01:04:31Z</time>
      </trkpt>
      <trkpt lat="50.52015" lon="3.51173">
        <ele>30.6</ele>
        <time>2022-05-05T01:04:32Z</time>
      </trkpt>
      <trkpt lat="50.52019" lon="3.51173">
        <ele>30.6</ele>
        <time>2022-05-05T01:04:32Z</time>
      </trkpt>
      <trkpt lat="50.52024" lon="3.51174">
        <ele>30.6</ele>
        <time>2022-05-05T01:04:32Z</time>
      </trkpt>
      <trkpt lat="50.52029" lon="3.51175">
        <ele>30.5</ele>
        <time>2022-05-05T01:04:33Z</time>
      </trkpt>
      <trkpt lat="50.52034" lon="3.51175">
        <ele>30.5</ele>
        <time>2022-05-05T01:04:33Z</time>
      </trkpt>
      <trkpt lat="50.52039" lon="3.51177">
        <ele>30.5</ele>
        <time>2022-05-05T01:04:34Z</time>
      </trkpt>
      <trkpt lat="50.52045" lon="3.51178">
        <ele>30.5</ele>
        <time>2022-05-05T01:04:34Z</time>
      </trkpt>
      <trkpt lat="50.52051" lon="3.51179">
        <ele>30.5</ele>
        <time>2022-05-05T01:04:35Z</time>
      </trkpt>
      <trkpt lat="50.52058" lon="3.51182">
        <ele>30.5</ele>
        <time>2022-05-05T01:04:36Z</time>
      </trkpt>
      <trkpt lat="50.52064" lon="3.51183">
        <ele>30.5</ele>
        <time>2022-05-05T01:04:36Z</time>
      </trkpt>
      <trkpt lat="50.5207" lon="3.51184">
        <ele>30.5</ele>
        <time>2022-05-05T01:04:37Z</time>
      </trkpt>
      <trkpt lat="50.52076" lon="3.51184">
        <ele>30.5</ele>
        <time>2022-05-05T01:04:37Z</time>
      </trkpt>
      <trkpt lat="50.52081" lon="3.51185">
        <ele>30.5</ele>
        <time>2022-05-05T01:04:38Z</time>
      </trkpt>
      <trkpt lat="50.52086" lon="3.51186">
        <ele>30.5</ele>
        <time>2022-05-05T01:04:38Z</time>
      </trkpt>
      <trkpt lat="50.52088" lon="3.51186">
        <ele>30.5</ele>
        <time>2022-05-05T01:04:39Z</time>
      </trkpt>
      <trkpt lat="50.52089" lon="3.51187">
        <ele>30.5</ele>
        <time>2022-05-05T01:04:39Z</time>
      </trkpt>
      <trkpt lat="50.52091" lon="3.51188">
        <ele>30.5</ele>
        <time>2022-05-05T01:04:39Z</time>
      </trkpt>
      <trkpt lat="50.5209" lon="3.51189">
        <ele>30.5</ele>
        <time>2022-05-05T01:04:39Z</time>
      </trkpt>
      <trkpt lat="50.52089" lon="3.51188">
        <ele>30.5</ele>
        <time>2022-05-05T01:04:39Z</time>
      </trkpt>
      <trkpt lat="50.52089" lon="3.51187">
        <ele>30.5</ele>
        <time>2022-05-05T01:04:39Z</time>
      </trkpt>
      <trkpt lat="50.5209" lon="3.51187">
        <ele>30.5</ele>
        <time>2022-05-05T01:04:39Z</time>
      </trkpt>
      <trkpt lat="50.52091" lon="3.51187">
        <ele>30.5</ele>
        <time>2022-05-05T01:04:39Z</time>
      </trkpt>
      <trkpt lat="50.52094" lon="3.51187">
        <ele>30.5</ele>
        <time>2022-05-05T01:04:40Z</time>
      </trkpt>
      <trkpt lat="50.52099" lon="3.51189">
        <ele>30.5</ele>
        <time>2022-05-05T01:04:40Z</time>
      </trkpt>
      <trkpt lat="50.52103" lon="3.5119">
        <ele>30.5</ele>
        <time>2022-05-05T01:04:40Z</time>
      </trkpt>
      <trkpt lat="50.52109" lon="3.51192">
        <ele>30.5</ele>
        <time>2022-05-05T01:04:41Z</time>
      </trkpt>
      <trkpt lat="50.52115" lon="3.51194">
        <ele>30.5</ele>
        <time>2022-05-05T01:04:42Z</time>
      </trkpt>
      <trkpt lat="50.52121" lon="3.51196">
        <ele>30.5</ele>
        <time>2022-05-05T01:04:42Z</time>
      </trkpt>
      <trkpt lat="50.52126" lon="3.51197">
        <ele>30.5</ele>
        <time>2022-05-05T01:04:43Z</time>
      </trkpt>
      <trkpt lat="50.52131" lon="3.51197">
        <ele>30.5</ele>
        <time>2022-05-05T01:04:43Z</time>
      </trkpt>
      <trkpt lat="50.52135" lon="3.51197">
        <ele>30.5</ele>
        <time>2022-05-05T01:04:43Z</time>
      </trkpt>
      <trkpt lat="50.5214" lon="3.51199">
        <ele>30.5</ele>
        <time>2022-05-05T01:04:44Z</time>
      </trkpt>
      <trkpt lat="50.52146" lon="3.51202">
        <ele>30.5</ele>
        <time>2022-05-05T01:04:45Z</time>
      </trkpt>
      <trkpt lat="50.52152" lon="3.51207">
        <ele>30.6</ele>
        <time>2022-05-05T01:04:45Z</time>
      </trkpt>
      <trkpt lat="50.52157" lon="3.51214">
        <ele>30.6</ele>
        <time>2022-05-05T01:04:46Z</time>
      </trkpt>
      <trkpt lat="50.52163" lon="3.51221">
        <ele>30.7</ele>
        <time>2022-05-05T01:04:47Z</time>
      </trkpt>
      <trkpt lat="50.52168" lon="3.51226">
        <ele>30.6</ele>
        <time>2022-05-05T01:04:47Z</time>
      </trkpt>
      <trkpt lat="50.52174" lon="3.51231">
        <ele>30.6</ele>
        <time>2022-05-05T01:04:48Z</time>
      </trkpt>
      <trkpt lat="50.5218" lon="3.51236">
        <ele>30.6</ele>
        <time>2022-05-05T01:04:48Z</time>
      </trkpt>
      <trkpt lat="50.52186" lon="3.51239">
        <ele>30.7</ele>
        <time>2022-05-05T01:04:49Z</time>
      </trkpt>
      <trkpt lat="50.52192" lon="3.5124">
        <ele>30.7</ele>
        <time>2022-05-05T01:04:50Z</time>
      </trkpt>
      <trkpt lat="50.522" lon="3.51241">
        <ele>30.7</ele>
        <time>2022-05-05T01:04:50Z</time>
      </trkpt>
      <trkpt lat="50.52209" lon="3.5124">
        <ele>30.8</ele>
        <time>2022-05-05T01:04:51Z</time>
      </trkpt>
      <trkpt lat="50.52218" lon="3.5124">
        <ele>30.8</ele>
        <time>2022-05-05T01:04:52Z</time>
      </trkpt>
      <trkpt lat="50.52227" lon="3.5124">
        <ele>30.8</ele>
        <time>2022-05-05T01:04:53Z</time>
      </trkpt>
      <trkpt lat="50.52234" lon="3.5124">
        <ele>30.8</ele>
        <time>2022-05-05T01:04:54Z</time>
      </trkpt>
      <trkpt lat="50.52241" lon="3.5124">
        <ele>30.9</ele>
        <time>2022-05-05T01:04:54Z</time>
      </trkpt>
      <trkpt lat="50.52248" lon="3.5124">
        <ele>30.9</ele>
        <time>2022-05-05T01:04:55Z</time>
      </trkpt>
      <trkpt lat="50.52254" lon="3.5124">
        <ele>30.9</ele>
        <time>2022-05-05T01:04:55Z</time>
      </trkpt>
      <trkpt lat="50.5226" lon="3.51241">
        <ele>30.9</ele>
        <time>2022-05-05T01:04:56Z</time>
      </trkpt>
      <trkpt lat="50.52265" lon="3.51241">
        <ele>31.1</ele>
        <time>2022-05-05T01:04:57Z</time>
      </trkpt>
      <trkpt lat="50.52271" lon="3.5124">
        <ele>31.2</ele>
        <time>2022-05-05T01:04:57Z</time>
      </trkpt>
      <trkpt lat="50.52276" lon="3.5124">
        <ele>31.3</ele>
        <time>2022-05-05T01:04:58Z</time>
      </trkpt>
      <trkpt lat="50.52281" lon="3.51238">
        <ele>31.5</ele>
        <time>2022-05-05T01:04:58Z</time>
      </trkpt>
      <trkpt lat="50.52287" lon="3.51237">
        <ele>31.5</ele>
        <time>2022-05-05T01:04:59Z</time>
      </trkpt>
      <trkpt lat="50.52292" lon="3.51235">
        <ele>31.5</ele>
        <time>2022-05-05T01:04:59Z</time>
      </trkpt>
      <trkpt lat="50.52297" lon="3.51235">
        <ele>31.5</ele>
        <time>2022-05-05T01:05:00Z</time>
      </trkpt>
      <trkpt lat="50.52302" lon="3.51235">
        <ele>31.5</ele>
        <time>2022-05-05T01:05:00Z</time>
      </trkpt>
      <trkpt lat="50.52307" lon="3.51235">
        <ele>31.5</ele>
        <time>2022-05-05T01:05:01Z</time>
      </trkpt>
      <trkpt lat="50.52313" lon="3.51236">
        <ele>31.5</ele>
        <time>2022-05-05T01:05:01Z</time>
      </trkpt>
      <trkpt lat="50.52319" lon="3.51237">
        <ele>31.5</ele>
        <time>2022-05-05T01:05:02Z</time>
      </trkpt>
      <trkpt lat="50.52325" lon="3.51236">
        <ele>31.5</ele>
        <time>2022-05-05T01:05:02Z</time>
      </trkpt>
      <trkpt lat="50.52331" lon="3.51239">
        <ele>31.5</ele>
        <time>2022-05-05T01:05:03Z</time>
      </trkpt>
      <trkpt lat="50.52337" lon="3.51243">
        <ele>31.5</ele>
        <time>2022-05-05T01:05:04Z</time>
      </trkpt>
      <trkpt lat="50.52344" lon="3.51249">
        <ele>31.5</ele>
        <time>2022-05-05T01:05:04Z</time>
      </trkpt>
      <trkpt lat="50.52352" lon="3.51256">
        <ele>31.5</ele>
        <time>2022-05-05T01:05:05Z</time>
      </trkpt>
      <trkpt lat="50.52361" lon="3.51264">
        <ele>31.5</ele>
        <time>2022-05-05T01:05:06Z</time>
      </trkpt>
      <trkpt lat="50.52369" lon="3.5127">
        <ele>31.5</ele>
        <time>2022-05-05T01:05:07Z</time>
      </trkpt>
      <trkpt lat="50.52377" lon="3.51277">
        <ele>31.6</ele>
        <time>2022-05-05T01:05:08Z</time>
      </trkpt>
      <trkpt lat="50.52385" lon="3.51284">
        <ele>31.8</ele>
        <time>2022-05-05T01:05:09Z</time>
      </trkpt>
      <trkpt lat="50.52393" lon="3.51292">
        <ele>31.9</ele>
        <time>2022-05-05T01:05:10Z</time>
      </trkpt>
      <trkpt lat="50.524" lon="3.51299">
        <ele>32</ele>
        <time>2022-05-05T01:05:10Z</time>
      </trkpt>
      <trkpt lat="50.52406" lon="3.51305">
        <ele>32</ele>
        <time>2022-05-05T01:05:11Z</time>
      </trkpt>
      <trkpt lat="50.52413" lon="3.51311">
        <ele>32</ele>
        <time>2022-05-05T01:05:12Z</time>
      </trkpt>
      <trkpt lat="50.5242" lon="3.51318">
        <ele>32.1</ele>
        <time>2022-05-05T01:05:13Z</time>
      </trkpt>
      <trkpt lat="50.52428" lon="3.51323">
        <ele>32.1</ele>
        <time>2022-05-05T01:05:13Z</time>
      </trkpt>
      <trkpt lat="50.52436" lon="3.51328">
        <ele>32.1</ele>
        <time>2022-05-05T01:05:14Z</time>
      </trkpt>
      <trkpt lat="50.52444" lon="3.51334">
        <ele>32.2</ele>
        <time>2022-05-05T01:05:15Z</time>
      </trkpt>
      <trkpt lat="50.52452" lon="3.5134">
        <ele>32.3</ele>
        <time>2022-05-05T01:05:16Z</time>
      </trkpt>
      <trkpt lat="50.52461" lon="3.51346">
        <ele>32.3</ele>
        <time>2022-05-05T01:05:17Z</time>
      </trkpt>
      <trkpt lat="50.52468" lon="3.51351">
        <ele>32.3</ele>
        <time>2022-05-05T01:05:18Z</time>
      </trkpt>
      <trkpt lat="50.52476" lon="3.51357">
        <ele>32.3</ele>
        <time>2022-05-05T01:05:18Z</time>
      </trkpt>
      <trkpt lat="50.52484" lon="3.51362">
        <ele>32.4</ele>
        <time>2022-05-05T01:05:19Z</time>
      </trkpt>
      <trkpt lat="50.52491" lon="3.51367">
        <ele>32.4</ele>
        <time>2022-05-05T01:05:20Z</time>
      </trkpt>
      <trkpt lat="50.52498" lon="3.51373">
        <ele>32.4</ele>
        <time>2022-05-05T01:05:21Z</time>
      </trkpt>
      <trkpt lat="50.52505" lon="3.51377">
        <ele>32.3</ele>
        <time>2022-05-05T01:05:21Z</time>
      </trkpt>
      <trkpt lat="50.52511" lon="3.51382">
        <ele>32.2</ele>
        <time>2022-05-05T01:05:22Z</time>
      </trkpt>
      <trkpt lat="50.52515" lon="3.51386">
        <ele>32.1</ele>
        <time>2022-05-05T01:05:23Z</time>
      </trkpt>
      <trkpt lat="50.52519" lon="3.5139">
        <ele>32.1</ele>
        <time>2022-05-05T01:05:23Z</time>
      </trkpt>
      <trkpt lat="50.52523" lon="3.51392">
        <ele>32.1</ele>
        <time>2022-05-05T01:05:23Z</time>
      </trkpt>
      <trkpt lat="50.52527" lon="3.51395">
        <ele>32.2</ele>
        <time>2022-05-05T01:05:24Z</time>
      </trkpt>
      <trkpt lat="50.52529" lon="3.51396">
        <ele>32.3</ele>
        <time>2022-05-05T01:05:24Z</time>
      </trkpt>
      <trkpt lat="50.52531" lon="3.51397">
        <ele>32.4</ele>
        <time>2022-05-05T01:05:24Z</time>
      </trkpt>
      <trkpt lat="50.5253" lon="3.51398">
        <ele>32.4</ele>
        <time>2022-05-05T01:05:24Z</time>
      </trkpt>
      <trkpt lat="50.5253" lon="3.51397">
        <ele>32.5</ele>
        <time>2022-05-05T01:05:24Z</time>
      </trkpt>
      <trkpt lat="50.5253" lon="3.51398">
        <ele>32.5</ele>
        <time>2022-05-05T01:05:24Z</time>
      </trkpt>
      <trkpt lat="50.5253" lon="3.51397">
        <ele>32.5</ele>
        <time>2022-05-05T01:05:24Z</time>
      </trkpt>
      <trkpt lat="50.5253" lon="3.51397">
        <ele>32.5</ele>
        <time>2022-05-05T01:05:24Z</time>
      </trkpt>
      <trkpt lat="50.52531" lon="3.51397">
        <ele>32.5</ele>
        <time>2022-05-05T01:05:25Z</time>
      </trkpt>
      <trkpt lat="50.52533" lon="3.51398">
        <ele>32.5</ele>
        <time>2022-05-05T01:05:25Z</time>
      </trkpt>
      <trkpt lat="50.52534" lon="3.51399">
        <ele>32.5</ele>
        <time>2022-05-05T01:05:25Z</time>
      </trkpt>
      <trkpt lat="50.52535" lon="3.51398">
        <ele>32.5</ele>
        <time>2022-05-05T01:05:25Z</time>
      </trkpt>
      <trkpt lat="50.52535" lon="3.51399">
        <ele>32.5</ele>
        <time>2022-05-05T01:05:25Z</time>
      </trkpt>
      <trkpt lat="50.52535" lon="3.514">
        <ele>32.5</ele>
        <time>2022-05-05T01:05:25Z</time>
      </trkpt>
      <trkpt lat="50.52536" lon="3.51399">
        <ele>32.5</ele>
        <time>2022-05-05T01:05:25Z</time>
      </trkpt>
      <trkpt lat="50.52537" lon="3.51398">
        <ele>32.5</ele>
        <time>2022-05-05T01:05:25Z</time>
      </trkpt>
      <trkpt lat="50.52537" lon="3.51395">
        <ele>32.5</ele>
        <time>2022-05-05T01:05:26Z</time>
      </trkpt>
      <trkpt lat="50.52539" lon="3.51393">
        <ele>32.5</ele>
        <time>2022-05-05T01:05:26Z</time>
      </trkpt>
      <trkpt lat="50.52541" lon="3.51388">
        <ele>32.5</ele>
        <time>2022-05-05T01:05:26Z</time>
      </trkpt>
      <trkpt lat="50.52543" lon="3.51382">
        <ele>32.5</ele>
        <time>2022-05-05T01:05:26Z</time>
      </trkpt>
      <trkpt lat="50.52544" lon="3.51375">
        <ele>32.5</ele>
        <time>2022-05-05T01:05:27Z</time>
      </trkpt>
      <trkpt lat="50.52545" lon="3.51368">
        <ele>32.5</ele>
        <time>2022-05-05T01:05:27Z</time>
      </trkpt>
      <trkpt lat="50.52546" lon="3.5136">
        <ele>32.5</ele>
        <time>2022-05-05T01:05:28Z</time>
      </trkpt>
      <trkpt lat="50.52547" lon="3.51351">
        <ele>32.5</ele>
        <time>2022-05-05T01:05:28Z</time>
      </trkpt>
      <trkpt lat="50.52548" lon="3.51343">
        <ele>32.6</ele>
        <time>2022-05-05T01:05:29Z</time>
      </trkpt>
      <trkpt lat="50.52549" lon="3.51336">
        <ele>32.7</ele>
        <time>2022-05-05T01:05:29Z</time>
      </trkpt>
      <trkpt lat="50.52551" lon="3.51329">
        <ele>32.9</ele>
        <time>2022-05-05T01:05:30Z</time>
      </trkpt>
      <trkpt lat="50.52555" lon="3.51323">
        <ele>33.1</ele>
        <time>2022-05-05T01:05:30Z</time>
      </trkpt>
      <trkpt lat="50.52559" lon="3.51316">
        <ele>33.2</ele>
        <time>2022-05-05T01:05:31Z</time>
      </trkpt>
      <trkpt lat="50.52564" lon="3.51308">
        <ele>33.3</ele>
        <time>2022-05-05T01:05:32Z</time>
      </trkpt>
      <trkpt lat="50.52568" lon="3.513">
        <ele>33.4</ele>
        <time>2022-05-05T01:05:32Z</time>
      </trkpt>
      <trkpt lat="50.52572" lon="3.51292">
        <ele>33.4</ele>
        <time>2022-05-05T01:05:33Z</time>
      </trkpt>
      <trkpt lat="50.52575" lon="3.51283">
        <ele>33.5</ele>
        <time>2022-05-05T01:05:33Z</time>
      </trkpt>
      <trkpt lat="50.52577" lon="3.51273">
        <ele>33.5</ele>
        <time>2022-05-05T01:05:34Z</time>
      </trkpt>
      <trkpt lat="50.52578" lon="3.51263">
        <ele>33.5</ele>
        <time>2022-05-05T01:05:35Z</time>
      </trkpt>
      <trkpt lat="50.52579" lon="3.51252">
        <ele>33.7</ele>
        <time>2022-05-05T01:05:35Z</time>
      </trkpt>
      <trkpt lat="50.5258" lon="3.51242">
        <ele>33.9</ele>
        <time>2022-05-05T01:05:36Z</time>
      </trkpt>
      <trkpt lat="50.52581" lon="3.51232">
        <ele>34.1</ele>
        <time>2022-05-05T01:05:37Z</time>
      </trkpt>
      <trkpt lat="50.52583" lon="3.51222">
        <ele>34.2</ele>
        <time>2022-05-05T01:05:37Z</time>
      </trkpt>
      <trkpt lat="50.52583" lon="3.51212">
        <ele>34.3</ele>
        <time>2022-05-05T01:05:38Z</time>
      </trkpt>
      <trkpt lat="50.52582" lon="3.51203">
        <ele>34.4</ele>
        <time>2022-05-05T01:05:38Z</time>
      </trkpt>
      <trkpt lat="50.5258" lon="3.51195">
        <ele>34.4</ele>
        <time>2022-05-05T01:05:39Z</time>
      </trkpt>
      <trkpt lat="50.52579" lon="3.51189">
        <ele>34.5</ele>
        <time>2022-05-05T01:05:39Z</time>
      </trkpt>
      <trkpt lat="50.52578" lon="3.51182">
        <ele>34.5</ele>
        <time>2022-05-05T01:05:40Z</time>
      </trkpt>
      <trkpt lat="50.52577" lon="3.51177">
        <ele>34.6</ele>
        <time>2022-05-05T01:05:40Z</time>
      </trkpt>
      <trkpt lat="50.52577" lon="3.51171">
        <ele>34.8</ele>
        <time>2022-05-05T01:05:40Z</time>
      </trkpt>
      <trkpt lat="50.52578" lon="3.51166">
        <ele>34.9</ele>
        <time>2022-05-05T01:05:41Z</time>
      </trkpt>
      <trkpt lat="50.5258" lon="3.51163">
        <ele>35.1</ele>
        <time>2022-05-05T01:05:41Z</time>
      </trkpt>
      <trkpt lat="50.52584" lon="3.51159">
        <ele>35.2</ele>
        <time>2022-05-05T01:05:41Z</time>
      </trkpt>
      <trkpt lat="50.52588" lon="3.51153">
        <ele>35.3</ele>
        <time>2022-05-05T01:05:42Z</time>
      </trkpt>
      <trkpt lat="50.52593" lon="3.51145">
        <ele>35.4</ele>
        <time>2022-05-05T01:05:43Z</time>
      </trkpt>
      <trkpt lat="50.52599" lon="3.51138">
        <ele>35.4</ele>
        <time>2022-05-05T01:05:43Z</time>
      </trkpt>
      <trkpt lat="50.52605" lon="3.5113">
        <ele>35.5</ele>
        <time>2022-05-05T01:05:44Z</time>
      </trkpt>
      <trkpt lat="50.52612" lon="3.51121">
        <ele>35.6</ele>
        <time>2022-05-05T01:05:45Z</time>
      </trkpt>
      <trkpt lat="50.52618" lon="3.51113">
        <ele>35.8</ele>
        <time>2022-05-05T01:05:46Z</time>
      </trkpt>
      <trkpt lat="50.52625" lon="3.51106">
        <ele>36</ele>
        <time>2022-05-05T01:05:46Z</time>
      </trkpt>
      <trkpt lat="50.52631" lon="3.51102">
        <ele>36.2</ele>
        <time>2022-05-05T01:05:47Z</time>
      </trkpt>
      <trkpt lat="50.52636" lon="3.51096">
        <ele>36.4</ele>
        <time>2022-05-05T01:05:48Z</time>
      </trkpt>
      <trkpt lat="50.52641" lon="3.51093">
        <ele>36.6</ele>
        <time>2022-05-05T01:05:48Z</time>
      </trkpt>
      <trkpt lat="50.52645" lon="3.5109">
        <ele>36.8</ele>
        <time>2022-05-05T01:05:49Z</time>
      </trkpt>
      <trkpt lat="50.52649" lon="3.51092">
        <ele>37</ele>
        <time>2022-05-05T01:05:49Z</time>
      </trkpt>
      <trkpt lat="50.52652" lon="3.51095">
        <ele>37.1</ele>
        <time>2022-05-05T01:05:49Z</time>
      </trkpt>
      <trkpt lat="50.52654" lon="3.51102">
        <ele>37.2</ele>
        <time>2022-05-05T01:05:50Z</time>
      </trkpt>
      <trkpt lat="50.52655" lon="3.51112">
        <ele>37.2</ele>
        <time>2022-05-05T01:05:50Z</time>
      </trkpt>
      <trkpt lat="50.52655" lon="3.51125">
        <ele>37.1</ele>
        <time>2022-05-05T01:05:51Z</time>
      </trkpt>
      <trkpt lat="50.52654" lon="3.51142">
        <ele>37</ele>
        <time>2022-05-05T01:05:52Z</time>
      </trkpt>
      <trkpt lat="50.52653" lon="3.51161">
        <ele>36.8</ele>
        <time>2022-05-05T01:05:53Z</time>
      </trkpt>
      <trkpt lat="50.52652" lon="3.51181">
        <ele>36.6</ele>
        <time>2022-05-05T01:05:55Z</time>
      </trkpt>
      <trkpt lat="50.52651" lon="3.51203">
        <ele>36.3</ele>
        <time>2022-05-05T01:05:56Z</time>
      </trkpt>
      <trkpt lat="50.52652" lon="3.51225">
        <ele>36.2</ele>
        <time>2022-05-05T01:05:57Z</time>
      </trkpt>
      <trkpt lat="50.52653" lon="3.51249">
        <ele>35.9</ele>
        <time>2022-05-05T01:05:59Z</time>
      </trkpt>
      <trkpt lat="50.52654" lon="3.51272">
        <ele>35.8</ele>
        <time>2022-05-05T01:06:00Z</time>
      </trkpt>
      <trkpt lat="50.52658" lon="3.51296">
        <ele>35.5</ele>
        <time>2022-05-05T01:06:02Z</time>
      </trkpt>
      <trkpt lat="50.52662" lon="3.51319">
        <ele>35.4</ele>
        <time>2022-05-05T01:06:03Z</time>
      </trkpt>
      <trkpt lat="50.52668" lon="3.51341">
        <ele>35.4</ele>
        <time>2022-05-05T01:06:04Z</time>
      </trkpt>
      <trkpt lat="50.52673" lon="3.51363">
        <ele>35.3</ele>
        <time>2022-05-05T01:06:06Z</time>
      </trkpt>
      <trkpt lat="50.52679" lon="3.51381">
        <ele>35</ele>
        <time>2022-05-05T01:06:07Z</time>
      </trkpt>
      <trkpt lat="50.52684" lon="3.51397">
        <ele>34.8</ele>
        <time>2022-05-05T01:06:08Z</time>
      </trkpt>
      <trkpt lat="50.52691" lon="3.51412">
        <ele>34.7</ele>
        <time>2022-05-05T01:06:09Z</time>
      </trkpt>
      <trkpt lat="50.52698" lon="3.51428">
        <ele>34.6</ele>
        <time>2022-05-05T01:06:10Z</time>
      </trkpt>
      <trkpt lat="50.52706" lon="3.51442">
        <ele>34.5</ele>
        <time>2022-05-05T01:06:12Z</time>
      </trkpt>
      <trkpt lat="50.52716" lon="3.51457">
        <ele>33.6</ele>
        <time>2022-05-05T01:06:13Z</time>
      </trkpt>
      <trkpt lat="50.52728" lon="3.5147">
        <ele>32.8</ele>
        <time>2022-05-05T01:06:14Z</time>
      </trkpt>
      <trkpt lat="50.52739" lon="3.51482">
        <ele>32.1</ele>
        <time>2022-05-05T01:06:16Z</time>
      </trkpt>
      <trkpt lat="50.52749" lon="3.51493">
        <ele>31.4</ele>
        <time>2022-05-05T01:06:17Z</time>
      </trkpt>
      <trkpt lat="50.5276" lon="3.51506">
        <ele>30.8</ele>
        <time>2022-05-05T01:06:18Z</time>
      </trkpt>
      <trkpt lat="50.52771" lon="3.51519">
        <ele>30.3</ele>
        <time>2022-05-05T01:06:19Z</time>
      </trkpt>
      <trkpt lat="50.52781" lon="3.51531">
        <ele>29.8</ele>
        <time>2022-05-05T01:06:21Z</time>
      </trkpt>
      <trkpt lat="50.5279" lon="3.51546">
        <ele>29.5</ele>
        <time>2022-05-05T01:06:22Z</time>
      </trkpt>
      <trkpt lat="50.52801" lon="3.51556">
        <ele>27.6</ele>
        <time>2022-05-05T01:06:23Z</time>
      </trkpt>
      <trkpt lat="50.52811" lon="3.51569">
        <ele>27.4</ele>
        <time>2022-05-05T01:06:24Z</time>
      </trkpt>
      <trkpt lat="50.52819" lon="3.51586">
        <ele>27.3</ele>
        <time>2022-05-05T01:06:26Z</time>
      </trkpt>
      <trkpt lat="50.5283" lon="3.51603">
        <ele>27.4</ele>
        <time>2022-05-05T01:06:27Z</time>
      </trkpt>
      <trkpt lat="50.5284" lon="3.51621">
        <ele>27.6</ele>
        <time>2022-05-05T01:06:28Z</time>
      </trkpt>
      <trkpt lat="50.52847" lon="3.5164">
        <ele>28</ele>
        <time>2022-05-05T01:06:30Z</time>
      </trkpt>
      <trkpt lat="50.52852" lon="3.5166">
        <ele>28.4</ele>
        <time>2022-05-05T01:06:31Z</time>
      </trkpt>
      <trkpt lat="50.52859" lon="3.51678">
        <ele>28.6</ele>
        <time>2022-05-05T01:06:32Z</time>
      </trkpt>
      <trkpt lat="50.52865" lon="3.51696">
        <ele>34.5</ele>
        <time>2022-05-05T01:06:34Z</time>
      </trkpt>
      <trkpt lat="50.5287" lon="3.51713">
        <ele>35.3</ele>
        <time>2022-05-05T01:06:35Z</time>
      </trkpt>
      <trkpt lat="50.52875" lon="3.5173">
        <ele>35.4</ele>
        <time>2022-05-05T01:06:36Z</time>
      </trkpt>
      <trkpt lat="50.5288" lon="3.51748">
        <ele>35.4</ele>
        <time>2022-05-05T01:06:37Z</time>
      </trkpt>
      <trkpt lat="50.52886" lon="3.51764">
        <ele>35.1</ele>
        <time>2022-05-05T01:06:38Z</time>
      </trkpt>
      <trkpt lat="50.52894" lon="3.5178">
        <ele>34.9</ele>
        <time>2022-05-05T01:06:39Z</time>
      </trkpt>
      <trkpt lat="50.52901" lon="3.51794">
        <ele>34.8</ele>
        <time>2022-05-05T01:06:40Z</time>
      </trkpt>
      <trkpt lat="50.52908" lon="3.51805">
        <ele>34.7</ele>
        <time>2022-05-05T01:06:41Z</time>
      </trkpt>
      <trkpt lat="50.52914" lon="3.5182">
        <ele>34.7</ele>
        <time>2022-05-05T01:06:43Z</time>
      </trkpt>
      <trkpt lat="50.52918" lon="3.51836">
        <ele>34.6</ele>
        <time>2022-05-05T01:06:44Z</time>
      </trkpt>
      <trkpt lat="50.52923" lon="3.51849">
        <ele>34.6</ele>
        <time>2022-05-05T01:06:44Z</time>
      </trkpt>
      <trkpt lat="50.52928" lon="3.51862">
        <ele>34.5</ele>
        <time>2022-05-05T01:06:45Z</time>
      </trkpt>
      <trkpt lat="50.52932" lon="3.51874">
        <ele>34.5</ele>
        <time>2022-05-05T01:06:46Z</time>
      </trkpt>
      <trkpt lat="50.52939" lon="3.51886">
        <ele>34.3</ele>
        <time>2022-05-05T01:06:47Z</time>
      </trkpt>
      <trkpt lat="50.52942" lon="3.51894">
        <ele>34.1</ele>
        <time>2022-05-05T01:06:48Z</time>
      </trkpt>
      <trkpt lat="50.52946" lon="3.51901">
        <ele>33.8</ele>
        <time>2022-05-05T01:06:48Z</time>
      </trkpt>
      <trkpt lat="50.52948" lon="3.51907">
        <ele>33.5</ele>
        <time>2022-05-05T01:06:49Z</time>
      </trkpt>
      <trkpt lat="50.5295" lon="3.5191">
        <ele>33.3</ele>
        <time>2022-05-05T01:06:49Z</time>
      </trkpt>
      <trkpt lat="50.52952" lon="3.51915">
        <ele>33.1</ele>
        <time>2022-05-05T01:06:49Z</time>
      </trkpt>
      <trkpt lat="50.52957" lon="3.51924">
        <ele>32.9</ele>
        <time>2022-05-05T01:06:50Z</time>
      </trkpt>
      <trkpt lat="50.52965" lon="3.51937">
        <ele>32.7</ele>
        <time>2022-05-05T01:06:51Z</time>
      </trkpt>
      <trkpt lat="50.52974" lon="3.5195">
        <ele>32.4</ele>
        <time>2022-05-05T01:06:52Z</time>
      </trkpt>
      <trkpt lat="50.52981" lon="3.51961">
        <ele>32.1</ele>
        <time>2022-05-05T01:06:53Z</time>
      </trkpt>
      <trkpt lat="50.52987" lon="3.51968">
        <ele>31.9</ele>
        <time>2022-05-05T01:06:54Z</time>
      </trkpt>
      <trkpt lat="50.52991" lon="3.5197">
        <ele>31.7</ele>
        <time>2022-05-05T01:06:54Z</time>
      </trkpt>
      <trkpt lat="50.52995" lon="3.51973">
        <ele>31.6</ele>
        <time>2022-05-05T01:06:55Z</time>
      </trkpt>
      <trkpt lat="50.52999" lon="3.51972">
        <ele>31.6</ele>
        <time>2022-05-05T01:06:55Z</time>
      </trkpt>
      <trkpt lat="50.53003" lon="3.51966">
        <ele>31.6</ele>
        <time>2022-05-05T01:06:56Z</time>
      </trkpt>
      <trkpt lat="50.53008" lon="3.51953">
        <ele>31.5</ele>
        <time>2022-05-05T01:06:57Z</time>
      </trkpt>
      <trkpt lat="50.53011" lon="3.51938">
        <ele>31.6</ele>
        <time>2022-05-05T01:06:58Z</time>
      </trkpt>
      <trkpt lat="50.53016" lon="3.51921">
        <ele>31.7</ele>
        <time>2022-05-05T01:06:59Z</time>
      </trkpt>
      <trkpt lat="50.53021" lon="3.51903">
        <ele>32</ele>
        <time>2022-05-05T01:07:00Z</time>
      </trkpt>
      <trkpt lat="50.53029" lon="3.51888">
        <ele>32.3</ele>
        <time>2022-05-05T01:07:01Z</time>
      </trkpt>
      <trkpt lat="50.53035" lon="3.51872">
        <ele>32.8</ele>
        <time>2022-05-05T01:07:02Z</time>
      </trkpt>
      <trkpt lat="50.53041" lon="3.51858">
        <ele>33</ele>
        <time>2022-05-05T01:07:03Z</time>
      </trkpt>
      <trkpt lat="50.53047" lon="3.51846">
        <ele>33.2</ele>
        <time>2022-05-05T01:07:04Z</time>
      </trkpt>
      <trkpt lat="50.53052" lon="3.51837">
        <ele>33.5</ele>
        <time>2022-05-05T01:07:05Z</time>
      </trkpt>
      <trkpt lat="50.53055" lon="3.5183">
        <ele>32.9</ele>
        <time>2022-05-05T01:07:05Z</time>
      </trkpt>
      <trkpt lat="50.53058" lon="3.51827">
        <ele>32.4</ele>
        <time>2022-05-05T01:07:06Z</time>
      </trkpt>
      <trkpt lat="50.53061" lon="3.51829">
        <ele>31.9</ele>
        <time>2022-05-05T01:07:06Z</time>
      </trkpt>
      <trkpt lat="50.53065" lon="3.51841">
        <ele>31.4</ele>
        <time>2022-05-05T01:07:07Z</time>
      </trkpt>
      <trkpt lat="50.53069" lon="3.51855">
        <ele>30.9</ele>
        <time>2022-05-05T01:07:08Z</time>
      </trkpt>
      <trkpt lat="50.53074" lon="3.5187">
        <ele>30.3</ele>
        <time>2022-05-05T01:07:09Z</time>
      </trkpt>
      <trkpt lat="50.53077" lon="3.51887">
        <ele>29.8</ele>
        <time>2022-05-05T01:07:10Z</time>
      </trkpt>
      <trkpt lat="50.53081" lon="3.51901">
        <ele>29.2</ele>
        <time>2022-05-05T01:07:11Z</time>
      </trkpt>
      <trkpt lat="50.53087" lon="3.51915">
        <ele>26</ele>
        <time>2022-05-05T01:07:12Z</time>
      </trkpt>
      <trkpt lat="50.53091" lon="3.51929">
        <ele>25.5</ele>
        <time>2022-05-05T01:07:13Z</time>
      </trkpt>
      <trkpt lat="50.53094" lon="3.51944">
        <ele>25.3</ele>
        <time>2022-05-05T01:07:14Z</time>
      </trkpt>
      <trkpt lat="50.53098" lon="3.51959">
        <ele>25.3</ele>
        <time>2022-05-05T01:07:15Z</time>
      </trkpt>
      <trkpt lat="50.53103" lon="3.51976">
        <ele>25.6</ele>
        <time>2022-05-05T01:07:16Z</time>
      </trkpt>
      <trkpt lat="50.53107" lon="3.51993">
        <ele>26.1</ele>
        <time>2022-05-05T01:07:17Z</time>
      </trkpt>
      <trkpt lat="50.5311" lon="3.52006">
        <ele>26.5</ele>
        <time>2022-05-05T01:07:18Z</time>
      </trkpt>
      <trkpt lat="50.53118" lon="3.52018">
        <ele>26.9</ele>
        <time>2022-05-05T01:07:19Z</time>
      </trkpt>
      <trkpt lat="50.53122" lon="3.52029">
        <ele>27.3</ele>
        <time>2022-05-05T01:07:20Z</time>
      </trkpt>
      <trkpt lat="50.53124" lon="3.5204">
        <ele>27.1</ele>
        <time>2022-05-05T01:07:20Z</time>
      </trkpt>
      <trkpt lat="50.53126" lon="3.52051">
        <ele>27.2</ele>
        <time>2022-05-05T01:07:21Z</time>
      </trkpt>
      <trkpt lat="50.53129" lon="3.52059">
        <ele>27.3</ele>
        <time>2022-05-05T01:07:22Z</time>
      </trkpt>
      <trkpt lat="50.53131" lon="3.52063">
        <ele>27</ele>
        <time>2022-05-05T01:07:22Z</time>
      </trkpt>
      <trkpt lat="50.53133" lon="3.5207">
        <ele>32.9</ele>
        <time>2022-05-05T01:07:22Z</time>
      </trkpt>
      <trkpt lat="50.53135" lon="3.52075">
        <ele>33.4</ele>
        <time>2022-05-05T01:07:23Z</time>
      </trkpt>
      <trkpt lat="50.53134" lon="3.52088">
        <ele>33.5</ele>
        <time>2022-05-05T01:07:24Z</time>
      </trkpt>
      <trkpt lat="50.53134" lon="3.52093">
        <ele>33.5</ele>
        <time>2022-05-05T01:07:24Z</time>
      </trkpt>
      <trkpt lat="50.53131" lon="3.521">
        <ele>33.5</ele>
        <time>2022-05-05T01:07:24Z</time>
      </trkpt>
      <trkpt lat="50.53126" lon="3.52106">
        <ele>33.5</ele>
        <time>2022-05-05T01:07:25Z</time>
      </trkpt>
      <trkpt lat="50.5312" lon="3.52112">
        <ele>33.5</ele>
        <time>2022-05-05T01:07:26Z</time>
      </trkpt>
      <trkpt lat="50.53111" lon="3.52119">
        <ele>33.5</ele>
        <time>2022-05-05T01:07:27Z</time>
      </trkpt>
      <trkpt lat="50.53102" lon="3.52123">
        <ele>33.5</ele>
        <time>2022-05-05T01:07:28Z</time>
      </trkpt>
      <trkpt lat="50.53093" lon="3.52129">
        <ele>33.4</ele>
        <time>2022-05-05T01:07:28Z</time>
      </trkpt>
      <trkpt lat="50.53083" lon="3.52136">
        <ele>33.4</ele>
        <time>2022-05-05T01:07:29Z</time>
      </trkpt>
      <trkpt lat="50.53073" lon="3.52145">
        <ele>33.4</ele>
        <time>2022-05-05T01:07:31Z</time>
      </trkpt>
      <trkpt lat="50.53064" lon="3.52155">
        <ele>33.3</ele>
        <time>2022-05-05T01:07:32Z</time>
      </trkpt>
      <trkpt lat="50.53051" lon="3.52156">
        <ele>33.1</ele>
        <time>2022-05-05T01:07:33Z</time>
      </trkpt>
      <trkpt lat="50.53041" lon="3.52162">
        <ele>32.9</ele>
        <time>2022-05-05T01:07:34Z</time>
      </trkpt>
      <trkpt lat="50.53033" lon="3.52171">
        <ele>32.7</ele>
        <time>2022-05-05T01:07:35Z</time>
      </trkpt>
      <trkpt lat="50.53024" lon="3.52177">
        <ele>32.7</ele>
        <time>2022-05-05T01:07:36Z</time>
      </trkpt>
      <trkpt lat="50.53016" lon="3.5218">
        <ele>32.6</ele>
        <time>2022-05-05T01:07:36Z</time>
      </trkpt>
      <trkpt lat="50.5301" lon="3.52186">
        <ele>32.4</ele>
        <time>2022-05-05T01:07:37Z</time>
      </trkpt>
      <trkpt lat="50.53005" lon="3.52191">
        <ele>32.2</ele>
        <time>2022-05-05T01:07:38Z</time>
      </trkpt>
      <trkpt lat="50.53002" lon="3.52199">
        <ele>32</ele>
        <time>2022-05-05T01:07:38Z</time>
      </trkpt>
      <trkpt lat="50.53003" lon="3.52213">
        <ele>31.9</ele>
        <time>2022-05-05T01:07:39Z</time>
      </trkpt>
      <trkpt lat="50.53004" lon="3.52228">
        <ele>32</ele>
        <time>2022-05-05T01:07:40Z</time>
      </trkpt>
      <trkpt lat="50.5301" lon="3.52245">
        <ele>32.2</ele>
        <time>2022-05-05T01:07:41Z</time>
      </trkpt>
      <trkpt lat="50.53017" lon="3.52262">
        <ele>32.3</ele>
        <time>2022-05-05T01:07:42Z</time>
      </trkpt>
      <trkpt lat="50.53025" lon="3.5228">
        <ele>32.4</ele>
        <time>2022-05-05T01:07:44Z</time>
      </trkpt>
      <trkpt lat="50.53033" lon="3.52299">
        <ele>32.4</ele>
        <time>2022-05-05T01:07:45Z</time>
      </trkpt>
      <trkpt lat="50.5304" lon="3.52321">
        <ele>32.7</ele>
        <time>2022-05-05T01:07:47Z</time>
      </trkpt>
      <trkpt lat="50.53049" lon="3.5234">
        <ele>33</ele>
        <time>2022-05-05T01:07:48Z</time>
      </trkpt>
      <trkpt lat="50.53057" lon="3.52357">
        <ele>33.2</ele>
        <time>2022-05-05T01:07:49Z</time>
      </trkpt>
      <trkpt lat="50.53064" lon="3.52372">
        <ele>33.3</ele>
        <time>2022-05-05T01:07:50Z</time>
      </trkpt>
      <trkpt lat="50.5307" lon="3.52386">
        <ele>33.5</ele>
        <time>2022-05-05T01:07:52Z</time>
      </trkpt>
      <trkpt lat="50.53076" lon="3.52402">
        <ele>33.7</ele>
        <time>2022-05-05T01:07:53Z</time>
      </trkpt>
      <trkpt lat="50.53079" lon="3.52417">
        <ele>33.9</ele>
        <time>2022-05-05T01:07:54Z</time>
      </trkpt>
      <trkpt lat="50.53082" lon="3.52432">
        <ele>34.1</ele>
        <time>2022-05-05T01:07:54Z</time>
      </trkpt>
      <trkpt lat="50.53083" lon="3.52445">
        <ele>34.3</ele>
        <time>2022-05-05T01:07:55Z</time>
      </trkpt>
      <trkpt lat="50.53084" lon="3.52455">
        <ele>34.4</ele>
        <time>2022-05-05T01:07:56Z</time>
      </trkpt>
      <trkpt lat="50.53085" lon="3.52462">
        <ele>34.5</ele>
        <time>2022-05-05T01:07:56Z</time>
      </trkpt>
      <trkpt lat="50.53087" lon="3.52465">
        <ele>34.8</ele>
        <time>2022-05-05T01:07:57Z</time>
      </trkpt>
      <trkpt lat="50.53088" lon="3.52467">
        <ele>35</ele>
        <time>2022-05-05T01:07:57Z</time>
      </trkpt>
      <trkpt lat="50.53091" lon="3.52467">
        <ele>35.1</ele>
        <time>2022-05-05T01:07:57Z</time>
      </trkpt>
      <trkpt lat="50.53096" lon="3.52463">
        <ele>35.2</ele>
        <time>2022-05-05T01:07:58Z</time>
      </trkpt>
      <trkpt lat="50.53103" lon="3.52457">
        <ele>35.2</ele>
        <time>2022-05-05T01:07:58Z</time>
      </trkpt>
      <trkpt lat="50.53112" lon="3.52449">
        <ele>35.3</ele>
        <time>2022-05-05T01:07:59Z</time>
      </trkpt>
      <trkpt lat="50.53123" lon="3.52441">
        <ele>35.4</ele>
        <time>2022-05-05T01:08:00Z</time>
      </trkpt>
      <trkpt lat="50.53133" lon="3.52433">
        <ele>35.4</ele>
        <time>2022-05-05T01:08:02Z</time>
      </trkpt>
      <trkpt lat="50.53144" lon="3.52425">
        <ele>35.4</ele>
        <time>2022-05-05T01:08:03Z</time>
      </trkpt>
      <trkpt lat="50.53155" lon="3.52419">
        <ele>35.4</ele>
        <time>2022-05-05T01:08:04Z</time>
      </trkpt>
      <trkpt lat="50.53167" lon="3.52411">
        <ele>35.5</ele>
        <time>2022-05-05T01:08:05Z</time>
      </trkpt>
      <trkpt lat="50.5318" lon="3.52405">
        <ele>35.5</ele>
        <time>2022-05-05T01:08:06Z</time>
      </trkpt>
      <trkpt lat="50.53195" lon="3.52402">
        <ele>35.6</ele>
        <time>2022-05-05T01:08:08Z</time>
      </trkpt>
      <trkpt lat="50.53209" lon="3.52397">
        <ele>35.7</ele>
        <time>2022-05-05T01:08:09Z</time>
      </trkpt>
      <trkpt lat="50.53224" lon="3.52393">
        <ele>35.9</ele>
        <time>2022-05-05T01:08:11Z</time>
      </trkpt>
      <trkpt lat="50.53238" lon="3.52388">
        <ele>36.1</ele>
        <time>2022-05-05T01:08:12Z</time>
      </trkpt>
      <trkpt lat="50.53252" lon="3.52382">
        <ele>36.3</ele>
        <time>2022-05-05T01:08:13Z</time>
      </trkpt>
      <trkpt lat="50.53267" lon="3.52378">
        <ele>36.3</ele>
        <time>2022-05-05T01:08:15Z</time>
      </trkpt>
      <trkpt lat="50.53281" lon="3.52372">
        <ele>36.4</ele>
        <time>2022-05-05T01:08:16Z</time>
      </trkpt>
      <trkpt lat="50.53295" lon="3.52366">
        <ele>36.5</ele>
        <time>2022-05-05T01:08:18Z</time>
      </trkpt>
      <trkpt lat="50.53309" lon="3.52362">
        <ele>36.7</ele>
        <time>2022-05-05T01:08:19Z</time>
      </trkpt>
      <trkpt lat="50.53323" lon="3.52358">
        <ele>37</ele>
        <time>2022-05-05T01:08:20Z</time>
      </trkpt>
      <trkpt lat="50.53336" lon="3.52354">
        <ele>37.2</ele>
        <time>2022-05-05T01:08:22Z</time>
      </trkpt>
      <trkpt lat="50.53349" lon="3.5235">
        <ele>37.3</ele>
        <time>2022-05-05T01:08:23Z</time>
      </trkpt>
      <trkpt lat="50.53362" lon="3.52349">
        <ele>37.4</ele>
        <time>2022-05-05T01:08:24Z</time>
      </trkpt>
      <trkpt lat="50.53377" lon="3.52348">
        <ele>37.4</ele>
        <time>2022-05-05T01:08:25Z</time>
      </trkpt>
      <trkpt lat="50.53392" lon="3.52349">
        <ele>37.4</ele>
        <time>2022-05-05T01:08:27Z</time>
      </trkpt>
      <trkpt lat="50.53407" lon="3.52349">
        <ele>37.5</ele>
        <time>2022-05-05T01:08:28Z</time>
      </trkpt>
      <trkpt lat="50.53423" lon="3.52348">
        <ele>37.5</ele>
        <time>2022-05-05T01:08:30Z</time>
      </trkpt>
      <trkpt lat="50.53439" lon="3.52345">
        <ele>37.6</ele>
        <time>2022-05-05T01:08:31Z</time>
      </trkpt>
      <trkpt lat="50.53456" lon="3.5234">
        <ele>37.8</ele>
        <time>2022-05-05T01:08:33Z</time>
      </trkpt>
      <trkpt lat="50.53472" lon="3.52336">
        <ele>38.1</ele>
        <time>2022-05-05T01:08:35Z</time>
      </trkpt>
      <trkpt lat="50.53486" lon="3.52329">
        <ele>38.2</ele>
        <time>2022-05-05T01:08:36Z</time>
      </trkpt>
      <trkpt lat="50.53498" lon="3.52326">
        <ele>38.3</ele>
        <time>2022-05-05T01:08:37Z</time>
      </trkpt>
      <trkpt lat="50.53511" lon="3.52326">
        <ele>38.4</ele>
        <time>2022-05-05T01:08:38Z</time>
      </trkpt>
      <trkpt lat="50.53521" lon="3.52328">
        <ele>38.4</ele>
        <time>2022-05-05T01:08:39Z</time>
      </trkpt>
      <trkpt lat="50.53531" lon="3.52332">
        <ele>38.5</ele>
        <time>2022-05-05T01:08:40Z</time>
      </trkpt>
      <trkpt lat="50.53541" lon="3.52336">
        <ele>38.5</ele>
        <time>2022-05-05T01:08:41Z</time>
      </trkpt>
      <trkpt lat="50.53551" lon="3.5235">
        <ele>38.7</ele>
        <time>2022-05-05T01:08:43Z</time>
      </trkpt>
      <trkpt lat="50.53561" lon="3.52362">
        <ele>38.9</ele>
        <time>2022-05-05T01:08:44Z</time>
      </trkpt>
      <trkpt lat="50.5357" lon="3.52374">
        <ele>39.2</ele>
        <time>2022-05-05T01:08:45Z</time>
      </trkpt>
      <trkpt lat="50.53578" lon="3.52382">
        <ele>39.4</ele>
        <time>2022-05-05T01:08:46Z</time>
      </trkpt>
      <trkpt lat="50.53584" lon="3.52386">
        <ele>39.6</ele>
        <time>2022-05-05T01:08:46Z</time>
      </trkpt>
      <trkpt lat="50.53601" lon="3.52412">
        <ele>40.5</ele>
        <time>2022-05-05T01:08:49Z</time>
      </trkpt>
      <trkpt lat="50.53606" lon="3.52423">
        <ele>40.5</ele>
        <time>2022-05-05T01:08:50Z</time>
      </trkpt>
      <trkpt lat="50.53613" lon="3.52433">
        <ele>40.5</ele>
        <time>2022-05-05T01:08:50Z</time>
      </trkpt>
      <trkpt lat="50.53618" lon="3.52445">
        <ele>40.5</ele>
        <time>2022-05-05T01:08:51Z</time>
      </trkpt>
      <trkpt lat="50.53621" lon="3.52457">
        <ele>40.6</ele>
        <time>2022-05-05T01:08:52Z</time>
      </trkpt>
      <trkpt lat="50.53623" lon="3.52468">
        <ele>40.7</ele>
        <time>2022-05-05T01:08:53Z</time>
      </trkpt>
      <trkpt lat="50.53626" lon="3.52476">
        <ele>40.8</ele>
        <time>2022-05-05T01:08:53Z</time>
      </trkpt>
      <trkpt lat="50.5363" lon="3.52483">
        <ele>40.9</ele>
        <time>2022-05-05T01:08:54Z</time>
      </trkpt>
      <trkpt lat="50.53636" lon="3.52483">
        <ele>41</ele>
        <time>2022-05-05T01:08:54Z</time>
      </trkpt>
      <trkpt lat="50.53646" lon="3.52483">
        <ele>41.2</ele>
        <time>2022-05-05T01:08:55Z</time>
      </trkpt>
      <trkpt lat="50.53656" lon="3.5248">
        <ele>41.4</ele>
        <time>2022-05-05T01:08:56Z</time>
      </trkpt>
      <trkpt lat="50.53665" lon="3.52474">
        <ele>41.6</ele>
        <time>2022-05-05T01:08:57Z</time>
      </trkpt>
      <trkpt lat="50.53673" lon="3.52467">
        <ele>41.9</ele>
        <time>2022-05-05T01:08:58Z</time>
      </trkpt>
      <trkpt lat="50.5368" lon="3.52459">
        <ele>42.1</ele>
        <time>2022-05-05T01:08:59Z</time>
      </trkpt>
      <trkpt lat="50.53686" lon="3.52447">
        <ele>42.2</ele>
        <time>2022-05-05T01:09:00Z</time>
      </trkpt>
      <trkpt lat="50.53692" lon="3.52432">
        <ele>42.2</ele>
        <time>2022-05-05T01:09:01Z</time>
      </trkpt>
      <trkpt lat="50.53699" lon="3.52416">
        <ele>42.1</ele>
        <time>2022-05-05T01:09:02Z</time>
      </trkpt>
      <trkpt lat="50.53707" lon="3.52398">
        <ele>42</ele>
        <time>2022-05-05T01:09:03Z</time>
      </trkpt>
      <trkpt lat="50.53716" lon="3.52381">
        <ele>41.8</ele>
        <time>2022-05-05T01:09:05Z</time>
      </trkpt>
      <trkpt lat="50.53724" lon="3.52364">
        <ele>41.7</ele>
        <time>2022-05-05T01:09:06Z</time>
      </trkpt>
      <trkpt lat="50.53731" lon="3.52348">
        <ele>41.6</ele>
        <time>2022-05-05T01:09:07Z</time>
      </trkpt>
      <trkpt lat="50.5374" lon="3.52335">
        <ele>41.6</ele>
        <time>2022-05-05T01:09:08Z</time>
      </trkpt>
      <trkpt lat="50.53749" lon="3.52322">
        <ele>41.6</ele>
        <time>2022-05-05T01:09:10Z</time>
      </trkpt>
      <trkpt lat="50.5376" lon="3.52308">
        <ele>41.5</ele>
        <time>2022-05-05T01:09:11Z</time>
      </trkpt>
      <trkpt lat="50.53774" lon="3.52302">
        <ele>41.5</ele>
        <time>2022-05-05T01:09:12Z</time>
      </trkpt>
      <trkpt lat="50.5379" lon="3.52295">
        <ele>41.5</ele>
        <time>2022-05-05T01:09:14Z</time>
      </trkpt>
      <trkpt lat="50.53808" lon="3.52291">
        <ele>41.5</ele>
        <time>2022-05-05T01:09:16Z</time>
      </trkpt>
      <trkpt lat="50.53825" lon="3.52286">
        <ele>41.5</ele>
        <time>2022-05-05T01:09:17Z</time>
      </trkpt>
      <trkpt lat="50.5384" lon="3.52281">
        <ele>41.5</ele>
        <time>2022-05-05T01:09:19Z</time>
      </trkpt>
      <trkpt lat="50.53854" lon="3.52274">
        <ele>41.5</ele>
        <time>2022-05-05T01:09:20Z</time>
      </trkpt>
      <trkpt lat="50.53868" lon="3.52269">
        <ele>41.5</ele>
        <time>2022-05-05T01:09:21Z</time>
      </trkpt>
      <trkpt lat="50.5388" lon="3.52258">
        <ele>41.6</ele>
        <time>2022-05-05T01:09:23Z</time>
      </trkpt>
      <trkpt lat="50.53889" lon="3.52246">
        <ele>41.6</ele>
        <time>2022-05-05T01:09:24Z</time>
      </trkpt>
      <trkpt lat="50.53899" lon="3.52233">
        <ele>41.6</ele>
        <time>2022-05-05T01:09:25Z</time>
      </trkpt>
      <trkpt lat="50.53908" lon="3.5222">
        <ele>41.7</ele>
        <time>2022-05-05T01:09:26Z</time>
      </trkpt>
      <trkpt lat="50.53917" lon="3.52207">
        <ele>41.9</ele>
        <time>2022-05-05T01:09:27Z</time>
      </trkpt>
      <trkpt lat="50.53926" lon="3.52195">
        <ele>42.1</ele>
        <time>2022-05-05T01:09:29Z</time>
      </trkpt>
      <trkpt lat="50.53936" lon="3.52183">
        <ele>42.4</ele>
        <time>2022-05-05T01:09:30Z</time>
      </trkpt>
      <trkpt lat="50.53945" lon="3.52173">
        <ele>42.7</ele>
        <time>2022-05-05T01:09:31Z</time>
      </trkpt>
      <trkpt lat="50.53953" lon="3.52163">
        <ele>43</ele>
        <time>2022-05-05T01:09:32Z</time>
      </trkpt>
      <trkpt lat="50.53962" lon="3.52156">
        <ele>43.3</ele>
        <time>2022-05-05T01:09:33Z</time>
      </trkpt>
      <trkpt lat="50.53969" lon="3.52141">
        <ele>43.6</ele>
        <time>2022-05-05T01:09:34Z</time>
      </trkpt>
      <trkpt lat="50.53977" lon="3.5213">
        <ele>43.9</ele>
        <time>2022-05-05T01:09:35Z</time>
      </trkpt>
      <trkpt lat="50.53984" lon="3.52119">
        <ele>44</ele>
        <time>2022-05-05T01:09:36Z</time>
      </trkpt>
      <trkpt lat="50.53993" lon="3.52109">
        <ele>44.1</ele>
        <time>2022-05-05T01:09:37Z</time>
      </trkpt>
      <trkpt lat="50.54004" lon="3.52099">
        <ele>44.1</ele>
        <time>2022-05-05T01:09:38Z</time>
      </trkpt>
      <trkpt lat="50.54013" lon="3.52087">
        <ele>44.3</ele>
        <time>2022-05-05T01:09:39Z</time>
      </trkpt>
      <trkpt lat="50.54023" lon="3.52076">
        <ele>44.5</ele>
        <time>2022-05-05T01:09:40Z</time>
      </trkpt>
      <trkpt lat="50.54031" lon="3.52061">
        <ele>44.7</ele>
        <time>2022-05-05T01:09:42Z</time>
      </trkpt>
      <trkpt lat="50.5404" lon="3.52048">
        <ele>44.8</ele>
        <time>2022-05-05T01:09:43Z</time>
      </trkpt>
      <trkpt lat="50.54049" lon="3.52037">
        <ele>44.8</ele>
        <time>2022-05-05T01:09:44Z</time>
      </trkpt>
      <trkpt lat="50.54058" lon="3.52025">
        <ele>45</ele>
        <time>2022-05-05T01:09:45Z</time>
      </trkpt>
      <trkpt lat="50.54067" lon="3.52016">
        <ele>45.2</ele>
        <time>2022-05-05T01:09:46Z</time>
      </trkpt>
      <trkpt lat="50.54076" lon="3.52006">
        <ele>45.4</ele>
        <time>2022-05-05T01:09:47Z</time>
      </trkpt>
      <trkpt lat="50.54084" lon="3.51994">
        <ele>45.5</ele>
        <time>2022-05-05T01:09:48Z</time>
      </trkpt>
      <trkpt lat="50.54092" lon="3.51983">
        <ele>45.5</ele>
        <time>2022-05-05T01:09:49Z</time>
      </trkpt>
      <trkpt lat="50.541" lon="3.5197">
        <ele>45.6</ele>
        <time>2022-05-05T01:09:50Z</time>
      </trkpt>
      <trkpt lat="50.54106" lon="3.51953">
        <ele>45.8</ele>
        <time>2022-05-05T01:09:51Z</time>
      </trkpt>
      <trkpt lat="50.54113" lon="3.51936">
        <ele>45.8</ele>
        <time>2022-05-05T01:09:53Z</time>
      </trkpt>
      <trkpt lat="50.5412" lon="3.51921">
        <ele>45.7</ele>
        <time>2022-05-05T01:09:54Z</time>
      </trkpt>
      <trkpt lat="50.54128" lon="3.51907">
        <ele>45.6</ele>
        <time>2022-05-05T01:09:55Z</time>
      </trkpt>
      <trkpt lat="50.54136" lon="3.51892">
        <ele>45.6</ele>
        <time>2022-05-05T01:09:56Z</time>
      </trkpt>
      <trkpt lat="50.54144" lon="3.51876">
        <ele>45.5</ele>
        <time>2022-05-05T01:09:57Z</time>
      </trkpt>
      <trkpt lat="50.54152" lon="3.51862">
        <ele>45.5</ele>
        <time>2022-05-05T01:09:58Z</time>
      </trkpt>
      <trkpt lat="50.54159" lon="3.51849">
        <ele>45.5</ele>
        <time>2022-05-05T01:09:59Z</time>
      </trkpt>
      <trkpt lat="50.54165" lon="3.51835">
        <ele>45.6</ele>
        <time>2022-05-05T01:10:01Z</time>
      </trkpt>
      <trkpt lat="50.54172" lon="3.5182">
        <ele>45.9</ele>
        <time>2022-05-05T01:10:02Z</time>
      </trkpt>
      <trkpt lat="50.54178" lon="3.51803">
        <ele>46.1</ele>
        <time>2022-05-05T01:10:03Z</time>
      </trkpt>
      <trkpt lat="50.54186" lon="3.51787">
        <ele>46.3</ele>
        <time>2022-05-05T01:10:04Z</time>
      </trkpt>
      <trkpt lat="50.54194" lon="3.5177">
        <ele>46.3</ele>
        <time>2022-05-05T01:10:05Z</time>
      </trkpt>
      <trkpt lat="50.54203" lon="3.51755">
        <ele>46.4</ele>
        <time>2022-05-05T01:10:07Z</time>
      </trkpt>
      <trkpt lat="50.5421" lon="3.51738">
        <ele>46.5</ele>
        <time>2022-05-05T01:10:08Z</time>
      </trkpt>
      <trkpt lat="50.54217" lon="3.51722">
        <ele>46.7</ele>
        <time>2022-05-05T01:10:09Z</time>
      </trkpt>
      <trkpt lat="50.54224" lon="3.51708">
        <ele>46.9</ele>
        <time>2022-05-05T01:10:10Z</time>
      </trkpt>
      <trkpt lat="50.54232" lon="3.51695">
        <ele>47.1</ele>
        <time>2022-05-05T01:10:11Z</time>
      </trkpt>
      <trkpt lat="50.54239" lon="3.51681">
        <ele>47.3</ele>
        <time>2022-05-05T01:10:12Z</time>
      </trkpt>
      <trkpt lat="50.54246" lon="3.51668">
        <ele>47.4</ele>
        <time>2022-05-05T01:10:13Z</time>
      </trkpt>
      <trkpt lat="50.54252" lon="3.51654">
        <ele>47.4</ele>
        <time>2022-05-05T01:10:14Z</time>
      </trkpt>
      <trkpt lat="50.54255" lon="3.51634">
        <ele>47.5</ele>
        <time>2022-05-05T01:10:15Z</time>
      </trkpt>
      <trkpt lat="50.54259" lon="3.51616">
        <ele>47.6</ele>
        <time>2022-05-05T01:10:17Z</time>
      </trkpt>
      <trkpt lat="50.54264" lon="3.51597">
        <ele>47.9</ele>
        <time>2022-05-05T01:10:18Z</time>
      </trkpt>
      <trkpt lat="50.54268" lon="3.5158">
        <ele>48.1</ele>
        <time>2022-05-05T01:10:19Z</time>
      </trkpt>
      <trkpt lat="50.54273" lon="3.5156">
        <ele>48.3</ele>
        <time>2022-05-05T01:10:20Z</time>
      </trkpt>
      <trkpt lat="50.54278" lon="3.51542">
        <ele>48.3</ele>
        <time>2022-05-05T01:10:21Z</time>
      </trkpt>
      <trkpt lat="50.54284" lon="3.51526">
        <ele>48.6</ele>
        <time>2022-05-05T01:10:23Z</time>
      </trkpt>
      <trkpt lat="50.5429" lon="3.5151">
        <ele>48.9</ele>
        <time>2022-05-05T01:10:24Z</time>
      </trkpt>
      <trkpt lat="50.54295" lon="3.51496">
        <ele>49.1</ele>
        <time>2022-05-05T01:10:25Z</time>
      </trkpt>
      <trkpt lat="50.54302" lon="3.5148">
        <ele>49.3</ele>
        <time>2022-05-05T01:10:26Z</time>
      </trkpt>
      <trkpt lat="50.54309" lon="3.51464">
        <ele>49.4</ele>
        <time>2022-05-05T01:10:27Z</time>
      </trkpt>
      <trkpt lat="50.54317" lon="3.51453">
        <ele>49.5</ele>
        <time>2022-05-05T01:10:28Z</time>
      </trkpt>
      <trkpt lat="50.54324" lon="3.51444">
        <ele>49.6</ele>
        <time>2022-05-05T01:10:29Z</time>
      </trkpt>
      <trkpt lat="50.54331" lon="3.51435">
        <ele>49.8</ele>
        <time>2022-05-05T01:10:30Z</time>
      </trkpt>
      <trkpt lat="50.54338" lon="3.51427">
        <ele>50</ele>
        <time>2022-05-05T01:10:31Z</time>
      </trkpt>
      <trkpt lat="50.54346" lon="3.51421">
        <ele>50.3</ele>
        <time>2022-05-05T01:10:31Z</time>
      </trkpt>
      <trkpt lat="50.54354" lon="3.51415">
        <ele>50.5</ele>
        <time>2022-05-05T01:10:32Z</time>
      </trkpt>
      <trkpt lat="50.54364" lon="3.51411">
        <ele>50.8</ele>
        <time>2022-05-05T01:10:33Z</time>
      </trkpt>
      <trkpt lat="50.54374" lon="3.51405">
        <ele>51.1</ele>
        <time>2022-05-05T01:10:34Z</time>
      </trkpt>
      <trkpt lat="50.54383" lon="3.51405">
        <ele>51.3</ele>
        <time>2022-05-05T01:10:35Z</time>
      </trkpt>
      <trkpt lat="50.54392" lon="3.51398">
        <ele>51.6</ele>
        <time>2022-05-05T01:10:36Z</time>
      </trkpt>
      <trkpt lat="50.54397" lon="3.51388">
        <ele>51.7</ele>
        <time>2022-05-05T01:10:37Z</time>
      </trkpt>
      <trkpt lat="50.54401" lon="3.51378">
        <ele>51.7</ele>
        <time>2022-05-05T01:10:38Z</time>
      </trkpt>
      <trkpt lat="50.54406" lon="3.51368">
        <ele>51.9</ele>
        <time>2022-05-05T01:10:38Z</time>
      </trkpt>
      <trkpt lat="50.54414" lon="3.51356">
        <ele>52.1</ele>
        <time>2022-05-05T01:10:39Z</time>
      </trkpt>
      <trkpt lat="50.54421" lon="3.51345">
        <ele>52.2</ele>
        <time>2022-05-05T01:10:40Z</time>
      </trkpt>
      <trkpt lat="50.54428" lon="3.51333">
        <ele>52.4</ele>
        <time>2022-05-05T01:10:41Z</time>
      </trkpt>
      <trkpt lat="50.54433" lon="3.51319">
        <ele>52.6</ele>
        <time>2022-05-05T01:10:42Z</time>
      </trkpt>
      <trkpt lat="50.54441" lon="3.5131">
        <ele>52.8</ele>
        <time>2022-05-05T01:10:43Z</time>
      </trkpt>
      <trkpt lat="50.54447" lon="3.513">
        <ele>53</ele>
        <time>2022-05-05T01:10:44Z</time>
      </trkpt>
      <trkpt lat="50.54452" lon="3.51296">
        <ele>53.2</ele>
        <time>2022-05-05T01:10:45Z</time>
      </trkpt>
      <trkpt lat="50.54458" lon="3.51288">
        <ele>53.4</ele>
        <time>2022-05-05T01:10:45Z</time>
      </trkpt>
      <trkpt lat="50.54466" lon="3.51284">
        <ele>53.5</ele>
        <time>2022-05-05T01:10:46Z</time>
      </trkpt>
      <trkpt lat="50.54473" lon="3.5128">
        <ele>53.5</ele>
        <time>2022-05-05T01:10:47Z</time>
      </trkpt>
      <trkpt lat="50.54487" lon="3.51279">
        <ele>53.6</ele>
        <time>2022-05-05T01:10:48Z</time>
      </trkpt>
      <trkpt lat="50.54499" lon="3.51277">
        <ele>53.7</ele>
        <time>2022-05-05T01:10:49Z</time>
      </trkpt>
      <trkpt lat="50.5451" lon="3.51274">
        <ele>54</ele>
        <time>2022-05-05T01:10:50Z</time>
      </trkpt>
      <trkpt lat="50.5452" lon="3.51273">
        <ele>54.2</ele>
        <time>2022-05-05T01:10:51Z</time>
      </trkpt>
      <trkpt lat="50.54528" lon="3.51267">
        <ele>54.3</ele>
        <time>2022-05-05T01:10:52Z</time>
      </trkpt>
      <trkpt lat="50.54533" lon="3.5126">
        <ele>54.4</ele>
        <time>2022-05-05T01:10:53Z</time>
      </trkpt>
      <trkpt lat="50.54539" lon="3.51247">
        <ele>54.5</ele>
        <time>2022-05-05T01:10:54Z</time>
      </trkpt>
      <trkpt lat="50.54545" lon="3.51232">
        <ele>54.6</ele>
        <time>2022-05-05T01:10:55Z</time>
      </trkpt>
      <trkpt lat="50.54551" lon="3.51217">
        <ele>54.8</ele>
        <time>2022-05-05T01:10:56Z</time>
      </trkpt>
      <trkpt lat="50.54555" lon="3.51202">
        <ele>55</ele>
        <time>2022-05-05T01:10:57Z</time>
      </trkpt>
      <trkpt lat="50.54558" lon="3.51184">
        <ele>55.2</ele>
        <time>2022-05-05T01:10:58Z</time>
      </trkpt>
      <trkpt lat="50.54563" lon="3.51168">
        <ele>55.3</ele>
        <time>2022-05-05T01:10:59Z</time>
      </trkpt>
      <trkpt lat="50.54569" lon="3.5115">
        <ele>55.5</ele>
        <time>2022-05-05T01:11:00Z</time>
      </trkpt>
      <trkpt lat="50.54573" lon="3.51133">
        <ele>55.7</ele>
        <time>2022-05-05T01:11:01Z</time>
      </trkpt>
      <trkpt lat="50.54579" lon="3.51116">
        <ele>55.8</ele>
        <time>2022-05-05T01:11:03Z</time>
      </trkpt>
      <trkpt lat="50.54583" lon="3.51101">
        <ele>56</ele>
        <time>2022-05-05T01:11:04Z</time>
      </trkpt>
      <trkpt lat="50.54586" lon="3.51085">
        <ele>56.1</ele>
        <time>2022-05-05T01:11:05Z</time>
      </trkpt>
      <trkpt lat="50.54588" lon="3.5107">
        <ele>55.9</ele>
        <time>2022-05-05T01:11:06Z</time>
      </trkpt>
      <trkpt lat="50.54592" lon="3.51055">
        <ele>55.8</ele>
        <time>2022-05-05T01:11:07Z</time>
      </trkpt>
      <trkpt lat="50.54597" lon="3.51043">
        <ele>55.8</ele>
        <time>2022-05-05T01:11:07Z</time>
      </trkpt>
      <trkpt lat="50.54603" lon="3.51031">
        <ele>55.8</ele>
        <time>2022-05-05T01:11:08Z</time>
      </trkpt>
      <trkpt lat="50.54609" lon="3.51019">
        <ele>55.7</ele>
        <time>2022-05-05T01:11:09Z</time>
      </trkpt>
      <trkpt lat="50.54615" lon="3.51008">
        <ele>55.6</ele>
        <time>2022-05-05T01:11:10Z</time>
      </trkpt>
      <trkpt lat="50.5462" lon="3.50995">
        <ele>55.6</ele>
        <time>2022-05-05T01:11:11Z</time>
      </trkpt>
      <trkpt lat="50.54623" lon="3.50982">
        <ele>55.7</ele>
        <time>2022-05-05T01:11:12Z</time>
      </trkpt>
      <trkpt lat="50.54628" lon="3.50969">
        <ele>55.7</ele>
        <time>2022-05-05T01:11:13Z</time>
      </trkpt>
      <trkpt lat="50.54633" lon="3.50955">
        <ele>55.6</ele>
        <time>2022-05-05T01:11:14Z</time>
      </trkpt>
      <trkpt lat="50.54638" lon="3.50943">
        <ele>55.6</ele>
        <time>2022-05-05T01:11:15Z</time>
      </trkpt>
      <trkpt lat="50.54646" lon="3.50934">
        <ele>55.5</ele>
        <time>2022-05-05T01:11:16Z</time>
      </trkpt>
      <trkpt lat="50.54651" lon="3.5092">
        <ele>55.3</ele>
        <time>2022-05-05T01:11:17Z</time>
      </trkpt>
      <trkpt lat="50.54655" lon="3.5091">
        <ele>55.1</ele>
        <time>2022-05-05T01:11:17Z</time>
      </trkpt>
      <trkpt lat="50.54657" lon="3.50898">
        <ele>54.9</ele>
        <time>2022-05-05T01:11:18Z</time>
      </trkpt>
      <trkpt lat="50.54658" lon="3.50887">
        <ele>54.7</ele>
        <time>2022-05-05T01:11:19Z</time>
      </trkpt>
      <trkpt lat="50.54657" lon="3.50881">
        <ele>54.6</ele>
        <time>2022-05-05T01:11:19Z</time>
      </trkpt>
      <trkpt lat="50.54656" lon="3.50875">
        <ele>54.6</ele>
        <time>2022-05-05T01:11:19Z</time>
      </trkpt>
      <trkpt lat="50.54657" lon="3.50869">
        <ele>54.6</ele>
        <time>2022-05-05T01:11:20Z</time>
      </trkpt>
      <trkpt lat="50.54658" lon="3.50864">
        <ele>52.3</ele>
        <time>2022-05-05T01:11:20Z</time>
      </trkpt>
      <trkpt lat="50.54658" lon="3.50854">
        <ele>52.3</ele>
        <time>2022-05-05T01:11:21Z</time>
      </trkpt>
      <trkpt lat="50.54659" lon="3.50844">
        <ele>52.2</ele>
        <time>2022-05-05T01:11:21Z</time>
      </trkpt>
      <trkpt lat="50.54664" lon="3.50846">
        <ele>52</ele>
        <time>2022-05-05T01:11:22Z</time>
      </trkpt>
      <trkpt lat="50.54668" lon="3.50848">
        <ele>51.8</ele>
        <time>2022-05-05T01:11:22Z</time>
      </trkpt>
      <trkpt lat="50.54674" lon="3.50857">
        <ele>54.5</ele>
        <time>2022-05-05T01:11:23Z</time>
      </trkpt>
      <trkpt lat="50.54682" lon="3.50863">
        <ele>54.4</ele>
        <time>2022-05-05T01:11:24Z</time>
      </trkpt>
      <trkpt lat="50.54691" lon="3.5087">
        <ele>54.2</ele>
        <time>2022-05-05T01:11:25Z</time>
      </trkpt>
      <trkpt lat="50.54702" lon="3.50878">
        <ele>54</ele>
        <time>2022-05-05T01:11:26Z</time>
      </trkpt>
      <trkpt lat="50.54713" lon="3.50888">
        <ele>53.7</ele>
        <time>2022-05-05T01:11:27Z</time>
      </trkpt>
      <trkpt lat="50.54724" lon="3.50897">
        <ele>53.4</ele>
        <time>2022-05-05T01:11:28Z</time>
      </trkpt>
      <trkpt lat="50.54735" lon="3.50906">
        <ele>53.2</ele>
        <time>2022-05-05T01:11:30Z</time>
      </trkpt>
      <trkpt lat="50.54746" lon="3.50916">
        <ele>53</ele>
        <time>2022-05-05T01:11:31Z</time>
      </trkpt>
      <trkpt lat="50.54756" lon="3.50926">
        <ele>52.9</ele>
        <time>2022-05-05T01:11:32Z</time>
      </trkpt>
      <trkpt lat="50.54766" lon="3.50934">
        <ele>52.7</ele>
        <time>2022-05-05T01:11:33Z</time>
      </trkpt>
      <trkpt lat="50.54775" lon="3.50943">
        <ele>52.5</ele>
        <time>2022-05-05T01:11:34Z</time>
      </trkpt>
      <trkpt lat="50.54785" lon="3.50952">
        <ele>52.5</ele>
        <time>2022-05-05T01:11:35Z</time>
      </trkpt>
      <trkpt lat="50.54795" lon="3.50961">
        <ele>52.4</ele>
        <time>2022-05-05T01:11:36Z</time>
      </trkpt>
      <trkpt lat="50.54806" lon="3.50969">
        <ele>52.2</ele>
        <time>2022-05-05T01:11:37Z</time>
      </trkpt>
      <trkpt lat="50.54816" lon="3.50977">
        <ele>52</ele>
        <time>2022-05-05T01:11:38Z</time>
      </trkpt>
      <trkpt lat="50.54828" lon="3.50987">
        <ele>51.5</ele>
        <time>2022-05-05T01:11:40Z</time>
      </trkpt>
      <trkpt lat="50.5484" lon="3.50998">
        <ele>51</ele>
        <time>2022-05-05T01:11:41Z</time>
      </trkpt>
      <trkpt lat="50.54853" lon="3.51009">
        <ele>50.3</ele>
        <time>2022-05-05T01:11:42Z</time>
      </trkpt>
      <trkpt lat="50.54866" lon="3.5102">
        <ele>49.8</ele>
        <time>2022-05-05T01:11:44Z</time>
      </trkpt>
      <trkpt lat="50.54879" lon="3.51031">
        <ele>49.3</ele>
        <time>2022-05-05T01:11:45Z</time>
      </trkpt>
      <trkpt lat="50.54893" lon="3.51042">
        <ele>48.8</ele>
        <time>2022-05-05T01:11:47Z</time>
      </trkpt>
      <trkpt lat="50.54907" lon="3.51053">
        <ele>48.3</ele>
        <time>2022-05-05T01:11:48Z</time>
      </trkpt>
      <trkpt lat="50.54921" lon="3.51066">
        <ele>48</ele>
        <time>2022-05-05T01:11:50Z</time>
      </trkpt>
      <trkpt lat="50.54936" lon="3.51077">
        <ele>47.9</ele>
        <time>2022-05-05T01:11:51Z</time>
      </trkpt>
      <trkpt lat="50.54951" lon="3.51091">
        <ele>48</ele>
        <time>2022-05-05T01:11:53Z</time>
      </trkpt>
      <trkpt lat="50.54966" lon="3.51105">
        <ele>48.3</ele>
        <time>2022-05-05T01:11:55Z</time>
      </trkpt>
      <trkpt lat="50.54981" lon="3.51116">
        <ele>48.6</ele>
        <time>2022-05-05T01:11:56Z</time>
      </trkpt>
      <trkpt lat="50.54995" lon="3.5113">
        <ele>49.1</ele>
        <time>2022-05-05T01:11:58Z</time>
      </trkpt>
      <trkpt lat="50.5501" lon="3.51145">
        <ele>49.7</ele>
        <time>2022-05-05T01:11:59Z</time>
      </trkpt>
      <trkpt lat="50.55024" lon="3.51161">
        <ele>50.4</ele>
        <time>2022-05-05T01:12:01Z</time>
      </trkpt>
      <trkpt lat="50.5504" lon="3.51174">
        <ele>50.8</ele>
        <time>2022-05-05T01:12:03Z</time>
      </trkpt>
      <trkpt lat="50.55056" lon="3.51185">
        <ele>51.2</ele>
        <time>2022-05-05T01:12:04Z</time>
      </trkpt>
      <trkpt lat="50.5507" lon="3.51201">
        <ele>51.7</ele>
        <time>2022-05-05T01:12:06Z</time>
      </trkpt>
      <trkpt lat="50.55085" lon="3.51214">
        <ele>52.2</ele>
        <time>2022-05-05T01:12:08Z</time>
      </trkpt>
      <trkpt lat="50.55101" lon="3.51224">
        <ele>52.7</ele>
        <time>2022-05-05T01:12:09Z</time>
      </trkpt>
      <trkpt lat="50.55116" lon="3.51236">
        <ele>53.2</ele>
        <time>2022-05-05T01:12:11Z</time>
      </trkpt>
      <trkpt lat="50.55131" lon="3.51248">
        <ele>53.9</ele>
        <time>2022-05-05T01:12:13Z</time>
      </trkpt>
      <trkpt lat="50.55147" lon="3.51259">
        <ele>54.5</ele>
        <time>2022-05-05T01:12:14Z</time>
      </trkpt>
      <trkpt lat="50.55161" lon="3.51271">
        <ele>55</ele>
        <time>2022-05-05T01:12:16Z</time>
      </trkpt>
      <trkpt lat="50.55175" lon="3.51283">
        <ele>55.4</ele>
        <time>2022-05-05T01:12:17Z</time>
      </trkpt>
      <trkpt lat="50.55191" lon="3.51297">
        <ele>55.9</ele>
        <time>2022-05-05T01:12:19Z</time>
      </trkpt>
      <trkpt lat="50.55204" lon="3.5131">
        <ele>56.4</ele>
        <time>2022-05-05T01:12:21Z</time>
      </trkpt>
      <trkpt lat="50.55218" lon="3.51323">
        <ele>56.8</ele>
        <time>2022-05-05T01:12:22Z</time>
      </trkpt>
      <trkpt lat="50.55231" lon="3.51334">
        <ele>57</ele>
        <time>2022-05-05T01:12:23Z</time>
      </trkpt>
      <trkpt lat="50.55245" lon="3.51346">
        <ele>55</ele>
        <time>2022-05-05T01:12:25Z</time>
      </trkpt>
      <trkpt lat="50.55259" lon="3.51358">
        <ele>53.5</ele>
        <time>2022-05-05T01:12:26Z</time>
      </trkpt>
      <trkpt lat="50.55272" lon="3.51374">
        <ele>52.2</ele>
        <time>2022-05-05T01:12:28Z</time>
      </trkpt>
      <trkpt lat="50.55283" lon="3.51391">
        <ele>51.1</ele>
        <time>2022-05-05T01:12:30Z</time>
      </trkpt>
      <trkpt lat="50.55299" lon="3.51399">
        <ele>50.2</ele>
        <time>2022-05-05T01:12:31Z</time>
      </trkpt>
      <trkpt lat="50.55312" lon="3.5141">
        <ele>49.4</ele>
        <time>2022-05-05T01:12:33Z</time>
      </trkpt>
      <trkpt lat="50.55325" lon="3.51421">
        <ele>48.9</ele>
        <time>2022-05-05T01:12:34Z</time>
      </trkpt>
      <trkpt lat="50.55337" lon="3.51429">
        <ele>48.3</ele>
        <time>2022-05-05T01:12:35Z</time>
      </trkpt>
      <trkpt lat="50.5535" lon="3.51433">
        <ele>45.4</ele>
        <time>2022-05-05T01:12:36Z</time>
      </trkpt>
      <trkpt lat="50.55365" lon="3.51434">
        <ele>44.4</ele>
        <time>2022-05-05T01:12:38Z</time>
      </trkpt>
      <trkpt lat="50.55379" lon="3.51432">
        <ele>43.7</ele>
        <time>2022-05-05T01:12:39Z</time>
      </trkpt>
      <trkpt lat="50.55394" lon="3.5143">
        <ele>43.1</ele>
        <time>2022-05-05T01:12:41Z</time>
      </trkpt>
      <trkpt lat="50.55408" lon="3.51426">
        <ele>42.6</ele>
        <time>2022-05-05T01:12:42Z</time>
      </trkpt>
      <trkpt lat="50.5542" lon="3.51421">
        <ele>42.5</ele>
        <time>2022-05-05T01:12:43Z</time>
      </trkpt>
      <trkpt lat="50.55433" lon="3.51415">
        <ele>42.5</ele>
        <time>2022-05-05T01:12:45Z</time>
      </trkpt>
      <trkpt lat="50.55446" lon="3.51406">
        <ele>55.8</ele>
        <time>2022-05-05T01:12:46Z</time>
      </trkpt>
      <trkpt lat="50.55458" lon="3.51389">
        <ele>57</ele>
        <time>2022-05-05T01:12:47Z</time>
      </trkpt>
      <trkpt lat="50.55467" lon="3.51366">
        <ele>57.1</ele>
        <time>2022-05-05T01:12:49Z</time>
      </trkpt>
      <trkpt lat="50.55479" lon="3.51353">
        <ele>56.9</ele>
        <time>2022-05-05T01:12:50Z</time>
      </trkpt>
      <trkpt lat="50.55489" lon="3.51341">
        <ele>56.8</ele>
        <time>2022-05-05T01:12:52Z</time>
      </trkpt>
      <trkpt lat="50.55498" lon="3.5133">
        <ele>56.9</ele>
        <time>2022-05-05T01:12:53Z</time>
      </trkpt>
      <trkpt lat="50.55508" lon="3.51324">
        <ele>57.1</ele>
        <time>2022-05-05T01:12:54Z</time>
      </trkpt>
      <trkpt lat="50.55517" lon="3.51318">
        <ele>57.2</ele>
        <time>2022-05-05T01:12:55Z</time>
      </trkpt>
      <trkpt lat="50.55523" lon="3.51311">
        <ele>57.3</ele>
        <time>2022-05-05T01:12:55Z</time>
      </trkpt>
      <trkpt lat="50.55528" lon="3.51305">
        <ele>57.4</ele>
        <time>2022-05-05T01:12:56Z</time>
      </trkpt>
      <trkpt lat="50.55534" lon="3.51299">
        <ele>57.4</ele>
        <time>2022-05-05T01:12:57Z</time>
      </trkpt>
      <trkpt lat="50.55539" lon="3.51298">
        <ele>57.5</ele>
        <time>2022-05-05T01:12:57Z</time>
      </trkpt>
      <trkpt lat="50.55546" lon="3.51292">
        <ele>57.5</ele>
        <time>2022-05-05T01:12:58Z</time>
      </trkpt>
      <trkpt lat="50.55553" lon="3.51282">
        <ele>57.5</ele>
        <time>2022-05-05T01:12:59Z</time>
      </trkpt>
      <trkpt lat="50.5556" lon="3.51271">
        <ele>57.5</ele>
        <time>2022-05-05T01:13:00Z</time>
      </trkpt>
      <trkpt lat="50.55569" lon="3.51262">
        <ele>57.4</ele>
        <time>2022-05-05T01:13:01Z</time>
      </trkpt>
      <trkpt lat="50.55579" lon="3.51254">
        <ele>57.3</ele>
        <time>2022-05-05T01:13:02Z</time>
      </trkpt>
      <trkpt lat="50.55592" lon="3.51249">
        <ele>57.1</ele>
        <time>2022-05-05T01:13:03Z</time>
      </trkpt>
      <trkpt lat="50.55605" lon="3.51242">
        <ele>56.9</ele>
        <time>2022-05-05T01:13:04Z</time>
      </trkpt>
      <trkpt lat="50.55619" lon="3.51237">
        <ele>56.9</ele>
        <time>2022-05-05T01:13:06Z</time>
      </trkpt>
      <trkpt lat="50.55633" lon="3.51233">
        <ele>57.1</ele>
        <time>2022-05-05T01:13:07Z</time>
      </trkpt>
      <trkpt lat="50.55646" lon="3.5123">
        <ele>57.1</ele>
        <time>2022-05-05T01:13:08Z</time>
      </trkpt>
      <trkpt lat="50.55658" lon="3.51226">
        <ele>57</ele>
        <time>2022-05-05T01:13:10Z</time>
      </trkpt>
      <trkpt lat="50.55668" lon="3.5122">
        <ele>56.7</ele>
        <time>2022-05-05T01:13:11Z</time>
      </trkpt>
      <trkpt lat="50.55681" lon="3.51218">
        <ele>56.2</ele>
        <time>2022-05-05T01:13:12Z</time>
      </trkpt>
      <trkpt lat="50.55694" lon="3.51215">
        <ele>55.2</ele>
        <time>2022-05-05T01:13:13Z</time>
      </trkpt>
      <trkpt lat="50.55706" lon="3.5121">
        <ele>53.9</ele>
        <time>2022-05-05T01:13:14Z</time>
      </trkpt>
      <trkpt lat="50.55718" lon="3.51213">
        <ele>53.3</ele>
        <time>2022-05-05T01:13:15Z</time>
      </trkpt>
      <trkpt lat="50.55728" lon="3.51211">
        <ele>53.2</ele>
        <time>2022-05-05T01:13:16Z</time>
      </trkpt>
      <trkpt lat="50.55737" lon="3.51209">
        <ele>53.6</ele>
        <time>2022-05-05T01:13:17Z</time>
      </trkpt>
      <trkpt lat="50.55744" lon="3.51209">
        <ele>54.3</ele>
        <time>2022-05-05T01:13:18Z</time>
      </trkpt>
      <trkpt lat="50.55751" lon="3.51208">
        <ele>55.1</ele>
        <time>2022-05-05T01:13:19Z</time>
      </trkpt>
      <trkpt lat="50.55757" lon="3.51207">
        <ele>56</ele>
        <time>2022-05-05T01:13:19Z</time>
      </trkpt>
      <trkpt lat="50.55761" lon="3.51212">
        <ele>56.5</ele>
        <time>2022-05-05T01:13:20Z</time>
      </trkpt>
      <trkpt lat="50.55759" lon="3.51221">
        <ele>56.8</ele>
        <time>2022-05-05T01:13:20Z</time>
      </trkpt>
      <trkpt lat="50.55757" lon="3.51234">
        <ele>56.9</ele>
        <time>2022-05-05T01:13:21Z</time>
      </trkpt>
      <trkpt lat="50.55755" lon="3.51247">
        <ele>57.3</ele>
        <time>2022-05-05T01:13:22Z</time>
      </trkpt>
      <trkpt lat="50.55752" lon="3.51264">
        <ele>57.9</ele>
        <time>2022-05-05T01:13:23Z</time>
      </trkpt>
      <trkpt lat="50.55752" lon="3.51283">
        <ele>58.4</ele>
        <time>2022-05-05T01:13:24Z</time>
      </trkpt>
      <trkpt lat="50.5575" lon="3.51302">
        <ele>58.8</ele>
        <time>2022-05-05T01:13:25Z</time>
      </trkpt>
      <trkpt lat="50.55749" lon="3.5132">
        <ele>59.1</ele>
        <time>2022-05-05T01:13:26Z</time>
      </trkpt>
      <trkpt lat="50.55748" lon="3.5134">
        <ele>59.2</ele>
        <time>2022-05-05T01:13:27Z</time>
      </trkpt>
      <trkpt lat="50.55748" lon="3.51359">
        <ele>59.2</ele>
        <time>2022-05-05T01:13:29Z</time>
      </trkpt>
      <trkpt lat="50.55748" lon="3.51378">
        <ele>59.2</ele>
        <time>2022-05-05T01:13:30Z</time>
      </trkpt>
      <trkpt lat="50.55748" lon="3.514">
        <ele>59.2</ele>
        <time>2022-05-05T01:13:31Z</time>
      </trkpt>
      <trkpt lat="50.55748" lon="3.5142">
        <ele>59.2</ele>
        <time>2022-05-05T01:13:32Z</time>
      </trkpt>
      <trkpt lat="50.55746" lon="3.51439">
        <ele>59.2</ele>
        <time>2022-05-05T01:13:33Z</time>
      </trkpt>
      <trkpt lat="50.55748" lon="3.51458">
        <ele>59.1</ele>
        <time>2022-05-05T01:13:35Z</time>
      </trkpt>
      <trkpt lat="50.55749" lon="3.51478">
        <ele>59.3</ele>
        <time>2022-05-05T01:13:36Z</time>
      </trkpt>
      <trkpt lat="50.5575" lon="3.51497">
        <ele>59.6</ele>
        <time>2022-05-05T01:13:37Z</time>
      </trkpt>
      <trkpt lat="50.55751" lon="3.51515">
        <ele>59.9</ele>
        <time>2022-05-05T01:13:38Z</time>
      </trkpt>
      <trkpt lat="50.55749" lon="3.51536">
        <ele>59.9</ele>
        <time>2022-05-05T01:13:39Z</time>
      </trkpt>
      <trkpt lat="50.5575" lon="3.51554">
        <ele>59.7</ele>
        <time>2022-05-05T01:13:40Z</time>
      </trkpt>
      <trkpt lat="50.55748" lon="3.51576">
        <ele>59.6</ele>
        <time>2022-05-05T01:13:42Z</time>
      </trkpt>
      <trkpt lat="50.55748" lon="3.51599">
        <ele>59.5</ele>
        <time>2022-05-05T01:13:43Z</time>
      </trkpt>
      <trkpt lat="50.55745" lon="3.51619">
        <ele>59.4</ele>
        <time>2022-05-05T01:13:44Z</time>
      </trkpt>
      <trkpt lat="50.55746" lon="3.51641">
        <ele>59.3</ele>
        <time>2022-05-05T01:13:46Z</time>
      </trkpt>
      <trkpt lat="50.55744" lon="3.51663">
        <ele>59.2</ele>
        <time>2022-05-05T01:13:47Z</time>
      </trkpt>
      <trkpt lat="50.55742" lon="3.51688">
        <ele>59.1</ele>
        <time>2022-05-05T01:13:49Z</time>
      </trkpt>
      <trkpt lat="50.5574" lon="3.51713">
        <ele>59</ele>
        <time>2022-05-05T01:13:50Z</time>
      </trkpt>
      <trkpt lat="50.55738" lon="3.51738">
        <ele>58.9</ele>
        <time>2022-05-05T01:13:52Z</time>
      </trkpt>
      <trkpt lat="50.55737" lon="3.51763">
        <ele>58.8</ele>
        <time>2022-05-05T01:13:53Z</time>
      </trkpt>
      <trkpt lat="50.55736" lon="3.51787">
        <ele>58.7</ele>
        <time>2022-05-05T01:13:55Z</time>
      </trkpt>
      <trkpt lat="50.55734" lon="3.51812">
        <ele>58.6</ele>
        <time>2022-05-05T01:13:56Z</time>
      </trkpt>
      <trkpt lat="50.55731" lon="3.51837">
        <ele>58.3</ele>
        <time>2022-05-05T01:13:58Z</time>
      </trkpt>
      <trkpt lat="50.5573" lon="3.51861">
        <ele>58.1</ele>
        <time>2022-05-05T01:13:59Z</time>
      </trkpt>
      <trkpt lat="50.55728" lon="3.51885">
        <ele>58</ele>
        <time>2022-05-05T01:14:01Z</time>
      </trkpt>
      <trkpt lat="50.55726" lon="3.51909">
        <ele>57.8</ele>
        <time>2022-05-05T01:14:02Z</time>
      </trkpt>
      <trkpt lat="50.55725" lon="3.51934">
        <ele>57.7</ele>
        <time>2022-05-05T01:14:04Z</time>
      </trkpt>
      <trkpt lat="50.55726" lon="3.51957">
        <ele>57.6</ele>
        <time>2022-05-05T01:14:05Z</time>
      </trkpt>
      <trkpt lat="50.55726" lon="3.51979">
        <ele>57.5</ele>
        <time>2022-05-05T01:14:06Z</time>
      </trkpt>
      <trkpt lat="50.55725" lon="3.52">
        <ele>57.2</ele>
        <time>2022-05-05T01:14:08Z</time>
      </trkpt>
      <trkpt lat="50.55723" lon="3.52023">
        <ele>57</ele>
        <time>2022-05-05T01:14:09Z</time>
      </trkpt>
      <trkpt lat="50.55723" lon="3.52047">
        <ele>56.8</ele>
        <time>2022-05-05T01:14:10Z</time>
      </trkpt>
      <trkpt lat="50.55724" lon="3.52072">
        <ele>56.7</ele>
        <time>2022-05-05T01:14:12Z</time>
      </trkpt>
      <trkpt lat="50.55722" lon="3.52094">
        <ele>56.6</ele>
        <time>2022-05-05T01:14:13Z</time>
      </trkpt>
      <trkpt lat="50.55722" lon="3.52121">
        <ele>56.5</ele>
        <time>2022-05-05T01:14:15Z</time>
      </trkpt>
      <trkpt lat="50.55722" lon="3.52147">
        <ele>56.1</ele>
        <time>2022-05-05T01:14:16Z</time>
      </trkpt>
      <trkpt lat="50.55721" lon="3.52174">
        <ele>55.9</ele>
        <time>2022-05-05T01:14:18Z</time>
      </trkpt>
      <trkpt lat="50.5572" lon="3.52201">
        <ele>55.7</ele>
        <time>2022-05-05T01:14:20Z</time>
      </trkpt>
      <trkpt lat="50.55719" lon="3.5223">
        <ele>55.4</ele>
        <time>2022-05-05T01:14:21Z</time>
      </trkpt>
      <trkpt lat="50.55718" lon="3.52255">
        <ele>55</ele>
        <time>2022-05-05T01:14:23Z</time>
      </trkpt>
      <trkpt lat="50.55714" lon="3.52283">
        <ele>54.7</ele>
        <time>2022-05-05T01:14:25Z</time>
      </trkpt>
      <trkpt lat="50.55714" lon="3.52309">
        <ele>54.4</ele>
        <time>2022-05-05T01:14:26Z</time>
      </trkpt>
      <trkpt lat="50.55712" lon="3.52337">
        <ele>54</ele>
        <time>2022-05-05T01:14:28Z</time>
      </trkpt>
      <trkpt lat="50.55711" lon="3.52362">
        <ele>53.7</ele>
        <time>2022-05-05T01:14:30Z</time>
      </trkpt>
      <trkpt lat="50.5571" lon="3.52391">
        <ele>53.5</ele>
        <time>2022-05-05T01:14:31Z</time>
      </trkpt>
      <trkpt lat="50.55709" lon="3.52419">
        <ele>53.3</ele>
        <time>2022-05-05T01:14:33Z</time>
      </trkpt>
      <trkpt lat="50.55707" lon="3.52443">
        <ele>53.2</ele>
        <time>2022-05-05T01:14:34Z</time>
      </trkpt>
      <trkpt lat="50.55705" lon="3.52468">
        <ele>52.8</ele>
        <time>2022-05-05T01:14:36Z</time>
      </trkpt>
      <trkpt lat="50.55703" lon="3.52495">
        <ele>52.4</ele>
        <time>2022-05-05T01:14:38Z</time>
      </trkpt>
      <trkpt lat="50.55702" lon="3.52522">
        <ele>52.2</ele>
        <time>2022-05-05T01:14:39Z</time>
      </trkpt>
      <trkpt lat="50.55703" lon="3.52547">
        <ele>52</ele>
        <time>2022-05-05T01:14:41Z</time>
      </trkpt>
      <trkpt lat="50.55703" lon="3.52572">
        <ele>51.8</ele>
        <time>2022-05-05T01:14:42Z</time>
      </trkpt>
      <trkpt lat="50.55701" lon="3.52599">
        <ele>51.7</ele>
        <time>2022-05-05T01:14:44Z</time>
      </trkpt>
      <trkpt lat="50.55698" lon="3.52623">
        <ele>51.6</ele>
        <time>2022-05-05T01:14:45Z</time>
      </trkpt>
      <trkpt lat="50.55697" lon="3.52645">
        <ele>51.6</ele>
        <time>2022-05-05T01:14:47Z</time>
      </trkpt>
      <trkpt lat="50.55698" lon="3.52663">
        <ele>51.5</ele>
        <time>2022-05-05T01:14:48Z</time>
      </trkpt>
      <trkpt lat="50.557" lon="3.5268">
        <ele>51.5</ele>
        <time>2022-05-05T01:14:49Z</time>
      </trkpt>
      <trkpt lat="50.55704" lon="3.527">
        <ele>51.5</ele>
        <time>2022-05-05T01:14:50Z</time>
      </trkpt>
      <trkpt lat="50.55707" lon="3.52721">
        <ele>51.5</ele>
        <time>2022-05-05T01:14:51Z</time>
      </trkpt>
      <trkpt lat="50.55708" lon="3.52741">
        <ele>51.3</ele>
        <time>2022-05-05T01:14:53Z</time>
      </trkpt>
      <trkpt lat="50.55709" lon="3.5276">
        <ele>51.2</ele>
        <time>2022-05-05T01:14:54Z</time>
      </trkpt>
      <trkpt lat="50.55711" lon="3.5278">
        <ele>51.1</ele>
        <time>2022-05-05T01:14:55Z</time>
      </trkpt>
      <trkpt lat="50.55716" lon="3.52796">
        <ele>50.8</ele>
        <time>2022-05-05T01:14:56Z</time>
      </trkpt>
      <trkpt lat="50.5572" lon="3.52808">
        <ele>50.5</ele>
        <time>2022-05-05T01:14:57Z</time>
      </trkpt>
      <trkpt lat="50.55726" lon="3.52823">
        <ele>50.1</ele>
        <time>2022-05-05T01:14:58Z</time>
      </trkpt>
      <trkpt lat="50.5573" lon="3.52835">
        <ele>49.7</ele>
        <time>2022-05-05T01:14:59Z</time>
      </trkpt>
      <trkpt lat="50.55736" lon="3.52841">
        <ele>49.2</ele>
        <time>2022-05-05T01:15:00Z</time>
      </trkpt>
      <trkpt lat="50.55742" lon="3.52849">
        <ele>49</ele>
        <time>2022-05-05T01:15:00Z</time>
      </trkpt>
      <trkpt lat="50.55745" lon="3.52859">
        <ele>48.8</ele>
        <time>2022-05-05T01:15:01Z</time>
      </trkpt>
      <trkpt lat="50.55748" lon="3.52866">
        <ele>48.7</ele>
        <time>2022-05-05T01:15:01Z</time>
      </trkpt>
      <trkpt lat="50.55746" lon="3.52872">
        <ele>48.6</ele>
        <time>2022-05-05T01:15:02Z</time>
      </trkpt>
      <trkpt lat="50.5575" lon="3.52874">
        <ele>48.6</ele>
        <time>2022-05-05T01:15:02Z</time>
      </trkpt>
      <trkpt lat="50.55749" lon="3.52876">
        <ele>48.5</ele>
        <time>2022-05-05T01:15:02Z</time>
      </trkpt>
      <trkpt lat="50.55751" lon="3.52883">
        <ele>48.5</ele>
        <time>2022-05-05T01:15:03Z</time>
      </trkpt>
      <trkpt lat="50.55756" lon="3.52881">
        <ele>48.5</ele>
        <time>2022-05-05T01:15:03Z</time>
      </trkpt>
      <trkpt lat="50.55764" lon="3.52872">
        <ele>48.5</ele>
        <time>2022-05-05T01:15:04Z</time>
      </trkpt>
      <trkpt lat="50.55771" lon="3.5286">
        <ele>48.4</ele>
        <time>2022-05-05T01:15:05Z</time>
      </trkpt>
      <trkpt lat="50.5578" lon="3.52845">
        <ele>48.2</ele>
        <time>2022-05-05T01:15:06Z</time>
      </trkpt>
      <trkpt lat="50.55789" lon="3.5283">
        <ele>47.9</ele>
        <time>2022-05-05T01:15:08Z</time>
      </trkpt>
      <trkpt lat="50.55798" lon="3.52816">
        <ele>47.9</ele>
        <time>2022-05-05T01:15:09Z</time>
      </trkpt>
      <trkpt lat="50.55811" lon="3.52802">
        <ele>48.1</ele>
        <time>2022-05-05T01:15:10Z</time>
      </trkpt>
      <trkpt lat="50.55821" lon="3.52785">
        <ele>48.3</ele>
        <time>2022-05-05T01:15:12Z</time>
      </trkpt>
      <trkpt lat="50.55835" lon="3.52769">
        <ele>48.5</ele>
        <time>2022-05-05T01:15:13Z</time>
      </trkpt>
      <trkpt lat="50.55848" lon="3.52753">
        <ele>48.5</ele>
        <time>2022-05-05T01:15:15Z</time>
      </trkpt>
      <trkpt lat="50.55862" lon="3.52738">
        <ele>48.5</ele>
        <time>2022-05-05T01:15:17Z</time>
      </trkpt>
      <trkpt lat="50.55875" lon="3.52719">
        <ele>48.5</ele>
        <time>2022-05-05T01:15:18Z</time>
      </trkpt>
      <trkpt lat="50.55887" lon="3.52703">
        <ele>48.5</ele>
        <time>2022-05-05T01:15:20Z</time>
      </trkpt>
      <trkpt lat="50.559" lon="3.52688">
        <ele>48.5</ele>
        <time>2022-05-05T01:15:21Z</time>
      </trkpt>
      <trkpt lat="50.55913" lon="3.52675">
        <ele>48.5</ele>
        <time>2022-05-05T01:15:23Z</time>
      </trkpt>
      <trkpt lat="50.55927" lon="3.52663">
        <ele>48.5</ele>
        <time>2022-05-05T01:15:24Z</time>
      </trkpt>
      <trkpt lat="50.55942" lon="3.52648">
        <ele>48.5</ele>
        <time>2022-05-05T01:15:26Z</time>
      </trkpt>
      <trkpt lat="50.55958" lon="3.52635">
        <ele>48.5</ele>
        <time>2022-05-05T01:15:28Z</time>
      </trkpt>
      <trkpt lat="50.55971" lon="3.52618">
        <ele>48.7</ele>
        <time>2022-05-05T01:15:29Z</time>
      </trkpt>
      <trkpt lat="50.55984" lon="3.52602">
        <ele>48.7</ele>
        <time>2022-05-05T01:15:31Z</time>
      </trkpt>
      <trkpt lat="50.55997" lon="3.52585">
        <ele>48.9</ele>
        <time>2022-05-05T01:15:33Z</time>
      </trkpt>
      <trkpt lat="50.56012" lon="3.5257">
        <ele>49.1</ele>
        <time>2022-05-05T01:15:34Z</time>
      </trkpt>
      <trkpt lat="50.56028" lon="3.52556">
        <ele>49.4</ele>
        <time>2022-05-05T01:15:36Z</time>
      </trkpt>
      <trkpt lat="50.56043" lon="3.52541">
        <ele>49.8</ele>
        <time>2022-05-05T01:15:38Z</time>
      </trkpt>
      <trkpt lat="50.56058" lon="3.52525">
        <ele>50</ele>
        <time>2022-05-05T01:15:39Z</time>
      </trkpt>
      <trkpt lat="50.56072" lon="3.52512">
        <ele>50.2</ele>
        <time>2022-05-05T01:15:41Z</time>
      </trkpt>
      <trkpt lat="50.56086" lon="3.52498">
        <ele>50.4</ele>
        <time>2022-05-05T01:15:42Z</time>
      </trkpt>
      <trkpt lat="50.56097" lon="3.52484">
        <ele>50.5</ele>
        <time>2022-05-05T01:15:44Z</time>
      </trkpt>
      <trkpt lat="50.56109" lon="3.52471">
        <ele>50.8</ele>
        <time>2022-05-05T01:15:45Z</time>
      </trkpt>
      <trkpt lat="50.5612" lon="3.5246">
        <ele>51</ele>
        <time>2022-05-05T01:15:46Z</time>
      </trkpt>
      <trkpt lat="50.56132" lon="3.52449">
        <ele>51.2</ele>
        <time>2022-05-05T01:15:48Z</time>
      </trkpt>
      <trkpt lat="50.56145" lon="3.52437">
        <ele>51.3</ele>
        <time>2022-05-05T01:15:49Z</time>
      </trkpt>
      <trkpt lat="50.56158" lon="3.52426">
        <ele>51.5</ele>
        <time>2022-05-05T01:15:51Z</time>
      </trkpt>
      <trkpt lat="50.56171" lon="3.52414">
        <ele>51.8</ele>
        <time>2022-05-05T01:15:52Z</time>
      </trkpt>
      <trkpt lat="50.56184" lon="3.52403">
        <ele>52.1</ele>
        <time>2022-05-05T01:15:53Z</time>
      </trkpt>
      <trkpt lat="50.56197" lon="3.52396">
        <ele>52.5</ele>
        <time>2022-05-05T01:15:55Z</time>
      </trkpt>
      <trkpt lat="50.56209" lon="3.52395">
        <ele>52.9</ele>
        <time>2022-05-05T01:15:56Z</time>
      </trkpt>
      <trkpt lat="50.56219" lon="3.52394">
        <ele>53.1</ele>
        <time>2022-05-05T01:15:57Z</time>
      </trkpt>
      <trkpt lat="50.56228" lon="3.52391">
        <ele>53.3</ele>
        <time>2022-05-05T01:15:58Z</time>
      </trkpt>
      <trkpt lat="50.56235" lon="3.52387">
        <ele>53.5</ele>
        <time>2022-05-05T01:15:58Z</time>
      </trkpt>
      <trkpt lat="50.56243" lon="3.52389">
        <ele>53.7</ele>
        <time>2022-05-05T01:15:59Z</time>
      </trkpt>
      <trkpt lat="50.56251" lon="3.52384">
        <ele>53.9</ele>
        <time>2022-05-05T01:16:00Z</time>
      </trkpt>
      <trkpt lat="50.56258" lon="3.52387">
        <ele>54.1</ele>
        <time>2022-05-05T01:16:01Z</time>
      </trkpt>
      <trkpt lat="50.56264" lon="3.52395">
        <ele>54.2</ele>
        <time>2022-05-05T01:16:01Z</time>
      </trkpt>
      <trkpt lat="50.56268" lon="3.5241">
        <ele>54.4</ele>
        <time>2022-05-05T01:16:02Z</time>
      </trkpt>
      <trkpt lat="50.56273" lon="3.5242">
        <ele>54.6</ele>
        <time>2022-05-05T01:16:03Z</time>
      </trkpt>
      <trkpt lat="50.5628" lon="3.52431">
        <ele>54.9</ele>
        <time>2022-05-05T01:16:04Z</time>
      </trkpt>
      <trkpt lat="50.56286" lon="3.52442">
        <ele>55.1</ele>
        <time>2022-05-05T01:16:05Z</time>
      </trkpt>
      <trkpt lat="50.56292" lon="3.52451">
        <ele>55.2</ele>
        <time>2022-05-05T01:16:06Z</time>
      </trkpt>
      <trkpt lat="50.563" lon="3.52455">
        <ele>55.4</ele>
        <time>2022-05-05T01:16:07Z</time>
      </trkpt>
      <trkpt lat="50.56305" lon="3.52461">
        <ele>55.6</ele>
        <time>2022-05-05T01:16:07Z</time>
      </trkpt>
      <trkpt lat="50.56306" lon="3.52463">
        <ele>55.8</ele>
        <time>2022-05-05T01:16:07Z</time>
      </trkpt>
      <trkpt lat="50.5631" lon="3.52462">
        <ele>55.9</ele>
        <time>2022-05-05T01:16:08Z</time>
      </trkpt>
      <trkpt lat="50.56315" lon="3.52463">
        <ele>56.1</ele>
        <time>2022-05-05T01:16:08Z</time>
      </trkpt>
      <trkpt lat="50.56318" lon="3.52454">
        <ele>56.2</ele>
        <time>2022-05-05T01:16:09Z</time>
      </trkpt>
      <trkpt lat="50.56323" lon="3.52444">
        <ele>56.2</ele>
        <time>2022-05-05T01:16:10Z</time>
      </trkpt>
      <trkpt lat="50.56327" lon="3.52436">
        <ele>56.2</ele>
        <time>2022-05-05T01:16:10Z</time>
      </trkpt>
      <trkpt lat="50.56331" lon="3.52427">
        <ele>56.1</ele>
        <time>2022-05-05T01:16:11Z</time>
      </trkpt>
      <trkpt lat="50.56336" lon="3.52418">
        <ele>56</ele>
        <time>2022-05-05T01:16:12Z</time>
      </trkpt>
      <trkpt lat="50.56341" lon="3.52412">
        <ele>55.9</ele>
        <time>2022-05-05T01:16:12Z</time>
      </trkpt>
      <trkpt lat="50.56344" lon="3.52407">
        <ele>55.8</ele>
        <time>2022-05-05T01:16:13Z</time>
      </trkpt>
      <trkpt lat="50.56348" lon="3.52403">
        <ele>55.8</ele>
        <time>2022-05-05T01:16:13Z</time>
      </trkpt>
      <trkpt lat="50.56353" lon="3.52395">
        <ele>55.8</ele>
        <time>2022-05-05T01:16:14Z</time>
      </trkpt>
      <trkpt lat="50.56355" lon="3.5239">
        <ele>55.7</ele>
        <time>2022-05-05T01:16:14Z</time>
      </trkpt>
      <trkpt lat="50.56357" lon="3.52381">
        <ele>55.7</ele>
        <time>2022-05-05T01:16:15Z</time>
      </trkpt>
      <trkpt lat="50.5636" lon="3.52376">
        <ele>55.6</ele>
        <time>2022-05-05T01:16:15Z</time>
      </trkpt>
      <trkpt lat="50.56362" lon="3.52382">
        <ele>55.6</ele>
        <time>2022-05-05T01:16:15Z</time>
      </trkpt>
      <trkpt lat="50.56364" lon="3.52389">
        <ele>55.5</ele>
        <time>2022-05-05T01:16:16Z</time>
      </trkpt>
      <trkpt lat="50.56366" lon="3.52393">
        <ele>55.6</ele>
        <time>2022-05-05T01:16:16Z</time>
      </trkpt>
      <trkpt lat="50.56368" lon="3.52398">
        <ele>55.6</ele>
        <time>2022-05-05T01:16:17Z</time>
      </trkpt>
      <trkpt lat="50.5637" lon="3.52399">
        <ele>55.8</ele>
        <time>2022-05-05T01:16:17Z</time>
      </trkpt>
      <trkpt lat="50.56372" lon="3.524">
        <ele>55.9</ele>
        <time>2022-05-05T01:16:17Z</time>
      </trkpt>
      <trkpt lat="50.56375" lon="3.524">
        <ele>56</ele>
        <time>2022-05-05T01:16:17Z</time>
      </trkpt>
      <trkpt lat="50.5638" lon="3.52396">
        <ele>56</ele>
        <time>2022-05-05T01:16:18Z</time>
      </trkpt>
      <trkpt lat="50.56384" lon="3.52394">
        <ele>56.1</ele>
        <time>2022-05-05T01:16:18Z</time>
      </trkpt>
      <trkpt lat="50.56386" lon="3.52394">
        <ele>56.2</ele>
        <time>2022-05-05T01:16:18Z</time>
      </trkpt>
      <trkpt lat="50.56389" lon="3.52397">
        <ele>56.3</ele>
        <time>2022-05-05T01:16:19Z</time>
      </trkpt>
      <trkpt lat="50.56395" lon="3.52409">
        <ele>56.5</ele>
        <time>2022-05-05T01:16:20Z</time>
      </trkpt>
      <trkpt lat="50.56396" lon="3.52404">
        <ele>56.6</ele>
        <time>2022-05-05T01:16:20Z</time>
      </trkpt>
      <trkpt lat="50.56398" lon="3.52404">
        <ele>56.6</ele>
        <time>2022-05-05T01:16:20Z</time>
      </trkpt>
      <trkpt lat="50.564" lon="3.52405">
        <ele>56.6</ele>
        <time>2022-05-05T01:16:20Z</time>
      </trkpt>
      <trkpt lat="50.564" lon="3.52405">
        <ele>56.7</ele>
        <time>2022-05-05T01:16:20Z</time>
      </trkpt>
      <trkpt lat="50.56402" lon="3.52406">
        <ele>56.7</ele>
        <time>2022-05-05T01:16:20Z</time>
      </trkpt>
      <trkpt lat="50.56403" lon="3.52408">
        <ele>56.7</ele>
        <time>2022-05-05T01:16:21Z</time>
      </trkpt>
      <trkpt lat="50.56405" lon="3.5241">
        <ele>56.8</ele>
        <time>2022-05-05T01:16:21Z</time>
      </trkpt>
      <trkpt lat="50.56406" lon="3.5241">
        <ele>56.8</ele>
        <time>2022-05-05T01:16:21Z</time>
      </trkpt>
      <trkpt lat="50.56409" lon="3.52408">
        <ele>56.9</ele>
        <time>2022-05-05T01:16:21Z</time>
      </trkpt>
      <trkpt lat="50.56411" lon="3.52411">
        <ele>56.9</ele>
        <time>2022-05-05T01:16:22Z</time>
      </trkpt>
      <trkpt lat="50.56413" lon="3.52412">
        <ele>57</ele>
        <time>2022-05-05T01:16:22Z</time>
      </trkpt>
      <trkpt lat="50.56415" lon="3.5241">
        <ele>57.1</ele>
        <time>2022-05-05T01:16:22Z</time>
      </trkpt>
      <trkpt lat="50.56417" lon="3.52413">
        <ele>57.1</ele>
        <time>2022-05-05T01:16:22Z</time>
      </trkpt>
      <trkpt lat="50.56419" lon="3.52414">
        <ele>57.2</ele>
        <time>2022-05-05T01:16:22Z</time>
      </trkpt>
      <trkpt lat="50.56421" lon="3.52414">
        <ele>57.3</ele>
        <time>2022-05-05T01:16:23Z</time>
      </trkpt>
      <trkpt lat="50.56423" lon="3.52416">
        <ele>57.3</ele>
        <time>2022-05-05T01:16:23Z</time>
      </trkpt>
      <trkpt lat="50.56424" lon="3.52415">
        <ele>57.4</ele>
        <time>2022-05-05T01:16:23Z</time>
      </trkpt>
      <trkpt lat="50.56426" lon="3.52416">
        <ele>57.4</ele>
        <time>2022-05-05T01:16:23Z</time>
      </trkpt>
      <trkpt lat="50.56429" lon="3.52417">
        <ele>57.4</ele>
        <time>2022-05-05T01:16:23Z</time>
      </trkpt>
      <trkpt lat="50.56432" lon="3.52421">
        <ele>57.5</ele>
        <time>2022-05-05T01:16:24Z</time>
      </trkpt>
      <trkpt lat="50.56435" lon="3.52422">
        <ele>57.5</ele>
        <time>2022-05-05T01:16:24Z</time>
      </trkpt>
      <trkpt lat="50.56437" lon="3.52423">
        <ele>57.5</ele>
        <time>2022-05-05T01:16:24Z</time>
      </trkpt>
      <trkpt lat="50.5644" lon="3.52426">
        <ele>57.6</ele>
        <time>2022-05-05T01:16:25Z</time>
      </trkpt>
      <trkpt lat="50.56445" lon="3.52428">
        <ele>57.7</ele>
        <time>2022-05-05T01:16:25Z</time>
      </trkpt>
      <trkpt lat="50.56447" lon="3.52426">
        <ele>57.7</ele>
        <time>2022-05-05T01:16:25Z</time>
      </trkpt>
      <trkpt lat="50.56451" lon="3.52428">
        <ele>57.8</ele>
        <time>2022-05-05T01:16:26Z</time>
      </trkpt>
      <trkpt lat="50.56453" lon="3.52428">
        <ele>57.9</ele>
        <time>2022-05-05T01:16:26Z</time>
      </trkpt>
      <trkpt lat="50.56454" lon="3.52428">
        <ele>58</ele>
        <time>2022-05-05T01:16:26Z</time>
      </trkpt>
      <trkpt lat="50.56454" lon="3.52428">
        <ele>58</ele>
        <time>2022-05-05T01:16:26Z</time>
      </trkpt>
      <trkpt lat="50.56455" lon="3.52429">
        <ele>58</ele>
        <time>2022-05-05T01:16:26Z</time>
      </trkpt>
      <trkpt lat="50.56457" lon="3.52429">
        <ele>58.1</ele>
        <time>2022-05-05T01:16:26Z</time>
      </trkpt>
      <trkpt lat="50.56464" lon="3.5243">
        <ele>58.2</ele>
        <time>2022-05-05T01:16:27Z</time>
      </trkpt>
      <trkpt lat="50.56466" lon="3.52431">
        <ele>58.3</ele>
        <time>2022-05-05T01:16:27Z</time>
      </trkpt>
      <trkpt lat="50.56468" lon="3.52434">
        <ele>58.3</ele>
        <time>2022-05-05T01:16:27Z</time>
      </trkpt>
      <trkpt lat="50.56471" lon="3.52432">
        <ele>58.4</ele>
        <time>2022-05-05T01:16:28Z</time>
      </trkpt>
      <trkpt lat="50.56473" lon="3.52434">
        <ele>58.4</ele>
        <time>2022-05-05T01:16:28Z</time>
      </trkpt>
      <trkpt lat="50.56475" lon="3.52435">
        <ele>58.4</ele>
        <time>2022-05-05T01:16:28Z</time>
      </trkpt>
      <trkpt lat="50.56478" lon="3.52436">
        <ele>58.5</ele>
        <time>2022-05-05T01:16:28Z</time>
      </trkpt>
      <trkpt lat="50.56481" lon="3.52437">
        <ele>58.6</ele>
        <time>2022-05-05T01:16:29Z</time>
      </trkpt>
      <trkpt lat="50.56483" lon="3.52439">
        <ele>58.7</ele>
        <time>2022-05-05T01:16:29Z</time>
      </trkpt>
      <trkpt lat="50.56486" lon="3.5244">
        <ele>58.7</ele>
        <time>2022-05-05T01:16:29Z</time>
      </trkpt>
      <trkpt lat="50.56488" lon="3.5244">
        <ele>58.8</ele>
        <time>2022-05-05T01:16:29Z</time>
      </trkpt>
      <trkpt lat="50.5649" lon="3.52441">
        <ele>58.9</ele>
        <time>2022-05-05T01:16:30Z</time>
      </trkpt>
      <trkpt lat="50.56491" lon="3.5244">
        <ele>59</ele>
        <time>2022-05-05T01:16:30Z</time>
      </trkpt>
      <trkpt lat="50.56492" lon="3.52442">
        <ele>59.1</ele>
        <time>2022-05-05T01:16:30Z</time>
      </trkpt>
      <trkpt lat="50.56493" lon="3.52443">
        <ele>59.1</ele>
        <time>2022-05-05T01:16:30Z</time>
      </trkpt>
      <trkpt lat="50.56494" lon="3.52443">
        <ele>59.2</ele>
        <time>2022-05-05T01:16:30Z</time>
      </trkpt>
      <trkpt lat="50.56495" lon="3.52443">
        <ele>59.2</ele>
        <time>2022-05-05T01:16:30Z</time>
      </trkpt>
      <trkpt lat="50.56497" lon="3.52444">
        <ele>59.2</ele>
        <time>2022-05-05T01:16:30Z</time>
      </trkpt>
      <trkpt lat="50.56499" lon="3.52445">
        <ele>59.3</ele>
        <time>2022-05-05T01:16:31Z</time>
      </trkpt>
      <trkpt lat="50.56503" lon="3.52446">
        <ele>59.4</ele>
        <time>2022-05-05T01:16:31Z</time>
      </trkpt>
      <trkpt lat="50.56506" lon="3.52446">
        <ele>59.4</ele>
        <time>2022-05-05T01:16:31Z</time>
      </trkpt>
      <trkpt lat="50.5651" lon="3.52447">
        <ele>59.5</ele>
        <time>2022-05-05T01:16:32Z</time>
      </trkpt>
      <trkpt lat="50.56513" lon="3.52449">
        <ele>59.6</ele>
        <time>2022-05-05T01:16:32Z</time>
      </trkpt>
      <trkpt lat="50.56516" lon="3.52449">
        <ele>59.8</ele>
        <time>2022-05-05T01:16:32Z</time>
      </trkpt>
      <trkpt lat="50.56519" lon="3.5245">
        <ele>59.9</ele>
        <time>2022-05-05T01:16:33Z</time>
      </trkpt>
      <trkpt lat="50.56521" lon="3.52452">
        <ele>60</ele>
        <time>2022-05-05T01:16:33Z</time>
      </trkpt>
      <trkpt lat="50.56523" lon="3.52453">
        <ele>60.1</ele>
        <time>2022-05-05T01:16:33Z</time>
      </trkpt>
      <trkpt lat="50.56525" lon="3.52455">
        <ele>60.2</ele>
        <time>2022-05-05T01:16:33Z</time>
      </trkpt>
      <trkpt lat="50.56526" lon="3.52456">
        <ele>60.2</ele>
        <time>2022-05-05T01:16:33Z</time>
      </trkpt>
      <trkpt lat="50.56528" lon="3.52457">
        <ele>60.3</ele>
        <time>2022-05-05T01:16:33Z</time>
      </trkpt>
      <trkpt lat="50.5653" lon="3.52458">
        <ele>60.4</ele>
        <time>2022-05-05T01:16:34Z</time>
      </trkpt>
      <trkpt lat="50.56532" lon="3.5246">
        <ele>60.4</ele>
        <time>2022-05-05T01:16:34Z</time>
      </trkpt>
      <trkpt lat="50.56534" lon="3.52462">
        <ele>60.5</ele>
        <time>2022-05-05T01:16:34Z</time>
      </trkpt>
      <trkpt lat="50.56536" lon="3.52463">
        <ele>60.5</ele>
        <time>2022-05-05T01:16:34Z</time>
      </trkpt>
      <trkpt lat="50.56538" lon="3.52464">
        <ele>60.6</ele>
        <time>2022-05-05T01:16:35Z</time>
      </trkpt>
      <trkpt lat="50.5654" lon="3.52464">
        <ele>60.6</ele>
        <time>2022-05-05T01:16:35Z</time>
      </trkpt>
      <trkpt lat="50.5654" lon="3.52463">
        <ele>60.7</ele>
        <time>2022-05-05T01:16:35Z</time>
      </trkpt>
      <trkpt lat="50.5654" lon="3.52463">
        <ele>60.7</ele>
        <time>2022-05-05T01:16:35Z</time>
      </trkpt>
      <trkpt lat="50.5654" lon="3.52464">
        <ele>60.8</ele>
        <time>2022-05-05T01:16:35Z</time>
      </trkpt>
      <trkpt lat="50.5654" lon="3.52464">
        <ele>60.8</ele>
        <time>2022-05-05T01:16:35Z</time>
      </trkpt>
      <trkpt lat="50.5654" lon="3.52464">
        <ele>60.8</ele>
        <time>2022-05-05T01:16:35Z</time>
      </trkpt>
      <trkpt lat="50.5654" lon="3.52463">
        <ele>60.8</ele>
        <time>2022-05-05T01:16:35Z</time>
      </trkpt>
      <trkpt lat="50.5654" lon="3.52464">
        <ele>60.8</ele>
        <time>2022-05-05T01:16:35Z</time>
      </trkpt>
      <trkpt lat="50.5654" lon="3.52464">
        <ele>60.8</ele>
        <time>2022-05-05T01:16:35Z</time>
      </trkpt>
      <trkpt lat="50.5654" lon="3.52464">
        <ele>60.8</ele>
        <time>2022-05-05T01:16:35Z</time>
      </trkpt>
      <trkpt lat="50.5654" lon="3.52465">
        <ele>60.8</ele>
        <time>2022-05-05T01:16:35Z</time>
      </trkpt>
      <trkpt lat="50.56541" lon="3.52465">
        <ele>60.8</ele>
        <time>2022-05-05T01:16:35Z</time>
      </trkpt>
      <trkpt lat="50.56541" lon="3.52464">
        <ele>60.8</ele>
        <time>2022-05-05T01:16:35Z</time>
      </trkpt>
      <trkpt lat="50.56541" lon="3.52463">
        <ele>60.8</ele>
        <time>2022-05-05T01:16:35Z</time>
      </trkpt>
      <trkpt lat="50.56541" lon="3.52463">
        <ele>60.8</ele>
        <time>2022-05-05T01:16:35Z</time>
      </trkpt>
      <trkpt lat="50.56541" lon="3.52462">
        <ele>60.8</ele>
        <time>2022-05-05T01:16:35Z</time>
      </trkpt>
      <trkpt lat="50.56542" lon="3.52459">
        <ele>60.8</ele>
        <time>2022-05-05T01:16:35Z</time>
      </trkpt>
      <trkpt lat="50.56542" lon="3.52458">
        <ele>60.8</ele>
        <time>2022-05-05T01:16:35Z</time>
      </trkpt>
      <trkpt lat="50.56542" lon="3.52457">
        <ele>60.8</ele>
        <time>2022-05-05T01:16:36Z</time>
      </trkpt>
      <trkpt lat="50.56542" lon="3.52456">
        <ele>60.8</ele>
        <time>2022-05-05T01:16:36Z</time>
      </trkpt>
      <trkpt lat="50.56542" lon="3.52455">
        <ele>60.7</ele>
        <time>2022-05-05T01:16:36Z</time>
      </trkpt>
      <trkpt lat="50.56543" lon="3.52456">
        <ele>60.7</ele>
        <time>2022-05-05T01:16:36Z</time>
      </trkpt>
      <trkpt lat="50.56544" lon="3.52458">
        <ele>60.7</ele>
        <time>2022-05-05T01:16:36Z</time>
      </trkpt>
      <trkpt lat="50.56545" lon="3.5246">
        <ele>60.7</ele>
        <time>2022-05-05T01:16:36Z</time>
      </trkpt>
      <trkpt lat="50.56547" lon="3.5246">
        <ele>60.8</ele>
        <time>2022-05-05T01:16:36Z</time>
      </trkpt>
      <trkpt lat="50.56548" lon="3.5246">
        <ele>60.8</ele>
        <time>2022-05-05T01:16:36Z</time>
      </trkpt>
      <trkpt lat="50.56549" lon="3.5246">
        <ele>60.9</ele>
        <time>2022-05-05T01:16:36Z</time>
      </trkpt>
      <trkpt lat="50.56549" lon="3.52459">
        <ele>60.9</ele>
        <time>2022-05-05T01:16:36Z</time>
      </trkpt>
      <trkpt lat="50.56551" lon="3.52459">
        <ele>60.9</ele>
        <time>2022-05-05T01:16:37Z</time>
      </trkpt>
      <trkpt lat="50.56552" lon="3.52459">
        <ele>60.9</ele>
        <time>2022-05-05T01:16:37Z</time>
      </trkpt>
      <trkpt lat="50.56553" lon="3.5246">
        <ele>60.9</ele>
        <time>2022-05-05T01:16:37Z</time>
      </trkpt>
      <trkpt lat="50.56555" lon="3.5246">
        <ele>60.9</ele>
        <time>2022-05-05T01:16:37Z</time>
      </trkpt>
      <trkpt lat="50.56556" lon="3.5246">
        <ele>61</ele>
        <time>2022-05-05T01:16:37Z</time>
      </trkpt>
      <trkpt lat="50.56556" lon="3.5246">
        <ele>61</ele>
        <time>2022-05-05T01:16:37Z</time>
      </trkpt>
      <trkpt lat="50.56556" lon="3.5246">
        <ele>61</ele>
        <time>2022-05-05T01:16:37Z</time>
      </trkpt>
      <trkpt lat="50.56556" lon="3.5246">
        <ele>61</ele>
        <time>2022-05-05T01:16:37Z</time>
      </trkpt>
      <trkpt lat="50.56556" lon="3.5246">
        <ele>61.1</ele>
        <time>2022-05-05T01:16:37Z</time>
      </trkpt>
      <trkpt lat="50.56557" lon="3.52461">
        <ele>61.1</ele>
        <time>2022-05-05T01:16:37Z</time>
      </trkpt>
      <trkpt lat="50.56557" lon="3.52462">
        <ele>61.1</ele>
        <time>2022-05-05T01:16:37Z</time>
      </trkpt>
      <trkpt lat="50.56557" lon="3.52463">
        <ele>61.1</ele>
        <time>2022-05-05T01:16:37Z</time>
      </trkpt>
      <trkpt lat="50.56557" lon="3.52463">
        <ele>61.1</ele>
        <time>2022-05-05T01:16:37Z</time>
      </trkpt>
      <trkpt lat="50.56557" lon="3.52463">
        <ele>61.2</ele>
        <time>2022-05-05T01:16:37Z</time>
      </trkpt>
      <trkpt lat="50.56557" lon="3.52462">
        <ele>61.2</ele>
        <time>2022-05-05T01:16:38Z</time>
      </trkpt>
      <trkpt lat="50.56557" lon="3.52462">
        <ele>61.2</ele>
        <time>2022-05-05T01:16:38Z</time>
      </trkpt>
      <trkpt lat="50.56557" lon="3.52463">
        <ele>61.2</ele>
        <time>2022-05-05T01:16:38Z</time>
      </trkpt>
      <trkpt lat="50.56557" lon="3.52463">
        <ele>61.2</ele>
        <time>2022-05-05T01:16:38Z</time>
      </trkpt>
      <trkpt lat="50.56557" lon="3.52463">
        <ele>61.2</ele>
        <time>2022-05-05T01:16:38Z</time>
      </trkpt>
      <trkpt lat="50.56557" lon="3.52462">
        <ele>61.2</ele>
        <time>2022-05-05T01:16:38Z</time>
      </trkpt>
      <trkpt lat="50.56558" lon="3.52462">
        <ele>61.2</ele>
        <time>2022-05-05T01:16:38Z</time>
      </trkpt>
      <trkpt lat="50.56558" lon="3.52461">
        <ele>61.2</ele>
        <time>2022-05-05T01:16:38Z</time>
      </trkpt>
      <trkpt lat="50.56559" lon="3.52461">
        <ele>61.2</ele>
        <time>2022-05-05T01:16:38Z</time>
      </trkpt>
      <trkpt lat="50.56559" lon="3.52461">
        <ele>61.2</ele>
        <time>2022-05-05T01:16:38Z</time>
      </trkpt>
      <trkpt lat="50.5656" lon="3.52462">
        <ele>61.2</ele>
        <time>2022-05-05T01:16:38Z</time>
      </trkpt>
      <trkpt lat="50.56561" lon="3.52462">
        <ele>61.2</ele>
        <time>2022-05-05T01:16:38Z</time>
      </trkpt>
      <trkpt lat="50.56561" lon="3.52462">
        <ele>61.3</ele>
        <time>2022-05-05T01:16:38Z</time>
      </trkpt>
      <trkpt lat="50.56562" lon="3.52462">
        <ele>61.3</ele>
        <time>2022-05-05T01:16:38Z</time>
      </trkpt>
      <trkpt lat="50.56563" lon="3.52462">
        <ele>61.3</ele>
        <time>2022-05-05T01:16:38Z</time>
      </trkpt>
      <trkpt lat="50.56563" lon="3.52462">
        <ele>61.3</ele>
        <time>2022-05-05T01:16:38Z</time>
      </trkpt>
      <trkpt lat="50.56563" lon="3.52462">
        <ele>61.4</ele>
        <time>2022-05-05T01:16:38Z</time>
      </trkpt>
      <trkpt lat="50.56563" lon="3.52463">
        <ele>61.4</ele>
        <time>2022-05-05T01:16:38Z</time>
      </trkpt>
      <trkpt lat="50.56562" lon="3.52463">
        <ele>61.4</ele>
        <time>2022-05-05T01:16:38Z</time>
      </trkpt>
      <trkpt lat="50.56562" lon="3.52464">
        <ele>61.4</ele>
        <time>2022-05-05T01:16:38Z</time>
      </trkpt>
      <trkpt lat="50.56562" lon="3.52466">
        <ele>61.4</ele>
        <time>2022-05-05T01:16:39Z</time>
      </trkpt>
      <trkpt lat="50.56562" lon="3.52467">
        <ele>61.4</ele>
        <time>2022-05-05T01:16:39Z</time>
      </trkpt>
      <trkpt lat="50.56562" lon="3.52468">
        <ele>61.5</ele>
        <time>2022-05-05T01:16:39Z</time>
      </trkpt>
      <trkpt lat="50.56562" lon="3.52469">
        <ele>61.5</ele>
        <time>2022-05-05T01:16:39Z</time>
      </trkpt>
      <trkpt lat="50.56562" lon="3.52469">
        <ele>61.5</ele>
        <time>2022-05-05T01:16:39Z</time>
      </trkpt>
      <trkpt lat="50.56562" lon="3.52468">
        <ele>61.6</ele>
        <time>2022-05-05T01:16:39Z</time>
      </trkpt>
      <trkpt lat="50.56562" lon="3.52467">
        <ele>61.6</ele>
        <time>2022-05-05T01:16:39Z</time>
      </trkpt>
      <trkpt lat="50.56563" lon="3.52466">
        <ele>61.6</ele>
        <time>2022-05-05T01:16:39Z</time>
      </trkpt>
      <trkpt lat="50.56563" lon="3.52466">
        <ele>61.5</ele>
        <time>2022-05-05T01:16:39Z</time>
      </trkpt>
      <trkpt lat="50.56563" lon="3.52465">
        <ele>61.5</ele>
        <time>2022-05-05T01:16:39Z</time>
      </trkpt>
      <trkpt lat="50.56564" lon="3.52464">
        <ele>61.5</ele>
        <time>2022-05-05T01:16:39Z</time>
      </trkpt>
      <trkpt lat="50.56564" lon="3.52464">
        <ele>61.5</ele>
        <time>2022-05-05T01:16:39Z</time>
      </trkpt>
      <trkpt lat="50.56565" lon="3.52464">
        <ele>61.5</ele>
        <time>2022-05-05T01:16:39Z</time>
      </trkpt>
      <trkpt lat="50.56565" lon="3.52466">
        <ele>61.5</ele>
        <time>2022-05-05T01:16:39Z</time>
      </trkpt>
      <trkpt lat="50.56566" lon="3.52467">
        <ele>61.5</ele>
        <time>2022-05-05T01:16:39Z</time>
      </trkpt>
      <trkpt lat="50.56568" lon="3.52469">
        <ele>61.6</ele>
        <time>2022-05-05T01:16:40Z</time>
      </trkpt>
      <trkpt lat="50.5657" lon="3.52471">
        <ele>61.7</ele>
        <time>2022-05-05T01:16:40Z</time>
      </trkpt>
      <trkpt lat="50.56573" lon="3.52472">
        <ele>61.8</ele>
        <time>2022-05-05T01:16:40Z</time>
      </trkpt>
      <trkpt lat="50.56575" lon="3.52473">
        <ele>61.9</ele>
        <time>2022-05-05T01:16:40Z</time>
      </trkpt>
      <trkpt lat="50.56576" lon="3.52474">
        <ele>62</ele>
        <time>2022-05-05T01:16:41Z</time>
      </trkpt>
      <trkpt lat="50.56577" lon="3.52474">
        <ele>62.1</ele>
        <time>2022-05-05T01:16:41Z</time>
      </trkpt>
      <trkpt lat="50.56577" lon="3.52476">
        <ele>62.1</ele>
        <time>2022-05-05T01:16:41Z</time>
      </trkpt>
      <trkpt lat="50.56577" lon="3.52477">
        <ele>62.2</ele>
        <time>2022-05-05T01:16:41Z</time>
      </trkpt>
      <trkpt lat="50.56578" lon="3.52477">
        <ele>62.2</ele>
        <time>2022-05-05T01:16:41Z</time>
      </trkpt>
      <trkpt lat="50.56578" lon="3.52477">
        <ele>62.2</ele>
        <time>2022-05-05T01:16:41Z</time>
      </trkpt>
      <trkpt lat="50.56579" lon="3.52477">
        <ele>62.3</ele>
        <time>2022-05-05T01:16:41Z</time>
      </trkpt>
      <trkpt lat="50.5658" lon="3.52477">
        <ele>62.3</ele>
        <time>2022-05-05T01:16:41Z</time>
      </trkpt>
      <trkpt lat="50.56581" lon="3.52476">
        <ele>62.3</ele>
        <time>2022-05-05T01:16:41Z</time>
      </trkpt>
      <trkpt lat="50.56583" lon="3.52477">
        <ele>62.3</ele>
        <time>2022-05-05T01:16:41Z</time>
      </trkpt>
      <trkpt lat="50.56585" lon="3.52477">
        <ele>62.4</ele>
        <time>2022-05-05T01:16:42Z</time>
      </trkpt>
      <trkpt lat="50.56589" lon="3.52477">
        <ele>62.4</ele>
        <time>2022-05-05T01:16:42Z</time>
      </trkpt>
      <trkpt lat="50.56592" lon="3.52478">
        <ele>62.5</ele>
        <time>2022-05-05T01:16:42Z</time>
      </trkpt>
      <trkpt lat="50.56597" lon="3.52478">
        <ele>62.5</ele>
        <time>2022-05-05T01:16:43Z</time>
      </trkpt>
      <trkpt lat="50.56601" lon="3.52479">
        <ele>62.5</ele>
        <time>2022-05-05T01:16:43Z</time>
      </trkpt>
      <trkpt lat="50.56605" lon="3.5248">
        <ele>62.5</ele>
        <time>2022-05-05T01:16:43Z</time>
      </trkpt>
      <trkpt lat="50.5661" lon="3.52482">
        <ele>62.5</ele>
        <time>2022-05-05T01:16:44Z</time>
      </trkpt>
      <trkpt lat="50.56615" lon="3.52482">
        <ele>62.5</ele>
        <time>2022-05-05T01:16:44Z</time>
      </trkpt>
      <trkpt lat="50.5662" lon="3.52484">
        <ele>62.5</ele>
        <time>2022-05-05T01:16:45Z</time>
      </trkpt>
      <trkpt lat="50.56625" lon="3.52486">
        <ele>62.6</ele>
        <time>2022-05-05T01:16:45Z</time>
      </trkpt>
      <trkpt lat="50.5663" lon="3.52489">
        <ele>62.8</ele>
        <time>2022-05-05T01:16:46Z</time>
      </trkpt>
      <trkpt lat="50.56634" lon="3.52491">
        <ele>62.9</ele>
        <time>2022-05-05T01:16:46Z</time>
      </trkpt>
      <trkpt lat="50.56644" lon="3.52493">
        <ele>63.5</ele>
        <time>2022-05-05T01:16:47Z</time>
      </trkpt>
      <trkpt lat="50.5665" lon="3.52494">
        <ele>63.5</ele>
        <time>2022-05-05T01:16:48Z</time>
      </trkpt>
      <trkpt lat="50.56656" lon="3.52498">
        <ele>63.7</ele>
        <time>2022-05-05T01:16:48Z</time>
      </trkpt>
      <trkpt lat="50.56663" lon="3.52502">
        <ele>63.8</ele>
        <time>2022-05-05T01:16:49Z</time>
      </trkpt>
      <trkpt lat="50.56671" lon="3.52506">
        <ele>64</ele>
        <time>2022-05-05T01:16:50Z</time>
      </trkpt>
      <trkpt lat="50.5668" lon="3.52509">
        <ele>64.3</ele>
        <time>2022-05-05T01:16:51Z</time>
      </trkpt>
      <trkpt lat="50.56691" lon="3.52513">
        <ele>64.5</ele>
        <time>2022-05-05T01:16:52Z</time>
      </trkpt>
      <trkpt lat="50.56702" lon="3.52519">
        <ele>64.8</ele>
        <time>2022-05-05T01:16:53Z</time>
      </trkpt>
      <trkpt lat="50.56713" lon="3.52524">
        <ele>65.2</ele>
        <time>2022-05-05T01:16:54Z</time>
      </trkpt>
      <trkpt lat="50.56724" lon="3.52529">
        <ele>65.5</ele>
        <time>2022-05-05T01:16:55Z</time>
      </trkpt>
      <trkpt lat="50.56734" lon="3.52533">
        <ele>65.9</ele>
        <time>2022-05-05T01:16:56Z</time>
      </trkpt>
      <trkpt lat="50.56745" lon="3.52537">
        <ele>66.1</ele>
        <time>2022-05-05T01:16:57Z</time>
      </trkpt>
      <trkpt lat="50.56754" lon="3.52541">
        <ele>66.3</ele>
        <time>2022-05-05T01:16:58Z</time>
      </trkpt>
      <trkpt lat="50.56764" lon="3.52544">
        <ele>66.4</ele>
        <time>2022-05-05T01:16:59Z</time>
      </trkpt>
      <trkpt lat="50.56772" lon="3.52547">
        <ele>66.6</ele>
        <time>2022-05-05T01:17:00Z</time>
      </trkpt>
      <trkpt lat="50.56781" lon="3.5255">
        <ele>66.9</ele>
        <time>2022-05-05T01:17:01Z</time>
      </trkpt>
      <trkpt lat="50.5679" lon="3.52554">
        <ele>67.1</ele>
        <time>2022-05-05T01:17:02Z</time>
      </trkpt>
      <trkpt lat="50.568" lon="3.52558">
        <ele>67.4</ele>
        <time>2022-05-05T01:17:03Z</time>
      </trkpt>
      <trkpt lat="50.5681" lon="3.52561">
        <ele>67.7</ele>
        <time>2022-05-05T01:17:04Z</time>
      </trkpt>
      <trkpt lat="50.5682" lon="3.52566">
        <ele>68.1</ele>
        <time>2022-05-05T01:17:05Z</time>
      </trkpt>
      <trkpt lat="50.56829" lon="3.52569">
        <ele>68.4</ele>
        <time>2022-05-05T01:17:05Z</time>
      </trkpt>
      <trkpt lat="50.56839" lon="3.52573">
        <ele>68.7</ele>
        <time>2022-05-05T01:17:06Z</time>
      </trkpt>
      <trkpt lat="50.56848" lon="3.52577">
        <ele>69</ele>
        <time>2022-05-05T01:17:07Z</time>
      </trkpt>
      <trkpt lat="50.56858" lon="3.5258">
        <ele>69.2</ele>
        <time>2022-05-05T01:17:08Z</time>
      </trkpt>
      <trkpt lat="50.56867" lon="3.52584">
        <ele>69.3</ele>
        <time>2022-05-05T01:17:09Z</time>
      </trkpt>
      <trkpt lat="50.56874" lon="3.52588">
        <ele>69.4</ele>
        <time>2022-05-05T01:17:10Z</time>
      </trkpt>
      <trkpt lat="50.56881" lon="3.5259">
        <ele>69.6</ele>
        <time>2022-05-05T01:17:11Z</time>
      </trkpt>
      <trkpt lat="50.56886" lon="3.52592">
        <ele>69.8</ele>
        <time>2022-05-05T01:17:11Z</time>
      </trkpt>
      <trkpt lat="50.5689" lon="3.52593">
        <ele>70</ele>
        <time>2022-05-05T01:17:11Z</time>
      </trkpt>
      <trkpt lat="50.56905" lon="3.5259">
        <ele>70.5</ele>
        <time>2022-05-05T01:17:13Z</time>
      </trkpt>
      <trkpt lat="50.56907" lon="3.52586">
        <ele>70.5</ele>
        <time>2022-05-05T01:17:13Z</time>
      </trkpt>
      <trkpt lat="50.56908" lon="3.5258">
        <ele>70.5</ele>
        <time>2022-05-05T01:17:14Z</time>
      </trkpt>
      <trkpt lat="50.56908" lon="3.52573">
        <ele>70.5</ele>
        <time>2022-05-05T01:17:14Z</time>
      </trkpt>
      <trkpt lat="50.56908" lon="3.52565">
        <ele>70.3</ele>
        <time>2022-05-05T01:17:14Z</time>
      </trkpt>
      <trkpt lat="50.56909" lon="3.52557">
        <ele>70.2</ele>
        <time>2022-05-05T01:17:15Z</time>
      </trkpt>
      <trkpt lat="50.56911" lon="3.52549">
        <ele>69.9</ele>
        <time>2022-05-05T01:17:15Z</time>
      </trkpt>
      <trkpt lat="50.56913" lon="3.5254">
        <ele>69.8</ele>
        <time>2022-05-05T01:17:16Z</time>
      </trkpt>
      <trkpt lat="50.56914" lon="3.52531">
        <ele>69.7</ele>
        <time>2022-05-05T01:17:17Z</time>
      </trkpt>
      <trkpt lat="50.56916" lon="3.52521">
        <ele>69.6</ele>
        <time>2022-05-05T01:17:17Z</time>
      </trkpt>
      <trkpt lat="50.56918" lon="3.52512">
        <ele>69.6</ele>
        <time>2022-05-05T01:17:18Z</time>
      </trkpt>
      <trkpt lat="50.5692" lon="3.52503">
        <ele>69.8</ele>
        <time>2022-05-05T01:17:18Z</time>
      </trkpt>
      <trkpt lat="50.56923" lon="3.52493">
        <ele>70.3</ele>
        <time>2022-05-05T01:17:19Z</time>
      </trkpt>
      <trkpt lat="50.56927" lon="3.52479">
        <ele>70.5</ele>
        <time>2022-05-05T01:17:20Z</time>
      </trkpt>
      <trkpt lat="50.56932" lon="3.52464">
        <ele>70.5</ele>
        <time>2022-05-05T01:17:21Z</time>
      </trkpt>
      <trkpt lat="50.56939" lon="3.52449">
        <ele>70.5</ele>
        <time>2022-05-05T01:17:22Z</time>
      </trkpt>
      <trkpt lat="50.56946" lon="3.52431">
        <ele>70.5</ele>
        <time>2022-05-05T01:17:23Z</time>
      </trkpt>
      <trkpt lat="50.56952" lon="3.52415">
        <ele>70.7</ele>
        <time>2022-05-05T01:17:25Z</time>
      </trkpt>
      <trkpt lat="50.56957" lon="3.52399">
        <ele>70.9</ele>
        <time>2022-05-05T01:17:26Z</time>
      </trkpt>
      <trkpt lat="50.56963" lon="3.52385">
        <ele>71.1</ele>
        <time>2022-05-05T01:17:27Z</time>
      </trkpt>
      <trkpt lat="50.56968" lon="3.52372">
        <ele>71.2</ele>
        <time>2022-05-05T01:17:28Z</time>
      </trkpt>
      <trkpt lat="50.56972" lon="3.52361">
        <ele>71.3</ele>
        <time>2022-05-05T01:17:28Z</time>
      </trkpt>
      <trkpt lat="50.56975" lon="3.52352">
        <ele>71.4</ele>
        <time>2022-05-05T01:17:29Z</time>
      </trkpt>
      <trkpt lat="50.56978" lon="3.52344">
        <ele>71.4</ele>
        <time>2022-05-05T01:17:29Z</time>
      </trkpt>
      <trkpt lat="50.5698" lon="3.52339">
        <ele>71.5</ele>
        <time>2022-05-05T01:17:30Z</time>
      </trkpt>
      <trkpt lat="50.56981" lon="3.52336">
        <ele>71.5</ele>
        <time>2022-05-05T01:17:30Z</time>
      </trkpt>
      <trkpt lat="50.56983" lon="3.52333">
        <ele>71.5</ele>
        <time>2022-05-05T01:17:30Z</time>
      </trkpt>
      <trkpt lat="50.56983" lon="3.52335">
        <ele>71.5</ele>
        <time>2022-05-05T01:17:30Z</time>
      </trkpt>
      <trkpt lat="50.56984" lon="3.52337">
        <ele>71.5</ele>
        <time>2022-05-05T01:17:31Z</time>
      </trkpt>
      <trkpt lat="50.56988" lon="3.52345">
        <ele>71.5</ele>
        <time>2022-05-05T01:17:31Z</time>
      </trkpt>
      <trkpt lat="50.56994" lon="3.52357">
        <ele>71.5</ele>
        <time>2022-05-05T01:17:32Z</time>
      </trkpt>
      <trkpt lat="50.57001" lon="3.52371">
        <ele>71.5</ele>
        <time>2022-05-05T01:17:33Z</time>
      </trkpt>
      <trkpt lat="50.57008" lon="3.52385">
        <ele>71.4</ele>
        <time>2022-05-05T01:17:34Z</time>
      </trkpt>
      <trkpt lat="50.57014" lon="3.52397">
        <ele>71.1</ele>
        <time>2022-05-05T01:17:35Z</time>
      </trkpt>
      <trkpt lat="50.57019" lon="3.52407">
        <ele>70.9</ele>
        <time>2022-05-05T01:17:36Z</time>
      </trkpt>
      <trkpt lat="50.57024" lon="3.52415">
        <ele>70.8</ele>
        <time>2022-05-05T01:17:37Z</time>
      </trkpt>
      <trkpt lat="50.57028" lon="3.52422">
        <ele>70.7</ele>
        <time>2022-05-05T01:17:37Z</time>
      </trkpt>
      <trkpt lat="50.57032" lon="3.52429">
        <ele>70.6</ele>
        <time>2022-05-05T01:17:38Z</time>
      </trkpt>
      <trkpt lat="50.57036" lon="3.52434">
        <ele>70.6</ele>
        <time>2022-05-05T01:17:38Z</time>
      </trkpt>
      <trkpt lat="50.57041" lon="3.52438">
        <ele>70.5</ele>
        <time>2022-05-05T01:17:39Z</time>
      </trkpt>
      <trkpt lat="50.57044" lon="3.52444">
        <ele>70.5</ele>
        <time>2022-05-05T01:17:39Z</time>
      </trkpt>
      <trkpt lat="50.57048" lon="3.5245">
        <ele>70.5</ele>
        <time>2022-05-05T01:17:40Z</time>
      </trkpt>
      <trkpt lat="50.57052" lon="3.52453">
        <ele>70.5</ele>
        <time>2022-05-05T01:17:40Z</time>
      </trkpt>
      <trkpt lat="50.57056" lon="3.52458">
        <ele>70.5</ele>
        <time>2022-05-05T01:17:41Z</time>
      </trkpt>
      <trkpt lat="50.57061" lon="3.52463">
        <ele>70.5</ele>
        <time>2022-05-05T01:17:41Z</time>
      </trkpt>
      <trkpt lat="50.57068" lon="3.52468">
        <ele>70.5</ele>
        <time>2022-05-05T01:17:42Z</time>
      </trkpt>
      <trkpt lat="50.57075" lon="3.52473">
        <ele>70.5</ele>
        <time>2022-05-05T01:17:43Z</time>
      </trkpt>
      <trkpt lat="50.57085" lon="3.52478">
        <ele>70.5</ele>
        <time>2022-05-05T01:17:44Z</time>
      </trkpt>
      <trkpt lat="50.57094" lon="3.52482">
        <ele>70.5</ele>
        <time>2022-05-05T01:17:45Z</time>
      </trkpt>
      <trkpt lat="50.57104" lon="3.52487">
        <ele>70.4</ele>
        <time>2022-05-05T01:17:46Z</time>
      </trkpt>
      <trkpt lat="50.57112" lon="3.52491">
        <ele>70.3</ele>
        <time>2022-05-05T01:17:46Z</time>
      </trkpt>
      <trkpt lat="50.5712" lon="3.52496">
        <ele>70.1</ele>
        <time>2022-05-05T01:17:47Z</time>
      </trkpt>
      <trkpt lat="50.57128" lon="3.52501">
        <ele>69.9</ele>
        <time>2022-05-05T01:17:48Z</time>
      </trkpt>
      <trkpt lat="50.57137" lon="3.52507">
        <ele>69.8</ele>
        <time>2022-05-05T01:17:49Z</time>
      </trkpt>
      <trkpt lat="50.57147" lon="3.52512">
        <ele>69.7</ele>
        <time>2022-05-05T01:17:50Z</time>
      </trkpt>
      <trkpt lat="50.57155" lon="3.52519">
        <ele>69.5</ele>
        <time>2022-05-05T01:17:51Z</time>
      </trkpt>
      <trkpt lat="50.57164" lon="3.52524">
        <ele>69.3</ele>
        <time>2022-05-05T01:17:52Z</time>
      </trkpt>
      <trkpt lat="50.57173" lon="3.52528">
        <ele>69.1</ele>
        <time>2022-05-05T01:17:53Z</time>
      </trkpt>
      <trkpt lat="50.57181" lon="3.52532">
        <ele>68.9</ele>
        <time>2022-05-05T01:17:53Z</time>
      </trkpt>
      <trkpt lat="50.57189" lon="3.52537">
        <ele>68.7</ele>
        <time>2022-05-05T01:17:54Z</time>
      </trkpt>
      <trkpt lat="50.57198" lon="3.52542">
        <ele>68.6</ele>
        <time>2022-05-05T01:17:55Z</time>
      </trkpt>
      <trkpt lat="50.57207" lon="3.52547">
        <ele>68.6</ele>
        <time>2022-05-05T01:17:56Z</time>
      </trkpt>
      <trkpt lat="50.57215" lon="3.52552">
        <ele>68.4</ele>
        <time>2022-05-05T01:17:57Z</time>
      </trkpt>
      <trkpt lat="50.57223" lon="3.52556">
        <ele>68.2</ele>
        <time>2022-05-05T01:17:58Z</time>
      </trkpt>
      <trkpt lat="50.5723" lon="3.52562">
        <ele>68</ele>
        <time>2022-05-05T01:17:58Z</time>
      </trkpt>
      <trkpt lat="50.57238" lon="3.52566">
        <ele>67.8</ele>
        <time>2022-05-05T01:17:59Z</time>
      </trkpt>
      <trkpt lat="50.57246" lon="3.52571">
        <ele>67.7</ele>
        <time>2022-05-05T01:18:00Z</time>
      </trkpt>
      <trkpt lat="50.57254" lon="3.52576">
        <ele>67.6</ele>
        <time>2022-05-05T01:18:01Z</time>
      </trkpt>
      <trkpt lat="50.57261" lon="3.5258">
        <ele>67.5</ele>
        <time>2022-05-05T01:18:02Z</time>
      </trkpt>
      <trkpt lat="50.57268" lon="3.52585">
        <ele>67.4</ele>
        <time>2022-05-05T01:18:02Z</time>
      </trkpt>
      <trkpt lat="50.57276" lon="3.5259">
        <ele>67.2</ele>
        <time>2022-05-05T01:18:03Z</time>
      </trkpt>
      <trkpt lat="50.57283" lon="3.52594">
        <ele>67</ele>
        <time>2022-05-05T01:18:04Z</time>
      </trkpt>
      <trkpt lat="50.57291" lon="3.52599">
        <ele>66.8</ele>
        <time>2022-05-05T01:18:05Z</time>
      </trkpt>
      <trkpt lat="50.57298" lon="3.52603">
        <ele>66.7</ele>
        <time>2022-05-05T01:18:05Z</time>
      </trkpt>
      <trkpt lat="50.57305" lon="3.52607">
        <ele>66.6</ele>
        <time>2022-05-05T01:18:06Z</time>
      </trkpt>
      <trkpt lat="50.57313" lon="3.52611">
        <ele>66.6</ele>
        <time>2022-05-05T01:18:07Z</time>
      </trkpt>
      <trkpt lat="50.5732" lon="3.52615">
        <ele>66.5</ele>
        <time>2022-05-05T01:18:08Z</time>
      </trkpt>
      <trkpt lat="50.57327" lon="3.5262">
        <ele>66.3</ele>
        <time>2022-05-05T01:18:08Z</time>
      </trkpt>
      <trkpt lat="50.57334" lon="3.52625">
        <ele>66.1</ele>
        <time>2022-05-05T01:18:09Z</time>
      </trkpt>
      <trkpt lat="50.57342" lon="3.52628">
        <ele>65.9</ele>
        <time>2022-05-05T01:18:10Z</time>
      </trkpt>
      <trkpt lat="50.5735" lon="3.52632">
        <ele>65.7</ele>
        <time>2022-05-05T01:18:11Z</time>
      </trkpt>
      <trkpt lat="50.57358" lon="3.52637">
        <ele>65.7</ele>
        <time>2022-05-05T01:18:11Z</time>
      </trkpt>
      <trkpt lat="50.57366" lon="3.52641">
        <ele>65.6</ele>
        <time>2022-05-05T01:18:12Z</time>
      </trkpt>
      <trkpt lat="50.57374" lon="3.52645">
        <ele>65.5</ele>
        <time>2022-05-05T01:18:13Z</time>
      </trkpt>
      <trkpt lat="50.57382" lon="3.52649">
        <ele>65.3</ele>
        <time>2022-05-05T01:18:14Z</time>
      </trkpt>
      <trkpt lat="50.5739" lon="3.52654">
        <ele>65.1</ele>
        <time>2022-05-05T01:18:15Z</time>
      </trkpt>
      <trkpt lat="50.57398" lon="3.52659">
        <ele>64.9</ele>
        <time>2022-05-05T01:18:15Z</time>
      </trkpt>
      <trkpt lat="50.57406" lon="3.52665">
        <ele>64.8</ele>
        <time>2022-05-05T01:18:16Z</time>
      </trkpt>
      <trkpt lat="50.57414" lon="3.5267">
        <ele>64.7</ele>
        <time>2022-05-05T01:18:17Z</time>
      </trkpt>
      <trkpt lat="50.57422" lon="3.52674">
        <ele>64.6</ele>
        <time>2022-05-05T01:18:18Z</time>
      </trkpt>
      <trkpt lat="50.57431" lon="3.5268">
        <ele>64.6</ele>
        <time>2022-05-05T01:18:19Z</time>
      </trkpt>
      <trkpt lat="50.57439" lon="3.52685">
        <ele>64.5</ele>
        <time>2022-05-05T01:18:20Z</time>
      </trkpt>
      <trkpt lat="50.57447" lon="3.52689">
        <ele>64.5</ele>
        <time>2022-05-05T01:18:20Z</time>
      </trkpt>
      <trkpt lat="50.57455" lon="3.52692">
        <ele>64.5</ele>
        <time>2022-05-05T01:18:21Z</time>
      </trkpt>
      <trkpt lat="50.57463" lon="3.52696">
        <ele>64.5</ele>
        <time>2022-05-05T01:18:22Z</time>
      </trkpt>
      <trkpt lat="50.5747" lon="3.52701">
        <ele>64.5</ele>
        <time>2022-05-05T01:18:23Z</time>
      </trkpt>
      <trkpt lat="50.57478" lon="3.52706">
        <ele>64.5</ele>
        <time>2022-05-05T01:18:24Z</time>
      </trkpt>
      <trkpt lat="50.57485" lon="3.52711">
        <ele>64.5</ele>
        <time>2022-05-05T01:18:24Z</time>
      </trkpt>
      <trkpt lat="50.57491" lon="3.52716">
        <ele>64.4</ele>
        <time>2022-05-05T01:18:25Z</time>
      </trkpt>
      <trkpt lat="50.57498" lon="3.5272">
        <ele>64.4</ele>
        <time>2022-05-05T01:18:26Z</time>
      </trkpt>
      <trkpt lat="50.57504" lon="3.52723">
        <ele>64.4</ele>
        <time>2022-05-05T01:18:26Z</time>
      </trkpt>
      <trkpt lat="50.5751" lon="3.52726">
        <ele>64.4</ele>
        <time>2022-05-05T01:18:27Z</time>
      </trkpt>
      <trkpt lat="50.57517" lon="3.5273">
        <ele>64.3</ele>
        <time>2022-05-05T01:18:28Z</time>
      </trkpt>
      <trkpt lat="50.57524" lon="3.52734">
        <ele>64.1</ele>
        <time>2022-05-05T01:18:28Z</time>
      </trkpt>
      <trkpt lat="50.57531" lon="3.52737">
        <ele>63.9</ele>
        <time>2022-05-05T01:18:29Z</time>
      </trkpt>
      <trkpt lat="50.57538" lon="3.52741">
        <ele>63.8</ele>
        <time>2022-05-05T01:18:30Z</time>
      </trkpt>
      <trkpt lat="50.57544" lon="3.52746">
        <ele>63.7</ele>
        <time>2022-05-05T01:18:30Z</time>
      </trkpt>
      <trkpt lat="50.5755" lon="3.5275">
        <ele>63.6</ele>
        <time>2022-05-05T01:18:31Z</time>
      </trkpt>
      <trkpt lat="50.57556" lon="3.52754">
        <ele>63.6</ele>
        <time>2022-05-05T01:18:32Z</time>
      </trkpt>
      <trkpt lat="50.57563" lon="3.52758">
        <ele>63.5</ele>
        <time>2022-05-05T01:18:32Z</time>
      </trkpt>
      <trkpt lat="50.57569" lon="3.52762">
        <ele>63.5</ele>
        <time>2022-05-05T01:18:33Z</time>
      </trkpt>
      <trkpt lat="50.57574" lon="3.52766">
        <ele>63.5</ele>
        <time>2022-05-05T01:18:33Z</time>
      </trkpt>
      <trkpt lat="50.57579" lon="3.5277">
        <ele>63.5</ele>
        <time>2022-05-05T01:18:34Z</time>
      </trkpt>
      <trkpt lat="50.57584" lon="3.52775">
        <ele>63.5</ele>
        <time>2022-05-05T01:18:34Z</time>
      </trkpt>
      <trkpt lat="50.57588" lon="3.52781">
        <ele>63.5</ele>
        <time>2022-05-05T01:18:35Z</time>
      </trkpt>
      <trkpt lat="50.57592" lon="3.52787">
        <ele>63.5</ele>
        <time>2022-05-05T01:18:36Z</time>
      </trkpt>
      <trkpt lat="50.57597" lon="3.52795">
        <ele>63.4</ele>
        <time>2022-05-05T01:18:36Z</time>
      </trkpt>
      <trkpt lat="50.57602" lon="3.52802">
        <ele>63.3</ele>
        <time>2022-05-05T01:18:37Z</time>
      </trkpt>
      <trkpt lat="50.57607" lon="3.5281">
        <ele>63.3</ele>
        <time>2022-05-05T01:18:38Z</time>
      </trkpt>
      <trkpt lat="50.57612" lon="3.52817">
        <ele>63.3</ele>
        <time>2022-05-05T01:18:38Z</time>
      </trkpt>
      <trkpt lat="50.57617" lon="3.52824">
        <ele>63.2</ele>
        <time>2022-05-05T01:18:39Z</time>
      </trkpt>
      <trkpt lat="50.57622" lon="3.52831">
        <ele>63.1</ele>
        <time>2022-05-05T01:18:39Z</time>
      </trkpt>
      <trkpt lat="50.57626" lon="3.52837">
        <ele>63.1</ele>
        <time>2022-05-05T01:18:40Z</time>
      </trkpt>
      <trkpt lat="50.57631" lon="3.52844">
        <ele>63</ele>
        <time>2022-05-05T01:18:41Z</time>
      </trkpt>
      <trkpt lat="50.57636" lon="3.52851">
        <ele>63.1</ele>
        <time>2022-05-05T01:18:41Z</time>
      </trkpt>
      <trkpt lat="50.5764" lon="3.52857">
        <ele>63.2</ele>
        <time>2022-05-05T01:18:42Z</time>
      </trkpt>
      <trkpt lat="50.57645" lon="3.52863">
        <ele>63.3</ele>
        <time>2022-05-05T01:18:42Z</time>
      </trkpt>
      <trkpt lat="50.57649" lon="3.5287">
        <ele>63.4</ele>
        <time>2022-05-05T01:18:43Z</time>
      </trkpt>
      <trkpt lat="50.57653" lon="3.52877">
        <ele>63.3</ele>
        <time>2022-05-05T01:18:44Z</time>
      </trkpt>
      <trkpt lat="50.57658" lon="3.52883">
        <ele>63.3</ele>
        <time>2022-05-05T01:18:44Z</time>
      </trkpt>
      <trkpt lat="50.57662" lon="3.5289">
        <ele>63.3</ele>
        <time>2022-05-05T01:18:45Z</time>
      </trkpt>
      <trkpt lat="50.57666" lon="3.52898">
        <ele>63.3</ele>
        <time>2022-05-05T01:18:45Z</time>
      </trkpt>
      <trkpt lat="50.57671" lon="3.52906">
        <ele>63.2</ele>
        <time>2022-05-05T01:18:46Z</time>
      </trkpt>
      <trkpt lat="50.57675" lon="3.52914">
        <ele>63.1</ele>
        <time>2022-05-05T01:18:47Z</time>
      </trkpt>
      <trkpt lat="50.5768" lon="3.52921">
        <ele>62.9</ele>
        <time>2022-05-05T01:18:47Z</time>
      </trkpt>
      <trkpt lat="50.57685" lon="3.52928">
        <ele>62.8</ele>
        <time>2022-05-05T01:18:48Z</time>
      </trkpt>
      <trkpt lat="50.5769" lon="3.52934">
        <ele>62.5</ele>
        <time>2022-05-05T01:18:48Z</time>
      </trkpt>
      <trkpt lat="50.57694" lon="3.52941">
        <ele>62.5</ele>
        <time>2022-05-05T01:18:49Z</time>
      </trkpt>
      <trkpt lat="50.57699" lon="3.52947">
        <ele>62.5</ele>
        <time>2022-05-05T01:18:50Z</time>
      </trkpt>
      <trkpt lat="50.57703" lon="3.52953">
        <ele>62.6</ele>
        <time>2022-05-05T01:18:50Z</time>
      </trkpt>
      <trkpt lat="50.57707" lon="3.5296">
        <ele>62.7</ele>
        <time>2022-05-05T01:18:51Z</time>
      </trkpt>
      <trkpt lat="50.57712" lon="3.52967">
        <ele>62.8</ele>
        <time>2022-05-05T01:18:51Z</time>
      </trkpt>
      <trkpt lat="50.57717" lon="3.52974">
        <ele>62.9</ele>
        <time>2022-05-05T01:18:52Z</time>
      </trkpt>
      <trkpt lat="50.57721" lon="3.5298">
        <ele>63</ele>
        <time>2022-05-05T01:18:53Z</time>
      </trkpt>
      <trkpt lat="50.57726" lon="3.52987">
        <ele>63.2</ele>
        <time>2022-05-05T01:18:53Z</time>
      </trkpt>
      <trkpt lat="50.5773" lon="3.52995">
        <ele>63.3</ele>
        <time>2022-05-05T01:18:54Z</time>
      </trkpt>
      <trkpt lat="50.57735" lon="3.53003">
        <ele>63.4</ele>
        <time>2022-05-05T01:18:54Z</time>
      </trkpt>
      <trkpt lat="50.57739" lon="3.5301">
        <ele>63.4</ele>
        <time>2022-05-05T01:18:55Z</time>
      </trkpt>
      <trkpt lat="50.57743" lon="3.53018">
        <ele>63.5</ele>
        <time>2022-05-05T01:18:56Z</time>
      </trkpt>
      <trkpt lat="50.57748" lon="3.53024">
        <ele>63.5</ele>
        <time>2022-05-05T01:18:56Z</time>
      </trkpt>
      <trkpt lat="50.57752" lon="3.53029">
        <ele>63.5</ele>
        <time>2022-05-05T01:18:57Z</time>
      </trkpt>
      <trkpt lat="50.57756" lon="3.53035">
        <ele>63.5</ele>
        <time>2022-05-05T01:18:57Z</time>
      </trkpt>
      <trkpt lat="50.5776" lon="3.53041">
        <ele>63.6</ele>
        <time>2022-05-05T01:18:58Z</time>
      </trkpt>
      <trkpt lat="50.57764" lon="3.53047">
        <ele>63.6</ele>
        <time>2022-05-05T01:18:58Z</time>
      </trkpt>
      <trkpt lat="50.57768" lon="3.53053">
        <ele>63.6</ele>
        <time>2022-05-05T01:18:59Z</time>
      </trkpt>
      <trkpt lat="50.57772" lon="3.53058">
        <ele>63.6</ele>
        <time>2022-05-05T01:18:59Z</time>
      </trkpt>
      <trkpt lat="50.57776" lon="3.53064">
        <ele>63.6</ele>
        <time>2022-05-05T01:19:00Z</time>
      </trkpt>
      <trkpt lat="50.5778" lon="3.5307">
        <ele>63.5</ele>
        <time>2022-05-05T01:19:00Z</time>
      </trkpt>
      <trkpt lat="50.57784" lon="3.53075">
        <ele>63.5</ele>
        <time>2022-05-05T01:19:01Z</time>
      </trkpt>
      <trkpt lat="50.57788" lon="3.5308">
        <ele>63.5</ele>
        <time>2022-05-05T01:19:01Z</time>
      </trkpt>
      <trkpt lat="50.57792" lon="3.53086">
        <ele>63.5</ele>
        <time>2022-05-05T01:19:02Z</time>
      </trkpt>
      <trkpt lat="50.57794" lon="3.5309">
        <ele>63.5</ele>
        <time>2022-05-05T01:19:02Z</time>
      </trkpt>
      <trkpt lat="50.57798" lon="3.53096">
        <ele>63.5</ele>
        <time>2022-05-05T01:19:03Z</time>
      </trkpt>
      <trkpt lat="50.57803" lon="3.53102">
        <ele>63.4</ele>
        <time>2022-05-05T01:19:03Z</time>
      </trkpt>
      <trkpt lat="50.57809" lon="3.5311">
        <ele>63.4</ele>
        <time>2022-05-05T01:19:04Z</time>
      </trkpt>
      <trkpt lat="50.57814" lon="3.53117">
        <ele>63.5</ele>
        <time>2022-05-05T01:19:05Z</time>
      </trkpt>
      <trkpt lat="50.57819" lon="3.53124">
        <ele>63.6</ele>
        <time>2022-05-05T01:19:05Z</time>
      </trkpt>
      <trkpt lat="50.57823" lon="3.5313">
        <ele>63.6</ele>
        <time>2022-05-05T01:19:06Z</time>
      </trkpt>
      <trkpt lat="50.57827" lon="3.53134">
        <ele>63.7</ele>
        <time>2022-05-05T01:19:06Z</time>
      </trkpt>
      <trkpt lat="50.5783" lon="3.53139">
        <ele>63.7</ele>
        <time>2022-05-05T01:19:07Z</time>
      </trkpt>
      <trkpt lat="50.57832" lon="3.53143">
        <ele>63.6</ele>
        <time>2022-05-05T01:19:07Z</time>
      </trkpt>
      <trkpt lat="50.57836" lon="3.53149">
        <ele>63.6</ele>
        <time>2022-05-05T01:19:08Z</time>
      </trkpt>
      <trkpt lat="50.57839" lon="3.53155">
        <ele>63.6</ele>
        <time>2022-05-05T01:19:08Z</time>
      </trkpt>
      <trkpt lat="50.57844" lon="3.53161">
        <ele>63.6</ele>
        <time>2022-05-05T01:19:09Z</time>
      </trkpt>
      <trkpt lat="50.57848" lon="3.53168">
        <ele>63.6</ele>
        <time>2022-05-05T01:19:09Z</time>
      </trkpt>
      <trkpt lat="50.57854" lon="3.53177">
        <ele>63.5</ele>
        <time>2022-05-05T01:19:10Z</time>
      </trkpt>
      <trkpt lat="50.57862" lon="3.53187">
        <ele>63.5</ele>
        <time>2022-05-05T01:19:11Z</time>
      </trkpt>
      <trkpt lat="50.57868" lon="3.53196">
        <ele>63.5</ele>
        <time>2022-05-05T01:19:12Z</time>
      </trkpt>
      <trkpt lat="50.57876" lon="3.53208">
        <ele>63.6</ele>
        <time>2022-05-05T01:19:13Z</time>
      </trkpt>
      <trkpt lat="50.57883" lon="3.53222">
        <ele>63.7</ele>
        <time>2022-05-05T01:19:14Z</time>
      </trkpt>
      <trkpt lat="50.57889" lon="3.53232">
        <ele>63.6</ele>
        <time>2022-05-05T01:19:15Z</time>
      </trkpt>
      <trkpt lat="50.57895" lon="3.53242">
        <ele>63.6</ele>
        <time>2022-05-05T01:19:16Z</time>
      </trkpt>
      <trkpt lat="50.57902" lon="3.53253">
        <ele>63.6</ele>
        <time>2022-05-05T01:19:16Z</time>
      </trkpt>
      <trkpt lat="50.57909" lon="3.53265">
        <ele>63.5</ele>
        <time>2022-05-05T01:19:17Z</time>
      </trkpt>
      <trkpt lat="50.57915" lon="3.53277">
        <ele>63.5</ele>
        <time>2022-05-05T01:19:18Z</time>
      </trkpt>
      <trkpt lat="50.5792" lon="3.53287">
        <ele>63.5</ele>
        <time>2022-05-05T01:19:19Z</time>
      </trkpt>
      <trkpt lat="50.57926" lon="3.53296">
        <ele>63.5</ele>
        <time>2022-05-05T01:19:20Z</time>
      </trkpt>
      <trkpt lat="50.57931" lon="3.53305">
        <ele>63.5</ele>
        <time>2022-05-05T01:19:21Z</time>
      </trkpt>
      <trkpt lat="50.57936" lon="3.53314">
        <ele>63.5</ele>
        <time>2022-05-05T01:19:21Z</time>
      </trkpt>
      <trkpt lat="50.57941" lon="3.53322">
        <ele>63.5</ele>
        <time>2022-05-05T01:19:22Z</time>
      </trkpt>
      <trkpt lat="50.57945" lon="3.5333">
        <ele>63.5</ele>
        <time>2022-05-05T01:19:23Z</time>
      </trkpt>
      <trkpt lat="50.57949" lon="3.53338">
        <ele>63.5</ele>
        <time>2022-05-05T01:19:23Z</time>
      </trkpt>
      <trkpt lat="50.57953" lon="3.53344">
        <ele>63.5</ele>
        <time>2022-05-05T01:19:24Z</time>
      </trkpt>
      <trkpt lat="50.57957" lon="3.53346">
        <ele>63.5</ele>
        <time>2022-05-05T01:19:24Z</time>
      </trkpt>
      <trkpt lat="50.57962" lon="3.53348">
        <ele>63.5</ele>
        <time>2022-05-05T01:19:25Z</time>
      </trkpt>
      <trkpt lat="50.57967" lon="3.53345">
        <ele>63.5</ele>
        <time>2022-05-05T01:19:25Z</time>
      </trkpt>
      <trkpt lat="50.57972" lon="3.53341">
        <ele>63.5</ele>
        <time>2022-05-05T01:19:26Z</time>
      </trkpt>
      <trkpt lat="50.57977" lon="3.53335">
        <ele>63.5</ele>
        <time>2022-05-05T01:19:26Z</time>
      </trkpt>
      <trkpt lat="50.57982" lon="3.53329">
        <ele>63.5</ele>
        <time>2022-05-05T01:19:27Z</time>
      </trkpt>
      <trkpt lat="50.57987" lon="3.53322">
        <ele>63.5</ele>
        <time>2022-05-05T01:19:28Z</time>
      </trkpt>
      <trkpt lat="50.57994" lon="3.53315">
        <ele>63.6</ele>
        <time>2022-05-05T01:19:28Z</time>
      </trkpt>
      <trkpt lat="50.58001" lon="3.53308">
        <ele>63.7</ele>
        <time>2022-05-05T01:19:29Z</time>
      </trkpt>
      <trkpt lat="50.58009" lon="3.53299">
        <ele>64</ele>
        <time>2022-05-05T01:19:30Z</time>
      </trkpt>
      <trkpt lat="50.58016" lon="3.5329">
        <ele>64.2</ele>
        <time>2022-05-05T01:19:31Z</time>
      </trkpt>
      <trkpt lat="50.58022" lon="3.53282">
        <ele>64.3</ele>
        <time>2022-05-05T01:19:32Z</time>
      </trkpt>
      <trkpt lat="50.58028" lon="3.53275">
        <ele>64.4</ele>
        <time>2022-05-05T01:19:32Z</time>
      </trkpt>
      <trkpt lat="50.58033" lon="3.53269">
        <ele>64.4</ele>
        <time>2022-05-05T01:19:33Z</time>
      </trkpt>
      <trkpt lat="50.5804" lon="3.53267">
        <ele>64.5</ele>
        <time>2022-05-05T01:19:34Z</time>
      </trkpt>
      <trkpt lat="50.58048" lon="3.53267">
        <ele>64.7</ele>
        <time>2022-05-05T01:19:34Z</time>
      </trkpt>
      <trkpt lat="50.58057" lon="3.53268">
        <ele>64.9</ele>
        <time>2022-05-05T01:19:35Z</time>
      </trkpt>
      <trkpt lat="50.58066" lon="3.53268">
        <ele>65.1</ele>
        <time>2022-05-05T01:19:36Z</time>
      </trkpt>
      <trkpt lat="50.58075" lon="3.53268">
        <ele>65.2</ele>
        <time>2022-05-05T01:19:37Z</time>
      </trkpt>
      <trkpt lat="50.58083" lon="3.53269">
        <ele>65.3</ele>
        <time>2022-05-05T01:19:38Z</time>
      </trkpt>
      <trkpt lat="50.58093" lon="3.53269">
        <ele>65.4</ele>
        <time>2022-05-05T01:19:39Z</time>
      </trkpt>
      <trkpt lat="50.58104" lon="3.53269">
        <ele>65.4</ele>
        <time>2022-05-05T01:19:40Z</time>
      </trkpt>
      <trkpt lat="50.58115" lon="3.5327">
        <ele>65.5</ele>
        <time>2022-05-05T01:19:41Z</time>
      </trkpt>
      <trkpt lat="50.58127" lon="3.53271">
        <ele>65.5</ele>
        <time>2022-05-05T01:19:42Z</time>
      </trkpt>
      <trkpt lat="50.5814" lon="3.53272">
        <ele>65.5</ele>
        <time>2022-05-05T01:19:43Z</time>
      </trkpt>
      <trkpt lat="50.58153" lon="3.53272">
        <ele>65.5</ele>
        <time>2022-05-05T01:19:44Z</time>
      </trkpt>
      <trkpt lat="50.58166" lon="3.53271">
        <ele>65.5</ele>
        <time>2022-05-05T01:19:46Z</time>
      </trkpt>
      <trkpt lat="50.58177" lon="3.53272">
        <ele>65.5</ele>
        <time>2022-05-05T01:19:47Z</time>
      </trkpt>
      <trkpt lat="50.58188" lon="3.53271">
        <ele>65.5</ele>
        <time>2022-05-05T01:19:48Z</time>
      </trkpt>
      <trkpt lat="50.58197" lon="3.53272">
        <ele>65.5</ele>
        <time>2022-05-05T01:19:49Z</time>
      </trkpt>
      <trkpt lat="50.58205" lon="3.53275">
        <ele>65.5</ele>
        <time>2022-05-05T01:19:49Z</time>
      </trkpt>
      <trkpt lat="50.58212" lon="3.53277">
        <ele>65.5</ele>
        <time>2022-05-05T01:19:50Z</time>
      </trkpt>
      <trkpt lat="50.58219" lon="3.53279">
        <ele>65.5</ele>
        <time>2022-05-05T01:19:51Z</time>
      </trkpt>
      <trkpt lat="50.58225" lon="3.53281">
        <ele>65.5</ele>
        <time>2022-05-05T01:19:51Z</time>
      </trkpt>
      <trkpt lat="50.58229" lon="3.53284">
        <ele>65.4</ele>
        <time>2022-05-05T01:19:52Z</time>
      </trkpt>
      <trkpt lat="50.58233" lon="3.53286">
        <ele>65.3</ele>
        <time>2022-05-05T01:19:52Z</time>
      </trkpt>
      <trkpt lat="50.58236" lon="3.53287">
        <ele>65.2</ele>
        <time>2022-05-05T01:19:52Z</time>
      </trkpt>
      <trkpt lat="50.58253" lon="3.53268">
        <ele>64.5</ele>
        <time>2022-05-05T01:19:54Z</time>
      </trkpt>
      <trkpt lat="50.58253" lon="3.53257">
        <ele>64.5</ele>
        <time>2022-05-05T01:19:55Z</time>
      </trkpt>
      <trkpt lat="50.58254" lon="3.53245">
        <ele>64.5</ele>
        <time>2022-05-05T01:19:56Z</time>
      </trkpt>
      <trkpt lat="50.58257" lon="3.53232">
        <ele>64.5</ele>
        <time>2022-05-05T01:19:57Z</time>
      </trkpt>
      <trkpt lat="50.58259" lon="3.53217">
        <ele>64.5</ele>
        <time>2022-05-05T01:19:58Z</time>
      </trkpt>
      <trkpt lat="50.58256" lon="3.532">
        <ele>64.5</ele>
        <time>2022-05-05T01:19:59Z</time>
      </trkpt>
      <trkpt lat="50.58257" lon="3.53184">
        <ele>64.5</ele>
        <time>2022-05-05T01:20:00Z</time>
      </trkpt>
      <trkpt lat="50.58259" lon="3.5317">
        <ele>64.6</ele>
        <time>2022-05-05T01:20:01Z</time>
      </trkpt>
      <trkpt lat="50.58262" lon="3.53155">
        <ele>64.8</ele>
        <time>2022-05-05T01:20:01Z</time>
      </trkpt>
      <trkpt lat="50.58265" lon="3.53138">
        <ele>64.9</ele>
        <time>2022-05-05T01:20:03Z</time>
      </trkpt>
      <trkpt lat="50.58266" lon="3.5312">
        <ele>64.9</ele>
        <time>2022-05-05T01:20:04Z</time>
      </trkpt>
      <trkpt lat="50.58269" lon="3.53102">
        <ele>65.2</ele>
        <time>2022-05-05T01:20:05Z</time>
      </trkpt>
      <trkpt lat="50.58273" lon="3.53083">
        <ele>65.4</ele>
        <time>2022-05-05T01:20:06Z</time>
      </trkpt>
      <trkpt lat="50.58277" lon="3.53065">
        <ele>65.5</ele>
        <time>2022-05-05T01:20:07Z</time>
      </trkpt>
      <trkpt lat="50.58281" lon="3.53046">
        <ele>65.5</ele>
        <time>2022-05-05T01:20:08Z</time>
      </trkpt>
      <trkpt lat="50.58284" lon="3.53025">
        <ele>65.5</ele>
        <time>2022-05-05T01:20:10Z</time>
      </trkpt>
      <trkpt lat="50.58288" lon="3.53005">
        <ele>65.4</ele>
        <time>2022-05-05T01:20:11Z</time>
      </trkpt>
      <trkpt lat="50.58292" lon="3.52985">
        <ele>65.3</ele>
        <time>2022-05-05T01:20:12Z</time>
      </trkpt>
      <trkpt lat="50.58296" lon="3.52966">
        <ele>65.3</ele>
        <time>2022-05-05T01:20:13Z</time>
      </trkpt>
      <trkpt lat="50.58301" lon="3.52948">
        <ele>65.2</ele>
        <time>2022-05-05T01:20:15Z</time>
      </trkpt>
      <trkpt lat="50.58307" lon="3.52928">
        <ele>65.1</ele>
        <time>2022-05-05T01:20:16Z</time>
      </trkpt>
      <trkpt lat="50.58313" lon="3.52908">
        <ele>64.9</ele>
        <time>2022-05-05T01:20:17Z</time>
      </trkpt>
      <trkpt lat="50.58318" lon="3.52886">
        <ele>64.5</ele>
        <time>2022-05-05T01:20:19Z</time>
      </trkpt>
      <trkpt lat="50.58323" lon="3.52865">
        <ele>64.2</ele>
        <time>2022-05-05T01:20:20Z</time>
      </trkpt>
      <trkpt lat="50.58327" lon="3.52844">
        <ele>63.9</ele>
        <time>2022-05-05T01:20:21Z</time>
      </trkpt>
      <trkpt lat="50.58331" lon="3.52824">
        <ele>63.5</ele>
        <time>2022-05-05T01:20:23Z</time>
      </trkpt>
      <trkpt lat="50.58335" lon="3.52805">
        <ele>63.2</ele>
        <time>2022-05-05T01:20:24Z</time>
      </trkpt>
      <trkpt lat="50.58339" lon="3.52788">
        <ele>62.9</ele>
        <time>2022-05-05T01:20:25Z</time>
      </trkpt>
      <trkpt lat="50.58342" lon="3.52771">
        <ele>62.7</ele>
        <time>2022-05-05T01:20:26Z</time>
      </trkpt>
      <trkpt lat="50.58345" lon="3.52756">
        <ele>62.6</ele>
        <time>2022-05-05T01:20:27Z</time>
      </trkpt>
      <trkpt lat="50.58348" lon="3.52742">
        <ele>62.6</ele>
        <time>2022-05-05T01:20:28Z</time>
      </trkpt>
      <trkpt lat="50.58351" lon="3.52729">
        <ele>62.5</ele>
        <time>2022-05-05T01:20:29Z</time>
      </trkpt>
      <trkpt lat="50.58356" lon="3.52718">
        <ele>62.4</ele>
        <time>2022-05-05T01:20:29Z</time>
      </trkpt>
      <trkpt lat="50.58362" lon="3.52709">
        <ele>62.2</ele>
        <time>2022-05-05T01:20:30Z</time>
      </trkpt>
      <trkpt lat="50.58369" lon="3.52701">
        <ele>62</ele>
        <time>2022-05-05T01:20:31Z</time>
      </trkpt>
      <trkpt lat="50.58376" lon="3.52692">
        <ele>61.7</ele>
        <time>2022-05-05T01:20:32Z</time>
      </trkpt>
      <trkpt lat="50.58383" lon="3.52682">
        <ele>61.4</ele>
        <time>2022-05-05T01:20:33Z</time>
      </trkpt>
      <trkpt lat="50.58388" lon="3.5267">
        <ele>61.2</ele>
        <time>2022-05-05T01:20:34Z</time>
      </trkpt>
      <trkpt lat="50.58394" lon="3.52656">
        <ele>61</ele>
        <time>2022-05-05T01:20:35Z</time>
      </trkpt>
      <trkpt lat="50.58399" lon="3.52642">
        <ele>60.7</ele>
        <time>2022-05-05T01:20:36Z</time>
      </trkpt>
      <trkpt lat="50.58404" lon="3.52627">
        <ele>60.3</ele>
        <time>2022-05-05T01:20:37Z</time>
      </trkpt>
      <trkpt lat="50.58409" lon="3.52612">
        <ele>60.1</ele>
        <time>2022-05-05T01:20:38Z</time>
      </trkpt>
      <trkpt lat="50.58413" lon="3.52597">
        <ele>60</ele>
        <time>2022-05-05T01:20:39Z</time>
      </trkpt>
      <trkpt lat="50.58418" lon="3.52584">
        <ele>59.9</ele>
        <time>2022-05-05T01:20:40Z</time>
      </trkpt>
      <trkpt lat="50.58423" lon="3.5257">
        <ele>59.7</ele>
        <time>2022-05-05T01:20:41Z</time>
      </trkpt>
      <trkpt lat="50.58427" lon="3.52555">
        <ele>59.4</ele>
        <time>2022-05-05T01:20:42Z</time>
      </trkpt>
      <trkpt lat="50.58433" lon="3.5254">
        <ele>59.1</ele>
        <time>2022-05-05T01:20:43Z</time>
      </trkpt>
      <trkpt lat="50.58438" lon="3.52524">
        <ele>59</ele>
        <time>2022-05-05T01:20:44Z</time>
      </trkpt>
      <trkpt lat="50.58443" lon="3.5251">
        <ele>58.9</ele>
        <time>2022-05-05T01:20:45Z</time>
      </trkpt>
      <trkpt lat="50.58448" lon="3.52496">
        <ele>58.8</ele>
        <time>2022-05-05T01:20:46Z</time>
      </trkpt>
      <trkpt lat="50.58453" lon="3.52483">
        <ele>58.7</ele>
        <time>2022-05-05T01:20:47Z</time>
      </trkpt>
      <trkpt lat="50.58458" lon="3.5247">
        <ele>58.5</ele>
        <time>2022-05-05T01:20:47Z</time>
      </trkpt>
      <trkpt lat="50.58463" lon="3.52458">
        <ele>58.4</ele>
        <time>2022-05-05T01:20:48Z</time>
      </trkpt>
      <trkpt lat="50.58467" lon="3.52447">
        <ele>58.3</ele>
        <time>2022-05-05T01:20:49Z</time>
      </trkpt>
      <trkpt lat="50.58471" lon="3.52436">
        <ele>58.3</ele>
        <time>2022-05-05T01:20:50Z</time>
      </trkpt>
      <trkpt lat="50.58475" lon="3.52425">
        <ele>58.4</ele>
        <time>2022-05-05T01:20:51Z</time>
      </trkpt>
      <trkpt lat="50.58479" lon="3.52415">
        <ele>58.4</ele>
        <time>2022-05-05T01:20:51Z</time>
      </trkpt>
      <trkpt lat="50.58482" lon="3.52405">
        <ele>58.4</ele>
        <time>2022-05-05T01:20:52Z</time>
      </trkpt>
      <trkpt lat="50.58486" lon="3.52396">
        <ele>58.3</ele>
        <time>2022-05-05T01:20:53Z</time>
      </trkpt>
      <trkpt lat="50.58488" lon="3.52389">
        <ele>58.3</ele>
        <time>2022-05-05T01:20:53Z</time>
      </trkpt>
      <trkpt lat="50.58491" lon="3.52383">
        <ele>58.4</ele>
        <time>2022-05-05T01:20:54Z</time>
      </trkpt>
      <trkpt lat="50.58492" lon="3.52377">
        <ele>58.4</ele>
        <time>2022-05-05T01:20:54Z</time>
      </trkpt>
      <trkpt lat="50.58495" lon="3.52374">
        <ele>58.5</ele>
        <time>2022-05-05T01:20:54Z</time>
      </trkpt>
      <trkpt lat="50.58497" lon="3.52372">
        <ele>58.5</ele>
        <time>2022-05-05T01:20:55Z</time>
      </trkpt>
      <trkpt lat="50.58497" lon="3.52371">
        <ele>58.5</ele>
        <time>2022-05-05T01:20:55Z</time>
      </trkpt>
      <trkpt lat="50.58498" lon="3.52372">
        <ele>58.5</ele>
        <time>2022-05-05T01:20:55Z</time>
      </trkpt>
      <trkpt lat="50.58497" lon="3.52373">
        <ele>58.5</ele>
        <time>2022-05-05T01:20:55Z</time>
      </trkpt>
      <trkpt lat="50.58498" lon="3.52374">
        <ele>58.5</ele>
        <time>2022-05-05T01:20:55Z</time>
      </trkpt>
      <trkpt lat="50.58498" lon="3.52374">
        <ele>58.5</ele>
        <time>2022-05-05T01:20:55Z</time>
      </trkpt>
      <trkpt lat="50.58498" lon="3.52374">
        <ele>58.5</ele>
        <time>2022-05-05T01:20:55Z</time>
      </trkpt>
      <trkpt lat="50.58498" lon="3.52373">
        <ele>58.5</ele>
        <time>2022-05-05T01:20:55Z</time>
      </trkpt>
      <trkpt lat="50.58498" lon="3.52373">
        <ele>58.5</ele>
        <time>2022-05-05T01:20:55Z</time>
      </trkpt>
      <trkpt lat="50.58498" lon="3.52374">
        <ele>58.5</ele>
        <time>2022-05-05T01:20:55Z</time>
      </trkpt>
      <trkpt lat="50.58499" lon="3.52374">
        <ele>58.5</ele>
        <time>2022-05-05T01:20:55Z</time>
      </trkpt>
      <trkpt lat="50.58499" lon="3.52374">
        <ele>58.5</ele>
        <time>2022-05-05T01:20:55Z</time>
      </trkpt>
      <trkpt lat="50.58498" lon="3.52374">
        <ele>58.5</ele>
        <time>2022-05-05T01:20:55Z</time>
      </trkpt>
      <trkpt lat="50.58498" lon="3.52374">
        <ele>58.5</ele>
        <time>2022-05-05T01:20:55Z</time>
      </trkpt>
      <trkpt lat="50.58498" lon="3.52374">
        <ele>58.5</ele>
        <time>2022-05-05T01:20:55Z</time>
      </trkpt>
      <trkpt lat="50.58498" lon="3.52374">
        <ele>58.5</ele>
        <time>2022-05-05T01:20:55Z</time>
      </trkpt>
      <trkpt lat="50.58498" lon="3.52374">
        <ele>58.5</ele>
        <time>2022-05-05T01:20:55Z</time>
      </trkpt>
      <trkpt lat="50.58497" lon="3.52373">
        <ele>58.5</ele>
        <time>2022-05-05T01:20:55Z</time>
      </trkpt>
      <trkpt lat="50.58496" lon="3.52371">
        <ele>58.5</ele>
        <time>2022-05-05T01:20:56Z</time>
      </trkpt>
      <trkpt lat="50.58496" lon="3.52369">
        <ele>58.5</ele>
        <time>2022-05-05T01:20:56Z</time>
      </trkpt>
      <trkpt lat="50.58495" lon="3.52369">
        <ele>58.5</ele>
        <time>2022-05-05T01:20:56Z</time>
      </trkpt>
      <trkpt lat="50.58495" lon="3.52369">
        <ele>58.5</ele>
        <time>2022-05-05T01:20:56Z</time>
      </trkpt>
      <trkpt lat="50.58495" lon="3.52368">
        <ele>58.5</ele>
        <time>2022-05-05T01:20:56Z</time>
      </trkpt>
      <trkpt lat="50.58496" lon="3.52369">
        <ele>58.5</ele>
        <time>2022-05-05T01:20:56Z</time>
      </trkpt>
      <trkpt lat="50.58496" lon="3.52368">
        <ele>58.5</ele>
        <time>2022-05-05T01:20:56Z</time>
      </trkpt>
      <trkpt lat="50.58497" lon="3.52368">
        <ele>58.5</ele>
        <time>2022-05-05T01:20:56Z</time>
      </trkpt>
      <trkpt lat="50.58498" lon="3.52368">
        <ele>58.5</ele>
        <time>2022-05-05T01:20:56Z</time>
      </trkpt>
      <trkpt lat="50.585" lon="3.52368">
        <ele>58.5</ele>
        <time>2022-05-05T01:20:56Z</time>
      </trkpt>
      <trkpt lat="50.58503" lon="3.52368">
        <ele>58.5</ele>
        <time>2022-05-05T01:20:56Z</time>
      </trkpt>
      <trkpt lat="50.58506" lon="3.52371">
        <ele>58.5</ele>
        <time>2022-05-05T01:20:57Z</time>
      </trkpt>
      <trkpt lat="50.58509" lon="3.52378">
        <ele>58.5</ele>
        <time>2022-05-05T01:20:57Z</time>
      </trkpt>
      <trkpt lat="50.58513" lon="3.52385">
        <ele>58.5</ele>
        <time>2022-05-05T01:20:58Z</time>
      </trkpt>
      <trkpt lat="50.58517" lon="3.52393">
        <ele>58.5</ele>
        <time>2022-05-05T01:20:58Z</time>
      </trkpt>
      <trkpt lat="50.58522" lon="3.52399">
        <ele>58.5</ele>
        <time>2022-05-05T01:20:59Z</time>
      </trkpt>
      <trkpt lat="50.58526" lon="3.52407">
        <ele>58.3</ele>
        <time>2022-05-05T01:21:00Z</time>
      </trkpt>
      <trkpt lat="50.58531" lon="3.52414">
        <ele>58.2</ele>
        <time>2022-05-05T01:21:00Z</time>
      </trkpt>
      <trkpt lat="50.58536" lon="3.52421">
        <ele>58</ele>
        <time>2022-05-05T01:21:01Z</time>
      </trkpt>
      <trkpt lat="50.58542" lon="3.52429">
        <ele>57.8</ele>
        <time>2022-05-05T01:21:02Z</time>
      </trkpt>
      <trkpt lat="50.58548" lon="3.52436">
        <ele>57.7</ele>
        <time>2022-05-05T01:21:02Z</time>
      </trkpt>
      <trkpt lat="50.58554" lon="3.52446">
        <ele>57.6</ele>
        <time>2022-05-05T01:21:03Z</time>
      </trkpt>
      <trkpt lat="50.58561" lon="3.52455">
        <ele>57.6</ele>
        <time>2022-05-05T01:21:04Z</time>
      </trkpt>
      <trkpt lat="50.58567" lon="3.52463">
        <ele>57.5</ele>
        <time>2022-05-05T01:21:05Z</time>
      </trkpt>
      <trkpt lat="50.58574" lon="3.52471">
        <ele>57.5</ele>
        <time>2022-05-05T01:21:06Z</time>
      </trkpt>
      <trkpt lat="50.58581" lon="3.5248">
        <ele>57.5</ele>
        <time>2022-05-05T01:21:06Z</time>
      </trkpt>
      <trkpt lat="50.58588" lon="3.52486">
        <ele>57.5</ele>
        <time>2022-05-05T01:21:07Z</time>
      </trkpt>
      <trkpt lat="50.58595" lon="3.52493">
        <ele>57.5</ele>
        <time>2022-05-05T01:21:08Z</time>
      </trkpt>
      <trkpt lat="50.58601" lon="3.52501">
        <ele>57.5</ele>
        <time>2022-05-05T01:21:09Z</time>
      </trkpt>
      <trkpt lat="50.58607" lon="3.52507">
        <ele>57.5</ele>
        <time>2022-05-05T01:21:10Z</time>
      </trkpt>
      <trkpt lat="50.58613" lon="3.52515">
        <ele>57.4</ele>
        <time>2022-05-05T01:21:10Z</time>
      </trkpt>
      <trkpt lat="50.58618" lon="3.52525">
        <ele>57.3</ele>
        <time>2022-05-05T01:21:11Z</time>
      </trkpt>
      <trkpt lat="50.58623" lon="3.52534">
        <ele>57.1</ele>
        <time>2022-05-05T01:21:12Z</time>
      </trkpt>
      <trkpt lat="50.58629" lon="3.52541">
        <ele>57</ele>
        <time>2022-05-05T01:21:12Z</time>
      </trkpt>
      <trkpt lat="50.58634" lon="3.52548">
        <ele>57.1</ele>
        <time>2022-05-05T01:21:13Z</time>
      </trkpt>
      <trkpt lat="50.58639" lon="3.52553">
        <ele>57.2</ele>
        <time>2022-05-05T01:21:14Z</time>
      </trkpt>
      <trkpt lat="50.58644" lon="3.5256">
        <ele>57.3</ele>
        <time>2022-05-05T01:21:14Z</time>
      </trkpt>
      <trkpt lat="50.5865" lon="3.52566">
        <ele>57.3</ele>
        <time>2022-05-05T01:21:15Z</time>
      </trkpt>
      <trkpt lat="50.58656" lon="3.52573">
        <ele>57.3</ele>
        <time>2022-05-05T01:21:16Z</time>
      </trkpt>
      <trkpt lat="50.58663" lon="3.52582">
        <ele>57.3</ele>
        <time>2022-05-05T01:21:17Z</time>
      </trkpt>
      <trkpt lat="50.5867" lon="3.52591">
        <ele>57.3</ele>
        <time>2022-05-05T01:21:17Z</time>
      </trkpt>
      <trkpt lat="50.58678" lon="3.52601">
        <ele>57.3</ele>
        <time>2022-05-05T01:21:18Z</time>
      </trkpt>
      <trkpt lat="50.58687" lon="3.52611">
        <ele>57.4</ele>
        <time>2022-05-05T01:21:19Z</time>
      </trkpt>
      <trkpt lat="50.58695" lon="3.52621">
        <ele>57.6</ele>
        <time>2022-05-05T01:21:20Z</time>
      </trkpt>
      <trkpt lat="50.58704" lon="3.52632">
        <ele>57.8</ele>
        <time>2022-05-05T01:21:21Z</time>
      </trkpt>
      <trkpt lat="50.58713" lon="3.52642">
        <ele>57.9</ele>
        <time>2022-05-05T01:21:23Z</time>
      </trkpt>
      <trkpt lat="50.58722" lon="3.52652">
        <ele>58</ele>
        <time>2022-05-05T01:21:24Z</time>
      </trkpt>
      <trkpt lat="50.5873" lon="3.52661">
        <ele>58.2</ele>
        <time>2022-05-05T01:21:25Z</time>
      </trkpt>
      <trkpt lat="50.58738" lon="3.52671">
        <ele>58.4</ele>
        <time>2022-05-05T01:21:25Z</time>
      </trkpt>
      <trkpt lat="50.58747" lon="3.52682">
        <ele>58.7</ele>
        <time>2022-05-05T01:21:27Z</time>
      </trkpt>
      <trkpt lat="50.58758" lon="3.52695">
        <ele>58.9</ele>
        <time>2022-05-05T01:21:28Z</time>
      </trkpt>
      <trkpt lat="50.5877" lon="3.5271">
        <ele>59.1</ele>
        <time>2022-05-05T01:21:29Z</time>
      </trkpt>
      <trkpt lat="50.58782" lon="3.52725">
        <ele>59.3</ele>
        <time>2022-05-05T01:21:31Z</time>
      </trkpt>
      <trkpt lat="50.58794" lon="3.52739">
        <ele>59.4</ele>
        <time>2022-05-05T01:21:32Z</time>
      </trkpt>
      <trkpt lat="50.58805" lon="3.52754">
        <ele>59.6</ele>
        <time>2022-05-05T01:21:34Z</time>
      </trkpt>
      <trkpt lat="50.58816" lon="3.52767">
        <ele>59.9</ele>
        <time>2022-05-05T01:21:35Z</time>
      </trkpt>
      <trkpt lat="50.58827" lon="3.52779">
        <ele>60.3</ele>
        <time>2022-05-05T01:21:36Z</time>
      </trkpt>
      <trkpt lat="50.58838" lon="3.52791">
        <ele>60.6</ele>
        <time>2022-05-05T01:21:37Z</time>
      </trkpt>
      <trkpt lat="50.58848" lon="3.52803">
        <ele>61.1</ele>
        <time>2022-05-05T01:21:39Z</time>
      </trkpt>
      <trkpt lat="50.58857" lon="3.52815">
        <ele>61.6</ele>
        <time>2022-05-05T01:21:40Z</time>
      </trkpt>
      <trkpt lat="50.58866" lon="3.52825">
        <ele>62.2</ele>
        <time>2022-05-05T01:21:41Z</time>
      </trkpt>
      <trkpt lat="50.58875" lon="3.52835">
        <ele>62.7</ele>
        <time>2022-05-05T01:21:42Z</time>
      </trkpt>
      <trkpt lat="50.58883" lon="3.52845">
        <ele>63.2</ele>
        <time>2022-05-05T01:21:43Z</time>
      </trkpt>
      <trkpt lat="50.58892" lon="3.52855">
        <ele>63.7</ele>
        <time>2022-05-05T01:21:44Z</time>
      </trkpt>
      <trkpt lat="50.589" lon="3.52865">
        <ele>64.3</ele>
        <time>2022-05-05T01:21:45Z</time>
      </trkpt>
      <trkpt lat="50.58907" lon="3.52873">
        <ele>65</ele>
        <time>2022-05-05T01:21:46Z</time>
      </trkpt>
      <trkpt lat="50.58914" lon="3.52881">
        <ele>65.7</ele>
        <time>2022-05-05T01:21:47Z</time>
      </trkpt>
      <trkpt lat="50.58922" lon="3.52889">
        <ele>66.3</ele>
        <time>2022-05-05T01:21:47Z</time>
      </trkpt>
      <trkpt lat="50.58929" lon="3.52898">
        <ele>66.8</ele>
        <time>2022-05-05T01:21:48Z</time>
      </trkpt>
      <trkpt lat="50.58937" lon="3.52908">
        <ele>67.4</ele>
        <time>2022-05-05T01:21:49Z</time>
      </trkpt>
      <trkpt lat="50.58945" lon="3.52918">
        <ele>68</ele>
        <time>2022-05-05T01:21:50Z</time>
      </trkpt>
      <trkpt lat="50.58953" lon="3.52928">
        <ele>68.5</ele>
        <time>2022-05-05T01:21:51Z</time>
      </trkpt>
      <trkpt lat="50.58962" lon="3.5294">
        <ele>68.9</ele>
        <time>2022-05-05T01:21:52Z</time>
      </trkpt>
      <trkpt lat="50.58971" lon="3.52952">
        <ele>69.3</ele>
        <time>2022-05-05T01:21:53Z</time>
      </trkpt>
      <trkpt lat="50.58981" lon="3.52965">
        <ele>69.7</ele>
        <time>2022-05-05T01:21:55Z</time>
      </trkpt>
      <trkpt lat="50.58991" lon="3.52978">
        <ele>70.2</ele>
        <time>2022-05-05T01:21:56Z</time>
      </trkpt>
      <trkpt lat="50.59001" lon="3.5299">
        <ele>70.7</ele>
        <time>2022-05-05T01:21:57Z</time>
      </trkpt>
      <trkpt lat="50.59011" lon="3.53001">
        <ele>71.2</ele>
        <time>2022-05-05T01:21:58Z</time>
      </trkpt>
      <trkpt lat="50.59019" lon="3.53011">
        <ele>71.6</ele>
        <time>2022-05-05T01:21:59Z</time>
      </trkpt>
      <trkpt lat="50.59025" lon="3.53018">
        <ele>71.9</ele>
        <time>2022-05-05T01:22:00Z</time>
      </trkpt>
      <trkpt lat="50.59032" lon="3.53025">
        <ele>72.2</ele>
        <time>2022-05-05T01:22:01Z</time>
      </trkpt>
      <trkpt lat="50.59038" lon="3.53032">
        <ele>72.4</ele>
        <time>2022-05-05T01:22:01Z</time>
      </trkpt>
      <trkpt lat="50.59043" lon="3.53039">
        <ele>72.4</ele>
        <time>2022-05-05T01:22:02Z</time>
      </trkpt>
      <trkpt lat="50.59048" lon="3.53045">
        <ele>72.3</ele>
        <time>2022-05-05T01:22:03Z</time>
      </trkpt>
      <trkpt lat="50.59053" lon="3.53052">
        <ele>72.1</ele>
        <time>2022-05-05T01:22:03Z</time>
      </trkpt>
      <trkpt lat="50.59056" lon="3.5306">
        <ele>72</ele>
        <time>2022-05-05T01:22:04Z</time>
      </trkpt>
      <trkpt lat="50.59056" lon="3.53068">
        <ele>71.7</ele>
        <time>2022-05-05T01:22:04Z</time>
      </trkpt>
      <trkpt lat="50.59055" lon="3.53078">
        <ele>71.5</ele>
        <time>2022-05-05T01:22:05Z</time>
      </trkpt>
      <trkpt lat="50.59053" lon="3.53089">
        <ele>71.2</ele>
        <time>2022-05-05T01:22:06Z</time>
      </trkpt>
      <trkpt lat="50.5905" lon="3.53101">
        <ele>70.9</ele>
        <time>2022-05-05T01:22:06Z</time>
      </trkpt>
      <trkpt lat="50.59046" lon="3.53115">
        <ele>70.5</ele>
        <time>2022-05-05T01:22:07Z</time>
      </trkpt>
      <trkpt lat="50.59043" lon="3.5313">
        <ele>70.1</ele>
        <time>2022-05-05T01:22:08Z</time>
      </trkpt>
      <trkpt lat="50.59039" lon="3.53146">
        <ele>69.8</ele>
        <time>2022-05-05T01:22:09Z</time>
      </trkpt>
      <trkpt lat="50.59036" lon="3.5316">
        <ele>69.5</ele>
        <time>2022-05-05T01:22:10Z</time>
      </trkpt>
      <trkpt lat="50.59034" lon="3.53171">
        <ele>69.2</ele>
        <time>2022-05-05T01:22:11Z</time>
      </trkpt>
      <trkpt lat="50.59032" lon="3.5318">
        <ele>68.9</ele>
        <time>2022-05-05T01:22:12Z</time>
      </trkpt>
      <trkpt lat="50.59029" lon="3.53186">
        <ele>68.7</ele>
        <time>2022-05-05T01:22:12Z</time>
      </trkpt>
      <trkpt lat="50.59027" lon="3.5319">
        <ele>68.6</ele>
        <time>2022-05-05T01:22:12Z</time>
      </trkpt>
      <trkpt lat="50.59027" lon="3.53194">
        <ele>68.6</ele>
        <time>2022-05-05T01:22:12Z</time>
      </trkpt>
      <trkpt lat="50.59027" lon="3.53197">
        <ele>68.5</ele>
        <time>2022-05-05T01:22:13Z</time>
      </trkpt>
      <trkpt lat="50.59028" lon="3.532">
        <ele>68.5</ele>
        <time>2022-05-05T01:22:13Z</time>
      </trkpt>
      <trkpt lat="50.59032" lon="3.53202">
        <ele>68.4</ele>
        <time>2022-05-05T01:22:13Z</time>
      </trkpt>
      <trkpt lat="50.59038" lon="3.53203">
        <ele>68.3</ele>
        <time>2022-05-05T01:22:14Z</time>
      </trkpt>
      <trkpt lat="50.59044" lon="3.53204">
        <ele>68.2</ele>
        <time>2022-05-05T01:22:14Z</time>
      </trkpt>
      <trkpt lat="50.59052" lon="3.53207">
        <ele>68</ele>
        <time>2022-05-05T01:22:15Z</time>
      </trkpt>
      <trkpt lat="50.5906" lon="3.53209">
        <ele>67.9</ele>
        <time>2022-05-05T01:22:16Z</time>
      </trkpt>
      <trkpt lat="50.59068" lon="3.5321">
        <ele>67.7</ele>
        <time>2022-05-05T01:22:17Z</time>
      </trkpt>
      <trkpt lat="50.59077" lon="3.53212">
        <ele>67.5</ele>
        <time>2022-05-05T01:22:18Z</time>
      </trkpt>
      <trkpt lat="50.59086" lon="3.53214">
        <ele>67.2</ele>
        <time>2022-05-05T01:22:18Z</time>
      </trkpt>
      <trkpt lat="50.59096" lon="3.53216">
        <ele>66.9</ele>
        <time>2022-05-05T01:22:19Z</time>
      </trkpt>
      <trkpt lat="50.59105" lon="3.53218">
        <ele>66.6</ele>
        <time>2022-05-05T01:22:20Z</time>
      </trkpt>
      <trkpt lat="50.59113" lon="3.53218">
        <ele>66.4</ele>
        <time>2022-05-05T01:22:21Z</time>
      </trkpt>
      <trkpt lat="50.5912" lon="3.5322">
        <ele>66.1</ele>
        <time>2022-05-05T01:22:22Z</time>
      </trkpt>
      <trkpt lat="50.59128" lon="3.5322">
        <ele>65.9</ele>
        <time>2022-05-05T01:22:22Z</time>
      </trkpt>
      <trkpt lat="50.59135" lon="3.53222">
        <ele>65.8</ele>
        <time>2022-05-05T01:22:23Z</time>
      </trkpt>
      <trkpt lat="50.59141" lon="3.53223">
        <ele>65.7</ele>
        <time>2022-05-05T01:22:24Z</time>
      </trkpt>
      <trkpt lat="50.59147" lon="3.53222">
        <ele>65.6</ele>
        <time>2022-05-05T01:22:24Z</time>
      </trkpt>
      <trkpt lat="50.59152" lon="3.53221">
        <ele>65.6</ele>
        <time>2022-05-05T01:22:25Z</time>
      </trkpt>
      <trkpt lat="50.59157" lon="3.53217">
        <ele>65.6</ele>
        <time>2022-05-05T01:22:25Z</time>
      </trkpt>
      <trkpt lat="50.59161" lon="3.53214">
        <ele>65.6</ele>
        <time>2022-05-05T01:22:26Z</time>
      </trkpt>
      <trkpt lat="50.59164" lon="3.53209">
        <ele>65.6</ele>
        <time>2022-05-05T01:22:26Z</time>
      </trkpt>
      <trkpt lat="50.59166" lon="3.53203">
        <ele>65.6</ele>
        <time>2022-05-05T01:22:27Z</time>
      </trkpt>
      <trkpt lat="50.59166" lon="3.53195">
        <ele>65.5</ele>
        <time>2022-05-05T01:22:27Z</time>
      </trkpt>
      <trkpt lat="50.59167" lon="3.53185">
        <ele>65.5</ele>
        <time>2022-05-05T01:22:28Z</time>
      </trkpt>
      <trkpt lat="50.59167" lon="3.53175">
        <ele>65.6</ele>
        <time>2022-05-05T01:22:28Z</time>
      </trkpt>
      <trkpt lat="50.59169" lon="3.53165">
        <ele>65.8</ele>
        <time>2022-05-05T01:22:29Z</time>
      </trkpt>
      <trkpt lat="50.5917" lon="3.53155">
        <ele>66</ele>
        <time>2022-05-05T01:22:29Z</time>
      </trkpt>
      <trkpt lat="50.59171" lon="3.53145">
        <ele>66.2</ele>
        <time>2022-05-05T01:22:30Z</time>
      </trkpt>
      <trkpt lat="50.59171" lon="3.53135">
        <ele>66.2</ele>
        <time>2022-05-05T01:22:31Z</time>
      </trkpt>
      <trkpt lat="50.59172" lon="3.53126">
        <ele>66.3</ele>
        <time>2022-05-05T01:22:31Z</time>
      </trkpt>
      <trkpt lat="50.59173" lon="3.53116">
        <ele>66.5</ele>
        <time>2022-05-05T01:22:32Z</time>
      </trkpt>
      <trkpt lat="50.59173" lon="3.53107">
        <ele>66.7</ele>
        <time>2022-05-05T01:22:32Z</time>
      </trkpt>
      <trkpt lat="50.59174" lon="3.53098">
        <ele>66.9</ele>
        <time>2022-05-05T01:22:33Z</time>
      </trkpt>
      <trkpt lat="50.59175" lon="3.5309">
        <ele>67</ele>
        <time>2022-05-05T01:22:33Z</time>
      </trkpt>
      <trkpt lat="50.59175" lon="3.53081">
        <ele>67.1</ele>
        <time>2022-05-05T01:22:34Z</time>
      </trkpt>
      <trkpt lat="50.59175" lon="3.53072">
        <ele>67.2</ele>
        <time>2022-05-05T01:22:35Z</time>
      </trkpt>
      <trkpt lat="50.59175" lon="3.53063">
        <ele>67.3</ele>
        <time>2022-05-05T01:22:35Z</time>
      </trkpt>
      <trkpt lat="50.59176" lon="3.53055">
        <ele>67.5</ele>
        <time>2022-05-05T01:22:36Z</time>
      </trkpt>
      <trkpt lat="50.59176" lon="3.53046">
        <ele>67.8</ele>
        <time>2022-05-05T01:22:36Z</time>
      </trkpt>
      <trkpt lat="50.59178" lon="3.53037">
        <ele>67.9</ele>
        <time>2022-05-05T01:22:37Z</time>
      </trkpt>
      <trkpt lat="50.59179" lon="3.53029">
        <ele>68</ele>
        <time>2022-05-05T01:22:37Z</time>
      </trkpt>
      <trkpt lat="50.5918" lon="3.53021">
        <ele>68</ele>
        <time>2022-05-05T01:22:38Z</time>
      </trkpt>
      <trkpt lat="50.59181" lon="3.53014">
        <ele>68.1</ele>
        <time>2022-05-05T01:22:38Z</time>
      </trkpt>
      <trkpt lat="50.59183" lon="3.53006">
        <ele>68.1</ele>
        <time>2022-05-05T01:22:39Z</time>
      </trkpt>
      <trkpt lat="50.59184" lon="3.52998">
        <ele>68.2</ele>
        <time>2022-05-05T01:22:39Z</time>
      </trkpt>
      <trkpt lat="50.59185" lon="3.5299">
        <ele>68.2</ele>
        <time>2022-05-05T01:22:40Z</time>
      </trkpt>
      <trkpt lat="50.59186" lon="3.52983">
        <ele>68.3</ele>
        <time>2022-05-05T01:22:40Z</time>
      </trkpt>
      <trkpt lat="50.59186" lon="3.52975">
        <ele>68.4</ele>
        <time>2022-05-05T01:22:40Z</time>
      </trkpt>
      <trkpt lat="50.59186" lon="3.52968">
        <ele>68.5</ele>
        <time>2022-05-05T01:22:41Z</time>
      </trkpt>
      <trkpt lat="50.59187" lon="3.52961">
        <ele>68.6</ele>
        <time>2022-05-05T01:22:41Z</time>
      </trkpt>
      <trkpt lat="50.59186" lon="3.52952">
        <ele>68.7</ele>
        <time>2022-05-05T01:22:42Z</time>
      </trkpt>
      <trkpt lat="50.59188" lon="3.52943">
        <ele>68.7</ele>
        <time>2022-05-05T01:22:42Z</time>
      </trkpt>
      <trkpt lat="50.59188" lon="3.52934">
        <ele>68.7</ele>
        <time>2022-05-05T01:22:43Z</time>
      </trkpt>
      <trkpt lat="50.59189" lon="3.52925">
        <ele>68.7</ele>
        <time>2022-05-05T01:22:44Z</time>
      </trkpt>
      <trkpt lat="50.59189" lon="3.52916">
        <ele>68.7</ele>
        <time>2022-05-05T01:22:44Z</time>
      </trkpt>
      <trkpt lat="50.59189" lon="3.52908">
        <ele>68.7</ele>
        <time>2022-05-05T01:22:45Z</time>
      </trkpt>
      <trkpt lat="50.5919" lon="3.52899">
        <ele>68.8</ele>
        <time>2022-05-05T01:22:45Z</time>
      </trkpt>
      <trkpt lat="50.59192" lon="3.5289">
        <ele>69</ele>
        <time>2022-05-05T01:22:46Z</time>
      </trkpt>
      <trkpt lat="50.59192" lon="3.5288">
        <ele>69.2</ele>
        <time>2022-05-05T01:22:46Z</time>
      </trkpt>
      <trkpt lat="50.59194" lon="3.5287">
        <ele>69.4</ele>
        <time>2022-05-05T01:22:47Z</time>
      </trkpt>
      <trkpt lat="50.59195" lon="3.52859">
        <ele>69.7</ele>
        <time>2022-05-05T01:22:48Z</time>
      </trkpt>
      <trkpt lat="50.59196" lon="3.52848">
        <ele>70</ele>
        <time>2022-05-05T01:22:48Z</time>
      </trkpt>
      <trkpt lat="50.59197" lon="3.52837">
        <ele>70.1</ele>
        <time>2022-05-05T01:22:49Z</time>
      </trkpt>
      <trkpt lat="50.59197" lon="3.52826">
        <ele>70.2</ele>
        <time>2022-05-05T01:22:50Z</time>
      </trkpt>
      <trkpt lat="50.59198" lon="3.52816">
        <ele>70.3</ele>
        <time>2022-05-05T01:22:50Z</time>
      </trkpt>
      <trkpt lat="50.59198" lon="3.52806">
        <ele>70.3</ele>
        <time>2022-05-05T01:22:51Z</time>
      </trkpt>
      <trkpt lat="50.59199" lon="3.52796">
        <ele>70.3</ele>
        <time>2022-05-05T01:22:51Z</time>
      </trkpt>
      <trkpt lat="50.592" lon="3.52787">
        <ele>70.4</ele>
        <time>2022-05-05T01:22:52Z</time>
      </trkpt>
      <trkpt lat="50.59201" lon="3.52777">
        <ele>70.6</ele>
        <time>2022-05-05T01:22:53Z</time>
      </trkpt>
      <trkpt lat="50.59202" lon="3.52766">
        <ele>70.9</ele>
        <time>2022-05-05T01:22:53Z</time>
      </trkpt>
      <trkpt lat="50.59203" lon="3.52756">
        <ele>71</ele>
        <time>2022-05-05T01:22:54Z</time>
      </trkpt>
      <trkpt lat="50.59204" lon="3.52745">
        <ele>71.1</ele>
        <time>2022-05-05T01:22:55Z</time>
      </trkpt>
      <trkpt lat="50.59205" lon="3.52734">
        <ele>71.1</ele>
        <time>2022-05-05T01:22:55Z</time>
      </trkpt>
      <trkpt lat="50.59206" lon="3.52722">
        <ele>71.1</ele>
        <time>2022-05-05T01:22:56Z</time>
      </trkpt>
      <trkpt lat="50.59207" lon="3.52711">
        <ele>71.1</ele>
        <time>2022-05-05T01:22:57Z</time>
      </trkpt>
      <trkpt lat="50.59208" lon="3.52701">
        <ele>71.2</ele>
        <time>2022-05-05T01:22:57Z</time>
      </trkpt>
      <trkpt lat="50.59209" lon="3.5269">
        <ele>71.4</ele>
        <time>2022-05-05T01:22:58Z</time>
      </trkpt>
      <trkpt lat="50.5921" lon="3.5268">
        <ele>71.6</ele>
        <time>2022-05-05T01:22:59Z</time>
      </trkpt>
      <trkpt lat="50.5921" lon="3.52669">
        <ele>71.8</ele>
        <time>2022-05-05T01:22:59Z</time>
      </trkpt>
      <trkpt lat="50.59211" lon="3.52659">
        <ele>71.8</ele>
        <time>2022-05-05T01:23:00Z</time>
      </trkpt>
      <trkpt lat="50.59212" lon="3.52648">
        <ele>71.8</ele>
        <time>2022-05-05T01:23:00Z</time>
      </trkpt>
      <trkpt lat="50.59213" lon="3.52638">
        <ele>71.9</ele>
        <time>2022-05-05T01:23:01Z</time>
      </trkpt>
      <trkpt lat="50.59214" lon="3.52627">
        <ele>71.9</ele>
        <time>2022-05-05T01:23:02Z</time>
      </trkpt>
      <trkpt lat="50.59215" lon="3.52617">
        <ele>72</ele>
        <time>2022-05-05T01:23:02Z</time>
      </trkpt>
      <trkpt lat="50.59216" lon="3.52606">
        <ele>72.2</ele>
        <time>2022-05-05T01:23:03Z</time>
      </trkpt>
      <trkpt lat="50.59217" lon="3.52596">
        <ele>72.4</ele>
        <time>2022-05-05T01:23:04Z</time>
      </trkpt>
      <trkpt lat="50.59218" lon="3.52587">
        <ele>72.5</ele>
        <time>2022-05-05T01:23:04Z</time>
      </trkpt>
      <trkpt lat="50.59219" lon="3.52579">
        <ele>72.6</ele>
        <time>2022-05-05T01:23:05Z</time>
      </trkpt>
      <trkpt lat="50.59219" lon="3.52574">
        <ele>72.6</ele>
        <time>2022-05-05T01:23:05Z</time>
      </trkpt>
      <trkpt lat="50.5922" lon="3.52569">
        <ele>72.6</ele>
        <time>2022-05-05T01:23:05Z</time>
      </trkpt>
      <trkpt lat="50.59221" lon="3.52565">
        <ele>72.6</ele>
        <time>2022-05-05T01:23:06Z</time>
      </trkpt>
      <trkpt lat="50.59221" lon="3.5256">
        <ele>72.6</ele>
        <time>2022-05-05T01:23:06Z</time>
      </trkpt>
      <trkpt lat="50.59224" lon="3.52558">
        <ele>72.6</ele>
        <time>2022-05-05T01:23:06Z</time>
      </trkpt>
      <trkpt lat="50.59228" lon="3.52563">
        <ele>72.5</ele>
        <time>2022-05-05T01:23:07Z</time>
      </trkpt>
      <trkpt lat="50.59233" lon="3.52567">
        <ele>72.4</ele>
        <time>2022-05-05T01:23:07Z</time>
      </trkpt>
      <trkpt lat="50.59239" lon="3.52572">
        <ele>72.3</ele>
        <time>2022-05-05T01:23:08Z</time>
      </trkpt>
      <trkpt lat="50.59244" lon="3.52577">
        <ele>72.2</ele>
        <time>2022-05-05T01:23:08Z</time>
      </trkpt>
      <trkpt lat="50.59251" lon="3.52582">
        <ele>72</ele>
        <time>2022-05-05T01:23:09Z</time>
      </trkpt>
      <trkpt lat="50.5926" lon="3.52587">
        <ele>71.8</ele>
        <time>2022-05-05T01:23:10Z</time>
      </trkpt>
      <trkpt lat="50.59269" lon="3.52592">
        <ele>71.5</ele>
        <time>2022-05-05T01:23:11Z</time>
      </trkpt>
      <trkpt lat="50.59278" lon="3.52597">
        <ele>71.2</ele>
        <time>2022-05-05T01:23:12Z</time>
      </trkpt>
      <trkpt lat="50.59287" lon="3.526">
        <ele>70.8</ele>
        <time>2022-05-05T01:23:13Z</time>
      </trkpt>
      <trkpt lat="50.59297" lon="3.52605">
        <ele>70.3</ele>
        <time>2022-05-05T01:23:14Z</time>
      </trkpt>
      <trkpt lat="50.59306" lon="3.5261">
        <ele>69.9</ele>
        <time>2022-05-05T01:23:15Z</time>
      </trkpt>
      <trkpt lat="50.59317" lon="3.52616">
        <ele>69.4</ele>
        <time>2022-05-05T01:23:16Z</time>
      </trkpt>
      <trkpt lat="50.59328" lon="3.52622">
        <ele>69</ele>
        <time>2022-05-05T01:23:17Z</time>
      </trkpt>
      <trkpt lat="50.59337" lon="3.52629">
        <ele>68.7</ele>
        <time>2022-05-05T01:23:18Z</time>
      </trkpt>
      <trkpt lat="50.59347" lon="3.52635">
        <ele>68.4</ele>
        <time>2022-05-05T01:23:19Z</time>
      </trkpt>
      <trkpt lat="50.59356" lon="3.52643">
        <ele>68.1</ele>
        <time>2022-05-05T01:23:20Z</time>
      </trkpt>
      <trkpt lat="50.59364" lon="3.5265">
        <ele>67.9</ele>
        <time>2022-05-05T01:23:21Z</time>
      </trkpt>
      <trkpt lat="50.59371" lon="3.52658">
        <ele>67.7</ele>
        <time>2022-05-05T01:23:21Z</time>
      </trkpt>
      <trkpt lat="50.59378" lon="3.52663">
        <ele>67.5</ele>
        <time>2022-05-05T01:23:22Z</time>
      </trkpt>
      <trkpt lat="50.59385" lon="3.52668">
        <ele>67.3</ele>
        <time>2022-05-05T01:23:23Z</time>
      </trkpt>
      <trkpt lat="50.59391" lon="3.52673">
        <ele>67.1</ele>
        <time>2022-05-05T01:23:24Z</time>
      </trkpt>
      <trkpt lat="50.59396" lon="3.52676">
        <ele>66.8</ele>
        <time>2022-05-05T01:23:24Z</time>
      </trkpt>
      <trkpt lat="50.594" lon="3.52677">
        <ele>66.6</ele>
        <time>2022-05-05T01:23:24Z</time>
      </trkpt>
      <trkpt lat="50.59417" lon="3.52687">
        <ele>65.6</ele>
        <time>2022-05-05T01:23:26Z</time>
      </trkpt>
      <trkpt lat="50.59419" lon="3.52689">
        <ele>65.6</ele>
        <time>2022-05-05T01:23:26Z</time>
      </trkpt>
      <trkpt lat="50.59421" lon="3.52691">
        <ele>65.5</ele>
        <time>2022-05-05T01:23:27Z</time>
      </trkpt>
      <trkpt lat="50.59422" lon="3.52693">
        <ele>65.5</ele>
        <time>2022-05-05T01:23:27Z</time>
      </trkpt>
      <trkpt lat="50.59422" lon="3.52692">
        <ele>65.5</ele>
        <time>2022-05-05T01:23:27Z</time>
      </trkpt>
      <trkpt lat="50.59423" lon="3.52692">
        <ele>65.5</ele>
        <time>2022-05-05T01:23:27Z</time>
      </trkpt>
      <trkpt lat="50.59423" lon="3.52691">
        <ele>65.5</ele>
        <time>2022-05-05T01:23:27Z</time>
      </trkpt>
      <trkpt lat="50.59423" lon="3.52692">
        <ele>65.5</ele>
        <time>2022-05-05T01:23:27Z</time>
      </trkpt>
      <trkpt lat="50.59423" lon="3.52693">
        <ele>65.5</ele>
        <time>2022-05-05T01:23:27Z</time>
      </trkpt>
      <trkpt lat="50.59423" lon="3.52692">
        <ele>65.5</ele>
        <time>2022-05-05T01:23:27Z</time>
      </trkpt>
      <trkpt lat="50.59423" lon="3.52694">
        <ele>65.5</ele>
        <time>2022-05-05T01:23:27Z</time>
      </trkpt>
      <trkpt lat="50.59423" lon="3.52694">
        <ele>65.5</ele>
        <time>2022-05-05T01:23:27Z</time>
      </trkpt>
      <trkpt lat="50.59424" lon="3.52693">
        <ele>65.5</ele>
        <time>2022-05-05T01:23:27Z</time>
      </trkpt>
      <trkpt lat="50.59424" lon="3.52693">
        <ele>65.5</ele>
        <time>2022-05-05T01:23:27Z</time>
      </trkpt>
      <trkpt lat="50.59424" lon="3.52693">
        <ele>65.5</ele>
        <time>2022-05-05T01:23:27Z</time>
      </trkpt>
      <trkpt lat="50.59424" lon="3.52693">
        <ele>65.5</ele>
        <time>2022-05-05T01:23:27Z</time>
      </trkpt>
      <trkpt lat="50.59425" lon="3.52692">
        <ele>65.5</ele>
        <time>2022-05-05T01:23:27Z</time>
      </trkpt>
      <trkpt lat="50.59425" lon="3.52691">
        <ele>65.5</ele>
        <time>2022-05-05T01:23:28Z</time>
      </trkpt>
      <trkpt lat="50.59425" lon="3.52691">
        <ele>65.5</ele>
        <time>2022-05-05T01:23:28Z</time>
      </trkpt>
      <trkpt lat="50.59426" lon="3.5269">
        <ele>65.5</ele>
        <time>2022-05-05T01:23:28Z</time>
      </trkpt>
      <trkpt lat="50.59426" lon="3.5269">
        <ele>65.5</ele>
        <time>2022-05-05T01:23:28Z</time>
      </trkpt>
      <trkpt lat="50.59426" lon="3.52689">
        <ele>65.5</ele>
        <time>2022-05-05T01:23:28Z</time>
      </trkpt>
      <trkpt lat="50.59426" lon="3.52689">
        <ele>65.5</ele>
        <time>2022-05-05T01:23:28Z</time>
      </trkpt>
      <trkpt lat="50.59427" lon="3.52688">
        <ele>65.5</ele>
        <time>2022-05-05T01:23:28Z</time>
      </trkpt>
      <trkpt lat="50.59428" lon="3.52687">
        <ele>65.5</ele>
        <time>2022-05-05T01:23:28Z</time>
      </trkpt>
      <trkpt lat="50.59429" lon="3.52686">
        <ele>65.5</ele>
        <time>2022-05-05T01:23:28Z</time>
      </trkpt>
      <trkpt lat="50.59429" lon="3.52687">
        <ele>65.5</ele>
        <time>2022-05-05T01:23:28Z</time>
      </trkpt>
      <trkpt lat="50.59429" lon="3.52686">
        <ele>65.5</ele>
        <time>2022-05-05T01:23:28Z</time>
      </trkpt>
      <trkpt lat="50.5943" lon="3.52685">
        <ele>65.5</ele>
        <time>2022-05-05T01:23:28Z</time>
      </trkpt>
      <trkpt lat="50.59431" lon="3.52684">
        <ele>65.5</ele>
        <time>2022-05-05T01:23:28Z</time>
      </trkpt>
      <trkpt lat="50.59432" lon="3.52683">
        <ele>65.5</ele>
        <time>2022-05-05T01:23:28Z</time>
      </trkpt>
      <trkpt lat="50.59434" lon="3.52679">
        <ele>65.5</ele>
        <time>2022-05-05T01:23:29Z</time>
      </trkpt>
      <trkpt lat="50.59435" lon="3.52674">
        <ele>65.5</ele>
        <time>2022-05-05T01:23:29Z</time>
      </trkpt>
      <trkpt lat="50.59438" lon="3.52666">
        <ele>65.5</ele>
        <time>2022-05-05T01:23:30Z</time>
      </trkpt>
      <trkpt lat="50.5944" lon="3.52653">
        <ele>65.5</ele>
        <time>2022-05-05T01:23:30Z</time>
      </trkpt>
      <trkpt lat="50.5944" lon="3.52636">
        <ele>65.5</ele>
        <time>2022-05-05T01:23:31Z</time>
      </trkpt>
      <trkpt lat="50.59436" lon="3.52617">
        <ele>65.6</ele>
        <time>2022-05-05T01:23:33Z</time>
      </trkpt>
      <trkpt lat="50.59437" lon="3.52598">
        <ele>65.7</ele>
        <time>2022-05-05T01:23:34Z</time>
      </trkpt>
      <trkpt lat="50.59438" lon="3.5258">
        <ele>65.8</ele>
        <time>2022-05-05T01:23:35Z</time>
      </trkpt>
      <trkpt lat="50.59439" lon="3.52562">
        <ele>66.1</ele>
        <time>2022-05-05T01:23:36Z</time>
      </trkpt>
      <trkpt lat="50.5944" lon="3.52543">
        <ele>66.2</ele>
        <time>2022-05-05T01:23:37Z</time>
      </trkpt>
      <trkpt lat="50.59442" lon="3.52524">
        <ele>66.3</ele>
        <time>2022-05-05T01:23:38Z</time>
      </trkpt>
      <trkpt lat="50.59443" lon="3.52505">
        <ele>66.5</ele>
        <time>2022-05-05T01:23:39Z</time>
      </trkpt>
      <trkpt lat="50.59445" lon="3.52486">
        <ele>66.8</ele>
        <time>2022-05-05T01:23:41Z</time>
      </trkpt>
      <trkpt lat="50.59447" lon="3.52466">
        <ele>67</ele>
        <time>2022-05-05T01:23:42Z</time>
      </trkpt>
      <trkpt lat="50.59448" lon="3.52445">
        <ele>67.2</ele>
        <time>2022-05-05T01:23:43Z</time>
      </trkpt>
      <trkpt lat="50.5945" lon="3.52425">
        <ele>67.3</ele>
        <time>2022-05-05T01:23:44Z</time>
      </trkpt>
      <trkpt lat="50.59451" lon="3.52403">
        <ele>67.4</ele>
        <time>2022-05-05T01:23:46Z</time>
      </trkpt>
      <trkpt lat="50.59453" lon="3.52382">
        <ele>67.4</ele>
        <time>2022-05-05T01:23:47Z</time>
      </trkpt>
      <trkpt lat="50.59455" lon="3.52358">
        <ele>67.5</ele>
        <time>2022-05-05T01:23:48Z</time>
      </trkpt>
      <trkpt lat="50.59457" lon="3.52334">
        <ele>67.5</ele>
        <time>2022-05-05T01:23:50Z</time>
      </trkpt>
      <trkpt lat="50.59459" lon="3.5231">
        <ele>67.5</ele>
        <time>2022-05-05T01:23:51Z</time>
      </trkpt>
      <trkpt lat="50.5946" lon="3.52286">
        <ele>67.5</ele>
        <time>2022-05-05T01:23:53Z</time>
      </trkpt>
      <trkpt lat="50.59462" lon="3.52257">
        <ele>67.5</ele>
        <time>2022-05-05T01:23:55Z</time>
      </trkpt>
      <trkpt lat="50.59465" lon="3.5223">
        <ele>67.5</ele>
        <time>2022-05-05T01:23:56Z</time>
      </trkpt>
      <trkpt lat="50.59467" lon="3.52202">
        <ele>67.5</ele>
        <time>2022-05-05T01:23:58Z</time>
      </trkpt>
      <trkpt lat="50.59471" lon="3.52177">
        <ele>67.5</ele>
        <time>2022-05-05T01:23:59Z</time>
      </trkpt>
      <trkpt lat="50.59477" lon="3.5215">
        <ele>67.5</ele>
        <time>2022-05-05T01:24:01Z</time>
      </trkpt>
      <trkpt lat="50.5948" lon="3.52124">
        <ele>67.5</ele>
        <time>2022-05-05T01:24:03Z</time>
      </trkpt>
      <trkpt lat="50.59483" lon="3.521">
        <ele>67.5</ele>
        <time>2022-05-05T01:24:04Z</time>
      </trkpt>
      <trkpt lat="50.59486" lon="3.52074">
        <ele>67.5</ele>
        <time>2022-05-05T01:24:06Z</time>
      </trkpt>
      <trkpt lat="50.59488" lon="3.52048">
        <ele>67.6</ele>
        <time>2022-05-05T01:24:07Z</time>
      </trkpt>
      <trkpt lat="50.59489" lon="3.52023">
        <ele>67.7</ele>
        <time>2022-05-05T01:24:09Z</time>
      </trkpt>
      <trkpt lat="50.59491" lon="3.51999">
        <ele>67.8</ele>
        <time>2022-05-05T01:24:10Z</time>
      </trkpt>
      <trkpt lat="50.59493" lon="3.51974">
        <ele>68</ele>
        <time>2022-05-05T01:24:12Z</time>
      </trkpt>
      <trkpt lat="50.59495" lon="3.51949">
        <ele>68.2</ele>
        <time>2022-05-05T01:24:13Z</time>
      </trkpt>
      <trkpt lat="50.59492" lon="3.51925">
        <ele>68.3</ele>
        <time>2022-05-05T01:24:15Z</time>
      </trkpt>
      <trkpt lat="50.59494" lon="3.51904">
        <ele>68.4</ele>
        <time>2022-05-05T01:24:16Z</time>
      </trkpt>
      <trkpt lat="50.59495" lon="3.51881">
        <ele>68.4</ele>
        <time>2022-05-05T01:24:18Z</time>
      </trkpt>
      <trkpt lat="50.59497" lon="3.51859">
        <ele>68.5</ele>
        <time>2022-05-05T01:24:19Z</time>
      </trkpt>
      <trkpt lat="50.59499" lon="3.51834">
        <ele>68.5</ele>
        <time>2022-05-05T01:24:21Z</time>
      </trkpt>
      <trkpt lat="50.59502" lon="3.5181">
        <ele>68.5</ele>
        <time>2022-05-05T01:24:22Z</time>
      </trkpt>
      <trkpt lat="50.59504" lon="3.51789">
        <ele>68.5</ele>
        <time>2022-05-05T01:24:23Z</time>
      </trkpt>
      <trkpt lat="50.59507" lon="3.51766">
        <ele>68.7</ele>
        <time>2022-05-05T01:24:25Z</time>
      </trkpt>
      <trkpt lat="50.59512" lon="3.51741">
        <ele>68.9</ele>
        <time>2022-05-05T01:24:26Z</time>
      </trkpt>
      <trkpt lat="50.59514" lon="3.51717">
        <ele>69.1</ele>
        <time>2022-05-05T01:24:28Z</time>
      </trkpt>
      <trkpt lat="50.59517" lon="3.51693">
        <ele>69.3</ele>
        <time>2022-05-05T01:24:29Z</time>
      </trkpt>
      <trkpt lat="50.59518" lon="3.51669">
        <ele>69.5</ele>
        <time>2022-05-05T01:24:31Z</time>
      </trkpt>
      <trkpt lat="50.5952" lon="3.51645">
        <ele>69.6</ele>
        <time>2022-05-05T01:24:32Z</time>
      </trkpt>
      <trkpt lat="50.59523" lon="3.5162">
        <ele>69.9</ele>
        <time>2022-05-05T01:24:34Z</time>
      </trkpt>
      <trkpt lat="50.59525" lon="3.51596">
        <ele>70.1</ele>
        <time>2022-05-05T01:24:35Z</time>
      </trkpt>
      <trkpt lat="50.59528" lon="3.51573">
        <ele>70.3</ele>
        <time>2022-05-05T01:24:37Z</time>
      </trkpt>
      <trkpt lat="50.5953" lon="3.5155">
        <ele>70.4</ele>
        <time>2022-05-05T01:24:38Z</time>
      </trkpt>
      <trkpt lat="50.5953" lon="3.5153">
        <ele>70.4</ele>
        <time>2022-05-05T01:24:39Z</time>
      </trkpt>
      <trkpt lat="50.59533" lon="3.51509">
        <ele>70.4</ele>
        <time>2022-05-05T01:24:40Z</time>
      </trkpt>
      <trkpt lat="50.59534" lon="3.51488">
        <ele>70.7</ele>
        <time>2022-05-05T01:24:42Z</time>
      </trkpt>
      <trkpt lat="50.59534" lon="3.5147">
        <ele>70.9</ele>
        <time>2022-05-05T01:24:43Z</time>
      </trkpt>
      <trkpt lat="50.59547" lon="3.51465">
        <ele>70.9</ele>
        <time>2022-05-05T01:24:44Z</time>
      </trkpt>
      <trkpt lat="50.59547" lon="3.51467">
        <ele>70.8</ele>
        <time>2022-05-05T01:24:44Z</time>
      </trkpt>
      <trkpt lat="50.59547" lon="3.51469">
        <ele>70.8</ele>
        <time>2022-05-05T01:24:44Z</time>
      </trkpt>
      <trkpt lat="50.5955" lon="3.51477">
        <ele>70.8</ele>
        <time>2022-05-05T01:24:45Z</time>
      </trkpt>
      <trkpt lat="50.59555" lon="3.51487">
        <ele>70.8</ele>
        <time>2022-05-05T01:24:46Z</time>
      </trkpt>
      <trkpt lat="50.59562" lon="3.51504">
        <ele>70.7</ele>
        <time>2022-05-05T01:24:47Z</time>
      </trkpt>
      <trkpt lat="50.59568" lon="3.51515">
        <ele>70.6</ele>
        <time>2022-05-05T01:24:48Z</time>
      </trkpt>
      <trkpt lat="50.59575" lon="3.51524">
        <ele>70.6</ele>
        <time>2022-05-05T01:24:49Z</time>
      </trkpt>
      <trkpt lat="50.59581" lon="3.51535">
        <ele>70.5</ele>
        <time>2022-05-05T01:24:49Z</time>
      </trkpt>
      <trkpt lat="50.59588" lon="3.51545">
        <ele>70.4</ele>
        <time>2022-05-05T01:24:50Z</time>
      </trkpt>
      <trkpt lat="50.59594" lon="3.51555">
        <ele>70.2</ele>
        <time>2022-05-05T01:24:51Z</time>
      </trkpt>
      <trkpt lat="50.59601" lon="3.51566">
        <ele>70</ele>
        <time>2022-05-05T01:24:52Z</time>
      </trkpt>
      <trkpt lat="50.59609" lon="3.51575">
        <ele>69.7</ele>
        <time>2022-05-05T01:24:53Z</time>
      </trkpt>
      <trkpt lat="50.59616" lon="3.51588">
        <ele>69.4</ele>
        <time>2022-05-05T01:24:54Z</time>
      </trkpt>
      <trkpt lat="50.59622" lon="3.51598">
        <ele>69.1</ele>
        <time>2022-05-05T01:24:55Z</time>
      </trkpt>
      <trkpt lat="50.5963" lon="3.51607">
        <ele>68.9</ele>
        <time>2022-05-05T01:24:56Z</time>
      </trkpt>
      <trkpt lat="50.59636" lon="3.51618">
        <ele>68.7</ele>
        <time>2022-05-05T01:24:57Z</time>
      </trkpt>
      <trkpt lat="50.59642" lon="3.5163">
        <ele>68.6</ele>
        <time>2022-05-05T01:24:58Z</time>
      </trkpt>
      <trkpt lat="50.59648" lon="3.51641">
        <ele>68.3</ele>
        <time>2022-05-05T01:24:59Z</time>
      </trkpt>
      <trkpt lat="50.59653" lon="3.51652">
        <ele>68</ele>
        <time>2022-05-05T01:24:59Z</time>
      </trkpt>
      <trkpt lat="50.59658" lon="3.51661">
        <ele>67.7</ele>
        <time>2022-05-05T01:25:00Z</time>
      </trkpt>
      <trkpt lat="50.59666" lon="3.51672">
        <ele>67.5</ele>
        <time>2022-05-05T01:25:01Z</time>
      </trkpt>
      <trkpt lat="50.59673" lon="3.51678">
        <ele>67.1</ele>
        <time>2022-05-05T01:25:02Z</time>
      </trkpt>
      <trkpt lat="50.59677" lon="3.51685">
        <ele>66.9</ele>
        <time>2022-05-05T01:25:02Z</time>
      </trkpt>
      <trkpt lat="50.59682" lon="3.51695">
        <ele>66.7</ele>
        <time>2022-05-05T01:25:03Z</time>
      </trkpt>
      <trkpt lat="50.59686" lon="3.51701">
        <ele>66.7</ele>
        <time>2022-05-05T01:25:04Z</time>
      </trkpt>
      <trkpt lat="50.59693" lon="3.51709">
        <ele>66.6</ele>
        <time>2022-05-05T01:25:05Z</time>
      </trkpt>
      <trkpt lat="50.59697" lon="3.51716">
        <ele>66.6</ele>
        <time>2022-05-05T01:25:05Z</time>
      </trkpt>
      <trkpt lat="50.597" lon="3.51723">
        <ele>66.5</ele>
        <time>2022-05-05T01:25:06Z</time>
      </trkpt>
      <trkpt lat="50.59701" lon="3.51731">
        <ele>66.4</ele>
        <time>2022-05-05T01:25:06Z</time>
      </trkpt>
      <trkpt lat="50.59703" lon="3.51738">
        <ele>66.4</ele>
        <time>2022-05-05T01:25:07Z</time>
      </trkpt>
      <trkpt lat="50.59705" lon="3.51741">
        <ele>66.3</ele>
        <time>2022-05-05T01:25:07Z</time>
      </trkpt>
      <trkpt lat="50.59707" lon="3.51739">
        <ele>66.2</ele>
        <time>2022-05-05T01:25:07Z</time>
      </trkpt>
      <trkpt lat="50.5971" lon="3.51742">
        <ele>66.2</ele>
        <time>2022-05-05T01:25:07Z</time>
      </trkpt>
      <trkpt lat="50.59711" lon="3.5174">
        <ele>66.1</ele>
        <time>2022-05-05T01:25:08Z</time>
      </trkpt>
      <trkpt lat="50.59713" lon="3.51735">
        <ele>66</ele>
        <time>2022-05-05T01:25:08Z</time>
      </trkpt>
      <trkpt lat="50.59714" lon="3.51727">
        <ele>65.9</ele>
        <time>2022-05-05T01:25:08Z</time>
      </trkpt>
      <trkpt lat="50.59714" lon="3.51718">
        <ele>65.9</ele>
        <time>2022-05-05T01:25:09Z</time>
      </trkpt>
      <trkpt lat="50.59715" lon="3.51709">
        <ele>65.8</ele>
        <time>2022-05-05T01:25:10Z</time>
      </trkpt>
      <trkpt lat="50.59717" lon="3.51697">
        <ele>65.8</ele>
        <time>2022-05-05T01:25:10Z</time>
      </trkpt>
      <trkpt lat="50.59718" lon="3.51686">
        <ele>65.7</ele>
        <time>2022-05-05T01:25:11Z</time>
      </trkpt>
      <trkpt lat="50.5972" lon="3.51675">
        <ele>65.7</ele>
        <time>2022-05-05T01:25:12Z</time>
      </trkpt>
      <trkpt lat="50.59722" lon="3.51664">
        <ele>65.6</ele>
        <time>2022-05-05T01:25:12Z</time>
      </trkpt>
      <trkpt lat="50.59723" lon="3.51655">
        <ele>65.6</ele>
        <time>2022-05-05T01:25:13Z</time>
      </trkpt>
      <trkpt lat="50.59724" lon="3.51644">
        <ele>65.7</ele>
        <time>2022-05-05T01:25:14Z</time>
      </trkpt>
      <trkpt lat="50.59725" lon="3.51633">
        <ele>65.9</ele>
        <time>2022-05-05T01:25:14Z</time>
      </trkpt>
      <trkpt lat="50.59727" lon="3.51622">
        <ele>66.1</ele>
        <time>2022-05-05T01:25:15Z</time>
      </trkpt>
      <trkpt lat="50.59728" lon="3.51607">
        <ele>66.2</ele>
        <time>2022-05-05T01:25:16Z</time>
      </trkpt>
      <trkpt lat="50.5973" lon="3.51597">
        <ele>66.2</ele>
        <time>2022-05-05T01:25:16Z</time>
      </trkpt>
      <trkpt lat="50.59729" lon="3.51582">
        <ele>66.3</ele>
        <time>2022-05-05T01:25:17Z</time>
      </trkpt>
      <trkpt lat="50.59731" lon="3.5157">
        <ele>66.3</ele>
        <time>2022-05-05T01:25:18Z</time>
      </trkpt>
      <trkpt lat="50.5973" lon="3.51558">
        <ele>66.2</ele>
        <time>2022-05-05T01:25:19Z</time>
      </trkpt>
      <trkpt lat="50.59731" lon="3.51549">
        <ele>66</ele>
        <time>2022-05-05T01:25:19Z</time>
      </trkpt>
      <trkpt lat="50.59732" lon="3.5154">
        <ele>65.8</ele>
        <time>2022-05-05T01:25:20Z</time>
      </trkpt>
      <trkpt lat="50.59733" lon="3.51531">
        <ele>65.7</ele>
        <time>2022-05-05T01:25:20Z</time>
      </trkpt>
      <trkpt lat="50.59733" lon="3.51522">
        <ele>65.6</ele>
        <time>2022-05-05T01:25:21Z</time>
      </trkpt>
      <trkpt lat="50.59732" lon="3.51511">
        <ele>65.6</ele>
        <time>2022-05-05T01:25:22Z</time>
      </trkpt>
      <trkpt lat="50.59735" lon="3.51498">
        <ele>65.5</ele>
        <time>2022-05-05T01:25:22Z</time>
      </trkpt>
      <trkpt lat="50.59737" lon="3.51486">
        <ele>65.5</ele>
        <time>2022-05-05T01:25:23Z</time>
      </trkpt>
      <trkpt lat="50.59736" lon="3.51474">
        <ele>65.5</ele>
        <time>2022-05-05T01:25:24Z</time>
      </trkpt>
      <trkpt lat="50.59736" lon="3.51462">
        <ele>65.5</ele>
        <time>2022-05-05T01:25:25Z</time>
      </trkpt>
      <trkpt lat="50.59739" lon="3.5145">
        <ele>65.6</ele>
        <time>2022-05-05T01:25:25Z</time>
      </trkpt>
      <trkpt lat="50.59741" lon="3.51436">
        <ele>65.7</ele>
        <time>2022-05-05T01:25:26Z</time>
      </trkpt>
      <trkpt lat="50.59743" lon="3.51423">
        <ele>65.8</ele>
        <time>2022-05-05T01:25:27Z</time>
      </trkpt>
      <trkpt lat="50.59744" lon="3.5141">
        <ele>66</ele>
        <time>2022-05-05T01:25:28Z</time>
      </trkpt>
      <trkpt lat="50.59743" lon="3.51395">
        <ele>66.1</ele>
        <time>2022-05-05T01:25:29Z</time>
      </trkpt>
      <trkpt lat="50.59744" lon="3.51383">
        <ele>66</ele>
        <time>2022-05-05T01:25:30Z</time>
      </trkpt>
      <trkpt lat="50.59743" lon="3.51372">
        <ele>65.9</ele>
        <time>2022-05-05T01:25:30Z</time>
      </trkpt>
      <trkpt lat="50.59746" lon="3.51361">
        <ele>65.9</ele>
        <time>2022-05-05T01:25:31Z</time>
      </trkpt>
      <trkpt lat="50.59746" lon="3.51352">
        <ele>65.8</ele>
        <time>2022-05-05T01:25:32Z</time>
      </trkpt>
      <trkpt lat="50.59745" lon="3.5134">
        <ele>65.7</ele>
        <time>2022-05-05T01:25:32Z</time>
      </trkpt>
      <trkpt lat="50.59746" lon="3.51329">
        <ele>65.7</ele>
        <time>2022-05-05T01:25:33Z</time>
      </trkpt>
      <trkpt lat="50.59748" lon="3.51314">
        <ele>65.7</ele>
        <time>2022-05-05T01:25:34Z</time>
      </trkpt>
      <trkpt lat="50.5975" lon="3.513">
        <ele>65.6</ele>
        <time>2022-05-05T01:25:35Z</time>
      </trkpt>
      <trkpt lat="50.59751" lon="3.51282">
        <ele>65.6</ele>
        <time>2022-05-05T01:25:36Z</time>
      </trkpt>
      <trkpt lat="50.59754" lon="3.51264">
        <ele>65.6</ele>
        <time>2022-05-05T01:25:37Z</time>
      </trkpt>
      <trkpt lat="50.59752" lon="3.5125">
        <ele>65.6</ele>
        <time>2022-05-05T01:25:38Z</time>
      </trkpt>
      <trkpt lat="50.59752" lon="3.51238">
        <ele>65.6</ele>
        <time>2022-05-05T01:25:39Z</time>
      </trkpt>
      <trkpt lat="50.59754" lon="3.51223">
        <ele>65.7</ele>
        <time>2022-05-05T01:25:39Z</time>
      </trkpt>
      <trkpt lat="50.59757" lon="3.51209">
        <ele>66</ele>
        <time>2022-05-05T01:25:40Z</time>
      </trkpt>
      <trkpt lat="50.59758" lon="3.51195">
        <ele>66.2</ele>
        <time>2022-05-05T01:25:41Z</time>
      </trkpt>
      <trkpt lat="50.59759" lon="3.51178">
        <ele>66.3</ele>
        <time>2022-05-05T01:25:42Z</time>
      </trkpt>
      <trkpt lat="50.59761" lon="3.51162">
        <ele>66.4</ele>
        <time>2022-05-05T01:25:43Z</time>
      </trkpt>
      <trkpt lat="50.59762" lon="3.51145">
        <ele>66.4</ele>
        <time>2022-05-05T01:25:44Z</time>
      </trkpt>
      <trkpt lat="50.59764" lon="3.51127">
        <ele>66.4</ele>
        <time>2022-05-05T01:25:45Z</time>
      </trkpt>
      <trkpt lat="50.59764" lon="3.51112">
        <ele>66.5</ele>
        <time>2022-05-05T01:25:46Z</time>
      </trkpt>
      <trkpt lat="50.59763" lon="3.511">
        <ele>66.5</ele>
        <time>2022-05-05T01:25:47Z</time>
      </trkpt>
      <trkpt lat="50.59763" lon="3.51091">
        <ele>66.5</ele>
        <time>2022-05-05T01:25:47Z</time>
      </trkpt>
      <trkpt lat="50.5976" lon="3.51084">
        <ele>66.5</ele>
        <time>2022-05-05T01:25:48Z</time>
      </trkpt>
      <trkpt lat="50.59762" lon="3.51076">
        <ele>66.5</ele>
        <time>2022-05-05T01:25:49Z</time>
      </trkpt>
      <trkpt lat="50.59763" lon="3.51069">
        <ele>66.5</ele>
        <time>2022-05-05T01:25:49Z</time>
      </trkpt>
      <trkpt lat="50.59765" lon="3.51061">
        <ele>66.5</ele>
        <time>2022-05-05T01:25:49Z</time>
      </trkpt>
      <trkpt lat="50.59765" lon="3.51053">
        <ele>66.5</ele>
        <time>2022-05-05T01:25:50Z</time>
      </trkpt>
      <trkpt lat="50.5977" lon="3.51046">
        <ele>66.5</ele>
        <time>2022-05-05T01:25:51Z</time>
      </trkpt>
      <trkpt lat="50.5977" lon="3.51034">
        <ele>66.5</ele>
        <time>2022-05-05T01:25:51Z</time>
      </trkpt>
      <trkpt lat="50.59775" lon="3.51025">
        <ele>66.5</ele>
        <time>2022-05-05T01:25:52Z</time>
      </trkpt>
      <trkpt lat="50.59777" lon="3.51016">
        <ele>66.5</ele>
        <time>2022-05-05T01:25:52Z</time>
      </trkpt>
      <trkpt lat="50.59779" lon="3.51008">
        <ele>66.5</ele>
        <time>2022-05-05T01:25:53Z</time>
      </trkpt>
      <trkpt lat="50.59783" lon="3.51001">
        <ele>66.5</ele>
        <time>2022-05-05T01:25:54Z</time>
      </trkpt>
      <trkpt lat="50.59783" lon="3.5099">
        <ele>66.5</ele>
        <time>2022-05-05T01:25:54Z</time>
      </trkpt>
      <trkpt lat="50.59784" lon="3.50983">
        <ele>66.5</ele>
        <time>2022-05-05T01:25:55Z</time>
      </trkpt>
      <trkpt lat="50.59786" lon="3.50977">
        <ele>66.5</ele>
        <time>2022-05-05T01:25:55Z</time>
      </trkpt>
      <trkpt lat="50.59787" lon="3.5097">
        <ele>66.5</ele>
        <time>2022-05-05T01:25:56Z</time>
      </trkpt>
      <trkpt lat="50.59787" lon="3.50963">
        <ele>66.5</ele>
        <time>2022-05-05T01:25:56Z</time>
      </trkpt>
      <trkpt lat="50.59788" lon="3.50955">
        <ele>66.5</ele>
        <time>2022-05-05T01:25:56Z</time>
      </trkpt>
      <trkpt lat="50.59792" lon="3.50946">
        <ele>66.5</ele>
        <time>2022-05-05T01:25:57Z</time>
      </trkpt>
      <trkpt lat="50.59797" lon="3.50937">
        <ele>66.5</ele>
        <time>2022-05-05T01:25:58Z</time>
      </trkpt>
      <trkpt lat="50.59801" lon="3.50927">
        <ele>66.5</ele>
        <time>2022-05-05T01:25:59Z</time>
      </trkpt>
      <trkpt lat="50.59806" lon="3.50917">
        <ele>66.4</ele>
        <time>2022-05-05T01:25:59Z</time>
      </trkpt>
      <trkpt lat="50.59812" lon="3.50906">
        <ele>66.5</ele>
        <time>2022-05-05T01:26:00Z</time>
      </trkpt>
      <trkpt lat="50.59819" lon="3.50893">
        <ele>66.5</ele>
        <time>2022-05-05T01:26:01Z</time>
      </trkpt>
      <trkpt lat="50.59826" lon="3.50877">
        <ele>66.5</ele>
        <time>2022-05-05T01:26:02Z</time>
      </trkpt>
      <trkpt lat="50.5983" lon="3.5086">
        <ele>66.5</ele>
        <time>2022-05-05T01:26:04Z</time>
      </trkpt>
      <trkpt lat="50.59833" lon="3.50841">
        <ele>66.4</ele>
        <time>2022-05-05T01:26:05Z</time>
      </trkpt>
      <trkpt lat="50.59836" lon="3.50821">
        <ele>66.2</ele>
        <time>2022-05-05T01:26:06Z</time>
      </trkpt>
      <trkpt lat="50.59839" lon="3.50801">
        <ele>66</ele>
        <time>2022-05-05T01:26:07Z</time>
      </trkpt>
      <trkpt lat="50.59842" lon="3.50782">
        <ele>65.8</ele>
        <time>2022-05-05T01:26:08Z</time>
      </trkpt>
      <trkpt lat="50.59845" lon="3.50765">
        <ele>65.7</ele>
        <time>2022-05-05T01:26:09Z</time>
      </trkpt>
      <trkpt lat="50.59848" lon="3.50747">
        <ele>65.5</ele>
        <time>2022-05-05T01:26:11Z</time>
      </trkpt>
      <trkpt lat="50.59854" lon="3.50729">
        <ele>65.3</ele>
        <time>2022-05-05T01:26:12Z</time>
      </trkpt>
      <trkpt lat="50.59861" lon="3.5071">
        <ele>65.3</ele>
        <time>2022-05-05T01:26:13Z</time>
      </trkpt>
      <trkpt lat="50.59867" lon="3.50692">
        <ele>65.4</ele>
        <time>2022-05-05T01:26:14Z</time>
      </trkpt>
      <trkpt lat="50.59874" lon="3.50676">
        <ele>65.5</ele>
        <time>2022-05-05T01:26:16Z</time>
      </trkpt>
      <trkpt lat="50.5988" lon="3.50663">
        <ele>65.7</ele>
        <time>2022-05-05T01:26:16Z</time>
      </trkpt>
      <trkpt lat="50.59886" lon="3.50649">
        <ele>65.8</ele>
        <time>2022-05-05T01:26:17Z</time>
      </trkpt>
      <trkpt lat="50.59892" lon="3.50636">
        <ele>66</ele>
        <time>2022-05-05T01:26:18Z</time>
      </trkpt>
      <trkpt lat="50.59898" lon="3.50621">
        <ele>66.2</ele>
        <time>2022-05-05T01:26:20Z</time>
      </trkpt>
      <trkpt lat="50.59903" lon="3.50606">
        <ele>66.2</ele>
        <time>2022-05-05T01:26:21Z</time>
      </trkpt>
      <trkpt lat="50.59909" lon="3.5059">
        <ele>66.1</ele>
        <time>2022-05-05T01:26:22Z</time>
      </trkpt>
      <trkpt lat="50.59915" lon="3.50572">
        <ele>66.2</ele>
        <time>2022-05-05T01:26:23Z</time>
      </trkpt>
      <trkpt lat="50.59919" lon="3.50551">
        <ele>66.3</ele>
        <time>2022-05-05T01:26:24Z</time>
      </trkpt>
      <trkpt lat="50.59923" lon="3.5053">
        <ele>66.3</ele>
        <time>2022-05-05T01:26:26Z</time>
      </trkpt>
      <trkpt lat="50.59926" lon="3.5051">
        <ele>66.2</ele>
        <time>2022-05-05T01:26:27Z</time>
      </trkpt>
      <trkpt lat="50.59928" lon="3.50491">
        <ele>66.1</ele>
        <time>2022-05-05T01:26:28Z</time>
      </trkpt>
      <trkpt lat="50.59931" lon="3.50471">
        <ele>65.9</ele>
        <time>2022-05-05T01:26:29Z</time>
      </trkpt>
      <trkpt lat="50.59933" lon="3.5045">
        <ele>65.6</ele>
        <time>2022-05-05T01:26:30Z</time>
      </trkpt>
      <trkpt lat="50.59934" lon="3.50429">
        <ele>65.3</ele>
        <time>2022-05-05T01:26:32Z</time>
      </trkpt>
      <trkpt lat="50.59934" lon="3.50407">
        <ele>65</ele>
        <time>2022-05-05T01:26:33Z</time>
      </trkpt>
      <trkpt lat="50.59933" lon="3.50387">
        <ele>64.6</ele>
        <time>2022-05-05T01:26:34Z</time>
      </trkpt>
      <trkpt lat="50.59932" lon="3.50367">
        <ele>64.3</ele>
        <time>2022-05-05T01:26:36Z</time>
      </trkpt>
      <trkpt lat="50.59931" lon="3.50347">
        <ele>63.9</ele>
        <time>2022-05-05T01:26:37Z</time>
      </trkpt>
      <trkpt lat="50.5993" lon="3.50327">
        <ele>63.6</ele>
        <time>2022-05-05T01:26:38Z</time>
      </trkpt>
      <trkpt lat="50.59929" lon="3.50309">
        <ele>63.3</ele>
        <time>2022-05-05T01:26:39Z</time>
      </trkpt>
      <trkpt lat="50.59928" lon="3.50291">
        <ele>63.2</ele>
        <time>2022-05-05T01:26:40Z</time>
      </trkpt>
      <trkpt lat="50.59926" lon="3.50274">
        <ele>62.9</ele>
        <time>2022-05-05T01:26:41Z</time>
      </trkpt>
      <trkpt lat="50.59925" lon="3.50257">
        <ele>62.5</ele>
        <time>2022-05-05T01:26:42Z</time>
      </trkpt>
      <trkpt lat="50.59923" lon="3.5024">
        <ele>62.3</ele>
        <time>2022-05-05T01:26:43Z</time>
      </trkpt>
      <trkpt lat="50.5992" lon="3.50224">
        <ele>62.1</ele>
        <time>2022-05-05T01:26:44Z</time>
      </trkpt>
      <trkpt lat="50.59915" lon="3.50207">
        <ele>61.9</ele>
        <time>2022-05-05T01:26:45Z</time>
      </trkpt>
      <trkpt lat="50.59908" lon="3.50192">
        <ele>61.7</ele>
        <time>2022-05-05T01:26:46Z</time>
      </trkpt>
      <trkpt lat="50.59902" lon="3.50176">
        <ele>61.5</ele>
        <time>2022-05-05T01:26:48Z</time>
      </trkpt>
      <trkpt lat="50.59896" lon="3.50159">
        <ele>61.3</ele>
        <time>2022-05-05T01:26:49Z</time>
      </trkpt>
      <trkpt lat="50.59891" lon="3.50142">
        <ele>61.1</ele>
        <time>2022-05-05T01:26:50Z</time>
      </trkpt>
      <trkpt lat="50.59887" lon="3.50124">
        <ele>60.9</ele>
        <time>2022-05-05T01:26:51Z</time>
      </trkpt>
      <trkpt lat="50.59884" lon="3.50106">
        <ele>60.7</ele>
        <time>2022-05-05T01:26:52Z</time>
      </trkpt>
      <trkpt lat="50.59884" lon="3.50087">
        <ele>60.6</ele>
        <time>2022-05-05T01:26:53Z</time>
      </trkpt>
      <trkpt lat="50.59886" lon="3.50068">
        <ele>60.5</ele>
        <time>2022-05-05T01:26:54Z</time>
      </trkpt>
      <trkpt lat="50.59888" lon="3.50048">
        <ele>60.4</ele>
        <time>2022-05-05T01:26:56Z</time>
      </trkpt>
      <trkpt lat="50.5989" lon="3.50028">
        <ele>60.5</ele>
        <time>2022-05-05T01:26:57Z</time>
      </trkpt>
      <trkpt lat="50.59892" lon="3.50008">
        <ele>60.5</ele>
        <time>2022-05-05T01:26:58Z</time>
      </trkpt>
      <trkpt lat="50.59894" lon="3.49987">
        <ele>60.7</ele>
        <time>2022-05-05T01:26:59Z</time>
      </trkpt>
      <trkpt lat="50.59895" lon="3.49967">
        <ele>60.9</ele>
        <time>2022-05-05T01:27:01Z</time>
      </trkpt>
      <trkpt lat="50.59895" lon="3.49948">
        <ele>60.8</ele>
        <time>2022-05-05T01:27:02Z</time>
      </trkpt>
      <trkpt lat="50.59895" lon="3.49928">
        <ele>60.7</ele>
        <time>2022-05-05T01:27:03Z</time>
      </trkpt>
      <trkpt lat="50.59896" lon="3.49907">
        <ele>60.6</ele>
        <time>2022-05-05T01:27:04Z</time>
      </trkpt>
      <trkpt lat="50.59896" lon="3.49886">
        <ele>60.5</ele>
        <time>2022-05-05T01:27:06Z</time>
      </trkpt>
      <trkpt lat="50.59896" lon="3.49865">
        <ele>60.2</ele>
        <time>2022-05-05T01:27:07Z</time>
      </trkpt>
      <trkpt lat="50.59896" lon="3.49843">
        <ele>60.1</ele>
        <time>2022-05-05T01:27:08Z</time>
      </trkpt>
      <trkpt lat="50.59897" lon="3.49821">
        <ele>60</ele>
        <time>2022-05-05T01:27:09Z</time>
      </trkpt>
      <trkpt lat="50.59899" lon="3.498">
        <ele>60</ele>
        <time>2022-05-05T01:27:11Z</time>
      </trkpt>
      <trkpt lat="50.59902" lon="3.49779">
        <ele>59.9</ele>
        <time>2022-05-05T01:27:12Z</time>
      </trkpt>
      <trkpt lat="50.59905" lon="3.49759">
        <ele>59.9</ele>
        <time>2022-05-05T01:27:13Z</time>
      </trkpt>
      <trkpt lat="50.5991" lon="3.4974">
        <ele>59.9</ele>
        <time>2022-05-05T01:27:15Z</time>
      </trkpt>
      <trkpt lat="50.59914" lon="3.49722">
        <ele>59.9</ele>
        <time>2022-05-05T01:27:16Z</time>
      </trkpt>
      <trkpt lat="50.59918" lon="3.49704">
        <ele>59.9</ele>
        <time>2022-05-05T01:27:17Z</time>
      </trkpt>
      <trkpt lat="50.59921" lon="3.49687">
        <ele>59.9</ele>
        <time>2022-05-05T01:27:18Z</time>
      </trkpt>
      <trkpt lat="50.59922" lon="3.4967">
        <ele>59.9</ele>
        <time>2022-05-05T01:27:19Z</time>
      </trkpt>
      <trkpt lat="50.59922" lon="3.49654">
        <ele>59.9</ele>
        <time>2022-05-05T01:27:20Z</time>
      </trkpt>
      <trkpt lat="50.59923" lon="3.49638">
        <ele>59.9</ele>
        <time>2022-05-05T01:27:21Z</time>
      </trkpt>
      <trkpt lat="50.59924" lon="3.49624">
        <ele>59.9</ele>
        <time>2022-05-05T01:27:22Z</time>
      </trkpt>
      <trkpt lat="50.59927" lon="3.49612">
        <ele>59.9</ele>
        <time>2022-05-05T01:27:23Z</time>
      </trkpt>
      <trkpt lat="50.59929" lon="3.49601">
        <ele>59.9</ele>
        <time>2022-05-05T01:27:23Z</time>
      </trkpt>
      <trkpt lat="50.5993" lon="3.49593">
        <ele>59.9</ele>
        <time>2022-05-05T01:27:24Z</time>
      </trkpt>
      <trkpt lat="50.59931" lon="3.49585">
        <ele>59.9</ele>
        <time>2022-05-05T01:27:24Z</time>
      </trkpt>
      <trkpt lat="50.5993" lon="3.49577">
        <ele>59.9</ele>
        <time>2022-05-05T01:27:25Z</time>
      </trkpt>
      <trkpt lat="50.59926" lon="3.49569">
        <ele>59.9</ele>
        <time>2022-05-05T01:27:25Z</time>
      </trkpt>
      <trkpt lat="50.59921" lon="3.49562">
        <ele>59.9</ele>
        <time>2022-05-05T01:27:26Z</time>
      </trkpt>
      <trkpt lat="50.59916" lon="3.49557">
        <ele>59.9</ele>
        <time>2022-05-05T01:27:27Z</time>
      </trkpt>
      <trkpt lat="50.59911" lon="3.49552">
        <ele>59.9</ele>
        <time>2022-05-05T01:27:27Z</time>
      </trkpt>
      <trkpt lat="50.59908" lon="3.49546">
        <ele>59.8</ele>
        <time>2022-05-05T01:27:28Z</time>
      </trkpt>
      <trkpt lat="50.59904" lon="3.4954">
        <ele>59.7</ele>
        <time>2022-05-05T01:27:28Z</time>
      </trkpt>
      <trkpt lat="50.59902" lon="3.49534">
        <ele>59.6</ele>
        <time>2022-05-05T01:27:28Z</time>
      </trkpt>
      <trkpt lat="50.59901" lon="3.49529">
        <ele>59.5</ele>
        <time>2022-05-05T01:27:29Z</time>
      </trkpt>
      <trkpt lat="50.59902" lon="3.49527">
        <ele>59.4</ele>
        <time>2022-05-05T01:27:29Z</time>
      </trkpt>
      <trkpt lat="50.59904" lon="3.49526">
        <ele>59.4</ele>
        <time>2022-05-05T01:27:29Z</time>
      </trkpt>
      <trkpt lat="50.59907" lon="3.49525">
        <ele>59.4</ele>
        <time>2022-05-05T01:27:29Z</time>
      </trkpt>
      <trkpt lat="50.59909" lon="3.49524">
        <ele>59.4</ele>
        <time>2022-05-05T01:27:30Z</time>
      </trkpt>
      <trkpt lat="50.5991" lon="3.49522">
        <ele>59.5</ele>
        <time>2022-05-05T01:27:30Z</time>
      </trkpt>
      <trkpt lat="50.59912" lon="3.49521">
        <ele>59.5</ele>
        <time>2022-05-05T01:27:30Z</time>
      </trkpt>
      <trkpt lat="50.59913" lon="3.49519">
        <ele>59.6</ele>
        <time>2022-05-05T01:27:30Z</time>
      </trkpt>
      <trkpt lat="50.59913" lon="3.49517">
        <ele>59.6</ele>
        <time>2022-05-05T01:27:30Z</time>
      </trkpt>
      <trkpt lat="50.59913" lon="3.49516">
        <ele>59.7</ele>
        <time>2022-05-05T01:27:30Z</time>
      </trkpt>
      <trkpt lat="50.59913" lon="3.49514">
        <ele>59.7</ele>
        <time>2022-05-05T01:27:30Z</time>
      </trkpt>
      <trkpt lat="50.59914" lon="3.49511">
        <ele>59.7</ele>
        <time>2022-05-05T01:27:31Z</time>
      </trkpt>
      <trkpt lat="50.59915" lon="3.49509">
        <ele>59.7</ele>
        <time>2022-05-05T01:27:31Z</time>
      </trkpt>
      <trkpt lat="50.59915" lon="3.49507">
        <ele>59.8</ele>
        <time>2022-05-05T01:27:31Z</time>
      </trkpt>
      <trkpt lat="50.59916" lon="3.49504">
        <ele>59.8</ele>
        <time>2022-05-05T01:27:31Z</time>
      </trkpt>
      <trkpt lat="50.59917" lon="3.495">
        <ele>59.8</ele>
        <time>2022-05-05T01:27:31Z</time>
      </trkpt>
      <trkpt lat="50.59919" lon="3.49494">
        <ele>59.8</ele>
        <time>2022-05-05T01:27:32Z</time>
      </trkpt>
      <trkpt lat="50.59921" lon="3.49486">
        <ele>59.9</ele>
        <time>2022-05-05T01:27:32Z</time>
      </trkpt>
      <trkpt lat="50.59922" lon="3.49478">
        <ele>59.9</ele>
        <time>2022-05-05T01:27:33Z</time>
      </trkpt>
      <trkpt lat="50.59923" lon="3.4947">
        <ele>60</ele>
        <time>2022-05-05T01:27:33Z</time>
      </trkpt>
      <trkpt lat="50.59924" lon="3.49464">
        <ele>60</ele>
        <time>2022-05-05T01:27:34Z</time>
      </trkpt>
      <trkpt lat="50.59924" lon="3.49459">
        <ele>60</ele>
        <time>2022-05-05T01:27:34Z</time>
      </trkpt>
      <trkpt lat="50.59924" lon="3.49455">
        <ele>59.9</ele>
        <time>2022-05-05T01:27:34Z</time>
      </trkpt>
      <trkpt lat="50.59925" lon="3.49452">
        <ele>59.7</ele>
        <time>2022-05-05T01:27:34Z</time>
      </trkpt>
      <trkpt lat="50.59926" lon="3.49449">
        <ele>59.6</ele>
        <time>2022-05-05T01:27:35Z</time>
      </trkpt>
      <trkpt lat="50.59926" lon="3.49447">
        <ele>59.5</ele>
        <time>2022-05-05T01:27:35Z</time>
      </trkpt>
      <trkpt lat="50.59925" lon="3.49446">
        <ele>59.4</ele>
        <time>2022-05-05T01:27:35Z</time>
      </trkpt>
      <trkpt lat="50.59925" lon="3.49446">
        <ele>59.4</ele>
        <time>2022-05-05T01:27:35Z</time>
      </trkpt>
      <trkpt lat="50.59926" lon="3.49446">
        <ele>59.3</ele>
        <time>2022-05-05T01:27:35Z</time>
      </trkpt>
      <trkpt lat="50.59927" lon="3.49446">
        <ele>59.3</ele>
        <time>2022-05-05T01:27:35Z</time>
      </trkpt>
      <trkpt lat="50.59927" lon="3.49446">
        <ele>59.3</ele>
        <time>2022-05-05T01:27:35Z</time>
      </trkpt>
      <trkpt lat="50.59928" lon="3.49446">
        <ele>59.3</ele>
        <time>2022-05-05T01:27:35Z</time>
      </trkpt>
      <trkpt lat="50.59929" lon="3.49446">
        <ele>59.3</ele>
        <time>2022-05-05T01:27:35Z</time>
      </trkpt>
      <trkpt lat="50.59929" lon="3.49445">
        <ele>59.3</ele>
        <time>2022-05-05T01:27:35Z</time>
      </trkpt>
      <trkpt lat="50.59928" lon="3.49444">
        <ele>59.3</ele>
        <time>2022-05-05T01:27:35Z</time>
      </trkpt>
      <trkpt lat="50.59928" lon="3.49442">
        <ele>59.3</ele>
        <time>2022-05-05T01:27:35Z</time>
      </trkpt>
      <trkpt lat="50.59929" lon="3.49441">
        <ele>59.3</ele>
        <time>2022-05-05T01:27:35Z</time>
      </trkpt>
      <trkpt lat="50.59929" lon="3.49439">
        <ele>59.2</ele>
        <time>2022-05-05T01:27:36Z</time>
      </trkpt>
      <trkpt lat="50.5993" lon="3.49439">
        <ele>59.1</ele>
        <time>2022-05-05T01:27:36Z</time>
      </trkpt>
      <trkpt lat="50.5993" lon="3.49438">
        <ele>59.1</ele>
        <time>2022-05-05T01:27:36Z</time>
      </trkpt>
      <trkpt lat="50.59931" lon="3.49437">
        <ele>59</ele>
        <time>2022-05-05T01:27:36Z</time>
      </trkpt>
      <trkpt lat="50.59932" lon="3.49435">
        <ele>58.9</ele>
        <time>2022-05-05T01:27:36Z</time>
      </trkpt>
      <trkpt lat="50.59932" lon="3.49434">
        <ele>58.9</ele>
        <time>2022-05-05T01:27:36Z</time>
      </trkpt>
      <trkpt lat="50.59933" lon="3.49432">
        <ele>58.8</ele>
        <time>2022-05-05T01:27:36Z</time>
      </trkpt>
      <trkpt lat="50.59935" lon="3.49431">
        <ele>58.7</ele>
        <time>2022-05-05T01:27:36Z</time>
      </trkpt>
      <trkpt lat="50.59935" lon="3.49428">
        <ele>58.6</ele>
        <time>2022-05-05T01:27:36Z</time>
      </trkpt>
      <trkpt lat="50.59937" lon="3.49428">
        <ele>58.4</ele>
        <time>2022-05-05T01:27:37Z</time>
      </trkpt>
      <trkpt lat="50.59938" lon="3.49426">
        <ele>58.3</ele>
        <time>2022-05-05T01:27:37Z</time>
      </trkpt>
      <trkpt lat="50.59939" lon="3.49425">
        <ele>58.1</ele>
        <time>2022-05-05T01:27:37Z</time>
      </trkpt>
      <trkpt lat="50.59952" lon="3.49412">
        <ele>56.4</ele>
        <time>2022-05-05T01:27:38Z</time>
      </trkpt>
      <trkpt lat="50.59958" lon="3.49407">
        <ele>56.4</ele>
        <time>2022-05-05T01:27:39Z</time>
      </trkpt>
      <trkpt lat="50.59964" lon="3.494">
        <ele>56.3</ele>
        <time>2022-05-05T01:27:40Z</time>
      </trkpt>
      <trkpt lat="50.59969" lon="3.49394">
        <ele>56.4</ele>
        <time>2022-05-05T01:27:40Z</time>
      </trkpt>
      <trkpt lat="50.59973" lon="3.49391">
        <ele>56.4</ele>
        <time>2022-05-05T01:27:41Z</time>
      </trkpt>
      <trkpt lat="50.59977" lon="3.49386">
        <ele>56.6</ele>
        <time>2022-05-05T01:27:41Z</time>
      </trkpt>
      <trkpt lat="50.5998" lon="3.49383">
        <ele>56.9</ele>
        <time>2022-05-05T01:27:42Z</time>
      </trkpt>
      <trkpt lat="50.59995" lon="3.49391">
        <ele>58.4</ele>
        <time>2022-05-05T01:27:43Z</time>
      </trkpt>
      <trkpt lat="50.59999" lon="3.49396">
        <ele>58.5</ele>
        <time>2022-05-05T01:27:44Z</time>
      </trkpt>
      <trkpt lat="50.60003" lon="3.49402">
        <ele>58.6</ele>
        <time>2022-05-05T01:27:44Z</time>
      </trkpt>
      <trkpt lat="50.60007" lon="3.49408">
        <ele>58.7</ele>
        <time>2022-05-05T01:27:45Z</time>
      </trkpt>
      <trkpt lat="50.60011" lon="3.49415">
        <ele>58.7</ele>
        <time>2022-05-05T01:27:45Z</time>
      </trkpt>
      <trkpt lat="50.60016" lon="3.49421">
        <ele>58.8</ele>
        <time>2022-05-05T01:27:46Z</time>
      </trkpt>
      <trkpt lat="50.60022" lon="3.49426">
        <ele>58.8</ele>
        <time>2022-05-05T01:27:46Z</time>
      </trkpt>
      <trkpt lat="50.60027" lon="3.49433">
        <ele>58.9</ele>
        <time>2022-05-05T01:27:47Z</time>
      </trkpt>
      <trkpt lat="50.60032" lon="3.49438">
        <ele>58.9</ele>
        <time>2022-05-05T01:27:48Z</time>
      </trkpt>
      <trkpt lat="50.60036" lon="3.49443">
        <ele>58.9</ele>
        <time>2022-05-05T01:27:48Z</time>
      </trkpt>
      <trkpt lat="50.60041" lon="3.49449">
        <ele>58.9</ele>
        <time>2022-05-05T01:27:49Z</time>
      </trkpt>
      <trkpt lat="50.60045" lon="3.49454">
        <ele>58.9</ele>
        <time>2022-05-05T01:27:49Z</time>
      </trkpt>
      <trkpt lat="50.6005" lon="3.4946">
        <ele>59</ele>
        <time>2022-05-05T01:27:50Z</time>
      </trkpt>
      <trkpt lat="50.60055" lon="3.49465">
        <ele>59.2</ele>
        <time>2022-05-05T01:27:50Z</time>
      </trkpt>
      <trkpt lat="50.60059" lon="3.4947">
        <ele>59.3</ele>
        <time>2022-05-05T01:27:51Z</time>
      </trkpt>
      <trkpt lat="50.60063" lon="3.49474">
        <ele>59.5</ele>
        <time>2022-05-05T01:27:51Z</time>
      </trkpt>
      <trkpt lat="50.60067" lon="3.49478">
        <ele>59.7</ele>
        <time>2022-05-05T01:27:52Z</time>
      </trkpt>
      <trkpt lat="50.60071" lon="3.49483">
        <ele>59.8</ele>
        <time>2022-05-05T01:27:52Z</time>
      </trkpt>
      <trkpt lat="50.60076" lon="3.49488">
        <ele>60</ele>
        <time>2022-05-05T01:27:53Z</time>
      </trkpt>
      <trkpt lat="50.6008" lon="3.49493">
        <ele>60.1</ele>
        <time>2022-05-05T01:27:53Z</time>
      </trkpt>
      <trkpt lat="50.60085" lon="3.49498">
        <ele>60.3</ele>
        <time>2022-05-05T01:27:54Z</time>
      </trkpt>
      <trkpt lat="50.60089" lon="3.49504">
        <ele>60.5</ele>
        <time>2022-05-05T01:27:54Z</time>
      </trkpt>
      <trkpt lat="50.60095" lon="3.4951">
        <ele>60.6</ele>
        <time>2022-05-05T01:27:55Z</time>
      </trkpt>
      <trkpt lat="50.601" lon="3.49515">
        <ele>60.5</ele>
        <time>2022-05-05T01:27:56Z</time>
      </trkpt>
      <trkpt lat="50.60106" lon="3.49521">
        <ele>60.4</ele>
        <time>2022-05-05T01:27:56Z</time>
      </trkpt>
      <trkpt lat="50.60112" lon="3.49526">
        <ele>60.3</ele>
        <time>2022-05-05T01:27:57Z</time>
      </trkpt>
      <trkpt lat="50.60117" lon="3.49532">
        <ele>60.2</ele>
        <time>2022-05-05T01:27:57Z</time>
      </trkpt>
      <trkpt lat="50.60122" lon="3.49537">
        <ele>60.1</ele>
        <time>2022-05-05T01:27:58Z</time>
      </trkpt>
      <trkpt lat="50.60127" lon="3.49542">
        <ele>60.1</ele>
        <time>2022-05-05T01:27:59Z</time>
      </trkpt>
      <trkpt lat="50.60132" lon="3.49548">
        <ele>60.1</ele>
        <time>2022-05-05T01:27:59Z</time>
      </trkpt>
      <trkpt lat="50.60137" lon="3.49552">
        <ele>60.1</ele>
        <time>2022-05-05T01:28:00Z</time>
      </trkpt>
      <trkpt lat="50.60143" lon="3.49556">
        <ele>60</ele>
        <time>2022-05-05T01:28:00Z</time>
      </trkpt>
      <trkpt lat="50.60148" lon="3.49561">
        <ele>60</ele>
        <time>2022-05-05T01:28:01Z</time>
      </trkpt>
      <trkpt lat="50.60154" lon="3.49565">
        <ele>59.9</ele>
        <time>2022-05-05T01:28:02Z</time>
      </trkpt>
      <trkpt lat="50.60158" lon="3.49571">
        <ele>59.9</ele>
        <time>2022-05-05T01:28:02Z</time>
      </trkpt>
      <trkpt lat="50.60164" lon="3.49576">
        <ele>59.9</ele>
        <time>2022-05-05T01:28:03Z</time>
      </trkpt>
      <trkpt lat="50.60169" lon="3.49581">
        <ele>59.9</ele>
        <time>2022-05-05T01:28:03Z</time>
      </trkpt>
      <trkpt lat="50.60174" lon="3.49585">
        <ele>59.7</ele>
        <time>2022-05-05T01:28:04Z</time>
      </trkpt>
      <trkpt lat="50.60179" lon="3.49591">
        <ele>59.7</ele>
        <time>2022-05-05T01:28:04Z</time>
      </trkpt>
      <trkpt lat="50.60184" lon="3.49597">
        <ele>59.7</ele>
        <time>2022-05-05T01:28:05Z</time>
      </trkpt>
      <trkpt lat="50.6019" lon="3.49603">
        <ele>59.6</ele>
        <time>2022-05-05T01:28:06Z</time>
      </trkpt>
      <trkpt lat="50.60195" lon="3.4961">
        <ele>59.6</ele>
        <time>2022-05-05T01:28:06Z</time>
      </trkpt>
      <trkpt lat="50.60201" lon="3.49617">
        <ele>59.6</ele>
        <time>2022-05-05T01:28:07Z</time>
      </trkpt>
      <trkpt lat="50.60207" lon="3.49622">
        <ele>59.6</ele>
        <time>2022-05-05T01:28:08Z</time>
      </trkpt>
      <trkpt lat="50.60213" lon="3.49628">
        <ele>59.6</ele>
        <time>2022-05-05T01:28:08Z</time>
      </trkpt>
      <trkpt lat="50.60218" lon="3.49634">
        <ele>59.6</ele>
        <time>2022-05-05T01:28:09Z</time>
      </trkpt>
      <trkpt lat="50.60223" lon="3.4964">
        <ele>59.6</ele>
        <time>2022-05-05T01:28:10Z</time>
      </trkpt>
      <trkpt lat="50.60228" lon="3.49646">
        <ele>59.6</ele>
        <time>2022-05-05T01:28:10Z</time>
      </trkpt>
      <trkpt lat="50.60234" lon="3.49653">
        <ele>59.5</ele>
        <time>2022-05-05T01:28:11Z</time>
      </trkpt>
      <trkpt lat="50.60239" lon="3.49659">
        <ele>59.4</ele>
        <time>2022-05-05T01:28:12Z</time>
      </trkpt>
      <trkpt lat="50.60245" lon="3.49666">
        <ele>59.4</ele>
        <time>2022-05-05T01:28:12Z</time>
      </trkpt>
      <trkpt lat="50.60251" lon="3.49672">
        <ele>59.4</ele>
        <time>2022-05-05T01:28:13Z</time>
      </trkpt>
      <trkpt lat="50.60257" lon="3.49678">
        <ele>59.5</ele>
        <time>2022-05-05T01:28:13Z</time>
      </trkpt>
      <trkpt lat="50.60262" lon="3.49684">
        <ele>59.5</ele>
        <time>2022-05-05T01:28:14Z</time>
      </trkpt>
      <trkpt lat="50.60267" lon="3.4969">
        <ele>59.4</ele>
        <time>2022-05-05T01:28:15Z</time>
      </trkpt>
      <trkpt lat="50.60272" lon="3.49695">
        <ele>59.4</ele>
        <time>2022-05-05T01:28:15Z</time>
      </trkpt>
      <trkpt lat="50.60278" lon="3.497">
        <ele>59.5</ele>
        <time>2022-05-05T01:28:16Z</time>
      </trkpt>
      <trkpt lat="50.60283" lon="3.49706">
        <ele>59.5</ele>
        <time>2022-05-05T01:28:17Z</time>
      </trkpt>
      <trkpt lat="50.60289" lon="3.49712">
        <ele>59.5</ele>
        <time>2022-05-05T01:28:17Z</time>
      </trkpt>
      <trkpt lat="50.60295" lon="3.49718">
        <ele>59.3</ele>
        <time>2022-05-05T01:28:18Z</time>
      </trkpt>
      <trkpt lat="50.60302" lon="3.49724">
        <ele>59.1</ele>
        <time>2022-05-05T01:28:19Z</time>
      </trkpt>
      <trkpt lat="50.60308" lon="3.49731">
        <ele>58.9</ele>
        <time>2022-05-05T01:28:19Z</time>
      </trkpt>
      <trkpt lat="50.60315" lon="3.49738">
        <ele>58.6</ele>
        <time>2022-05-05T01:28:20Z</time>
      </trkpt>
      <trkpt lat="50.60322" lon="3.49746">
        <ele>58.5</ele>
        <time>2022-05-05T01:28:21Z</time>
      </trkpt>
      <trkpt lat="50.60329" lon="3.49753">
        <ele>58.4</ele>
        <time>2022-05-05T01:28:22Z</time>
      </trkpt>
      <trkpt lat="50.60335" lon="3.4976">
        <ele>58.4</ele>
        <time>2022-05-05T01:28:22Z</time>
      </trkpt>
      <trkpt lat="50.60341" lon="3.49766">
        <ele>58.3</ele>
        <time>2022-05-05T01:28:23Z</time>
      </trkpt>
      <trkpt lat="50.60346" lon="3.49771">
        <ele>58.3</ele>
        <time>2022-05-05T01:28:24Z</time>
      </trkpt>
      <trkpt lat="50.60352" lon="3.49777">
        <ele>58.3</ele>
        <time>2022-05-05T01:28:24Z</time>
      </trkpt>
      <trkpt lat="50.60358" lon="3.49783">
        <ele>58.3</ele>
        <time>2022-05-05T01:28:25Z</time>
      </trkpt>
      <trkpt lat="50.60364" lon="3.49789">
        <ele>58.3</ele>
        <time>2022-05-05T01:28:26Z</time>
      </trkpt>
      <trkpt lat="50.6037" lon="3.49795">
        <ele>58.3</ele>
        <time>2022-05-05T01:28:26Z</time>
      </trkpt>
      <trkpt lat="50.60375" lon="3.498">
        <ele>58.3</ele>
        <time>2022-05-05T01:28:27Z</time>
      </trkpt>
      <trkpt lat="50.60381" lon="3.49805">
        <ele>58.3</ele>
        <time>2022-05-05T01:28:28Z</time>
      </trkpt>
      <trkpt lat="50.60386" lon="3.4981">
        <ele>58.3</ele>
        <time>2022-05-05T01:28:28Z</time>
      </trkpt>
      <trkpt lat="50.60392" lon="3.49818">
        <ele>58.3</ele>
        <time>2022-05-05T01:28:29Z</time>
      </trkpt>
      <trkpt lat="50.60398" lon="3.49825">
        <ele>58.3</ele>
        <time>2022-05-05T01:28:30Z</time>
      </trkpt>
      <trkpt lat="50.60404" lon="3.49833">
        <ele>58.3</ele>
        <time>2022-05-05T01:28:30Z</time>
      </trkpt>
      <trkpt lat="50.60411" lon="3.4984">
        <ele>58.3</ele>
        <time>2022-05-05T01:28:31Z</time>
      </trkpt>
      <trkpt lat="50.60417" lon="3.49847">
        <ele>58.3</ele>
        <time>2022-05-05T01:28:32Z</time>
      </trkpt>
      <trkpt lat="50.60424" lon="3.49853">
        <ele>58.3</ele>
        <time>2022-05-05T01:28:33Z</time>
      </trkpt>
      <trkpt lat="50.60431" lon="3.49859">
        <ele>58.2</ele>
        <time>2022-05-05T01:28:33Z</time>
      </trkpt>
      <trkpt lat="50.60437" lon="3.49866">
        <ele>58</ele>
        <time>2022-05-05T01:28:34Z</time>
      </trkpt>
      <trkpt lat="50.60444" lon="3.49872">
        <ele>57.7</ele>
        <time>2022-05-05T01:28:35Z</time>
      </trkpt>
      <trkpt lat="50.6045" lon="3.49878">
        <ele>57.4</ele>
        <time>2022-05-05T01:28:36Z</time>
      </trkpt>
      <trkpt lat="50.60455" lon="3.49883">
        <ele>57.2</ele>
        <time>2022-05-05T01:28:36Z</time>
      </trkpt>
      <trkpt lat="50.60459" lon="3.49887">
        <ele>57.1</ele>
        <time>2022-05-05T01:28:37Z</time>
      </trkpt>
      <trkpt lat="50.60463" lon="3.49891">
        <ele>57.1</ele>
        <time>2022-05-05T01:28:37Z</time>
      </trkpt>
      <trkpt lat="50.60466" lon="3.49896">
        <ele>57</ele>
        <time>2022-05-05T01:28:37Z</time>
      </trkpt>
      <trkpt lat="50.60469" lon="3.49899">
        <ele>57</ele>
        <time>2022-05-05T01:28:38Z</time>
      </trkpt>
      <trkpt lat="50.60472" lon="3.49902">
        <ele>57</ele>
        <time>2022-05-05T01:28:38Z</time>
      </trkpt>
      <trkpt lat="50.60476" lon="3.49904">
        <ele>56.9</ele>
        <time>2022-05-05T01:28:38Z</time>
      </trkpt>
      <trkpt lat="50.60478" lon="3.49909">
        <ele>56.9</ele>
        <time>2022-05-05T01:28:39Z</time>
      </trkpt>
      <trkpt lat="50.60481" lon="3.49912">
        <ele>56.9</ele>
        <time>2022-05-05T01:28:39Z</time>
      </trkpt>
      <trkpt lat="50.60483" lon="3.49915">
        <ele>56.9</ele>
        <time>2022-05-05T01:28:39Z</time>
      </trkpt>
      <trkpt lat="50.60487" lon="3.49919">
        <ele>56.9</ele>
        <time>2022-05-05T01:28:40Z</time>
      </trkpt>
      <trkpt lat="50.6049" lon="3.49923">
        <ele>56.9</ele>
        <time>2022-05-05T01:28:40Z</time>
      </trkpt>
      <trkpt lat="50.60494" lon="3.49929">
        <ele>56.8</ele>
        <time>2022-05-05T01:28:41Z</time>
      </trkpt>
      <trkpt lat="50.60498" lon="3.49934">
        <ele>56.7</ele>
        <time>2022-05-05T01:28:41Z</time>
      </trkpt>
      <trkpt lat="50.60502" lon="3.49939">
        <ele>56.5</ele>
        <time>2022-05-05T01:28:42Z</time>
      </trkpt>
      <trkpt lat="50.60506" lon="3.49944">
        <ele>56.3</ele>
        <time>2022-05-05T01:28:42Z</time>
      </trkpt>
      <trkpt lat="50.60512" lon="3.49949">
        <ele>56</ele>
        <time>2022-05-05T01:28:43Z</time>
      </trkpt>
      <trkpt lat="50.60518" lon="3.49954">
        <ele>55.9</ele>
        <time>2022-05-05T01:28:44Z</time>
      </trkpt>
      <trkpt lat="50.60523" lon="3.49959">
        <ele>55.8</ele>
        <time>2022-05-05T01:28:44Z</time>
      </trkpt>
      <trkpt lat="50.6053" lon="3.49965">
        <ele>55.7</ele>
        <time>2022-05-05T01:28:45Z</time>
      </trkpt>
      <trkpt lat="50.60535" lon="3.49971">
        <ele>55.6</ele>
        <time>2022-05-05T01:28:45Z</time>
      </trkpt>
      <trkpt lat="50.60541" lon="3.49977">
        <ele>55.5</ele>
        <time>2022-05-05T01:28:46Z</time>
      </trkpt>
      <trkpt lat="50.60547" lon="3.49982">
        <ele>55.3</ele>
        <time>2022-05-05T01:28:47Z</time>
      </trkpt>
      <trkpt lat="50.60552" lon="3.49987">
        <ele>55</ele>
        <time>2022-05-05T01:28:47Z</time>
      </trkpt>
      <trkpt lat="50.60556" lon="3.49993">
        <ele>54.8</ele>
        <time>2022-05-05T01:28:48Z</time>
      </trkpt>
      <trkpt lat="50.60561" lon="3.49998">
        <ele>54.6</ele>
        <time>2022-05-05T01:28:48Z</time>
      </trkpt>
      <trkpt lat="50.60566" lon="3.50003">
        <ele>54.5</ele>
        <time>2022-05-05T01:28:49Z</time>
      </trkpt>
      <trkpt lat="50.60571" lon="3.50009">
        <ele>54.4</ele>
        <time>2022-05-05T01:28:50Z</time>
      </trkpt>
      <trkpt lat="50.60576" lon="3.50014">
        <ele>54.3</ele>
        <time>2022-05-05T01:28:50Z</time>
      </trkpt>
      <trkpt lat="50.60581" lon="3.50018">
        <ele>54.1</ele>
        <time>2022-05-05T01:28:51Z</time>
      </trkpt>
      <trkpt lat="50.60587" lon="3.5002">
        <ele>53.9</ele>
        <time>2022-05-05T01:28:51Z</time>
      </trkpt>
      <trkpt lat="50.60591" lon="3.50021">
        <ele>53.7</ele>
        <time>2022-05-05T01:28:52Z</time>
      </trkpt>
      <trkpt lat="50.60595" lon="3.50022">
        <ele>53.5</ele>
        <time>2022-05-05T01:28:52Z</time>
      </trkpt>
      <trkpt lat="50.60599" lon="3.50025">
        <ele>53.3</ele>
        <time>2022-05-05T01:28:52Z</time>
      </trkpt>
      <trkpt lat="50.60603" lon="3.50025">
        <ele>53.2</ele>
        <time>2022-05-05T01:28:53Z</time>
      </trkpt>
      <trkpt lat="50.60606" lon="3.50025">
        <ele>53.1</ele>
        <time>2022-05-05T01:28:53Z</time>
      </trkpt>
      <trkpt lat="50.60608" lon="3.50025">
        <ele>53.1</ele>
        <time>2022-05-05T01:28:53Z</time>
      </trkpt>
      <trkpt lat="50.60611" lon="3.50024">
        <ele>53</ele>
        <time>2022-05-05T01:28:54Z</time>
      </trkpt>
      <trkpt lat="50.60615" lon="3.50022">
        <ele>53</ele>
        <time>2022-05-05T01:28:54Z</time>
      </trkpt>
      <trkpt lat="50.60617" lon="3.50018">
        <ele>53</ele>
        <time>2022-05-05T01:28:54Z</time>
      </trkpt>
      <trkpt lat="50.60619" lon="3.50009">
        <ele>52.9</ele>
        <time>2022-05-05T01:28:55Z</time>
      </trkpt>
      <trkpt lat="50.60621" lon="3.49998">
        <ele>52.8</ele>
        <time>2022-05-05T01:28:56Z</time>
      </trkpt>
      <trkpt lat="50.60624" lon="3.49989">
        <ele>52.7</ele>
        <time>2022-05-05T01:28:56Z</time>
      </trkpt>
      <trkpt lat="50.60627" lon="3.49978">
        <ele>52.7</ele>
        <time>2022-05-05T01:28:57Z</time>
      </trkpt>
      <trkpt lat="50.6063" lon="3.49968">
        <ele>52.7</ele>
        <time>2022-05-05T01:28:58Z</time>
      </trkpt>
      <trkpt lat="50.60633" lon="3.49957">
        <ele>52.8</ele>
        <time>2022-05-05T01:28:58Z</time>
      </trkpt>
      <trkpt lat="50.60636" lon="3.49945">
        <ele>52.9</ele>
        <time>2022-05-05T01:28:59Z</time>
      </trkpt>
      <trkpt lat="50.60639" lon="3.49931">
        <ele>53</ele>
        <time>2022-05-05T01:29:00Z</time>
      </trkpt>
      <trkpt lat="50.60642" lon="3.49916">
        <ele>53</ele>
        <time>2022-05-05T01:29:01Z</time>
      </trkpt>
      <trkpt lat="50.60644" lon="3.49899">
        <ele>52.9</ele>
        <time>2022-05-05T01:29:02Z</time>
      </trkpt>
      <trkpt lat="50.60647" lon="3.49882">
        <ele>52.8</ele>
        <time>2022-05-05T01:29:03Z</time>
      </trkpt>
      <trkpt lat="50.60652" lon="3.49866">
        <ele>52.8</ele>
        <time>2022-05-05T01:29:04Z</time>
      </trkpt>
      <trkpt lat="50.60656" lon="3.49852">
        <ele>52.9</ele>
        <time>2022-05-05T01:29:05Z</time>
      </trkpt>
      <trkpt lat="50.6066" lon="3.49837">
        <ele>52.8</ele>
        <time>2022-05-05T01:29:06Z</time>
      </trkpt>
      <trkpt lat="50.60664" lon="3.49823">
        <ele>52.6</ele>
        <time>2022-05-05T01:29:07Z</time>
      </trkpt>
      <trkpt lat="50.60668" lon="3.49807">
        <ele>52.3</ele>
        <time>2022-05-05T01:29:08Z</time>
      </trkpt>
      <trkpt lat="50.60671" lon="3.49791">
        <ele>52.1</ele>
        <time>2022-05-05T01:29:09Z</time>
      </trkpt>
      <trkpt lat="50.60675" lon="3.49776">
        <ele>51.8</ele>
        <time>2022-05-05T01:29:10Z</time>
      </trkpt>
      <trkpt lat="50.60679" lon="3.49761">
        <ele>51.6</ele>
        <time>2022-05-05T01:29:11Z</time>
      </trkpt>
      <trkpt lat="50.60683" lon="3.49747">
        <ele>51.4</ele>
        <time>2022-05-05T01:29:12Z</time>
      </trkpt>
      <trkpt lat="50.60688" lon="3.49734">
        <ele>51.2</ele>
        <time>2022-05-05T01:29:13Z</time>
      </trkpt>
      <trkpt lat="50.60691" lon="3.4972">
        <ele>51</ele>
        <time>2022-05-05T01:29:14Z</time>
      </trkpt>
      <trkpt lat="50.60696" lon="3.49705">
        <ele>50.8</ele>
        <time>2022-05-05T01:29:15Z</time>
      </trkpt>
      <trkpt lat="50.60701" lon="3.4969">
        <ele>50.6</ele>
        <time>2022-05-05T01:29:16Z</time>
      </trkpt>
      <trkpt lat="50.60706" lon="3.49672">
        <ele>50.4</ele>
        <time>2022-05-05T01:29:17Z</time>
      </trkpt>
      <trkpt lat="50.60711" lon="3.49656">
        <ele>50.2</ele>
        <time>2022-05-05T01:29:18Z</time>
      </trkpt>
      <trkpt lat="50.60715" lon="3.49641">
        <ele>49.9</ele>
        <time>2022-05-05T01:29:19Z</time>
      </trkpt>
      <trkpt lat="50.60719" lon="3.49626">
        <ele>49.7</ele>
        <time>2022-05-05T01:29:20Z</time>
      </trkpt>
      <trkpt lat="50.60723" lon="3.49613">
        <ele>49.5</ele>
        <time>2022-05-05T01:29:21Z</time>
      </trkpt>
      <trkpt lat="50.60726" lon="3.49601">
        <ele>49.3</ele>
        <time>2022-05-05T01:29:22Z</time>
      </trkpt>
      <trkpt lat="50.60729" lon="3.49589">
        <ele>49.1</ele>
        <time>2022-05-05T01:29:22Z</time>
      </trkpt>
      <trkpt lat="50.60732" lon="3.49577">
        <ele>48.9</ele>
        <time>2022-05-05T01:29:23Z</time>
      </trkpt>
      <trkpt lat="50.60733" lon="3.49566">
        <ele>48.9</ele>
        <time>2022-05-05T01:29:24Z</time>
      </trkpt>
      <trkpt lat="50.60734" lon="3.49556">
        <ele>49</ele>
        <time>2022-05-05T01:29:24Z</time>
      </trkpt>
      <trkpt lat="50.60735" lon="3.49547">
        <ele>49.3</ele>
        <time>2022-05-05T01:29:25Z</time>
      </trkpt>
      <trkpt lat="50.60736" lon="3.49539">
        <ele>49.5</ele>
        <time>2022-05-05T01:29:26Z</time>
      </trkpt>
      <trkpt lat="50.60736" lon="3.49533">
        <ele>49.7</ele>
        <time>2022-05-05T01:29:26Z</time>
      </trkpt>
      <trkpt lat="50.60736" lon="3.49527">
        <ele>49.9</ele>
        <time>2022-05-05T01:29:26Z</time>
      </trkpt>
      <trkpt lat="50.60737" lon="3.49524">
        <ele>50</ele>
        <time>2022-05-05T01:29:26Z</time>
      </trkpt>
      <trkpt lat="50.60738" lon="3.49521">
        <ele>50.1</ele>
        <time>2022-05-05T01:29:27Z</time>
      </trkpt>
      <trkpt lat="50.60741" lon="3.4952">
        <ele>50.2</ele>
        <time>2022-05-05T01:29:27Z</time>
      </trkpt>
      <trkpt lat="50.60744" lon="3.49521">
        <ele>50.2</ele>
        <time>2022-05-05T01:29:27Z</time>
      </trkpt>
      <trkpt lat="50.60748" lon="3.49523">
        <ele>50.3</ele>
        <time>2022-05-05T01:29:28Z</time>
      </trkpt>
      <trkpt lat="50.60752" lon="3.49525">
        <ele>50.3</ele>
        <time>2022-05-05T01:29:28Z</time>
      </trkpt>
      <trkpt lat="50.60755" lon="3.49528">
        <ele>50.4</ele>
        <time>2022-05-05T01:29:28Z</time>
      </trkpt>
      <trkpt lat="50.60759" lon="3.49534">
        <ele>50.7</ele>
        <time>2022-05-05T01:29:29Z</time>
      </trkpt>
      <trkpt lat="50.60762" lon="3.49541">
        <ele>51</ele>
        <time>2022-05-05T01:29:29Z</time>
      </trkpt>
      <trkpt lat="50.60763" lon="3.49549">
        <ele>51.3</ele>
        <time>2022-05-05T01:29:30Z</time>
      </trkpt>
      <trkpt lat="50.60765" lon="3.49559">
        <ele>51.3</ele>
        <time>2022-05-05T01:29:31Z</time>
      </trkpt>
      <trkpt lat="50.60768" lon="3.49573">
        <ele>51.1</ele>
        <time>2022-05-05T01:29:31Z</time>
      </trkpt>
      <trkpt lat="50.60773" lon="3.49587">
        <ele>50.8</ele>
        <time>2022-05-05T01:29:32Z</time>
      </trkpt>
      <trkpt lat="50.60777" lon="3.49603">
        <ele>50.4</ele>
        <time>2022-05-05T01:29:33Z</time>
      </trkpt>
      <trkpt lat="50.60782" lon="3.49618">
        <ele>50</ele>
        <time>2022-05-05T01:29:34Z</time>
      </trkpt>
      <trkpt lat="50.60786" lon="3.4963">
        <ele>50</ele>
        <time>2022-05-05T01:29:35Z</time>
      </trkpt>
      <trkpt lat="50.60791" lon="3.49643">
        <ele>50.2</ele>
        <time>2022-05-05T01:29:36Z</time>
      </trkpt>
      <trkpt lat="50.60795" lon="3.49657">
        <ele>50.5</ele>
        <time>2022-05-05T01:29:37Z</time>
      </trkpt>
      <trkpt lat="50.60799" lon="3.49672">
        <ele>50.7</ele>
        <time>2022-05-05T01:29:38Z</time>
      </trkpt>
      <trkpt lat="50.60804" lon="3.49687">
        <ele>50.6</ele>
        <time>2022-05-05T01:29:39Z</time>
      </trkpt>
      <trkpt lat="50.60808" lon="3.49702">
        <ele>50.2</ele>
        <time>2022-05-05T01:29:40Z</time>
      </trkpt>
      <trkpt lat="50.60812" lon="3.49716">
        <ele>50</ele>
        <time>2022-05-05T01:29:41Z</time>
      </trkpt>
      <trkpt lat="50.60816" lon="3.49731">
        <ele>50.1</ele>
        <time>2022-05-05T01:29:42Z</time>
      </trkpt>
      <trkpt lat="50.60819" lon="3.49745">
        <ele>50.2</ele>
        <time>2022-05-05T01:29:43Z</time>
      </trkpt>
      <trkpt lat="50.60823" lon="3.49759">
        <ele>50.4</ele>
        <time>2022-05-05T01:29:44Z</time>
      </trkpt>
      <trkpt lat="50.60827" lon="3.49773">
        <ele>50.4</ele>
        <time>2022-05-05T01:29:45Z</time>
      </trkpt>
      <trkpt lat="50.60831" lon="3.49787">
        <ele>50.3</ele>
        <time>2022-05-05T01:29:46Z</time>
      </trkpt>
      <trkpt lat="50.60835" lon="3.49801">
        <ele>50.1</ele>
        <time>2022-05-05T01:29:47Z</time>
      </trkpt>
      <trkpt lat="50.60839" lon="3.49815">
        <ele>50</ele>
        <time>2022-05-05T01:29:48Z</time>
      </trkpt>
      <trkpt lat="50.60844" lon="3.49828">
        <ele>50.4</ele>
        <time>2022-05-05T01:29:49Z</time>
      </trkpt>
      <trkpt lat="50.60848" lon="3.49843">
        <ele>51.1</ele>
        <time>2022-05-05T01:29:49Z</time>
      </trkpt>
      <trkpt lat="50.60852" lon="3.49857">
        <ele>51.7</ele>
        <time>2022-05-05T01:29:50Z</time>
      </trkpt>
      <trkpt lat="50.60856" lon="3.49871">
        <ele>52.2</ele>
        <time>2022-05-05T01:29:51Z</time>
      </trkpt>
      <trkpt lat="50.60859" lon="3.49883">
        <ele>52.6</ele>
        <time>2022-05-05T01:29:52Z</time>
      </trkpt>
      <trkpt lat="50.60862" lon="3.49893">
        <ele>52.8</ele>
        <time>2022-05-05T01:29:53Z</time>
      </trkpt>
      <trkpt lat="50.60865" lon="3.49903">
        <ele>53.1</ele>
        <time>2022-05-05T01:29:53Z</time>
      </trkpt>
      <trkpt lat="50.60868" lon="3.49913">
        <ele>53.3</ele>
        <time>2022-05-05T01:29:54Z</time>
      </trkpt>
      <trkpt lat="50.60871" lon="3.49923">
        <ele>54.4</ele>
        <time>2022-05-05T01:29:55Z</time>
      </trkpt>
      <trkpt lat="50.60874" lon="3.49933">
        <ele>55.4</ele>
        <time>2022-05-05T01:29:55Z</time>
      </trkpt>
      <trkpt lat="50.60877" lon="3.49942">
        <ele>56.2</ele>
        <time>2022-05-05T01:29:56Z</time>
      </trkpt>
      <trkpt lat="50.60879" lon="3.49952">
        <ele>56.9</ele>
        <time>2022-05-05T01:29:57Z</time>
      </trkpt>
      <trkpt lat="50.60883" lon="3.49962">
        <ele>57.4</ele>
        <time>2022-05-05T01:29:57Z</time>
      </trkpt>
      <trkpt lat="50.60886" lon="3.49974">
        <ele>57.9</ele>
        <time>2022-05-05T01:29:58Z</time>
      </trkpt>
      <trkpt lat="50.60889" lon="3.49985">
        <ele>58.4</ele>
        <time>2022-05-05T01:29:59Z</time>
      </trkpt>
      <trkpt lat="50.60893" lon="3.49996">
        <ele>58.9</ele>
        <time>2022-05-05T01:30:00Z</time>
      </trkpt>
      <trkpt lat="50.60898" lon="3.50007">
        <ele>59.6</ele>
        <time>2022-05-05T01:30:00Z</time>
      </trkpt>
      <trkpt lat="50.60902" lon="3.50016">
        <ele>60.4</ele>
        <time>2022-05-05T01:30:01Z</time>
      </trkpt>
      <trkpt lat="50.60904" lon="3.50021">
        <ele>61.2</ele>
        <time>2022-05-05T01:30:01Z</time>
      </trkpt>
      <trkpt lat="50.60905" lon="3.50022">
        <ele>61.8</ele>
        <time>2022-05-05T01:30:02Z</time>
      </trkpt>
      <trkpt lat="50.60906" lon="3.50023">
        <ele>62.1</ele>
        <time>2022-05-05T01:30:02Z</time>
      </trkpt>
      <trkpt lat="50.60907" lon="3.50025">
        <ele>62.4</ele>
        <time>2022-05-05T01:30:02Z</time>
      </trkpt>
      <trkpt lat="50.60909" lon="3.50028">
        <ele>62.6</ele>
        <time>2022-05-05T01:30:02Z</time>
      </trkpt>
      <trkpt lat="50.60911" lon="3.50034">
        <ele>62.7</ele>
        <time>2022-05-05T01:30:03Z</time>
      </trkpt>
      <trkpt lat="50.60914" lon="3.50041">
        <ele>62.7</ele>
        <time>2022-05-05T01:30:03Z</time>
      </trkpt>
      <trkpt lat="50.60917" lon="3.50048">
        <ele>62.8</ele>
        <time>2022-05-05T01:30:04Z</time>
      </trkpt>
      <trkpt lat="50.60919" lon="3.50055">
        <ele>62.7</ele>
        <time>2022-05-05T01:30:04Z</time>
      </trkpt>
      <trkpt lat="50.60922" lon="3.50061">
        <ele>62.8</ele>
        <time>2022-05-05T01:30:04Z</time>
      </trkpt>
      <trkpt lat="50.60924" lon="3.50067">
        <ele>63</ele>
        <time>2022-05-05T01:30:05Z</time>
      </trkpt>
      <trkpt lat="50.60925" lon="3.50075">
        <ele>63.2</ele>
        <time>2022-05-05T01:30:05Z</time>
      </trkpt>
      <trkpt lat="50.60924" lon="3.50085">
        <ele>63.4</ele>
        <time>2022-05-05T01:30:06Z</time>
      </trkpt>
      <trkpt lat="50.60922" lon="3.50097">
        <ele>63.4</ele>
        <time>2022-05-05T01:30:07Z</time>
      </trkpt>
      <trkpt lat="50.60919" lon="3.50111">
        <ele>63.5</ele>
        <time>2022-05-05T01:30:08Z</time>
      </trkpt>
      <trkpt lat="50.60916" lon="3.50127">
        <ele>63.6</ele>
        <time>2022-05-05T01:30:09Z</time>
      </trkpt>
      <trkpt lat="50.60912" lon="3.50143">
        <ele>63.8</ele>
        <time>2022-05-05T01:30:10Z</time>
      </trkpt>
      <trkpt lat="50.60909" lon="3.50159">
        <ele>64.2</ele>
        <time>2022-05-05T01:30:11Z</time>
      </trkpt>
      <trkpt lat="50.60907" lon="3.50172">
        <ele>64.5</ele>
        <time>2022-05-05T01:30:12Z</time>
      </trkpt>
      <trkpt lat="50.60905" lon="3.50184">
        <ele>64.7</ele>
        <time>2022-05-05T01:30:12Z</time>
      </trkpt>
      <trkpt lat="50.60902" lon="3.50194">
        <ele>65</ele>
        <time>2022-05-05T01:30:13Z</time>
      </trkpt>
      <trkpt lat="50.609" lon="3.50202">
        <ele>65.3</ele>
        <time>2022-05-05T01:30:13Z</time>
      </trkpt>
      <trkpt lat="50.60895" lon="3.50209">
        <ele>65.5</ele>
        <time>2022-05-05T01:30:14Z</time>
      </trkpt>
      <trkpt lat="50.6089" lon="3.50217">
        <ele>65.5</ele>
        <time>2022-05-05T01:30:15Z</time>
      </trkpt>
      <trkpt lat="50.60885" lon="3.50228">
        <ele>65.5</ele>
        <time>2022-05-05T01:30:16Z</time>
      </trkpt>
      <trkpt lat="50.60878" lon="3.50238">
        <ele>65.4</ele>
        <time>2022-05-05T01:30:16Z</time>
      </trkpt>
      <trkpt lat="50.60872" lon="3.5025">
        <ele>65.2</ele>
        <time>2022-05-05T01:30:17Z</time>
      </trkpt>
      <trkpt lat="50.60866" lon="3.50262">
        <ele>65</ele>
        <time>2022-05-05T01:30:18Z</time>
      </trkpt>
      <trkpt lat="50.6086" lon="3.50273">
        <ele>65</ele>
        <time>2022-05-05T01:30:19Z</time>
      </trkpt>
      <trkpt lat="50.60854" lon="3.50283">
        <ele>65</ele>
        <time>2022-05-05T01:30:20Z</time>
      </trkpt>
      <trkpt lat="50.60849" lon="3.50293">
        <ele>65</ele>
        <time>2022-05-05T01:30:21Z</time>
      </trkpt>
      <trkpt lat="50.60845" lon="3.503">
        <ele>65</ele>
        <time>2022-05-05T01:30:21Z</time>
      </trkpt>
      <trkpt lat="50.60842" lon="3.50307">
        <ele>64.9</ele>
        <time>2022-05-05T01:30:22Z</time>
      </trkpt>
      <trkpt lat="50.60839" lon="3.50313">
        <ele>64.8</ele>
        <time>2022-05-05T01:30:22Z</time>
      </trkpt>
      <trkpt lat="50.60836" lon="3.50318">
        <ele>64.7</ele>
        <time>2022-05-05T01:30:23Z</time>
      </trkpt>
      <trkpt lat="50.60834" lon="3.50321">
        <ele>64.6</ele>
        <time>2022-05-05T01:30:23Z</time>
      </trkpt>
      <trkpt lat="50.60832" lon="3.50324">
        <ele>64.5</ele>
        <time>2022-05-05T01:30:23Z</time>
      </trkpt>
      <trkpt lat="50.60831" lon="3.50326">
        <ele>64.4</ele>
        <time>2022-05-05T01:30:23Z</time>
      </trkpt>
      <trkpt lat="50.60832" lon="3.50326">
        <ele>64.4</ele>
        <time>2022-05-05T01:30:23Z</time>
      </trkpt>
      <trkpt lat="50.60832" lon="3.50326">
        <ele>64.4</ele>
        <time>2022-05-05T01:30:23Z</time>
      </trkpt>
      <trkpt lat="50.60832" lon="3.50327">
        <ele>64.4</ele>
        <time>2022-05-05T01:30:23Z</time>
      </trkpt>
      <trkpt lat="50.60832" lon="3.50327">
        <ele>64.3</ele>
        <time>2022-05-05T01:30:23Z</time>
      </trkpt>
      <trkpt lat="50.60832" lon="3.50327">
        <ele>64.3</ele>
        <time>2022-05-05T01:30:24Z</time>
      </trkpt>
      <trkpt lat="50.60832" lon="3.50327">
        <ele>64.3</ele>
        <time>2022-05-05T01:30:24Z</time>
      </trkpt>
      <trkpt lat="50.60831" lon="3.50326">
        <ele>64.3</ele>
        <time>2022-05-05T01:30:24Z</time>
      </trkpt>
      <trkpt lat="50.60831" lon="3.50325">
        <ele>64.3</ele>
        <time>2022-05-05T01:30:24Z</time>
      </trkpt>
      <trkpt lat="50.6083" lon="3.50325">
        <ele>64.3</ele>
        <time>2022-05-05T01:30:24Z</time>
      </trkpt>
      <trkpt lat="50.60831" lon="3.50326">
        <ele>64.3</ele>
        <time>2022-05-05T01:30:24Z</time>
      </trkpt>
      <trkpt lat="50.6083" lon="3.50325">
        <ele>64.3</ele>
        <time>2022-05-05T01:30:24Z</time>
      </trkpt>
      <trkpt lat="50.60829" lon="3.50323">
        <ele>64.3</ele>
        <time>2022-05-05T01:30:24Z</time>
      </trkpt>
      <trkpt lat="50.60828" lon="3.50322">
        <ele>64.3</ele>
        <time>2022-05-05T01:30:24Z</time>
      </trkpt>
      <trkpt lat="50.60828" lon="3.50323">
        <ele>64.3</ele>
        <time>2022-05-05T01:30:24Z</time>
      </trkpt>
      <trkpt lat="50.60828" lon="3.50323">
        <ele>64.3</ele>
        <time>2022-05-05T01:30:24Z</time>
      </trkpt>
      <trkpt lat="50.60827" lon="3.50322">
        <ele>64.3</ele>
        <time>2022-05-05T01:30:24Z</time>
      </trkpt>
      <trkpt lat="50.60827" lon="3.50322">
        <ele>64.3</ele>
        <time>2022-05-05T01:30:24Z</time>
      </trkpt>
      <trkpt lat="50.60826" lon="3.50321">
        <ele>64.3</ele>
        <time>2022-05-05T01:30:24Z</time>
      </trkpt>
      <trkpt lat="50.60826" lon="3.50321">
        <ele>64.3</ele>
        <time>2022-05-05T01:30:24Z</time>
      </trkpt>
      <trkpt lat="50.60826" lon="3.50321">
        <ele>64.2</ele>
        <time>2022-05-05T01:30:24Z</time>
      </trkpt>
      <trkpt lat="50.60826" lon="3.50321">
        <ele>64.2</ele>
        <time>2022-05-05T01:30:24Z</time>
      </trkpt>
      <trkpt lat="50.60826" lon="3.50321">
        <ele>64.2</ele>
        <time>2022-05-05T01:30:24Z</time>
      </trkpt>
      <trkpt lat="50.60826" lon="3.50321">
        <ele>64.2</ele>
        <time>2022-05-05T01:30:24Z</time>
      </trkpt>
      <trkpt lat="50.60826" lon="3.50322">
        <ele>64.2</ele>
        <time>2022-05-05T01:30:25Z</time>
      </trkpt>
      <trkpt lat="50.60826" lon="3.50322">
        <ele>64.2</ele>
        <time>2022-05-05T01:30:25Z</time>
      </trkpt>
      <trkpt lat="50.60826" lon="3.50322">
        <ele>64.2</ele>
        <time>2022-05-05T01:30:25Z</time>
      </trkpt>
      <trkpt lat="50.60825" lon="3.5032">
        <ele>64.2</ele>
        <time>2022-05-05T01:30:25Z</time>
      </trkpt>
      <trkpt lat="50.60825" lon="3.50321">
        <ele>64.2</ele>
        <time>2022-05-05T01:30:25Z</time>
      </trkpt>
      <trkpt lat="50.60825" lon="3.50321">
        <ele>64.2</ele>
        <time>2022-05-05T01:30:25Z</time>
      </trkpt>
      <trkpt lat="50.60825" lon="3.50321">
        <ele>64.2</ele>
        <time>2022-05-05T01:30:25Z</time>
      </trkpt>
      <trkpt lat="50.60826" lon="3.50322">
        <ele>64.2</ele>
        <time>2022-05-05T01:30:25Z</time>
      </trkpt>
      <trkpt lat="50.60827" lon="3.50322">
        <ele>64.2</ele>
        <time>2022-05-05T01:30:25Z</time>
      </trkpt>
      <trkpt lat="50.60826" lon="3.50322">
        <ele>64.2</ele>
        <time>2022-05-05T01:30:25Z</time>
      </trkpt>
      <trkpt lat="50.60826" lon="3.50321">
        <ele>64.2</ele>
        <time>2022-05-05T01:30:25Z</time>
      </trkpt>
      <trkpt lat="50.60826" lon="3.50322">
        <ele>64.2</ele>
        <time>2022-05-05T01:30:25Z</time>
      </trkpt>
      <trkpt lat="50.60826" lon="3.50321">
        <ele>64.2</ele>
        <time>2022-05-05T01:30:25Z</time>
      </trkpt>
      <trkpt lat="50.60825" lon="3.50322">
        <ele>64.2</ele>
        <time>2022-05-05T01:30:25Z</time>
      </trkpt>
      <trkpt lat="50.60826" lon="3.50324">
        <ele>64.2</ele>
        <time>2022-05-05T01:30:25Z</time>
      </trkpt>
      <trkpt lat="50.60825" lon="3.50328">
        <ele>64.2</ele>
        <time>2022-05-05T01:30:26Z</time>
      </trkpt>
      <trkpt lat="50.60821" lon="3.50334">
        <ele>64.3</ele>
        <time>2022-05-05T01:30:26Z</time>
      </trkpt>
      <trkpt lat="50.60819" lon="3.50342">
        <ele>64.3</ele>
        <time>2022-05-05T01:30:26Z</time>
      </trkpt>
      <trkpt lat="50.60819" lon="3.50351">
        <ele>64.4</ele>
        <time>2022-05-05T01:30:27Z</time>
      </trkpt>
      <trkpt lat="50.60821" lon="3.50361">
        <ele>64.6</ele>
        <time>2022-05-05T01:30:28Z</time>
      </trkpt>
      <trkpt lat="50.60825" lon="3.50372">
        <ele>64.9</ele>
        <time>2022-05-05T01:30:28Z</time>
      </trkpt>
      <trkpt lat="50.60827" lon="3.50384">
        <ele>65</ele>
        <time>2022-05-05T01:30:29Z</time>
      </trkpt>
      <trkpt lat="50.6083" lon="3.50397">
        <ele>65.2</ele>
        <time>2022-05-05T01:30:30Z</time>
      </trkpt>
      <trkpt lat="50.60838" lon="3.50409">
        <ele>65.2</ele>
        <time>2022-05-05T01:30:31Z</time>
      </trkpt>
      <trkpt lat="50.60841" lon="3.50426">
        <ele>65.3</ele>
        <time>2022-05-05T01:30:32Z</time>
      </trkpt>
      <trkpt lat="50.60846" lon="3.50439">
        <ele>65.3</ele>
        <time>2022-05-05T01:30:33Z</time>
      </trkpt>
      <trkpt lat="50.6085" lon="3.50454">
        <ele>65.3</ele>
        <time>2022-05-05T01:30:34Z</time>
      </trkpt>
      <trkpt lat="50.60855" lon="3.50466">
        <ele>65.3</ele>
        <time>2022-05-05T01:30:35Z</time>
      </trkpt>
      <trkpt lat="50.60861" lon="3.5048">
        <ele>65.3</ele>
        <time>2022-05-05T01:30:36Z</time>
      </trkpt>
      <trkpt lat="50.60866" lon="3.50494">
        <ele>65.4</ele>
        <time>2022-05-05T01:30:37Z</time>
      </trkpt>
      <trkpt lat="50.60871" lon="3.50509">
        <ele>65.7</ele>
        <time>2022-05-05T01:30:38Z</time>
      </trkpt>
      <trkpt lat="50.60877" lon="3.50523">
        <ele>65.9</ele>
        <time>2022-05-05T01:30:39Z</time>
      </trkpt>
      <trkpt lat="50.60885" lon="3.50535">
        <ele>66.1</ele>
        <time>2022-05-05T01:30:40Z</time>
      </trkpt>
      <trkpt lat="50.60893" lon="3.50547">
        <ele>66.2</ele>
        <time>2022-05-05T01:30:41Z</time>
      </trkpt>
      <trkpt lat="50.60901" lon="3.50559">
        <ele>66.3</ele>
        <time>2022-05-05T01:30:42Z</time>
      </trkpt>
      <trkpt lat="50.60908" lon="3.5057">
        <ele>66.5</ele>
        <time>2022-05-05T01:30:43Z</time>
      </trkpt>
      <trkpt lat="50.60916" lon="3.50581">
        <ele>66.7</ele>
        <time>2022-05-05T01:30:44Z</time>
      </trkpt>
      <trkpt lat="50.60923" lon="3.50592">
        <ele>66.9</ele>
        <time>2022-05-05T01:30:45Z</time>
      </trkpt>
      <trkpt lat="50.6093" lon="3.50605">
        <ele>67</ele>
        <time>2022-05-05T01:30:46Z</time>
      </trkpt>
      <trkpt lat="50.60936" lon="3.50619">
        <ele>67</ele>
        <time>2022-05-05T01:30:47Z</time>
      </trkpt>
      <trkpt lat="50.60943" lon="3.50634">
        <ele>67</ele>
        <time>2022-05-05T01:30:48Z</time>
      </trkpt>
      <trkpt lat="50.60949" lon="3.50649">
        <ele>67.1</ele>
        <time>2022-05-05T01:30:49Z</time>
      </trkpt>
      <trkpt lat="50.60955" lon="3.50666">
        <ele>67.2</ele>
        <time>2022-05-05T01:30:50Z</time>
      </trkpt>
      <trkpt lat="50.60961" lon="3.50683">
        <ele>67.2</ele>
        <time>2022-05-05T01:30:52Z</time>
      </trkpt>
      <trkpt lat="50.60966" lon="3.50701">
        <ele>67.2</ele>
        <time>2022-05-05T01:30:53Z</time>
      </trkpt>
      <trkpt lat="50.60971" lon="3.50719">
        <ele>67.2</ele>
        <time>2022-05-05T01:30:54Z</time>
      </trkpt>
      <trkpt lat="50.60975" lon="3.50736">
        <ele>67.2</ele>
        <time>2022-05-05T01:30:55Z</time>
      </trkpt>
      <trkpt lat="50.60979" lon="3.50752">
        <ele>67.1</ele>
        <time>2022-05-05T01:30:56Z</time>
      </trkpt>
      <trkpt lat="50.60982" lon="3.50765">
        <ele>66.9</ele>
        <time>2022-05-05T01:30:57Z</time>
      </trkpt>
      <trkpt lat="50.60985" lon="3.50777">
        <ele>66.8</ele>
        <time>2022-05-05T01:30:58Z</time>
      </trkpt>
      <trkpt lat="50.60989" lon="3.50786">
        <ele>66.6</ele>
        <time>2022-05-05T01:30:58Z</time>
      </trkpt>
      <trkpt lat="50.60994" lon="3.50794">
        <ele>66.5</ele>
        <time>2022-05-05T01:30:59Z</time>
      </trkpt>
      <trkpt lat="50.61001" lon="3.50798">
        <ele>66.5</ele>
        <time>2022-05-05T01:31:00Z</time>
      </trkpt>
      <trkpt lat="50.6101" lon="3.508">
        <ele>66.4</ele>
        <time>2022-05-05T01:31:01Z</time>
      </trkpt>
      <trkpt lat="50.6102" lon="3.50801">
        <ele>66.5</ele>
        <time>2022-05-05T01:31:02Z</time>
      </trkpt>
      <trkpt lat="50.61032" lon="3.50802">
        <ele>66.7</ele>
        <time>2022-05-05T01:31:03Z</time>
      </trkpt>
      <trkpt lat="50.61045" lon="3.50801">
        <ele>66.9</ele>
        <time>2022-05-05T01:31:04Z</time>
      </trkpt>
      <trkpt lat="50.61057" lon="3.50801">
        <ele>67.1</ele>
        <time>2022-05-05T01:31:05Z</time>
      </trkpt>
      <trkpt lat="50.6107" lon="3.50802">
        <ele>67.2</ele>
        <time>2022-05-05T01:31:06Z</time>
      </trkpt>
      <trkpt lat="50.61084" lon="3.50803">
        <ele>67.3</ele>
        <time>2022-05-05T01:31:08Z</time>
      </trkpt>
      <trkpt lat="50.61096" lon="3.50803">
        <ele>67.3</ele>
        <time>2022-05-05T01:31:09Z</time>
      </trkpt>
      <trkpt lat="50.61108" lon="3.50803">
        <ele>67.5</ele>
        <time>2022-05-05T01:31:10Z</time>
      </trkpt>
      <trkpt lat="50.6112" lon="3.50804">
        <ele>67.8</ele>
        <time>2022-05-05T01:31:11Z</time>
      </trkpt>
      <trkpt lat="50.61132" lon="3.50805">
        <ele>68</ele>
        <time>2022-05-05T01:31:12Z</time>
      </trkpt>
      <trkpt lat="50.61145" lon="3.50804">
        <ele>68.1</ele>
        <time>2022-05-05T01:31:13Z</time>
      </trkpt>
      <trkpt lat="50.61156" lon="3.50804">
        <ele>68.2</ele>
        <time>2022-05-05T01:31:15Z</time>
      </trkpt>
      <trkpt lat="50.61168" lon="3.50805">
        <ele>68.3</ele>
        <time>2022-05-05T01:31:16Z</time>
      </trkpt>
      <trkpt lat="50.6118" lon="3.50806">
        <ele>68.3</ele>
        <time>2022-05-05T01:31:17Z</time>
      </trkpt>
      <trkpt lat="50.61192" lon="3.50813">
        <ele>68.5</ele>
        <time>2022-05-05T01:31:18Z</time>
      </trkpt>
      <trkpt lat="50.61203" lon="3.50823">
        <ele>68.7</ele>
        <time>2022-05-05T01:31:19Z</time>
      </trkpt>
      <trkpt lat="50.61213" lon="3.50835">
        <ele>68.8</ele>
        <time>2022-05-05T01:31:20Z</time>
      </trkpt>
      <trkpt lat="50.61223" lon="3.50847">
        <ele>68.8</ele>
        <time>2022-05-05T01:31:22Z</time>
      </trkpt>
      <trkpt lat="50.61233" lon="3.50857">
        <ele>68.9</ele>
        <time>2022-05-05T01:31:23Z</time>
      </trkpt>
      <trkpt lat="50.61244" lon="3.50867">
        <ele>68.7</ele>
        <time>2022-05-05T01:31:24Z</time>
      </trkpt>
      <trkpt lat="50.61252" lon="3.50881">
        <ele>68.6</ele>
        <time>2022-05-05T01:31:25Z</time>
      </trkpt>
      <trkpt lat="50.6126" lon="3.50897">
        <ele>68.5</ele>
        <time>2022-05-05T01:31:26Z</time>
      </trkpt>
      <trkpt lat="50.61264" lon="3.50918">
        <ele>68.4</ele>
        <time>2022-05-05T01:31:28Z</time>
      </trkpt>
      <trkpt lat="50.61267" lon="3.50941">
        <ele>68.2</ele>
        <time>2022-05-05T01:31:29Z</time>
      </trkpt>
      <trkpt lat="50.61272" lon="3.50965">
        <ele>67.9</ele>
        <time>2022-05-05T01:31:31Z</time>
      </trkpt>
      <trkpt lat="50.61277" lon="3.50989">
        <ele>67.7</ele>
        <time>2022-05-05T01:31:32Z</time>
      </trkpt>
      <trkpt lat="50.61283" lon="3.51015">
        <ele>67.6</ele>
        <time>2022-05-05T01:31:34Z</time>
      </trkpt>
      <trkpt lat="50.61289" lon="3.51041">
        <ele>67.3</ele>
        <time>2022-05-05T01:31:35Z</time>
      </trkpt>
      <trkpt lat="50.61295" lon="3.51067">
        <ele>67</ele>
        <time>2022-05-05T01:31:37Z</time>
      </trkpt>
      <trkpt lat="50.61301" lon="3.5109">
        <ele>66.6</ele>
        <time>2022-05-05T01:31:39Z</time>
      </trkpt>
      <trkpt lat="50.61305" lon="3.51113">
        <ele>66.2</ele>
        <time>2022-05-05T01:31:40Z</time>
      </trkpt>
      <trkpt lat="50.61311" lon="3.51132">
        <ele>65.9</ele>
        <time>2022-05-05T01:31:41Z</time>
      </trkpt>
      <trkpt lat="50.61317" lon="3.51152">
        <ele>65.7</ele>
        <time>2022-05-05T01:31:43Z</time>
      </trkpt>
      <trkpt lat="50.61321" lon="3.51169">
        <ele>65.4</ele>
        <time>2022-05-05T01:31:44Z</time>
      </trkpt>
      <trkpt lat="50.61326" lon="3.51182">
        <ele>65</ele>
        <time>2022-05-05T01:31:45Z</time>
      </trkpt>
      <trkpt lat="50.61328" lon="3.51195">
        <ele>64.8</ele>
        <time>2022-05-05T01:31:46Z</time>
      </trkpt>
      <trkpt lat="50.61332" lon="3.51205">
        <ele>64.6</ele>
        <time>2022-05-05T01:31:46Z</time>
      </trkpt>
      <trkpt lat="50.61336" lon="3.51211">
        <ele>64.4</ele>
        <time>2022-05-05T01:31:47Z</time>
      </trkpt>
      <trkpt lat="50.61342" lon="3.51215">
        <ele>64.2</ele>
        <time>2022-05-05T01:31:47Z</time>
      </trkpt>
      <trkpt lat="50.61352" lon="3.51211">
        <ele>64</ele>
        <time>2022-05-05T01:31:48Z</time>
      </trkpt>
      <trkpt lat="50.61365" lon="3.51206">
        <ele>64.1</ele>
        <time>2022-05-05T01:31:50Z</time>
      </trkpt>
      <trkpt lat="50.61378" lon="3.51204">
        <ele>64.2</ele>
        <time>2022-05-05T01:31:51Z</time>
      </trkpt>
      <trkpt lat="50.61391" lon="3.51203">
        <ele>64.4</ele>
        <time>2022-05-05T01:31:52Z</time>
      </trkpt>
      <trkpt lat="50.61406" lon="3.512">
        <ele>64.6</ele>
        <time>2022-05-05T01:31:54Z</time>
      </trkpt>
      <trkpt lat="50.61421" lon="3.51199">
        <ele>64.8</ele>
        <time>2022-05-05T01:31:55Z</time>
      </trkpt>
      <trkpt lat="50.61434" lon="3.512">
        <ele>65</ele>
        <time>2022-05-05T01:31:56Z</time>
      </trkpt>
      <trkpt lat="50.61444" lon="3.512">
        <ele>65.1</ele>
        <time>2022-05-05T01:31:57Z</time>
      </trkpt>
      <trkpt lat="50.61453" lon="3.51202">
        <ele>65.2</ele>
        <time>2022-05-05T01:31:58Z</time>
      </trkpt>
      <trkpt lat="50.61462" lon="3.51202">
        <ele>65.2</ele>
        <time>2022-05-05T01:31:59Z</time>
      </trkpt>
      <trkpt lat="50.61469" lon="3.51202">
        <ele>65.3</ele>
        <time>2022-05-05T01:32:00Z</time>
      </trkpt>
      <trkpt lat="50.61474" lon="3.51201">
        <ele>65.3</ele>
        <time>2022-05-05T01:32:00Z</time>
      </trkpt>
      <trkpt lat="50.61479" lon="3.51199">
        <ele>65.3</ele>
        <time>2022-05-05T01:32:01Z</time>
      </trkpt>
      <trkpt lat="50.61484" lon="3.51199">
        <ele>65.3</ele>
        <time>2022-05-05T01:32:01Z</time>
      </trkpt>
      <trkpt lat="50.61486" lon="3.51199">
        <ele>65.3</ele>
        <time>2022-05-05T01:32:01Z</time>
      </trkpt>
      <trkpt lat="50.6149" lon="3.51202">
        <ele>65.3</ele>
        <time>2022-05-05T01:32:02Z</time>
      </trkpt>
      <trkpt lat="50.61491" lon="3.51203">
        <ele>65.3</ele>
        <time>2022-05-05T01:32:02Z</time>
      </trkpt>
      <trkpt lat="50.61492" lon="3.5121">
        <ele>65.3</ele>
        <time>2022-05-05T01:32:02Z</time>
      </trkpt>
      <trkpt lat="50.61491" lon="3.5122">
        <ele>65.3</ele>
        <time>2022-05-05T01:32:03Z</time>
      </trkpt>
      <trkpt lat="50.6149" lon="3.51227">
        <ele>65.3</ele>
        <time>2022-05-05T01:32:03Z</time>
      </trkpt>
      <trkpt lat="50.61489" lon="3.51233">
        <ele>65.3</ele>
        <time>2022-05-05T01:32:04Z</time>
      </trkpt>
      <trkpt lat="50.61488" lon="3.51242">
        <ele>65.3</ele>
        <time>2022-05-05T01:32:04Z</time>
      </trkpt>
      <trkpt lat="50.61487" lon="3.51248">
        <ele>65.3</ele>
        <time>2022-05-05T01:32:04Z</time>
      </trkpt>
      <trkpt lat="50.61487" lon="3.51252">
        <ele>65.3</ele>
        <time>2022-05-05T01:32:05Z</time>
      </trkpt>
      <trkpt lat="50.61486" lon="3.51258">
        <ele>65.3</ele>
        <time>2022-05-05T01:32:05Z</time>
      </trkpt>
      <trkpt lat="50.61483" lon="3.51267">
        <ele>65.3</ele>
        <time>2022-05-05T01:32:06Z</time>
      </trkpt>
      <trkpt lat="50.61481" lon="3.51276">
        <ele>65.3</ele>
        <time>2022-05-05T01:32:06Z</time>
      </trkpt>
      <trkpt lat="50.6148" lon="3.51284">
        <ele>65.3</ele>
        <time>2022-05-05T01:32:07Z</time>
      </trkpt>
      <trkpt lat="50.6148" lon="3.51294">
        <ele>65.3</ele>
        <time>2022-05-05T01:32:07Z</time>
      </trkpt>
      <trkpt lat="50.61479" lon="3.51302">
        <ele>65.3</ele>
        <time>2022-05-05T01:32:08Z</time>
      </trkpt>
      <trkpt lat="50.61476" lon="3.51307">
        <ele>65.3</ele>
        <time>2022-05-05T01:32:08Z</time>
      </trkpt>
      <trkpt lat="50.61476" lon="3.51314">
        <ele>65.3</ele>
        <time>2022-05-05T01:32:09Z</time>
      </trkpt>
      <trkpt lat="50.61475" lon="3.51321">
        <ele>65.2</ele>
        <time>2022-05-05T01:32:09Z</time>
      </trkpt>
      <trkpt lat="50.61474" lon="3.51327">
        <ele>65.1</ele>
        <time>2022-05-05T01:32:10Z</time>
      </trkpt>
      <trkpt lat="50.61474" lon="3.51334">
        <ele>64.9</ele>
        <time>2022-05-05T01:32:10Z</time>
      </trkpt>
      <trkpt lat="50.61475" lon="3.51343">
        <ele>64.7</ele>
        <time>2022-05-05T01:32:10Z</time>
      </trkpt>
      <trkpt lat="50.61475" lon="3.51356">
        <ele>64.6</ele>
        <time>2022-05-05T01:32:11Z</time>
      </trkpt>
      <trkpt lat="50.61476" lon="3.51368">
        <ele>64.6</ele>
        <time>2022-05-05T01:32:12Z</time>
      </trkpt>
      <trkpt lat="50.61476" lon="3.5138">
        <ele>64.5</ele>
        <time>2022-05-05T01:32:13Z</time>
      </trkpt>
      <trkpt lat="50.61475" lon="3.51388">
        <ele>64.5</ele>
        <time>2022-05-05T01:32:13Z</time>
      </trkpt>
      <trkpt lat="50.61474" lon="3.51401">
        <ele>64.5</ele>
        <time>2022-05-05T01:32:14Z</time>
      </trkpt>
      <trkpt lat="50.61472" lon="3.51411">
        <ele>64.4</ele>
        <time>2022-05-05T01:32:15Z</time>
      </trkpt>
      <trkpt lat="50.61468" lon="3.51426">
        <ele>64.4</ele>
        <time>2022-05-05T01:32:16Z</time>
      </trkpt>
      <trkpt lat="50.61464" lon="3.51443">
        <ele>64.3</ele>
        <time>2022-05-05T01:32:17Z</time>
      </trkpt>
      <trkpt lat="50.61462" lon="3.51459">
        <ele>64.2</ele>
        <time>2022-05-05T01:32:18Z</time>
      </trkpt>
      <trkpt lat="50.61459" lon="3.51472">
        <ele>64</ele>
        <time>2022-05-05T01:32:19Z</time>
      </trkpt>
      <trkpt lat="50.61453" lon="3.51484">
        <ele>63.6</ele>
        <time>2022-05-05T01:32:19Z</time>
      </trkpt>
      <trkpt lat="50.61449" lon="3.51494">
        <ele>63.2</ele>
        <time>2022-05-05T01:32:20Z</time>
      </trkpt>
      <trkpt lat="50.61446" lon="3.51509">
        <ele>63</ele>
        <time>2022-05-05T01:32:21Z</time>
      </trkpt>
      <trkpt lat="50.61443" lon="3.51524">
        <ele>62.7</ele>
        <time>2022-05-05T01:32:22Z</time>
      </trkpt>
      <trkpt lat="50.61439" lon="3.51538">
        <ele>62.2</ele>
        <time>2022-05-05T01:32:23Z</time>
      </trkpt>
      <trkpt lat="50.61434" lon="3.51547">
        <ele>61.7</ele>
        <time>2022-05-05T01:32:24Z</time>
      </trkpt>
      <trkpt lat="50.6143" lon="3.51558">
        <ele>61.2</ele>
        <time>2022-05-05T01:32:24Z</time>
      </trkpt>
      <trkpt lat="50.61427" lon="3.51568">
        <ele>60.7</ele>
        <time>2022-05-05T01:32:25Z</time>
      </trkpt>
      <trkpt lat="50.61423" lon="3.51576">
        <ele>60.2</ele>
        <time>2022-05-05T01:32:26Z</time>
      </trkpt>
      <trkpt lat="50.61421" lon="3.51587">
        <ele>59.8</ele>
        <time>2022-05-05T01:32:26Z</time>
      </trkpt>
      <trkpt lat="50.61416" lon="3.51593">
        <ele>59.3</ele>
        <time>2022-05-05T01:32:27Z</time>
      </trkpt>
      <trkpt lat="50.61415" lon="3.51601">
        <ele>58.8</ele>
        <time>2022-05-05T01:32:27Z</time>
      </trkpt>
      <trkpt lat="50.61414" lon="3.51613">
        <ele>58.4</ele>
        <time>2022-05-05T01:32:28Z</time>
      </trkpt>
      <trkpt lat="50.61411" lon="3.51623">
        <ele>58</ele>
        <time>2022-05-05T01:32:29Z</time>
      </trkpt>
      <trkpt lat="50.61409" lon="3.5163">
        <ele>57.5</ele>
        <time>2022-05-05T01:32:29Z</time>
      </trkpt>
      <trkpt lat="50.61409" lon="3.51642">
        <ele>57.1</ele>
        <time>2022-05-05T01:32:30Z</time>
      </trkpt>
      <trkpt lat="50.61404" lon="3.51649">
        <ele>56.7</ele>
        <time>2022-05-05T01:32:31Z</time>
      </trkpt>
      <trkpt lat="50.61401" lon="3.51659">
        <ele>56.4</ele>
        <time>2022-05-05T01:32:31Z</time>
      </trkpt>
      <trkpt lat="50.61399" lon="3.5167">
        <ele>56</ele>
        <time>2022-05-05T01:32:32Z</time>
      </trkpt>
      <trkpt lat="50.61396" lon="3.51679">
        <ele>55.6</ele>
        <time>2022-05-05T01:32:33Z</time>
      </trkpt>
      <trkpt lat="50.61393" lon="3.51688">
        <ele>55.2</ele>
        <time>2022-05-05T01:32:33Z</time>
      </trkpt>
      <trkpt lat="50.6139" lon="3.517">
        <ele>54.7</ele>
        <time>2022-05-05T01:32:34Z</time>
      </trkpt>
      <trkpt lat="50.61388" lon="3.51709">
        <ele>54.3</ele>
        <time>2022-05-05T01:32:35Z</time>
      </trkpt>
      <trkpt lat="50.61385" lon="3.51717">
        <ele>53.9</ele>
        <time>2022-05-05T01:32:35Z</time>
      </trkpt>
      <trkpt lat="50.61382" lon="3.51725">
        <ele>53.7</ele>
        <time>2022-05-05T01:32:36Z</time>
      </trkpt>
      <trkpt lat="50.61381" lon="3.5173">
        <ele>53.5</ele>
        <time>2022-05-05T01:32:36Z</time>
      </trkpt>
      <trkpt lat="50.61381" lon="3.51732">
        <ele>53.4</ele>
        <time>2022-05-05T01:32:36Z</time>
      </trkpt>
      <trkpt lat="50.6138" lon="3.51737">
        <ele>53.3</ele>
        <time>2022-05-05T01:32:36Z</time>
      </trkpt>
      <trkpt lat="50.61375" lon="3.51757">
        <ele>52.9</ele>
        <time>2022-05-05T01:32:38Z</time>
      </trkpt>
      <trkpt lat="50.61373" lon="3.51759">
        <ele>52.9</ele>
        <time>2022-05-05T01:32:38Z</time>
      </trkpt>
      <trkpt lat="50.61373" lon="3.51764">
        <ele>52.9</ele>
        <time>2022-05-05T01:32:38Z</time>
      </trkpt>
      <trkpt lat="50.61372" lon="3.5177">
        <ele>52.9</ele>
        <time>2022-05-05T01:32:39Z</time>
      </trkpt>
      <trkpt lat="50.6137" lon="3.51776">
        <ele>52.9</ele>
        <time>2022-05-05T01:32:39Z</time>
      </trkpt>
      <trkpt lat="50.61368" lon="3.51782">
        <ele>53</ele>
        <time>2022-05-05T01:32:39Z</time>
      </trkpt>
      <trkpt lat="50.61367" lon="3.51789">
        <ele>53</ele>
        <time>2022-05-05T01:32:40Z</time>
      </trkpt>
      <trkpt lat="50.61365" lon="3.51795">
        <ele>53.1</ele>
        <time>2022-05-05T01:32:40Z</time>
      </trkpt>
      <trkpt lat="50.61364" lon="3.51801">
        <ele>53.1</ele>
        <time>2022-05-05T01:32:41Z</time>
      </trkpt>
      <trkpt lat="50.61363" lon="3.51807">
        <ele>53.2</ele>
        <time>2022-05-05T01:32:41Z</time>
      </trkpt>
      <trkpt lat="50.61362" lon="3.51813">
        <ele>53.2</ele>
        <time>2022-05-05T01:32:41Z</time>
      </trkpt>
      <trkpt lat="50.6136" lon="3.51819">
        <ele>53.2</ele>
        <time>2022-05-05T01:32:42Z</time>
      </trkpt>
      <trkpt lat="50.61358" lon="3.51823">
        <ele>53.3</ele>
        <time>2022-05-05T01:32:42Z</time>
      </trkpt>
      <trkpt lat="50.61357" lon="3.51827">
        <ele>53.3</ele>
        <time>2022-05-05T01:32:42Z</time>
      </trkpt>
      <trkpt lat="50.61355" lon="3.5183">
        <ele>53.4</ele>
        <time>2022-05-05T01:32:43Z</time>
      </trkpt>
      <trkpt lat="50.61353" lon="3.51834">
        <ele>53.5</ele>
        <time>2022-05-05T01:32:43Z</time>
      </trkpt>
      <trkpt lat="50.61351" lon="3.51839">
        <ele>53.5</ele>
        <time>2022-05-05T01:32:43Z</time>
      </trkpt>
      <trkpt lat="50.61349" lon="3.51842">
        <ele>53.6</ele>
        <time>2022-05-05T01:32:44Z</time>
      </trkpt>
      <trkpt lat="50.61347" lon="3.51847">
        <ele>53.7</ele>
        <time>2022-05-05T01:32:44Z</time>
      </trkpt>
      <trkpt lat="50.61344" lon="3.51851">
        <ele>53.7</ele>
        <time>2022-05-05T01:32:44Z</time>
      </trkpt>
      <trkpt lat="50.61341" lon="3.51856">
        <ele>53.8</ele>
        <time>2022-05-05T01:32:45Z</time>
      </trkpt>
      <trkpt lat="50.61339" lon="3.5186">
        <ele>53.9</ele>
        <time>2022-05-05T01:32:45Z</time>
      </trkpt>
      <trkpt lat="50.61336" lon="3.51862">
        <ele>54</ele>
        <time>2022-05-05T01:32:45Z</time>
      </trkpt>
      <trkpt lat="50.61334" lon="3.51866">
        <ele>54.1</ele>
        <time>2022-05-05T01:32:46Z</time>
      </trkpt>
      <trkpt lat="50.61332" lon="3.5187">
        <ele>54.3</ele>
        <time>2022-05-05T01:32:46Z</time>
      </trkpt>
      <trkpt lat="50.6133" lon="3.51875">
        <ele>54.5</ele>
        <time>2022-05-05T01:32:46Z</time>
      </trkpt>
      <trkpt lat="50.61327" lon="3.5188">
        <ele>54.7</ele>
        <time>2022-05-05T01:32:47Z</time>
      </trkpt>
      <trkpt lat="50.61324" lon="3.51885">
        <ele>55</ele>
        <time>2022-05-05T01:32:47Z</time>
      </trkpt>
      <trkpt lat="50.6132" lon="3.51891">
        <ele>55.3</ele>
        <time>2022-05-05T01:32:48Z</time>
      </trkpt>
      <trkpt lat="50.61315" lon="3.51898">
        <ele>55.7</ele>
        <time>2022-05-05T01:32:48Z</time>
      </trkpt>
      <trkpt lat="50.61311" lon="3.51904">
        <ele>56.1</ele>
        <time>2022-05-05T01:32:49Z</time>
      </trkpt>
      <trkpt lat="50.61308" lon="3.51909">
        <ele>56.4</ele>
        <time>2022-05-05T01:32:49Z</time>
      </trkpt>
      <trkpt lat="50.61306" lon="3.51914">
        <ele>56.7</ele>
        <time>2022-05-05T01:32:50Z</time>
      </trkpt>
      <trkpt lat="50.61303" lon="3.51916">
        <ele>57</ele>
        <time>2022-05-05T01:32:50Z</time>
      </trkpt>
      <trkpt lat="50.61301" lon="3.51919">
        <ele>57.1</ele>
        <time>2022-05-05T01:32:50Z</time>
      </trkpt>
      <trkpt lat="50.61299" lon="3.51923">
        <ele>55.2</ele>
        <time>2022-05-05T01:32:50Z</time>
      </trkpt>
      <trkpt lat="50.61295" lon="3.51929">
        <ele>55.3</ele>
        <time>2022-05-05T01:32:51Z</time>
      </trkpt>
      <trkpt lat="50.61291" lon="3.51936">
        <ele>55.5</ele>
        <time>2022-05-05T01:32:52Z</time>
      </trkpt>
      <trkpt lat="50.61296" lon="3.51958">
        <ele>55.2</ele>
        <time>2022-05-05T01:32:53Z</time>
      </trkpt>
      <trkpt lat="50.61301" lon="3.5198">
        <ele>54.6</ele>
        <time>2022-05-05T01:32:54Z</time>
      </trkpt>
      <trkpt lat="50.61309" lon="3.51985">
        <ele>57.1</ele>
        <time>2022-05-05T01:32:55Z</time>
      </trkpt>
      <trkpt lat="50.61317" lon="3.51996">
        <ele>57</ele>
        <time>2022-05-05T01:32:56Z</time>
      </trkpt>
      <trkpt lat="50.61324" lon="3.5201">
        <ele>56.9</ele>
        <time>2022-05-05T01:32:57Z</time>
      </trkpt>
      <trkpt lat="50.61333" lon="3.52028">
        <ele>56.5</ele>
        <time>2022-05-05T01:32:59Z</time>
      </trkpt>
      <trkpt lat="50.61343" lon="3.52049">
        <ele>55.9</ele>
        <time>2022-05-05T01:33:00Z</time>
      </trkpt>
      <trkpt lat="50.61352" lon="3.5207">
        <ele>55.5</ele>
        <time>2022-05-05T01:33:02Z</time>
      </trkpt>
      <trkpt lat="50.61362" lon="3.52091">
        <ele>55.1</ele>
        <time>2022-05-05T01:33:03Z</time>
      </trkpt>
      <trkpt lat="50.61371" lon="3.52108">
        <ele>54.8</ele>
        <time>2022-05-05T01:33:05Z</time>
      </trkpt>
      <trkpt lat="50.6138" lon="3.52123">
        <ele>54.3</ele>
        <time>2022-05-05T01:33:06Z</time>
      </trkpt>
      <trkpt lat="50.61388" lon="3.52139">
        <ele>53.8</ele>
        <time>2022-05-05T01:33:07Z</time>
      </trkpt>
      <trkpt lat="50.61396" lon="3.52153">
        <ele>53.3</ele>
        <time>2022-05-05T01:33:08Z</time>
      </trkpt>
      <trkpt lat="50.61404" lon="3.52166">
        <ele>53</ele>
        <time>2022-05-05T01:33:09Z</time>
      </trkpt>
      <trkpt lat="50.61412" lon="3.52179">
        <ele>52.7</ele>
        <time>2022-05-05T01:33:11Z</time>
      </trkpt>
      <trkpt lat="50.6142" lon="3.52192">
        <ele>52.5</ele>
        <time>2022-05-05T01:33:12Z</time>
      </trkpt>
      <trkpt lat="50.61427" lon="3.52205">
        <ele>52.1</ele>
        <time>2022-05-05T01:33:13Z</time>
      </trkpt>
      <trkpt lat="50.61434" lon="3.52216">
        <ele>51.8</ele>
        <time>2022-05-05T01:33:14Z</time>
      </trkpt>
      <trkpt lat="50.61439" lon="3.52225">
        <ele>51.6</ele>
        <time>2022-05-05T01:33:14Z</time>
      </trkpt>
      <trkpt lat="50.61444" lon="3.52232">
        <ele>51.5</ele>
        <time>2022-05-05T01:33:15Z</time>
      </trkpt>
      <trkpt lat="50.61447" lon="3.52236">
        <ele>51.3</ele>
        <time>2022-05-05T01:33:15Z</time>
      </trkpt>
      <trkpt lat="50.61449" lon="3.5224">
        <ele>51.1</ele>
        <time>2022-05-05T01:33:16Z</time>
      </trkpt>
      <trkpt lat="50.61451" lon="3.52243">
        <ele>51</ele>
        <time>2022-05-05T01:33:16Z</time>
      </trkpt>
      <trkpt lat="50.6145" lon="3.52246">
        <ele>50.8</ele>
        <time>2022-05-05T01:33:16Z</time>
      </trkpt>
      <trkpt lat="50.61447" lon="3.52249">
        <ele>50.7</ele>
        <time>2022-05-05T01:33:16Z</time>
      </trkpt>
      <trkpt lat="50.61444" lon="3.52253">
        <ele>50.6</ele>
        <time>2022-05-05T01:33:17Z</time>
      </trkpt>
      <trkpt lat="50.6144" lon="3.52255">
        <ele>50.5</ele>
        <time>2022-05-05T01:33:17Z</time>
      </trkpt>
      <trkpt lat="50.61435" lon="3.52255">
        <ele>50.5</ele>
        <time>2022-05-05T01:33:18Z</time>
      </trkpt>
      <trkpt lat="50.61429" lon="3.52255">
        <ele>50.5</ele>
        <time>2022-05-05T01:33:18Z</time>
      </trkpt>
      <trkpt lat="50.61422" lon="3.52256">
        <ele>50.6</ele>
        <time>2022-05-05T01:33:19Z</time>
      </trkpt>
      <trkpt lat="50.61414" lon="3.52259">
        <ele>50.8</ele>
        <time>2022-05-05T01:33:20Z</time>
      </trkpt>
      <trkpt lat="50.61405" lon="3.52263">
        <ele>50.9</ele>
        <time>2022-05-05T01:33:20Z</time>
      </trkpt>
      <trkpt lat="50.61396" lon="3.52269">
        <ele>50.9</ele>
        <time>2022-05-05T01:33:21Z</time>
      </trkpt>
      <trkpt lat="50.61385" lon="3.52276">
        <ele>50.8</ele>
        <time>2022-05-05T01:33:23Z</time>
      </trkpt>
      <trkpt lat="50.61374" lon="3.52285">
        <ele>50.7</ele>
        <time>2022-05-05T01:33:24Z</time>
      </trkpt>
      <trkpt lat="50.61362" lon="3.52296">
        <ele>50.5</ele>
        <time>2022-05-05T01:33:25Z</time>
      </trkpt>
      <trkpt lat="50.61351" lon="3.52308">
        <ele>50.5</ele>
        <time>2022-05-05T01:33:26Z</time>
      </trkpt>
      <trkpt lat="50.61339" lon="3.5232">
        <ele>50.4</ele>
        <time>2022-05-05T01:33:28Z</time>
      </trkpt>
      <trkpt lat="50.61328" lon="3.52332">
        <ele>50.2</ele>
        <time>2022-05-05T01:33:29Z</time>
      </trkpt>
      <trkpt lat="50.61317" lon="3.52344">
        <ele>50</ele>
        <time>2022-05-05T01:33:30Z</time>
      </trkpt>
      <trkpt lat="50.61307" lon="3.52355">
        <ele>49.9</ele>
        <time>2022-05-05T01:33:31Z</time>
      </trkpt>
      <trkpt lat="50.61297" lon="3.52366">
        <ele>49.8</ele>
        <time>2022-05-05T01:33:33Z</time>
      </trkpt>
      <trkpt lat="50.61288" lon="3.52376">
        <ele>49.6</ele>
        <time>2022-05-05T01:33:34Z</time>
      </trkpt>
      <trkpt lat="50.61279" lon="3.52386">
        <ele>49.5</ele>
        <time>2022-05-05T01:33:35Z</time>
      </trkpt>
      <trkpt lat="50.6127" lon="3.52396">
        <ele>49.4</ele>
        <time>2022-05-05T01:33:36Z</time>
      </trkpt>
      <trkpt lat="50.61261" lon="3.52404">
        <ele>49.3</ele>
        <time>2022-05-05T01:33:37Z</time>
      </trkpt>
      <trkpt lat="50.61254" lon="3.52412">
        <ele>49</ele>
        <time>2022-05-05T01:33:38Z</time>
      </trkpt>
      <trkpt lat="50.61248" lon="3.52419">
        <ele>48.8</ele>
        <time>2022-05-05T01:33:38Z</time>
      </trkpt>
      <trkpt lat="50.61244" lon="3.52424">
        <ele>48.6</ele>
        <time>2022-05-05T01:33:39Z</time>
      </trkpt>
      <trkpt lat="50.61241" lon="3.52427">
        <ele>48.3</ele>
        <time>2022-05-05T01:33:39Z</time>
      </trkpt>
      <trkpt lat="50.61238" lon="3.5243">
        <ele>48.1</ele>
        <time>2022-05-05T01:33:39Z</time>
      </trkpt>
      <trkpt lat="50.61236" lon="3.52434">
        <ele>47.9</ele>
        <time>2022-05-05T01:33:40Z</time>
      </trkpt>
      <trkpt lat="50.61235" lon="3.52439">
        <ele>47.8</ele>
        <time>2022-05-05T01:33:40Z</time>
      </trkpt>
      <trkpt lat="50.61236" lon="3.52444">
        <ele>47.7</ele>
        <time>2022-05-05T01:33:40Z</time>
      </trkpt>
      <trkpt lat="50.6124" lon="3.5245">
        <ele>47.5</ele>
        <time>2022-05-05T01:33:41Z</time>
      </trkpt>
      <trkpt lat="50.61244" lon="3.52455">
        <ele>47.5</ele>
        <time>2022-05-05T01:33:41Z</time>
      </trkpt>
      <trkpt lat="50.6125" lon="3.52462">
        <ele>47.4</ele>
        <time>2022-05-05T01:33:42Z</time>
      </trkpt>
      <trkpt lat="50.61255" lon="3.52471">
        <ele>47.4</ele>
        <time>2022-05-05T01:33:43Z</time>
      </trkpt>
      <trkpt lat="50.61262" lon="3.52481">
        <ele>47.4</ele>
        <time>2022-05-05T01:33:44Z</time>
      </trkpt>
      <trkpt lat="50.6127" lon="3.52492">
        <ele>47.5</ele>
        <time>2022-05-05T01:33:45Z</time>
      </trkpt>
      <trkpt lat="50.61277" lon="3.52502">
        <ele>47.4</ele>
        <time>2022-05-05T01:33:46Z</time>
      </trkpt>
      <trkpt lat="50.61283" lon="3.52513">
        <ele>47.3</ele>
        <time>2022-05-05T01:33:46Z</time>
      </trkpt>
      <trkpt lat="50.6129" lon="3.52523">
        <ele>47.2</ele>
        <time>2022-05-05T01:33:47Z</time>
      </trkpt>
      <trkpt lat="50.61295" lon="3.52533">
        <ele>47.1</ele>
        <time>2022-05-05T01:33:48Z</time>
      </trkpt>
      <trkpt lat="50.613" lon="3.52544">
        <ele>47</ele>
        <time>2022-05-05T01:33:49Z</time>
      </trkpt>
      <trkpt lat="50.61304" lon="3.52555">
        <ele>47.1</ele>
        <time>2022-05-05T01:33:50Z</time>
      </trkpt>
      <trkpt lat="50.61308" lon="3.52568">
        <ele>47.1</ele>
        <time>2022-05-05T01:33:51Z</time>
      </trkpt>
      <trkpt lat="50.6131" lon="3.52583">
        <ele>47.1</ele>
        <time>2022-05-05T01:33:51Z</time>
      </trkpt>
      <trkpt lat="50.6131" lon="3.52598">
        <ele>46.9</ele>
        <time>2022-05-05T01:33:52Z</time>
      </trkpt>
      <trkpt lat="50.6131" lon="3.52613">
        <ele>46.7</ele>
        <time>2022-05-05T01:33:53Z</time>
      </trkpt>
      <trkpt lat="50.6131" lon="3.52628">
        <ele>46.6</ele>
        <time>2022-05-05T01:33:54Z</time>
      </trkpt>
      <trkpt lat="50.61309" lon="3.52643">
        <ele>46.5</ele>
        <time>2022-05-05T01:33:55Z</time>
      </trkpt>
      <trkpt lat="50.61309" lon="3.52659">
        <ele>46.5</ele>
        <time>2022-05-05T01:33:56Z</time>
      </trkpt>
      <trkpt lat="50.61309" lon="3.52675">
        <ele>46.7</ele>
        <time>2022-05-05T01:33:57Z</time>
      </trkpt>
      <trkpt lat="50.61309" lon="3.52692">
        <ele>47</ele>
        <time>2022-05-05T01:33:58Z</time>
      </trkpt>
      <trkpt lat="50.6131" lon="3.52709">
        <ele>47.4</ele>
        <time>2022-05-05T01:33:59Z</time>
      </trkpt>
      <trkpt lat="50.6131" lon="3.52726">
        <ele>47.8</ele>
        <time>2022-05-05T01:34:00Z</time>
      </trkpt>
      <trkpt lat="50.6131" lon="3.52743">
        <ele>48.1</ele>
        <time>2022-05-05T01:34:01Z</time>
      </trkpt>
      <trkpt lat="50.61309" lon="3.52759">
        <ele>48.5</ele>
        <time>2022-05-05T01:34:02Z</time>
      </trkpt>
      <trkpt lat="50.61307" lon="3.52773">
        <ele>48.9</ele>
        <time>2022-05-05T01:34:03Z</time>
      </trkpt>
      <trkpt lat="50.61305" lon="3.52786">
        <ele>49.4</ele>
        <time>2022-05-05T01:34:04Z</time>
      </trkpt>
      <trkpt lat="50.61302" lon="3.52799">
        <ele>49.8</ele>
        <time>2022-05-05T01:34:05Z</time>
      </trkpt>
      <trkpt lat="50.61298" lon="3.5281">
        <ele>50.3</ele>
        <time>2022-05-05T01:34:05Z</time>
      </trkpt>
      <trkpt lat="50.61295" lon="3.5282">
        <ele>50.8</ele>
        <time>2022-05-05T01:34:06Z</time>
      </trkpt>
      <trkpt lat="50.61292" lon="3.52829">
        <ele>51.4</ele>
        <time>2022-05-05T01:34:07Z</time>
      </trkpt>
      <trkpt lat="50.6129" lon="3.52837">
        <ele>52</ele>
        <time>2022-05-05T01:34:07Z</time>
      </trkpt>
      <trkpt lat="50.61288" lon="3.52844">
        <ele>52.5</ele>
        <time>2022-05-05T01:34:08Z</time>
      </trkpt>
      <trkpt lat="50.61286" lon="3.5285">
        <ele>53</ele>
        <time>2022-05-05T01:34:08Z</time>
      </trkpt>
      <trkpt lat="50.61285" lon="3.52855">
        <ele>53.3</ele>
        <time>2022-05-05T01:34:08Z</time>
      </trkpt>
      <trkpt lat="50.61285" lon="3.52859">
        <ele>53.6</ele>
        <time>2022-05-05T01:34:09Z</time>
      </trkpt>
      <trkpt lat="50.61286" lon="3.52865">
        <ele>53.9</ele>
        <time>2022-05-05T01:34:09Z</time>
      </trkpt>
      <trkpt lat="50.61289" lon="3.52872">
        <ele>54</ele>
        <time>2022-05-05T01:34:10Z</time>
      </trkpt>
      <trkpt lat="50.61293" lon="3.52883">
        <ele>54.1</ele>
        <time>2022-05-05T01:34:10Z</time>
      </trkpt>
      <trkpt lat="50.61297" lon="3.52896">
        <ele>54</ele>
        <time>2022-05-05T01:34:11Z</time>
      </trkpt>
      <trkpt lat="50.61301" lon="3.52907">
        <ele>54</ele>
        <time>2022-05-05T01:34:12Z</time>
      </trkpt>
      <trkpt lat="50.61305" lon="3.52918">
        <ele>54</ele>
        <time>2022-05-05T01:34:13Z</time>
      </trkpt>
      <trkpt lat="50.61308" lon="3.52928">
        <ele>54.2</ele>
        <time>2022-05-05T01:34:13Z</time>
      </trkpt>
      <trkpt lat="50.61311" lon="3.52938">
        <ele>54.4</ele>
        <time>2022-05-05T01:34:14Z</time>
      </trkpt>
      <trkpt lat="50.61314" lon="3.5295">
        <ele>54.6</ele>
        <time>2022-05-05T01:34:15Z</time>
      </trkpt>
      <trkpt lat="50.61315" lon="3.52962">
        <ele>54.8</ele>
        <time>2022-05-05T01:34:16Z</time>
      </trkpt>
      <trkpt lat="50.61316" lon="3.52974">
        <ele>55.1</ele>
        <time>2022-05-05T01:34:16Z</time>
      </trkpt>
      <trkpt lat="50.61316" lon="3.52986">
        <ele>55.4</ele>
        <time>2022-05-05T01:34:17Z</time>
      </trkpt>
      <trkpt lat="50.61316" lon="3.52999">
        <ele>55.6</ele>
        <time>2022-05-05T01:34:18Z</time>
      </trkpt>
      <trkpt lat="50.61315" lon="3.5301">
        <ele>55.8</ele>
        <time>2022-05-05T01:34:18Z</time>
      </trkpt>
      <trkpt lat="50.61313" lon="3.53021">
        <ele>56</ele>
        <time>2022-05-05T01:34:19Z</time>
      </trkpt>
      <trkpt lat="50.61311" lon="3.5303">
        <ele>56.3</ele>
        <time>2022-05-05T01:34:20Z</time>
      </trkpt>
      <trkpt lat="50.61309" lon="3.5304">
        <ele>56.6</ele>
        <time>2022-05-05T01:34:20Z</time>
      </trkpt>
      <trkpt lat="50.61306" lon="3.53051">
        <ele>56.8</ele>
        <time>2022-05-05T01:34:21Z</time>
      </trkpt>
      <trkpt lat="50.61304" lon="3.53061">
        <ele>57</ele>
        <time>2022-05-05T01:34:22Z</time>
      </trkpt>
      <trkpt lat="50.61301" lon="3.53072">
        <ele>57.2</ele>
        <time>2022-05-05T01:34:22Z</time>
      </trkpt>
      <trkpt lat="50.61298" lon="3.53082">
        <ele>57.5</ele>
        <time>2022-05-05T01:34:23Z</time>
      </trkpt>
      <trkpt lat="50.61295" lon="3.53092">
        <ele>57.9</ele>
        <time>2022-05-05T01:34:24Z</time>
      </trkpt>
      <trkpt lat="50.61292" lon="3.53102">
        <ele>58.2</ele>
        <time>2022-05-05T01:34:24Z</time>
      </trkpt>
      <trkpt lat="50.61289" lon="3.53112">
        <ele>58.4</ele>
        <time>2022-05-05T01:34:25Z</time>
      </trkpt>
      <trkpt lat="50.61286" lon="3.53122">
        <ele>58.6</ele>
        <time>2022-05-05T01:34:26Z</time>
      </trkpt>
      <trkpt lat="50.61283" lon="3.53133">
        <ele>58.9</ele>
        <time>2022-05-05T01:34:26Z</time>
      </trkpt>
      <trkpt lat="50.6128" lon="3.53144">
        <ele>59.3</ele>
        <time>2022-05-05T01:34:27Z</time>
      </trkpt>
      <trkpt lat="50.61276" lon="3.53155">
        <ele>59.7</ele>
        <time>2022-05-05T01:34:28Z</time>
      </trkpt>
      <trkpt lat="50.61273" lon="3.53165">
        <ele>60.2</ele>
        <time>2022-05-05T01:34:29Z</time>
      </trkpt>
      <trkpt lat="50.61269" lon="3.53176">
        <ele>60.6</ele>
        <time>2022-05-05T01:34:29Z</time>
      </trkpt>
      <trkpt lat="50.61267" lon="3.53186">
        <ele>61.1</ele>
        <time>2022-05-05T01:34:30Z</time>
      </trkpt>
      <trkpt lat="50.61264" lon="3.53197">
        <ele>61.6</ele>
        <time>2022-05-05T01:34:31Z</time>
      </trkpt>
      <trkpt lat="50.61261" lon="3.53208">
        <ele>62.1</ele>
        <time>2022-05-05T01:34:31Z</time>
      </trkpt>
      <trkpt lat="50.61258" lon="3.5322">
        <ele>62.6</ele>
        <time>2022-05-05T01:34:32Z</time>
      </trkpt>
      <trkpt lat="50.61254" lon="3.53232">
        <ele>63.1</ele>
        <time>2022-05-05T01:34:33Z</time>
      </trkpt>
      <trkpt lat="50.61251" lon="3.53245">
        <ele>63.6</ele>
        <time>2022-05-05T01:34:34Z</time>
      </trkpt>
      <trkpt lat="50.61248" lon="3.53258">
        <ele>64.2</ele>
        <time>2022-05-05T01:34:35Z</time>
      </trkpt>
      <trkpt lat="50.61245" lon="3.53271">
        <ele>64.7</ele>
        <time>2022-05-05T01:34:36Z</time>
      </trkpt>
      <trkpt lat="50.61242" lon="3.53283">
        <ele>65.2</ele>
        <time>2022-05-05T01:34:36Z</time>
      </trkpt>
      <trkpt lat="50.61238" lon="3.53295">
        <ele>65.6</ele>
        <time>2022-05-05T01:34:37Z</time>
      </trkpt>
      <trkpt lat="50.61236" lon="3.53307">
        <ele>65.9</ele>
        <time>2022-05-05T01:34:38Z</time>
      </trkpt>
      <trkpt lat="50.61233" lon="3.5332">
        <ele>66.1</ele>
        <time>2022-05-05T01:34:39Z</time>
      </trkpt>
      <trkpt lat="50.61229" lon="3.53333">
        <ele>66.3</ele>
        <time>2022-05-05T01:34:40Z</time>
      </trkpt>
      <trkpt lat="50.61226" lon="3.53345">
        <ele>66.6</ele>
        <time>2022-05-05T01:34:40Z</time>
      </trkpt>
      <trkpt lat="50.61222" lon="3.53357">
        <ele>66.7</ele>
        <time>2022-05-05T01:34:41Z</time>
      </trkpt>
      <trkpt lat="50.61219" lon="3.53369">
        <ele>66.6</ele>
        <time>2022-05-05T01:34:42Z</time>
      </trkpt>
      <trkpt lat="50.61215" lon="3.5338">
        <ele>66.6</ele>
        <time>2022-05-05T01:34:43Z</time>
      </trkpt>
      <trkpt lat="50.61211" lon="3.53391">
        <ele>66.6</ele>
        <time>2022-05-05T01:34:43Z</time>
      </trkpt>
      <trkpt lat="50.61208" lon="3.534">
        <ele>66.6</ele>
        <time>2022-05-05T01:34:44Z</time>
      </trkpt>
      <trkpt lat="50.61205" lon="3.53408">
        <ele>66.6</ele>
        <time>2022-05-05T01:34:45Z</time>
      </trkpt>
      <trkpt lat="50.61202" lon="3.53415">
        <ele>66.5</ele>
        <time>2022-05-05T01:34:45Z</time>
      </trkpt>
      <trkpt lat="50.612" lon="3.53421">
        <ele>66.3</ele>
        <time>2022-05-05T01:34:46Z</time>
      </trkpt>
      <trkpt lat="50.61197" lon="3.53427">
        <ele>66.3</ele>
        <time>2022-05-05T01:34:46Z</time>
      </trkpt>
      <trkpt lat="50.61196" lon="3.53433">
        <ele>66.3</ele>
        <time>2022-05-05T01:34:46Z</time>
      </trkpt>
      <trkpt lat="50.61194" lon="3.53439">
        <ele>66.3</ele>
        <time>2022-05-05T01:34:47Z</time>
      </trkpt>
      <trkpt lat="50.61191" lon="3.53445">
        <ele>66.3</ele>
        <time>2022-05-05T01:34:47Z</time>
      </trkpt>
      <trkpt lat="50.6119" lon="3.53454">
        <ele>66.4</ele>
        <time>2022-05-05T01:34:48Z</time>
      </trkpt>
      <trkpt lat="50.61188" lon="3.53463">
        <ele>66.4</ele>
        <time>2022-05-05T01:34:48Z</time>
      </trkpt>
      <trkpt lat="50.61184" lon="3.53473">
        <ele>66.5</ele>
        <time>2022-05-05T01:34:49Z</time>
      </trkpt>
      <trkpt lat="50.61179" lon="3.53485">
        <ele>66.6</ele>
        <time>2022-05-05T01:34:50Z</time>
      </trkpt>
      <trkpt lat="50.61174" lon="3.53498">
        <ele>66.7</ele>
        <time>2022-05-05T01:34:51Z</time>
      </trkpt>
      <trkpt lat="50.61169" lon="3.5351">
        <ele>66.8</ele>
        <time>2022-05-05T01:34:52Z</time>
      </trkpt>
      <trkpt lat="50.61165" lon="3.53521">
        <ele>67</ele>
        <time>2022-05-05T01:34:53Z</time>
      </trkpt>
      <trkpt lat="50.6116" lon="3.53533">
        <ele>67.1</ele>
        <time>2022-05-05T01:34:53Z</time>
      </trkpt>
      <trkpt lat="50.61155" lon="3.53544">
        <ele>67.2</ele>
        <time>2022-05-05T01:34:54Z</time>
      </trkpt>
      <trkpt lat="50.61149" lon="3.53556">
        <ele>67.2</ele>
        <time>2022-05-05T01:34:55Z</time>
      </trkpt>
      <trkpt lat="50.61142" lon="3.53569">
        <ele>67.1</ele>
        <time>2022-05-05T01:34:56Z</time>
      </trkpt>
      <trkpt lat="50.61136" lon="3.53582">
        <ele>67.1</ele>
        <time>2022-05-05T01:34:57Z</time>
      </trkpt>
      <trkpt lat="50.6113" lon="3.53595">
        <ele>67.2</ele>
        <time>2022-05-05T01:34:58Z</time>
      </trkpt>
      <trkpt lat="50.61125" lon="3.53607">
        <ele>67.2</ele>
        <time>2022-05-05T01:34:59Z</time>
      </trkpt>
      <trkpt lat="50.61119" lon="3.5362">
        <ele>67.2</ele>
        <time>2022-05-05T01:35:00Z</time>
      </trkpt>
      <trkpt lat="50.61114" lon="3.53632">
        <ele>67</ele>
        <time>2022-05-05T01:35:01Z</time>
      </trkpt>
      <trkpt lat="50.61108" lon="3.53645">
        <ele>66.8</ele>
        <time>2022-05-05T01:35:02Z</time>
      </trkpt>
      <trkpt lat="50.61103" lon="3.53659">
        <ele>66.7</ele>
        <time>2022-05-05T01:35:03Z</time>
      </trkpt>
      <trkpt lat="50.61097" lon="3.53673">
        <ele>66.7</ele>
        <time>2022-05-05T01:35:04Z</time>
      </trkpt>
      <trkpt lat="50.61091" lon="3.53687">
        <ele>66.7</ele>
        <time>2022-05-05T01:35:05Z</time>
      </trkpt>
      <trkpt lat="50.61085" lon="3.53702">
        <ele>66.8</ele>
        <time>2022-05-05T01:35:06Z</time>
      </trkpt>
      <trkpt lat="50.61078" lon="3.53716">
        <ele>66.9</ele>
        <time>2022-05-05T01:35:07Z</time>
      </trkpt>
      <trkpt lat="50.61072" lon="3.5373">
        <ele>67.2</ele>
        <time>2022-05-05T01:35:08Z</time>
      </trkpt>
      <trkpt lat="50.61067" lon="3.53743">
        <ele>67.5</ele>
        <time>2022-05-05T01:35:09Z</time>
      </trkpt>
      <trkpt lat="50.61061" lon="3.53754">
        <ele>67.9</ele>
        <time>2022-05-05T01:35:10Z</time>
      </trkpt>
      <trkpt lat="50.61056" lon="3.53766">
        <ele>68.3</ele>
        <time>2022-05-05T01:35:11Z</time>
      </trkpt>
      <trkpt lat="50.61051" lon="3.53777">
        <ele>68.7</ele>
        <time>2022-05-05T01:35:11Z</time>
      </trkpt>
      <trkpt lat="50.61046" lon="3.53787">
        <ele>68.9</ele>
        <time>2022-05-05T01:35:12Z</time>
      </trkpt>
      <trkpt lat="50.61042" lon="3.53797">
        <ele>69.1</ele>
        <time>2022-05-05T01:35:13Z</time>
      </trkpt>
      <trkpt lat="50.6104" lon="3.53808">
        <ele>69.2</ele>
        <time>2022-05-05T01:35:14Z</time>
      </trkpt>
      <trkpt lat="50.61038" lon="3.53817">
        <ele>69.2</ele>
        <time>2022-05-05T01:35:14Z</time>
      </trkpt>
      <trkpt lat="50.61037" lon="3.53825">
        <ele>69.3</ele>
        <time>2022-05-05T01:35:15Z</time>
      </trkpt>
      <trkpt lat="50.61036" lon="3.53831">
        <ele>69.3</ele>
        <time>2022-05-05T01:35:15Z</time>
      </trkpt>
      <trkpt lat="50.61034" lon="3.53836">
        <ele>69.3</ele>
        <time>2022-05-05T01:35:15Z</time>
      </trkpt>
      <trkpt lat="50.61033" lon="3.53842">
        <ele>69.3</ele>
        <time>2022-05-05T01:35:16Z</time>
      </trkpt>
      <trkpt lat="50.61031" lon="3.53847">
        <ele>69.3</ele>
        <time>2022-05-05T01:35:16Z</time>
      </trkpt>
      <trkpt lat="50.61027" lon="3.53852">
        <ele>69.3</ele>
        <time>2022-05-05T01:35:17Z</time>
      </trkpt>
      <trkpt lat="50.6102" lon="3.53858">
        <ele>69.3</ele>
        <time>2022-05-05T01:35:17Z</time>
      </trkpt>
      <trkpt lat="50.61009" lon="3.53857">
        <ele>69.3</ele>
        <time>2022-05-05T01:35:18Z</time>
      </trkpt>
      <trkpt lat="50.61" lon="3.53861">
        <ele>69.3</ele>
        <time>2022-05-05T01:35:19Z</time>
      </trkpt>
      <trkpt lat="50.60991" lon="3.53865">
        <ele>69.3</ele>
        <time>2022-05-05T01:35:20Z</time>
      </trkpt>
      <trkpt lat="50.60981" lon="3.53872">
        <ele>69.3</ele>
        <time>2022-05-05T01:35:21Z</time>
      </trkpt>
      <trkpt lat="50.60969" lon="3.53878">
        <ele>69.2</ele>
        <time>2022-05-05T01:35:22Z</time>
      </trkpt>
      <trkpt lat="50.60958" lon="3.53887">
        <ele>69.1</ele>
        <time>2022-05-05T01:35:24Z</time>
      </trkpt>
      <trkpt lat="50.60947" lon="3.53895">
        <ele>69</ele>
        <time>2022-05-05T01:35:25Z</time>
      </trkpt>
      <trkpt lat="50.60936" lon="3.53904">
        <ele>69</ele>
        <time>2022-05-05T01:35:26Z</time>
      </trkpt>
      <trkpt lat="50.60926" lon="3.53913">
        <ele>69</ele>
        <time>2022-05-05T01:35:27Z</time>
      </trkpt>
      <trkpt lat="50.60915" lon="3.53922">
        <ele>68.8</ele>
        <time>2022-05-05T01:35:28Z</time>
      </trkpt>
      <trkpt lat="50.60905" lon="3.53931">
        <ele>68.6</ele>
        <time>2022-05-05T01:35:29Z</time>
      </trkpt>
      <trkpt lat="50.60894" lon="3.53941">
        <ele>68.6</ele>
        <time>2022-05-05T01:35:30Z</time>
      </trkpt>
      <trkpt lat="50.60884" lon="3.53952">
        <ele>68.5</ele>
        <time>2022-05-05T01:35:32Z</time>
      </trkpt>
      <trkpt lat="50.60874" lon="3.53964">
        <ele>68.5</ele>
        <time>2022-05-05T01:35:33Z</time>
      </trkpt>
      <trkpt lat="50.60864" lon="3.53975">
        <ele>68.5</ele>
        <time>2022-05-05T01:35:34Z</time>
      </trkpt>
      <trkpt lat="50.60854" lon="3.53985">
        <ele>68.5</ele>
        <time>2022-05-05T01:35:35Z</time>
      </trkpt>
      <trkpt lat="50.60844" lon="3.53995">
        <ele>68.5</ele>
        <time>2022-05-05T01:35:36Z</time>
      </trkpt>
      <trkpt lat="50.60835" lon="3.54008">
        <ele>68.7</ele>
        <time>2022-05-05T01:35:37Z</time>
      </trkpt>
      <trkpt lat="50.60825" lon="3.54021">
        <ele>68.9</ele>
        <time>2022-05-05T01:35:39Z</time>
      </trkpt>
      <trkpt lat="50.60814" lon="3.54033">
        <ele>69.2</ele>
        <time>2022-05-05T01:35:40Z</time>
      </trkpt>
      <trkpt lat="50.60803" lon="3.54044">
        <ele>69.5</ele>
        <time>2022-05-05T01:35:41Z</time>
      </trkpt>
      <trkpt lat="50.60792" lon="3.54055">
        <ele>69.8</ele>
        <time>2022-05-05T01:35:42Z</time>
      </trkpt>
      <trkpt lat="50.6078" lon="3.54061">
        <ele>70</ele>
        <time>2022-05-05T01:35:44Z</time>
      </trkpt>
      <trkpt lat="50.60768" lon="3.54068">
        <ele>70.1</ele>
        <time>2022-05-05T01:35:45Z</time>
      </trkpt>
      <trkpt lat="50.60757" lon="3.54074">
        <ele>70.3</ele>
        <time>2022-05-05T01:35:46Z</time>
      </trkpt>
      <trkpt lat="50.60745" lon="3.54081">
        <ele>70.4</ele>
        <time>2022-05-05T01:35:47Z</time>
      </trkpt>
      <trkpt lat="50.60734" lon="3.54088">
        <ele>70.5</ele>
        <time>2022-05-05T01:35:48Z</time>
      </trkpt>
      <trkpt lat="50.60723" lon="3.54093">
        <ele>70.6</ele>
        <time>2022-05-05T01:35:49Z</time>
      </trkpt>
      <trkpt lat="50.60713" lon="3.54097">
        <ele>70.9</ele>
        <time>2022-05-05T01:35:50Z</time>
      </trkpt>
      <trkpt lat="50.60703" lon="3.54101">
        <ele>71</ele>
        <time>2022-05-05T01:35:51Z</time>
      </trkpt>
      <trkpt lat="50.60694" lon="3.54105">
        <ele>71.2</ele>
        <time>2022-05-05T01:35:52Z</time>
      </trkpt>
      <trkpt lat="50.60685" lon="3.54106">
        <ele>71.2</ele>
        <time>2022-05-05T01:35:53Z</time>
      </trkpt>
      <trkpt lat="50.60678" lon="3.54108">
        <ele>71.3</ele>
        <time>2022-05-05T01:35:54Z</time>
      </trkpt>
      <trkpt lat="50.60671" lon="3.54109">
        <ele>71.3</ele>
        <time>2022-05-05T01:35:54Z</time>
      </trkpt>
      <trkpt lat="50.60664" lon="3.5411">
        <ele>71.4</ele>
        <time>2022-05-05T01:35:55Z</time>
      </trkpt>
      <trkpt lat="50.60654" lon="3.5411">
        <ele>71.4</ele>
        <time>2022-05-05T01:35:56Z</time>
      </trkpt>
      <trkpt lat="50.60642" lon="3.54108">
        <ele>71.6</ele>
        <time>2022-05-05T01:35:57Z</time>
      </trkpt>
      <trkpt lat="50.6063" lon="3.54104">
        <ele>71.8</ele>
        <time>2022-05-05T01:35:58Z</time>
      </trkpt>
      <trkpt lat="50.60618" lon="3.54101">
        <ele>72</ele>
        <time>2022-05-05T01:36:00Z</time>
      </trkpt>
      <trkpt lat="50.60606" lon="3.54098">
        <ele>72.1</ele>
        <time>2022-05-05T01:36:01Z</time>
      </trkpt>
      <trkpt lat="50.60595" lon="3.54097">
        <ele>72.2</ele>
        <time>2022-05-05T01:36:02Z</time>
      </trkpt>
      <trkpt lat="50.60584" lon="3.54097">
        <ele>72.4</ele>
        <time>2022-05-05T01:36:03Z</time>
      </trkpt>
      <trkpt lat="50.60574" lon="3.54101">
        <ele>72.5</ele>
        <time>2022-05-05T01:36:04Z</time>
      </trkpt>
      <trkpt lat="50.60564" lon="3.54108">
        <ele>72.7</ele>
        <time>2022-05-05T01:36:05Z</time>
      </trkpt>
      <trkpt lat="50.60554" lon="3.54116">
        <ele>72.8</ele>
        <time>2022-05-05T01:36:06Z</time>
      </trkpt>
      <trkpt lat="50.60544" lon="3.54125">
        <ele>73</ele>
        <time>2022-05-05T01:36:07Z</time>
      </trkpt>
      <trkpt lat="50.60535" lon="3.54138">
        <ele>73</ele>
        <time>2022-05-05T01:36:08Z</time>
      </trkpt>
      <trkpt lat="50.60525" lon="3.54155">
        <ele>73</ele>
        <time>2022-05-05T01:36:10Z</time>
      </trkpt>
      <trkpt lat="50.60515" lon="3.54175">
        <ele>73.1</ele>
        <time>2022-05-05T01:36:11Z</time>
      </trkpt>
      <trkpt lat="50.60505" lon="3.54196">
        <ele>73.2</ele>
        <time>2022-05-05T01:36:13Z</time>
      </trkpt>
      <trkpt lat="50.60496" lon="3.54219">
        <ele>73.3</ele>
        <time>2022-05-05T01:36:14Z</time>
      </trkpt>
      <trkpt lat="50.60483" lon="3.54237">
        <ele>73.3</ele>
        <time>2022-05-05T01:36:16Z</time>
      </trkpt>
      <trkpt lat="50.60474" lon="3.54256">
        <ele>73.6</ele>
        <time>2022-05-05T01:36:17Z</time>
      </trkpt>
      <trkpt lat="50.60466" lon="3.54268">
        <ele>73.7</ele>
        <time>2022-05-05T01:36:18Z</time>
      </trkpt>
      <trkpt lat="50.60459" lon="3.54282">
        <ele>73.8</ele>
        <time>2022-05-05T01:36:19Z</time>
      </trkpt>
      <trkpt lat="50.60452" lon="3.54289">
        <ele>73.8</ele>
        <time>2022-05-05T01:36:20Z</time>
      </trkpt>
      <trkpt lat="50.60445" lon="3.54296">
        <ele>73.9</ele>
        <time>2022-05-05T01:36:21Z</time>
      </trkpt>
      <trkpt lat="50.60437" lon="3.54301">
        <ele>74</ele>
        <time>2022-05-05T01:36:22Z</time>
      </trkpt>
      <trkpt lat="50.6043" lon="3.54301">
        <ele>74.2</ele>
        <time>2022-05-05T01:36:23Z</time>
      </trkpt>
      <trkpt lat="50.6042" lon="3.54296">
        <ele>74.5</ele>
        <time>2022-05-05T01:36:24Z</time>
      </trkpt>
      <trkpt lat="50.60411" lon="3.54291">
        <ele>74.7</ele>
        <time>2022-05-05T01:36:24Z</time>
      </trkpt>
      <trkpt lat="50.60402" lon="3.54289">
        <ele>75</ele>
        <time>2022-05-05T01:36:25Z</time>
      </trkpt>
      <trkpt lat="50.60396" lon="3.54287">
        <ele>75.1</ele>
        <time>2022-05-05T01:36:26Z</time>
      </trkpt>
      <trkpt lat="50.60392" lon="3.54285">
        <ele>75.2</ele>
        <time>2022-05-05T01:36:26Z</time>
      </trkpt>
      <trkpt lat="50.60391" lon="3.54286">
        <ele>75.3</ele>
        <time>2022-05-05T01:36:26Z</time>
      </trkpt>
      <trkpt lat="50.60389" lon="3.54288">
        <ele>75.3</ele>
        <time>2022-05-05T01:36:27Z</time>
      </trkpt>
      <trkpt lat="50.60387" lon="3.5429">
        <ele>75.3</ele>
        <time>2022-05-05T01:36:27Z</time>
      </trkpt>
      <trkpt lat="50.60385" lon="3.54293">
        <ele>75.3</ele>
        <time>2022-05-05T01:36:27Z</time>
      </trkpt>
      <trkpt lat="50.60382" lon="3.54298">
        <ele>75.4</ele>
        <time>2022-05-05T01:36:28Z</time>
      </trkpt>
      <trkpt lat="50.60375" lon="3.54302">
        <ele>75.4</ele>
        <time>2022-05-05T01:36:28Z</time>
      </trkpt>
      <trkpt lat="50.60367" lon="3.54307">
        <ele>75.5</ele>
        <time>2022-05-05T01:36:29Z</time>
      </trkpt>
      <trkpt lat="50.60358" lon="3.54311">
        <ele>75.8</ele>
        <time>2022-05-05T01:36:30Z</time>
      </trkpt>
      <trkpt lat="50.6035" lon="3.54323">
        <ele>76</ele>
        <time>2022-05-05T01:36:31Z</time>
      </trkpt>
      <trkpt lat="50.60346" lon="3.54339">
        <ele>76.1</ele>
        <time>2022-05-05T01:36:32Z</time>
      </trkpt>
      <trkpt lat="50.60342" lon="3.54356">
        <ele>76.2</ele>
        <time>2022-05-05T01:36:33Z</time>
      </trkpt>
      <trkpt lat="50.60342" lon="3.54377">
        <ele>76.3</ele>
        <time>2022-05-05T01:36:34Z</time>
      </trkpt>
      <trkpt lat="50.6034" lon="3.54392">
        <ele>76.4</ele>
        <time>2022-05-05T01:36:35Z</time>
      </trkpt>
      <trkpt lat="50.60338" lon="3.54408">
        <ele>76.7</ele>
        <time>2022-05-05T01:36:36Z</time>
      </trkpt>
      <trkpt lat="50.60335" lon="3.54421">
        <ele>76.9</ele>
        <time>2022-05-05T01:36:37Z</time>
      </trkpt>
      <trkpt lat="50.60334" lon="3.54431">
        <ele>77.1</ele>
        <time>2022-05-05T01:36:38Z</time>
      </trkpt>
      <trkpt lat="50.60335" lon="3.54443">
        <ele>77.4</ele>
        <time>2022-05-05T01:36:39Z</time>
      </trkpt>
      <trkpt lat="50.60335" lon="3.54457">
        <ele>77.7</ele>
        <time>2022-05-05T01:36:39Z</time>
      </trkpt>
      <trkpt lat="50.60338" lon="3.54474">
        <ele>77.9</ele>
        <time>2022-05-05T01:36:40Z</time>
      </trkpt>
      <trkpt lat="50.6036" lon="3.54497">
        <ele>78.3</ele>
        <time>2022-05-05T01:36:43Z</time>
      </trkpt>
      <trkpt lat="50.60369" lon="3.54501">
        <ele>78.3</ele>
        <time>2022-05-05T01:36:44Z</time>
      </trkpt>
      <trkpt lat="50.60377" lon="3.54506">
        <ele>78.3</ele>
        <time>2022-05-05T01:36:45Z</time>
      </trkpt>
      <trkpt lat="50.60383" lon="3.54508">
        <ele>78.3</ele>
        <time>2022-05-05T01:36:45Z</time>
      </trkpt>
      <trkpt lat="50.60389" lon="3.54511">
        <ele>78.3</ele>
        <time>2022-05-05T01:36:46Z</time>
      </trkpt>
      <trkpt lat="50.60394" lon="3.54514">
        <ele>78.3</ele>
        <time>2022-05-05T01:36:46Z</time>
      </trkpt>
      <trkpt lat="50.604" lon="3.54518">
        <ele>78.3</ele>
        <time>2022-05-05T01:36:47Z</time>
      </trkpt>
      <trkpt lat="50.60407" lon="3.54521">
        <ele>78.2</ele>
        <time>2022-05-05T01:36:48Z</time>
      </trkpt>
      <trkpt lat="50.60414" lon="3.54521">
        <ele>78</ele>
        <time>2022-05-05T01:36:48Z</time>
      </trkpt>
      <trkpt lat="50.60422" lon="3.54526">
        <ele>77.8</ele>
        <time>2022-05-05T01:36:49Z</time>
      </trkpt>
      <trkpt lat="50.60431" lon="3.54532">
        <ele>77.6</ele>
        <time>2022-05-05T01:36:50Z</time>
      </trkpt>
      <trkpt lat="50.60441" lon="3.54534">
        <ele>77.3</ele>
        <time>2022-05-05T01:36:51Z</time>
      </trkpt>
      <trkpt lat="50.6045" lon="3.54538">
        <ele>77</ele>
        <time>2022-05-05T01:36:52Z</time>
      </trkpt>
      <trkpt lat="50.6046" lon="3.54537">
        <ele>76.7</ele>
        <time>2022-05-05T01:36:53Z</time>
      </trkpt>
      <trkpt lat="50.60469" lon="3.54538">
        <ele>76.4</ele>
        <time>2022-05-05T01:36:54Z</time>
      </trkpt>
      <trkpt lat="50.6048" lon="3.5454">
        <ele>76</ele>
        <time>2022-05-05T01:36:55Z</time>
      </trkpt>
      <trkpt lat="50.60491" lon="3.54541">
        <ele>75.7</ele>
        <time>2022-05-05T01:36:56Z</time>
      </trkpt>
      <trkpt lat="50.60501" lon="3.54547">
        <ele>75.3</ele>
        <time>2022-05-05T01:36:57Z</time>
      </trkpt>
      <trkpt lat="50.60509" lon="3.54554">
        <ele>75</ele>
        <time>2022-05-05T01:36:58Z</time>
      </trkpt>
      <trkpt lat="50.60519" lon="3.54557">
        <ele>74.6</ele>
        <time>2022-05-05T01:36:59Z</time>
      </trkpt>
      <trkpt lat="50.60531" lon="3.54563">
        <ele>74.3</ele>
        <time>2022-05-05T01:37:00Z</time>
      </trkpt>
      <trkpt lat="50.60542" lon="3.54567">
        <ele>73.9</ele>
        <time>2022-05-05T01:37:01Z</time>
      </trkpt>
      <trkpt lat="50.60554" lon="3.54569">
        <ele>73.6</ele>
        <time>2022-05-05T01:37:02Z</time>
      </trkpt>
      <trkpt lat="50.60564" lon="3.5457">
        <ele>73.3</ele>
        <time>2022-05-05T01:37:03Z</time>
      </trkpt>
      <trkpt lat="50.60573" lon="3.54572">
        <ele>73.1</ele>
        <time>2022-05-05T01:37:04Z</time>
      </trkpt>
      <trkpt lat="50.60584" lon="3.54575">
        <ele>72.9</ele>
        <time>2022-05-05T01:37:05Z</time>
      </trkpt>
      <trkpt lat="50.60594" lon="3.54577">
        <ele>72.7</ele>
        <time>2022-05-05T01:37:06Z</time>
      </trkpt>
      <trkpt lat="50.60604" lon="3.54582">
        <ele>72.4</ele>
        <time>2022-05-05T01:37:07Z</time>
      </trkpt>
      <trkpt lat="50.60615" lon="3.54585">
        <ele>72.1</ele>
        <time>2022-05-05T01:37:08Z</time>
      </trkpt>
      <trkpt lat="50.60626" lon="3.54589">
        <ele>71.8</ele>
        <time>2022-05-05T01:37:09Z</time>
      </trkpt>
      <trkpt lat="50.60636" lon="3.54592">
        <ele>71.4</ele>
        <time>2022-05-05T01:37:10Z</time>
      </trkpt>
      <trkpt lat="50.60645" lon="3.54593">
        <ele>71.1</ele>
        <time>2022-05-05T01:37:11Z</time>
      </trkpt>
      <trkpt lat="50.60653" lon="3.54595">
        <ele>70.8</ele>
        <time>2022-05-05T01:37:12Z</time>
      </trkpt>
      <trkpt lat="50.60661" lon="3.54593">
        <ele>70.6</ele>
        <time>2022-05-05T01:37:12Z</time>
      </trkpt>
      <trkpt lat="50.60668" lon="3.54591">
        <ele>70.5</ele>
        <time>2022-05-05T01:37:13Z</time>
      </trkpt>
      <trkpt lat="50.60677" lon="3.54596">
        <ele>70.4</ele>
        <time>2022-05-05T01:37:14Z</time>
      </trkpt>
      <trkpt lat="50.60686" lon="3.54596">
        <ele>70.3</ele>
        <time>2022-05-05T01:37:15Z</time>
      </trkpt>
      <trkpt lat="50.60694" lon="3.54601">
        <ele>70.1</ele>
        <time>2022-05-05T01:37:16Z</time>
      </trkpt>
      <trkpt lat="50.60703" lon="3.54601">
        <ele>69.8</ele>
        <time>2022-05-05T01:37:17Z</time>
      </trkpt>
      <trkpt lat="50.60713" lon="3.546">
        <ele>69.6</ele>
        <time>2022-05-05T01:37:18Z</time>
      </trkpt>
      <trkpt lat="50.60724" lon="3.54603">
        <ele>69.5</ele>
        <time>2022-05-05T01:37:19Z</time>
      </trkpt>
      <trkpt lat="50.60734" lon="3.54604">
        <ele>69.4</ele>
        <time>2022-05-05T01:37:19Z</time>
      </trkpt>
      <trkpt lat="50.60744" lon="3.54608">
        <ele>69.3</ele>
        <time>2022-05-05T01:37:20Z</time>
      </trkpt>
      <trkpt lat="50.60753" lon="3.5461">
        <ele>69</ele>
        <time>2022-05-05T01:37:21Z</time>
      </trkpt>
      <trkpt lat="50.60762" lon="3.54613">
        <ele>68.8</ele>
        <time>2022-05-05T01:37:22Z</time>
      </trkpt>
      <trkpt lat="50.6077" lon="3.54612">
        <ele>68.6</ele>
        <time>2022-05-05T01:37:23Z</time>
      </trkpt>
      <trkpt lat="50.60778" lon="3.54612">
        <ele>68.5</ele>
        <time>2022-05-05T01:37:24Z</time>
      </trkpt>
      <trkpt lat="50.60788" lon="3.54617">
        <ele>68.5</ele>
        <time>2022-05-05T01:37:25Z</time>
      </trkpt>
      <trkpt lat="50.60795" lon="3.54621">
        <ele>68.4</ele>
        <time>2022-05-05T01:37:25Z</time>
      </trkpt>
      <trkpt lat="50.60803" lon="3.54625">
        <ele>68.3</ele>
        <time>2022-05-05T01:37:26Z</time>
      </trkpt>
      <trkpt lat="50.60809" lon="3.54624">
        <ele>68.2</ele>
        <time>2022-05-05T01:37:27Z</time>
      </trkpt>
      <trkpt lat="50.60816" lon="3.54626">
        <ele>68</ele>
        <time>2022-05-05T01:37:28Z</time>
      </trkpt>
      <trkpt lat="50.60823" lon="3.54631">
        <ele>67.9</ele>
        <time>2022-05-05T01:37:28Z</time>
      </trkpt>
      <trkpt lat="50.60832" lon="3.54642">
        <ele>67.7</ele>
        <time>2022-05-05T01:37:29Z</time>
      </trkpt>
      <trkpt lat="50.60838" lon="3.5466">
        <ele>67.6</ele>
        <time>2022-05-05T01:37:31Z</time>
      </trkpt>
      <trkpt lat="50.60846" lon="3.54676">
        <ele>67.4</ele>
        <time>2022-05-05T01:37:32Z</time>
      </trkpt>
      <trkpt lat="50.60855" lon="3.54685">
        <ele>67.2</ele>
        <time>2022-05-05T01:37:33Z</time>
      </trkpt>
      <trkpt lat="50.60864" lon="3.54693">
        <ele>67</ele>
        <time>2022-05-05T01:37:34Z</time>
      </trkpt>
      <trkpt lat="50.60874" lon="3.54703">
        <ele>66.7</ele>
        <time>2022-05-05T01:37:35Z</time>
      </trkpt>
      <trkpt lat="50.60884" lon="3.54714">
        <ele>66.4</ele>
        <time>2022-05-05T01:37:36Z</time>
      </trkpt>
      <trkpt lat="50.60893" lon="3.54726">
        <ele>66.1</ele>
        <time>2022-05-05T01:37:37Z</time>
      </trkpt>
      <trkpt lat="50.60904" lon="3.54737">
        <ele>65.8</ele>
        <time>2022-05-05T01:37:38Z</time>
      </trkpt>
      <trkpt lat="50.60914" lon="3.54747">
        <ele>65.4</ele>
        <time>2022-05-05T01:37:40Z</time>
      </trkpt>
      <trkpt lat="50.60924" lon="3.54758">
        <ele>65.1</ele>
        <time>2022-05-05T01:37:41Z</time>
      </trkpt>
      <trkpt lat="50.60933" lon="3.54768">
        <ele>64.7</ele>
        <time>2022-05-05T01:37:42Z</time>
      </trkpt>
      <trkpt lat="50.60941" lon="3.54777">
        <ele>64.4</ele>
        <time>2022-05-05T01:37:43Z</time>
      </trkpt>
      <trkpt lat="50.60949" lon="3.54788">
        <ele>64</ele>
        <time>2022-05-05T01:37:44Z</time>
      </trkpt>
      <trkpt lat="50.60957" lon="3.54798">
        <ele>63.8</ele>
        <time>2022-05-05T01:37:45Z</time>
      </trkpt>
      <trkpt lat="50.60965" lon="3.54807">
        <ele>63.6</ele>
        <time>2022-05-05T01:37:46Z</time>
      </trkpt>
      <trkpt lat="50.60973" lon="3.54818">
        <ele>63.5</ele>
        <time>2022-05-05T01:37:47Z</time>
      </trkpt>
      <trkpt lat="50.60981" lon="3.54827">
        <ele>63.4</ele>
        <time>2022-05-05T01:37:48Z</time>
      </trkpt>
      <trkpt lat="50.60989" lon="3.54837">
        <ele>63.3</ele>
        <time>2022-05-05T01:37:49Z</time>
      </trkpt>
      <trkpt lat="50.60997" lon="3.54846">
        <ele>63.1</ele>
        <time>2022-05-05T01:37:50Z</time>
      </trkpt>
      <trkpt lat="50.61005" lon="3.54855">
        <ele>62.9</ele>
        <time>2022-05-05T01:37:50Z</time>
      </trkpt>
      <trkpt lat="50.61012" lon="3.54862">
        <ele>62.6</ele>
        <time>2022-05-05T01:37:51Z</time>
      </trkpt>
      <trkpt lat="50.61019" lon="3.5487">
        <ele>62.4</ele>
        <time>2022-05-05T01:37:52Z</time>
      </trkpt>
      <trkpt lat="50.61025" lon="3.54877">
        <ele>62.2</ele>
        <time>2022-05-05T01:37:53Z</time>
      </trkpt>
      <trkpt lat="50.61031" lon="3.54883">
        <ele>62.1</ele>
        <time>2022-05-05T01:37:53Z</time>
      </trkpt>
      <trkpt lat="50.61035" lon="3.54888">
        <ele>62.1</ele>
        <time>2022-05-05T01:37:54Z</time>
      </trkpt>
      <trkpt lat="50.61038" lon="3.54892">
        <ele>62.2</ele>
        <time>2022-05-05T01:37:54Z</time>
      </trkpt>
      <trkpt lat="50.61042" lon="3.54896">
        <ele>62.2</ele>
        <time>2022-05-05T01:37:55Z</time>
      </trkpt>
      <trkpt lat="50.61046" lon="3.54899">
        <ele>62.2</ele>
        <time>2022-05-05T01:37:55Z</time>
      </trkpt>
      <trkpt lat="50.61052" lon="3.549">
        <ele>62.2</ele>
        <time>2022-05-05T01:37:56Z</time>
      </trkpt>
      <trkpt lat="50.61059" lon="3.54898">
        <ele>62.1</ele>
        <time>2022-05-05T01:37:56Z</time>
      </trkpt>
      <trkpt lat="50.61066" lon="3.54897">
        <ele>62.1</ele>
        <time>2022-05-05T01:37:57Z</time>
      </trkpt>
      <trkpt lat="50.61073" lon="3.54897">
        <ele>62.1</ele>
        <time>2022-05-05T01:37:58Z</time>
      </trkpt>
      <trkpt lat="50.61079" lon="3.54897">
        <ele>62.1</ele>
        <time>2022-05-05T01:37:58Z</time>
      </trkpt>
      <trkpt lat="50.61085" lon="3.54901">
        <ele>62.1</ele>
        <time>2022-05-05T01:37:59Z</time>
      </trkpt>
      <trkpt lat="50.61091" lon="3.54909">
        <ele>62</ele>
        <time>2022-05-05T01:38:00Z</time>
      </trkpt>
      <trkpt lat="50.61095" lon="3.5492">
        <ele>61.9</ele>
        <time>2022-05-05T01:38:00Z</time>
      </trkpt>
      <trkpt lat="50.61099" lon="3.54931">
        <ele>61.9</ele>
        <time>2022-05-05T01:38:01Z</time>
      </trkpt>
      <trkpt lat="50.61101" lon="3.54944">
        <ele>61.9</ele>
        <time>2022-05-05T01:38:02Z</time>
      </trkpt>
      <trkpt lat="50.61104" lon="3.54958">
        <ele>61.9</ele>
        <time>2022-05-05T01:38:03Z</time>
      </trkpt>
      <trkpt lat="50.61106" lon="3.54973">
        <ele>62</ele>
        <time>2022-05-05T01:38:04Z</time>
      </trkpt>
      <trkpt lat="50.61108" lon="3.54988">
        <ele>62</ele>
        <time>2022-05-05T01:38:05Z</time>
      </trkpt>
      <trkpt lat="50.61111" lon="3.55002">
        <ele>62.1</ele>
        <time>2022-05-05T01:38:06Z</time>
      </trkpt>
      <trkpt lat="50.61113" lon="3.55016">
        <ele>62.1</ele>
        <time>2022-05-05T01:38:07Z</time>
      </trkpt>
      <trkpt lat="50.61116" lon="3.55031">
        <ele>62.1</ele>
        <time>2022-05-05T01:38:07Z</time>
      </trkpt>
      <trkpt lat="50.61119" lon="3.55045">
        <ele>61.9</ele>
        <time>2022-05-05T01:38:08Z</time>
      </trkpt>
      <trkpt lat="50.61121" lon="3.5506">
        <ele>61.8</ele>
        <time>2022-05-05T01:38:09Z</time>
      </trkpt>
      <trkpt lat="50.61123" lon="3.55075">
        <ele>61.7</ele>
        <time>2022-05-05T01:38:10Z</time>
      </trkpt>
      <trkpt lat="50.61125" lon="3.55089">
        <ele>61.6</ele>
        <time>2022-05-05T01:38:11Z</time>
      </trkpt>
      <trkpt lat="50.61127" lon="3.55104">
        <ele>61.5</ele>
        <time>2022-05-05T01:38:12Z</time>
      </trkpt>
      <trkpt lat="50.61129" lon="3.55118">
        <ele>61.5</ele>
        <time>2022-05-05T01:38:13Z</time>
      </trkpt>
      <trkpt lat="50.61129" lon="3.55133">
        <ele>61.5</ele>
        <time>2022-05-05T01:38:14Z</time>
      </trkpt>
      <trkpt lat="50.61129" lon="3.5515">
        <ele>61.6</ele>
        <time>2022-05-05T01:38:15Z</time>
      </trkpt>
      <trkpt lat="50.61129" lon="3.55166">
        <ele>61.4</ele>
        <time>2022-05-05T01:38:16Z</time>
      </trkpt>
      <trkpt lat="50.61129" lon="3.55182">
        <ele>61.2</ele>
        <time>2022-05-05T01:38:17Z</time>
      </trkpt>
      <trkpt lat="50.6113" lon="3.55198">
        <ele>61</ele>
        <time>2022-05-05T01:38:18Z</time>
      </trkpt>
      <trkpt lat="50.6113" lon="3.55213">
        <ele>60.8</ele>
        <time>2022-05-05T01:38:19Z</time>
      </trkpt>
      <trkpt lat="50.61131" lon="3.55228">
        <ele>60.7</ele>
        <time>2022-05-05T01:38:19Z</time>
      </trkpt>
      <trkpt lat="50.61131" lon="3.55242">
        <ele>60.6</ele>
        <time>2022-05-05T01:38:20Z</time>
      </trkpt>
      <trkpt lat="50.61131" lon="3.55256">
        <ele>60.7</ele>
        <time>2022-05-05T01:38:21Z</time>
      </trkpt>
      <trkpt lat="50.61131" lon="3.55269">
        <ele>60.6</ele>
        <time>2022-05-05T01:38:22Z</time>
      </trkpt>
      <trkpt lat="50.61129" lon="3.55284">
        <ele>60.4</ele>
        <time>2022-05-05T01:38:23Z</time>
      </trkpt>
      <trkpt lat="50.61124" lon="3.55301">
        <ele>60.1</ele>
        <time>2022-05-05T01:38:24Z</time>
      </trkpt>
      <trkpt lat="50.61119" lon="3.55319">
        <ele>59.8</ele>
        <time>2022-05-05T01:38:25Z</time>
      </trkpt>
      <trkpt lat="50.61115" lon="3.55337">
        <ele>59.5</ele>
        <time>2022-05-05T01:38:26Z</time>
      </trkpt>
      <trkpt lat="50.6111" lon="3.55354">
        <ele>59.2</ele>
        <time>2022-05-05T01:38:28Z</time>
      </trkpt>
      <trkpt lat="50.61106" lon="3.55372">
        <ele>58.9</ele>
        <time>2022-05-05T01:38:29Z</time>
      </trkpt>
      <trkpt lat="50.61104" lon="3.5539">
        <ele>58.7</ele>
        <time>2022-05-05T01:38:30Z</time>
      </trkpt>
      <trkpt lat="50.61103" lon="3.55407">
        <ele>58.7</ele>
        <time>2022-05-05T01:38:31Z</time>
      </trkpt>
      <trkpt lat="50.61102" lon="3.55423">
        <ele>58.7</ele>
        <time>2022-05-05T01:38:32Z</time>
      </trkpt>
      <trkpt lat="50.61101" lon="3.55439">
        <ele>58.7</ele>
        <time>2022-05-05T01:38:33Z</time>
      </trkpt>
      <trkpt lat="50.61102" lon="3.55455">
        <ele>58.7</ele>
        <time>2022-05-05T01:38:34Z</time>
      </trkpt>
      <trkpt lat="50.61105" lon="3.55469">
        <ele>58.6</ele>
        <time>2022-05-05T01:38:35Z</time>
      </trkpt>
      <trkpt lat="50.61109" lon="3.55484">
        <ele>58.5</ele>
        <time>2022-05-05T01:38:36Z</time>
      </trkpt>
      <trkpt lat="50.61115" lon="3.55499">
        <ele>58.3</ele>
        <time>2022-05-05T01:38:37Z</time>
      </trkpt>
      <trkpt lat="50.61121" lon="3.55515">
        <ele>58</ele>
        <time>2022-05-05T01:38:38Z</time>
      </trkpt>
      <trkpt lat="50.61128" lon="3.55532">
        <ele>57.8</ele>
        <time>2022-05-05T01:38:39Z</time>
      </trkpt>
      <trkpt lat="50.61135" lon="3.5555">
        <ele>57.7</ele>
        <time>2022-05-05T01:38:40Z</time>
      </trkpt>
      <trkpt lat="50.61143" lon="3.55568">
        <ele>57.6</ele>
        <time>2022-05-05T01:38:42Z</time>
      </trkpt>
      <trkpt lat="50.61151" lon="3.55585">
        <ele>57.4</ele>
        <time>2022-05-05T01:38:43Z</time>
      </trkpt>
      <trkpt lat="50.61159" lon="3.55602">
        <ele>57.3</ele>
        <time>2022-05-05T01:38:44Z</time>
      </trkpt>
      <trkpt lat="50.61166" lon="3.55619">
        <ele>57.3</ele>
        <time>2022-05-05T01:38:45Z</time>
      </trkpt>
      <trkpt lat="50.61173" lon="3.55636">
        <ele>57.2</ele>
        <time>2022-05-05T01:38:47Z</time>
      </trkpt>
      <trkpt lat="50.61181" lon="3.55652">
        <ele>57.1</ele>
        <time>2022-05-05T01:38:48Z</time>
      </trkpt>
      <trkpt lat="50.61187" lon="3.55667">
        <ele>57.1</ele>
        <time>2022-05-05T01:38:49Z</time>
      </trkpt>
      <trkpt lat="50.61193" lon="3.55681">
        <ele>57.1</ele>
        <time>2022-05-05T01:38:50Z</time>
      </trkpt>
      <trkpt lat="50.61199" lon="3.55695">
        <ele>57.2</ele>
        <time>2022-05-05T01:38:51Z</time>
      </trkpt>
      <trkpt lat="50.61205" lon="3.55709">
        <ele>57.3</ele>
        <time>2022-05-05T01:38:52Z</time>
      </trkpt>
      <trkpt lat="50.61211" lon="3.55722">
        <ele>57.3</ele>
        <time>2022-05-05T01:38:53Z</time>
      </trkpt>
      <trkpt lat="50.61217" lon="3.55736">
        <ele>57.2</ele>
        <time>2022-05-05T01:38:54Z</time>
      </trkpt>
      <trkpt lat="50.61224" lon="3.55751">
        <ele>57.1</ele>
        <time>2022-05-05T01:38:55Z</time>
      </trkpt>
      <trkpt lat="50.6123" lon="3.55766">
        <ele>57.2</ele>
        <time>2022-05-05T01:38:56Z</time>
      </trkpt>
      <trkpt lat="50.61237" lon="3.55782">
        <ele>57.1</ele>
        <time>2022-05-05T01:38:57Z</time>
      </trkpt>
      <trkpt lat="50.61245" lon="3.55796">
        <ele>57</ele>
        <time>2022-05-05T01:38:58Z</time>
      </trkpt>
      <trkpt lat="50.61251" lon="3.55809">
        <ele>56.9</ele>
        <time>2022-05-05T01:38:59Z</time>
      </trkpt>
      <trkpt lat="50.61258" lon="3.55821">
        <ele>56.7</ele>
        <time>2022-05-05T01:39:00Z</time>
      </trkpt>
      <trkpt lat="50.61263" lon="3.55832">
        <ele>56.7</ele>
        <time>2022-05-05T01:39:01Z</time>
      </trkpt>
      <trkpt lat="50.61268" lon="3.55842">
        <ele>56.7</ele>
        <time>2022-05-05T01:39:02Z</time>
      </trkpt>
      <trkpt lat="50.61272" lon="3.55851">
        <ele>56.7</ele>
        <time>2022-05-05T01:39:03Z</time>
      </trkpt>
      <trkpt lat="50.61276" lon="3.55858">
        <ele>56.7</ele>
        <time>2022-05-05T01:39:03Z</time>
      </trkpt>
      <trkpt lat="50.61279" lon="3.55865">
        <ele>56.6</ele>
        <time>2022-05-05T01:39:04Z</time>
      </trkpt>
      <trkpt lat="50.61282" lon="3.5587">
        <ele>56.5</ele>
        <time>2022-05-05T01:39:04Z</time>
      </trkpt>
      <trkpt lat="50.61284" lon="3.55875">
        <ele>56.5</ele>
        <time>2022-05-05T01:39:05Z</time>
      </trkpt>
      <trkpt lat="50.61287" lon="3.55879">
        <ele>56.5</ele>
        <time>2022-05-05T01:39:05Z</time>
      </trkpt>
      <trkpt lat="50.6129" lon="3.55883">
        <ele>56.6</ele>
        <time>2022-05-05T01:39:05Z</time>
      </trkpt>
      <trkpt lat="50.61295" lon="3.55882">
        <ele>56.6</ele>
        <time>2022-05-05T01:39:06Z</time>
      </trkpt>
      <trkpt lat="50.61301" lon="3.55882">
        <ele>56.8</ele>
        <time>2022-05-05T01:39:06Z</time>
      </trkpt>
      <trkpt lat="50.61308" lon="3.55875">
        <ele>56.9</ele>
        <time>2022-05-05T01:39:07Z</time>
      </trkpt>
      <trkpt lat="50.61318" lon="3.55868">
        <ele>57.1</ele>
        <time>2022-05-05T01:39:08Z</time>
      </trkpt>
      <trkpt lat="50.61328" lon="3.55861">
        <ele>57.2</ele>
        <time>2022-05-05T01:39:09Z</time>
      </trkpt>
      <trkpt lat="50.61339" lon="3.55853">
        <ele>57.2</ele>
        <time>2022-05-05T01:39:10Z</time>
      </trkpt>
      <trkpt lat="50.6135" lon="3.55845">
        <ele>57.4</ele>
        <time>2022-05-05T01:39:11Z</time>
      </trkpt>
      <trkpt lat="50.61359" lon="3.55829">
        <ele>57.7</ele>
        <time>2022-05-05T01:39:13Z</time>
      </trkpt>
      <trkpt lat="50.6137" lon="3.55818">
        <ele>57.9</ele>
        <time>2022-05-05T01:39:14Z</time>
      </trkpt>
      <trkpt lat="50.61382" lon="3.55806">
        <ele>58.2</ele>
        <time>2022-05-05T01:39:15Z</time>
      </trkpt>
      <trkpt lat="50.61394" lon="3.55795">
        <ele>58.5</ele>
        <time>2022-05-05T01:39:17Z</time>
      </trkpt>
      <trkpt lat="50.61407" lon="3.55785">
        <ele>59</ele>
        <time>2022-05-05T01:39:18Z</time>
      </trkpt>
      <trkpt lat="50.61418" lon="3.55776">
        <ele>59.4</ele>
        <time>2022-05-05T01:39:19Z</time>
      </trkpt>
      <trkpt lat="50.61429" lon="3.55766">
        <ele>59.8</ele>
        <time>2022-05-05T01:39:20Z</time>
      </trkpt>
      <trkpt lat="50.6144" lon="3.55756">
        <ele>60.3</ele>
        <time>2022-05-05T01:39:22Z</time>
      </trkpt>
      <trkpt lat="50.6145" lon="3.55748">
        <ele>60.9</ele>
        <time>2022-05-05T01:39:23Z</time>
      </trkpt>
      <trkpt lat="50.6146" lon="3.5574">
        <ele>61.5</ele>
        <time>2022-05-05T01:39:24Z</time>
      </trkpt>
      <trkpt lat="50.61469" lon="3.55731">
        <ele>62</ele>
        <time>2022-05-05T01:39:25Z</time>
      </trkpt>
      <trkpt lat="50.61477" lon="3.55721">
        <ele>62.4</ele>
        <time>2022-05-05T01:39:26Z</time>
      </trkpt>
      <trkpt lat="50.61483" lon="3.55708">
        <ele>62.8</ele>
        <time>2022-05-05T01:39:27Z</time>
      </trkpt>
      <trkpt lat="50.61488" lon="3.55694">
        <ele>63.3</ele>
        <time>2022-05-05T01:39:28Z</time>
      </trkpt>
      <trkpt lat="50.61493" lon="3.55683">
        <ele>63.7</ele>
        <time>2022-05-05T01:39:29Z</time>
      </trkpt>
      <trkpt lat="50.61497" lon="3.55672">
        <ele>63.9</ele>
        <time>2022-05-05T01:39:29Z</time>
      </trkpt>
      <trkpt lat="50.61502" lon="3.55662">
        <ele>64.1</ele>
        <time>2022-05-05T01:39:30Z</time>
      </trkpt>
      <trkpt lat="50.61507" lon="3.55651">
        <ele>64.2</ele>
        <time>2022-05-05T01:39:31Z</time>
      </trkpt>
      <trkpt lat="50.61512" lon="3.55643">
        <ele>64.2</ele>
        <time>2022-05-05T01:39:32Z</time>
      </trkpt>
      <trkpt lat="50.61517" lon="3.55638">
        <ele>64.3</ele>
        <time>2022-05-05T01:39:32Z</time>
      </trkpt>
      <trkpt lat="50.61522" lon="3.55635">
        <ele>64.3</ele>
        <time>2022-05-05T01:39:33Z</time>
      </trkpt>
      <trkpt lat="50.61526" lon="3.55635">
        <ele>64.3</ele>
        <time>2022-05-05T01:39:33Z</time>
      </trkpt>
      <trkpt lat="50.61531" lon="3.55639">
        <ele>64.3</ele>
        <time>2022-05-05T01:39:34Z</time>
      </trkpt>
      <trkpt lat="50.61536" lon="3.55647">
        <ele>64.3</ele>
        <time>2022-05-05T01:39:34Z</time>
      </trkpt>
      <trkpt lat="50.61542" lon="3.55658">
        <ele>64.3</ele>
        <time>2022-05-05T01:39:35Z</time>
      </trkpt>
      <trkpt lat="50.61548" lon="3.55673">
        <ele>64.3</ele>
        <time>2022-05-05T01:39:36Z</time>
      </trkpt>
      <trkpt lat="50.61556" lon="3.55689">
        <ele>64.3</ele>
        <time>2022-05-05T01:39:37Z</time>
      </trkpt>
      <trkpt lat="50.61563" lon="3.55708">
        <ele>64.3</ele>
        <time>2022-05-05T01:39:39Z</time>
      </trkpt>
      <trkpt lat="50.61571" lon="3.55727">
        <ele>64.3</ele>
        <time>2022-05-05T01:39:40Z</time>
      </trkpt>
      <trkpt lat="50.61578" lon="3.55747">
        <ele>64.1</ele>
        <time>2022-05-05T01:39:41Z</time>
      </trkpt>
      <trkpt lat="50.61585" lon="3.55769">
        <ele>63.8</ele>
        <time>2022-05-05T01:39:43Z</time>
      </trkpt>
      <trkpt lat="50.61591" lon="3.55792">
        <ele>63.6</ele>
        <time>2022-05-05T01:39:44Z</time>
      </trkpt>
      <trkpt lat="50.61597" lon="3.55815">
        <ele>63.4</ele>
        <time>2022-05-05T01:39:46Z</time>
      </trkpt>
      <trkpt lat="50.61602" lon="3.55838">
        <ele>63.2</ele>
        <time>2022-05-05T01:39:47Z</time>
      </trkpt>
      <trkpt lat="50.61607" lon="3.55861">
        <ele>63</ele>
        <time>2022-05-05T01:39:49Z</time>
      </trkpt>
      <trkpt lat="50.61611" lon="3.55882">
        <ele>62.8</ele>
        <time>2022-05-05T01:39:50Z</time>
      </trkpt>
      <trkpt lat="50.61615" lon="3.55903">
        <ele>62.7</ele>
        <time>2022-05-05T01:39:52Z</time>
      </trkpt>
      <trkpt lat="50.6162" lon="3.55925">
        <ele>62.3</ele>
        <time>2022-05-05T01:39:53Z</time>
      </trkpt>
      <trkpt lat="50.61623" lon="3.55943">
        <ele>61.9</ele>
        <time>2022-05-05T01:39:54Z</time>
      </trkpt>
      <trkpt lat="50.61625" lon="3.55961">
        <ele>61.5</ele>
        <time>2022-05-05T01:39:55Z</time>
      </trkpt>
      <trkpt lat="50.61627" lon="3.55978">
        <ele>61.2</ele>
        <time>2022-05-05T01:39:56Z</time>
      </trkpt>
      <trkpt lat="50.6163" lon="3.55996">
        <ele>60.9</ele>
        <time>2022-05-05T01:39:57Z</time>
      </trkpt>
      <trkpt lat="50.61632" lon="3.56019">
        <ele>60.7</ele>
        <time>2022-05-05T01:39:59Z</time>
      </trkpt>
      <trkpt lat="50.61632" lon="3.56043">
        <ele>60.5</ele>
        <time>2022-05-05T01:40:00Z</time>
      </trkpt>
      <trkpt lat="50.61629" lon="3.56062">
        <ele>60.2</ele>
        <time>2022-05-05T01:40:01Z</time>
      </trkpt>
      <trkpt lat="50.61629" lon="3.56088">
        <ele>59.9</ele>
        <time>2022-05-05T01:40:03Z</time>
      </trkpt>
      <trkpt lat="50.61626" lon="3.56109">
        <ele>59.5</ele>
        <time>2022-05-05T01:40:04Z</time>
      </trkpt>
      <trkpt lat="50.61621" lon="3.56128">
        <ele>59.3</ele>
        <time>2022-05-05T01:40:06Z</time>
      </trkpt>
      <trkpt lat="50.61615" lon="3.56148">
        <ele>59.1</ele>
        <time>2022-05-05T01:40:07Z</time>
      </trkpt>
      <trkpt lat="50.61608" lon="3.56169">
        <ele>58.9</ele>
        <time>2022-05-05T01:40:08Z</time>
      </trkpt>
      <trkpt lat="50.61598" lon="3.56187">
        <ele>58.6</ele>
        <time>2022-05-05T01:40:10Z</time>
      </trkpt>
      <trkpt lat="50.61589" lon="3.5621">
        <ele>58.4</ele>
        <time>2022-05-05T01:40:11Z</time>
      </trkpt>
      <trkpt lat="50.6158" lon="3.56231">
        <ele>58.1</ele>
        <time>2022-05-05T01:40:13Z</time>
      </trkpt>
      <trkpt lat="50.61576" lon="3.56258">
        <ele>57.7</ele>
        <time>2022-05-05T01:40:15Z</time>
      </trkpt>
      <trkpt lat="50.61566" lon="3.56277">
        <ele>57.2</ele>
        <time>2022-05-05T01:40:16Z</time>
      </trkpt>
      <trkpt lat="50.61554" lon="3.56294">
        <ele>56.9</ele>
        <time>2022-05-05T01:40:18Z</time>
      </trkpt>
      <trkpt lat="50.61548" lon="3.56317">
        <ele>56.5</ele>
        <time>2022-05-05T01:40:19Z</time>
      </trkpt>
      <trkpt lat="50.61536" lon="3.56333">
        <ele>56.1</ele>
        <time>2022-05-05T01:40:21Z</time>
      </trkpt>
      <trkpt lat="50.61527" lon="3.56359">
        <ele>55.8</ele>
        <time>2022-05-05T01:40:22Z</time>
      </trkpt>
      <trkpt lat="50.61518" lon="3.5638">
        <ele>55.3</ele>
        <time>2022-05-05T01:40:24Z</time>
      </trkpt>
      <trkpt lat="50.6151" lon="3.56403">
        <ele>55</ele>
        <time>2022-05-05T01:40:26Z</time>
      </trkpt>
      <trkpt lat="50.61503" lon="3.56429">
        <ele>54.7</ele>
        <time>2022-05-05T01:40:27Z</time>
      </trkpt>
      <trkpt lat="50.61494" lon="3.5645">
        <ele>54.4</ele>
        <time>2022-05-05T01:40:29Z</time>
      </trkpt>
      <trkpt lat="50.61486" lon="3.5647">
        <ele>54</ele>
        <time>2022-05-05T01:40:30Z</time>
      </trkpt>
      <trkpt lat="50.6148" lon="3.56489">
        <ele>53.8</ele>
        <time>2022-05-05T01:40:31Z</time>
      </trkpt>
      <trkpt lat="50.61473" lon="3.5651">
        <ele>53.6</ele>
        <time>2022-05-05T01:40:33Z</time>
      </trkpt>
      <trkpt lat="50.61469" lon="3.56536">
        <ele>53.5</ele>
        <time>2022-05-05T01:40:35Z</time>
      </trkpt>
      <trkpt lat="50.61464" lon="3.56564">
        <ele>53.4</ele>
        <time>2022-05-05T01:40:36Z</time>
      </trkpt>
      <trkpt lat="50.61457" lon="3.56584">
        <ele>53.3</ele>
        <time>2022-05-05T01:40:38Z</time>
      </trkpt>
      <trkpt lat="50.61451" lon="3.56611">
        <ele>53.1</ele>
        <time>2022-05-05T01:40:39Z</time>
      </trkpt>
      <trkpt lat="50.61444" lon="3.56642">
        <ele>53.2</ele>
        <time>2022-05-05T01:40:41Z</time>
      </trkpt>
      <trkpt lat="50.61438" lon="3.56676">
        <ele>53.2</ele>
        <time>2022-05-05T01:40:43Z</time>
      </trkpt>
      <trkpt lat="50.6143" lon="3.56708">
        <ele>53.3</ele>
        <time>2022-05-05T01:40:46Z</time>
      </trkpt>
      <trkpt lat="50.61422" lon="3.56736">
        <ele>53.3</ele>
        <time>2022-05-05T01:40:47Z</time>
      </trkpt>
      <trkpt lat="50.61415" lon="3.56763">
        <ele>53.3</ele>
        <time>2022-05-05T01:40:49Z</time>
      </trkpt>
      <trkpt lat="50.6141" lon="3.56791">
        <ele>53.3</ele>
        <time>2022-05-05T01:40:51Z</time>
      </trkpt>
      <trkpt lat="50.61404" lon="3.56818">
        <ele>53.5</ele>
        <time>2022-05-05T01:40:53Z</time>
      </trkpt>
      <trkpt lat="50.61398" lon="3.56846">
        <ele>53.7</ele>
        <time>2022-05-05T01:40:54Z</time>
      </trkpt>
      <trkpt lat="50.61392" lon="3.56876">
        <ele>54.1</ele>
        <time>2022-05-05T01:40:56Z</time>
      </trkpt>
      <trkpt lat="50.61385" lon="3.56902">
        <ele>54.7</ele>
        <time>2022-05-05T01:40:58Z</time>
      </trkpt>
      <trkpt lat="50.6138" lon="3.56928">
        <ele>55.4</ele>
        <time>2022-05-05T01:41:00Z</time>
      </trkpt>
      <trkpt lat="50.61374" lon="3.56949">
        <ele>56.3</ele>
        <time>2022-05-05T01:41:01Z</time>
      </trkpt>
      <trkpt lat="50.61368" lon="3.5697">
        <ele>57</ele>
        <time>2022-05-05T01:41:03Z</time>
      </trkpt>
      <trkpt lat="50.61363" lon="3.5699">
        <ele>57.6</ele>
        <time>2022-05-05T01:41:04Z</time>
      </trkpt>
      <trkpt lat="50.61358" lon="3.57007">
        <ele>58.1</ele>
        <time>2022-05-05T01:41:05Z</time>
      </trkpt>
      <trkpt lat="50.61354" lon="3.57026">
        <ele>58.6</ele>
        <time>2022-05-05T01:41:06Z</time>
      </trkpt>
      <trkpt lat="50.61352" lon="3.57049">
        <ele>59</ele>
        <time>2022-05-05T01:41:08Z</time>
      </trkpt>
      <trkpt lat="50.61352" lon="3.57072">
        <ele>59.4</ele>
        <time>2022-05-05T01:41:09Z</time>
      </trkpt>
      <trkpt lat="50.61351" lon="3.57093">
        <ele>59.8</ele>
        <time>2022-05-05T01:41:10Z</time>
      </trkpt>
      <trkpt lat="50.61348" lon="3.57118">
        <ele>60.5</ele>
        <time>2022-05-05T01:41:12Z</time>
      </trkpt>
      <trkpt lat="50.61345" lon="3.57139">
        <ele>61.4</ele>
        <time>2022-05-05T01:41:13Z</time>
      </trkpt>
      <trkpt lat="50.61343" lon="3.57157">
        <ele>62.3</ele>
        <time>2022-05-05T01:41:14Z</time>
      </trkpt>
      <trkpt lat="50.61341" lon="3.57177">
        <ele>62.9</ele>
        <time>2022-05-05T01:41:15Z</time>
      </trkpt>
      <trkpt lat="50.61342" lon="3.57196">
        <ele>63.3</ele>
        <time>2022-05-05T01:41:16Z</time>
      </trkpt>
      <trkpt lat="50.61342" lon="3.57213">
        <ele>63.8</ele>
        <time>2022-05-05T01:41:18Z</time>
      </trkpt>
      <trkpt lat="50.61342" lon="3.57233">
        <ele>64.2</ele>
        <time>2022-05-05T01:41:19Z</time>
      </trkpt>
      <trkpt lat="50.61339" lon="3.57252">
        <ele>64.6</ele>
        <time>2022-05-05T01:41:20Z</time>
      </trkpt>
      <trkpt lat="50.61337" lon="3.57269">
        <ele>65.1</ele>
        <time>2022-05-05T01:41:21Z</time>
      </trkpt>
      <trkpt lat="50.61338" lon="3.57289">
        <ele>65.5</ele>
        <time>2022-05-05T01:41:22Z</time>
      </trkpt>
      <trkpt lat="50.61336" lon="3.57311">
        <ele>66</ele>
        <time>2022-05-05T01:41:24Z</time>
      </trkpt>
      <trkpt lat="50.61333" lon="3.57334">
        <ele>66.6</ele>
        <time>2022-05-05T01:41:25Z</time>
      </trkpt>
      <trkpt lat="50.61331" lon="3.57356">
        <ele>67.2</ele>
        <time>2022-05-05T01:41:26Z</time>
      </trkpt>
      <trkpt lat="50.6133" lon="3.57375">
        <ele>68.1</ele>
        <time>2022-05-05T01:41:27Z</time>
      </trkpt>
      <trkpt lat="50.61327" lon="3.57391">
        <ele>69</ele>
        <time>2022-05-05T01:41:28Z</time>
      </trkpt>
      <trkpt lat="50.61326" lon="3.57407">
        <ele>69.7</ele>
        <time>2022-05-05T01:41:29Z</time>
      </trkpt>
      <trkpt lat="50.61327" lon="3.57421">
        <ele>70.4</ele>
        <time>2022-05-05T01:41:30Z</time>
      </trkpt>
      <trkpt lat="50.61325" lon="3.57435">
        <ele>71.1</ele>
        <time>2022-05-05T01:41:31Z</time>
      </trkpt>
      <trkpt lat="50.61327" lon="3.57444">
        <ele>71.7</ele>
        <time>2022-05-05T01:41:32Z</time>
      </trkpt>
      <trkpt lat="50.61333" lon="3.57452">
        <ele>72.2</ele>
        <time>2022-05-05T01:41:32Z</time>
      </trkpt>
      <trkpt lat="50.61333" lon="3.57461">
        <ele>72.7</ele>
        <time>2022-05-05T01:41:33Z</time>
      </trkpt>
      <trkpt lat="50.61337" lon="3.57466">
        <ele>73.1</ele>
        <time>2022-05-05T01:41:34Z</time>
      </trkpt>
      <trkpt lat="50.61339" lon="3.57471">
        <ele>73.5</ele>
        <time>2022-05-05T01:41:34Z</time>
      </trkpt>
      <trkpt lat="50.61337" lon="3.57475">
        <ele>73.7</ele>
        <time>2022-05-05T01:41:34Z</time>
      </trkpt>
      <trkpt lat="50.61335" lon="3.57476">
        <ele>73.9</ele>
        <time>2022-05-05T01:41:34Z</time>
      </trkpt>
      <trkpt lat="50.61332" lon="3.57477">
        <ele>74</ele>
        <time>2022-05-05T01:41:35Z</time>
      </trkpt>
      <trkpt lat="50.61327" lon="3.57474">
        <ele>74.1</ele>
        <time>2022-05-05T01:41:35Z</time>
      </trkpt>
      <trkpt lat="50.61322" lon="3.57472">
        <ele>74.1</ele>
        <time>2022-05-05T01:41:36Z</time>
      </trkpt>
      <trkpt lat="50.61317" lon="3.57471">
        <ele>74.1</ele>
        <time>2022-05-05T01:41:36Z</time>
      </trkpt>
      <trkpt lat="50.61314" lon="3.57469">
        <ele>73.9</ele>
        <time>2022-05-05T01:41:37Z</time>
      </trkpt>
      <trkpt lat="50.61311" lon="3.57465">
        <ele>73.8</ele>
        <time>2022-05-05T01:41:37Z</time>
      </trkpt>
      <trkpt lat="50.61306" lon="3.57462">
        <ele>73.6</ele>
        <time>2022-05-05T01:41:37Z</time>
      </trkpt>
      <trkpt lat="50.613" lon="3.57459">
        <ele>73.4</ele>
        <time>2022-05-05T01:41:38Z</time>
      </trkpt>
      <trkpt lat="50.61295" lon="3.57454">
        <ele>73.2</ele>
        <time>2022-05-05T01:41:39Z</time>
      </trkpt>
      <trkpt lat="50.61289" lon="3.57453">
        <ele>73</ele>
        <time>2022-05-05T01:41:39Z</time>
      </trkpt>
      <trkpt lat="50.61283" lon="3.5745">
        <ele>72.9</ele>
        <time>2022-05-05T01:41:40Z</time>
      </trkpt>
      <trkpt lat="50.61277" lon="3.5744">
        <ele>72.8</ele>
        <time>2022-05-05T01:41:41Z</time>
      </trkpt>
      <trkpt lat="50.61271" lon="3.57436">
        <ele>72.5</ele>
        <time>2022-05-05T01:41:41Z</time>
      </trkpt>
      <trkpt lat="50.61265" lon="3.57434">
        <ele>72.2</ele>
        <time>2022-05-05T01:41:42Z</time>
      </trkpt>
      <trkpt lat="50.61259" lon="3.5743">
        <ele>72</ele>
        <time>2022-05-05T01:41:42Z</time>
      </trkpt>
      <trkpt lat="50.61252" lon="3.57429">
        <ele>71.7</ele>
        <time>2022-05-05T01:41:43Z</time>
      </trkpt>
      <trkpt lat="50.61246" lon="3.57427">
        <ele>71.5</ele>
        <time>2022-05-05T01:41:44Z</time>
      </trkpt>
      <trkpt lat="50.6124" lon="3.57421">
        <ele>71.4</ele>
        <time>2022-05-05T01:41:44Z</time>
      </trkpt>
      <trkpt lat="50.61234" lon="3.57415">
        <ele>71.3</ele>
        <time>2022-05-05T01:41:45Z</time>
      </trkpt>
      <trkpt lat="50.61228" lon="3.5741">
        <ele>71.1</ele>
        <time>2022-05-05T01:41:46Z</time>
      </trkpt>
      <trkpt lat="50.61222" lon="3.57409">
        <ele>70.9</ele>
        <time>2022-05-05T01:41:46Z</time>
      </trkpt>
      <trkpt lat="50.61217" lon="3.57406">
        <ele>70.9</ele>
        <time>2022-05-05T01:41:47Z</time>
      </trkpt>
      <trkpt lat="50.61212" lon="3.57401">
        <ele>70.7</ele>
        <time>2022-05-05T01:41:47Z</time>
      </trkpt>
      <trkpt lat="50.61206" lon="3.57395">
        <ele>70.5</ele>
        <time>2022-05-05T01:41:48Z</time>
      </trkpt>
      <trkpt lat="50.61201" lon="3.57391">
        <ele>70.2</ele>
        <time>2022-05-05T01:41:48Z</time>
      </trkpt>
      <trkpt lat="50.61196" lon="3.57391">
        <ele>69.9</ele>
        <time>2022-05-05T01:41:49Z</time>
      </trkpt>
      <trkpt lat="50.6119" lon="3.57391">
        <ele>69.7</ele>
        <time>2022-05-05T01:41:50Z</time>
      </trkpt>
      <trkpt lat="50.61185" lon="3.57388">
        <ele>69.6</ele>
        <time>2022-05-05T01:41:50Z</time>
      </trkpt>
      <trkpt lat="50.6118" lon="3.57383">
        <ele>69.3</ele>
        <time>2022-05-05T01:41:51Z</time>
      </trkpt>
      <trkpt lat="50.61174" lon="3.57379">
        <ele>69</ele>
        <time>2022-05-05T01:41:51Z</time>
      </trkpt>
      <trkpt lat="50.61169" lon="3.57375">
        <ele>68.6</ele>
        <time>2022-05-05T01:41:52Z</time>
      </trkpt>
      <trkpt lat="50.61164" lon="3.57371">
        <ele>67.6</ele>
        <time>2022-05-05T01:41:52Z</time>
      </trkpt>
      <trkpt lat="50.61161" lon="3.57369">
        <ele>66.9</ele>
        <time>2022-05-05T01:41:53Z</time>
      </trkpt>
      <trkpt lat="50.61156" lon="3.57364">
        <ele>66.4</ele>
        <time>2022-05-05T01:41:53Z</time>
      </trkpt>
      <trkpt lat="50.61152" lon="3.57361">
        <ele>65.9</ele>
        <time>2022-05-05T01:41:54Z</time>
      </trkpt>
      <trkpt lat="50.61145" lon="3.57355">
        <ele>65.6</ele>
        <time>2022-05-05T01:41:54Z</time>
      </trkpt>
      <trkpt lat="50.6114" lon="3.57351">
        <ele>65.1</ele>
        <time>2022-05-05T01:41:55Z</time>
      </trkpt>
      <trkpt lat="50.61135" lon="3.57346">
        <ele>64.6</ele>
        <time>2022-05-05T01:41:55Z</time>
      </trkpt>
      <trkpt lat="50.61129" lon="3.57342">
        <ele>64</ele>
        <time>2022-05-05T01:41:56Z</time>
      </trkpt>
      <trkpt lat="50.61126" lon="3.5734">
        <ele>63.4</ele>
        <time>2022-05-05T01:41:56Z</time>
      </trkpt>
      <trkpt lat="50.61119" lon="3.57338">
        <ele>62.8</ele>
        <time>2022-05-05T01:41:57Z</time>
      </trkpt>
      <trkpt lat="50.61114" lon="3.57337">
        <ele>62.3</ele>
        <time>2022-05-05T01:41:58Z</time>
      </trkpt>
      <trkpt lat="50.61108" lon="3.57335">
        <ele>61.7</ele>
        <time>2022-05-05T01:41:58Z</time>
      </trkpt>
      <trkpt lat="50.61102" lon="3.57331">
        <ele>61.2</ele>
        <time>2022-05-05T01:41:59Z</time>
      </trkpt>
      <trkpt lat="50.61096" lon="3.57325">
        <ele>60.6</ele>
        <time>2022-05-05T01:41:59Z</time>
      </trkpt>
      <trkpt lat="50.6109" lon="3.5732">
        <ele>59.9</ele>
        <time>2022-05-05T01:42:00Z</time>
      </trkpt>
      <trkpt lat="50.61085" lon="3.57315">
        <ele>59.2</ele>
        <time>2022-05-05T01:42:01Z</time>
      </trkpt>
      <trkpt lat="50.61079" lon="3.5731">
        <ele>58.4</ele>
        <time>2022-05-05T01:42:01Z</time>
      </trkpt>
      <trkpt lat="50.61074" lon="3.57307">
        <ele>57.7</ele>
        <time>2022-05-05T01:42:02Z</time>
      </trkpt>
      <trkpt lat="50.61069" lon="3.57304">
        <ele>57.1</ele>
        <time>2022-05-05T01:42:02Z</time>
      </trkpt>
      <trkpt lat="50.61065" lon="3.57302">
        <ele>56.6</ele>
        <time>2022-05-05T01:42:03Z</time>
      </trkpt>
      <trkpt lat="50.6106" lon="3.573">
        <ele>56.2</ele>
        <time>2022-05-05T01:42:03Z</time>
      </trkpt>
      <trkpt lat="50.61057" lon="3.57299">
        <ele>55.8</ele>
        <time>2022-05-05T01:42:03Z</time>
      </trkpt>
      <trkpt lat="50.61053" lon="3.57297">
        <ele>55.5</ele>
        <time>2022-05-05T01:42:04Z</time>
      </trkpt>
      <trkpt lat="50.6105" lon="3.57295">
        <ele>55.2</ele>
        <time>2022-05-05T01:42:04Z</time>
      </trkpt>
      <trkpt lat="50.61047" lon="3.57294">
        <ele>54.8</ele>
        <time>2022-05-05T01:42:05Z</time>
      </trkpt>
      <trkpt lat="50.61043" lon="3.57292">
        <ele>54.5</ele>
        <time>2022-05-05T01:42:05Z</time>
      </trkpt>
      <trkpt lat="50.61038" lon="3.57291">
        <ele>54.2</ele>
        <time>2022-05-05T01:42:05Z</time>
      </trkpt>
      <trkpt lat="50.61036" lon="3.57288">
        <ele>53.9</ele>
        <time>2022-05-05T01:42:06Z</time>
      </trkpt>
      <trkpt lat="50.61034" lon="3.57287">
        <ele>53.6</ele>
        <time>2022-05-05T01:42:06Z</time>
      </trkpt>
      <trkpt lat="50.61033" lon="3.57286">
        <ele>53.4</ele>
        <time>2022-05-05T01:42:06Z</time>
      </trkpt>
      <trkpt lat="50.6103" lon="3.57283">
        <ele>53.2</ele>
        <time>2022-05-05T01:42:06Z</time>
      </trkpt>
      <trkpt lat="50.61028" lon="3.5728">
        <ele>53</ele>
        <time>2022-05-05T01:42:07Z</time>
      </trkpt>
      <trkpt lat="50.61026" lon="3.5728">
        <ele>52.8</ele>
        <time>2022-05-05T01:42:07Z</time>
      </trkpt>
      <trkpt lat="50.61025" lon="3.5728">
        <ele>52.6</ele>
        <time>2022-05-05T01:42:07Z</time>
      </trkpt>
      <trkpt lat="50.61024" lon="3.5728">
        <ele>52.5</ele>
        <time>2022-05-05T01:42:07Z</time>
      </trkpt>
      <trkpt lat="50.61024" lon="3.57279">
        <ele>52.4</ele>
        <time>2022-05-05T01:42:07Z</time>
      </trkpt>
      <trkpt lat="50.61021" lon="3.57277">
        <ele>52.3</ele>
        <time>2022-05-05T01:42:07Z</time>
      </trkpt>
      <trkpt lat="50.61018" lon="3.57278">
        <ele>52.2</ele>
        <time>2022-05-05T01:42:08Z</time>
      </trkpt>
      <trkpt lat="50.61014" lon="3.57275">
        <ele>52.1</ele>
        <time>2022-05-05T01:42:08Z</time>
      </trkpt>
      <trkpt lat="50.6101" lon="3.57272">
        <ele>51.7</ele>
        <time>2022-05-05T01:42:08Z</time>
      </trkpt>
      <trkpt lat="50.61005" lon="3.57268">
        <ele>51.4</ele>
        <time>2022-05-05T01:42:09Z</time>
      </trkpt>
      <trkpt lat="50.61001" lon="3.57262">
        <ele>51.2</ele>
        <time>2022-05-05T01:42:09Z</time>
      </trkpt>
      <trkpt lat="50.60998" lon="3.57257">
        <ele>50.8</ele>
        <time>2022-05-05T01:42:10Z</time>
      </trkpt>
      <trkpt lat="50.60994" lon="3.5725">
        <ele>50.6</ele>
        <time>2022-05-05T01:42:10Z</time>
      </trkpt>
      <trkpt lat="50.60993" lon="3.57242">
        <ele>50.4</ele>
        <time>2022-05-05T01:42:11Z</time>
      </trkpt>
      <trkpt lat="50.60991" lon="3.57234">
        <ele>50.3</ele>
        <time>2022-05-05T01:42:11Z</time>
      </trkpt>
      <trkpt lat="50.60989" lon="3.57223">
        <ele>50.3</ele>
        <time>2022-05-05T01:42:12Z</time>
      </trkpt>
      <trkpt lat="50.60986" lon="3.57218">
        <ele>50.3</ele>
        <time>2022-05-05T01:42:13Z</time>
      </trkpt>
      <trkpt lat="50.60983" lon="3.57208">
        <ele>50.3</ele>
        <time>2022-05-05T01:42:13Z</time>
      </trkpt>
      <trkpt lat="50.60979" lon="3.57199">
        <ele>50.3</ele>
        <time>2022-05-05T01:42:14Z</time>
      </trkpt>
      <trkpt lat="50.60975" lon="3.57189">
        <ele>50.3</ele>
        <time>2022-05-05T01:42:15Z</time>
      </trkpt>
      <trkpt lat="50.60971" lon="3.57179">
        <ele>50.5</ele>
        <time>2022-05-05T01:42:15Z</time>
      </trkpt>
      <trkpt lat="50.60968" lon="3.57171">
        <ele>50.9</ele>
        <time>2022-05-05T01:42:16Z</time>
      </trkpt>
      <trkpt lat="50.60964" lon="3.57162">
        <ele>51.2</ele>
        <time>2022-05-05T01:42:17Z</time>
      </trkpt>
      <trkpt lat="50.60961" lon="3.57149">
        <ele>51.5</ele>
        <time>2022-05-05T01:42:17Z</time>
      </trkpt>
      <trkpt lat="50.60957" lon="3.57137">
        <ele>51.9</ele>
        <time>2022-05-05T01:42:18Z</time>
      </trkpt>
      <trkpt lat="50.60951" lon="3.57123">
        <ele>52.4</ele>
        <time>2022-05-05T01:42:19Z</time>
      </trkpt>
      <trkpt lat="50.60945" lon="3.5711">
        <ele>52.9</ele>
        <time>2022-05-05T01:42:20Z</time>
      </trkpt>
      <trkpt lat="50.60942" lon="3.57094">
        <ele>53.2</ele>
        <time>2022-05-05T01:42:21Z</time>
      </trkpt>
      <trkpt lat="50.60937" lon="3.5708">
        <ele>53.4</ele>
        <time>2022-05-05T01:42:22Z</time>
      </trkpt>
      <trkpt lat="50.60932" lon="3.57067">
        <ele>53.7</ele>
        <time>2022-05-05T01:42:23Z</time>
      </trkpt>
      <trkpt lat="50.60928" lon="3.57055">
        <ele>54</ele>
        <time>2022-05-05T01:42:24Z</time>
      </trkpt>
      <trkpt lat="50.60924" lon="3.57043">
        <ele>54.3</ele>
        <time>2022-05-05T01:42:25Z</time>
      </trkpt>
      <trkpt lat="50.6092" lon="3.57033">
        <ele>54.4</ele>
        <time>2022-05-05T01:42:25Z</time>
      </trkpt>
      <trkpt lat="50.60917" lon="3.57024">
        <ele>54.4</ele>
        <time>2022-05-05T01:42:26Z</time>
      </trkpt>
      <trkpt lat="50.60915" lon="3.57017">
        <ele>54.4</ele>
        <time>2022-05-05T01:42:26Z</time>
      </trkpt>
      <trkpt lat="50.60913" lon="3.57011">
        <ele>54.4</ele>
        <time>2022-05-05T01:42:27Z</time>
      </trkpt>
      <trkpt lat="50.60911" lon="3.57005">
        <ele>54.3</ele>
        <time>2022-05-05T01:42:27Z</time>
      </trkpt>
      <trkpt lat="50.6091" lon="3.56999">
        <ele>54.3</ele>
        <time>2022-05-05T01:42:28Z</time>
      </trkpt>
      <trkpt lat="50.60908" lon="3.56994">
        <ele>54.2</ele>
        <time>2022-05-05T01:42:28Z</time>
      </trkpt>
      <trkpt lat="50.60907" lon="3.56989">
        <ele>54.2</ele>
        <time>2022-05-05T01:42:28Z</time>
      </trkpt>
      <trkpt lat="50.60906" lon="3.56985">
        <ele>54.2</ele>
        <time>2022-05-05T01:42:29Z</time>
      </trkpt>
      <trkpt lat="50.60905" lon="3.56982">
        <ele>54.2</ele>
        <time>2022-05-05T01:42:29Z</time>
      </trkpt>
      <trkpt lat="50.60903" lon="3.56982">
        <ele>54.3</ele>
        <time>2022-05-05T01:42:29Z</time>
      </trkpt>
      <trkpt lat="50.60902" lon="3.56982">
        <ele>54.2</ele>
        <time>2022-05-05T01:42:29Z</time>
      </trkpt>
      <trkpt lat="50.60902" lon="3.56986">
        <ele>54.2</ele>
        <time>2022-05-05T01:42:29Z</time>
      </trkpt>
      <trkpt lat="50.60902" lon="3.56989">
        <ele>54.1</ele>
        <time>2022-05-05T01:42:29Z</time>
      </trkpt>
      <trkpt lat="50.60899" lon="3.56996">
        <ele>54.1</ele>
        <time>2022-05-05T01:42:30Z</time>
      </trkpt>
      <trkpt lat="50.60893" lon="3.57005">
        <ele>54</ele>
        <time>2022-05-05T01:42:31Z</time>
      </trkpt>
      <trkpt lat="50.60883" lon="3.57013">
        <ele>53.8</ele>
        <time>2022-05-05T01:42:32Z</time>
      </trkpt>
      <trkpt lat="50.60875" lon="3.57025">
        <ele>53.6</ele>
        <time>2022-05-05T01:42:33Z</time>
      </trkpt>
      <trkpt lat="50.60866" lon="3.57037">
        <ele>53.3</ele>
        <time>2022-05-05T01:42:34Z</time>
      </trkpt>
      <trkpt lat="50.60857" lon="3.57049">
        <ele>53</ele>
        <time>2022-05-05T01:42:35Z</time>
      </trkpt>
      <trkpt lat="50.60848" lon="3.57061">
        <ele>52.7</ele>
        <time>2022-05-05T01:42:36Z</time>
      </trkpt>
      <trkpt lat="50.60838" lon="3.57072">
        <ele>52.4</ele>
        <time>2022-05-05T01:42:37Z</time>
      </trkpt>
      <trkpt lat="50.60828" lon="3.57085">
        <ele>52.1</ele>
        <time>2022-05-05T01:42:39Z</time>
      </trkpt>
      <trkpt lat="50.60818" lon="3.57099">
        <ele>51.8</ele>
        <time>2022-05-05T01:42:40Z</time>
      </trkpt>
      <trkpt lat="50.60808" lon="3.57114">
        <ele>51.8</ele>
        <time>2022-05-05T01:42:41Z</time>
      </trkpt>
      <trkpt lat="50.608" lon="3.5713">
        <ele>51.9</ele>
        <time>2022-05-05T01:42:43Z</time>
      </trkpt>
      <trkpt lat="50.6079" lon="3.57142">
        <ele>52.1</ele>
        <time>2022-05-05T01:42:44Z</time>
      </trkpt>
      <trkpt lat="50.60782" lon="3.57152">
        <ele>52.4</ele>
        <time>2022-05-05T01:42:45Z</time>
      </trkpt>
      <trkpt lat="50.60774" lon="3.57161">
        <ele>52.8</ele>
        <time>2022-05-05T01:42:46Z</time>
      </trkpt>
      <trkpt lat="50.60769" lon="3.57173">
        <ele>53.4</ele>
        <time>2022-05-05T01:42:46Z</time>
      </trkpt>
      <trkpt lat="50.60764" lon="3.57188">
        <ele>54</ele>
        <time>2022-05-05T01:42:47Z</time>
      </trkpt>
      <trkpt lat="50.6076" lon="3.57206">
        <ele>54.5</ele>
        <time>2022-05-05T01:42:49Z</time>
      </trkpt>
      <trkpt lat="50.60757" lon="3.57225">
        <ele>54.9</ele>
        <time>2022-05-05T01:42:50Z</time>
      </trkpt>
      <trkpt lat="50.60755" lon="3.57246">
        <ele>55.2</ele>
        <time>2022-05-05T01:42:51Z</time>
      </trkpt>
      <trkpt lat="50.60755" lon="3.57266">
        <ele>55.5</ele>
        <time>2022-05-05T01:42:52Z</time>
      </trkpt>
      <trkpt lat="50.60754" lon="3.57286">
        <ele>55.7</ele>
        <time>2022-05-05T01:42:54Z</time>
      </trkpt>
      <trkpt lat="50.60755" lon="3.57307">
        <ele>55.8</ele>
        <time>2022-05-05T01:42:55Z</time>
      </trkpt>
      <trkpt lat="50.60752" lon="3.57325">
        <ele>56</ele>
        <time>2022-05-05T01:42:56Z</time>
      </trkpt>
      <trkpt lat="50.60748" lon="3.57344">
        <ele>56.1</ele>
        <time>2022-05-05T01:42:57Z</time>
      </trkpt>
      <trkpt lat="50.60743" lon="3.57363">
        <ele>56.1</ele>
        <time>2022-05-05T01:42:58Z</time>
      </trkpt>
      <trkpt lat="50.60735" lon="3.5738">
        <ele>55.9</ele>
        <time>2022-05-05T01:43:00Z</time>
      </trkpt>
      <trkpt lat="50.60728" lon="3.57397">
        <ele>55.9</ele>
        <time>2022-05-05T01:43:01Z</time>
      </trkpt>
      <trkpt lat="50.60721" lon="3.57414">
        <ele>55.9</ele>
        <time>2022-05-05T01:43:02Z</time>
      </trkpt>
      <trkpt lat="50.60715" lon="3.5743">
        <ele>55.7</ele>
        <time>2022-05-05T01:43:03Z</time>
      </trkpt>
      <trkpt lat="50.60709" lon="3.57446">
        <ele>55.5</ele>
        <time>2022-05-05T01:43:04Z</time>
      </trkpt>
      <trkpt lat="50.60704" lon="3.57463">
        <ele>55.2</ele>
        <time>2022-05-05T01:43:05Z</time>
      </trkpt>
      <trkpt lat="50.60697" lon="3.57478">
        <ele>54.9</ele>
        <time>2022-05-05T01:43:07Z</time>
      </trkpt>
      <trkpt lat="50.6069" lon="3.57492">
        <ele>54.6</ele>
        <time>2022-05-05T01:43:08Z</time>
      </trkpt>
      <trkpt lat="50.60682" lon="3.57506">
        <ele>54.3</ele>
        <time>2022-05-05T01:43:09Z</time>
      </trkpt>
      <trkpt lat="50.60675" lon="3.5752">
        <ele>54</ele>
        <time>2022-05-05T01:43:10Z</time>
      </trkpt>
      <trkpt lat="50.6067" lon="3.57534">
        <ele>53.8</ele>
        <time>2022-05-05T01:43:11Z</time>
      </trkpt>
      <trkpt lat="50.60664" lon="3.57548">
        <ele>53.6</ele>
        <time>2022-05-05T01:43:12Z</time>
      </trkpt>
      <trkpt lat="50.60658" lon="3.57562">
        <ele>53.5</ele>
        <time>2022-05-05T01:43:13Z</time>
      </trkpt>
      <trkpt lat="50.60652" lon="3.57575">
        <ele>53.5</ele>
        <time>2022-05-05T01:43:14Z</time>
      </trkpt>
      <trkpt lat="50.60646" lon="3.5759">
        <ele>53.5</ele>
        <time>2022-05-05T01:43:15Z</time>
      </trkpt>
      <trkpt lat="50.60639" lon="3.57606">
        <ele>53.6</ele>
        <time>2022-05-05T01:43:16Z</time>
      </trkpt>
      <trkpt lat="50.60632" lon="3.57622">
        <ele>53.6</ele>
        <time>2022-05-05T01:43:17Z</time>
      </trkpt>
      <trkpt lat="50.60625" lon="3.57639">
        <ele>53.7</ele>
        <time>2022-05-05T01:43:18Z</time>
      </trkpt>
      <trkpt lat="50.60619" lon="3.57657">
        <ele>53.9</ele>
        <time>2022-05-05T01:43:20Z</time>
      </trkpt>
      <trkpt lat="50.60613" lon="3.57676">
        <ele>54.2</ele>
        <time>2022-05-05T01:43:21Z</time>
      </trkpt>
      <trkpt lat="50.60608" lon="3.57696">
        <ele>54.4</ele>
        <time>2022-05-05T01:43:22Z</time>
      </trkpt>
      <trkpt lat="50.60603" lon="3.57715">
        <ele>54.5</ele>
        <time>2022-05-05T01:43:24Z</time>
      </trkpt>
      <trkpt lat="50.60597" lon="3.57733">
        <ele>54.4</ele>
        <time>2022-05-05T01:43:25Z</time>
      </trkpt>
      <trkpt lat="50.60594" lon="3.57749">
        <ele>54.4</ele>
        <time>2022-05-05T01:43:26Z</time>
      </trkpt>
      <trkpt lat="50.60591" lon="3.57764">
        <ele>54.4</ele>
        <time>2022-05-05T01:43:27Z</time>
      </trkpt>
      <trkpt lat="50.60586" lon="3.57775">
        <ele>54.4</ele>
        <time>2022-05-05T01:43:28Z</time>
      </trkpt>
      <trkpt lat="50.6058" lon="3.57784">
        <ele>54.4</ele>
        <time>2022-05-05T01:43:28Z</time>
      </trkpt>
      <trkpt lat="50.60572" lon="3.57789">
        <ele>54.3</ele>
        <time>2022-05-05T01:43:29Z</time>
      </trkpt>
      <trkpt lat="50.60561" lon="3.57792">
        <ele>54.3</ele>
        <time>2022-05-05T01:43:30Z</time>
      </trkpt>
      <trkpt lat="50.60551" lon="3.57803">
        <ele>54.4</ele>
        <time>2022-05-05T01:43:31Z</time>
      </trkpt>
      <trkpt lat="50.6054" lon="3.5781">
        <ele>54.4</ele>
        <time>2022-05-05T01:43:32Z</time>
      </trkpt>
      <trkpt lat="50.60527" lon="3.57814">
        <ele>54.4</ele>
        <time>2022-05-05T01:43:34Z</time>
      </trkpt>
      <trkpt lat="50.60514" lon="3.5782">
        <ele>54.4</ele>
        <time>2022-05-05T01:43:35Z</time>
      </trkpt>
      <trkpt lat="50.60503" lon="3.57834">
        <ele>54.3</ele>
        <time>2022-05-05T01:43:36Z</time>
      </trkpt>
      <trkpt lat="50.60491" lon="3.57846">
        <ele>54</ele>
        <time>2022-05-05T01:43:38Z</time>
      </trkpt>
      <trkpt lat="50.60478" lon="3.57855">
        <ele>53.7</ele>
        <time>2022-05-05T01:43:39Z</time>
      </trkpt>
      <trkpt lat="50.60465" lon="3.57865">
        <ele>53.4</ele>
        <time>2022-05-05T01:43:40Z</time>
      </trkpt>
      <trkpt lat="50.60452" lon="3.57876">
        <ele>52.9</ele>
        <time>2022-05-05T01:43:42Z</time>
      </trkpt>
      <trkpt lat="50.60439" lon="3.57886">
        <ele>52.2</ele>
        <time>2022-05-05T01:43:43Z</time>
      </trkpt>
      <trkpt lat="50.60427" lon="3.57898">
        <ele>51.6</ele>
        <time>2022-05-05T01:43:45Z</time>
      </trkpt>
      <trkpt lat="50.60417" lon="3.5791">
        <ele>51</ele>
        <time>2022-05-05T01:43:46Z</time>
      </trkpt>
      <trkpt lat="50.60407" lon="3.57921">
        <ele>50.5</ele>
        <time>2022-05-05T01:43:47Z</time>
      </trkpt>
      <trkpt lat="50.60398" lon="3.57932">
        <ele>50</ele>
        <time>2022-05-05T01:43:48Z</time>
      </trkpt>
      <trkpt lat="50.60389" lon="3.57943">
        <ele>49.6</ele>
        <time>2022-05-05T01:43:49Z</time>
      </trkpt>
      <trkpt lat="50.60379" lon="3.57955">
        <ele>49.2</ele>
        <time>2022-05-05T01:43:50Z</time>
      </trkpt>
      <trkpt lat="50.60369" lon="3.57969">
        <ele>48.8</ele>
        <time>2022-05-05T01:43:52Z</time>
      </trkpt>
      <trkpt lat="50.60359" lon="3.57984">
        <ele>48.5</ele>
        <time>2022-05-05T01:43:53Z</time>
      </trkpt>
      <trkpt lat="50.60348" lon="3.57997">
        <ele>48.3</ele>
        <time>2022-05-05T01:43:54Z</time>
      </trkpt>
      <trkpt lat="50.60337" lon="3.5801">
        <ele>48</ele>
        <time>2022-05-05T01:43:55Z</time>
      </trkpt>
      <trkpt lat="50.60326" lon="3.58022">
        <ele>47.8</ele>
        <time>2022-05-05T01:43:57Z</time>
      </trkpt>
      <trkpt lat="50.60314" lon="3.58032">
        <ele>47.6</ele>
        <time>2022-05-05T01:43:58Z</time>
      </trkpt>
      <trkpt lat="50.60303" lon="3.58041">
        <ele>47.5</ele>
        <time>2022-05-05T01:43:59Z</time>
      </trkpt>
      <trkpt lat="50.60293" lon="3.5805">
        <ele>47.4</ele>
        <time>2022-05-05T01:44:00Z</time>
      </trkpt>
      <trkpt lat="50.60283" lon="3.58059">
        <ele>47.4</ele>
        <time>2022-05-05T01:44:01Z</time>
      </trkpt>
      <trkpt lat="50.60274" lon="3.58068">
        <ele>47.4</ele>
        <time>2022-05-05T01:44:02Z</time>
      </trkpt>
      <trkpt lat="50.60265" lon="3.58075">
        <ele>47.4</ele>
        <time>2022-05-05T01:44:03Z</time>
      </trkpt>
      <trkpt lat="50.60255" lon="3.58082">
        <ele>47.4</ele>
        <time>2022-05-05T01:44:04Z</time>
      </trkpt>
      <trkpt lat="50.60245" lon="3.58088">
        <ele>47.4</ele>
        <time>2022-05-05T01:44:05Z</time>
      </trkpt>
      <trkpt lat="50.60236" lon="3.58092">
        <ele>47.3</ele>
        <time>2022-05-05T01:44:06Z</time>
      </trkpt>
      <trkpt lat="50.60228" lon="3.58095">
        <ele>47.3</ele>
        <time>2022-05-05T01:44:07Z</time>
      </trkpt>
      <trkpt lat="50.60221" lon="3.58098">
        <ele>47.3</ele>
        <time>2022-05-05T01:44:08Z</time>
      </trkpt>
      <trkpt lat="50.60215" lon="3.58099">
        <ele>47.3</ele>
        <time>2022-05-05T01:44:08Z</time>
      </trkpt>
      <trkpt lat="50.6021" lon="3.581">
        <ele>47.3</ele>
        <time>2022-05-05T01:44:09Z</time>
      </trkpt>
      <trkpt lat="50.60204" lon="3.58101">
        <ele>47.3</ele>
        <time>2022-05-05T01:44:09Z</time>
      </trkpt>
      <trkpt lat="50.60199" lon="3.58102">
        <ele>47.3</ele>
        <time>2022-05-05T01:44:10Z</time>
      </trkpt>
      <trkpt lat="50.60195" lon="3.58103">
        <ele>47.3</ele>
        <time>2022-05-05T01:44:10Z</time>
      </trkpt>
      <trkpt lat="50.60192" lon="3.58101">
        <ele>47.3</ele>
        <time>2022-05-05T01:44:11Z</time>
      </trkpt>
      <trkpt lat="50.60189" lon="3.58095">
        <ele>47.3</ele>
        <time>2022-05-05T01:44:11Z</time>
      </trkpt>
      <trkpt lat="50.60187" lon="3.58088">
        <ele>47.3</ele>
        <time>2022-05-05T01:44:12Z</time>
      </trkpt>
      <trkpt lat="50.60185" lon="3.58082">
        <ele>47.3</ele>
        <time>2022-05-05T01:44:12Z</time>
      </trkpt>
      <trkpt lat="50.60181" lon="3.58078">
        <ele>47.3</ele>
        <time>2022-05-05T01:44:12Z</time>
      </trkpt>
      <trkpt lat="50.60175" lon="3.58076">
        <ele>47.4</ele>
        <time>2022-05-05T01:44:13Z</time>
      </trkpt>
      <trkpt lat="50.60169" lon="3.58074">
        <ele>47.4</ele>
        <time>2022-05-05T01:44:14Z</time>
      </trkpt>
      <trkpt lat="50.60162" lon="3.58072">
        <ele>47.5</ele>
        <time>2022-05-05T01:44:14Z</time>
      </trkpt>
      <trkpt lat="50.60156" lon="3.58071">
        <ele>47.6</ele>
        <time>2022-05-05T01:44:15Z</time>
      </trkpt>
      <trkpt lat="50.6015" lon="3.5807">
        <ele>47.7</ele>
        <time>2022-05-05T01:44:15Z</time>
      </trkpt>
      <trkpt lat="50.60144" lon="3.5807">
        <ele>47.7</ele>
        <time>2022-05-05T01:44:16Z</time>
      </trkpt>
      <trkpt lat="50.60138" lon="3.58071">
        <ele>47.8</ele>
        <time>2022-05-05T01:44:17Z</time>
      </trkpt>
      <trkpt lat="50.60133" lon="3.58072">
        <ele>47.8</ele>
        <time>2022-05-05T01:44:17Z</time>
      </trkpt>
      <trkpt lat="50.60126" lon="3.58071">
        <ele>47.8</ele>
        <time>2022-05-05T01:44:18Z</time>
      </trkpt>
      <trkpt lat="50.60119" lon="3.58072">
        <ele>47.9</ele>
        <time>2022-05-05T01:44:18Z</time>
      </trkpt>
      <trkpt lat="50.60112" lon="3.58074">
        <ele>48</ele>
        <time>2022-05-05T01:44:19Z</time>
      </trkpt>
      <trkpt lat="50.60105" lon="3.58075">
        <ele>48.1</ele>
        <time>2022-05-05T01:44:20Z</time>
      </trkpt>
      <trkpt lat="50.60098" lon="3.58076">
        <ele>48.2</ele>
        <time>2022-05-05T01:44:20Z</time>
      </trkpt>
      <trkpt lat="50.60091" lon="3.58076">
        <ele>48.3</ele>
        <time>2022-05-05T01:44:21Z</time>
      </trkpt>
      <trkpt lat="50.60086" lon="3.58076">
        <ele>48.3</ele>
        <time>2022-05-05T01:44:22Z</time>
      </trkpt>
      <trkpt lat="50.60081" lon="3.58077">
        <ele>48.3</ele>
        <time>2022-05-05T01:44:22Z</time>
      </trkpt>
      <trkpt lat="50.60076" lon="3.58079">
        <ele>48.3</ele>
        <time>2022-05-05T01:44:22Z</time>
      </trkpt>
      <trkpt lat="50.60072" lon="3.58081">
        <ele>48.2</ele>
        <time>2022-05-05T01:44:23Z</time>
      </trkpt>
      <trkpt lat="50.60068" lon="3.58079">
        <ele>48.1</ele>
        <time>2022-05-05T01:44:23Z</time>
      </trkpt>
      <trkpt lat="50.60064" lon="3.58077">
        <ele>48</ele>
        <time>2022-05-05T01:44:24Z</time>
      </trkpt>
      <trkpt lat="50.60062" lon="3.58073">
        <ele>48</ele>
        <time>2022-05-05T01:44:24Z</time>
      </trkpt>
      <trkpt lat="50.6006" lon="3.58068">
        <ele>47.9</ele>
        <time>2022-05-05T01:44:24Z</time>
      </trkpt>
      <trkpt lat="50.60058" lon="3.58063">
        <ele>47.9</ele>
        <time>2022-05-05T01:44:25Z</time>
      </trkpt>
      <trkpt lat="50.60056" lon="3.58059">
        <ele>48</ele>
        <time>2022-05-05T01:44:25Z</time>
      </trkpt>
      <trkpt lat="50.60053" lon="3.58054">
        <ele>48.1</ele>
        <time>2022-05-05T01:44:25Z</time>
      </trkpt>
      <trkpt lat="50.6005" lon="3.58048">
        <ele>48.2</ele>
        <time>2022-05-05T01:44:26Z</time>
      </trkpt>
      <trkpt lat="50.60046" lon="3.58042">
        <ele>48.2</ele>
        <time>2022-05-05T01:44:26Z</time>
      </trkpt>
      <trkpt lat="50.60042" lon="3.58034">
        <ele>48.3</ele>
        <time>2022-05-05T01:44:27Z</time>
      </trkpt>
      <trkpt lat="50.60037" lon="3.58025">
        <ele>48.3</ele>
        <time>2022-05-05T01:44:28Z</time>
      </trkpt>
      <trkpt lat="50.60032" lon="3.58018">
        <ele>48.3</ele>
        <time>2022-05-05T01:44:28Z</time>
      </trkpt>
      <trkpt lat="50.60028" lon="3.5801">
        <ele>48.3</ele>
        <time>2022-05-05T01:44:29Z</time>
      </trkpt>
      <trkpt lat="50.60024" lon="3.58004">
        <ele>48.3</ele>
        <time>2022-05-05T01:44:30Z</time>
      </trkpt>
      <trkpt lat="50.60019" lon="3.57996">
        <ele>48.4</ele>
        <time>2022-05-05T01:44:30Z</time>
      </trkpt>
      <trkpt lat="50.60014" lon="3.57989">
        <ele>48.5</ele>
        <time>2022-05-05T01:44:31Z</time>
      </trkpt>
      <trkpt lat="50.60009" lon="3.57981">
        <ele>48.6</ele>
        <time>2022-05-05T01:44:31Z</time>
      </trkpt>
      <trkpt lat="50.60005" lon="3.57975">
        <ele>48.8</ele>
        <time>2022-05-05T01:44:32Z</time>
      </trkpt>
      <trkpt lat="50.60001" lon="3.5797">
        <ele>48.9</ele>
        <time>2022-05-05T01:44:33Z</time>
      </trkpt>
      <trkpt lat="50.59997" lon="3.57968">
        <ele>49.1</ele>
        <time>2022-05-05T01:44:33Z</time>
      </trkpt>
      <trkpt lat="50.59995" lon="3.57965">
        <ele>49.2</ele>
        <time>2022-05-05T01:44:33Z</time>
      </trkpt>
      <trkpt lat="50.59993" lon="3.57963">
        <ele>49.2</ele>
        <time>2022-05-05T01:44:33Z</time>
      </trkpt>
      <trkpt lat="50.59992" lon="3.57959">
        <ele>49.3</ele>
        <time>2022-05-05T01:44:34Z</time>
      </trkpt>
      <trkpt lat="50.5999" lon="3.57954">
        <ele>49.3</ele>
        <time>2022-05-05T01:44:34Z</time>
      </trkpt>
      <trkpt lat="50.59988" lon="3.57948">
        <ele>49.3</ele>
        <time>2022-05-05T01:44:34Z</time>
      </trkpt>
      <trkpt lat="50.59985" lon="3.57942">
        <ele>49.3</ele>
        <time>2022-05-05T01:44:35Z</time>
      </trkpt>
      <trkpt lat="50.59984" lon="3.57936">
        <ele>49.4</ele>
        <time>2022-05-05T01:44:35Z</time>
      </trkpt>
      <trkpt lat="50.59981" lon="3.57929">
        <ele>49.5</ele>
        <time>2022-05-05T01:44:36Z</time>
      </trkpt>
      <trkpt lat="50.5998" lon="3.5792">
        <ele>49.6</ele>
        <time>2022-05-05T01:44:36Z</time>
      </trkpt>
      <trkpt lat="50.59978" lon="3.57911">
        <ele>49.8</ele>
        <time>2022-05-05T01:44:37Z</time>
      </trkpt>
      <trkpt lat="50.59976" lon="3.57903">
        <ele>50</ele>
        <time>2022-05-05T01:44:37Z</time>
      </trkpt>
      <trkpt lat="50.59973" lon="3.57895">
        <ele>50</ele>
        <time>2022-05-05T01:44:38Z</time>
      </trkpt>
      <trkpt lat="50.59971" lon="3.57887">
        <ele>49.8</ele>
        <time>2022-05-05T01:44:38Z</time>
      </trkpt>
      <trkpt lat="50.59969" lon="3.5788">
        <ele>49.7</ele>
        <time>2022-05-05T01:44:39Z</time>
      </trkpt>
      <trkpt lat="50.59967" lon="3.57873">
        <ele>49.5</ele>
        <time>2022-05-05T01:44:39Z</time>
      </trkpt>
      <trkpt lat="50.59966" lon="3.57866">
        <ele>49.5</ele>
        <time>2022-05-05T01:44:40Z</time>
      </trkpt>
      <trkpt lat="50.59965" lon="3.57858">
        <ele>49.4</ele>
        <time>2022-05-05T01:44:40Z</time>
      </trkpt>
      <trkpt lat="50.59964" lon="3.57849">
        <ele>49.4</ele>
        <time>2022-05-05T01:44:41Z</time>
      </trkpt>
      <trkpt lat="50.59965" lon="3.5784">
        <ele>49.4</ele>
        <time>2022-05-05T01:44:41Z</time>
      </trkpt>
      <trkpt lat="50.59966" lon="3.5783">
        <ele>49.4</ele>
        <time>2022-05-05T01:44:42Z</time>
      </trkpt>
      <trkpt lat="50.59969" lon="3.5782">
        <ele>49.4</ele>
        <time>2022-05-05T01:44:43Z</time>
      </trkpt>
      <trkpt lat="50.59972" lon="3.57812">
        <ele>49.5</ele>
        <time>2022-05-05T01:44:43Z</time>
      </trkpt>
      <trkpt lat="50.59973" lon="3.57804">
        <ele>49.7</ele>
        <time>2022-05-05T01:44:44Z</time>
      </trkpt>
      <trkpt lat="50.59972" lon="3.57796">
        <ele>50</ele>
        <time>2022-05-05T01:44:44Z</time>
      </trkpt>
      <trkpt lat="50.59971" lon="3.57788">
        <ele>50.1</ele>
        <time>2022-05-05T01:44:45Z</time>
      </trkpt>
      <trkpt lat="50.59968" lon="3.57779">
        <ele>50.2</ele>
        <time>2022-05-05T01:44:45Z</time>
      </trkpt>
      <trkpt lat="50.59965" lon="3.57769">
        <ele>50.3</ele>
        <time>2022-05-05T01:44:46Z</time>
      </trkpt>
      <trkpt lat="50.59961" lon="3.57759">
        <ele>50.3</ele>
        <time>2022-05-05T01:44:47Z</time>
      </trkpt>
      <trkpt lat="50.59958" lon="3.57749">
        <ele>50.3</ele>
        <time>2022-05-05T01:44:47Z</time>
      </trkpt>
      <trkpt lat="50.59955" lon="3.5774">
        <ele>50.3</ele>
        <time>2022-05-05T01:44:48Z</time>
      </trkpt>
      <trkpt lat="50.59952" lon="3.5773">
        <ele>50.5</ele>
        <time>2022-05-05T01:44:49Z</time>
      </trkpt>
      <trkpt lat="50.59948" lon="3.57718">
        <ele>50.7</ele>
        <time>2022-05-05T01:44:49Z</time>
      </trkpt>
      <trkpt lat="50.59943" lon="3.57706">
        <ele>51</ele>
        <time>2022-05-05T01:44:50Z</time>
      </trkpt>
      <trkpt lat="50.5994" lon="3.57693">
        <ele>51.3</ele>
        <time>2022-05-05T01:44:51Z</time>
      </trkpt>
      <trkpt lat="50.59936" lon="3.5768">
        <ele>51.7</ele>
        <time>2022-05-05T01:44:52Z</time>
      </trkpt>
      <trkpt lat="50.59933" lon="3.57666">
        <ele>52.1</ele>
        <time>2022-05-05T01:44:53Z</time>
      </trkpt>
      <trkpt lat="50.5993" lon="3.57652">
        <ele>52.4</ele>
        <time>2022-05-05T01:44:54Z</time>
      </trkpt>
      <trkpt lat="50.59927" lon="3.57636">
        <ele>52.6</ele>
        <time>2022-05-05T01:44:55Z</time>
      </trkpt>
      <trkpt lat="50.59925" lon="3.5762">
        <ele>52.9</ele>
        <time>2022-05-05T01:44:56Z</time>
      </trkpt>
      <trkpt lat="50.59923" lon="3.57605">
        <ele>53.1</ele>
        <time>2022-05-05T01:44:57Z</time>
      </trkpt>
      <trkpt lat="50.59922" lon="3.57591">
        <ele>53.2</ele>
        <time>2022-05-05T01:44:58Z</time>
      </trkpt>
      <trkpt lat="50.5992" lon="3.57577">
        <ele>53.3</ele>
        <time>2022-05-05T01:44:58Z</time>
      </trkpt>
      <trkpt lat="50.59917" lon="3.57563">
        <ele>53.3</ele>
        <time>2022-05-05T01:44:59Z</time>
      </trkpt>
      <trkpt lat="50.59915" lon="3.57548">
        <ele>53.3</ele>
        <time>2022-05-05T01:45:00Z</time>
      </trkpt>
      <trkpt lat="50.59913" lon="3.57533">
        <ele>53.4</ele>
        <time>2022-05-05T01:45:01Z</time>
      </trkpt>
      <trkpt lat="50.59911" lon="3.5752">
        <ele>53.4</ele>
        <time>2022-05-05T01:45:02Z</time>
      </trkpt>
      <trkpt lat="50.59909" lon="3.57508">
        <ele>53.5</ele>
        <time>2022-05-05T01:45:03Z</time>
      </trkpt>
      <trkpt lat="50.59907" lon="3.57497">
        <ele>53.8</ele>
        <time>2022-05-05T01:45:03Z</time>
      </trkpt>
      <trkpt lat="50.59906" lon="3.57488">
        <ele>54</ele>
        <time>2022-05-05T01:45:04Z</time>
      </trkpt>
      <trkpt lat="50.59904" lon="3.57481">
        <ele>54.1</ele>
        <time>2022-05-05T01:45:04Z</time>
      </trkpt>
      <trkpt lat="50.59903" lon="3.57475">
        <ele>54.2</ele>
        <time>2022-05-05T01:45:05Z</time>
      </trkpt>
      <trkpt lat="50.59902" lon="3.57469">
        <ele>54.3</ele>
        <time>2022-05-05T01:45:05Z</time>
      </trkpt>
      <trkpt lat="50.59901" lon="3.57464">
        <ele>54.3</ele>
        <time>2022-05-05T01:45:06Z</time>
      </trkpt>
      <trkpt lat="50.59899" lon="3.5746">
        <ele>54.4</ele>
        <time>2022-05-05T01:45:06Z</time>
      </trkpt>
      <trkpt lat="50.59898" lon="3.57456">
        <ele>54.6</ele>
        <time>2022-05-05T01:45:06Z</time>
      </trkpt>
      <trkpt lat="50.59894" lon="3.57454">
        <ele>54.7</ele>
        <time>2022-05-05T01:45:06Z</time>
      </trkpt>
      <trkpt lat="50.59888" lon="3.57452">
        <ele>54.8</ele>
        <time>2022-05-05T01:45:07Z</time>
      </trkpt>
      <trkpt lat="50.59878" lon="3.57458">
        <ele>54.9</ele>
        <time>2022-05-05T01:45:08Z</time>
      </trkpt>
      <trkpt lat="50.59867" lon="3.57457">
        <ele>55</ele>
        <time>2022-05-05T01:45:09Z</time>
      </trkpt>
      <trkpt lat="50.59855" lon="3.57453">
        <ele>55.1</ele>
        <time>2022-05-05T01:45:10Z</time>
      </trkpt>
      <trkpt lat="50.59842" lon="3.5745">
        <ele>55.2</ele>
        <time>2022-05-05T01:45:12Z</time>
      </trkpt>
      <trkpt lat="50.59829" lon="3.57448">
        <ele>55.5</ele>
        <time>2022-05-05T01:45:13Z</time>
      </trkpt>
      <trkpt lat="50.59814" lon="3.57452">
        <ele>55.9</ele>
        <time>2022-05-05T01:45:14Z</time>
      </trkpt>
      <trkpt lat="50.59799" lon="3.57458">
        <ele>56.4</ele>
        <time>2022-05-05T01:45:16Z</time>
      </trkpt>
      <trkpt lat="50.59784" lon="3.57465">
        <ele>56.9</ele>
        <time>2022-05-05T01:45:17Z</time>
      </trkpt>
      <trkpt lat="50.59767" lon="3.57468">
        <ele>57.6</ele>
        <time>2022-05-05T01:45:19Z</time>
      </trkpt>
      <trkpt lat="50.59749" lon="3.57468">
        <ele>58.4</ele>
        <time>2022-05-05T01:45:21Z</time>
      </trkpt>
      <trkpt lat="50.59734" lon="3.57469">
        <ele>59.1</ele>
        <time>2022-05-05T01:45:22Z</time>
      </trkpt>
      <trkpt lat="50.59718" lon="3.57481">
        <ele>60</ele>
        <time>2022-05-05T01:45:24Z</time>
      </trkpt>
      <trkpt lat="50.59704" lon="3.57483">
        <ele>60.9</ele>
        <time>2022-05-05T01:45:25Z</time>
      </trkpt>
      <trkpt lat="50.59694" lon="3.57477">
        <ele>61.7</ele>
        <time>2022-05-05T01:45:26Z</time>
      </trkpt>
      <trkpt lat="50.59684" lon="3.57475">
        <ele>62.4</ele>
        <time>2022-05-05T01:45:27Z</time>
      </trkpt>
      <trkpt lat="50.59676" lon="3.57474">
        <ele>62.9</ele>
        <time>2022-05-05T01:45:28Z</time>
      </trkpt>
      <trkpt lat="50.59667" lon="3.57478">
        <ele>63.4</ele>
        <time>2022-05-05T01:45:29Z</time>
      </trkpt>
      <trkpt lat="50.59657" lon="3.57485">
        <ele>63.7</ele>
        <time>2022-05-05T01:45:30Z</time>
      </trkpt>
      <trkpt lat="50.59643" lon="3.57497">
        <ele>63.8</ele>
        <time>2022-05-05T01:45:31Z</time>
      </trkpt>
      <trkpt lat="50.59627" lon="3.57509">
        <ele>63.8</ele>
        <time>2022-05-05T01:45:33Z</time>
      </trkpt>
      <trkpt lat="50.59612" lon="3.57521">
        <ele>63.6</ele>
        <time>2022-05-05T01:45:35Z</time>
      </trkpt>
      <trkpt lat="50.59597" lon="3.57535">
        <ele>63.3</ele>
        <time>2022-05-05T01:45:36Z</time>
      </trkpt>
      <trkpt lat="50.59584" lon="3.57552">
        <ele>63</ele>
        <time>2022-05-05T01:45:38Z</time>
      </trkpt>
      <trkpt lat="50.59569" lon="3.57565">
        <ele>62.6</ele>
        <time>2022-05-05T01:45:39Z</time>
      </trkpt>
      <trkpt lat="50.59555" lon="3.57573">
        <ele>62.3</ele>
        <time>2022-05-05T01:45:41Z</time>
      </trkpt>
      <trkpt lat="50.59542" lon="3.57581">
        <ele>62.1</ele>
        <time>2022-05-05T01:45:42Z</time>
      </trkpt>
      <trkpt lat="50.59529" lon="3.57595">
        <ele>61.8</ele>
        <time>2022-05-05T01:45:44Z</time>
      </trkpt>
      <trkpt lat="50.59513" lon="3.57598">
        <ele>61.3</ele>
        <time>2022-05-05T01:45:45Z</time>
      </trkpt>
      <trkpt lat="50.59499" lon="3.57604">
        <ele>60.8</ele>
        <time>2022-05-05T01:45:47Z</time>
      </trkpt>
      <trkpt lat="50.59486" lon="3.57611">
        <ele>60.2</ele>
        <time>2022-05-05T01:45:48Z</time>
      </trkpt>
      <trkpt lat="50.59476" lon="3.57614">
        <ele>59.6</ele>
        <time>2022-05-05T01:45:49Z</time>
      </trkpt>
      <trkpt lat="50.59468" lon="3.57618">
        <ele>59.1</ele>
        <time>2022-05-05T01:45:50Z</time>
      </trkpt>
      <trkpt lat="50.5946" lon="3.57621">
        <ele>58.8</ele>
        <time>2022-05-05T01:45:50Z</time>
      </trkpt>
      <trkpt lat="50.59453" lon="3.57624">
        <ele>58.4</ele>
        <time>2022-05-05T01:45:51Z</time>
      </trkpt>
      <trkpt lat="50.59449" lon="3.57625">
        <ele>58</ele>
        <time>2022-05-05T01:45:51Z</time>
      </trkpt>
      <trkpt lat="50.59448" lon="3.57634">
        <ele>57.7</ele>
        <time>2022-05-05T01:45:52Z</time>
      </trkpt>
      <trkpt lat="50.59446" lon="3.57643">
        <ele>57.4</ele>
        <time>2022-05-05T01:45:53Z</time>
      </trkpt>
      <trkpt lat="50.59444" lon="3.57652">
        <ele>57</ele>
        <time>2022-05-05T01:45:53Z</time>
      </trkpt>
      <trkpt lat="50.59442" lon="3.5766">
        <ele>56.7</ele>
        <time>2022-05-05T01:45:54Z</time>
      </trkpt>
      <trkpt lat="50.5944" lon="3.5767">
        <ele>56.3</ele>
        <time>2022-05-05T01:45:54Z</time>
      </trkpt>
      <trkpt lat="50.59441" lon="3.57676">
        <ele>55.9</ele>
        <time>2022-05-05T01:45:55Z</time>
      </trkpt>
      <trkpt lat="50.59442" lon="3.57686">
        <ele>55.7</ele>
        <time>2022-05-05T01:45:55Z</time>
      </trkpt>
      <trkpt lat="50.59442" lon="3.577">
        <ele>55.6</ele>
        <time>2022-05-05T01:45:56Z</time>
      </trkpt>
      <trkpt lat="50.59441" lon="3.57712">
        <ele>55.5</ele>
        <time>2022-05-05T01:45:57Z</time>
      </trkpt>
      <trkpt lat="50.59441" lon="3.57725">
        <ele>55.2</ele>
        <time>2022-05-05T01:45:58Z</time>
      </trkpt>
      <trkpt lat="50.59441" lon="3.57737">
        <ele>54.9</ele>
        <time>2022-05-05T01:45:58Z</time>
      </trkpt>
      <trkpt lat="50.59442" lon="3.57746">
        <ele>54.7</ele>
        <time>2022-05-05T01:45:59Z</time>
      </trkpt>
      <trkpt lat="50.59442" lon="3.57753">
        <ele>54.6</ele>
        <time>2022-05-05T01:45:59Z</time>
      </trkpt>
      <trkpt lat="50.5944" lon="3.57759">
        <ele>54.5</ele>
        <time>2022-05-05T01:46:00Z</time>
      </trkpt>
      <trkpt lat="50.59439" lon="3.57768">
        <ele>54.5</ele>
        <time>2022-05-05T01:46:00Z</time>
      </trkpt>
      <trkpt lat="50.59439" lon="3.57777">
        <ele>54.4</ele>
        <time>2022-05-05T01:46:01Z</time>
      </trkpt>
      <trkpt lat="50.5944" lon="3.57787">
        <ele>54.4</ele>
        <time>2022-05-05T01:46:01Z</time>
      </trkpt>
      <trkpt lat="50.5944" lon="3.57798">
        <ele>54.2</ele>
        <time>2022-05-05T01:46:02Z</time>
      </trkpt>
      <trkpt lat="50.59439" lon="3.57808">
        <ele>54</ele>
        <time>2022-05-05T01:46:03Z</time>
      </trkpt>
      <trkpt lat="50.5944" lon="3.57817">
        <ele>53.8</ele>
        <time>2022-05-05T01:46:03Z</time>
      </trkpt>
      <trkpt lat="50.5944" lon="3.57825">
        <ele>53.6</ele>
        <time>2022-05-05T01:46:04Z</time>
      </trkpt>
      <trkpt lat="50.5944" lon="3.57835">
        <ele>53.5</ele>
        <time>2022-05-05T01:46:04Z</time>
      </trkpt>
      <trkpt lat="50.59439" lon="3.57843">
        <ele>53.4</ele>
        <time>2022-05-05T01:46:05Z</time>
      </trkpt>
      <trkpt lat="50.59439" lon="3.57853">
        <ele>53.4</ele>
        <time>2022-05-05T01:46:05Z</time>
      </trkpt>
      <trkpt lat="50.59439" lon="3.57861">
        <ele>53.4</ele>
        <time>2022-05-05T01:46:06Z</time>
      </trkpt>
      <trkpt lat="50.59439" lon="3.57871">
        <ele>53.3</ele>
        <time>2022-05-05T01:46:07Z</time>
      </trkpt>
      <trkpt lat="50.59442" lon="3.57879">
        <ele>53.3</ele>
        <time>2022-05-05T01:46:07Z</time>
      </trkpt>
      <trkpt lat="50.59442" lon="3.57888">
        <ele>53.4</ele>
        <time>2022-05-05T01:46:08Z</time>
      </trkpt>
      <trkpt lat="50.59442" lon="3.57891">
        <ele>53.4</ele>
        <time>2022-05-05T01:46:08Z</time>
      </trkpt>
      <trkpt lat="50.59444" lon="3.57899">
        <ele>53.4</ele>
        <time>2022-05-05T01:46:08Z</time>
      </trkpt>
      <trkpt lat="50.59445" lon="3.57908">
        <ele>53.3</ele>
        <time>2022-05-05T01:46:09Z</time>
      </trkpt>
      <trkpt lat="50.59448" lon="3.57915">
        <ele>53.1</ele>
        <time>2022-05-05T01:46:09Z</time>
      </trkpt>
      <trkpt lat="50.5945" lon="3.57923">
        <ele>53</ele>
        <time>2022-05-05T01:46:10Z</time>
      </trkpt>
      <trkpt lat="50.59452" lon="3.5793">
        <ele>52.9</ele>
        <time>2022-05-05T01:46:10Z</time>
      </trkpt>
      <trkpt lat="50.59455" lon="3.57937">
        <ele>52.8</ele>
        <time>2022-05-05T01:46:11Z</time>
      </trkpt>
      <trkpt lat="50.59456" lon="3.57944">
        <ele>52.8</ele>
        <time>2022-05-05T01:46:11Z</time>
      </trkpt>
      <trkpt lat="50.59458" lon="3.57954">
        <ele>52.9</ele>
        <time>2022-05-05T01:46:12Z</time>
      </trkpt>
      <trkpt lat="50.59458" lon="3.57962">
        <ele>52.8</ele>
        <time>2022-05-05T01:46:12Z</time>
      </trkpt>
      <trkpt lat="50.59458" lon="3.57969">
        <ele>52.6</ele>
        <time>2022-05-05T01:46:13Z</time>
      </trkpt>
      <trkpt lat="50.59459" lon="3.57978">
        <ele>52.5</ele>
        <time>2022-05-05T01:46:13Z</time>
      </trkpt>
      <trkpt lat="50.59462" lon="3.57986">
        <ele>52.3</ele>
        <time>2022-05-05T01:46:14Z</time>
      </trkpt>
      <trkpt lat="50.59462" lon="3.57987">
        <ele>52.2</ele>
        <time>2022-05-05T01:46:14Z</time>
      </trkpt>
      <trkpt lat="50.59463" lon="3.57995">
        <ele>52.2</ele>
        <time>2022-05-05T01:46:15Z</time>
      </trkpt>
      <trkpt lat="50.59467" lon="3.58003">
        <ele>52.2</ele>
        <time>2022-05-05T01:46:15Z</time>
      </trkpt>
      <trkpt lat="50.59468" lon="3.58011">
        <ele>52.2</ele>
        <time>2022-05-05T01:46:16Z</time>
      </trkpt>
      <trkpt lat="50.59471" lon="3.5802">
        <ele>52.2</ele>
        <time>2022-05-05T01:46:16Z</time>
      </trkpt>
      <trkpt lat="50.59473" lon="3.58029">
        <ele>52.3</ele>
        <time>2022-05-05T01:46:17Z</time>
      </trkpt>
      <trkpt lat="50.59475" lon="3.58037">
        <ele>52.4</ele>
        <time>2022-05-05T01:46:17Z</time>
      </trkpt>
      <trkpt lat="50.59475" lon="3.58048">
        <ele>52.3</ele>
        <time>2022-05-05T01:46:18Z</time>
      </trkpt>
      <trkpt lat="50.59478" lon="3.58054">
        <ele>52.2</ele>
        <time>2022-05-05T01:46:18Z</time>
      </trkpt>
      <trkpt lat="50.5948" lon="3.58063">
        <ele>52</ele>
        <time>2022-05-05T01:46:19Z</time>
      </trkpt>
      <trkpt lat="50.59482" lon="3.58071">
        <ele>51.9</ele>
        <time>2022-05-05T01:46:20Z</time>
      </trkpt>
      <trkpt lat="50.59482" lon="3.58081">
        <ele>51.9</ele>
        <time>2022-05-05T01:46:20Z</time>
      </trkpt>
      <trkpt lat="50.59483" lon="3.58092">
        <ele>51.9</ele>
        <time>2022-05-05T01:46:21Z</time>
      </trkpt>
      <trkpt lat="50.59486" lon="3.581">
        <ele>51.8</ele>
        <time>2022-05-05T01:46:21Z</time>
      </trkpt>
      <trkpt lat="50.59488" lon="3.58107">
        <ele>51.8</ele>
        <time>2022-05-05T01:46:22Z</time>
      </trkpt>
      <trkpt lat="50.5949" lon="3.58118">
        <ele>51.8</ele>
        <time>2022-05-05T01:46:23Z</time>
      </trkpt>
      <trkpt lat="50.59493" lon="3.58129">
        <ele>51.8</ele>
        <time>2022-05-05T01:46:23Z</time>
      </trkpt>
      <trkpt lat="50.59494" lon="3.58142">
        <ele>51.8</ele>
        <time>2022-05-05T01:46:24Z</time>
      </trkpt>
      <trkpt lat="50.59495" lon="3.58154">
        <ele>51.9</ele>
        <time>2022-05-05T01:46:25Z</time>
      </trkpt>
      <trkpt lat="50.59497" lon="3.58163">
        <ele>52</ele>
        <time>2022-05-05T01:46:25Z</time>
      </trkpt>
      <trkpt lat="50.595" lon="3.58172">
        <ele>52.1</ele>
        <time>2022-05-05T01:46:26Z</time>
      </trkpt>
      <trkpt lat="50.59502" lon="3.58183">
        <ele>52.2</ele>
        <time>2022-05-05T01:46:27Z</time>
      </trkpt>
      <trkpt lat="50.59503" lon="3.58195">
        <ele>52.3</ele>
        <time>2022-05-05T01:46:27Z</time>
      </trkpt>
      <trkpt lat="50.59505" lon="3.58208">
        <ele>52.4</ele>
        <time>2022-05-05T01:46:28Z</time>
      </trkpt>
      <trkpt lat="50.59507" lon="3.58222">
        <ele>52.1</ele>
        <time>2022-05-05T01:46:29Z</time>
      </trkpt>
      <trkpt lat="50.59509" lon="3.58237">
        <ele>51.8</ele>
        <time>2022-05-05T01:46:30Z</time>
      </trkpt>
      <trkpt lat="50.5951" lon="3.58247">
        <ele>51.8</ele>
        <time>2022-05-05T01:46:31Z</time>
      </trkpt>
      <trkpt lat="50.5951" lon="3.58263">
        <ele>51.8</ele>
        <time>2022-05-05T01:46:32Z</time>
      </trkpt>
      <trkpt lat="50.59509" lon="3.58273">
        <ele>51.9</ele>
        <time>2022-05-05T01:46:32Z</time>
      </trkpt>
      <trkpt lat="50.59507" lon="3.58285">
        <ele>51.8</ele>
        <time>2022-05-05T01:46:33Z</time>
      </trkpt>
      <trkpt lat="50.59505" lon="3.583">
        <ele>51.8</ele>
        <time>2022-05-05T01:46:34Z</time>
      </trkpt>
      <trkpt lat="50.59504" lon="3.58317">
        <ele>51.7</ele>
        <time>2022-05-05T01:46:35Z</time>
      </trkpt>
      <trkpt lat="50.59505" lon="3.5833">
        <ele>51.3</ele>
        <time>2022-05-05T01:46:36Z</time>
      </trkpt>
      <trkpt lat="50.59505" lon="3.58339">
        <ele>50.8</ele>
        <time>2022-05-05T01:46:36Z</time>
      </trkpt>
      <trkpt lat="50.59505" lon="3.58344">
        <ele>50.7</ele>
        <time>2022-05-05T01:46:37Z</time>
      </trkpt>
      <trkpt lat="50.59506" lon="3.58349">
        <ele>50.7</ele>
        <time>2022-05-05T01:46:37Z</time>
      </trkpt>
      <trkpt lat="50.59504" lon="3.58351">
        <ele>50.7</ele>
        <time>2022-05-05T01:46:37Z</time>
      </trkpt>
      <trkpt lat="50.595" lon="3.58355">
        <ele>50.7</ele>
        <time>2022-05-05T01:46:38Z</time>
      </trkpt>
      <trkpt lat="50.59491" lon="3.58354">
        <ele>50.5</ele>
        <time>2022-05-05T01:46:38Z</time>
      </trkpt>
      <trkpt lat="50.59482" lon="3.58359">
        <ele>50.3</ele>
        <time>2022-05-05T01:46:39Z</time>
      </trkpt>
      <trkpt lat="50.59473" lon="3.58361">
        <ele>50.1</ele>
        <time>2022-05-05T01:46:40Z</time>
      </trkpt>
      <trkpt lat="50.59464" lon="3.58361">
        <ele>49.9</ele>
        <time>2022-05-05T01:46:41Z</time>
      </trkpt>
      <trkpt lat="50.59455" lon="3.58364">
        <ele>49.7</ele>
        <time>2022-05-05T01:46:42Z</time>
      </trkpt>
      <trkpt lat="50.59445" lon="3.58365">
        <ele>49.6</ele>
        <time>2022-05-05T01:46:43Z</time>
      </trkpt>
      <trkpt lat="50.59435" lon="3.58365">
        <ele>49.5</ele>
        <time>2022-05-05T01:46:44Z</time>
      </trkpt>
      <trkpt lat="50.59427" lon="3.58363">
        <ele>49.4</ele>
        <time>2022-05-05T01:46:45Z</time>
      </trkpt>
      <trkpt lat="50.59419" lon="3.58364">
        <ele>49.2</ele>
        <time>2022-05-05T01:46:45Z</time>
      </trkpt>
      <trkpt lat="50.59412" lon="3.58367">
        <ele>48.9</ele>
        <time>2022-05-05T01:46:46Z</time>
      </trkpt>
      <trkpt lat="50.59409" lon="3.58371">
        <ele>48.6</ele>
        <time>2022-05-05T01:46:46Z</time>
      </trkpt>
      <trkpt lat="50.59407" lon="3.58371">
        <ele>48.4</ele>
        <time>2022-05-05T01:46:47Z</time>
      </trkpt>
      <trkpt lat="50.59405" lon="3.58376">
        <ele>48.2</ele>
        <time>2022-05-05T01:46:47Z</time>
      </trkpt>
      <trkpt lat="50.59402" lon="3.58378">
        <ele>48.1</ele>
        <time>2022-05-05T01:46:47Z</time>
      </trkpt>
      <trkpt lat="50.59401" lon="3.58384">
        <ele>47.9</ele>
        <time>2022-05-05T01:46:48Z</time>
      </trkpt>
      <trkpt lat="50.594" lon="3.58395">
        <ele>47.8</ele>
        <time>2022-05-05T01:46:48Z</time>
      </trkpt>
      <trkpt lat="50.59399" lon="3.58409">
        <ele>47.6</ele>
        <time>2022-05-05T01:46:49Z</time>
      </trkpt>
      <trkpt lat="50.59402" lon="3.58425">
        <ele>47.4</ele>
        <time>2022-05-05T01:46:50Z</time>
      </trkpt>
      <trkpt lat="50.59406" lon="3.58443">
        <ele>47.3</ele>
        <time>2022-05-05T01:46:51Z</time>
      </trkpt>
      <trkpt lat="50.59408" lon="3.58465">
        <ele>47.2</ele>
        <time>2022-05-05T01:46:53Z</time>
      </trkpt>
      <trkpt lat="50.59412" lon="3.58488">
        <ele>47.2</ele>
        <time>2022-05-05T01:46:54Z</time>
      </trkpt>
      <trkpt lat="50.59414" lon="3.58511">
        <ele>47.2</ele>
        <time>2022-05-05T01:46:56Z</time>
      </trkpt>
      <trkpt lat="50.59417" lon="3.58535">
        <ele>47.3</ele>
        <time>2022-05-05T01:46:57Z</time>
      </trkpt>
      <trkpt lat="50.5942" lon="3.58561">
        <ele>47.3</ele>
        <time>2022-05-05T01:46:59Z</time>
      </trkpt>
      <trkpt lat="50.59423" lon="3.58582">
        <ele>47.1</ele>
        <time>2022-05-05T01:47:00Z</time>
      </trkpt>
      <trkpt lat="50.59426" lon="3.58608">
        <ele>46.9</ele>
        <time>2022-05-05T01:47:02Z</time>
      </trkpt>
      <trkpt lat="50.59429" lon="3.58629">
        <ele>46.9</ele>
        <time>2022-05-05T01:47:03Z</time>
      </trkpt>
      <trkpt lat="50.59431" lon="3.58648">
        <ele>46.9</ele>
        <time>2022-05-05T01:47:04Z</time>
      </trkpt>
      <trkpt lat="50.59433" lon="3.58665">
        <ele>46.9</ele>
        <time>2022-05-05T01:47:05Z</time>
      </trkpt>
      <trkpt lat="50.59435" lon="3.58679">
        <ele>47</ele>
        <time>2022-05-05T01:47:06Z</time>
      </trkpt>
      <trkpt lat="50.59437" lon="3.58692">
        <ele>47</ele>
        <time>2022-05-05T01:47:07Z</time>
      </trkpt>
      <trkpt lat="50.59438" lon="3.58694">
        <ele>47.1</ele>
        <time>2022-05-05T01:47:07Z</time>
      </trkpt>
      <trkpt lat="50.59439" lon="3.58702">
        <ele>47.2</ele>
        <time>2022-05-05T01:47:07Z</time>
      </trkpt>
      <trkpt lat="50.5944" lon="3.58707">
        <ele>47.2</ele>
        <time>2022-05-05T01:47:08Z</time>
      </trkpt>
      <trkpt lat="50.59447" lon="3.58757">
        <ele>45.2</ele>
        <time>2022-05-05T01:47:11Z</time>
      </trkpt>
      <trkpt lat="50.59543" lon="3.59486">
        <ele>44.2</ele>
        <time>2022-05-05T01:47:56Z</time>
      </trkpt>
      <trkpt lat="50.59616" lon="3.60041">
        <ele>47</ele>
        <time>2022-05-05T01:48:30Z</time>
      </trkpt>
      <trkpt lat="50.59625" lon="3.60105">
        <ele>46.2</ele>
        <time>2022-05-05T01:48:34Z</time>
      </trkpt>
      <trkpt lat="50.59612" lon="3.6016">
        <ele>46.2</ele>
        <time>2022-05-05T01:48:38Z</time>
      </trkpt>
      <trkpt lat="50.59595" lon="3.60152">
        <ele>46.3</ele>
        <time>2022-05-05T01:48:39Z</time>
      </trkpt>
      <trkpt lat="50.5959" lon="3.60088">
        <ele>46.1</ele>
        <time>2022-05-05T01:48:43Z</time>
      </trkpt>
      <trkpt lat="50.59526" lon="3.59854">
        <ele>46.7</ele>
        <time>2022-05-05T01:48:59Z</time>
      </trkpt>
      <trkpt lat="50.5951" lon="3.59832">
        <ele>46.9</ele>
        <time>2022-05-05T01:49:01Z</time>
      </trkpt>
      <trkpt lat="50.59489" lon="3.59828">
        <ele>48.6</ele>
        <time>2022-05-05T01:49:03Z</time>
      </trkpt>
      <trkpt lat="50.59493" lon="3.59851">
        <ele>48.6</ele>
        <time>2022-05-05T01:49:04Z</time>
      </trkpt>
      <trkpt lat="50.59496" lon="3.59866">
        <ele>48.6</ele>
        <time>2022-05-05T01:49:05Z</time>
      </trkpt>
      <trkpt lat="50.59498" lon="3.59874">
        <ele>48.6</ele>
        <time>2022-05-05T01:49:06Z</time>
      </trkpt>
      <trkpt lat="50.59499" lon="3.59884">
        <ele>48.7</ele>
        <time>2022-05-05T01:49:06Z</time>
      </trkpt>
      <trkpt lat="50.59501" lon="3.59895">
        <ele>48.9</ele>
        <time>2022-05-05T01:49:07Z</time>
      </trkpt>
      <trkpt lat="50.59504" lon="3.59903">
        <ele>49.1</ele>
        <time>2022-05-05T01:49:07Z</time>
      </trkpt>
      <trkpt lat="50.59507" lon="3.59914">
        <ele>49.2</ele>
        <time>2022-05-05T01:49:08Z</time>
      </trkpt>
      <trkpt lat="50.59509" lon="3.59922">
        <ele>49.2</ele>
        <time>2022-05-05T01:49:09Z</time>
      </trkpt>
      <trkpt lat="50.59509" lon="3.59933">
        <ele>49.2</ele>
        <time>2022-05-05T01:49:09Z</time>
      </trkpt>
      <trkpt lat="50.59509" lon="3.59944">
        <ele>49.2</ele>
        <time>2022-05-05T01:49:10Z</time>
      </trkpt>
      <trkpt lat="50.59511" lon="3.59953">
        <ele>49.2</ele>
        <time>2022-05-05T01:49:11Z</time>
      </trkpt>
      <trkpt lat="50.59511" lon="3.59965">
        <ele>49.2</ele>
        <time>2022-05-05T01:49:11Z</time>
      </trkpt>
      <trkpt lat="50.59513" lon="3.59977">
        <ele>49.3</ele>
        <time>2022-05-05T01:49:12Z</time>
      </trkpt>
      <trkpt lat="50.59512" lon="3.59988">
        <ele>49.4</ele>
        <time>2022-05-05T01:49:13Z</time>
      </trkpt>
      <trkpt lat="50.59512" lon="3.60001">
        <ele>49.5</ele>
        <time>2022-05-05T01:49:13Z</time>
      </trkpt>
      <trkpt lat="50.5951" lon="3.60011">
        <ele>49.7</ele>
        <time>2022-05-05T01:49:14Z</time>
      </trkpt>
      <trkpt lat="50.59511" lon="3.60023">
        <ele>49.9</ele>
        <time>2022-05-05T01:49:15Z</time>
      </trkpt>
      <trkpt lat="50.59511" lon="3.60034">
        <ele>50</ele>
        <time>2022-05-05T01:49:16Z</time>
      </trkpt>
      <trkpt lat="50.59511" lon="3.60045">
        <ele>50</ele>
        <time>2022-05-05T01:49:16Z</time>
      </trkpt>
      <trkpt lat="50.59512" lon="3.60051">
        <ele>50</ele>
        <time>2022-05-05T01:49:17Z</time>
      </trkpt>
      <trkpt lat="50.59512" lon="3.6006">
        <ele>50.1</ele>
        <time>2022-05-05T01:49:17Z</time>
      </trkpt>
      <trkpt lat="50.59513" lon="3.60069">
        <ele>50.1</ele>
        <time>2022-05-05T01:49:18Z</time>
      </trkpt>
      <trkpt lat="50.59516" lon="3.60074">
        <ele>50.1</ele>
        <time>2022-05-05T01:49:18Z</time>
      </trkpt>
      <trkpt lat="50.59516" lon="3.60085">
        <ele>50</ele>
        <time>2022-05-05T01:49:19Z</time>
      </trkpt>
      <trkpt lat="50.59518" lon="3.60099">
        <ele>50</ele>
        <time>2022-05-05T01:49:20Z</time>
      </trkpt>
      <trkpt lat="50.59515" lon="3.60108">
        <ele>49.9</ele>
        <time>2022-05-05T01:49:20Z</time>
      </trkpt>
      <trkpt lat="50.59516" lon="3.60118">
        <ele>49.9</ele>
        <time>2022-05-05T01:49:21Z</time>
      </trkpt>
      <trkpt lat="50.59516" lon="3.60128">
        <ele>49.9</ele>
        <time>2022-05-05T01:49:21Z</time>
      </trkpt>
      <trkpt lat="50.59516" lon="3.60138">
        <ele>49.9</ele>
        <time>2022-05-05T01:49:22Z</time>
      </trkpt>
      <trkpt lat="50.59518" lon="3.60147">
        <ele>49.9</ele>
        <time>2022-05-05T01:49:23Z</time>
      </trkpt>
      <trkpt lat="50.59518" lon="3.60157">
        <ele>49.9</ele>
        <time>2022-05-05T01:49:23Z</time>
      </trkpt>
      <trkpt lat="50.59519" lon="3.6017">
        <ele>49.9</ele>
        <time>2022-05-05T01:49:24Z</time>
      </trkpt>
      <trkpt lat="50.59519" lon="3.6018">
        <ele>49.9</ele>
        <time>2022-05-05T01:49:25Z</time>
      </trkpt>
      <trkpt lat="50.59519" lon="3.60191">
        <ele>49.8</ele>
        <time>2022-05-05T01:49:25Z</time>
      </trkpt>
      <trkpt lat="50.59518" lon="3.60205">
        <ele>49.8</ele>
        <time>2022-05-05T01:49:26Z</time>
      </trkpt>
      <trkpt lat="50.59519" lon="3.60215">
        <ele>49.9</ele>
        <time>2022-05-05T01:49:27Z</time>
      </trkpt>
      <trkpt lat="50.5952" lon="3.60225">
        <ele>49.9</ele>
        <time>2022-05-05T01:49:27Z</time>
      </trkpt>
      <trkpt lat="50.59522" lon="3.60236">
        <ele>50</ele>
        <time>2022-05-05T01:49:28Z</time>
      </trkpt>
      <trkpt lat="50.59521" lon="3.60249">
        <ele>50</ele>
        <time>2022-05-05T01:49:29Z</time>
      </trkpt>
      <trkpt lat="50.5952" lon="3.60259">
        <ele>50</ele>
        <time>2022-05-05T01:49:29Z</time>
      </trkpt>
      <trkpt lat="50.59521" lon="3.60275">
        <ele>50</ele>
        <time>2022-05-05T01:49:30Z</time>
      </trkpt>
      <trkpt lat="50.59522" lon="3.60288">
        <ele>50</ele>
        <time>2022-05-05T01:49:31Z</time>
      </trkpt>
      <trkpt lat="50.59522" lon="3.603">
        <ele>50</ele>
        <time>2022-05-05T01:49:32Z</time>
      </trkpt>
      <trkpt lat="50.59521" lon="3.60307">
        <ele>50</ele>
        <time>2022-05-05T01:49:32Z</time>
      </trkpt>
      <trkpt lat="50.59521" lon="3.60314">
        <ele>50.1</ele>
        <time>2022-05-05T01:49:33Z</time>
      </trkpt>
      <trkpt lat="50.5952" lon="3.60322">
        <ele>50.1</ele>
        <time>2022-05-05T01:49:33Z</time>
      </trkpt>
      <trkpt lat="50.59517" lon="3.60328">
        <ele>50.3</ele>
        <time>2022-05-05T01:49:34Z</time>
      </trkpt>
      <trkpt lat="50.59514" lon="3.60337">
        <ele>50.4</ele>
        <time>2022-05-05T01:49:34Z</time>
      </trkpt>
      <trkpt lat="50.59509" lon="3.60346">
        <ele>50.6</ele>
        <time>2022-05-05T01:49:35Z</time>
      </trkpt>
      <trkpt lat="50.59503" lon="3.60353">
        <ele>50.8</ele>
        <time>2022-05-05T01:49:36Z</time>
      </trkpt>
      <trkpt lat="50.59499" lon="3.60362">
        <ele>51</ele>
        <time>2022-05-05T01:49:36Z</time>
      </trkpt>
      <trkpt lat="50.59494" lon="3.60371">
        <ele>51.3</ele>
        <time>2022-05-05T01:49:37Z</time>
      </trkpt>
      <trkpt lat="50.59489" lon="3.60384">
        <ele>51.5</ele>
        <time>2022-05-05T01:49:38Z</time>
      </trkpt>
      <trkpt lat="50.59484" lon="3.60392">
        <ele>51.6</ele>
        <time>2022-05-05T01:49:39Z</time>
      </trkpt>
      <trkpt lat="50.59479" lon="3.60404">
        <ele>51.7</ele>
        <time>2022-05-05T01:49:40Z</time>
      </trkpt>
      <trkpt lat="50.59474" lon="3.60414">
        <ele>51.9</ele>
        <time>2022-05-05T01:49:40Z</time>
      </trkpt>
      <trkpt lat="50.5947" lon="3.60424">
        <ele>52.2</ele>
        <time>2022-05-05T01:49:41Z</time>
      </trkpt>
      <trkpt lat="50.59465" lon="3.60435">
        <ele>52.4</ele>
        <time>2022-05-05T01:49:42Z</time>
      </trkpt>
      <trkpt lat="50.5946" lon="3.60447">
        <ele>52.6</ele>
        <time>2022-05-05T01:49:43Z</time>
      </trkpt>
      <trkpt lat="50.59456" lon="3.60454">
        <ele>52.9</ele>
        <time>2022-05-05T01:49:43Z</time>
      </trkpt>
      <trkpt lat="50.59451" lon="3.6046">
        <ele>53.1</ele>
        <time>2022-05-05T01:49:44Z</time>
      </trkpt>
      <trkpt lat="50.59447" lon="3.60464">
        <ele>53.3</ele>
        <time>2022-05-05T01:49:44Z</time>
      </trkpt>
      <trkpt lat="50.59443" lon="3.60469">
        <ele>53.5</ele>
        <time>2022-05-05T01:49:45Z</time>
      </trkpt>
      <trkpt lat="50.59439" lon="3.60477">
        <ele>53.6</ele>
        <time>2022-05-05T01:49:46Z</time>
      </trkpt>
      <trkpt lat="50.59438" lon="3.60473">
        <ele>53.8</ele>
        <time>2022-05-05T01:49:46Z</time>
      </trkpt>
      <trkpt lat="50.59433" lon="3.60469">
        <ele>53.9</ele>
        <time>2022-05-05T01:49:46Z</time>
      </trkpt>
      <trkpt lat="50.5943" lon="3.60463">
        <ele>54</ele>
        <time>2022-05-05T01:49:47Z</time>
      </trkpt>
      <trkpt lat="50.59426" lon="3.60457">
        <ele>54.1</ele>
        <time>2022-05-05T01:49:47Z</time>
      </trkpt>
      <trkpt lat="50.59424" lon="3.60455">
        <ele>54.3</ele>
        <time>2022-05-05T01:49:48Z</time>
      </trkpt>
      <trkpt lat="50.59422" lon="3.6045">
        <ele>54.4</ele>
        <time>2022-05-05T01:49:48Z</time>
      </trkpt>
      <trkpt lat="50.59421" lon="3.60445">
        <ele>54.5</ele>
        <time>2022-05-05T01:49:48Z</time>
      </trkpt>
      <trkpt lat="50.59418" lon="3.60442">
        <ele>54.5</ele>
        <time>2022-05-05T01:49:49Z</time>
      </trkpt>
      <trkpt lat="50.59417" lon="3.6044">
        <ele>54.6</ele>
        <time>2022-05-05T01:49:49Z</time>
      </trkpt>
      <trkpt lat="50.59414" lon="3.60438">
        <ele>54.6</ele>
        <time>2022-05-05T01:49:49Z</time>
      </trkpt>
      <trkpt lat="50.59413" lon="3.60447">
        <ele>54.6</ele>
        <time>2022-05-05T01:49:50Z</time>
      </trkpt>
      <trkpt lat="50.5941" lon="3.60456">
        <ele>54.7</ele>
        <time>2022-05-05T01:49:50Z</time>
      </trkpt>
      <trkpt lat="50.59407" lon="3.60464">
        <ele>54.8</ele>
        <time>2022-05-05T01:49:51Z</time>
      </trkpt>
      <trkpt lat="50.59404" lon="3.60472">
        <ele>54.9</ele>
        <time>2022-05-05T01:49:51Z</time>
      </trkpt>
      <trkpt lat="50.594" lon="3.60478">
        <ele>55</ele>
        <time>2022-05-05T01:49:52Z</time>
      </trkpt>
      <trkpt lat="50.59396" lon="3.60484">
        <ele>55.1</ele>
        <time>2022-05-05T01:49:52Z</time>
      </trkpt>
      <trkpt lat="50.59393" lon="3.60492">
        <ele>55.2</ele>
        <time>2022-05-05T01:49:53Z</time>
      </trkpt>
      <trkpt lat="50.5939" lon="3.60501">
        <ele>55.1</ele>
        <time>2022-05-05T01:49:53Z</time>
      </trkpt>
      <trkpt lat="50.59386" lon="3.60509">
        <ele>55</ele>
        <time>2022-05-05T01:49:54Z</time>
      </trkpt>
      <trkpt lat="50.59382" lon="3.60516">
        <ele>55.1</ele>
        <time>2022-05-05T01:49:55Z</time>
      </trkpt>
      <trkpt lat="50.59379" lon="3.60523">
        <ele>55.3</ele>
        <time>2022-05-05T01:49:55Z</time>
      </trkpt>
      <trkpt lat="50.59376" lon="3.6053">
        <ele>55.6</ele>
        <time>2022-05-05T01:49:56Z</time>
      </trkpt>
      <trkpt lat="50.59373" lon="3.60537">
        <ele>55.8</ele>
        <time>2022-05-05T01:49:56Z</time>
      </trkpt>
      <trkpt lat="50.59369" lon="3.60545">
        <ele>56</ele>
        <time>2022-05-05T01:49:57Z</time>
      </trkpt>
      <trkpt lat="50.59365" lon="3.60554">
        <ele>56</ele>
        <time>2022-05-05T01:49:57Z</time>
      </trkpt>
      <trkpt lat="50.59361" lon="3.60558">
        <ele>56</ele>
        <time>2022-05-05T01:49:58Z</time>
      </trkpt>
      <trkpt lat="50.59356" lon="3.60565">
        <ele>55.9</ele>
        <time>2022-05-05T01:49:59Z</time>
      </trkpt>
      <trkpt lat="50.5935" lon="3.60573">
        <ele>55.9</ele>
        <time>2022-05-05T01:49:59Z</time>
      </trkpt>
      <trkpt lat="50.59345" lon="3.6058">
        <ele>55.9</ele>
        <time>2022-05-05T01:50:00Z</time>
      </trkpt>
      <trkpt lat="50.59338" lon="3.60589">
        <ele>55.9</ele>
        <time>2022-05-05T01:50:01Z</time>
      </trkpt>
      <trkpt lat="50.59333" lon="3.60597">
        <ele>55.9</ele>
        <time>2022-05-05T01:50:02Z</time>
      </trkpt>
      <trkpt lat="50.59326" lon="3.60606">
        <ele>55.9</ele>
        <time>2022-05-05T01:50:02Z</time>
      </trkpt>
      <trkpt lat="50.59321" lon="3.60613">
        <ele>55.9</ele>
        <time>2022-05-05T01:50:03Z</time>
      </trkpt>
      <trkpt lat="50.59313" lon="3.60621">
        <ele>55.8</ele>
        <time>2022-05-05T01:50:04Z</time>
      </trkpt>
      <trkpt lat="50.59306" lon="3.6063">
        <ele>55.8</ele>
        <time>2022-05-05T01:50:05Z</time>
      </trkpt>
      <trkpt lat="50.59299" lon="3.60639">
        <ele>55.8</ele>
        <time>2022-05-05T01:50:06Z</time>
      </trkpt>
      <trkpt lat="50.59293" lon="3.60649">
        <ele>55.8</ele>
        <time>2022-05-05T01:50:06Z</time>
      </trkpt>
      <trkpt lat="50.59288" lon="3.60657">
        <ele>55.8</ele>
        <time>2022-05-05T01:50:07Z</time>
      </trkpt>
      <trkpt lat="50.59285" lon="3.60667">
        <ele>55.7</ele>
        <time>2022-05-05T01:50:08Z</time>
      </trkpt>
      <trkpt lat="50.59281" lon="3.60672">
        <ele>55.6</ele>
        <time>2022-05-05T01:50:08Z</time>
      </trkpt>
      <trkpt lat="50.59278" lon="3.60677">
        <ele>55.6</ele>
        <time>2022-05-05T01:50:09Z</time>
      </trkpt>
      <trkpt lat="50.59276" lon="3.6068">
        <ele>55.5</ele>
        <time>2022-05-05T01:50:09Z</time>
      </trkpt>
      <trkpt lat="50.59274" lon="3.60679">
        <ele>55.5</ele>
        <time>2022-05-05T01:50:09Z</time>
      </trkpt>
      <trkpt lat="50.5927" lon="3.6068">
        <ele>55.4</ele>
        <time>2022-05-05T01:50:10Z</time>
      </trkpt>
      <trkpt lat="50.59267" lon="3.60677">
        <ele>55.3</ele>
        <time>2022-05-05T01:50:10Z</time>
      </trkpt>
      <trkpt lat="50.59265" lon="3.60673">
        <ele>55.3</ele>
        <time>2022-05-05T01:50:10Z</time>
      </trkpt>
      <trkpt lat="50.59263" lon="3.60668">
        <ele>55.3</ele>
        <time>2022-05-05T01:50:11Z</time>
      </trkpt>
      <trkpt lat="50.5926" lon="3.60664">
        <ele>55.3</ele>
        <time>2022-05-05T01:50:11Z</time>
      </trkpt>
      <trkpt lat="50.59257" lon="3.60659">
        <ele>55.2</ele>
        <time>2022-05-05T01:50:11Z</time>
      </trkpt>
      <trkpt lat="50.59255" lon="3.60653">
        <ele>55.3</ele>
        <time>2022-05-05T01:50:12Z</time>
      </trkpt>
      <trkpt lat="50.59253" lon="3.60648">
        <ele>55.3</ele>
        <time>2022-05-05T01:50:12Z</time>
      </trkpt>
      <trkpt lat="50.5925" lon="3.60643">
        <ele>55.4</ele>
        <time>2022-05-05T01:50:12Z</time>
      </trkpt>
      <trkpt lat="50.59246" lon="3.60637">
        <ele>55.5</ele>
        <time>2022-05-05T01:50:13Z</time>
      </trkpt>
      <trkpt lat="50.59242" lon="3.60628">
        <ele>55.6</ele>
        <time>2022-05-05T01:50:14Z</time>
      </trkpt>
      <trkpt lat="50.59237" lon="3.6062">
        <ele>55.7</ele>
        <time>2022-05-05T01:50:14Z</time>
      </trkpt>
      <trkpt lat="50.59232" lon="3.60612">
        <ele>55.8</ele>
        <time>2022-05-05T01:50:15Z</time>
      </trkpt>
      <trkpt lat="50.59227" lon="3.60602">
        <ele>55.9</ele>
        <time>2022-05-05T01:50:16Z</time>
      </trkpt>
      <trkpt lat="50.59222" lon="3.60593">
        <ele>56</ele>
        <time>2022-05-05T01:50:17Z</time>
      </trkpt>
      <trkpt lat="50.59217" lon="3.60583">
        <ele>56.2</ele>
        <time>2022-05-05T01:50:17Z</time>
      </trkpt>
      <trkpt lat="50.59213" lon="3.60574">
        <ele>56.4</ele>
        <time>2022-05-05T01:50:18Z</time>
      </trkpt>
      <trkpt lat="50.59207" lon="3.60564">
        <ele>56.4</ele>
        <time>2022-05-05T01:50:19Z</time>
      </trkpt>
      <trkpt lat="50.59203" lon="3.60552">
        <ele>56.5</ele>
        <time>2022-05-05T01:50:20Z</time>
      </trkpt>
      <trkpt lat="50.59199" lon="3.6054">
        <ele>56.6</ele>
        <time>2022-05-05T01:50:20Z</time>
      </trkpt>
      <trkpt lat="50.59195" lon="3.60528">
        <ele>56.7</ele>
        <time>2022-05-05T01:50:21Z</time>
      </trkpt>
      <trkpt lat="50.59191" lon="3.60515">
        <ele>56.7</ele>
        <time>2022-05-05T01:50:22Z</time>
      </trkpt>
      <trkpt lat="50.59186" lon="3.60502">
        <ele>56.9</ele>
        <time>2022-05-05T01:50:23Z</time>
      </trkpt>
      <trkpt lat="50.59182" lon="3.60488">
        <ele>57.2</ele>
        <time>2022-05-05T01:50:24Z</time>
      </trkpt>
      <trkpt lat="50.59178" lon="3.60475">
        <ele>57.6</ele>
        <time>2022-05-05T01:50:25Z</time>
      </trkpt>
      <trkpt lat="50.59173" lon="3.60462">
        <ele>58</ele>
        <time>2022-05-05T01:50:26Z</time>
      </trkpt>
      <trkpt lat="50.59169" lon="3.6045">
        <ele>58.3</ele>
        <time>2022-05-05T01:50:27Z</time>
      </trkpt>
      <trkpt lat="50.59165" lon="3.60438">
        <ele>58.5</ele>
        <time>2022-05-05T01:50:27Z</time>
      </trkpt>
      <trkpt lat="50.59162" lon="3.60428">
        <ele>58.7</ele>
        <time>2022-05-05T01:50:28Z</time>
      </trkpt>
      <trkpt lat="50.59158" lon="3.60419">
        <ele>59</ele>
        <time>2022-05-05T01:50:29Z</time>
      </trkpt>
      <trkpt lat="50.59154" lon="3.6041">
        <ele>59.3</ele>
        <time>2022-05-05T01:50:29Z</time>
      </trkpt>
      <trkpt lat="50.5915" lon="3.60403">
        <ele>59.5</ele>
        <time>2022-05-05T01:50:30Z</time>
      </trkpt>
      <trkpt lat="50.59145" lon="3.60395">
        <ele>59.8</ele>
        <time>2022-05-05T01:50:31Z</time>
      </trkpt>
      <trkpt lat="50.5914" lon="3.60386">
        <ele>60.1</ele>
        <time>2022-05-05T01:50:31Z</time>
      </trkpt>
      <trkpt lat="50.59132" lon="3.60378">
        <ele>60.4</ele>
        <time>2022-05-05T01:50:32Z</time>
      </trkpt>
      <trkpt lat="50.59124" lon="3.6037">
        <ele>60.7</ele>
        <time>2022-05-05T01:50:33Z</time>
      </trkpt>
      <trkpt lat="50.59116" lon="3.60362">
        <ele>61</ele>
        <time>2022-05-05T01:50:34Z</time>
      </trkpt>
      <trkpt lat="50.59109" lon="3.60354">
        <ele>61.3</ele>
        <time>2022-05-05T01:50:35Z</time>
      </trkpt>
      <trkpt lat="50.59102" lon="3.60345">
        <ele>61.6</ele>
        <time>2022-05-05T01:50:36Z</time>
      </trkpt>
      <trkpt lat="50.59095" lon="3.60336">
        <ele>61.8</ele>
        <time>2022-05-05T01:50:37Z</time>
      </trkpt>
      <trkpt lat="50.59088" lon="3.60327">
        <ele>61.9</ele>
        <time>2022-05-05T01:50:37Z</time>
      </trkpt>
      <trkpt lat="50.59082" lon="3.60318">
        <ele>62</ele>
        <time>2022-05-05T01:50:38Z</time>
      </trkpt>
      <trkpt lat="50.59076" lon="3.60309">
        <ele>62.2</ele>
        <time>2022-05-05T01:50:39Z</time>
      </trkpt>
      <trkpt lat="50.5907" lon="3.603">
        <ele>62.4</ele>
        <time>2022-05-05T01:50:40Z</time>
      </trkpt>
      <trkpt lat="50.59064" lon="3.60292">
        <ele>62.6</ele>
        <time>2022-05-05T01:50:41Z</time>
      </trkpt>
      <trkpt lat="50.59058" lon="3.60285">
        <ele>62.8</ele>
        <time>2022-05-05T01:50:41Z</time>
      </trkpt>
      <trkpt lat="50.59052" lon="3.60279">
        <ele>63.1</ele>
        <time>2022-05-05T01:50:42Z</time>
      </trkpt>
      <trkpt lat="50.59046" lon="3.60275">
        <ele>63.3</ele>
        <time>2022-05-05T01:50:43Z</time>
      </trkpt>
      <trkpt lat="50.59039" lon="3.60269">
        <ele>63.4</ele>
        <time>2022-05-05T01:50:43Z</time>
      </trkpt>
      <trkpt lat="50.59032" lon="3.60264">
        <ele>63.5</ele>
        <time>2022-05-05T01:50:44Z</time>
      </trkpt>
      <trkpt lat="50.59027" lon="3.6026">
        <ele>63.6</ele>
        <time>2022-05-05T01:50:45Z</time>
      </trkpt>
      <trkpt lat="50.59021" lon="3.60256">
        <ele>63.8</ele>
        <time>2022-05-05T01:50:45Z</time>
      </trkpt>
      <trkpt lat="50.59016" lon="3.60252">
        <ele>63.8</ele>
        <time>2022-05-05T01:50:46Z</time>
      </trkpt>
      <trkpt lat="50.5901" lon="3.60248">
        <ele>63.8</ele>
        <time>2022-05-05T01:50:46Z</time>
      </trkpt>
      <trkpt lat="50.59005" lon="3.60243">
        <ele>63.8</ele>
        <time>2022-05-05T01:50:47Z</time>
      </trkpt>
      <trkpt lat="50.59" lon="3.60238">
        <ele>63.7</ele>
        <time>2022-05-05T01:50:47Z</time>
      </trkpt>
      <trkpt lat="50.58995" lon="3.60234">
        <ele>63.7</ele>
        <time>2022-05-05T01:50:48Z</time>
      </trkpt>
      <trkpt lat="50.5899" lon="3.6023">
        <ele>63.7</ele>
        <time>2022-05-05T01:50:49Z</time>
      </trkpt>
      <trkpt lat="50.58985" lon="3.60225">
        <ele>63.7</ele>
        <time>2022-05-05T01:50:49Z</time>
      </trkpt>
      <trkpt lat="50.5898" lon="3.6022">
        <ele>63.6</ele>
        <time>2022-05-05T01:50:50Z</time>
      </trkpt>
      <trkpt lat="50.58976" lon="3.60213">
        <ele>63.6</ele>
        <time>2022-05-05T01:50:50Z</time>
      </trkpt>
      <trkpt lat="50.58972" lon="3.60206">
        <ele>63.5</ele>
        <time>2022-05-05T01:50:51Z</time>
      </trkpt>
      <trkpt lat="50.58969" lon="3.60199">
        <ele>63.4</ele>
        <time>2022-05-05T01:50:51Z</time>
      </trkpt>
      <trkpt lat="50.58967" lon="3.6019">
        <ele>63.4</ele>
        <time>2022-05-05T01:50:52Z</time>
      </trkpt>
      <trkpt lat="50.58964" lon="3.60181">
        <ele>63.4</ele>
        <time>2022-05-05T01:50:52Z</time>
      </trkpt>
      <trkpt lat="50.58962" lon="3.60171">
        <ele>63.4</ele>
        <time>2022-05-05T01:50:53Z</time>
      </trkpt>
      <trkpt lat="50.58959" lon="3.60161">
        <ele>63.4</ele>
        <time>2022-05-05T01:50:54Z</time>
      </trkpt>
      <trkpt lat="50.58957" lon="3.6015">
        <ele>63.5</ele>
        <time>2022-05-05T01:50:54Z</time>
      </trkpt>
      <trkpt lat="50.58955" lon="3.60139">
        <ele>63.6</ele>
        <time>2022-05-05T01:50:55Z</time>
      </trkpt>
      <trkpt lat="50.58952" lon="3.60129">
        <ele>63.8</ele>
        <time>2022-05-05T01:50:56Z</time>
      </trkpt>
      <trkpt lat="50.58951" lon="3.60118">
        <ele>64.2</ele>
        <time>2022-05-05T01:50:57Z</time>
      </trkpt>
      <trkpt lat="50.58949" lon="3.60107">
        <ele>64.2</ele>
        <time>2022-05-05T01:50:57Z</time>
      </trkpt>
      <trkpt lat="50.58947" lon="3.60097">
        <ele>64.2</ele>
        <time>2022-05-05T01:50:58Z</time>
      </trkpt>
      <trkpt lat="50.58946" lon="3.60087">
        <ele>64.4</ele>
        <time>2022-05-05T01:50:58Z</time>
      </trkpt>
      <trkpt lat="50.58944" lon="3.60075">
        <ele>64.6</ele>
        <time>2022-05-05T01:50:59Z</time>
      </trkpt>
      <trkpt lat="50.58943" lon="3.60063">
        <ele>64.8</ele>
        <time>2022-05-05T01:51:00Z</time>
      </trkpt>
      <trkpt lat="50.58942" lon="3.60053">
        <ele>65.4</ele>
        <time>2022-05-05T01:51:01Z</time>
      </trkpt>
      <trkpt lat="50.58942" lon="3.60041">
        <ele>65.7</ele>
        <time>2022-05-05T01:51:01Z</time>
      </trkpt>
      <trkpt lat="50.58941" lon="3.60031">
        <ele>65.7</ele>
        <time>2022-05-05T01:51:02Z</time>
      </trkpt>
      <trkpt lat="50.58941" lon="3.60021">
        <ele>65.7</ele>
        <time>2022-05-05T01:51:02Z</time>
      </trkpt>
      <trkpt lat="50.58941" lon="3.6001">
        <ele>65.7</ele>
        <time>2022-05-05T01:51:03Z</time>
      </trkpt>
      <trkpt lat="50.58941" lon="3.6">
        <ele>65.7</ele>
        <time>2022-05-05T01:51:04Z</time>
      </trkpt>
      <trkpt lat="50.5894" lon="3.5999">
        <ele>65.7</ele>
        <time>2022-05-05T01:51:04Z</time>
      </trkpt>
      <trkpt lat="50.58939" lon="3.5998">
        <ele>65.7</ele>
        <time>2022-05-05T01:51:05Z</time>
      </trkpt>
      <trkpt lat="50.58939" lon="3.59971">
        <ele>65.6</ele>
        <time>2022-05-05T01:51:06Z</time>
      </trkpt>
      <trkpt lat="50.58938" lon="3.59962">
        <ele>65.6</ele>
        <time>2022-05-05T01:51:06Z</time>
      </trkpt>
      <trkpt lat="50.58937" lon="3.59954">
        <ele>65.5</ele>
        <time>2022-05-05T01:51:07Z</time>
      </trkpt>
      <trkpt lat="50.58937" lon="3.59945">
        <ele>65.3</ele>
        <time>2022-05-05T01:51:07Z</time>
      </trkpt>
      <trkpt lat="50.58937" lon="3.59938">
        <ele>65.2</ele>
        <time>2022-05-05T01:51:08Z</time>
      </trkpt>
      <trkpt lat="50.58937" lon="3.5993">
        <ele>65</ele>
        <time>2022-05-05T01:51:08Z</time>
      </trkpt>
      <trkpt lat="50.58935" lon="3.59923">
        <ele>65</ele>
        <time>2022-05-05T01:51:08Z</time>
      </trkpt>
      <trkpt lat="50.58933" lon="3.59916">
        <ele>64.9</ele>
        <time>2022-05-05T01:51:09Z</time>
      </trkpt>
      <trkpt lat="50.58932" lon="3.59908">
        <ele>64.9</ele>
        <time>2022-05-05T01:51:09Z</time>
      </trkpt>
      <trkpt lat="50.58929" lon="3.59902">
        <ele>64.8</ele>
        <time>2022-05-05T01:51:10Z</time>
      </trkpt>
      <trkpt lat="50.58926" lon="3.59895">
        <ele>64.7</ele>
        <time>2022-05-05T01:51:10Z</time>
      </trkpt>
      <trkpt lat="50.58924" lon="3.59889">
        <ele>64.7</ele>
        <time>2022-05-05T01:51:11Z</time>
      </trkpt>
      <trkpt lat="50.58921" lon="3.59883">
        <ele>64.6</ele>
        <time>2022-05-05T01:51:11Z</time>
      </trkpt>
      <trkpt lat="50.58919" lon="3.59877">
        <ele>64.5</ele>
        <time>2022-05-05T01:51:12Z</time>
      </trkpt>
      <trkpt lat="50.58916" lon="3.59871">
        <ele>64.4</ele>
        <time>2022-05-05T01:51:12Z</time>
      </trkpt>
      <trkpt lat="50.58914" lon="3.59866">
        <ele>64.2</ele>
        <time>2022-05-05T01:51:12Z</time>
      </trkpt>
      <trkpt lat="50.58911" lon="3.59861">
        <ele>64.1</ele>
        <time>2022-05-05T01:51:13Z</time>
      </trkpt>
      <trkpt lat="50.58908" lon="3.59855">
        <ele>64</ele>
        <time>2022-05-05T01:51:13Z</time>
      </trkpt>
      <trkpt lat="50.58905" lon="3.59848">
        <ele>63.9</ele>
        <time>2022-05-05T01:51:14Z</time>
      </trkpt>
      <trkpt lat="50.58902" lon="3.5984">
        <ele>63.9</ele>
        <time>2022-05-05T01:51:14Z</time>
      </trkpt>
      <trkpt lat="50.58898" lon="3.59832">
        <ele>63.9</ele>
        <time>2022-05-05T01:51:15Z</time>
      </trkpt>
      <trkpt lat="50.58895" lon="3.59826">
        <ele>63.7</ele>
        <time>2022-05-05T01:51:16Z</time>
      </trkpt>
      <trkpt lat="50.58891" lon="3.5982">
        <ele>63.6</ele>
        <time>2022-05-05T01:51:16Z</time>
      </trkpt>
      <trkpt lat="50.58888" lon="3.59815">
        <ele>63.6</ele>
        <time>2022-05-05T01:51:16Z</time>
      </trkpt>
      <trkpt lat="50.58885" lon="3.59809">
        <ele>63.5</ele>
        <time>2022-05-05T01:51:17Z</time>
      </trkpt>
      <trkpt lat="50.58883" lon="3.59805">
        <ele>63.5</ele>
        <time>2022-05-05T01:51:17Z</time>
      </trkpt>
      <trkpt lat="50.58878" lon="3.59797">
        <ele>63.5</ele>
        <time>2022-05-05T01:51:18Z</time>
      </trkpt>
      <trkpt lat="50.58874" lon="3.59791">
        <ele>63.4</ele>
        <time>2022-05-05T01:51:18Z</time>
      </trkpt>
      <trkpt lat="50.58869" lon="3.59786">
        <ele>63.2</ele>
        <time>2022-05-05T01:51:19Z</time>
      </trkpt>
      <trkpt lat="50.58864" lon="3.59781">
        <ele>63.1</ele>
        <time>2022-05-05T01:51:20Z</time>
      </trkpt>
      <trkpt lat="50.5886" lon="3.59775">
        <ele>62.9</ele>
        <time>2022-05-05T01:51:20Z</time>
      </trkpt>
      <trkpt lat="50.58855" lon="3.59768">
        <ele>62.8</ele>
        <time>2022-05-05T01:51:21Z</time>
      </trkpt>
      <trkpt lat="50.58849" lon="3.5976">
        <ele>62.7</ele>
        <time>2022-05-05T01:51:21Z</time>
      </trkpt>
      <trkpt lat="50.58844" lon="3.59754">
        <ele>62.7</ele>
        <time>2022-05-05T01:51:22Z</time>
      </trkpt>
      <trkpt lat="50.58839" lon="3.59749">
        <ele>62.7</ele>
        <time>2022-05-05T01:51:23Z</time>
      </trkpt>
      <trkpt lat="50.58834" lon="3.59743">
        <ele>62.6</ele>
        <time>2022-05-05T01:51:23Z</time>
      </trkpt>
      <trkpt lat="50.58829" lon="3.59738">
        <ele>62.5</ele>
        <time>2022-05-05T01:51:24Z</time>
      </trkpt>
      <trkpt lat="50.58823" lon="3.59734">
        <ele>62.4</ele>
        <time>2022-05-05T01:51:24Z</time>
      </trkpt>
      <trkpt lat="50.58818" lon="3.59729">
        <ele>62.3</ele>
        <time>2022-05-05T01:51:25Z</time>
      </trkpt>
      <trkpt lat="50.58811" lon="3.59722">
        <ele>62.2</ele>
        <time>2022-05-05T01:51:26Z</time>
      </trkpt>
      <trkpt lat="50.58805" lon="3.59717">
        <ele>62.3</ele>
        <time>2022-05-05T01:51:26Z</time>
      </trkpt>
      <trkpt lat="50.588" lon="3.59712">
        <ele>62.3</ele>
        <time>2022-05-05T01:51:27Z</time>
      </trkpt>
      <trkpt lat="50.58793" lon="3.59707">
        <ele>62.2</ele>
        <time>2022-05-05T01:51:28Z</time>
      </trkpt>
      <trkpt lat="50.58783" lon="3.597">
        <ele>62.1</ele>
        <time>2022-05-05T01:51:29Z</time>
      </trkpt>
      <trkpt lat="50.58773" lon="3.59696">
        <ele>62</ele>
        <time>2022-05-05T01:51:30Z</time>
      </trkpt>
      <trkpt lat="50.58764" lon="3.5969">
        <ele>61.9</ele>
        <time>2022-05-05T01:51:31Z</time>
      </trkpt>
      <trkpt lat="50.58755" lon="3.59684">
        <ele>61.9</ele>
        <time>2022-05-05T01:51:31Z</time>
      </trkpt>
      <trkpt lat="50.58747" lon="3.59679">
        <ele>61.9</ele>
        <time>2022-05-05T01:51:32Z</time>
      </trkpt>
      <trkpt lat="50.58738" lon="3.59672">
        <ele>62</ele>
        <time>2022-05-05T01:51:33Z</time>
      </trkpt>
      <trkpt lat="50.58729" lon="3.59666">
        <ele>62</ele>
        <time>2022-05-05T01:51:34Z</time>
      </trkpt>
      <trkpt lat="50.58722" lon="3.59662">
        <ele>62.1</ele>
        <time>2022-05-05T01:51:35Z</time>
      </trkpt>
      <trkpt lat="50.58714" lon="3.59659">
        <ele>62.2</ele>
        <time>2022-05-05T01:51:36Z</time>
      </trkpt>
      <trkpt lat="50.58705" lon="3.59655">
        <ele>62.2</ele>
        <time>2022-05-05T01:51:37Z</time>
      </trkpt>
      <trkpt lat="50.58694" lon="3.59649">
        <ele>62.3</ele>
        <time>2022-05-05T01:51:38Z</time>
      </trkpt>
      <trkpt lat="50.58684" lon="3.59644">
        <ele>62.3</ele>
        <time>2022-05-05T01:51:39Z</time>
      </trkpt>
      <trkpt lat="50.58674" lon="3.5964">
        <ele>62.5</ele>
        <time>2022-05-05T01:51:40Z</time>
      </trkpt>
      <trkpt lat="50.58666" lon="3.59635">
        <ele>62.8</ele>
        <time>2022-05-05T01:51:41Z</time>
      </trkpt>
      <trkpt lat="50.58658" lon="3.59629">
        <ele>63</ele>
        <time>2022-05-05T01:51:41Z</time>
      </trkpt>
      <trkpt lat="50.5865" lon="3.59623">
        <ele>63.2</ele>
        <time>2022-05-05T01:51:42Z</time>
      </trkpt>
      <trkpt lat="50.58642" lon="3.59616">
        <ele>63.3</ele>
        <time>2022-05-05T01:51:43Z</time>
      </trkpt>
      <trkpt lat="50.58635" lon="3.59609">
        <ele>63.4</ele>
        <time>2022-05-05T01:51:44Z</time>
      </trkpt>
      <trkpt lat="50.58628" lon="3.59601">
        <ele>63.5</ele>
        <time>2022-05-05T01:51:45Z</time>
      </trkpt>
      <trkpt lat="50.58623" lon="3.59594">
        <ele>63.6</ele>
        <time>2022-05-05T01:51:45Z</time>
      </trkpt>
      <trkpt lat="50.58617" lon="3.59587">
        <ele>63.8</ele>
        <time>2022-05-05T01:51:46Z</time>
      </trkpt>
      <trkpt lat="50.58612" lon="3.59579">
        <ele>64</ele>
        <time>2022-05-05T01:51:47Z</time>
      </trkpt>
      <trkpt lat="50.58606" lon="3.5957">
        <ele>64.2</ele>
        <time>2022-05-05T01:51:48Z</time>
      </trkpt>
      <trkpt lat="50.58599" lon="3.59561">
        <ele>64.4</ele>
        <time>2022-05-05T01:51:48Z</time>
      </trkpt>
      <trkpt lat="50.58592" lon="3.59552">
        <ele>64.6</ele>
        <time>2022-05-05T01:51:49Z</time>
      </trkpt>
      <trkpt lat="50.58586" lon="3.59542">
        <ele>64.8</ele>
        <time>2022-05-05T01:51:50Z</time>
      </trkpt>
      <trkpt lat="50.58579" lon="3.59532">
        <ele>65</ele>
        <time>2022-05-05T01:51:51Z</time>
      </trkpt>
      <trkpt lat="50.58572" lon="3.59523">
        <ele>65.3</ele>
        <time>2022-05-05T01:51:52Z</time>
      </trkpt>
      <trkpt lat="50.58565" lon="3.59513">
        <ele>65.6</ele>
        <time>2022-05-05T01:51:53Z</time>
      </trkpt>
      <trkpt lat="50.58558" lon="3.59501">
        <ele>65.9</ele>
        <time>2022-05-05T01:51:54Z</time>
      </trkpt>
      <trkpt lat="50.58551" lon="3.59488">
        <ele>66.1</ele>
        <time>2022-05-05T01:51:55Z</time>
      </trkpt>
      <trkpt lat="50.58543" lon="3.59474">
        <ele>66.4</ele>
        <time>2022-05-05T01:51:56Z</time>
      </trkpt>
      <trkpt lat="50.58535" lon="3.5946">
        <ele>66.6</ele>
        <time>2022-05-05T01:51:57Z</time>
      </trkpt>
      <trkpt lat="50.58527" lon="3.59447">
        <ele>66.8</ele>
        <time>2022-05-05T01:51:58Z</time>
      </trkpt>
      <trkpt lat="50.5852" lon="3.59434">
        <ele>67.1</ele>
        <time>2022-05-05T01:51:59Z</time>
      </trkpt>
      <trkpt lat="50.58513" lon="3.59421">
        <ele>67.4</ele>
        <time>2022-05-05T01:52:00Z</time>
      </trkpt>
      <trkpt lat="50.58506" lon="3.59408">
        <ele>67.7</ele>
        <time>2022-05-05T01:52:01Z</time>
      </trkpt>
      <trkpt lat="50.585" lon="3.59397">
        <ele>67.8</ele>
        <time>2022-05-05T01:52:02Z</time>
      </trkpt>
      <trkpt lat="50.58494" lon="3.59387">
        <ele>67.8</ele>
        <time>2022-05-05T01:52:03Z</time>
      </trkpt>
      <trkpt lat="50.58489" lon="3.59376">
        <ele>67.7</ele>
        <time>2022-05-05T01:52:04Z</time>
      </trkpt>
      <trkpt lat="50.58484" lon="3.59367">
        <ele>67.6</ele>
        <time>2022-05-05T01:52:04Z</time>
      </trkpt>
      <trkpt lat="50.5848" lon="3.59359">
        <ele>67.5</ele>
        <time>2022-05-05T01:52:05Z</time>
      </trkpt>
      <trkpt lat="50.58475" lon="3.59351">
        <ele>67.4</ele>
        <time>2022-05-05T01:52:06Z</time>
      </trkpt>
      <trkpt lat="50.58471" lon="3.59343">
        <ele>67.4</ele>
        <time>2022-05-05T01:52:06Z</time>
      </trkpt>
      <trkpt lat="50.58468" lon="3.59336">
        <ele>67.4</ele>
        <time>2022-05-05T01:52:07Z</time>
      </trkpt>
      <trkpt lat="50.58465" lon="3.5933">
        <ele>67.5</ele>
        <time>2022-05-05T01:52:07Z</time>
      </trkpt>
      <trkpt lat="50.58462" lon="3.59324">
        <ele>67.4</ele>
        <time>2022-05-05T01:52:08Z</time>
      </trkpt>
      <trkpt lat="50.58459" lon="3.59318">
        <ele>67.4</ele>
        <time>2022-05-05T01:52:08Z</time>
      </trkpt>
      <trkpt lat="50.58443" lon="3.5932">
        <ele>54.8</ele>
        <time>2022-05-05T01:52:10Z</time>
      </trkpt>
      <trkpt lat="50.58438" lon="3.59325">
        <ele>66.2</ele>
        <time>2022-05-05T01:52:10Z</time>
      </trkpt>
      <trkpt lat="50.58433" lon="3.59332">
        <ele>67.5</ele>
        <time>2022-05-05T01:52:11Z</time>
      </trkpt>
      <trkpt lat="50.58427" lon="3.59336">
        <ele>60.6</ele>
        <time>2022-05-05T01:52:12Z</time>
      </trkpt>
      <trkpt lat="50.58421" lon="3.59341">
        <ele>67.4</ele>
        <time>2022-05-05T01:52:12Z</time>
      </trkpt>
      <trkpt lat="50.58415" lon="3.59346">
        <ele>68.3</ele>
        <time>2022-05-05T01:52:13Z</time>
      </trkpt>
      <trkpt lat="50.58408" lon="3.59351">
        <ele>68.5</ele>
        <time>2022-05-05T01:52:14Z</time>
      </trkpt>
      <trkpt lat="50.58401" lon="3.59358">
        <ele>68.6</ele>
        <time>2022-05-05T01:52:14Z</time>
      </trkpt>
      <trkpt lat="50.58394" lon="3.59366">
        <ele>68.8</ele>
        <time>2022-05-05T01:52:15Z</time>
      </trkpt>
      <trkpt lat="50.58387" lon="3.59372">
        <ele>68.9</ele>
        <time>2022-05-05T01:52:16Z</time>
      </trkpt>
      <trkpt lat="50.5838" lon="3.59378">
        <ele>69</ele>
        <time>2022-05-05T01:52:17Z</time>
      </trkpt>
      <trkpt lat="50.58372" lon="3.59382">
        <ele>62</ele>
        <time>2022-05-05T01:52:18Z</time>
      </trkpt>
      <trkpt lat="50.58364" lon="3.59387">
        <ele>68.5</ele>
        <time>2022-05-05T01:52:18Z</time>
      </trkpt>
      <trkpt lat="50.58358" lon="3.59391">
        <ele>62</ele>
        <time>2022-05-05T01:52:19Z</time>
      </trkpt>
      <trkpt lat="50.58352" lon="3.59394">
        <ele>68.6</ele>
        <time>2022-05-05T01:52:20Z</time>
      </trkpt>
      <trkpt lat="50.58344" lon="3.59398">
        <ele>69.3</ele>
        <time>2022-05-05T01:52:20Z</time>
      </trkpt>
      <trkpt lat="50.58337" lon="3.59401">
        <ele>69.3</ele>
        <time>2022-05-05T01:52:21Z</time>
      </trkpt>
      <trkpt lat="50.58331" lon="3.59404">
        <ele>69.2</ele>
        <time>2022-05-05T01:52:22Z</time>
      </trkpt>
      <trkpt lat="50.58323" lon="3.59407">
        <ele>69.1</ele>
        <time>2022-05-05T01:52:22Z</time>
      </trkpt>
      <trkpt lat="50.58316" lon="3.5941">
        <ele>68.9</ele>
        <time>2022-05-05T01:52:23Z</time>
      </trkpt>
      <trkpt lat="50.58308" lon="3.59413">
        <ele>68.6</ele>
        <time>2022-05-05T01:52:24Z</time>
      </trkpt>
      <trkpt lat="50.58302" lon="3.59417">
        <ele>68.3</ele>
        <time>2022-05-05T01:52:25Z</time>
      </trkpt>
      <trkpt lat="50.58296" lon="3.5942">
        <ele>68</ele>
        <time>2022-05-05T01:52:25Z</time>
      </trkpt>
      <trkpt lat="50.58289" lon="3.59425">
        <ele>67.7</ele>
        <time>2022-05-05T01:52:26Z</time>
      </trkpt>
      <trkpt lat="50.58282" lon="3.5943">
        <ele>67.4</ele>
        <time>2022-05-05T01:52:27Z</time>
      </trkpt>
      <trkpt lat="50.58275" lon="3.59435">
        <ele>67.1</ele>
        <time>2022-05-05T01:52:27Z</time>
      </trkpt>
      <trkpt lat="50.58268" lon="3.59441">
        <ele>66.8</ele>
        <time>2022-05-05T01:52:28Z</time>
      </trkpt>
      <trkpt lat="50.58261" lon="3.59447">
        <ele>66.5</ele>
        <time>2022-05-05T01:52:29Z</time>
      </trkpt>
      <trkpt lat="50.58254" lon="3.59454">
        <ele>66.1</ele>
        <time>2022-05-05T01:52:30Z</time>
      </trkpt>
      <trkpt lat="50.58246" lon="3.59461">
        <ele>65.7</ele>
        <time>2022-05-05T01:52:30Z</time>
      </trkpt>
      <trkpt lat="50.5824" lon="3.59471">
        <ele>65.4</ele>
        <time>2022-05-05T01:52:31Z</time>
      </trkpt>
      <trkpt lat="50.58233" lon="3.59479">
        <ele>65.2</ele>
        <time>2022-05-05T01:52:32Z</time>
      </trkpt>
      <trkpt lat="50.58227" lon="3.59488">
        <ele>64.9</ele>
        <time>2022-05-05T01:52:33Z</time>
      </trkpt>
      <trkpt lat="50.58221" lon="3.59496">
        <ele>64.5</ele>
        <time>2022-05-05T01:52:34Z</time>
      </trkpt>
      <trkpt lat="50.58215" lon="3.59505">
        <ele>64.1</ele>
        <time>2022-05-05T01:52:35Z</time>
      </trkpt>
      <trkpt lat="50.58208" lon="3.59514">
        <ele>63.8</ele>
        <time>2022-05-05T01:52:35Z</time>
      </trkpt>
      <trkpt lat="50.58201" lon="3.59523">
        <ele>63.6</ele>
        <time>2022-05-05T01:52:36Z</time>
      </trkpt>
      <trkpt lat="50.58193" lon="3.59534">
        <ele>63.4</ele>
        <time>2022-05-05T01:52:37Z</time>
      </trkpt>
      <trkpt lat="50.58185" lon="3.59545">
        <ele>63.1</ele>
        <time>2022-05-05T01:52:38Z</time>
      </trkpt>
      <trkpt lat="50.58177" lon="3.59557">
        <ele>62.7</ele>
        <time>2022-05-05T01:52:39Z</time>
      </trkpt>
      <trkpt lat="50.58169" lon="3.59567">
        <ele>62.4</ele>
        <time>2022-05-05T01:52:40Z</time>
      </trkpt>
      <trkpt lat="50.58161" lon="3.59577">
        <ele>62.1</ele>
        <time>2022-05-05T01:52:41Z</time>
      </trkpt>
      <trkpt lat="50.58153" lon="3.59587">
        <ele>61.8</ele>
        <time>2022-05-05T01:52:42Z</time>
      </trkpt>
      <trkpt lat="50.58146" lon="3.59598">
        <ele>61.5</ele>
        <time>2022-05-05T01:52:43Z</time>
      </trkpt>
      <trkpt lat="50.58138" lon="3.59608">
        <ele>61.2</ele>
        <time>2022-05-05T01:52:44Z</time>
      </trkpt>
      <trkpt lat="50.5813" lon="3.5962">
        <ele>61</ele>
        <time>2022-05-05T01:52:45Z</time>
      </trkpt>
      <trkpt lat="50.58121" lon="3.59631">
        <ele>60.7</ele>
        <time>2022-05-05T01:52:46Z</time>
      </trkpt>
      <trkpt lat="50.58113" lon="3.59642">
        <ele>60.4</ele>
        <time>2022-05-05T01:52:47Z</time>
      </trkpt>
      <trkpt lat="50.58105" lon="3.59651">
        <ele>60.1</ele>
        <time>2022-05-05T01:52:48Z</time>
      </trkpt>
      <trkpt lat="50.58098" lon="3.5966">
        <ele>59.9</ele>
        <time>2022-05-05T01:52:49Z</time>
      </trkpt>
      <trkpt lat="50.58092" lon="3.59669">
        <ele>59.7</ele>
        <time>2022-05-05T01:52:50Z</time>
      </trkpt>
      <trkpt lat="50.58086" lon="3.59677">
        <ele>59.6</ele>
        <time>2022-05-05T01:52:51Z</time>
      </trkpt>
      <trkpt lat="50.5808" lon="3.59685">
        <ele>59.6</ele>
        <time>2022-05-05T01:52:51Z</time>
      </trkpt>
      <trkpt lat="50.58074" lon="3.59693">
        <ele>59.5</ele>
        <time>2022-05-05T01:52:52Z</time>
      </trkpt>
      <trkpt lat="50.58068" lon="3.597">
        <ele>59.4</ele>
        <time>2022-05-05T01:52:53Z</time>
      </trkpt>
      <trkpt lat="50.58062" lon="3.59708">
        <ele>59.2</ele>
        <time>2022-05-05T01:52:54Z</time>
      </trkpt>
      <trkpt lat="50.58056" lon="3.59717">
        <ele>59</ele>
        <time>2022-05-05T01:52:54Z</time>
      </trkpt>
      <trkpt lat="50.58049" lon="3.59725">
        <ele>58.8</ele>
        <time>2022-05-05T01:52:55Z</time>
      </trkpt>
      <trkpt lat="50.58043" lon="3.59733">
        <ele>58.7</ele>
        <time>2022-05-05T01:52:56Z</time>
      </trkpt>
      <trkpt lat="50.58036" lon="3.59741">
        <ele>58.6</ele>
        <time>2022-05-05T01:52:57Z</time>
      </trkpt>
      <trkpt lat="50.5803" lon="3.5975">
        <ele>58.4</ele>
        <time>2022-05-05T01:52:58Z</time>
      </trkpt>
      <trkpt lat="50.58023" lon="3.59759">
        <ele>58.1</ele>
        <time>2022-05-05T01:52:58Z</time>
      </trkpt>
      <trkpt lat="50.58016" lon="3.59768">
        <ele>57.8</ele>
        <time>2022-05-05T01:52:59Z</time>
      </trkpt>
      <trkpt lat="50.58009" lon="3.59778">
        <ele>57.6</ele>
        <time>2022-05-05T01:53:00Z</time>
      </trkpt>
      <trkpt lat="50.58002" lon="3.59787">
        <ele>57.3</ele>
        <time>2022-05-05T01:53:01Z</time>
      </trkpt>
      <trkpt lat="50.57994" lon="3.59796">
        <ele>57.1</ele>
        <time>2022-05-05T01:53:02Z</time>
      </trkpt>
      <trkpt lat="50.57987" lon="3.59806">
        <ele>56.9</ele>
        <time>2022-05-05T01:53:03Z</time>
      </trkpt>
      <trkpt lat="50.5798" lon="3.59814">
        <ele>56.7</ele>
        <time>2022-05-05T01:53:04Z</time>
      </trkpt>
      <trkpt lat="50.57973" lon="3.59823">
        <ele>56.6</ele>
        <time>2022-05-05T01:53:04Z</time>
      </trkpt>
      <trkpt lat="50.57968" lon="3.59832">
        <ele>56.6</ele>
        <time>2022-05-05T01:53:05Z</time>
      </trkpt>
      <trkpt lat="50.57962" lon="3.59842">
        <ele>56.6</ele>
        <time>2022-05-05T01:53:06Z</time>
      </trkpt>
      <trkpt lat="50.57956" lon="3.59852">
        <ele>56.5</ele>
        <time>2022-05-05T01:53:07Z</time>
      </trkpt>
      <trkpt lat="50.57948" lon="3.59862">
        <ele>56.5</ele>
        <time>2022-05-05T01:53:08Z</time>
      </trkpt>
      <trkpt lat="50.57939" lon="3.59871">
        <ele>56.5</ele>
        <time>2022-05-05T01:53:09Z</time>
      </trkpt>
      <trkpt lat="50.57931" lon="3.5988">
        <ele>56.4</ele>
        <time>2022-05-05T01:53:10Z</time>
      </trkpt>
      <trkpt lat="50.57923" lon="3.59889">
        <ele>56.2</ele>
        <time>2022-05-05T01:53:11Z</time>
      </trkpt>
      <trkpt lat="50.57916" lon="3.59898">
        <ele>55.9</ele>
        <time>2022-05-05T01:53:12Z</time>
      </trkpt>
      <trkpt lat="50.57908" lon="3.59907">
        <ele>55.8</ele>
        <time>2022-05-05T01:53:13Z</time>
      </trkpt>
      <trkpt lat="50.57901" lon="3.59916">
        <ele>55.7</ele>
        <time>2022-05-05T01:53:13Z</time>
      </trkpt>
      <trkpt lat="50.57895" lon="3.59925">
        <ele>55.6</ele>
        <time>2022-05-05T01:53:14Z</time>
      </trkpt>
      <trkpt lat="50.57888" lon="3.59934">
        <ele>55.6</ele>
        <time>2022-05-05T01:53:15Z</time>
      </trkpt>
      <trkpt lat="50.57881" lon="3.59941">
        <ele>55.6</ele>
        <time>2022-05-05T01:53:16Z</time>
      </trkpt>
      <trkpt lat="50.57876" lon="3.59949">
        <ele>55.5</ele>
        <time>2022-05-05T01:53:17Z</time>
      </trkpt>
      <trkpt lat="50.57871" lon="3.59955">
        <ele>55.5</ele>
        <time>2022-05-05T01:53:17Z</time>
      </trkpt>
      <trkpt lat="50.57867" lon="3.5996">
        <ele>55.5</ele>
        <time>2022-05-05T01:53:18Z</time>
      </trkpt>
      <trkpt lat="50.57863" lon="3.59965">
        <ele>55.5</ele>
        <time>2022-05-05T01:53:18Z</time>
      </trkpt>
      <trkpt lat="50.5786" lon="3.59969">
        <ele>55.5</ele>
        <time>2022-05-05T01:53:18Z</time>
      </trkpt>
      <trkpt lat="50.57857" lon="3.59973">
        <ele>55.5</ele>
        <time>2022-05-05T01:53:19Z</time>
      </trkpt>
      <trkpt lat="50.57853" lon="3.59973">
        <ele>55.5</ele>
        <time>2022-05-05T01:53:19Z</time>
      </trkpt>
      <trkpt lat="50.57848" lon="3.59968">
        <ele>55.5</ele>
        <time>2022-05-05T01:53:20Z</time>
      </trkpt>
      <trkpt lat="50.57839" lon="3.59961">
        <ele>55.5</ele>
        <time>2022-05-05T01:53:21Z</time>
      </trkpt>
      <trkpt lat="50.57828" lon="3.59953">
        <ele>55.5</ele>
        <time>2022-05-05T01:53:22Z</time>
      </trkpt>
      <trkpt lat="50.57816" lon="3.59945">
        <ele>55.5</ele>
        <time>2022-05-05T01:53:23Z</time>
      </trkpt>
      <trkpt lat="50.57803" lon="3.59936">
        <ele>55.5</ele>
        <time>2022-05-05T01:53:24Z</time>
      </trkpt>
      <trkpt lat="50.57791" lon="3.59928">
        <ele>55.5</ele>
        <time>2022-05-05T01:53:26Z</time>
      </trkpt>
      <trkpt lat="50.5778" lon="3.5992">
        <ele>55.5</ele>
        <time>2022-05-05T01:53:27Z</time>
      </trkpt>
      <trkpt lat="50.57771" lon="3.59912">
        <ele>55.5</ele>
        <time>2022-05-05T01:53:28Z</time>
      </trkpt>
      <trkpt lat="50.57762" lon="3.59906">
        <ele>55.6</ele>
        <time>2022-05-05T01:53:29Z</time>
      </trkpt>
      <trkpt lat="50.57756" lon="3.59901">
        <ele>55.8</ele>
        <time>2022-05-05T01:53:29Z</time>
      </trkpt>
      <trkpt lat="50.57751" lon="3.59897">
        <ele>55.9</ele>
        <time>2022-05-05T01:53:30Z</time>
      </trkpt>
      <trkpt lat="50.57748" lon="3.59898">
        <ele>56.1</ele>
        <time>2022-05-05T01:53:30Z</time>
      </trkpt>
      <trkpt lat="50.57745" lon="3.59901">
        <ele>56.3</ele>
        <time>2022-05-05T01:53:31Z</time>
      </trkpt>
      <trkpt lat="50.57743" lon="3.59908">
        <ele>56.4</ele>
        <time>2022-05-05T01:53:31Z</time>
      </trkpt>
      <trkpt lat="50.5774" lon="3.59917">
        <ele>56.4</ele>
        <time>2022-05-05T01:53:32Z</time>
      </trkpt>
      <trkpt lat="50.57737" lon="3.59929">
        <ele>56.4</ele>
        <time>2022-05-05T01:53:32Z</time>
      </trkpt>
      <trkpt lat="50.57734" lon="3.59942">
        <ele>56.3</ele>
        <time>2022-05-05T01:53:33Z</time>
      </trkpt>
      <trkpt lat="50.5773" lon="3.59956">
        <ele>56.1</ele>
        <time>2022-05-05T01:53:34Z</time>
      </trkpt>
      <trkpt lat="50.57726" lon="3.5997">
        <ele>55.9</ele>
        <time>2022-05-05T01:53:35Z</time>
      </trkpt>
      <trkpt lat="50.57723" lon="3.59984">
        <ele>55.7</ele>
        <time>2022-05-05T01:53:36Z</time>
      </trkpt>
      <trkpt lat="50.57719" lon="3.59999">
        <ele>55.6</ele>
        <time>2022-05-05T01:53:37Z</time>
      </trkpt>
      <trkpt lat="50.57716" lon="3.60012">
        <ele>55.6</ele>
        <time>2022-05-05T01:53:38Z</time>
      </trkpt>
      <trkpt lat="50.57712" lon="3.60026">
        <ele>55.4</ele>
        <time>2022-05-05T01:53:39Z</time>
      </trkpt>
      <trkpt lat="50.57709" lon="3.60039">
        <ele>55.1</ele>
        <time>2022-05-05T01:53:40Z</time>
      </trkpt>
      <trkpt lat="50.57706" lon="3.60051">
        <ele>54.9</ele>
        <time>2022-05-05T01:53:40Z</time>
      </trkpt>
      <trkpt lat="50.57703" lon="3.60063">
        <ele>54.7</ele>
        <time>2022-05-05T01:53:41Z</time>
      </trkpt>
      <trkpt lat="50.577" lon="3.60074">
        <ele>54.7</ele>
        <time>2022-05-05T01:53:42Z</time>
      </trkpt>
      <trkpt lat="50.57697" lon="3.60086">
        <ele>54.6</ele>
        <time>2022-05-05T01:53:43Z</time>
      </trkpt>
      <trkpt lat="50.57694" lon="3.60097">
        <ele>54.5</ele>
        <time>2022-05-05T01:53:43Z</time>
      </trkpt>
      <trkpt lat="50.57691" lon="3.60108">
        <ele>54.3</ele>
        <time>2022-05-05T01:53:44Z</time>
      </trkpt>
      <trkpt lat="50.57688" lon="3.60118">
        <ele>54.1</ele>
        <time>2022-05-05T01:53:45Z</time>
      </trkpt>
      <trkpt lat="50.57685" lon="3.60129">
        <ele>53.9</ele>
        <time>2022-05-05T01:53:45Z</time>
      </trkpt>
      <trkpt lat="50.57682" lon="3.60139">
        <ele>53.7</ele>
        <time>2022-05-05T01:53:46Z</time>
      </trkpt>
      <trkpt lat="50.5768" lon="3.6015">
        <ele>53.6</ele>
        <time>2022-05-05T01:53:47Z</time>
      </trkpt>
      <trkpt lat="50.57677" lon="3.60161">
        <ele>53.6</ele>
        <time>2022-05-05T01:53:48Z</time>
      </trkpt>
      <trkpt lat="50.57674" lon="3.60172">
        <ele>53.6</ele>
        <time>2022-05-05T01:53:48Z</time>
      </trkpt>
      <trkpt lat="50.57671" lon="3.60184">
        <ele>53.3</ele>
        <time>2022-05-05T01:53:49Z</time>
      </trkpt>
      <trkpt lat="50.57668" lon="3.60196">
        <ele>53.1</ele>
        <time>2022-05-05T01:53:50Z</time>
      </trkpt>
      <trkpt lat="50.57665" lon="3.60207">
        <ele>53</ele>
        <time>2022-05-05T01:53:51Z</time>
      </trkpt>
      <trkpt lat="50.57663" lon="3.60218">
        <ele>52.9</ele>
        <time>2022-05-05T01:53:51Z</time>
      </trkpt>
      <trkpt lat="50.5766" lon="3.60229">
        <ele>52.8</ele>
        <time>2022-05-05T01:53:52Z</time>
      </trkpt>
      <trkpt lat="50.57657" lon="3.6024">
        <ele>52.7</ele>
        <time>2022-05-05T01:53:53Z</time>
      </trkpt>
      <trkpt lat="50.57655" lon="3.6025">
        <ele>52.6</ele>
        <time>2022-05-05T01:53:53Z</time>
      </trkpt>
      <trkpt lat="50.57653" lon="3.60259">
        <ele>52.6</ele>
        <time>2022-05-05T01:53:54Z</time>
      </trkpt>
      <trkpt lat="50.5765" lon="3.60267">
        <ele>52.4</ele>
        <time>2022-05-05T01:53:54Z</time>
      </trkpt>
      <trkpt lat="50.57647" lon="3.60276">
        <ele>52.3</ele>
        <time>2022-05-05T01:53:55Z</time>
      </trkpt>
      <trkpt lat="50.57645" lon="3.60286">
        <ele>52.1</ele>
        <time>2022-05-05T01:53:56Z</time>
      </trkpt>
      <trkpt lat="50.57642" lon="3.60297">
        <ele>52</ele>
        <time>2022-05-05T01:53:56Z</time>
      </trkpt>
      <trkpt lat="50.5764" lon="3.60308">
        <ele>51.9</ele>
        <time>2022-05-05T01:53:57Z</time>
      </trkpt>
      <trkpt lat="50.57637" lon="3.60319">
        <ele>51.9</ele>
        <time>2022-05-05T01:53:58Z</time>
      </trkpt>
      <trkpt lat="50.57634" lon="3.6033">
        <ele>51.9</ele>
        <time>2022-05-05T01:53:59Z</time>
      </trkpt>
      <trkpt lat="50.57631" lon="3.60341">
        <ele>51.8</ele>
        <time>2022-05-05T01:53:59Z</time>
      </trkpt>
      <trkpt lat="50.57629" lon="3.60351">
        <ele>51.8</ele>
        <time>2022-05-05T01:54:00Z</time>
      </trkpt>
      <trkpt lat="50.57626" lon="3.60361">
        <ele>51.8</ele>
        <time>2022-05-05T01:54:01Z</time>
      </trkpt>
      <trkpt lat="50.57624" lon="3.6037">
        <ele>51.8</ele>
        <time>2022-05-05T01:54:01Z</time>
      </trkpt>
      <trkpt lat="50.57621" lon="3.6038">
        <ele>51.8</ele>
        <time>2022-05-05T01:54:02Z</time>
      </trkpt>
      <trkpt lat="50.57618" lon="3.6039">
        <ele>51.8</ele>
        <time>2022-05-05T01:54:03Z</time>
      </trkpt>
      <trkpt lat="50.57615" lon="3.604">
        <ele>51.8</ele>
        <time>2022-05-05T01:54:03Z</time>
      </trkpt>
      <trkpt lat="50.57612" lon="3.60409">
        <ele>51.8</ele>
        <time>2022-05-05T01:54:04Z</time>
      </trkpt>
      <trkpt lat="50.5761" lon="3.60417">
        <ele>51.8</ele>
        <time>2022-05-05T01:54:04Z</time>
      </trkpt>
      <trkpt lat="50.57608" lon="3.60425">
        <ele>51.8</ele>
        <time>2022-05-05T01:54:05Z</time>
      </trkpt>
      <trkpt lat="50.57606" lon="3.60432">
        <ele>51.8</ele>
        <time>2022-05-05T01:54:05Z</time>
      </trkpt>
      <trkpt lat="50.57602" lon="3.60442">
        <ele>51.8</ele>
        <time>2022-05-05T01:54:06Z</time>
      </trkpt>
      <trkpt lat="50.576" lon="3.60452">
        <ele>51.8</ele>
        <time>2022-05-05T01:54:07Z</time>
      </trkpt>
      <trkpt lat="50.57598" lon="3.60464">
        <ele>51.8</ele>
        <time>2022-05-05T01:54:07Z</time>
      </trkpt>
      <trkpt lat="50.57595" lon="3.60474">
        <ele>51.8</ele>
        <time>2022-05-05T01:54:08Z</time>
      </trkpt>
      <trkpt lat="50.57592" lon="3.60484">
        <ele>51.8</ele>
        <time>2022-05-05T01:54:09Z</time>
      </trkpt>
      <trkpt lat="50.57589" lon="3.60494">
        <ele>51.8</ele>
        <time>2022-05-05T01:54:09Z</time>
      </trkpt>
      <trkpt lat="50.57587" lon="3.60505">
        <ele>51.8</ele>
        <time>2022-05-05T01:54:10Z</time>
      </trkpt>
      <trkpt lat="50.57584" lon="3.60515">
        <ele>51.8</ele>
        <time>2022-05-05T01:54:11Z</time>
      </trkpt>
      <trkpt lat="50.57583" lon="3.60525">
        <ele>51.8</ele>
        <time>2022-05-05T01:54:11Z</time>
      </trkpt>
      <trkpt lat="50.5758" lon="3.60535">
        <ele>51.8</ele>
        <time>2022-05-05T01:54:12Z</time>
      </trkpt>
      <trkpt lat="50.57578" lon="3.60545">
        <ele>51.7</ele>
        <time>2022-05-05T01:54:13Z</time>
      </trkpt>
      <trkpt lat="50.57576" lon="3.60556">
        <ele>51.6</ele>
        <time>2022-05-05T01:54:13Z</time>
      </trkpt>
      <trkpt lat="50.57573" lon="3.60567">
        <ele>51.4</ele>
        <time>2022-05-05T01:54:14Z</time>
      </trkpt>
      <trkpt lat="50.5757" lon="3.60579">
        <ele>51.3</ele>
        <time>2022-05-05T01:54:15Z</time>
      </trkpt>
      <trkpt lat="50.57567" lon="3.60591">
        <ele>51.3</ele>
        <time>2022-05-05T01:54:16Z</time>
      </trkpt>
      <trkpt lat="50.57563" lon="3.60602">
        <ele>51.4</ele>
        <time>2022-05-05T01:54:16Z</time>
      </trkpt>
      <trkpt lat="50.5756" lon="3.60614">
        <ele>51.5</ele>
        <time>2022-05-05T01:54:17Z</time>
      </trkpt>
      <trkpt lat="50.57557" lon="3.60625">
        <ele>51.6</ele>
        <time>2022-05-05T01:54:18Z</time>
      </trkpt>
      <trkpt lat="50.57554" lon="3.60636">
        <ele>51.5</ele>
        <time>2022-05-05T01:54:19Z</time>
      </trkpt>
      <trkpt lat="50.57551" lon="3.60648">
        <ele>51.3</ele>
        <time>2022-05-05T01:54:19Z</time>
      </trkpt>
      <trkpt lat="50.57548" lon="3.6066">
        <ele>51.1</ele>
        <time>2022-05-05T01:54:20Z</time>
      </trkpt>
      <trkpt lat="50.57545" lon="3.60672">
        <ele>51</ele>
        <time>2022-05-05T01:54:21Z</time>
      </trkpt>
      <trkpt lat="50.57542" lon="3.60684">
        <ele>50.9</ele>
        <time>2022-05-05T01:54:22Z</time>
      </trkpt>
      <trkpt lat="50.57539" lon="3.60696">
        <ele>50.9</ele>
        <time>2022-05-05T01:54:22Z</time>
      </trkpt>
      <trkpt lat="50.57536" lon="3.60707">
        <ele>50.9</ele>
        <time>2022-05-05T01:54:23Z</time>
      </trkpt>
      <trkpt lat="50.57533" lon="3.60717">
        <ele>50.8</ele>
        <time>2022-05-05T01:54:24Z</time>
      </trkpt>
      <trkpt lat="50.57531" lon="3.60728">
        <ele>50.8</ele>
        <time>2022-05-05T01:54:25Z</time>
      </trkpt>
      <trkpt lat="50.57529" lon="3.60739">
        <ele>50.8</ele>
        <time>2022-05-05T01:54:25Z</time>
      </trkpt>
      <trkpt lat="50.57526" lon="3.60749">
        <ele>50.8</ele>
        <time>2022-05-05T01:54:26Z</time>
      </trkpt>
      <trkpt lat="50.57524" lon="3.60759">
        <ele>50.8</ele>
        <time>2022-05-05T01:54:27Z</time>
      </trkpt>
      <trkpt lat="50.57522" lon="3.60768">
        <ele>50.8</ele>
        <time>2022-05-05T01:54:27Z</time>
      </trkpt>
      <trkpt lat="50.5752" lon="3.60776">
        <ele>50.8</ele>
        <time>2022-05-05T01:54:28Z</time>
      </trkpt>
      <trkpt lat="50.57518" lon="3.60781">
        <ele>50.8</ele>
        <time>2022-05-05T01:54:28Z</time>
      </trkpt>
      <trkpt lat="50.57517" lon="3.60786">
        <ele>50.8</ele>
        <time>2022-05-05T01:54:28Z</time>
      </trkpt>
      <trkpt lat="50.57514" lon="3.60787">
        <ele>50.8</ele>
        <time>2022-05-05T01:54:29Z</time>
      </trkpt>
      <trkpt lat="50.57512" lon="3.60788">
        <ele>50.8</ele>
        <time>2022-05-05T01:54:29Z</time>
      </trkpt>
      <trkpt lat="50.57508" lon="3.60787">
        <ele>50.8</ele>
        <time>2022-05-05T01:54:29Z</time>
      </trkpt>
      <trkpt lat="50.57504" lon="3.60784">
        <ele>50.8</ele>
        <time>2022-05-05T01:54:30Z</time>
      </trkpt>
      <trkpt lat="50.57499" lon="3.6078">
        <ele>50.8</ele>
        <time>2022-05-05T01:54:30Z</time>
      </trkpt>
      <trkpt lat="50.57492" lon="3.60773">
        <ele>50.8</ele>
        <time>2022-05-05T01:54:31Z</time>
      </trkpt>
      <trkpt lat="50.57485" lon="3.60766">
        <ele>50.8</ele>
        <time>2022-05-05T01:54:32Z</time>
      </trkpt>
      <trkpt lat="50.57478" lon="3.60759">
        <ele>50.8</ele>
        <time>2022-05-05T01:54:33Z</time>
      </trkpt>
      <trkpt lat="50.5747" lon="3.60752">
        <ele>50.8</ele>
        <time>2022-05-05T01:54:33Z</time>
      </trkpt>
      <trkpt lat="50.57461" lon="3.60743">
        <ele>50.8</ele>
        <time>2022-05-05T01:54:34Z</time>
      </trkpt>
      <trkpt lat="50.57452" lon="3.60735">
        <ele>50.9</ele>
        <time>2022-05-05T01:54:35Z</time>
      </trkpt>
      <trkpt lat="50.57443" lon="3.60725">
        <ele>51</ele>
        <time>2022-05-05T01:54:36Z</time>
      </trkpt>
      <trkpt lat="50.57434" lon="3.60716">
        <ele>51.2</ele>
        <time>2022-05-05T01:54:37Z</time>
      </trkpt>
      <trkpt lat="50.57425" lon="3.60707">
        <ele>51.4</ele>
        <time>2022-05-05T01:54:38Z</time>
      </trkpt>
      <trkpt lat="50.57418" lon="3.60699">
        <ele>51.6</ele>
        <time>2022-05-05T01:54:39Z</time>
      </trkpt>
      <trkpt lat="50.57411" lon="3.60692">
        <ele>51.7</ele>
        <time>2022-05-05T01:54:40Z</time>
      </trkpt>
      <trkpt lat="50.57403" lon="3.60685">
        <ele>51.7</ele>
        <time>2022-05-05T01:54:41Z</time>
      </trkpt>
      <trkpt lat="50.57395" lon="3.60678">
        <ele>51.8</ele>
        <time>2022-05-05T01:54:42Z</time>
      </trkpt>
      <trkpt lat="50.57386" lon="3.60672">
        <ele>51.8</ele>
        <time>2022-05-05T01:54:43Z</time>
      </trkpt>
      <trkpt lat="50.57377" lon="3.60665">
        <ele>51.8</ele>
        <time>2022-05-05T01:54:44Z</time>
      </trkpt>
      <trkpt lat="50.57368" lon="3.60659">
        <ele>51.6</ele>
        <time>2022-05-05T01:54:45Z</time>
      </trkpt>
      <trkpt lat="50.57359" lon="3.60652">
        <ele>51.4</ele>
        <time>2022-05-05T01:54:46Z</time>
      </trkpt>
      <trkpt lat="50.57351" lon="3.60646">
        <ele>51.2</ele>
        <time>2022-05-05T01:54:46Z</time>
      </trkpt>
      <trkpt lat="50.57343" lon="3.6064">
        <ele>51</ele>
        <time>2022-05-05T01:54:47Z</time>
      </trkpt>
      <trkpt lat="50.57334" lon="3.60635">
        <ele>51</ele>
        <time>2022-05-05T01:54:48Z</time>
      </trkpt>
      <trkpt lat="50.57326" lon="3.60629">
        <ele>50.9</ele>
        <time>2022-05-05T01:54:49Z</time>
      </trkpt>
      <trkpt lat="50.57318" lon="3.60624">
        <ele>50.9</ele>
        <time>2022-05-05T01:54:50Z</time>
      </trkpt>
      <trkpt lat="50.57309" lon="3.60618">
        <ele>50.9</ele>
        <time>2022-05-05T01:54:51Z</time>
      </trkpt>
      <trkpt lat="50.57302" lon="3.60613">
        <ele>50.8</ele>
        <time>2022-05-05T01:54:52Z</time>
      </trkpt>
      <trkpt lat="50.57296" lon="3.60608">
        <ele>50.8</ele>
        <time>2022-05-05T01:54:52Z</time>
      </trkpt>
      <trkpt lat="50.57289" lon="3.60602">
        <ele>50.8</ele>
        <time>2022-05-05T01:54:53Z</time>
      </trkpt>
      <trkpt lat="50.57281" lon="3.60596">
        <ele>50.8</ele>
        <time>2022-05-05T01:54:54Z</time>
      </trkpt>
      <trkpt lat="50.57272" lon="3.60593">
        <ele>50.8</ele>
        <time>2022-05-05T01:54:55Z</time>
      </trkpt>
      <trkpt lat="50.57261" lon="3.60588">
        <ele>50.8</ele>
        <time>2022-05-05T01:54:56Z</time>
      </trkpt>
      <trkpt lat="50.5725" lon="3.6058">
        <ele>50.8</ele>
        <time>2022-05-05T01:54:57Z</time>
      </trkpt>
      <trkpt lat="50.57239" lon="3.60567">
        <ele>50.8</ele>
        <time>2022-05-05T01:54:58Z</time>
      </trkpt>
      <trkpt lat="50.57229" lon="3.60552">
        <ele>50.8</ele>
        <time>2022-05-05T01:55:00Z</time>
      </trkpt>
      <trkpt lat="50.57218" lon="3.60539">
        <ele>50.8</ele>
        <time>2022-05-05T01:55:01Z</time>
      </trkpt>
      <trkpt lat="50.57208" lon="3.60527">
        <ele>50.8</ele>
        <time>2022-05-05T01:55:02Z</time>
      </trkpt>
      <trkpt lat="50.57198" lon="3.60516">
        <ele>50.8</ele>
        <time>2022-05-05T01:55:03Z</time>
      </trkpt>
      <trkpt lat="50.57189" lon="3.60505">
        <ele>50.8</ele>
        <time>2022-05-05T01:55:04Z</time>
      </trkpt>
      <trkpt lat="50.57181" lon="3.60495">
        <ele>50.8</ele>
        <time>2022-05-05T01:55:05Z</time>
      </trkpt>
      <trkpt lat="50.57172" lon="3.60485">
        <ele>50.8</ele>
        <time>2022-05-05T01:55:06Z</time>
      </trkpt>
      <trkpt lat="50.57163" lon="3.60474">
        <ele>50.8</ele>
        <time>2022-05-05T01:55:07Z</time>
      </trkpt>
      <trkpt lat="50.57155" lon="3.60462">
        <ele>50.8</ele>
        <time>2022-05-05T01:55:08Z</time>
      </trkpt>
      <trkpt lat="50.57146" lon="3.60449">
        <ele>50.8</ele>
        <time>2022-05-05T01:55:10Z</time>
      </trkpt>
      <trkpt lat="50.57139" lon="3.60435">
        <ele>50.8</ele>
        <time>2022-05-05T01:55:11Z</time>
      </trkpt>
      <trkpt lat="50.57133" lon="3.60421">
        <ele>50.8</ele>
        <time>2022-05-05T01:55:12Z</time>
      </trkpt>
      <trkpt lat="50.57127" lon="3.60407">
        <ele>50.8</ele>
        <time>2022-05-05T01:55:13Z</time>
      </trkpt>
      <trkpt lat="50.57121" lon="3.60393">
        <ele>50.8</ele>
        <time>2022-05-05T01:55:14Z</time>
      </trkpt>
      <trkpt lat="50.57116" lon="3.60378">
        <ele>50.8</ele>
        <time>2022-05-05T01:55:15Z</time>
      </trkpt>
      <trkpt lat="50.57111" lon="3.60363">
        <ele>51</ele>
        <time>2022-05-05T01:55:16Z</time>
      </trkpt>
      <trkpt lat="50.57105" lon="3.6035">
        <ele>51.2</ele>
        <time>2022-05-05T01:55:17Z</time>
      </trkpt>
      <trkpt lat="50.57098" lon="3.60338">
        <ele>51.4</ele>
        <time>2022-05-05T01:55:18Z</time>
      </trkpt>
      <trkpt lat="50.57089" lon="3.6033">
        <ele>51.5</ele>
        <time>2022-05-05T01:55:19Z</time>
      </trkpt>
      <trkpt lat="50.57079" lon="3.60324">
        <ele>51.6</ele>
        <time>2022-05-05T01:55:20Z</time>
      </trkpt>
      <trkpt lat="50.57069" lon="3.60319">
        <ele>51.7</ele>
        <time>2022-05-05T01:55:21Z</time>
      </trkpt>
      <trkpt lat="50.5706" lon="3.60313">
        <ele>51.6</ele>
        <time>2022-05-05T01:55:22Z</time>
      </trkpt>
      <trkpt lat="50.57052" lon="3.60305">
        <ele>51.6</ele>
        <time>2022-05-05T01:55:23Z</time>
      </trkpt>
      <trkpt lat="50.57044" lon="3.60299">
        <ele>51.7</ele>
        <time>2022-05-05T01:55:23Z</time>
      </trkpt>
      <trkpt lat="50.57036" lon="3.60298">
        <ele>51.7</ele>
        <time>2022-05-05T01:55:24Z</time>
      </trkpt>
      <trkpt lat="50.57027" lon="3.60299">
        <ele>51.8</ele>
        <time>2022-05-05T01:55:25Z</time>
      </trkpt>
      <trkpt lat="50.57018" lon="3.60307">
        <ele>51.8</ele>
        <time>2022-05-05T01:55:26Z</time>
      </trkpt>
      <trkpt lat="50.57009" lon="3.60315">
        <ele>51.7</ele>
        <time>2022-05-05T01:55:27Z</time>
      </trkpt>
      <trkpt lat="50.56999" lon="3.60322">
        <ele>51.4</ele>
        <time>2022-05-05T01:55:28Z</time>
      </trkpt>
      <trkpt lat="50.5699" lon="3.60328">
        <ele>51.2</ele>
        <time>2022-05-05T01:55:29Z</time>
      </trkpt>
      <trkpt lat="50.56982" lon="3.60333">
        <ele>51.1</ele>
        <time>2022-05-05T01:55:30Z</time>
      </trkpt>
      <trkpt lat="50.56973" lon="3.60335">
        <ele>51</ele>
        <time>2022-05-05T01:55:31Z</time>
      </trkpt>
      <trkpt lat="50.56966" lon="3.60331">
        <ele>50.9</ele>
        <time>2022-05-05T01:55:31Z</time>
      </trkpt>
      <trkpt lat="50.5696" lon="3.60323">
        <ele>50.9</ele>
        <time>2022-05-05T01:55:32Z</time>
      </trkpt>
      <trkpt lat="50.56954" lon="3.6031">
        <ele>50.9</ele>
        <time>2022-05-05T01:55:33Z</time>
      </trkpt>
      <trkpt lat="50.5695" lon="3.60297">
        <ele>50.8</ele>
        <time>2022-05-05T01:55:34Z</time>
      </trkpt>
      <trkpt lat="50.56946" lon="3.60283">
        <ele>50.9</ele>
        <time>2022-05-05T01:55:35Z</time>
      </trkpt>
      <trkpt lat="50.56941" lon="3.60272">
        <ele>51.2</ele>
        <time>2022-05-05T01:55:36Z</time>
      </trkpt>
      <trkpt lat="50.56937" lon="3.60261">
        <ele>51.4</ele>
        <time>2022-05-05T01:55:36Z</time>
      </trkpt>
      <trkpt lat="50.56931" lon="3.60249">
        <ele>51.6</ele>
        <time>2022-05-05T01:55:37Z</time>
      </trkpt>
      <trkpt lat="50.56925" lon="3.60235">
        <ele>51.7</ele>
        <time>2022-05-05T01:55:38Z</time>
      </trkpt>
      <trkpt lat="50.56918" lon="3.60219">
        <ele>51.7</ele>
        <time>2022-05-05T01:55:40Z</time>
      </trkpt>
      <trkpt lat="50.5691" lon="3.60202">
        <ele>51.8</ele>
        <time>2022-05-05T01:55:41Z</time>
      </trkpt>
      <trkpt lat="50.56901" lon="3.60187">
        <ele>51.8</ele>
        <time>2022-05-05T01:55:42Z</time>
      </trkpt>
      <trkpt lat="50.56892" lon="3.60175">
        <ele>51.8</ele>
        <time>2022-05-05T01:55:43Z</time>
      </trkpt>
      <trkpt lat="50.56881" lon="3.60164">
        <ele>51.8</ele>
        <time>2022-05-05T01:55:44Z</time>
      </trkpt>
      <trkpt lat="50.5687" lon="3.60154">
        <ele>51.8</ele>
        <time>2022-05-05T01:55:46Z</time>
      </trkpt>
      <trkpt lat="50.56858" lon="3.60145">
        <ele>51.8</ele>
        <time>2022-05-05T01:55:47Z</time>
      </trkpt>
      <trkpt lat="50.56846" lon="3.60134">
        <ele>51.8</ele>
        <time>2022-05-05T01:55:48Z</time>
      </trkpt>
      <trkpt lat="50.56834" lon="3.60121">
        <ele>51.8</ele>
        <time>2022-05-05T01:55:50Z</time>
      </trkpt>
      <trkpt lat="50.56821" lon="3.60105">
        <ele>51.8</ele>
        <time>2022-05-05T01:55:51Z</time>
      </trkpt>
      <trkpt lat="50.56809" lon="3.6009">
        <ele>51.8</ele>
        <time>2022-05-05T01:55:53Z</time>
      </trkpt>
      <trkpt lat="50.56798" lon="3.60075">
        <ele>51.8</ele>
        <time>2022-05-05T01:55:54Z</time>
      </trkpt>
      <trkpt lat="50.56787" lon="3.60063">
        <ele>51.8</ele>
        <time>2022-05-05T01:55:55Z</time>
      </trkpt>
      <trkpt lat="50.56776" lon="3.6005">
        <ele>51.8</ele>
        <time>2022-05-05T01:55:57Z</time>
      </trkpt>
      <trkpt lat="50.56766" lon="3.60037">
        <ele>51.9</ele>
        <time>2022-05-05T01:55:58Z</time>
      </trkpt>
      <trkpt lat="50.56755" lon="3.60022">
        <ele>52.2</ele>
        <time>2022-05-05T01:55:59Z</time>
      </trkpt>
      <trkpt lat="50.56745" lon="3.60006">
        <ele>52.4</ele>
        <time>2022-05-05T01:56:01Z</time>
      </trkpt>
      <trkpt lat="50.56735" lon="3.59991">
        <ele>52.6</ele>
        <time>2022-05-05T01:56:02Z</time>
      </trkpt>
      <trkpt lat="50.56726" lon="3.59976">
        <ele>52.9</ele>
        <time>2022-05-05T01:56:03Z</time>
      </trkpt>
      <trkpt lat="50.56717" lon="3.5996">
        <ele>53.2</ele>
        <time>2022-05-05T01:56:04Z</time>
      </trkpt>
      <trkpt lat="50.56707" lon="3.59943">
        <ele>53.5</ele>
        <time>2022-05-05T01:56:06Z</time>
      </trkpt>
      <trkpt lat="50.56697" lon="3.59925">
        <ele>53.8</ele>
        <time>2022-05-05T01:56:07Z</time>
      </trkpt>
      <trkpt lat="50.56686" lon="3.59905">
        <ele>54.2</ele>
        <time>2022-05-05T01:56:09Z</time>
      </trkpt>
      <trkpt lat="50.56675" lon="3.59886">
        <ele>54.4</ele>
        <time>2022-05-05T01:56:10Z</time>
      </trkpt>
      <trkpt lat="50.56662" lon="3.59869">
        <ele>54.8</ele>
        <time>2022-05-05T01:56:12Z</time>
      </trkpt>
      <trkpt lat="50.56649" lon="3.59851">
        <ele>55.2</ele>
        <time>2022-05-05T01:56:14Z</time>
      </trkpt>
      <trkpt lat="50.56636" lon="3.59834">
        <ele>55.4</ele>
        <time>2022-05-05T01:56:15Z</time>
      </trkpt>
      <trkpt lat="50.56622" lon="3.59818">
        <ele>55.6</ele>
        <time>2022-05-05T01:56:17Z</time>
      </trkpt>
      <trkpt lat="50.56608" lon="3.59805">
        <ele>55.9</ele>
        <time>2022-05-05T01:56:19Z</time>
      </trkpt>
      <trkpt lat="50.56595" lon="3.5979">
        <ele>56.2</ele>
        <time>2022-05-05T01:56:20Z</time>
      </trkpt>
      <trkpt lat="50.56583" lon="3.59778">
        <ele>56.6</ele>
        <time>2022-05-05T01:56:21Z</time>
      </trkpt>
      <trkpt lat="50.56576" lon="3.59767">
        <ele>56.9</ele>
        <time>2022-05-05T01:56:22Z</time>
      </trkpt>
      <trkpt lat="50.56569" lon="3.59754">
        <ele>57.2</ele>
        <time>2022-05-05T01:56:23Z</time>
      </trkpt>
      <trkpt lat="50.56562" lon="3.59737">
        <ele>57.5</ele>
        <time>2022-05-05T01:56:25Z</time>
      </trkpt>
      <trkpt lat="50.56553" lon="3.59719">
        <ele>57.8</ele>
        <time>2022-05-05T01:56:26Z</time>
      </trkpt>
      <trkpt lat="50.56546" lon="3.59699">
        <ele>58.1</ele>
        <time>2022-05-05T01:56:27Z</time>
      </trkpt>
      <trkpt lat="50.56537" lon="3.59677">
        <ele>58.6</ele>
        <time>2022-05-05T01:56:29Z</time>
      </trkpt>
      <trkpt lat="50.56528" lon="3.59657">
        <ele>58.9</ele>
        <time>2022-05-05T01:56:30Z</time>
      </trkpt>
      <trkpt lat="50.56519" lon="3.59637">
        <ele>59.1</ele>
        <time>2022-05-05T01:56:32Z</time>
      </trkpt>
      <trkpt lat="50.5651" lon="3.59617">
        <ele>59.4</ele>
        <time>2022-05-05T01:56:33Z</time>
      </trkpt>
      <trkpt lat="50.56502" lon="3.59597">
        <ele>59.7</ele>
        <time>2022-05-05T01:56:35Z</time>
      </trkpt>
      <trkpt lat="50.56495" lon="3.59577">
        <ele>59.9</ele>
        <time>2022-05-05T01:56:36Z</time>
      </trkpt>
      <trkpt lat="50.56487" lon="3.59559">
        <ele>60.2</ele>
        <time>2022-05-05T01:56:38Z</time>
      </trkpt>
      <trkpt lat="50.56479" lon="3.59541">
        <ele>60.4</ele>
        <time>2022-05-05T01:56:39Z</time>
      </trkpt>
      <trkpt lat="50.56471" lon="3.5952">
        <ele>60.8</ele>
        <time>2022-05-05T01:56:40Z</time>
      </trkpt>
      <trkpt lat="50.56465" lon="3.59503">
        <ele>61</ele>
        <time>2022-05-05T01:56:42Z</time>
      </trkpt>
      <trkpt lat="50.56459" lon="3.59484">
        <ele>61.2</ele>
        <time>2022-05-05T01:56:43Z</time>
      </trkpt>
      <trkpt lat="50.56453" lon="3.59465">
        <ele>61.3</ele>
        <time>2022-05-05T01:56:44Z</time>
      </trkpt>
      <trkpt lat="50.56449" lon="3.59446">
        <ele>61.4</ele>
        <time>2022-05-05T01:56:45Z</time>
      </trkpt>
      <trkpt lat="50.56443" lon="3.59428">
        <ele>61.7</ele>
        <time>2022-05-05T01:56:47Z</time>
      </trkpt>
      <trkpt lat="50.56438" lon="3.5941">
        <ele>62</ele>
        <time>2022-05-05T01:56:48Z</time>
      </trkpt>
      <trkpt lat="50.56434" lon="3.59394">
        <ele>62.2</ele>
        <time>2022-05-05T01:56:49Z</time>
      </trkpt>
      <trkpt lat="50.56428" lon="3.59381">
        <ele>62.3</ele>
        <time>2022-05-05T01:56:50Z</time>
      </trkpt>
      <trkpt lat="50.56422" lon="3.5937">
        <ele>62.4</ele>
        <time>2022-05-05T01:56:51Z</time>
      </trkpt>
      <trkpt lat="50.56416" lon="3.59364">
        <ele>62.4</ele>
        <time>2022-05-05T01:56:51Z</time>
      </trkpt>
      <trkpt lat="50.56407" lon="3.5936">
        <ele>62.5</ele>
        <time>2022-05-05T01:56:52Z</time>
      </trkpt>
      <trkpt lat="50.56394" lon="3.59357">
        <ele>62.5</ele>
        <time>2022-05-05T01:56:53Z</time>
      </trkpt>
      <trkpt lat="50.56379" lon="3.59353">
        <ele>62.5</ele>
        <time>2022-05-05T01:56:55Z</time>
      </trkpt>
      <trkpt lat="50.56362" lon="3.59345">
        <ele>62.6</ele>
        <time>2022-05-05T01:56:57Z</time>
      </trkpt>
      <trkpt lat="50.56345" lon="3.59336">
        <ele>62.7</ele>
        <time>2022-05-05T01:56:58Z</time>
      </trkpt>
      <trkpt lat="50.56331" lon="3.59329">
        <ele>62.9</ele>
        <time>2022-05-05T01:57:00Z</time>
      </trkpt>
      <trkpt lat="50.56319" lon="3.5932">
        <ele>63.1</ele>
        <time>2022-05-05T01:57:01Z</time>
      </trkpt>
      <trkpt lat="50.56307" lon="3.59315">
        <ele>63.2</ele>
        <time>2022-05-05T01:57:02Z</time>
      </trkpt>
      <trkpt lat="50.56294" lon="3.59306">
        <ele>63.3</ele>
        <time>2022-05-05T01:57:03Z</time>
      </trkpt>
      <trkpt lat="50.56278" lon="3.59302">
        <ele>63.4</ele>
        <time>2022-05-05T01:57:05Z</time>
      </trkpt>
      <trkpt lat="50.56263" lon="3.59297">
        <ele>63.4</ele>
        <time>2022-05-05T01:57:07Z</time>
      </trkpt>
      <trkpt lat="50.56247" lon="3.59288">
        <ele>63.6</ele>
        <time>2022-05-05T01:57:08Z</time>
      </trkpt>
      <trkpt lat="50.56231" lon="3.59279">
        <ele>63.7</ele>
        <time>2022-05-05T01:57:10Z</time>
      </trkpt>
      <trkpt lat="50.56217" lon="3.59271">
        <ele>63.9</ele>
        <time>2022-05-05T01:57:11Z</time>
      </trkpt>
      <trkpt lat="50.56205" lon="3.59267">
        <ele>64.2</ele>
        <time>2022-05-05T01:57:12Z</time>
      </trkpt>
      <trkpt lat="50.56193" lon="3.59262">
        <ele>64.4</ele>
        <time>2022-05-05T01:57:13Z</time>
      </trkpt>
      <trkpt lat="50.56181" lon="3.59259">
        <ele>64.6</ele>
        <time>2022-05-05T01:57:15Z</time>
      </trkpt>
      <trkpt lat="50.5617" lon="3.59259">
        <ele>64.6</ele>
        <time>2022-05-05T01:57:16Z</time>
      </trkpt>
      <trkpt lat="50.5616" lon="3.59261">
        <ele>64.6</ele>
        <time>2022-05-05T01:57:17Z</time>
      </trkpt>
      <trkpt lat="50.5615" lon="3.59262">
        <ele>64.6</ele>
        <time>2022-05-05T01:57:18Z</time>
      </trkpt>
      <trkpt lat="50.56134" lon="3.59269">
        <ele>64.5</ele>
        <time>2022-05-05T01:57:19Z</time>
      </trkpt>
      <trkpt lat="50.56117" lon="3.5928">
        <ele>64.5</ele>
        <time>2022-05-05T01:57:21Z</time>
      </trkpt>
      <trkpt lat="50.56099" lon="3.59289">
        <ele>64.2</ele>
        <time>2022-05-05T01:57:23Z</time>
      </trkpt>
      <trkpt lat="50.5608" lon="3.59296">
        <ele>64</ele>
        <time>2022-05-05T01:57:25Z</time>
      </trkpt>
      <trkpt lat="50.5606" lon="3.59302">
        <ele>63.8</ele>
        <time>2022-05-05T01:57:27Z</time>
      </trkpt>
      <trkpt lat="50.56042" lon="3.59307">
        <ele>63.6</ele>
        <time>2022-05-05T01:57:28Z</time>
      </trkpt>
      <trkpt lat="50.56024" lon="3.59315">
        <ele>63.4</ele>
        <time>2022-05-05T01:57:30Z</time>
      </trkpt>
      <trkpt lat="50.56005" lon="3.59322">
        <ele>63.1</ele>
        <time>2022-05-05T01:57:32Z</time>
      </trkpt>
      <trkpt lat="50.55986" lon="3.5933">
        <ele>62.9</ele>
        <time>2022-05-05T01:57:34Z</time>
      </trkpt>
      <trkpt lat="50.55967" lon="3.59341">
        <ele>62.8</ele>
        <time>2022-05-05T01:57:36Z</time>
      </trkpt>
      <trkpt lat="50.55948" lon="3.59348">
        <ele>62.7</ele>
        <time>2022-05-05T01:57:38Z</time>
      </trkpt>
      <trkpt lat="50.55929" lon="3.59359">
        <ele>62.5</ele>
        <time>2022-05-05T01:57:40Z</time>
      </trkpt>
      <trkpt lat="50.55911" lon="3.59367">
        <ele>62.1</ele>
        <time>2022-05-05T01:57:41Z</time>
      </trkpt>
      <trkpt lat="50.55894" lon="3.59373">
        <ele>61.8</ele>
        <time>2022-05-05T01:57:43Z</time>
      </trkpt>
      <trkpt lat="50.55878" lon="3.59381">
        <ele>61.7</ele>
        <time>2022-05-05T01:57:45Z</time>
      </trkpt>
      <trkpt lat="50.55861" lon="3.59386">
        <ele>61.6</ele>
        <time>2022-05-05T01:57:46Z</time>
      </trkpt>
      <trkpt lat="50.55843" lon="3.59395">
        <ele>61.5</ele>
        <time>2022-05-05T01:57:48Z</time>
      </trkpt>
      <trkpt lat="50.55824" lon="3.59402">
        <ele>61.3</ele>
        <time>2022-05-05T01:57:50Z</time>
      </trkpt>
      <trkpt lat="50.55803" lon="3.5941">
        <ele>61.1</ele>
        <time>2022-05-05T01:57:52Z</time>
      </trkpt>
      <trkpt lat="50.55785" lon="3.59418">
        <ele>60.9</ele>
        <time>2022-05-05T01:57:54Z</time>
      </trkpt>
      <trkpt lat="50.55765" lon="3.5943">
        <ele>60.8</ele>
        <time>2022-05-05T01:57:56Z</time>
      </trkpt>
      <trkpt lat="50.55748" lon="3.59437">
        <ele>60.7</ele>
        <time>2022-05-05T01:57:57Z</time>
      </trkpt>
      <trkpt lat="50.55733" lon="3.59441">
        <ele>60.6</ele>
        <time>2022-05-05T01:57:59Z</time>
      </trkpt>
      <trkpt lat="50.5572" lon="3.59445">
        <ele>60.2</ele>
        <time>2022-05-05T01:58:00Z</time>
      </trkpt>
      <trkpt lat="50.55707" lon="3.59448">
        <ele>59.5</ele>
        <time>2022-05-05T01:58:01Z</time>
      </trkpt>
      <trkpt lat="50.55695" lon="3.59446">
        <ele>58.4</ele>
        <time>2022-05-05T01:58:02Z</time>
      </trkpt>
      <trkpt lat="50.55681" lon="3.59449">
        <ele>57</ele>
        <time>2022-05-05T01:58:04Z</time>
      </trkpt>
      <trkpt lat="50.55668" lon="3.59451">
        <ele>56.3</ele>
        <time>2022-05-05T01:58:05Z</time>
      </trkpt>
      <trkpt lat="50.55658" lon="3.59451">
        <ele>55.9</ele>
        <time>2022-05-05T01:58:06Z</time>
      </trkpt>
      <trkpt lat="50.55649" lon="3.59451">
        <ele>56.2</ele>
        <time>2022-05-05T01:58:07Z</time>
      </trkpt>
      <trkpt lat="50.5564" lon="3.59448">
        <ele>56.8</ele>
        <time>2022-05-05T01:58:08Z</time>
      </trkpt>
      <trkpt lat="50.55632" lon="3.59443">
        <ele>57.8</ele>
        <time>2022-05-05T01:58:09Z</time>
      </trkpt>
      <trkpt lat="50.55632" lon="3.59431">
        <ele>58.4</ele>
        <time>2022-05-05T01:58:09Z</time>
      </trkpt>
      <trkpt lat="50.55632" lon="3.59419">
        <ele>58.8</ele>
        <time>2022-05-05T01:58:10Z</time>
      </trkpt>
      <trkpt lat="50.55634" lon="3.59404">
        <ele>59.1</ele>
        <time>2022-05-05T01:58:11Z</time>
      </trkpt>
      <trkpt lat="50.55635" lon="3.59386">
        <ele>59.2</ele>
        <time>2022-05-05T01:58:12Z</time>
      </trkpt>
      <trkpt lat="50.55634" lon="3.59365">
        <ele>59.3</ele>
        <time>2022-05-05T01:58:13Z</time>
      </trkpt>
      <trkpt lat="50.55629" lon="3.59342">
        <ele>59.1</ele>
        <time>2022-05-05T01:58:15Z</time>
      </trkpt>
      <trkpt lat="50.55626" lon="3.59319">
        <ele>58.9</ele>
        <time>2022-05-05T01:58:16Z</time>
      </trkpt>
      <trkpt lat="50.55623" lon="3.59298">
        <ele>58.7</ele>
        <time>2022-05-05T01:58:18Z</time>
      </trkpt>
      <trkpt lat="50.55621" lon="3.59275">
        <ele>58.4</ele>
        <time>2022-05-05T01:58:19Z</time>
      </trkpt>
      <trkpt lat="50.55618" lon="3.59252">
        <ele>58</ele>
        <time>2022-05-05T01:58:20Z</time>
      </trkpt>
      <trkpt lat="50.55613" lon="3.59231">
        <ele>57.7</ele>
        <time>2022-05-05T01:58:22Z</time>
      </trkpt>
      <trkpt lat="50.55608" lon="3.5921">
        <ele>57.6</ele>
        <time>2022-05-05T01:58:23Z</time>
      </trkpt>
      <trkpt lat="50.55602" lon="3.5919">
        <ele>57.5</ele>
        <time>2022-05-05T01:58:24Z</time>
      </trkpt>
      <trkpt lat="50.55592" lon="3.59178">
        <ele>57.5</ele>
        <time>2022-05-05T01:58:26Z</time>
      </trkpt>
      <trkpt lat="50.55583" lon="3.59165">
        <ele>57.4</ele>
        <time>2022-05-05T01:58:27Z</time>
      </trkpt>
      <trkpt lat="50.55576" lon="3.59153">
        <ele>57.1</ele>
        <time>2022-05-05T01:58:28Z</time>
      </trkpt>
      <trkpt lat="50.55569" lon="3.59142">
        <ele>56.8</ele>
        <time>2022-05-05T01:58:29Z</time>
      </trkpt>
      <trkpt lat="50.55565" lon="3.59129">
        <ele>56.5</ele>
        <time>2022-05-05T01:58:30Z</time>
      </trkpt>
      <trkpt lat="50.55562" lon="3.59118">
        <ele>56.3</ele>
        <time>2022-05-05T01:58:30Z</time>
      </trkpt>
      <trkpt lat="50.55558" lon="3.59109">
        <ele>56.1</ele>
        <time>2022-05-05T01:58:31Z</time>
      </trkpt>
      <trkpt lat="50.55557" lon="3.59102">
        <ele>55.9</ele>
        <time>2022-05-05T01:58:31Z</time>
      </trkpt>
      <trkpt lat="50.55555" lon="3.59099">
        <ele>55.8</ele>
        <time>2022-05-05T01:58:32Z</time>
      </trkpt>
      <trkpt lat="50.55554" lon="3.59096">
        <ele>55.7</ele>
        <time>2022-05-05T01:58:32Z</time>
      </trkpt>
      <trkpt lat="50.55551" lon="3.59095">
        <ele>55.6</ele>
        <time>2022-05-05T01:58:32Z</time>
      </trkpt>
      <trkpt lat="50.55546" lon="3.59095">
        <ele>55.5</ele>
        <time>2022-05-05T01:58:33Z</time>
      </trkpt>
      <trkpt lat="50.5554" lon="3.59095">
        <ele>55.4</ele>
        <time>2022-05-05T01:58:33Z</time>
      </trkpt>
      <trkpt lat="50.55532" lon="3.59106">
        <ele>55.2</ele>
        <time>2022-05-05T01:58:34Z</time>
      </trkpt>
      <trkpt lat="50.55524" lon="3.5912">
        <ele>55</ele>
        <time>2022-05-05T01:58:35Z</time>
      </trkpt>
      <trkpt lat="50.55515" lon="3.59134">
        <ele>54.8</ele>
        <time>2022-05-05T01:58:37Z</time>
      </trkpt>
      <trkpt lat="50.55506" lon="3.5915">
        <ele>54.5</ele>
        <time>2022-05-05T01:58:38Z</time>
      </trkpt>
      <trkpt lat="50.55497" lon="3.59165">
        <ele>54.4</ele>
        <time>2022-05-05T01:58:39Z</time>
      </trkpt>
      <trkpt lat="50.55488" lon="3.59179">
        <ele>54.3</ele>
        <time>2022-05-05T01:58:40Z</time>
      </trkpt>
      <trkpt lat="50.55481" lon="3.59197">
        <ele>54.2</ele>
        <time>2022-05-05T01:58:42Z</time>
      </trkpt>
      <trkpt lat="50.55468" lon="3.5921">
        <ele>54.1</ele>
        <time>2022-05-05T01:58:43Z</time>
      </trkpt>
      <trkpt lat="50.55459" lon="3.59226">
        <ele>53.8</ele>
        <time>2022-05-05T01:58:44Z</time>
      </trkpt>
      <trkpt lat="50.55446" lon="3.59245">
        <ele>53.5</ele>
        <time>2022-05-05T01:58:46Z</time>
      </trkpt>
      <trkpt lat="50.55435" lon="3.59264">
        <ele>53.2</ele>
        <time>2022-05-05T01:58:48Z</time>
      </trkpt>
      <trkpt lat="50.55424" lon="3.59281">
        <ele>52.9</ele>
        <time>2022-05-05T01:58:49Z</time>
      </trkpt>
      <trkpt lat="50.55413" lon="3.59299">
        <ele>52.6</ele>
        <time>2022-05-05T01:58:51Z</time>
      </trkpt>
      <trkpt lat="50.55402" lon="3.59322">
        <ele>52.4</ele>
        <time>2022-05-05T01:58:52Z</time>
      </trkpt>
      <trkpt lat="50.55388" lon="3.59343">
        <ele>52.3</ele>
        <time>2022-05-05T01:58:54Z</time>
      </trkpt>
      <trkpt lat="50.55373" lon="3.59366">
        <ele>52</ele>
        <time>2022-05-05T01:58:56Z</time>
      </trkpt>
      <trkpt lat="50.55359" lon="3.59388">
        <ele>51.6</ele>
        <time>2022-05-05T01:58:58Z</time>
      </trkpt>
      <trkpt lat="50.55344" lon="3.59413">
        <ele>51.2</ele>
        <time>2022-05-05T01:59:00Z</time>
      </trkpt>
      <trkpt lat="50.55329" lon="3.59438">
        <ele>51.1</ele>
        <time>2022-05-05T01:59:02Z</time>
      </trkpt>
      <trkpt lat="50.55314" lon="3.59459">
        <ele>51</ele>
        <time>2022-05-05T01:59:04Z</time>
      </trkpt>
      <trkpt lat="50.55296" lon="3.59482">
        <ele>50.8</ele>
        <time>2022-05-05T01:59:06Z</time>
      </trkpt>
      <trkpt lat="50.55279" lon="3.59507">
        <ele>50.6</ele>
        <time>2022-05-05T01:59:08Z</time>
      </trkpt>
      <trkpt lat="50.55264" lon="3.5953">
        <ele>50.4</ele>
        <time>2022-05-05T01:59:10Z</time>
      </trkpt>
      <trkpt lat="50.5525" lon="3.59551">
        <ele>50.2</ele>
        <time>2022-05-05T01:59:12Z</time>
      </trkpt>
      <trkpt lat="50.55237" lon="3.59572">
        <ele>50</ele>
        <time>2022-05-05T01:59:14Z</time>
      </trkpt>
      <trkpt lat="50.55224" lon="3.59591">
        <ele>49.6</ele>
        <time>2022-05-05T01:59:16Z</time>
      </trkpt>
      <trkpt lat="50.55216" lon="3.59602">
        <ele>48.6</ele>
        <time>2022-05-05T01:59:17Z</time>
      </trkpt>
      <trkpt lat="50.55209" lon="3.59613">
        <ele>48.1</ele>
        <time>2022-05-05T01:59:18Z</time>
      </trkpt>
      <trkpt lat="50.55204" lon="3.5962">
        <ele>47.9</ele>
        <time>2022-05-05T01:59:18Z</time>
      </trkpt>
      <trkpt lat="50.55199" lon="3.59629">
        <ele>47.7</ele>
        <time>2022-05-05T01:59:19Z</time>
      </trkpt>
      <trkpt lat="50.55195" lon="3.5964">
        <ele>47.6</ele>
        <time>2022-05-05T01:59:20Z</time>
      </trkpt>
      <trkpt lat="50.55191" lon="3.59648">
        <ele>47.6</ele>
        <time>2022-05-05T01:59:20Z</time>
      </trkpt>
      <trkpt lat="50.55191" lon="3.59655">
        <ele>47.5</ele>
        <time>2022-05-05T01:59:21Z</time>
      </trkpt>
      <trkpt lat="50.55191" lon="3.59662">
        <ele>47.5</ele>
        <time>2022-05-05T01:59:21Z</time>
      </trkpt>
      <trkpt lat="50.55192" lon="3.59671">
        <ele>47.4</ele>
        <time>2022-05-05T01:59:22Z</time>
      </trkpt>
      <trkpt lat="50.5519" lon="3.59679">
        <ele>47.4</ele>
        <time>2022-05-05T01:59:22Z</time>
      </trkpt>
      <trkpt lat="50.55188" lon="3.59686">
        <ele>47.4</ele>
        <time>2022-05-05T01:59:23Z</time>
      </trkpt>
      <trkpt lat="50.55183" lon="3.59692">
        <ele>47.4</ele>
        <time>2022-05-05T01:59:23Z</time>
      </trkpt>
      <trkpt lat="50.55175" lon="3.597">
        <ele>47.3</ele>
        <time>2022-05-05T01:59:24Z</time>
      </trkpt>
      <trkpt lat="50.55168" lon="3.59709">
        <ele>47.1</ele>
        <time>2022-05-05T01:59:25Z</time>
      </trkpt>
      <trkpt lat="50.5516" lon="3.59717">
        <ele>46.9</ele>
        <time>2022-05-05T01:59:26Z</time>
      </trkpt>
      <trkpt lat="50.55154" lon="3.59725">
        <ele>46.8</ele>
        <time>2022-05-05T01:59:27Z</time>
      </trkpt>
      <trkpt lat="50.5515" lon="3.59732">
        <ele>46.7</ele>
        <time>2022-05-05T01:59:27Z</time>
      </trkpt>
      <trkpt lat="50.55147" lon="3.59738">
        <ele>46.6</ele>
        <time>2022-05-05T01:59:28Z</time>
      </trkpt>
      <trkpt lat="50.55146" lon="3.59747">
        <ele>46.6</ele>
        <time>2022-05-05T01:59:28Z</time>
      </trkpt>
      <trkpt lat="50.55146" lon="3.59756">
        <ele>46.5</ele>
        <time>2022-05-05T01:59:29Z</time>
      </trkpt>
      <trkpt lat="50.55147" lon="3.5977">
        <ele>46.5</ele>
        <time>2022-05-05T01:59:30Z</time>
      </trkpt>
      <trkpt lat="50.55149" lon="3.59781">
        <ele>46.5</ele>
        <time>2022-05-05T01:59:31Z</time>
      </trkpt>
      <trkpt lat="50.55151" lon="3.59791">
        <ele>46.5</ele>
        <time>2022-05-05T01:59:31Z</time>
      </trkpt>
      <trkpt lat="50.55159" lon="3.59801">
        <ele>46.5</ele>
        <time>2022-05-05T01:59:32Z</time>
      </trkpt>
      <trkpt lat="50.55166" lon="3.59813">
        <ele>46.5</ele>
        <time>2022-05-05T01:59:33Z</time>
      </trkpt>
      <trkpt lat="50.55174" lon="3.59825">
        <ele>46.5</ele>
        <time>2022-05-05T01:59:34Z</time>
      </trkpt>
      <trkpt lat="50.55183" lon="3.59837">
        <ele>46.5</ele>
        <time>2022-05-05T01:59:35Z</time>
      </trkpt>
      <trkpt lat="50.55191" lon="3.5985">
        <ele>46.5</ele>
        <time>2022-05-05T01:59:36Z</time>
      </trkpt>
      <trkpt lat="50.552" lon="3.59862">
        <ele>46.5</ele>
        <time>2022-05-05T01:59:38Z</time>
      </trkpt>
      <trkpt lat="50.5521" lon="3.59872">
        <ele>46.6</ele>
        <time>2022-05-05T01:59:39Z</time>
      </trkpt>
      <trkpt lat="50.55218" lon="3.59884">
        <ele>46.8</ele>
        <time>2022-05-05T01:59:40Z</time>
      </trkpt>
      <trkpt lat="50.55225" lon="3.59896">
        <ele>47</ele>
        <time>2022-05-05T01:59:41Z</time>
      </trkpt>
      <trkpt lat="50.55235" lon="3.59907">
        <ele>47.2</ele>
        <time>2022-05-05T01:59:42Z</time>
      </trkpt>
      <trkpt lat="50.55244" lon="3.59921">
        <ele>47.3</ele>
        <time>2022-05-05T01:59:43Z</time>
      </trkpt>
      <trkpt lat="50.55251" lon="3.59938">
        <ele>47.4</ele>
        <time>2022-05-05T01:59:44Z</time>
      </trkpt>
      <trkpt lat="50.5526" lon="3.59955">
        <ele>47.4</ele>
        <time>2022-05-05T01:59:46Z</time>
      </trkpt>
      <trkpt lat="50.55266" lon="3.59971">
        <ele>47.6</ele>
        <time>2022-05-05T01:59:47Z</time>
      </trkpt>
      <trkpt lat="50.55271" lon="3.59983">
        <ele>47.8</ele>
        <time>2022-05-05T01:59:48Z</time>
      </trkpt>
      <trkpt lat="50.55277" lon="3.59998">
        <ele>47.9</ele>
        <time>2022-05-05T01:59:49Z</time>
      </trkpt>
      <trkpt lat="50.55285" lon="3.6001">
        <ele>48.1</ele>
        <time>2022-05-05T01:59:50Z</time>
      </trkpt>
      <trkpt lat="50.55292" lon="3.60022">
        <ele>48.3</ele>
        <time>2022-05-05T01:59:51Z</time>
      </trkpt>
      <trkpt lat="50.55298" lon="3.60033">
        <ele>48.4</ele>
        <time>2022-05-05T01:59:52Z</time>
      </trkpt>
      <trkpt lat="50.55303" lon="3.60039">
        <ele>48.4</ele>
        <time>2022-05-05T01:59:52Z</time>
      </trkpt>
      <trkpt lat="50.55307" lon="3.60048">
        <ele>48.4</ele>
        <time>2022-05-05T01:59:53Z</time>
      </trkpt>
      <trkpt lat="50.5531" lon="3.60055">
        <ele>48.5</ele>
        <time>2022-05-05T01:59:53Z</time>
      </trkpt>
      <trkpt lat="50.55309" lon="3.60059">
        <ele>48.5</ele>
        <time>2022-05-05T01:59:54Z</time>
      </trkpt>
      <trkpt lat="50.55305" lon="3.60072">
        <ele>48.6</ele>
        <time>2022-05-05T01:59:54Z</time>
      </trkpt>
      <trkpt lat="50.55305" lon="3.60087">
        <ele>48.8</ele>
        <time>2022-05-05T01:59:55Z</time>
      </trkpt>
      <trkpt lat="50.55303" lon="3.60106">
        <ele>49</ele>
        <time>2022-05-05T01:59:57Z</time>
      </trkpt>
      <trkpt lat="50.55303" lon="3.60121">
        <ele>49.2</ele>
        <time>2022-05-05T01:59:57Z</time>
      </trkpt>
      <trkpt lat="50.55302" lon="3.60136">
        <ele>49.3</ele>
        <time>2022-05-05T01:59:58Z</time>
      </trkpt>
      <trkpt lat="50.55304" lon="3.6015">
        <ele>49.4</ele>
        <time>2022-05-05T01:59:59Z</time>
      </trkpt>
      <trkpt lat="50.55306" lon="3.60164">
        <ele>49.4</ele>
        <time>2022-05-05T02:00:00Z</time>
      </trkpt>
      <trkpt lat="50.55306" lon="3.6018">
        <ele>49.5</ele>
        <time>2022-05-05T02:00:01Z</time>
      </trkpt>
      <trkpt lat="50.55308" lon="3.60195">
        <ele>49.6</ele>
        <time>2022-05-05T02:00:02Z</time>
      </trkpt>
      <trkpt lat="50.55309" lon="3.60215">
        <ele>49.7</ele>
        <time>2022-05-05T02:00:03Z</time>
      </trkpt>
      <trkpt lat="50.55314" lon="3.60228">
        <ele>49.8</ele>
        <time>2022-05-05T02:00:04Z</time>
      </trkpt>
      <trkpt lat="50.5532" lon="3.60239">
        <ele>49.9</ele>
        <time>2022-05-05T02:00:05Z</time>
      </trkpt>
      <trkpt lat="50.55329" lon="3.60253">
        <ele>50.1</ele>
        <time>2022-05-05T02:00:06Z</time>
      </trkpt>
      <trkpt lat="50.55339" lon="3.60266">
        <ele>50.3</ele>
        <time>2022-05-05T02:00:07Z</time>
      </trkpt>
      <trkpt lat="50.55348" lon="3.60273">
        <ele>50.5</ele>
        <time>2022-05-05T02:00:08Z</time>
      </trkpt>
      <trkpt lat="50.55356" lon="3.60281">
        <ele>50.6</ele>
        <time>2022-05-05T02:00:09Z</time>
      </trkpt>
      <trkpt lat="50.55361" lon="3.60288">
        <ele>50.7</ele>
        <time>2022-05-05T02:00:10Z</time>
      </trkpt>
      <trkpt lat="50.55367" lon="3.60296">
        <ele>50.7</ele>
        <time>2022-05-05T02:00:11Z</time>
      </trkpt>
      <trkpt lat="50.55368" lon="3.60302">
        <ele>50.8</ele>
        <time>2022-05-05T02:00:11Z</time>
      </trkpt>
      <trkpt lat="50.55367" lon="3.60307">
        <ele>50.9</ele>
        <time>2022-05-05T02:00:11Z</time>
      </trkpt>
      <trkpt lat="50.55367" lon="3.6031">
        <ele>51</ele>
        <time>2022-05-05T02:00:12Z</time>
      </trkpt>
      <trkpt lat="50.55364" lon="3.60314">
        <ele>51</ele>
        <time>2022-05-05T02:00:12Z</time>
      </trkpt>
      <trkpt lat="50.55361" lon="3.60318">
        <ele>51.1</ele>
        <time>2022-05-05T02:00:12Z</time>
      </trkpt>
      <trkpt lat="50.55357" lon="3.6032">
        <ele>51.1</ele>
        <time>2022-05-05T02:00:13Z</time>
      </trkpt>
      <trkpt lat="50.55353" lon="3.60324">
        <ele>51.2</ele>
        <time>2022-05-05T02:00:13Z</time>
      </trkpt>
      <trkpt lat="50.5535" lon="3.60328">
        <ele>51.2</ele>
        <time>2022-05-05T02:00:13Z</time>
      </trkpt>
      <trkpt lat="50.55344" lon="3.60333">
        <ele>51.3</ele>
        <time>2022-05-05T02:00:14Z</time>
      </trkpt>
      <trkpt lat="50.5534" lon="3.60337">
        <ele>51.2</ele>
        <time>2022-05-05T02:00:15Z</time>
      </trkpt>
      <trkpt lat="50.55336" lon="3.6034">
        <ele>51.2</ele>
        <time>2022-05-05T02:00:15Z</time>
      </trkpt>
      <trkpt lat="50.55334" lon="3.60344">
        <ele>51.2</ele>
        <time>2022-05-05T02:00:15Z</time>
      </trkpt>
      <trkpt lat="50.55333" lon="3.60347">
        <ele>51.2</ele>
        <time>2022-05-05T02:00:16Z</time>
      </trkpt>
      <trkpt lat="50.55328" lon="3.60354">
        <ele>51.2</ele>
        <time>2022-05-05T02:00:16Z</time>
      </trkpt>
      <trkpt lat="50.55326" lon="3.60357">
        <ele>51.4</ele>
        <time>2022-05-05T02:00:16Z</time>
      </trkpt>
      <trkpt lat="50.55322" lon="3.60361">
        <ele>51.5</ele>
        <time>2022-05-05T02:00:17Z</time>
      </trkpt>
      <trkpt lat="50.55319" lon="3.60366">
        <ele>51.6</ele>
        <time>2022-05-05T02:00:17Z</time>
      </trkpt>
      <trkpt lat="50.55315" lon="3.60371">
        <ele>51.7</ele>
        <time>2022-05-05T02:00:18Z</time>
      </trkpt>
      <trkpt lat="50.55313" lon="3.60374">
        <ele>51.7</ele>
        <time>2022-05-05T02:00:18Z</time>
      </trkpt>
      <trkpt lat="50.55311" lon="3.60381">
        <ele>51.8</ele>
        <time>2022-05-05T02:00:19Z</time>
      </trkpt>
      <trkpt lat="50.5531" lon="3.60383">
        <ele>51.8</ele>
        <time>2022-05-05T02:00:19Z</time>
      </trkpt>
      <trkpt lat="50.55309" lon="3.60389">
        <ele>51.8</ele>
        <time>2022-05-05T02:00:19Z</time>
      </trkpt>
      <trkpt lat="50.55304" lon="3.60394">
        <ele>51.8</ele>
        <time>2022-05-05T02:00:20Z</time>
      </trkpt>
      <trkpt lat="50.55302" lon="3.60401">
        <ele>51.9</ele>
        <time>2022-05-05T02:00:20Z</time>
      </trkpt>
      <trkpt lat="50.55298" lon="3.6041">
        <ele>52</ele>
        <time>2022-05-05T02:00:21Z</time>
      </trkpt>
      <trkpt lat="50.55294" lon="3.60414">
        <ele>52.3</ele>
        <time>2022-05-05T02:00:21Z</time>
      </trkpt>
      <trkpt lat="50.5529" lon="3.60418">
        <ele>52.4</ele>
        <time>2022-05-05T02:00:22Z</time>
      </trkpt>
      <trkpt lat="50.55285" lon="3.60423">
        <ele>52.6</ele>
        <time>2022-05-05T02:00:22Z</time>
      </trkpt>
      <trkpt lat="50.55281" lon="3.60425">
        <ele>52.7</ele>
        <time>2022-05-05T02:00:23Z</time>
      </trkpt>
      <trkpt lat="50.55276" lon="3.6043">
        <ele>52.7</ele>
        <time>2022-05-05T02:00:23Z</time>
      </trkpt>
      <trkpt lat="50.55272" lon="3.60436">
        <ele>52.8</ele>
        <time>2022-05-05T02:00:24Z</time>
      </trkpt>
      <trkpt lat="50.55269" lon="3.60444">
        <ele>52.8</ele>
        <time>2022-05-05T02:00:24Z</time>
      </trkpt>
      <trkpt lat="50.55266" lon="3.60449">
        <ele>52.9</ele>
        <time>2022-05-05T02:00:25Z</time>
      </trkpt>
      <trkpt lat="50.55264" lon="3.60455">
        <ele>53.1</ele>
        <time>2022-05-05T02:00:25Z</time>
      </trkpt>
      <trkpt lat="50.55261" lon="3.60458">
        <ele>53.2</ele>
        <time>2022-05-05T02:00:25Z</time>
      </trkpt>
      <trkpt lat="50.55257" lon="3.60463">
        <ele>53.4</ele>
        <time>2022-05-05T02:00:26Z</time>
      </trkpt>
      <trkpt lat="50.55254" lon="3.60467">
        <ele>53.5</ele>
        <time>2022-05-05T02:00:26Z</time>
      </trkpt>
      <trkpt lat="50.5525" lon="3.60471">
        <ele>53.6</ele>
        <time>2022-05-05T02:00:27Z</time>
      </trkpt>
      <trkpt lat="50.55248" lon="3.60476">
        <ele>53.7</ele>
        <time>2022-05-05T02:00:27Z</time>
      </trkpt>
      <trkpt lat="50.55245" lon="3.60477">
        <ele>53.8</ele>
        <time>2022-05-05T02:00:27Z</time>
      </trkpt>
      <trkpt lat="50.55242" lon="3.60482">
        <ele>53.9</ele>
        <time>2022-05-05T02:00:28Z</time>
      </trkpt>
      <trkpt lat="50.55239" lon="3.60486">
        <ele>54.1</ele>
        <time>2022-05-05T02:00:28Z</time>
      </trkpt>
      <trkpt lat="50.55234" lon="3.60492">
        <ele>54.2</ele>
        <time>2022-05-05T02:00:29Z</time>
      </trkpt>
      <trkpt lat="50.55229" lon="3.60496">
        <ele>54.4</ele>
        <time>2022-05-05T02:00:29Z</time>
      </trkpt>
      <trkpt lat="50.55223" lon="3.60502">
        <ele>54.5</ele>
        <time>2022-05-05T02:00:30Z</time>
      </trkpt>
      <trkpt lat="50.55216" lon="3.60512">
        <ele>54.6</ele>
        <time>2022-05-05T02:00:31Z</time>
      </trkpt>
      <trkpt lat="50.55213" lon="3.60518">
        <ele>54.8</ele>
        <time>2022-05-05T02:00:31Z</time>
      </trkpt>
      <trkpt lat="50.55211" lon="3.6053">
        <ele>54.9</ele>
        <time>2022-05-05T02:00:32Z</time>
      </trkpt>
      <trkpt lat="50.55211" lon="3.60534">
        <ele>55</ele>
        <time>2022-05-05T02:00:32Z</time>
      </trkpt>
      <trkpt lat="50.55208" lon="3.60542">
        <ele>55.2</ele>
        <time>2022-05-05T02:00:33Z</time>
      </trkpt>
      <trkpt lat="50.55204" lon="3.60548">
        <ele>55.3</ele>
        <time>2022-05-05T02:00:33Z</time>
      </trkpt>
      <trkpt lat="50.552" lon="3.60554">
        <ele>55.5</ele>
        <time>2022-05-05T02:00:34Z</time>
      </trkpt>
      <trkpt lat="50.55197" lon="3.60561">
        <ele>55.6</ele>
        <time>2022-05-05T02:00:34Z</time>
      </trkpt>
      <trkpt lat="50.55193" lon="3.60568">
        <ele>55.7</ele>
        <time>2022-05-05T02:00:35Z</time>
      </trkpt>
      <trkpt lat="50.55188" lon="3.60576">
        <ele>55.7</ele>
        <time>2022-05-05T02:00:36Z</time>
      </trkpt>
      <trkpt lat="50.55186" lon="3.60583">
        <ele>55.8</ele>
        <time>2022-05-05T02:00:36Z</time>
      </trkpt>
      <trkpt lat="50.55182" lon="3.6059">
        <ele>55.9</ele>
        <time>2022-05-05T02:00:37Z</time>
      </trkpt>
      <trkpt lat="50.5518" lon="3.60599">
        <ele>56.1</ele>
        <time>2022-05-05T02:00:37Z</time>
      </trkpt>
      <trkpt lat="50.55177" lon="3.60607">
        <ele>56.3</ele>
        <time>2022-05-05T02:00:38Z</time>
      </trkpt>
      <trkpt lat="50.55174" lon="3.60616">
        <ele>56.5</ele>
        <time>2022-05-05T02:00:39Z</time>
      </trkpt>
      <trkpt lat="50.5517" lon="3.60624">
        <ele>56.6</ele>
        <time>2022-05-05T02:00:39Z</time>
      </trkpt>
      <trkpt lat="50.55168" lon="3.6063">
        <ele>56.7</ele>
        <time>2022-05-05T02:00:39Z</time>
      </trkpt>
      <trkpt lat="50.55165" lon="3.60634">
        <ele>56.7</ele>
        <time>2022-05-05T02:00:40Z</time>
      </trkpt>
      <trkpt lat="50.55163" lon="3.6064">
        <ele>56.8</ele>
        <time>2022-05-05T02:00:40Z</time>
      </trkpt>
      <trkpt lat="50.55161" lon="3.60645">
        <ele>56.8</ele>
        <time>2022-05-05T02:00:41Z</time>
      </trkpt>
      <trkpt lat="50.55157" lon="3.60649">
        <ele>56.9</ele>
        <time>2022-05-05T02:00:41Z</time>
      </trkpt>
      <trkpt lat="50.55153" lon="3.60654">
        <ele>56.9</ele>
        <time>2022-05-05T02:00:42Z</time>
      </trkpt>
      <trkpt lat="50.55151" lon="3.6066">
        <ele>57</ele>
        <time>2022-05-05T02:00:42Z</time>
      </trkpt>
      <trkpt lat="50.55149" lon="3.60665">
        <ele>57</ele>
        <time>2022-05-05T02:00:42Z</time>
      </trkpt>
      <trkpt lat="50.55146" lon="3.6067">
        <ele>56.9</ele>
        <time>2022-05-05T02:00:43Z</time>
      </trkpt>
      <trkpt lat="50.55144" lon="3.60674">
        <ele>56.9</ele>
        <time>2022-05-05T02:00:43Z</time>
      </trkpt>
      <trkpt lat="50.55142" lon="3.60678">
        <ele>57</ele>
        <time>2022-05-05T02:00:43Z</time>
      </trkpt>
      <trkpt lat="50.5514" lon="3.60681">
        <ele>57</ele>
        <time>2022-05-05T02:00:44Z</time>
      </trkpt>
      <trkpt lat="50.55139" lon="3.60684">
        <ele>57.1</ele>
        <time>2022-05-05T02:00:44Z</time>
      </trkpt>
      <trkpt lat="50.55137" lon="3.60686">
        <ele>57.2</ele>
        <time>2022-05-05T02:00:44Z</time>
      </trkpt>
      <trkpt lat="50.55134" lon="3.60682">
        <ele>57.3</ele>
        <time>2022-05-05T02:00:44Z</time>
      </trkpt>
      <trkpt lat="50.5513" lon="3.60677">
        <ele>57.4</ele>
        <time>2022-05-05T02:00:45Z</time>
      </trkpt>
      <trkpt lat="50.55123" lon="3.60673">
        <ele>57.4</ele>
        <time>2022-05-05T02:00:46Z</time>
      </trkpt>
      <trkpt lat="50.55114" lon="3.60669">
        <ele>57.4</ele>
        <time>2022-05-05T02:00:46Z</time>
      </trkpt>
      <trkpt lat="50.55104" lon="3.60663">
        <ele>57.5</ele>
        <time>2022-05-05T02:00:48Z</time>
      </trkpt>
      <trkpt lat="50.55092" lon="3.60659">
        <ele>57.6</ele>
        <time>2022-05-05T02:00:49Z</time>
      </trkpt>
      <trkpt lat="50.55082" lon="3.60654">
        <ele>57.8</ele>
        <time>2022-05-05T02:00:50Z</time>
      </trkpt>
      <trkpt lat="50.55071" lon="3.60648">
        <ele>57.8</ele>
        <time>2022-05-05T02:00:51Z</time>
      </trkpt>
      <trkpt lat="50.55061" lon="3.60643">
        <ele>57.8</ele>
        <time>2022-05-05T02:00:52Z</time>
      </trkpt>
      <trkpt lat="50.55052" lon="3.60636">
        <ele>57.8</ele>
        <time>2022-05-05T02:00:53Z</time>
      </trkpt>
      <trkpt lat="50.55044" lon="3.60631">
        <ele>57.8</ele>
        <time>2022-05-05T02:00:54Z</time>
      </trkpt>
      <trkpt lat="50.55038" lon="3.60627">
        <ele>57.8</ele>
        <time>2022-05-05T02:00:54Z</time>
      </trkpt>
      <trkpt lat="50.55033" lon="3.60625">
        <ele>57.8</ele>
        <time>2022-05-05T02:00:55Z</time>
      </trkpt>
      <trkpt lat="50.55029" lon="3.60623">
        <ele>57.8</ele>
        <time>2022-05-05T02:00:55Z</time>
      </trkpt>
      <trkpt lat="50.55026" lon="3.60623">
        <ele>57.8</ele>
        <time>2022-05-05T02:00:55Z</time>
      </trkpt>
      <trkpt lat="50.55024" lon="3.60623">
        <ele>57.8</ele>
        <time>2022-05-05T02:00:55Z</time>
      </trkpt>
      <trkpt lat="50.55023" lon="3.60624">
        <ele>57.9</ele>
        <time>2022-05-05T02:00:56Z</time>
      </trkpt>
      <trkpt lat="50.55023" lon="3.60626">
        <ele>57.9</ele>
        <time>2022-05-05T02:00:56Z</time>
      </trkpt>
      <trkpt lat="50.55024" lon="3.60628">
        <ele>57.9</ele>
        <time>2022-05-05T02:00:56Z</time>
      </trkpt>
      <trkpt lat="50.55023" lon="3.60632">
        <ele>57.9</ele>
        <time>2022-05-05T02:00:56Z</time>
      </trkpt>
      <trkpt lat="50.55021" lon="3.60638">
        <ele>57.9</ele>
        <time>2022-05-05T02:00:57Z</time>
      </trkpt>
      <trkpt lat="50.55018" lon="3.60647">
        <ele>58</ele>
        <time>2022-05-05T02:00:57Z</time>
      </trkpt>
      <trkpt lat="50.55016" lon="3.60653">
        <ele>58.2</ele>
        <time>2022-05-05T02:00:58Z</time>
      </trkpt>
      <trkpt lat="50.55015" lon="3.60657">
        <ele>58.4</ele>
        <time>2022-05-05T02:00:58Z</time>
      </trkpt>
      <trkpt lat="50.55014" lon="3.60659">
        <ele>58.6</ele>
        <time>2022-05-05T02:00:58Z</time>
      </trkpt>
      <trkpt lat="50.55014" lon="3.60661">
        <ele>58.8</ele>
        <time>2022-05-05T02:00:58Z</time>
      </trkpt>
      <trkpt lat="50.55013" lon="3.60663">
        <ele>58.9</ele>
        <time>2022-05-05T02:00:58Z</time>
      </trkpt>
      <trkpt lat="50.55013" lon="3.60668">
        <ele>59.2</ele>
        <time>2022-05-05T02:00:59Z</time>
      </trkpt>
      <trkpt lat="50.55013" lon="3.60671">
        <ele>59.4</ele>
        <time>2022-05-05T02:00:59Z</time>
      </trkpt>
      <trkpt lat="50.55014" lon="3.60673">
        <ele>59.4</ele>
        <time>2022-05-05T02:00:59Z</time>
      </trkpt>
      <trkpt lat="50.55013" lon="3.60675">
        <ele>59.4</ele>
        <time>2022-05-05T02:00:59Z</time>
      </trkpt>
      <trkpt lat="50.55013" lon="3.60674">
        <ele>59.5</ele>
        <time>2022-05-05T02:00:59Z</time>
      </trkpt>
      <trkpt lat="50.55013" lon="3.60674">
        <ele>59.5</ele>
        <time>2022-05-05T02:00:59Z</time>
      </trkpt>
      <trkpt lat="50.55012" lon="3.60674">
        <ele>59.5</ele>
        <time>2022-05-05T02:00:59Z</time>
      </trkpt>
      <trkpt lat="50.55013" lon="3.60674">
        <ele>59.5</ele>
        <time>2022-05-05T02:00:59Z</time>
      </trkpt>
      <trkpt lat="50.55013" lon="3.60674">
        <ele>59.5</ele>
        <time>2022-05-05T02:00:59Z</time>
      </trkpt>
      <trkpt lat="50.55013" lon="3.60674">
        <ele>59.5</ele>
        <time>2022-05-05T02:00:59Z</time>
      </trkpt>
      <trkpt lat="50.55013" lon="3.60675">
        <ele>59.5</ele>
        <time>2022-05-05T02:00:59Z</time>
      </trkpt>
      <trkpt lat="50.55013" lon="3.60676">
        <ele>59.5</ele>
        <time>2022-05-05T02:00:59Z</time>
      </trkpt>
      <trkpt lat="50.55013" lon="3.60677">
        <ele>59.5</ele>
        <time>2022-05-05T02:00:59Z</time>
      </trkpt>
      <trkpt lat="50.55013" lon="3.60677">
        <ele>59.5</ele>
        <time>2022-05-05T02:00:59Z</time>
      </trkpt>
      <trkpt lat="50.55014" lon="3.60676">
        <ele>59.5</ele>
        <time>2022-05-05T02:00:59Z</time>
      </trkpt>
      <trkpt lat="50.55013" lon="3.60676">
        <ele>59.5</ele>
        <time>2022-05-05T02:00:59Z</time>
      </trkpt>
      <trkpt lat="50.55013" lon="3.60676">
        <ele>59.5</ele>
        <time>2022-05-05T02:00:59Z</time>
      </trkpt>
      <trkpt lat="50.55013" lon="3.60676">
        <ele>59.5</ele>
        <time>2022-05-05T02:01:00Z</time>
      </trkpt>
      <trkpt lat="50.55013" lon="3.60676">
        <ele>59.5</ele>
        <time>2022-05-05T02:01:00Z</time>
      </trkpt>
      <trkpt lat="50.55013" lon="3.60677">
        <ele>59.5</ele>
        <time>2022-05-05T02:01:00Z</time>
      </trkpt>
      <trkpt lat="50.55013" lon="3.60677">
        <ele>59.5</ele>
        <time>2022-05-05T02:01:00Z</time>
      </trkpt>
      <trkpt lat="50.55013" lon="3.60677">
        <ele>59.5</ele>
        <time>2022-05-05T02:01:00Z</time>
      </trkpt>
      <trkpt lat="50.55013" lon="3.60677">
        <ele>59.5</ele>
        <time>2022-05-05T02:01:00Z</time>
      </trkpt>
      <trkpt lat="50.55013" lon="3.60677">
        <ele>59.5</ele>
        <time>2022-05-05T02:01:00Z</time>
      </trkpt>
      <trkpt lat="50.55013" lon="3.60677">
        <ele>59.5</ele>
        <time>2022-05-05T02:01:00Z</time>
      </trkpt>
      <trkpt lat="50.55013" lon="3.60677">
        <ele>59.5</ele>
        <time>2022-05-05T02:01:00Z</time>
      </trkpt>
      <trkpt lat="50.55013" lon="3.60678">
        <ele>59.5</ele>
        <time>2022-05-05T02:01:00Z</time>
      </trkpt>
      <trkpt lat="50.55013" lon="3.60678">
        <ele>59.5</ele>
        <time>2022-05-05T02:01:00Z</time>
      </trkpt>
      <trkpt lat="50.55013" lon="3.60678">
        <ele>59.5</ele>
        <time>2022-05-05T02:01:00Z</time>
      </trkpt>
      <trkpt lat="50.55013" lon="3.60677">
        <ele>59.5</ele>
        <time>2022-05-05T02:01:00Z</time>
      </trkpt>
      <trkpt lat="50.55013" lon="3.60676">
        <ele>59.5</ele>
        <time>2022-05-05T02:01:00Z</time>
      </trkpt>
      <trkpt lat="50.55013" lon="3.60676">
        <ele>59.5</ele>
        <time>2022-05-05T02:01:00Z</time>
      </trkpt>
      <trkpt lat="50.55013" lon="3.60677">
        <ele>59.5</ele>
        <time>2022-05-05T02:01:00Z</time>
      </trkpt>
      <trkpt lat="50.55013" lon="3.60677">
        <ele>59.5</ele>
        <time>2022-05-05T02:01:00Z</time>
      </trkpt>
      <trkpt lat="50.55013" lon="3.60677">
        <ele>59.5</ele>
        <time>2022-05-05T02:01:00Z</time>
      </trkpt>
      <trkpt lat="50.55014" lon="3.60676">
        <ele>59.5</ele>
        <time>2022-05-05T02:01:00Z</time>
      </trkpt>
      <trkpt lat="50.55014" lon="3.60675">
        <ele>59.5</ele>
        <time>2022-05-05T02:01:00Z</time>
      </trkpt>
      <trkpt lat="50.55014" lon="3.60675">
        <ele>59.5</ele>
        <time>2022-05-05T02:01:00Z</time>
      </trkpt>
      <trkpt lat="50.55013" lon="3.60676">
        <ele>59.5</ele>
        <time>2022-05-05T02:01:00Z</time>
      </trkpt>
      <trkpt lat="50.55013" lon="3.60677">
        <ele>59.5</ele>
        <time>2022-05-05T02:01:00Z</time>
      </trkpt>
      <trkpt lat="50.55013" lon="3.60677">
        <ele>59.5</ele>
        <time>2022-05-05T02:01:00Z</time>
      </trkpt>
      <trkpt lat="50.55013" lon="3.60677">
        <ele>59.5</ele>
        <time>2022-05-05T02:01:00Z</time>
      </trkpt>
      <trkpt lat="50.55013" lon="3.60676">
        <ele>59.5</ele>
        <time>2022-05-05T02:01:00Z</time>
      </trkpt>
      <trkpt lat="50.55013" lon="3.60676">
        <ele>59.5</ele>
        <time>2022-05-05T02:01:00Z</time>
      </trkpt>
      <trkpt lat="50.55012" lon="3.60677">
        <ele>59.5</ele>
        <time>2022-05-05T02:01:00Z</time>
      </trkpt>
      <trkpt lat="50.55012" lon="3.60677">
        <ele>59.5</ele>
        <time>2022-05-05T02:01:00Z</time>
      </trkpt>
      <trkpt lat="50.55013" lon="3.60677">
        <ele>59.5</ele>
        <time>2022-05-05T02:01:00Z</time>
      </trkpt>
      <trkpt lat="50.55012" lon="3.60678">
        <ele>59.5</ele>
        <time>2022-05-05T02:01:01Z</time>
      </trkpt>
      <trkpt lat="50.55012" lon="3.6068">
        <ele>59.6</ele>
        <time>2022-05-05T02:01:01Z</time>
      </trkpt>
      <trkpt lat="50.55012" lon="3.60679">
        <ele>59.6</ele>
        <time>2022-05-05T02:01:01Z</time>
      </trkpt>
      <trkpt lat="50.55012" lon="3.60679">
        <ele>59.6</ele>
        <time>2022-05-05T02:01:01Z</time>
      </trkpt>
      <trkpt lat="50.55012" lon="3.6068">
        <ele>59.6</ele>
        <time>2022-05-05T02:01:01Z</time>
      </trkpt>
      <trkpt lat="50.55012" lon="3.60683">
        <ele>59.6</ele>
        <time>2022-05-05T02:01:01Z</time>
      </trkpt>
      <trkpt lat="50.55013" lon="3.60691">
        <ele>59.6</ele>
        <time>2022-05-05T02:01:01Z</time>
      </trkpt>
      <trkpt lat="50.55015" lon="3.60703">
        <ele>59.7</ele>
        <time>2022-05-05T02:01:02Z</time>
      </trkpt>
      <trkpt lat="50.55016" lon="3.60717">
        <ele>59.9</ele>
        <time>2022-05-05T02:01:03Z</time>
      </trkpt>
      <trkpt lat="50.55017" lon="3.60731">
        <ele>60.1</ele>
        <time>2022-05-05T02:01:04Z</time>
      </trkpt>
      <trkpt lat="50.55017" lon="3.60747">
        <ele>60.4</ele>
        <time>2022-05-05T02:01:05Z</time>
      </trkpt>
      <trkpt lat="50.55017" lon="3.60762">
        <ele>60.7</ele>
        <time>2022-05-05T02:01:06Z</time>
      </trkpt>
      <trkpt lat="50.55018" lon="3.60776">
        <ele>60.8</ele>
        <time>2022-05-05T02:01:07Z</time>
      </trkpt>
      <trkpt lat="50.55018" lon="3.6079">
        <ele>60.8</ele>
        <time>2022-05-05T02:01:08Z</time>
      </trkpt>
      <trkpt lat="50.55017" lon="3.60802">
        <ele>60.9</ele>
        <time>2022-05-05T02:01:08Z</time>
      </trkpt>
      <trkpt lat="50.55018" lon="3.60816">
        <ele>61</ele>
        <time>2022-05-05T02:01:09Z</time>
      </trkpt>
      <trkpt lat="50.5502" lon="3.6083">
        <ele>61.1</ele>
        <time>2022-05-05T02:01:10Z</time>
      </trkpt>
      <trkpt lat="50.55022" lon="3.60845">
        <ele>61.1</ele>
        <time>2022-05-05T02:01:11Z</time>
      </trkpt>
      <trkpt lat="50.55025" lon="3.6086">
        <ele>61.1</ele>
        <time>2022-05-05T02:01:12Z</time>
      </trkpt>
      <trkpt lat="50.55027" lon="3.60874">
        <ele>61</ele>
        <time>2022-05-05T02:01:13Z</time>
      </trkpt>
      <trkpt lat="50.55029" lon="3.60889">
        <ele>61.1</ele>
        <time>2022-05-05T02:01:14Z</time>
      </trkpt>
      <trkpt lat="50.5503" lon="3.60904">
        <ele>61.3</ele>
        <time>2022-05-05T02:01:15Z</time>
      </trkpt>
      <trkpt lat="50.55031" lon="3.60917">
        <ele>61.5</ele>
        <time>2022-05-05T02:01:15Z</time>
      </trkpt>
      <trkpt lat="50.55031" lon="3.60929">
        <ele>61.6</ele>
        <time>2022-05-05T02:01:16Z</time>
      </trkpt>
      <trkpt lat="50.55029" lon="3.60936">
        <ele>61.6</ele>
        <time>2022-05-05T02:01:16Z</time>
      </trkpt>
      <trkpt lat="50.55029" lon="3.60943">
        <ele>61.7</ele>
        <time>2022-05-05T02:01:17Z</time>
      </trkpt>
      <trkpt lat="50.55029" lon="3.6095">
        <ele>61.7</ele>
        <time>2022-05-05T02:01:17Z</time>
      </trkpt>
      <trkpt lat="50.55031" lon="3.60959">
        <ele>61.8</ele>
        <time>2022-05-05T02:01:18Z</time>
      </trkpt>
      <trkpt lat="50.55034" lon="3.60966">
        <ele>62</ele>
        <time>2022-05-05T02:01:18Z</time>
      </trkpt>
      <trkpt lat="50.55037" lon="3.60972">
        <ele>62.1</ele>
        <time>2022-05-05T02:01:19Z</time>
      </trkpt>
      <trkpt lat="50.55041" lon="3.60977">
        <ele>62.2</ele>
        <time>2022-05-05T02:01:19Z</time>
      </trkpt>
      <trkpt lat="50.55045" lon="3.6098">
        <ele>62.3</ele>
        <time>2022-05-05T02:01:20Z</time>
      </trkpt>
      <trkpt lat="50.55047" lon="3.60984">
        <ele>62.3</ele>
        <time>2022-05-05T02:01:20Z</time>
      </trkpt>
      <trkpt lat="50.5505" lon="3.60988">
        <ele>62.2</ele>
        <time>2022-05-05T02:01:20Z</time>
      </trkpt>
      <trkpt lat="50.55055" lon="3.60993">
        <ele>62.2</ele>
        <time>2022-05-05T02:01:21Z</time>
      </trkpt>
      <trkpt lat="50.55062" lon="3.60997">
        <ele>62</ele>
        <time>2022-05-05T02:01:22Z</time>
      </trkpt>
      <trkpt lat="50.55069" lon="3.61004">
        <ele>61.9</ele>
        <time>2022-05-05T02:01:23Z</time>
      </trkpt>
      <trkpt lat="50.55077" lon="3.61009">
        <ele>61.7</ele>
        <time>2022-05-05T02:01:23Z</time>
      </trkpt>
      <trkpt lat="50.55084" lon="3.61016">
        <ele>61.6</ele>
        <time>2022-05-05T02:01:24Z</time>
      </trkpt>
      <trkpt lat="50.55091" lon="3.61022">
        <ele>61.5</ele>
        <time>2022-05-05T02:01:25Z</time>
      </trkpt>
      <trkpt lat="50.551" lon="3.61027">
        <ele>61.4</ele>
        <time>2022-05-05T02:01:26Z</time>
      </trkpt>
      <trkpt lat="50.55107" lon="3.61034">
        <ele>61.4</ele>
        <time>2022-05-05T02:01:27Z</time>
      </trkpt>
      <trkpt lat="50.55115" lon="3.6104">
        <ele>61.2</ele>
        <time>2022-05-05T02:01:27Z</time>
      </trkpt>
      <trkpt lat="50.55122" lon="3.61046">
        <ele>61</ele>
        <time>2022-05-05T02:01:28Z</time>
      </trkpt>
      <trkpt lat="50.5513" lon="3.61052">
        <ele>60.9</ele>
        <time>2022-05-05T02:01:29Z</time>
      </trkpt>
      <trkpt lat="50.55137" lon="3.61057">
        <ele>60.8</ele>
        <time>2022-05-05T02:01:30Z</time>
      </trkpt>
      <trkpt lat="50.55145" lon="3.61063">
        <ele>60.8</ele>
        <time>2022-05-05T02:01:31Z</time>
      </trkpt>
      <trkpt lat="50.55152" lon="3.61068">
        <ele>60.8</ele>
        <time>2022-05-05T02:01:31Z</time>
      </trkpt>
      <trkpt lat="50.55159" lon="3.61074">
        <ele>60.6</ele>
        <time>2022-05-05T02:01:32Z</time>
      </trkpt>
      <trkpt lat="50.55166" lon="3.6108">
        <ele>60.4</ele>
        <time>2022-05-05T02:01:33Z</time>
      </trkpt>
      <trkpt lat="50.55173" lon="3.61086">
        <ele>60.2</ele>
        <time>2022-05-05T02:01:34Z</time>
      </trkpt>
      <trkpt lat="50.55179" lon="3.61092">
        <ele>60.1</ele>
        <time>2022-05-05T02:01:34Z</time>
      </trkpt>
      <trkpt lat="50.55183" lon="3.61098">
        <ele>60</ele>
        <time>2022-05-05T02:01:35Z</time>
      </trkpt>
      <trkpt lat="50.55187" lon="3.61104">
        <ele>60</ele>
        <time>2022-05-05T02:01:35Z</time>
      </trkpt>
      <trkpt lat="50.5519" lon="3.6111">
        <ele>60</ele>
        <time>2022-05-05T02:01:36Z</time>
      </trkpt>
      <trkpt lat="50.55193" lon="3.61115">
        <ele>60</ele>
        <time>2022-05-05T02:01:36Z</time>
      </trkpt>
      <trkpt lat="50.55194" lon="3.61121">
        <ele>60</ele>
        <time>2022-05-05T02:01:37Z</time>
      </trkpt>
      <trkpt lat="50.55193" lon="3.61128">
        <ele>60.1</ele>
        <time>2022-05-05T02:01:37Z</time>
      </trkpt>
      <trkpt lat="50.55191" lon="3.61138">
        <ele>60.2</ele>
        <time>2022-05-05T02:01:38Z</time>
      </trkpt>
      <trkpt lat="50.5519" lon="3.61147">
        <ele>60.4</ele>
        <time>2022-05-05T02:01:38Z</time>
      </trkpt>
      <trkpt lat="50.5519" lon="3.61156">
        <ele>60.6</ele>
        <time>2022-05-05T02:01:39Z</time>
      </trkpt>
      <trkpt lat="50.5519" lon="3.61165">
        <ele>60.7</ele>
        <time>2022-05-05T02:01:39Z</time>
      </trkpt>
      <trkpt lat="50.5519" lon="3.61173">
        <ele>60.8</ele>
        <time>2022-05-05T02:01:40Z</time>
      </trkpt>
      <trkpt lat="50.5519" lon="3.61182">
        <ele>60.9</ele>
        <time>2022-05-05T02:01:40Z</time>
      </trkpt>
      <trkpt lat="50.5519" lon="3.61191">
        <ele>61.1</ele>
        <time>2022-05-05T02:01:41Z</time>
      </trkpt>
      <trkpt lat="50.55189" lon="3.61201">
        <ele>61.3</ele>
        <time>2022-05-05T02:01:42Z</time>
      </trkpt>
      <trkpt lat="50.55189" lon="3.61212">
        <ele>61.5</ele>
        <time>2022-05-05T02:01:42Z</time>
      </trkpt>
      <trkpt lat="50.55189" lon="3.61223">
        <ele>61.7</ele>
        <time>2022-05-05T02:01:43Z</time>
      </trkpt>
      <trkpt lat="50.55189" lon="3.61232">
        <ele>61.8</ele>
        <time>2022-05-05T02:01:43Z</time>
      </trkpt>
      <trkpt lat="50.55188" lon="3.61242">
        <ele>62</ele>
        <time>2022-05-05T02:01:44Z</time>
      </trkpt>
      <trkpt lat="50.55187" lon="3.61252">
        <ele>62.2</ele>
        <time>2022-05-05T02:01:45Z</time>
      </trkpt>
      <trkpt lat="50.55187" lon="3.61263">
        <ele>62.4</ele>
        <time>2022-05-05T02:01:45Z</time>
      </trkpt>
      <trkpt lat="50.55186" lon="3.61274">
        <ele>62.6</ele>
        <time>2022-05-05T02:01:46Z</time>
      </trkpt>
      <trkpt lat="50.55185" lon="3.61284">
        <ele>62.8</ele>
        <time>2022-05-05T02:01:47Z</time>
      </trkpt>
      <trkpt lat="50.55185" lon="3.61294">
        <ele>63</ele>
        <time>2022-05-05T02:01:47Z</time>
      </trkpt>
      <trkpt lat="50.55185" lon="3.61305">
        <ele>63.2</ele>
        <time>2022-05-05T02:01:48Z</time>
      </trkpt>
      <trkpt lat="50.55185" lon="3.61316">
        <ele>63.4</ele>
        <time>2022-05-05T02:01:49Z</time>
      </trkpt>
      <trkpt lat="50.55185" lon="3.61328">
        <ele>63.5</ele>
        <time>2022-05-05T02:01:49Z</time>
      </trkpt>
      <trkpt lat="50.55184" lon="3.6134">
        <ele>63.6</ele>
        <time>2022-05-05T02:01:50Z</time>
      </trkpt>
      <trkpt lat="50.55183" lon="3.61351">
        <ele>63.8</ele>
        <time>2022-05-05T02:01:51Z</time>
      </trkpt>
      <trkpt lat="50.55182" lon="3.61362">
        <ele>64</ele>
        <time>2022-05-05T02:01:51Z</time>
      </trkpt>
      <trkpt lat="50.55182" lon="3.61373">
        <ele>64.3</ele>
        <time>2022-05-05T02:01:52Z</time>
      </trkpt>
      <trkpt lat="50.55181" lon="3.61383">
        <ele>64.5</ele>
        <time>2022-05-05T02:01:53Z</time>
      </trkpt>
      <trkpt lat="50.5518" lon="3.61393">
        <ele>64.6</ele>
        <time>2022-05-05T02:01:53Z</time>
      </trkpt>
      <trkpt lat="50.55179" lon="3.61402">
        <ele>64.7</ele>
        <time>2022-05-05T02:01:54Z</time>
      </trkpt>
      <trkpt lat="50.55179" lon="3.61412">
        <ele>64.8</ele>
        <time>2022-05-05T02:01:54Z</time>
      </trkpt>
      <trkpt lat="50.55178" lon="3.61422">
        <ele>65</ele>
        <time>2022-05-05T02:01:55Z</time>
      </trkpt>
      <trkpt lat="50.55177" lon="3.61431">
        <ele>65.2</ele>
        <time>2022-05-05T02:01:56Z</time>
      </trkpt>
      <trkpt lat="50.55176" lon="3.6144">
        <ele>65.5</ele>
        <time>2022-05-05T02:01:56Z</time>
      </trkpt>
      <trkpt lat="50.55176" lon="3.61449">
        <ele>65.8</ele>
        <time>2022-05-05T02:01:57Z</time>
      </trkpt>
      <trkpt lat="50.55176" lon="3.61458">
        <ele>66.1</ele>
        <time>2022-05-05T02:01:57Z</time>
      </trkpt>
      <trkpt lat="50.55176" lon="3.61466">
        <ele>66.4</ele>
        <time>2022-05-05T02:01:58Z</time>
      </trkpt>
      <trkpt lat="50.55175" lon="3.61475">
        <ele>66.7</ele>
        <time>2022-05-05T02:01:58Z</time>
      </trkpt>
      <trkpt lat="50.55174" lon="3.61485">
        <ele>67</ele>
        <time>2022-05-05T02:01:59Z</time>
      </trkpt>
      <trkpt lat="50.55173" lon="3.61495">
        <ele>67.4</ele>
        <time>2022-05-05T02:01:59Z</time>
      </trkpt>
      <trkpt lat="50.55172" lon="3.61506">
        <ele>67.7</ele>
        <time>2022-05-05T02:02:00Z</time>
      </trkpt>
      <trkpt lat="50.55171" lon="3.61517">
        <ele>68.1</ele>
        <time>2022-05-05T02:02:01Z</time>
      </trkpt>
      <trkpt lat="50.5517" lon="3.61526">
        <ele>68.3</ele>
        <time>2022-05-05T02:02:01Z</time>
      </trkpt>
      <trkpt lat="50.55168" lon="3.61535">
        <ele>68.4</ele>
        <time>2022-05-05T02:02:02Z</time>
      </trkpt>
      <trkpt lat="50.55166" lon="3.61544">
        <ele>68.7</ele>
        <time>2022-05-05T02:02:02Z</time>
      </trkpt>
      <trkpt lat="50.55166" lon="3.61553">
        <ele>68.9</ele>
        <time>2022-05-05T02:02:03Z</time>
      </trkpt>
      <trkpt lat="50.55166" lon="3.61562">
        <ele>69.2</ele>
        <time>2022-05-05T02:02:04Z</time>
      </trkpt>
      <trkpt lat="50.55168" lon="3.61571">
        <ele>69.4</ele>
        <time>2022-05-05T02:02:04Z</time>
      </trkpt>
      <trkpt lat="50.55169" lon="3.61581">
        <ele>69.6</ele>
        <time>2022-05-05T02:02:05Z</time>
      </trkpt>
      <trkpt lat="50.5517" lon="3.61592">
        <ele>69.6</ele>
        <time>2022-05-05T02:02:05Z</time>
      </trkpt>
      <trkpt lat="50.55171" lon="3.61602">
        <ele>69.7</ele>
        <time>2022-05-05T02:02:06Z</time>
      </trkpt>
      <trkpt lat="50.55171" lon="3.61613">
        <ele>69.7</ele>
        <time>2022-05-05T02:02:07Z</time>
      </trkpt>
      <trkpt lat="50.55173" lon="3.61625">
        <ele>69.7</ele>
        <time>2022-05-05T02:02:07Z</time>
      </trkpt>
      <trkpt lat="50.55174" lon="3.61637">
        <ele>69.8</ele>
        <time>2022-05-05T02:02:08Z</time>
      </trkpt>
      <trkpt lat="50.55175" lon="3.6165">
        <ele>69.8</ele>
        <time>2022-05-05T02:02:09Z</time>
      </trkpt>
      <trkpt lat="50.55177" lon="3.61665">
        <ele>69.8</ele>
        <time>2022-05-05T02:02:10Z</time>
      </trkpt>
      <trkpt lat="50.5518" lon="3.61679">
        <ele>69.8</ele>
        <time>2022-05-05T02:02:11Z</time>
      </trkpt>
      <trkpt lat="50.55182" lon="3.61693">
        <ele>69.8</ele>
        <time>2022-05-05T02:02:12Z</time>
      </trkpt>
      <trkpt lat="50.55185" lon="3.61705">
        <ele>69.8</ele>
        <time>2022-05-05T02:02:12Z</time>
      </trkpt>
      <trkpt lat="50.55187" lon="3.61718">
        <ele>69.8</ele>
        <time>2022-05-05T02:02:13Z</time>
      </trkpt>
      <trkpt lat="50.5519" lon="3.6173">
        <ele>69.8</ele>
        <time>2022-05-05T02:02:14Z</time>
      </trkpt>
      <trkpt lat="50.55193" lon="3.61744">
        <ele>69.8</ele>
        <time>2022-05-05T02:02:15Z</time>
      </trkpt>
      <trkpt lat="50.55197" lon="3.61758">
        <ele>69.8</ele>
        <time>2022-05-05T02:02:16Z</time>
      </trkpt>
      <trkpt lat="50.55201" lon="3.61772">
        <ele>69.8</ele>
        <time>2022-05-05T02:02:17Z</time>
      </trkpt>
      <trkpt lat="50.55205" lon="3.61786">
        <ele>69.8</ele>
        <time>2022-05-05T02:02:18Z</time>
      </trkpt>
      <trkpt lat="50.5521" lon="3.61799">
        <ele>69.8</ele>
        <time>2022-05-05T02:02:19Z</time>
      </trkpt>
      <trkpt lat="50.55214" lon="3.61812">
        <ele>69.7</ele>
        <time>2022-05-05T02:02:19Z</time>
      </trkpt>
      <trkpt lat="50.55217" lon="3.61826">
        <ele>69.6</ele>
        <time>2022-05-05T02:02:20Z</time>
      </trkpt>
      <trkpt lat="50.55221" lon="3.61839">
        <ele>69.6</ele>
        <time>2022-05-05T02:02:21Z</time>
      </trkpt>
      <trkpt lat="50.55225" lon="3.61852">
        <ele>69.6</ele>
        <time>2022-05-05T02:02:22Z</time>
      </trkpt>
      <trkpt lat="50.55228" lon="3.61865">
        <ele>69.5</ele>
        <time>2022-05-05T02:02:23Z</time>
      </trkpt>
      <trkpt lat="50.55232" lon="3.61878">
        <ele>69.3</ele>
        <time>2022-05-05T02:02:24Z</time>
      </trkpt>
      <trkpt lat="50.55236" lon="3.61891">
        <ele>69.2</ele>
        <time>2022-05-05T02:02:25Z</time>
      </trkpt>
      <trkpt lat="50.55239" lon="3.61903">
        <ele>69</ele>
        <time>2022-05-05T02:02:25Z</time>
      </trkpt>
      <trkpt lat="50.55241" lon="3.61917">
        <ele>68.9</ele>
        <time>2022-05-05T02:02:26Z</time>
      </trkpt>
      <trkpt lat="50.55244" lon="3.61932">
        <ele>68.7</ele>
        <time>2022-05-05T02:02:27Z</time>
      </trkpt>
      <trkpt lat="50.55247" lon="3.61951">
        <ele>68.5</ele>
        <time>2022-05-05T02:02:28Z</time>
      </trkpt>
      <trkpt lat="50.55251" lon="3.61972">
        <ele>68.3</ele>
        <time>2022-05-05T02:02:30Z</time>
      </trkpt>
      <trkpt lat="50.55257" lon="3.61992">
        <ele>68.1</ele>
        <time>2022-05-05T02:02:31Z</time>
      </trkpt>
      <trkpt lat="50.55263" lon="3.62013">
        <ele>68.1</ele>
        <time>2022-05-05T02:02:32Z</time>
      </trkpt>
      <trkpt lat="50.55268" lon="3.62033">
        <ele>68.1</ele>
        <time>2022-05-05T02:02:34Z</time>
      </trkpt>
      <trkpt lat="50.55273" lon="3.62054">
        <ele>68.1</ele>
        <time>2022-05-05T02:02:35Z</time>
      </trkpt>
      <trkpt lat="50.5528" lon="3.62071">
        <ele>68.2</ele>
        <time>2022-05-05T02:02:36Z</time>
      </trkpt>
      <trkpt lat="50.55285" lon="3.62088">
        <ele>68.5</ele>
        <time>2022-05-05T02:02:37Z</time>
      </trkpt>
      <trkpt lat="50.5529" lon="3.62106">
        <ele>68.7</ele>
        <time>2022-05-05T02:02:39Z</time>
      </trkpt>
      <trkpt lat="50.55297" lon="3.62125">
        <ele>68.9</ele>
        <time>2022-05-05T02:02:40Z</time>
      </trkpt>
      <trkpt lat="50.55305" lon="3.62145">
        <ele>69.1</ele>
        <time>2022-05-05T02:02:41Z</time>
      </trkpt>
      <trkpt lat="50.55316" lon="3.62164">
        <ele>69.4</ele>
        <time>2022-05-05T02:02:43Z</time>
      </trkpt>
      <trkpt lat="50.55328" lon="3.62183">
        <ele>69.7</ele>
        <time>2022-05-05T02:02:45Z</time>
      </trkpt>
      <trkpt lat="50.55341" lon="3.62202">
        <ele>70</ele>
        <time>2022-05-05T02:02:46Z</time>
      </trkpt>
      <trkpt lat="50.55355" lon="3.62222">
        <ele>70.4</ele>
        <time>2022-05-05T02:02:48Z</time>
      </trkpt>
      <trkpt lat="50.5537" lon="3.6224">
        <ele>70.8</ele>
        <time>2022-05-05T02:02:50Z</time>
      </trkpt>
      <trkpt lat="50.55383" lon="3.62254">
        <ele>71.1</ele>
        <time>2022-05-05T02:02:51Z</time>
      </trkpt>
      <trkpt lat="50.55394" lon="3.62269">
        <ele>71.3</ele>
        <time>2022-05-05T02:02:53Z</time>
      </trkpt>
      <trkpt lat="50.55406" lon="3.62283">
        <ele>71.5</ele>
        <time>2022-05-05T02:02:54Z</time>
      </trkpt>
      <trkpt lat="50.55417" lon="3.62297">
        <ele>71.9</ele>
        <time>2022-05-05T02:02:56Z</time>
      </trkpt>
      <trkpt lat="50.55427" lon="3.62311">
        <ele>72.2</ele>
        <time>2022-05-05T02:02:57Z</time>
      </trkpt>
      <trkpt lat="50.55458" lon="3.62398">
        <ele>73</ele>
        <time>2022-05-05T02:03:03Z</time>
      </trkpt>
      <trkpt lat="50.55458" lon="3.62404">
        <ele>73.1</ele>
        <time>2022-05-05T02:03:03Z</time>
      </trkpt>
      <trkpt lat="50.55459" lon="3.6241">
        <ele>73.2</ele>
        <time>2022-05-05T02:03:04Z</time>
      </trkpt>
      <trkpt lat="50.55458" lon="3.6241">
        <ele>73.2</ele>
        <time>2022-05-05T02:03:04Z</time>
      </trkpt>
      <trkpt lat="50.55457" lon="3.62422">
        <ele>73</ele>
        <time>2022-05-05T02:03:04Z</time>
      </trkpt>
      <trkpt lat="50.55463" lon="3.62423">
        <ele>73.2</ele>
        <time>2022-05-05T02:03:05Z</time>
      </trkpt>
      <trkpt lat="50.55468" lon="3.62424">
        <ele>73.3</ele>
        <time>2022-05-05T02:03:05Z</time>
      </trkpt>
      <trkpt lat="50.55474" lon="3.62429">
        <ele>73.5</ele>
        <time>2022-05-05T02:03:06Z</time>
      </trkpt>
      <trkpt lat="50.55478" lon="3.62435">
        <ele>73.6</ele>
        <time>2022-05-05T02:03:07Z</time>
      </trkpt>
      <trkpt lat="50.55482" lon="3.62441">
        <ele>73.7</ele>
        <time>2022-05-05T02:03:07Z</time>
      </trkpt>
      <trkpt lat="50.55486" lon="3.62449">
        <ele>73.7</ele>
        <time>2022-05-05T02:03:08Z</time>
      </trkpt>
      <trkpt lat="50.5549" lon="3.62458">
        <ele>73.8</ele>
        <time>2022-05-05T02:03:08Z</time>
      </trkpt>
      <trkpt lat="50.55495" lon="3.62468">
        <ele>73.8</ele>
        <time>2022-05-05T02:03:09Z</time>
      </trkpt>
      <trkpt lat="50.55499" lon="3.62477">
        <ele>73.8</ele>
        <time>2022-05-05T02:03:10Z</time>
      </trkpt>
      <trkpt lat="50.55504" lon="3.62487">
        <ele>73.8</ele>
        <time>2022-05-05T02:03:11Z</time>
      </trkpt>
      <trkpt lat="50.55509" lon="3.62497">
        <ele>73.8</ele>
        <time>2022-05-05T02:03:11Z</time>
      </trkpt>
      <trkpt lat="50.55515" lon="3.62509">
        <ele>73.8</ele>
        <time>2022-05-05T02:03:12Z</time>
      </trkpt>
      <trkpt lat="50.55521" lon="3.62522">
        <ele>73.8</ele>
        <time>2022-05-05T02:03:13Z</time>
      </trkpt>
      <trkpt lat="50.55528" lon="3.62533">
        <ele>73.8</ele>
        <time>2022-05-05T02:03:14Z</time>
      </trkpt>
      <trkpt lat="50.55535" lon="3.62544">
        <ele>73.8</ele>
        <time>2022-05-05T02:03:15Z</time>
      </trkpt>
      <trkpt lat="50.55544" lon="3.62554">
        <ele>73.8</ele>
        <time>2022-05-05T02:03:16Z</time>
      </trkpt>
      <trkpt lat="50.55554" lon="3.62562">
        <ele>73.8</ele>
        <time>2022-05-05T02:03:17Z</time>
      </trkpt>
      <trkpt lat="50.55564" lon="3.62568">
        <ele>73.8</ele>
        <time>2022-05-05T02:03:18Z</time>
      </trkpt>
      <trkpt lat="50.55573" lon="3.62572">
        <ele>73.8</ele>
        <time>2022-05-05T02:03:19Z</time>
      </trkpt>
      <trkpt lat="50.55583" lon="3.62573">
        <ele>73.8</ele>
        <time>2022-05-05T02:03:20Z</time>
      </trkpt>
      <trkpt lat="50.55592" lon="3.62572">
        <ele>73.8</ele>
        <time>2022-05-05T02:03:21Z</time>
      </trkpt>
      <trkpt lat="50.556" lon="3.62573">
        <ele>73.8</ele>
        <time>2022-05-05T02:03:22Z</time>
      </trkpt>
      <trkpt lat="50.55606" lon="3.62573">
        <ele>73.8</ele>
        <time>2022-05-05T02:03:22Z</time>
      </trkpt>
      <trkpt lat="50.55612" lon="3.62576">
        <ele>73.8</ele>
        <time>2022-05-05T02:03:23Z</time>
      </trkpt>
      <trkpt lat="50.55617" lon="3.62582">
        <ele>73.8</ele>
        <time>2022-05-05T02:03:24Z</time>
      </trkpt>
      <trkpt lat="50.55621" lon="3.62589">
        <ele>73.7</ele>
        <time>2022-05-05T02:03:24Z</time>
      </trkpt>
      <trkpt lat="50.55624" lon="3.62598">
        <ele>73.4</ele>
        <time>2022-05-05T02:03:25Z</time>
      </trkpt>
      <trkpt lat="50.55626" lon="3.62608">
        <ele>73.2</ele>
        <time>2022-05-05T02:03:25Z</time>
      </trkpt>
      <trkpt lat="50.55628" lon="3.62618">
        <ele>72.7</ele>
        <time>2022-05-05T02:03:26Z</time>
      </trkpt>
      <trkpt lat="50.5563" lon="3.62628">
        <ele>71.3</ele>
        <time>2022-05-05T02:03:27Z</time>
      </trkpt>
      <trkpt lat="50.55632" lon="3.62636">
        <ele>70.8</ele>
        <time>2022-05-05T02:03:27Z</time>
      </trkpt>
      <trkpt lat="50.55634" lon="3.62644">
        <ele>70.9</ele>
        <time>2022-05-05T02:03:28Z</time>
      </trkpt>
      <trkpt lat="50.55635" lon="3.62652">
        <ele>71.2</ele>
        <time>2022-05-05T02:03:28Z</time>
      </trkpt>
      <trkpt lat="50.55635" lon="3.62658">
        <ele>71.7</ele>
        <time>2022-05-05T02:03:28Z</time>
      </trkpt>
      <trkpt lat="50.55634" lon="3.62662">
        <ele>72.1</ele>
        <time>2022-05-05T02:03:29Z</time>
      </trkpt>
      <trkpt lat="50.55632" lon="3.62665">
        <ele>72.6</ele>
        <time>2022-05-05T02:03:29Z</time>
      </trkpt>
      <trkpt lat="50.55627" lon="3.62666">
        <ele>72.9</ele>
        <time>2022-05-05T02:03:29Z</time>
      </trkpt>
      <trkpt lat="50.55623" lon="3.62668">
        <ele>73</ele>
        <time>2022-05-05T02:03:30Z</time>
      </trkpt>
      <trkpt lat="50.55617" lon="3.62669">
        <ele>73.1</ele>
        <time>2022-05-05T02:03:30Z</time>
      </trkpt>
      <trkpt lat="50.55611" lon="3.6267">
        <ele>73.1</ele>
        <time>2022-05-05T02:03:31Z</time>
      </trkpt>
      <trkpt lat="50.55604" lon="3.62672">
        <ele>73.1</ele>
        <time>2022-05-05T02:03:32Z</time>
      </trkpt>
      <trkpt lat="50.55598" lon="3.62674">
        <ele>73</ele>
        <time>2022-05-05T02:03:32Z</time>
      </trkpt>
      <trkpt lat="50.55591" lon="3.62676">
        <ele>72.9</ele>
        <time>2022-05-05T02:03:33Z</time>
      </trkpt>
      <trkpt lat="50.55583" lon="3.62678">
        <ele>72.8</ele>
        <time>2022-05-05T02:03:34Z</time>
      </trkpt>
      <trkpt lat="50.55573" lon="3.62681">
        <ele>72.7</ele>
        <time>2022-05-05T02:03:35Z</time>
      </trkpt>
      <trkpt lat="50.55563" lon="3.62685">
        <ele>72.6</ele>
        <time>2022-05-05T02:03:36Z</time>
      </trkpt>
      <trkpt lat="50.55553" lon="3.62688">
        <ele>72.4</ele>
        <time>2022-05-05T02:03:37Z</time>
      </trkpt>
      <trkpt lat="50.55544" lon="3.62691">
        <ele>72.3</ele>
        <time>2022-05-05T02:03:38Z</time>
      </trkpt>
      <trkpt lat="50.55535" lon="3.62694">
        <ele>72.2</ele>
        <time>2022-05-05T02:03:38Z</time>
      </trkpt>
      <trkpt lat="50.55526" lon="3.62697">
        <ele>72.1</ele>
        <time>2022-05-05T02:03:39Z</time>
      </trkpt>
      <trkpt lat="50.55517" lon="3.62701">
        <ele>72</ele>
        <time>2022-05-05T02:03:40Z</time>
      </trkpt>
      <trkpt lat="50.55508" lon="3.62705">
        <ele>71.9</ele>
        <time>2022-05-05T02:03:41Z</time>
      </trkpt>
      <trkpt lat="50.55498" lon="3.62709">
        <ele>71.7</ele>
        <time>2022-05-05T02:03:42Z</time>
      </trkpt>
      <trkpt lat="50.55489" lon="3.62713">
        <ele>71.6</ele>
        <time>2022-05-05T02:03:43Z</time>
      </trkpt>
      <trkpt lat="50.55479" lon="3.62717">
        <ele>71.3</ele>
        <time>2022-05-05T02:03:44Z</time>
      </trkpt>
      <trkpt lat="50.5547" lon="3.6272">
        <ele>71.1</ele>
        <time>2022-05-05T02:03:45Z</time>
      </trkpt>
      <trkpt lat="50.55461" lon="3.62723">
        <ele>70.9</ele>
        <time>2022-05-05T02:03:46Z</time>
      </trkpt>
      <trkpt lat="50.55453" lon="3.62725">
        <ele>70.7</ele>
        <time>2022-05-05T02:03:47Z</time>
      </trkpt>
      <trkpt lat="50.55445" lon="3.62728">
        <ele>70.5</ele>
        <time>2022-05-05T02:03:47Z</time>
      </trkpt>
      <trkpt lat="50.55437" lon="3.62731">
        <ele>70.4</ele>
        <time>2022-05-05T02:03:48Z</time>
      </trkpt>
      <trkpt lat="50.5543" lon="3.62733">
        <ele>70.2</ele>
        <time>2022-05-05T02:03:49Z</time>
      </trkpt>
      <trkpt lat="50.55423" lon="3.62735">
        <ele>70</ele>
        <time>2022-05-05T02:03:49Z</time>
      </trkpt>
      <trkpt lat="50.55417" lon="3.62738">
        <ele>69.8</ele>
        <time>2022-05-05T02:03:50Z</time>
      </trkpt>
      <trkpt lat="50.55412" lon="3.6274">
        <ele>69.7</ele>
        <time>2022-05-05T02:03:50Z</time>
      </trkpt>
      <trkpt lat="50.55407" lon="3.62742">
        <ele>69.5</ele>
        <time>2022-05-05T02:03:51Z</time>
      </trkpt>
      <trkpt lat="50.55401" lon="3.62746">
        <ele>69.4</ele>
        <time>2022-05-05T02:03:52Z</time>
      </trkpt>
      <trkpt lat="50.55395" lon="3.62748">
        <ele>69.3</ele>
        <time>2022-05-05T02:03:52Z</time>
      </trkpt>
      <trkpt lat="50.55388" lon="3.6275">
        <ele>69.2</ele>
        <time>2022-05-05T02:03:53Z</time>
      </trkpt>
      <trkpt lat="50.55382" lon="3.62751">
        <ele>69</ele>
        <time>2022-05-05T02:03:53Z</time>
      </trkpt>
      <trkpt lat="50.55376" lon="3.62752">
        <ele>68.8</ele>
        <time>2022-05-05T02:03:54Z</time>
      </trkpt>
      <trkpt lat="50.55369" lon="3.62755">
        <ele>68.5</ele>
        <time>2022-05-05T02:03:55Z</time>
      </trkpt>
      <trkpt lat="50.55361" lon="3.62757">
        <ele>68.1</ele>
        <time>2022-05-05T02:03:55Z</time>
      </trkpt>
      <trkpt lat="50.55353" lon="3.6276">
        <ele>67.8</ele>
        <time>2022-05-05T02:03:56Z</time>
      </trkpt>
      <trkpt lat="50.55345" lon="3.62762">
        <ele>67.5</ele>
        <time>2022-05-05T02:03:57Z</time>
      </trkpt>
      <trkpt lat="50.55337" lon="3.62765">
        <ele>67.3</ele>
        <time>2022-05-05T02:03:58Z</time>
      </trkpt>
      <trkpt lat="50.5533" lon="3.62767">
        <ele>67.2</ele>
        <time>2022-05-05T02:03:59Z</time>
      </trkpt>
      <trkpt lat="50.55323" lon="3.6277">
        <ele>67</ele>
        <time>2022-05-05T02:03:59Z</time>
      </trkpt>
      <trkpt lat="50.55316" lon="3.62772">
        <ele>66.8</ele>
        <time>2022-05-05T02:04:00Z</time>
      </trkpt>
      <trkpt lat="50.55309" lon="3.62775">
        <ele>66.7</ele>
        <time>2022-05-05T02:04:00Z</time>
      </trkpt>
      <trkpt lat="50.55303" lon="3.62776">
        <ele>66.4</ele>
        <time>2022-05-05T02:04:01Z</time>
      </trkpt>
      <trkpt lat="50.55297" lon="3.62778">
        <ele>66.2</ele>
        <time>2022-05-05T02:04:02Z</time>
      </trkpt>
      <trkpt lat="50.55292" lon="3.6278">
        <ele>66.1</ele>
        <time>2022-05-05T02:04:02Z</time>
      </trkpt>
      <trkpt lat="50.55287" lon="3.62783">
        <ele>66</ele>
        <time>2022-05-05T02:04:03Z</time>
      </trkpt>
      <trkpt lat="50.55282" lon="3.62785">
        <ele>65.9</ele>
        <time>2022-05-05T02:04:03Z</time>
      </trkpt>
      <trkpt lat="50.55276" lon="3.62787">
        <ele>65.8</ele>
        <time>2022-05-05T02:04:04Z</time>
      </trkpt>
      <trkpt lat="50.55271" lon="3.6279">
        <ele>65.7</ele>
        <time>2022-05-05T02:04:04Z</time>
      </trkpt>
      <trkpt lat="50.55265" lon="3.62793">
        <ele>65.5</ele>
        <time>2022-05-05T02:04:05Z</time>
      </trkpt>
      <trkpt lat="50.55259" lon="3.62795">
        <ele>65.4</ele>
        <time>2022-05-05T02:04:05Z</time>
      </trkpt>
      <trkpt lat="50.55254" lon="3.62798">
        <ele>65.2</ele>
        <time>2022-05-05T02:04:06Z</time>
      </trkpt>
      <trkpt lat="50.55249" lon="3.628">
        <ele>65.1</ele>
        <time>2022-05-05T02:04:06Z</time>
      </trkpt>
      <trkpt lat="50.55243" lon="3.62803">
        <ele>65</ele>
        <time>2022-05-05T02:04:07Z</time>
      </trkpt>
      <trkpt lat="50.55238" lon="3.62805">
        <ele>65</ele>
        <time>2022-05-05T02:04:08Z</time>
      </trkpt>
      <trkpt lat="50.55233" lon="3.62805">
        <ele>65.1</ele>
        <time>2022-05-05T02:04:08Z</time>
      </trkpt>
      <trkpt lat="50.5523" lon="3.62808">
        <ele>65.2</ele>
        <time>2022-05-05T02:04:08Z</time>
      </trkpt>
      <trkpt lat="50.55228" lon="3.62809">
        <ele>65.2</ele>
        <time>2022-05-05T02:04:09Z</time>
      </trkpt>
      <trkpt lat="50.55226" lon="3.62811">
        <ele>65.3</ele>
        <time>2022-05-05T02:04:09Z</time>
      </trkpt>
      <trkpt lat="50.55224" lon="3.62812">
        <ele>65.2</ele>
        <time>2022-05-05T02:04:09Z</time>
      </trkpt>
      <trkpt lat="50.55224" lon="3.62812">
        <ele>65.2</ele>
        <time>2022-05-05T02:04:09Z</time>
      </trkpt>
      <trkpt lat="50.55224" lon="3.62813">
        <ele>65.2</ele>
        <time>2022-05-05T02:04:09Z</time>
      </trkpt>
      <trkpt lat="50.55223" lon="3.62813">
        <ele>65.1</ele>
        <time>2022-05-05T02:04:09Z</time>
      </trkpt>
      <trkpt lat="50.55222" lon="3.62814">
        <ele>65.1</ele>
        <time>2022-05-05T02:04:09Z</time>
      </trkpt>
      <trkpt lat="50.55222" lon="3.62815">
        <ele>65</ele>
        <time>2022-05-05T02:04:09Z</time>
      </trkpt>
      <trkpt lat="50.55223" lon="3.62815">
        <ele>64.9</ele>
        <time>2022-05-05T02:04:09Z</time>
      </trkpt>
      <trkpt lat="50.55222" lon="3.62814">
        <ele>64.9</ele>
        <time>2022-05-05T02:04:09Z</time>
      </trkpt>
      <trkpt lat="50.55222" lon="3.62813">
        <ele>64.9</ele>
        <time>2022-05-05T02:04:09Z</time>
      </trkpt>
      <trkpt lat="50.55222" lon="3.62813">
        <ele>64.9</ele>
        <time>2022-05-05T02:04:09Z</time>
      </trkpt>
      <trkpt lat="50.55222" lon="3.62813">
        <ele>64.9</ele>
        <time>2022-05-05T02:04:10Z</time>
      </trkpt>
      <trkpt lat="50.55222" lon="3.62814">
        <ele>65</ele>
        <time>2022-05-05T02:04:10Z</time>
      </trkpt>
      <trkpt lat="50.55222" lon="3.62815">
        <ele>64.9</ele>
        <time>2022-05-05T02:04:10Z</time>
      </trkpt>
      <trkpt lat="50.55222" lon="3.62816">
        <ele>64.9</ele>
        <time>2022-05-05T02:04:10Z</time>
      </trkpt>
      <trkpt lat="50.55221" lon="3.62817">
        <ele>64.8</ele>
        <time>2022-05-05T02:04:10Z</time>
      </trkpt>
      <trkpt lat="50.55218" lon="3.62819">
        <ele>64.7</ele>
        <time>2022-05-05T02:04:10Z</time>
      </trkpt>
      <trkpt lat="50.55214" lon="3.62821">
        <ele>64.5</ele>
        <time>2022-05-05T02:04:10Z</time>
      </trkpt>
      <trkpt lat="50.55211" lon="3.62821">
        <ele>64.3</ele>
        <time>2022-05-05T02:04:11Z</time>
      </trkpt>
      <trkpt lat="50.55207" lon="3.62822">
        <ele>64</ele>
        <time>2022-05-05T02:04:11Z</time>
      </trkpt>
      <trkpt lat="50.55203" lon="3.62823">
        <ele>63.8</ele>
        <time>2022-05-05T02:04:12Z</time>
      </trkpt>
      <trkpt lat="50.552" lon="3.62826">
        <ele>63.5</ele>
        <time>2022-05-05T02:04:12Z</time>
      </trkpt>
      <trkpt lat="50.55196" lon="3.62827">
        <ele>63.3</ele>
        <time>2022-05-05T02:04:12Z</time>
      </trkpt>
      <trkpt lat="50.55192" lon="3.62829">
        <ele>63.2</ele>
        <time>2022-05-05T02:04:13Z</time>
      </trkpt>
      <trkpt lat="50.55188" lon="3.6283">
        <ele>63</ele>
        <time>2022-05-05T02:04:13Z</time>
      </trkpt>
      <trkpt lat="50.55184" lon="3.62831">
        <ele>62.9</ele>
        <time>2022-05-05T02:04:13Z</time>
      </trkpt>
      <trkpt lat="50.5518" lon="3.62832">
        <ele>62.9</ele>
        <time>2022-05-05T02:04:14Z</time>
      </trkpt>
      <trkpt lat="50.55175" lon="3.62834">
        <ele>62.8</ele>
        <time>2022-05-05T02:04:14Z</time>
      </trkpt>
      <trkpt lat="50.55171" lon="3.62836">
        <ele>62.7</ele>
        <time>2022-05-05T02:04:15Z</time>
      </trkpt>
      <trkpt lat="50.55166" lon="3.62839">
        <ele>62.6</ele>
        <time>2022-05-05T02:04:15Z</time>
      </trkpt>
      <trkpt lat="50.5516" lon="3.6284">
        <ele>62.2</ele>
        <time>2022-05-05T02:04:16Z</time>
      </trkpt>
      <trkpt lat="50.55155" lon="3.62842">
        <ele>61.8</ele>
        <time>2022-05-05T02:04:16Z</time>
      </trkpt>
      <trkpt lat="50.55149" lon="3.62845">
        <ele>61.5</ele>
        <time>2022-05-05T02:04:17Z</time>
      </trkpt>
      <trkpt lat="50.55143" lon="3.6285">
        <ele>61.2</ele>
        <time>2022-05-05T02:04:18Z</time>
      </trkpt>
      <trkpt lat="50.55137" lon="3.62853">
        <ele>60.9</ele>
        <time>2022-05-05T02:04:18Z</time>
      </trkpt>
      <trkpt lat="50.5513" lon="3.62857">
        <ele>60.6</ele>
        <time>2022-05-05T02:04:19Z</time>
      </trkpt>
      <trkpt lat="50.55122" lon="3.62862">
        <ele>60.4</ele>
        <time>2022-05-05T02:04:20Z</time>
      </trkpt>
      <trkpt lat="50.55115" lon="3.62864">
        <ele>60.4</ele>
        <time>2022-05-05T02:04:20Z</time>
      </trkpt>
      <trkpt lat="50.55109" lon="3.62866">
        <ele>60.3</ele>
        <time>2022-05-05T02:04:21Z</time>
      </trkpt>
      <trkpt lat="50.55104" lon="3.62869">
        <ele>60.2</ele>
        <time>2022-05-05T02:04:21Z</time>
      </trkpt>
      <trkpt lat="50.55099" lon="3.62871">
        <ele>60</ele>
        <time>2022-05-05T02:04:22Z</time>
      </trkpt>
      <trkpt lat="50.55091" lon="3.62875">
        <ele>59.7</ele>
        <time>2022-05-05T02:04:23Z</time>
      </trkpt>
      <trkpt lat="50.55083" lon="3.62878">
        <ele>59.4</ele>
        <time>2022-05-05T02:04:23Z</time>
      </trkpt>
      <trkpt lat="50.55077" lon="3.62881">
        <ele>59.1</ele>
        <time>2022-05-05T02:04:24Z</time>
      </trkpt>
      <trkpt lat="50.5507" lon="3.62884">
        <ele>58.9</ele>
        <time>2022-05-05T02:04:25Z</time>
      </trkpt>
      <trkpt lat="50.55062" lon="3.62886">
        <ele>58.9</ele>
        <time>2022-05-05T02:04:26Z</time>
      </trkpt>
      <trkpt lat="50.55054" lon="3.62889">
        <ele>59</ele>
        <time>2022-05-05T02:04:26Z</time>
      </trkpt>
      <trkpt lat="50.55046" lon="3.62893">
        <ele>59.3</ele>
        <time>2022-05-05T02:04:27Z</time>
      </trkpt>
      <trkpt lat="50.55039" lon="3.62896">
        <ele>59.3</ele>
        <time>2022-05-05T02:04:28Z</time>
      </trkpt>
      <trkpt lat="50.55032" lon="3.62899">
        <ele>59.2</ele>
        <time>2022-05-05T02:04:29Z</time>
      </trkpt>
      <trkpt lat="50.55025" lon="3.62903">
        <ele>59.1</ele>
        <time>2022-05-05T02:04:29Z</time>
      </trkpt>
      <trkpt lat="50.55019" lon="3.62907">
        <ele>59</ele>
        <time>2022-05-05T02:04:30Z</time>
      </trkpt>
      <trkpt lat="50.55013" lon="3.6291">
        <ele>58.9</ele>
        <time>2022-05-05T02:04:30Z</time>
      </trkpt>
      <trkpt lat="50.55008" lon="3.62912">
        <ele>58.9</ele>
        <time>2022-05-05T02:04:31Z</time>
      </trkpt>
      <trkpt lat="50.55003" lon="3.62914">
        <ele>59</ele>
        <time>2022-05-05T02:04:31Z</time>
      </trkpt>
      <trkpt lat="50.55" lon="3.62916">
        <ele>59.1</ele>
        <time>2022-05-05T02:04:32Z</time>
      </trkpt>
      <trkpt lat="50.54996" lon="3.62918">
        <ele>59.4</ele>
        <time>2022-05-05T02:04:32Z</time>
      </trkpt>
      <trkpt lat="50.54993" lon="3.62921">
        <ele>59.5</ele>
        <time>2022-05-05T02:04:32Z</time>
      </trkpt>
      <trkpt lat="50.54991" lon="3.62923">
        <ele>59.4</ele>
        <time>2022-05-05T02:04:33Z</time>
      </trkpt>
      <trkpt lat="50.54988" lon="3.62926">
        <ele>59.1</ele>
        <time>2022-05-05T02:04:33Z</time>
      </trkpt>
      <trkpt lat="50.54985" lon="3.62927">
        <ele>58.9</ele>
        <time>2022-05-05T02:04:33Z</time>
      </trkpt>
      <trkpt lat="50.54984" lon="3.62945">
        <ele>57.2</ele>
        <time>2022-05-05T02:04:34Z</time>
      </trkpt>
      <trkpt lat="50.54985" lon="3.62948">
        <ele>57.1</ele>
        <time>2022-05-05T02:04:35Z</time>
      </trkpt>
      <trkpt lat="50.54985" lon="3.62951">
        <ele>57</ele>
        <time>2022-05-05T02:04:35Z</time>
      </trkpt>
      <trkpt lat="50.54986" lon="3.62955">
        <ele>57.1</ele>
        <time>2022-05-05T02:04:35Z</time>
      </trkpt>
      <trkpt lat="50.54986" lon="3.62958">
        <ele>57.2</ele>
        <time>2022-05-05T02:04:35Z</time>
      </trkpt>
      <trkpt lat="50.54986" lon="3.6296">
        <ele>57.3</ele>
        <time>2022-05-05T02:04:35Z</time>
      </trkpt>
      <trkpt lat="50.54986" lon="3.62963">
        <ele>57.4</ele>
        <time>2022-05-05T02:04:35Z</time>
      </trkpt>
      <trkpt lat="50.54986" lon="3.62966">
        <ele>57.6</ele>
        <time>2022-05-05T02:04:36Z</time>
      </trkpt>
      <trkpt lat="50.54987" lon="3.62969">
        <ele>57.7</ele>
        <time>2022-05-05T02:04:36Z</time>
      </trkpt>
      <trkpt lat="50.54987" lon="3.62971">
        <ele>57.9</ele>
        <time>2022-05-05T02:04:36Z</time>
      </trkpt>
      <trkpt lat="50.54988" lon="3.62972">
        <ele>58</ele>
        <time>2022-05-05T02:04:36Z</time>
      </trkpt>
      <trkpt lat="50.54989" lon="3.62973">
        <ele>58.1</ele>
        <time>2022-05-05T02:04:36Z</time>
      </trkpt>
      <trkpt lat="50.5499" lon="3.62977">
        <ele>58.2</ele>
        <time>2022-05-05T02:04:36Z</time>
      </trkpt>
      <trkpt lat="50.54991" lon="3.62981">
        <ele>58.3</ele>
        <time>2022-05-05T02:04:37Z</time>
      </trkpt>
      <trkpt lat="50.54991" lon="3.62983">
        <ele>58.5</ele>
        <time>2022-05-05T02:04:37Z</time>
      </trkpt>
      <trkpt lat="50.54991" lon="3.62986">
        <ele>58.6</ele>
        <time>2022-05-05T02:04:37Z</time>
      </trkpt>
      <trkpt lat="50.54991" lon="3.62987">
        <ele>58.8</ele>
        <time>2022-05-05T02:04:37Z</time>
      </trkpt>
      <trkpt lat="50.54991" lon="3.62986">
        <ele>59</ele>
        <time>2022-05-05T02:04:37Z</time>
      </trkpt>
      <trkpt lat="50.5499" lon="3.62986">
        <ele>59</ele>
        <time>2022-05-05T02:04:37Z</time>
      </trkpt>
      <trkpt lat="50.5499" lon="3.62987">
        <ele>59.1</ele>
        <time>2022-05-05T02:04:37Z</time>
      </trkpt>
      <trkpt lat="50.5499" lon="3.62988">
        <ele>59.1</ele>
        <time>2022-05-05T02:04:37Z</time>
      </trkpt>
      <trkpt lat="50.5499" lon="3.62988">
        <ele>59.2</ele>
        <time>2022-05-05T02:04:37Z</time>
      </trkpt>
      <trkpt lat="50.5499" lon="3.62987">
        <ele>59.2</ele>
        <time>2022-05-05T02:04:37Z</time>
      </trkpt>
      <trkpt lat="50.5499" lon="3.62988">
        <ele>59.2</ele>
        <time>2022-05-05T02:04:37Z</time>
      </trkpt>
      <trkpt lat="50.5499" lon="3.62988">
        <ele>59.3</ele>
        <time>2022-05-05T02:04:37Z</time>
      </trkpt>
      <trkpt lat="50.5499" lon="3.62987">
        <ele>59.3</ele>
        <time>2022-05-05T02:04:37Z</time>
      </trkpt>
      <trkpt lat="50.5499" lon="3.62987">
        <ele>59.3</ele>
        <time>2022-05-05T02:04:37Z</time>
      </trkpt>
      <trkpt lat="50.54991" lon="3.62987">
        <ele>59.3</ele>
        <time>2022-05-05T02:04:37Z</time>
      </trkpt>
      <trkpt lat="50.54991" lon="3.62987">
        <ele>59.3</ele>
        <time>2022-05-05T02:04:37Z</time>
      </trkpt>
      <trkpt lat="50.54992" lon="3.62987">
        <ele>59.2</ele>
        <time>2022-05-05T02:04:37Z</time>
      </trkpt>
      <trkpt lat="50.54992" lon="3.62987">
        <ele>59.2</ele>
        <time>2022-05-05T02:04:37Z</time>
      </trkpt>
      <trkpt lat="50.54992" lon="3.62987">
        <ele>59.2</ele>
        <time>2022-05-05T02:04:37Z</time>
      </trkpt>
      <trkpt lat="50.54992" lon="3.62987">
        <ele>59.2</ele>
        <time>2022-05-05T02:04:37Z</time>
      </trkpt>
      <trkpt lat="50.54992" lon="3.62988">
        <ele>59.2</ele>
        <time>2022-05-05T02:04:38Z</time>
      </trkpt>
      <trkpt lat="50.54992" lon="3.6299">
        <ele>59.2</ele>
        <time>2022-05-05T02:04:38Z</time>
      </trkpt>
      <trkpt lat="50.54992" lon="3.62992">
        <ele>59.2</ele>
        <time>2022-05-05T02:04:38Z</time>
      </trkpt>
      <trkpt lat="50.54993" lon="3.62994">
        <ele>59.3</ele>
        <time>2022-05-05T02:04:38Z</time>
      </trkpt>
      <trkpt lat="50.54993" lon="3.62997">
        <ele>59.4</ele>
        <time>2022-05-05T02:04:38Z</time>
      </trkpt>
      <trkpt lat="50.54994" lon="3.63">
        <ele>59.6</ele>
        <time>2022-05-05T02:04:38Z</time>
      </trkpt>
      <trkpt lat="50.54996" lon="3.63004">
        <ele>59.7</ele>
        <time>2022-05-05T02:04:39Z</time>
      </trkpt>
      <trkpt lat="50.54997" lon="3.63009">
        <ele>59.9</ele>
        <time>2022-05-05T02:04:39Z</time>
      </trkpt>
      <trkpt lat="50.54998" lon="3.63014">
        <ele>60</ele>
        <time>2022-05-05T02:04:39Z</time>
      </trkpt>
      <trkpt lat="50.55" lon="3.63019">
        <ele>60.1</ele>
        <time>2022-05-05T02:04:40Z</time>
      </trkpt>
      <trkpt lat="50.55002" lon="3.63024">
        <ele>60.3</ele>
        <time>2022-05-05T02:04:40Z</time>
      </trkpt>
      <trkpt lat="50.55003" lon="3.63029">
        <ele>60.4</ele>
        <time>2022-05-05T02:04:40Z</time>
      </trkpt>
      <trkpt lat="50.55005" lon="3.63033">
        <ele>60.6</ele>
        <time>2022-05-05T02:04:41Z</time>
      </trkpt>
      <trkpt lat="50.55007" lon="3.63039">
        <ele>60.7</ele>
        <time>2022-05-05T02:04:41Z</time>
      </trkpt>
      <trkpt lat="50.55009" lon="3.63044">
        <ele>60.9</ele>
        <time>2022-05-05T02:04:41Z</time>
      </trkpt>
      <trkpt lat="50.55011" lon="3.6305">
        <ele>61.1</ele>
        <time>2022-05-05T02:04:42Z</time>
      </trkpt>
      <trkpt lat="50.55013" lon="3.63057">
        <ele>61.3</ele>
        <time>2022-05-05T02:04:42Z</time>
      </trkpt>
      <trkpt lat="50.55016" lon="3.63064">
        <ele>61.5</ele>
        <time>2022-05-05T02:04:43Z</time>
      </trkpt>
      <trkpt lat="50.55018" lon="3.63071">
        <ele>62</ele>
        <time>2022-05-05T02:04:43Z</time>
      </trkpt>
      <trkpt lat="50.5502" lon="3.63077">
        <ele>62.3</ele>
        <time>2022-05-05T02:04:44Z</time>
      </trkpt>
      <trkpt lat="50.55021" lon="3.63082">
        <ele>62.6</ele>
        <time>2022-05-05T02:04:44Z</time>
      </trkpt>
      <trkpt lat="50.55022" lon="3.63088">
        <ele>62.8</ele>
        <time>2022-05-05T02:04:44Z</time>
      </trkpt>
      <trkpt lat="50.55023" lon="3.63092">
        <ele>62.9</ele>
        <time>2022-05-05T02:04:45Z</time>
      </trkpt>
      <trkpt lat="50.55025" lon="3.63097">
        <ele>63</ele>
        <time>2022-05-05T02:04:45Z</time>
      </trkpt>
      <trkpt lat="50.55027" lon="3.63104">
        <ele>63.1</ele>
        <time>2022-05-05T02:04:45Z</time>
      </trkpt>
      <trkpt lat="50.55029" lon="3.63109">
        <ele>63.3</ele>
        <time>2022-05-05T02:04:46Z</time>
      </trkpt>
      <trkpt lat="50.5503" lon="3.63114">
        <ele>63.4</ele>
        <time>2022-05-05T02:04:46Z</time>
      </trkpt>
      <trkpt lat="50.55032" lon="3.63119">
        <ele>63.5</ele>
        <time>2022-05-05T02:04:46Z</time>
      </trkpt>
      <trkpt lat="50.55033" lon="3.63128">
        <ele>63.6</ele>
        <time>2022-05-05T02:04:47Z</time>
      </trkpt>
      <trkpt lat="50.55035" lon="3.63132">
        <ele>63.7</ele>
        <time>2022-05-05T02:04:47Z</time>
      </trkpt>
      <trkpt lat="50.55036" lon="3.63141">
        <ele>63.7</ele>
        <time>2022-05-05T02:04:48Z</time>
      </trkpt>
      <trkpt lat="50.55038" lon="3.63148">
        <ele>63.7</ele>
        <time>2022-05-05T02:04:48Z</time>
      </trkpt>
      <trkpt lat="50.5504" lon="3.63157">
        <ele>63.8</ele>
        <time>2022-05-05T02:04:49Z</time>
      </trkpt>
      <trkpt lat="50.55041" lon="3.63166">
        <ele>63.8</ele>
        <time>2022-05-05T02:04:49Z</time>
      </trkpt>
      <trkpt lat="50.55043" lon="3.63177">
        <ele>63.8</ele>
        <time>2022-05-05T02:04:50Z</time>
      </trkpt>
      <trkpt lat="50.55044" lon="3.63187">
        <ele>63.9</ele>
        <time>2022-05-05T02:04:51Z</time>
      </trkpt>
      <trkpt lat="50.55046" lon="3.63196">
        <ele>64</ele>
        <time>2022-05-05T02:04:51Z</time>
      </trkpt>
      <trkpt lat="50.55047" lon="3.63206">
        <ele>64.2</ele>
        <time>2022-05-05T02:04:52Z</time>
      </trkpt>
      <trkpt lat="50.55048" lon="3.63216">
        <ele>64.3</ele>
        <time>2022-05-05T02:04:52Z</time>
      </trkpt>
      <trkpt lat="50.55049" lon="3.63227">
        <ele>64.5</ele>
        <time>2022-05-05T02:04:53Z</time>
      </trkpt>
      <trkpt lat="50.5505" lon="3.63238">
        <ele>64.7</ele>
        <time>2022-05-05T02:04:54Z</time>
      </trkpt>
      <trkpt lat="50.55051" lon="3.63249">
        <ele>64.9</ele>
        <time>2022-05-05T02:04:55Z</time>
      </trkpt>
      <trkpt lat="50.55051" lon="3.63261">
        <ele>65.2</ele>
        <time>2022-05-05T02:04:55Z</time>
      </trkpt>
      <trkpt lat="50.55052" lon="3.63272">
        <ele>65.6</ele>
        <time>2022-05-05T02:04:56Z</time>
      </trkpt>
      <trkpt lat="50.55053" lon="3.63282">
        <ele>65.9</ele>
        <time>2022-05-05T02:04:57Z</time>
      </trkpt>
      <trkpt lat="50.55054" lon="3.63294">
        <ele>66.2</ele>
        <time>2022-05-05T02:04:57Z</time>
      </trkpt>
      <trkpt lat="50.55055" lon="3.63304">
        <ele>66.4</ele>
        <time>2022-05-05T02:04:58Z</time>
      </trkpt>
      <trkpt lat="50.55056" lon="3.63316">
        <ele>66.6</ele>
        <time>2022-05-05T02:04:59Z</time>
      </trkpt>
      <trkpt lat="50.55057" lon="3.63327">
        <ele>66.7</ele>
        <time>2022-05-05T02:04:59Z</time>
      </trkpt>
      <trkpt lat="50.55059" lon="3.63337">
        <ele>66.7</ele>
        <time>2022-05-05T02:05:00Z</time>
      </trkpt>
      <trkpt lat="50.5506" lon="3.63347">
        <ele>66.8</ele>
        <time>2022-05-05T02:05:00Z</time>
      </trkpt>
      <trkpt lat="50.55062" lon="3.63355">
        <ele>66.9</ele>
        <time>2022-05-05T02:05:01Z</time>
      </trkpt>
      <trkpt lat="50.55063" lon="3.63364">
        <ele>66.9</ele>
        <time>2022-05-05T02:05:02Z</time>
      </trkpt>
      <trkpt lat="50.55064" lon="3.63372">
        <ele>67</ele>
        <time>2022-05-05T02:05:02Z</time>
      </trkpt>
      <trkpt lat="50.55065" lon="3.6338">
        <ele>67</ele>
        <time>2022-05-05T02:05:03Z</time>
      </trkpt>
      <trkpt lat="50.55067" lon="3.63388">
        <ele>67.1</ele>
        <time>2022-05-05T02:05:03Z</time>
      </trkpt>
      <trkpt lat="50.55068" lon="3.63396">
        <ele>67.1</ele>
        <time>2022-05-05T02:05:04Z</time>
      </trkpt>
      <trkpt lat="50.55073" lon="3.63425">
        <ele>68.3</ele>
        <time>2022-05-05T02:05:05Z</time>
      </trkpt>
      <trkpt lat="50.55074" lon="3.63434">
        <ele>68.4</ele>
        <time>2022-05-05T02:05:06Z</time>
      </trkpt>
      <trkpt lat="50.55076" lon="3.63444">
        <ele>68.4</ele>
        <time>2022-05-05T02:05:07Z</time>
      </trkpt>
      <trkpt lat="50.5508" lon="3.63455">
        <ele>68.5</ele>
        <time>2022-05-05T02:05:07Z</time>
      </trkpt>
      <trkpt lat="50.55083" lon="3.63466">
        <ele>68.5</ele>
        <time>2022-05-05T02:05:08Z</time>
      </trkpt>
      <trkpt lat="50.55087" lon="3.63478">
        <ele>68.6</ele>
        <time>2022-05-05T02:05:09Z</time>
      </trkpt>
      <trkpt lat="50.55091" lon="3.63489">
        <ele>68.7</ele>
        <time>2022-05-05T02:05:10Z</time>
      </trkpt>
      <trkpt lat="50.55096" lon="3.63498">
        <ele>68.9</ele>
        <time>2022-05-05T02:05:10Z</time>
      </trkpt>
      <trkpt lat="50.55102" lon="3.6351">
        <ele>69</ele>
        <time>2022-05-05T02:05:11Z</time>
      </trkpt>
      <trkpt lat="50.55106" lon="3.63522">
        <ele>69.2</ele>
        <time>2022-05-05T02:05:12Z</time>
      </trkpt>
      <trkpt lat="50.55111" lon="3.63534">
        <ele>69.3</ele>
        <time>2022-05-05T02:05:13Z</time>
      </trkpt>
      <trkpt lat="50.55117" lon="3.63544">
        <ele>69.5</ele>
        <time>2022-05-05T02:05:14Z</time>
      </trkpt>
      <trkpt lat="50.55121" lon="3.63555">
        <ele>69.6</ele>
        <time>2022-05-05T02:05:15Z</time>
      </trkpt>
      <trkpt lat="50.55126" lon="3.63566">
        <ele>69.7</ele>
        <time>2022-05-05T02:05:15Z</time>
      </trkpt>
      <trkpt lat="50.5513" lon="3.63576">
        <ele>69.7</ele>
        <time>2022-05-05T02:05:16Z</time>
      </trkpt>
      <trkpt lat="50.55135" lon="3.63587">
        <ele>69.8</ele>
        <time>2022-05-05T02:05:17Z</time>
      </trkpt>
      <trkpt lat="50.55139" lon="3.63597">
        <ele>69.8</ele>
        <time>2022-05-05T02:05:18Z</time>
      </trkpt>
      <trkpt lat="50.55144" lon="3.63606">
        <ele>70</ele>
        <time>2022-05-05T02:05:18Z</time>
      </trkpt>
      <trkpt lat="50.55147" lon="3.63615">
        <ele>70.2</ele>
        <time>2022-05-05T02:05:19Z</time>
      </trkpt>
      <trkpt lat="50.55151" lon="3.63623">
        <ele>70.5</ele>
        <time>2022-05-05T02:05:20Z</time>
      </trkpt>
      <trkpt lat="50.55156" lon="3.63631">
        <ele>70.7</ele>
        <time>2022-05-05T02:05:20Z</time>
      </trkpt>
      <trkpt lat="50.5516" lon="3.63638">
        <ele>70.9</ele>
        <time>2022-05-05T02:05:21Z</time>
      </trkpt>
      <trkpt lat="50.55164" lon="3.63643">
        <ele>71.1</ele>
        <time>2022-05-05T02:05:21Z</time>
      </trkpt>
      <trkpt lat="50.55168" lon="3.63647">
        <ele>71.3</ele>
        <time>2022-05-05T02:05:22Z</time>
      </trkpt>
      <trkpt lat="50.55172" lon="3.63651">
        <ele>71.5</ele>
        <time>2022-05-05T02:05:22Z</time>
      </trkpt>
      <trkpt lat="50.55176" lon="3.63654">
        <ele>71.7</ele>
        <time>2022-05-05T02:05:23Z</time>
      </trkpt>
      <trkpt lat="50.55181" lon="3.63657">
        <ele>71.8</ele>
        <time>2022-05-05T02:05:23Z</time>
      </trkpt>
      <trkpt lat="50.55185" lon="3.63659">
        <ele>71.9</ele>
        <time>2022-05-05T02:05:24Z</time>
      </trkpt>
      <trkpt lat="50.55188" lon="3.6366">
        <ele>72</ele>
        <time>2022-05-05T02:05:24Z</time>
      </trkpt>
      <trkpt lat="50.5521" lon="3.63671">
        <ele>73.3</ele>
        <time>2022-05-05T02:05:26Z</time>
      </trkpt>
      <trkpt lat="50.55216" lon="3.63673">
        <ele>73.5</ele>
        <time>2022-05-05T02:05:27Z</time>
      </trkpt>
      <trkpt lat="50.55221" lon="3.63674">
        <ele>73.8</ele>
        <time>2022-05-05T02:05:27Z</time>
      </trkpt>
      <trkpt lat="50.55228" lon="3.63676">
        <ele>74</ele>
        <time>2022-05-05T02:05:28Z</time>
      </trkpt>
      <trkpt lat="50.55234" lon="3.6368">
        <ele>74.2</ele>
        <time>2022-05-05T02:05:28Z</time>
      </trkpt>
      <trkpt lat="50.5524" lon="3.63682">
        <ele>74.3</ele>
        <time>2022-05-05T02:05:29Z</time>
      </trkpt>
      <trkpt lat="50.55246" lon="3.63685">
        <ele>74.3</ele>
        <time>2022-05-05T02:05:30Z</time>
      </trkpt>
      <trkpt lat="50.55251" lon="3.63688">
        <ele>74.4</ele>
        <time>2022-05-05T02:05:30Z</time>
      </trkpt>
      <trkpt lat="50.55257" lon="3.63693">
        <ele>74.5</ele>
        <time>2022-05-05T02:05:31Z</time>
      </trkpt>
      <trkpt lat="50.55264" lon="3.63696">
        <ele>74.6</ele>
        <time>2022-05-05T02:05:31Z</time>
      </trkpt>
      <trkpt lat="50.55271" lon="3.637">
        <ele>74.7</ele>
        <time>2022-05-05T02:05:32Z</time>
      </trkpt>
      <trkpt lat="50.55277" lon="3.63704">
        <ele>74.8</ele>
        <time>2022-05-05T02:05:33Z</time>
      </trkpt>
      <trkpt lat="50.55283" lon="3.63708">
        <ele>74.9</ele>
        <time>2022-05-05T02:05:33Z</time>
      </trkpt>
      <trkpt lat="50.55289" lon="3.63712">
        <ele>75.1</ele>
        <time>2022-05-05T02:05:34Z</time>
      </trkpt>
      <trkpt lat="50.55296" lon="3.63716">
        <ele>75.2</ele>
        <time>2022-05-05T02:05:35Z</time>
      </trkpt>
      <trkpt lat="50.55301" lon="3.63719">
        <ele>75.3</ele>
        <time>2022-05-05T02:05:35Z</time>
      </trkpt>
      <trkpt lat="50.55307" lon="3.63722">
        <ele>75.5</ele>
        <time>2022-05-05T02:05:36Z</time>
      </trkpt>
      <trkpt lat="50.55314" lon="3.63726">
        <ele>75.6</ele>
        <time>2022-05-05T02:05:37Z</time>
      </trkpt>
      <trkpt lat="50.55319" lon="3.63729">
        <ele>75.7</ele>
        <time>2022-05-05T02:05:37Z</time>
      </trkpt>
      <trkpt lat="50.55323" lon="3.63732">
        <ele>75.8</ele>
        <time>2022-05-05T02:05:37Z</time>
      </trkpt>
      <trkpt lat="50.55329" lon="3.63736">
        <ele>76</ele>
        <time>2022-05-05T02:05:38Z</time>
      </trkpt>
      <trkpt lat="50.55336" lon="3.6374">
        <ele>76.1</ele>
        <time>2022-05-05T02:05:39Z</time>
      </trkpt>
      <trkpt lat="50.55342" lon="3.63745">
        <ele>76.2</ele>
        <time>2022-05-05T02:05:39Z</time>
      </trkpt>
      <trkpt lat="50.55349" lon="3.63749">
        <ele>76.4</ele>
        <time>2022-05-05T02:05:40Z</time>
      </trkpt>
      <trkpt lat="50.55358" lon="3.63755">
        <ele>76.5</ele>
        <time>2022-05-05T02:05:41Z</time>
      </trkpt>
      <trkpt lat="50.55366" lon="3.6376">
        <ele>76.6</ele>
        <time>2022-05-05T02:05:42Z</time>
      </trkpt>
      <trkpt lat="50.55373" lon="3.63763">
        <ele>76.7</ele>
        <time>2022-05-05T02:05:43Z</time>
      </trkpt>
      <trkpt lat="50.5538" lon="3.63766">
        <ele>76.6</ele>
        <time>2022-05-05T02:05:43Z</time>
      </trkpt>
      <trkpt lat="50.55385" lon="3.63769">
        <ele>76.6</ele>
        <time>2022-05-05T02:05:44Z</time>
      </trkpt>
      <trkpt lat="50.55391" lon="3.63772">
        <ele>76.6</ele>
        <time>2022-05-05T02:05:44Z</time>
      </trkpt>
      <trkpt lat="50.55396" lon="3.63775">
        <ele>76.6</ele>
        <time>2022-05-05T02:05:45Z</time>
      </trkpt>
      <trkpt lat="50.55401" lon="3.63777">
        <ele>76.5</ele>
        <time>2022-05-05T02:05:45Z</time>
      </trkpt>
      <trkpt lat="50.55404" lon="3.63781">
        <ele>76.5</ele>
        <time>2022-05-05T02:05:46Z</time>
      </trkpt>
      <trkpt lat="50.55407" lon="3.63786">
        <ele>76.4</ele>
        <time>2022-05-05T02:05:46Z</time>
      </trkpt>
      <trkpt lat="50.55408" lon="3.6379">
        <ele>76.4</ele>
        <time>2022-05-05T02:05:46Z</time>
      </trkpt>
      <trkpt lat="50.55406" lon="3.63794">
        <ele>76.4</ele>
        <time>2022-05-05T02:05:47Z</time>
      </trkpt>
      <trkpt lat="50.55404" lon="3.63799">
        <ele>76.5</ele>
        <time>2022-05-05T02:05:47Z</time>
      </trkpt>
      <trkpt lat="50.554" lon="3.63807">
        <ele>76.5</ele>
        <time>2022-05-05T02:05:48Z</time>
      </trkpt>
      <trkpt lat="50.55396" lon="3.63815">
        <ele>76.6</ele>
        <time>2022-05-05T02:05:48Z</time>
      </trkpt>
      <trkpt lat="50.55392" lon="3.63822">
        <ele>76.7</ele>
        <time>2022-05-05T02:05:49Z</time>
      </trkpt>
      <trkpt lat="50.55388" lon="3.6383">
        <ele>76.7</ele>
        <time>2022-05-05T02:05:49Z</time>
      </trkpt>
      <trkpt lat="50.55385" lon="3.63837">
        <ele>76.8</ele>
        <time>2022-05-05T02:05:50Z</time>
      </trkpt>
      <trkpt lat="50.55381" lon="3.63845">
        <ele>76.9</ele>
        <time>2022-05-05T02:05:51Z</time>
      </trkpt>
      <trkpt lat="50.55377" lon="3.63854">
        <ele>77.1</ele>
        <time>2022-05-05T02:05:51Z</time>
      </trkpt>
      <trkpt lat="50.55373" lon="3.63863">
        <ele>77.3</ele>
        <time>2022-05-05T02:05:52Z</time>
      </trkpt>
      <trkpt lat="50.55369" lon="3.63873">
        <ele>77.5</ele>
        <time>2022-05-05T02:05:53Z</time>
      </trkpt>
      <trkpt lat="50.55364" lon="3.63885">
        <ele>77.7</ele>
        <time>2022-05-05T02:05:54Z</time>
      </trkpt>
      <trkpt lat="50.55359" lon="3.63897">
        <ele>78</ele>
        <time>2022-05-05T02:05:54Z</time>
      </trkpt>
      <trkpt lat="50.55352" lon="3.6391">
        <ele>78.3</ele>
        <time>2022-05-05T02:05:55Z</time>
      </trkpt>
      <trkpt lat="50.55346" lon="3.63921">
        <ele>78.5</ele>
        <time>2022-05-05T02:05:56Z</time>
      </trkpt>
      <trkpt lat="50.55341" lon="3.63932">
        <ele>78.6</ele>
        <time>2022-05-05T02:05:57Z</time>
      </trkpt>
      <trkpt lat="50.55336" lon="3.63942">
        <ele>78.7</ele>
        <time>2022-05-05T02:05:58Z</time>
      </trkpt>
      <trkpt lat="50.5533" lon="3.63955">
        <ele>78.7</ele>
        <time>2022-05-05T02:05:59Z</time>
      </trkpt>
      <trkpt lat="50.55324" lon="3.63968">
        <ele>78.8</ele>
        <time>2022-05-05T02:06:00Z</time>
      </trkpt>
      <trkpt lat="50.55319" lon="3.63982">
        <ele>78.8</ele>
        <time>2022-05-05T02:06:01Z</time>
      </trkpt>
      <trkpt lat="50.55314" lon="3.63996">
        <ele>78.9</ele>
        <time>2022-05-05T02:06:02Z</time>
      </trkpt>
      <trkpt lat="50.5531" lon="3.6401">
        <ele>79.2</ele>
        <time>2022-05-05T02:06:03Z</time>
      </trkpt>
      <trkpt lat="50.55305" lon="3.64024">
        <ele>79.4</ele>
        <time>2022-05-05T02:06:04Z</time>
      </trkpt>
      <trkpt lat="50.55299" lon="3.64039">
        <ele>79.6</ele>
        <time>2022-05-05T02:06:05Z</time>
      </trkpt>
      <trkpt lat="50.55295" lon="3.64054">
        <ele>79.8</ele>
        <time>2022-05-05T02:06:06Z</time>
      </trkpt>
      <trkpt lat="50.5529" lon="3.64071">
        <ele>80</ele>
        <time>2022-05-05T02:06:07Z</time>
      </trkpt>
      <trkpt lat="50.55286" lon="3.64086">
        <ele>80.2</ele>
        <time>2022-05-05T02:06:08Z</time>
      </trkpt>
      <trkpt lat="50.55282" lon="3.64101">
        <ele>80.4</ele>
        <time>2022-05-05T02:06:09Z</time>
      </trkpt>
      <trkpt lat="50.55278" lon="3.64114">
        <ele>80.6</ele>
        <time>2022-05-05T02:06:10Z</time>
      </trkpt>
      <trkpt lat="50.55275" lon="3.64127">
        <ele>80.7</ele>
        <time>2022-05-05T02:06:11Z</time>
      </trkpt>
      <trkpt lat="50.55271" lon="3.64141">
        <ele>80.7</ele>
        <time>2022-05-05T02:06:11Z</time>
      </trkpt>
      <trkpt lat="50.55267" lon="3.64154">
        <ele>80.7</ele>
        <time>2022-05-05T02:06:12Z</time>
      </trkpt>
      <trkpt lat="50.55264" lon="3.64168">
        <ele>80.8</ele>
        <time>2022-05-05T02:06:13Z</time>
      </trkpt>
      <trkpt lat="50.5526" lon="3.64183">
        <ele>80.8</ele>
        <time>2022-05-05T02:06:14Z</time>
      </trkpt>
      <trkpt lat="50.55257" lon="3.64198">
        <ele>80.8</ele>
        <time>2022-05-05T02:06:15Z</time>
      </trkpt>
      <trkpt lat="50.55253" lon="3.64213">
        <ele>80.8</ele>
        <time>2022-05-05T02:06:16Z</time>
      </trkpt>
      <trkpt lat="50.55249" lon="3.64228">
        <ele>80.8</ele>
        <time>2022-05-05T02:06:17Z</time>
      </trkpt>
      <trkpt lat="50.55244" lon="3.64242">
        <ele>80.8</ele>
        <time>2022-05-05T02:06:18Z</time>
      </trkpt>
      <trkpt lat="50.5524" lon="3.64259">
        <ele>80.8</ele>
        <time>2022-05-05T02:06:19Z</time>
      </trkpt>
      <trkpt lat="50.55236" lon="3.64277">
        <ele>80.9</ele>
        <time>2022-05-05T02:06:20Z</time>
      </trkpt>
      <trkpt lat="50.55231" lon="3.64295">
        <ele>81</ele>
        <time>2022-05-05T02:06:22Z</time>
      </trkpt>
      <trkpt lat="50.55226" lon="3.64311">
        <ele>81.1</ele>
        <time>2022-05-05T02:06:23Z</time>
      </trkpt>
      <trkpt lat="50.55221" lon="3.64327">
        <ele>81.3</ele>
        <time>2022-05-05T02:06:24Z</time>
      </trkpt>
      <trkpt lat="50.55217" lon="3.64341">
        <ele>81.2</ele>
        <time>2022-05-05T02:06:25Z</time>
      </trkpt>
      <trkpt lat="50.55213" lon="3.64356">
        <ele>81.2</ele>
        <time>2022-05-05T02:06:26Z</time>
      </trkpt>
      <trkpt lat="50.5521" lon="3.64369">
        <ele>81.3</ele>
        <time>2022-05-05T02:06:26Z</time>
      </trkpt>
      <trkpt lat="50.55207" lon="3.64382">
        <ele>81.5</ele>
        <time>2022-05-05T02:06:27Z</time>
      </trkpt>
      <trkpt lat="50.55204" lon="3.64393">
        <ele>81.6</ele>
        <time>2022-05-05T02:06:28Z</time>
      </trkpt>
      <trkpt lat="50.552" lon="3.64388">
        <ele>81.8</ele>
        <time>2022-05-05T02:06:28Z</time>
      </trkpt>
      <trkpt lat="50.55195" lon="3.64389">
        <ele>81.8</ele>
        <time>2022-05-05T02:06:29Z</time>
      </trkpt>
      <trkpt lat="50.55188" lon="3.6439">
        <ele>81.8</ele>
        <time>2022-05-05T02:06:30Z</time>
      </trkpt>
      <trkpt lat="50.55181" lon="3.64389">
        <ele>81.7</ele>
        <time>2022-05-05T02:06:30Z</time>
      </trkpt>
      <trkpt lat="50.55174" lon="3.64387">
        <ele>81.6</ele>
        <time>2022-05-05T02:06:31Z</time>
      </trkpt>
      <trkpt lat="50.55165" lon="3.64383">
        <ele>81.4</ele>
        <time>2022-05-05T02:06:32Z</time>
      </trkpt>
      <trkpt lat="50.55157" lon="3.64379">
        <ele>81.2</ele>
        <time>2022-05-05T02:06:33Z</time>
      </trkpt>
      <trkpt lat="50.55149" lon="3.64374">
        <ele>80.5</ele>
        <time>2022-05-05T02:06:33Z</time>
      </trkpt>
      <trkpt lat="50.55141" lon="3.6437">
        <ele>80.2</ele>
        <time>2022-05-05T02:06:34Z</time>
      </trkpt>
      <trkpt lat="50.55133" lon="3.64366">
        <ele>79.9</ele>
        <time>2022-05-05T02:06:35Z</time>
      </trkpt>
      <trkpt lat="50.55125" lon="3.6436">
        <ele>79.6</ele>
        <time>2022-05-05T02:06:36Z</time>
      </trkpt>
      <trkpt lat="50.55117" lon="3.64355">
        <ele>79.5</ele>
        <time>2022-05-05T02:06:37Z</time>
      </trkpt>
      <trkpt lat="50.55109" lon="3.6435">
        <ele>79.1</ele>
        <time>2022-05-05T02:06:38Z</time>
      </trkpt>
      <trkpt lat="50.55101" lon="3.64344">
        <ele>78.8</ele>
        <time>2022-05-05T02:06:38Z</time>
      </trkpt>
      <trkpt lat="50.55094" lon="3.6434">
        <ele>78.5</ele>
        <time>2022-05-05T02:06:39Z</time>
      </trkpt>
      <trkpt lat="50.55087" lon="3.64335">
        <ele>78.2</ele>
        <time>2022-05-05T02:06:40Z</time>
      </trkpt>
      <trkpt lat="50.5508" lon="3.6433">
        <ele>78</ele>
        <time>2022-05-05T02:06:41Z</time>
      </trkpt>
      <trkpt lat="50.55073" lon="3.64324">
        <ele>77.6</ele>
        <time>2022-05-05T02:06:41Z</time>
      </trkpt>
      <trkpt lat="50.55065" lon="3.64318">
        <ele>77.1</ele>
        <time>2022-05-05T02:06:42Z</time>
      </trkpt>
      <trkpt lat="50.55057" lon="3.64313">
        <ele>76.6</ele>
        <time>2022-05-05T02:06:43Z</time>
      </trkpt>
      <trkpt lat="50.5505" lon="3.64308">
        <ele>76</ele>
        <time>2022-05-05T02:06:44Z</time>
      </trkpt>
      <trkpt lat="50.55044" lon="3.64302">
        <ele>75.8</ele>
        <time>2022-05-05T02:06:44Z</time>
      </trkpt>
      <trkpt lat="50.55036" lon="3.64297">
        <ele>75.8</ele>
        <time>2022-05-05T02:06:45Z</time>
      </trkpt>
      <trkpt lat="50.55029" lon="3.6429">
        <ele>75.6</ele>
        <time>2022-05-05T02:06:46Z</time>
      </trkpt>
      <trkpt lat="50.55021" lon="3.64284">
        <ele>75.3</ele>
        <time>2022-05-05T02:06:47Z</time>
      </trkpt>
      <trkpt lat="50.55012" lon="3.64278">
        <ele>75</ele>
        <time>2022-05-05T02:06:48Z</time>
      </trkpt>
      <trkpt lat="50.55005" lon="3.64272">
        <ele>74.8</ele>
        <time>2022-05-05T02:06:49Z</time>
      </trkpt>
      <trkpt lat="50.54997" lon="3.64267">
        <ele>74.7</ele>
        <time>2022-05-05T02:06:49Z</time>
      </trkpt>
      <trkpt lat="50.54989" lon="3.64262">
        <ele>74.3</ele>
        <time>2022-05-05T02:06:50Z</time>
      </trkpt>
      <trkpt lat="50.54983" lon="3.64256">
        <ele>74.1</ele>
        <time>2022-05-05T02:06:51Z</time>
      </trkpt>
      <trkpt lat="50.54976" lon="3.64251">
        <ele>73.8</ele>
        <time>2022-05-05T02:06:52Z</time>
      </trkpt>
      <trkpt lat="50.5497" lon="3.64245">
        <ele>73.5</ele>
        <time>2022-05-05T02:06:52Z</time>
      </trkpt>
      <trkpt lat="50.54964" lon="3.64239">
        <ele>73.2</ele>
        <time>2022-05-05T02:06:53Z</time>
      </trkpt>
      <trkpt lat="50.54957" lon="3.64233">
        <ele>73</ele>
        <time>2022-05-05T02:06:54Z</time>
      </trkpt>
      <trkpt lat="50.5495" lon="3.64228">
        <ele>72.8</ele>
        <time>2022-05-05T02:06:54Z</time>
      </trkpt>
      <trkpt lat="50.54944" lon="3.64223">
        <ele>72.6</ele>
        <time>2022-05-05T02:06:55Z</time>
      </trkpt>
      <trkpt lat="50.54938" lon="3.64218">
        <ele>72.3</ele>
        <time>2022-05-05T02:06:56Z</time>
      </trkpt>
      <trkpt lat="50.54932" lon="3.64213">
        <ele>72.1</ele>
        <time>2022-05-05T02:06:56Z</time>
      </trkpt>
      <trkpt lat="50.54926" lon="3.64208">
        <ele>71.8</ele>
        <time>2022-05-05T02:06:57Z</time>
      </trkpt>
      <trkpt lat="50.5492" lon="3.64201">
        <ele>71.4</ele>
        <time>2022-05-05T02:06:58Z</time>
      </trkpt>
      <trkpt lat="50.54914" lon="3.64194">
        <ele>71</ele>
        <time>2022-05-05T02:06:58Z</time>
      </trkpt>
      <trkpt lat="50.54907" lon="3.64187">
        <ele>70.6</ele>
        <time>2022-05-05T02:06:59Z</time>
      </trkpt>
      <trkpt lat="50.54901" lon="3.64181">
        <ele>70.3</ele>
        <time>2022-05-05T02:07:00Z</time>
      </trkpt>
      <trkpt lat="50.54895" lon="3.64175">
        <ele>70</ele>
        <time>2022-05-05T02:07:01Z</time>
      </trkpt>
      <trkpt lat="50.5489" lon="3.64171">
        <ele>69.7</ele>
        <time>2022-05-05T02:07:01Z</time>
      </trkpt>
      <trkpt lat="50.54885" lon="3.64166">
        <ele>69.5</ele>
        <time>2022-05-05T02:07:02Z</time>
      </trkpt>
      <trkpt lat="50.5488" lon="3.64161">
        <ele>69.2</ele>
        <time>2022-05-05T02:07:02Z</time>
      </trkpt>
      <trkpt lat="50.54874" lon="3.64156">
        <ele>69.1</ele>
        <time>2022-05-05T02:07:03Z</time>
      </trkpt>
      <trkpt lat="50.54869" lon="3.64151">
        <ele>68.9</ele>
        <time>2022-05-05T02:07:03Z</time>
      </trkpt>
      <trkpt lat="50.54864" lon="3.64146">
        <ele>68.7</ele>
        <time>2022-05-05T02:07:04Z</time>
      </trkpt>
      <trkpt lat="50.54858" lon="3.6414">
        <ele>68.5</ele>
        <time>2022-05-05T02:07:05Z</time>
      </trkpt>
      <trkpt lat="50.54852" lon="3.64133">
        <ele>68.3</ele>
        <time>2022-05-05T02:07:05Z</time>
      </trkpt>
      <trkpt lat="50.54847" lon="3.64124">
        <ele>68.1</ele>
        <time>2022-05-05T02:07:06Z</time>
      </trkpt>
      <trkpt lat="50.54841" lon="3.64117">
        <ele>68</ele>
        <time>2022-05-05T02:07:07Z</time>
      </trkpt>
      <trkpt lat="50.54835" lon="3.64111">
        <ele>67.9</ele>
        <time>2022-05-05T02:07:08Z</time>
      </trkpt>
      <trkpt lat="50.54829" lon="3.64106">
        <ele>67.9</ele>
        <time>2022-05-05T02:07:08Z</time>
      </trkpt>
      <trkpt lat="50.54823" lon="3.641">
        <ele>67.8</ele>
        <time>2022-05-05T02:07:09Z</time>
      </trkpt>
      <trkpt lat="50.54818" lon="3.64094">
        <ele>67.7</ele>
        <time>2022-05-05T02:07:09Z</time>
      </trkpt>
      <trkpt lat="50.54812" lon="3.64089">
        <ele>67.5</ele>
        <time>2022-05-05T02:07:10Z</time>
      </trkpt>
      <trkpt lat="50.54806" lon="3.64081">
        <ele>67.4</ele>
        <time>2022-05-05T02:07:11Z</time>
      </trkpt>
      <trkpt lat="50.54798" lon="3.64072">
        <ele>67.2</ele>
        <time>2022-05-05T02:07:12Z</time>
      </trkpt>
      <trkpt lat="50.5479" lon="3.64062">
        <ele>66.9</ele>
        <time>2022-05-05T02:07:13Z</time>
      </trkpt>
      <trkpt lat="50.54782" lon="3.64053">
        <ele>66.7</ele>
        <time>2022-05-05T02:07:14Z</time>
      </trkpt>
      <trkpt lat="50.54775" lon="3.64045">
        <ele>66.4</ele>
        <time>2022-05-05T02:07:14Z</time>
      </trkpt>
      <trkpt lat="50.54769" lon="3.64037">
        <ele>66.2</ele>
        <time>2022-05-05T02:07:15Z</time>
      </trkpt>
      <trkpt lat="50.54764" lon="3.64028">
        <ele>65.9</ele>
        <time>2022-05-05T02:07:16Z</time>
      </trkpt>
      <trkpt lat="50.54757" lon="3.64019">
        <ele>65.7</ele>
        <time>2022-05-05T02:07:17Z</time>
      </trkpt>
      <trkpt lat="50.54751" lon="3.6401">
        <ele>65.5</ele>
        <time>2022-05-05T02:07:18Z</time>
      </trkpt>
      <trkpt lat="50.54744" lon="3.64">
        <ele>65.2</ele>
        <time>2022-05-05T02:07:19Z</time>
      </trkpt>
      <trkpt lat="50.54737" lon="3.6399">
        <ele>65</ele>
        <time>2022-05-05T02:07:19Z</time>
      </trkpt>
      <trkpt lat="50.5473" lon="3.6398">
        <ele>64.8</ele>
        <time>2022-05-05T02:07:20Z</time>
      </trkpt>
      <trkpt lat="50.54722" lon="3.6397">
        <ele>64.5</ele>
        <time>2022-05-05T02:07:21Z</time>
      </trkpt>
      <trkpt lat="50.54715" lon="3.63959">
        <ele>64.3</ele>
        <time>2022-05-05T02:07:22Z</time>
      </trkpt>
      <trkpt lat="50.54708" lon="3.63949">
        <ele>64</ele>
        <time>2022-05-05T02:07:23Z</time>
      </trkpt>
      <trkpt lat="50.547" lon="3.6394">
        <ele>63.7</ele>
        <time>2022-05-05T02:07:24Z</time>
      </trkpt>
      <trkpt lat="50.54693" lon="3.63931">
        <ele>63.5</ele>
        <time>2022-05-05T02:07:25Z</time>
      </trkpt>
      <trkpt lat="50.54687" lon="3.63922">
        <ele>63.4</ele>
        <time>2022-05-05T02:07:26Z</time>
      </trkpt>
      <trkpt lat="50.5468" lon="3.63913">
        <ele>63.3</ele>
        <time>2022-05-05T02:07:27Z</time>
      </trkpt>
      <trkpt lat="50.54674" lon="3.63904">
        <ele>63.1</ele>
        <time>2022-05-05T02:07:27Z</time>
      </trkpt>
      <trkpt lat="50.54667" lon="3.63893">
        <ele>62.8</ele>
        <time>2022-05-05T02:07:28Z</time>
      </trkpt>
      <trkpt lat="50.5466" lon="3.63883">
        <ele>62.5</ele>
        <time>2022-05-05T02:07:29Z</time>
      </trkpt>
      <trkpt lat="50.54654" lon="3.63872">
        <ele>62.1</ele>
        <time>2022-05-05T02:07:30Z</time>
      </trkpt>
      <trkpt lat="50.54647" lon="3.63862">
        <ele>61.8</ele>
        <time>2022-05-05T02:07:31Z</time>
      </trkpt>
      <trkpt lat="50.5464" lon="3.63852">
        <ele>61.5</ele>
        <time>2022-05-05T02:07:32Z</time>
      </trkpt>
      <trkpt lat="50.54634" lon="3.63843">
        <ele>61.3</ele>
        <time>2022-05-05T02:07:33Z</time>
      </trkpt>
      <trkpt lat="50.54628" lon="3.63835">
        <ele>61</ele>
        <time>2022-05-05T02:07:33Z</time>
      </trkpt>
      <trkpt lat="50.54623" lon="3.63827">
        <ele>60.8</ele>
        <time>2022-05-05T02:07:34Z</time>
      </trkpt>
      <trkpt lat="50.54618" lon="3.6382">
        <ele>60.6</ele>
        <time>2022-05-05T02:07:35Z</time>
      </trkpt>
      <trkpt lat="50.54613" lon="3.63813">
        <ele>60.4</ele>
        <time>2022-05-05T02:07:35Z</time>
      </trkpt>
      <trkpt lat="50.54608" lon="3.63806">
        <ele>60.2</ele>
        <time>2022-05-05T02:07:36Z</time>
      </trkpt>
      <trkpt lat="50.54602" lon="3.63797">
        <ele>60</ele>
        <time>2022-05-05T02:07:37Z</time>
      </trkpt>
      <trkpt lat="50.54597" lon="3.63787">
        <ele>59.7</ele>
        <time>2022-05-05T02:07:38Z</time>
      </trkpt>
      <trkpt lat="50.54591" lon="3.63778">
        <ele>59.5</ele>
        <time>2022-05-05T02:07:38Z</time>
      </trkpt>
      <trkpt lat="50.54586" lon="3.63769">
        <ele>59.3</ele>
        <time>2022-05-05T02:07:39Z</time>
      </trkpt>
      <trkpt lat="50.54581" lon="3.63759">
        <ele>59.2</ele>
        <time>2022-05-05T02:07:40Z</time>
      </trkpt>
      <trkpt lat="50.54576" lon="3.63749">
        <ele>59</ele>
        <time>2022-05-05T02:07:41Z</time>
      </trkpt>
      <trkpt lat="50.54571" lon="3.6374">
        <ele>58.7</ele>
        <time>2022-05-05T02:07:41Z</time>
      </trkpt>
      <trkpt lat="50.54565" lon="3.6373">
        <ele>58.5</ele>
        <time>2022-05-05T02:07:42Z</time>
      </trkpt>
      <trkpt lat="50.54558" lon="3.63718">
        <ele>58.3</ele>
        <time>2022-05-05T02:07:43Z</time>
      </trkpt>
      <trkpt lat="50.54552" lon="3.63706">
        <ele>58.2</ele>
        <time>2022-05-05T02:07:44Z</time>
      </trkpt>
      <trkpt lat="50.54547" lon="3.63698">
        <ele>58</ele>
        <time>2022-05-05T02:07:45Z</time>
      </trkpt>
      <trkpt lat="50.54544" lon="3.63692">
        <ele>57.8</ele>
        <time>2022-05-05T02:07:45Z</time>
      </trkpt>
      <trkpt lat="50.5454" lon="3.6369">
        <ele>57.7</ele>
        <time>2022-05-05T02:07:46Z</time>
      </trkpt>
      <trkpt lat="50.54538" lon="3.63689">
        <ele>57.5</ele>
        <time>2022-05-05T02:07:46Z</time>
      </trkpt>
      <trkpt lat="50.54538" lon="3.6369">
        <ele>57.4</ele>
        <time>2022-05-05T02:07:46Z</time>
      </trkpt>
      <trkpt lat="50.54536" lon="3.63694">
        <ele>57.3</ele>
        <time>2022-05-05T02:07:46Z</time>
      </trkpt>
      <trkpt lat="50.54535" lon="3.63698">
        <ele>57.2</ele>
        <time>2022-05-05T02:07:46Z</time>
      </trkpt>
      <trkpt lat="50.54534" lon="3.63701">
        <ele>57.2</ele>
        <time>2022-05-05T02:07:47Z</time>
      </trkpt>
      <trkpt lat="50.54534" lon="3.63702">
        <ele>57.1</ele>
        <time>2022-05-05T02:07:47Z</time>
      </trkpt>
      <trkpt lat="50.54534" lon="3.63701">
        <ele>57.1</ele>
        <time>2022-05-05T02:07:47Z</time>
      </trkpt>
      <trkpt lat="50.54534" lon="3.63701">
        <ele>57.1</ele>
        <time>2022-05-05T02:07:47Z</time>
      </trkpt>
      <trkpt lat="50.54535" lon="3.63701">
        <ele>57.1</ele>
        <time>2022-05-05T02:07:47Z</time>
      </trkpt>
      <trkpt lat="50.54534" lon="3.63702">
        <ele>57.1</ele>
        <time>2022-05-05T02:07:47Z</time>
      </trkpt>
      <trkpt lat="50.54534" lon="3.63702">
        <ele>57.1</ele>
        <time>2022-05-05T02:07:47Z</time>
      </trkpt>
      <trkpt lat="50.54535" lon="3.63703">
        <ele>57.1</ele>
        <time>2022-05-05T02:07:47Z</time>
      </trkpt>
      <trkpt lat="50.54535" lon="3.63704">
        <ele>57.1</ele>
        <time>2022-05-05T02:07:47Z</time>
      </trkpt>
      <trkpt lat="50.54534" lon="3.63705">
        <ele>57.1</ele>
        <time>2022-05-05T02:07:47Z</time>
      </trkpt>
      <trkpt lat="50.54534" lon="3.63705">
        <ele>57.1</ele>
        <time>2022-05-05T02:07:47Z</time>
      </trkpt>
      <trkpt lat="50.54534" lon="3.63707">
        <ele>57.1</ele>
        <time>2022-05-05T02:07:47Z</time>
      </trkpt>
      <trkpt lat="50.54534" lon="3.63709">
        <ele>57</ele>
        <time>2022-05-05T02:07:47Z</time>
      </trkpt>
      <trkpt lat="50.54534" lon="3.63708">
        <ele>57.1</ele>
        <time>2022-05-05T02:07:47Z</time>
      </trkpt>
      <trkpt lat="50.54534" lon="3.63708">
        <ele>57</ele>
        <time>2022-05-05T02:07:47Z</time>
      </trkpt>
      <trkpt lat="50.54534" lon="3.63708">
        <ele>57</ele>
        <time>2022-05-05T02:07:48Z</time>
      </trkpt>
      <trkpt lat="50.54534" lon="3.63708">
        <ele>57</ele>
        <time>2022-05-05T02:07:48Z</time>
      </trkpt>
      <trkpt lat="50.54534" lon="3.63709">
        <ele>57</ele>
        <time>2022-05-05T02:07:48Z</time>
      </trkpt>
      <trkpt lat="50.54533" lon="3.63708">
        <ele>57</ele>
        <time>2022-05-05T02:07:48Z</time>
      </trkpt>
      <trkpt lat="50.54533" lon="3.63708">
        <ele>57</ele>
        <time>2022-05-05T02:07:48Z</time>
      </trkpt>
      <trkpt lat="50.54533" lon="3.63709">
        <ele>57</ele>
        <time>2022-05-05T02:07:48Z</time>
      </trkpt>
      <trkpt lat="50.54532" lon="3.6371">
        <ele>57</ele>
        <time>2022-05-05T02:07:48Z</time>
      </trkpt>
      <trkpt lat="50.54532" lon="3.63711">
        <ele>57</ele>
        <time>2022-05-05T02:07:48Z</time>
      </trkpt>
      <trkpt lat="50.54532" lon="3.63712">
        <ele>57</ele>
        <time>2022-05-05T02:07:48Z</time>
      </trkpt>
      <trkpt lat="50.54532" lon="3.63712">
        <ele>57</ele>
        <time>2022-05-05T02:07:48Z</time>
      </trkpt>
      <trkpt lat="50.54532" lon="3.63712">
        <ele>57</ele>
        <time>2022-05-05T02:07:48Z</time>
      </trkpt>
      <trkpt lat="50.54532" lon="3.63713">
        <ele>57</ele>
        <time>2022-05-05T02:07:48Z</time>
      </trkpt>
      <trkpt lat="50.54532" lon="3.63713">
        <ele>57</ele>
        <time>2022-05-05T02:07:48Z</time>
      </trkpt>
      <trkpt lat="50.54532" lon="3.63712">
        <ele>57</ele>
        <time>2022-05-05T02:07:48Z</time>
      </trkpt>
      <trkpt lat="50.54532" lon="3.63712">
        <ele>57</ele>
        <time>2022-05-05T02:07:48Z</time>
      </trkpt>
      <trkpt lat="50.54532" lon="3.63711">
        <ele>57</ele>
        <time>2022-05-05T02:07:48Z</time>
      </trkpt>
      <trkpt lat="50.54532" lon="3.63711">
        <ele>57</ele>
        <time>2022-05-05T02:07:48Z</time>
      </trkpt>
      <trkpt lat="50.54533" lon="3.6371">
        <ele>57</ele>
        <time>2022-05-05T02:07:48Z</time>
      </trkpt>
      <trkpt lat="50.54532" lon="3.63711">
        <ele>57</ele>
        <time>2022-05-05T02:07:48Z</time>
      </trkpt>
      <trkpt lat="50.54532" lon="3.63712">
        <ele>57</ele>
        <time>2022-05-05T02:07:48Z</time>
      </trkpt>
      <trkpt lat="50.54532" lon="3.63711">
        <ele>57</ele>
        <time>2022-05-05T02:07:48Z</time>
      </trkpt>
      <trkpt lat="50.54532" lon="3.63712">
        <ele>57</ele>
        <time>2022-05-05T02:07:48Z</time>
      </trkpt>
      <trkpt lat="50.54532" lon="3.63712">
        <ele>57</ele>
        <time>2022-05-05T02:07:48Z</time>
      </trkpt>
      <trkpt lat="50.54532" lon="3.63712">
        <ele>57</ele>
        <time>2022-05-05T02:07:48Z</time>
      </trkpt>
      <trkpt lat="50.54532" lon="3.63712">
        <ele>57</ele>
        <time>2022-05-05T02:07:48Z</time>
      </trkpt>
      <trkpt lat="50.54532" lon="3.63712">
        <ele>57</ele>
        <time>2022-05-05T02:07:48Z</time>
      </trkpt>
      <trkpt lat="50.54532" lon="3.63711">
        <ele>57</ele>
        <time>2022-05-05T02:07:49Z</time>
      </trkpt>
      <trkpt lat="50.54532" lon="3.6371">
        <ele>57</ele>
        <time>2022-05-05T02:07:49Z</time>
      </trkpt>
      <trkpt lat="50.54532" lon="3.63709">
        <ele>57</ele>
        <time>2022-05-05T02:07:49Z</time>
      </trkpt>
      <trkpt lat="50.54532" lon="3.6371">
        <ele>57</ele>
        <time>2022-05-05T02:07:49Z</time>
      </trkpt>
      <trkpt lat="50.54532" lon="3.6371">
        <ele>57</ele>
        <time>2022-05-05T02:07:49Z</time>
      </trkpt>
      <trkpt lat="50.54532" lon="3.63711">
        <ele>57</ele>
        <time>2022-05-05T02:07:49Z</time>
      </trkpt>
      <trkpt lat="50.54532" lon="3.63712">
        <ele>57</ele>
        <time>2022-05-05T02:07:49Z</time>
      </trkpt>
      <trkpt lat="50.54532" lon="3.63711">
        <ele>57</ele>
        <time>2022-05-05T02:07:49Z</time>
      </trkpt>
      <trkpt lat="50.54532" lon="3.63712">
        <ele>57</ele>
        <time>2022-05-05T02:07:49Z</time>
      </trkpt>
      <trkpt lat="50.54532" lon="3.63711">
        <ele>57</ele>
        <time>2022-05-05T02:07:49Z</time>
      </trkpt>
      <trkpt lat="50.54532" lon="3.63711">
        <ele>57</ele>
        <time>2022-05-05T02:07:49Z</time>
      </trkpt>
      <trkpt lat="50.54532" lon="3.63713">
        <ele>57</ele>
        <time>2022-05-05T02:07:49Z</time>
      </trkpt>
      <trkpt lat="50.54532" lon="3.63712">
        <ele>57</ele>
        <time>2022-05-05T02:07:49Z</time>
      </trkpt>
      <trkpt lat="50.54532" lon="3.63712">
        <ele>57</ele>
        <time>2022-05-05T02:07:49Z</time>
      </trkpt>
      <trkpt lat="50.54532" lon="3.63713">
        <ele>57</ele>
        <time>2022-05-05T02:07:49Z</time>
      </trkpt>
      <trkpt lat="50.54532" lon="3.63712">
        <ele>57</ele>
        <time>2022-05-05T02:07:49Z</time>
      </trkpt>
      <trkpt lat="50.54532" lon="3.63711">
        <ele>57</ele>
        <time>2022-05-05T02:07:49Z</time>
      </trkpt>
      <trkpt lat="50.54532" lon="3.63713">
        <ele>57</ele>
        <time>2022-05-05T02:07:49Z</time>
      </trkpt>
      <trkpt lat="50.54532" lon="3.63713">
        <ele>57</ele>
        <time>2022-05-05T02:07:49Z</time>
      </trkpt>
      <trkpt lat="50.54532" lon="3.63713">
        <ele>57</ele>
        <time>2022-05-05T02:07:49Z</time>
      </trkpt>
      <trkpt lat="50.54531" lon="3.63714">
        <ele>57</ele>
        <time>2022-05-05T02:07:50Z</time>
      </trkpt>
      <trkpt lat="50.54529" lon="3.63717">
        <ele>57</ele>
        <time>2022-05-05T02:07:50Z</time>
      </trkpt>
      <trkpt lat="50.54528" lon="3.63721">
        <ele>56.9</ele>
        <time>2022-05-05T02:07:50Z</time>
      </trkpt>
      <trkpt lat="50.54526" lon="3.63726">
        <ele>56.9</ele>
        <time>2022-05-05T02:07:50Z</time>
      </trkpt>
      <trkpt lat="50.54524" lon="3.63731">
        <ele>56.8</ele>
        <time>2022-05-05T02:07:51Z</time>
      </trkpt>
      <trkpt lat="50.5452" lon="3.63737">
        <ele>56.7</ele>
        <time>2022-05-05T02:07:51Z</time>
      </trkpt>
      <trkpt lat="50.54516" lon="3.63743">
        <ele>56.5</ele>
        <time>2022-05-05T02:07:52Z</time>
      </trkpt>
      <trkpt lat="50.5451" lon="3.63749">
        <ele>56.3</ele>
        <time>2022-05-05T02:07:53Z</time>
      </trkpt>
      <trkpt lat="50.54504" lon="3.63755">
        <ele>56.1</ele>
        <time>2022-05-05T02:07:53Z</time>
      </trkpt>
      <trkpt lat="50.545" lon="3.63762">
        <ele>56</ele>
        <time>2022-05-05T02:07:54Z</time>
      </trkpt>
      <trkpt lat="50.54496" lon="3.63767">
        <ele>55.8</ele>
        <time>2022-05-05T02:07:54Z</time>
      </trkpt>
      <trkpt lat="50.54493" lon="3.63771">
        <ele>55.5</ele>
        <time>2022-05-05T02:07:55Z</time>
      </trkpt>
      <trkpt lat="50.5449" lon="3.63775">
        <ele>55.3</ele>
        <time>2022-05-05T02:07:55Z</time>
      </trkpt>
      <trkpt lat="50.54488" lon="3.63778">
        <ele>55.2</ele>
        <time>2022-05-05T02:07:55Z</time>
      </trkpt>
      <trkpt lat="50.54487" lon="3.63781">
        <ele>55</ele>
        <time>2022-05-05T02:07:56Z</time>
      </trkpt>
      <trkpt lat="50.54485" lon="3.63784">
        <ele>55</ele>
        <time>2022-05-05T02:07:56Z</time>
      </trkpt>
      <trkpt lat="50.54484" lon="3.63788">
        <ele>55</ele>
        <time>2022-05-05T02:07:56Z</time>
      </trkpt>
      <trkpt lat="50.54483" lon="3.63792">
        <ele>55</ele>
        <time>2022-05-05T02:07:56Z</time>
      </trkpt>
      <trkpt lat="50.54481" lon="3.63795">
        <ele>55</ele>
        <time>2022-05-05T02:07:57Z</time>
      </trkpt>
      <trkpt lat="50.5448" lon="3.63799">
        <ele>55</ele>
        <time>2022-05-05T02:07:57Z</time>
      </trkpt>
      <trkpt lat="50.54481" lon="3.63802">
        <ele>55</ele>
        <time>2022-05-05T02:07:57Z</time>
      </trkpt>
      <trkpt lat="50.54481" lon="3.63809">
        <ele>55</ele>
        <time>2022-05-05T02:07:57Z</time>
      </trkpt>
      <trkpt lat="50.54485" lon="3.63816">
        <ele>55.1</ele>
        <time>2022-05-05T02:07:58Z</time>
      </trkpt>
      <trkpt lat="50.54488" lon="3.63823">
        <ele>55.2</ele>
        <time>2022-05-05T02:07:58Z</time>
      </trkpt>
      <trkpt lat="50.54492" lon="3.6383">
        <ele>55.4</ele>
        <time>2022-05-05T02:07:59Z</time>
      </trkpt>
      <trkpt lat="50.54496" lon="3.63837">
        <ele>55.5</ele>
        <time>2022-05-05T02:08:00Z</time>
      </trkpt>
      <trkpt lat="50.545" lon="3.63842">
        <ele>55.6</ele>
        <time>2022-05-05T02:08:00Z</time>
      </trkpt>
      <trkpt lat="50.54503" lon="3.63848">
        <ele>55.7</ele>
        <time>2022-05-05T02:08:00Z</time>
      </trkpt>
      <trkpt lat="50.54506" lon="3.63854">
        <ele>55.8</ele>
        <time>2022-05-05T02:08:01Z</time>
      </trkpt>
      <trkpt lat="50.54509" lon="3.63862">
        <ele>55.9</ele>
        <time>2022-05-05T02:08:02Z</time>
      </trkpt>
      <trkpt lat="50.54512" lon="3.63869">
        <ele>56</ele>
        <time>2022-05-05T02:08:02Z</time>
      </trkpt>
      <trkpt lat="50.54516" lon="3.63876">
        <ele>56.1</ele>
        <time>2022-05-05T02:08:03Z</time>
      </trkpt>
      <trkpt lat="50.5452" lon="3.63883">
        <ele>56.2</ele>
        <time>2022-05-05T02:08:03Z</time>
      </trkpt>
      <trkpt lat="50.54524" lon="3.63889">
        <ele>56.3</ele>
        <time>2022-05-05T02:08:04Z</time>
      </trkpt>
      <trkpt lat="50.54529" lon="3.63896">
        <ele>56.4</ele>
        <time>2022-05-05T02:08:04Z</time>
      </trkpt>
      <trkpt lat="50.54534" lon="3.63903">
        <ele>56.6</ele>
        <time>2022-05-05T02:08:05Z</time>
      </trkpt>
      <trkpt lat="50.54539" lon="3.6391">
        <ele>56.7</ele>
        <time>2022-05-05T02:08:06Z</time>
      </trkpt>
      <trkpt lat="50.54545" lon="3.63919">
        <ele>56.7</ele>
        <time>2022-05-05T02:08:06Z</time>
      </trkpt>
      <trkpt lat="50.54551" lon="3.63929">
        <ele>56.8</ele>
        <time>2022-05-05T02:08:07Z</time>
      </trkpt>
      <trkpt lat="50.54557" lon="3.63939">
        <ele>56.8</ele>
        <time>2022-05-05T02:08:08Z</time>
      </trkpt>
      <trkpt lat="50.54562" lon="3.63949">
        <ele>56.8</ele>
        <time>2022-05-05T02:08:09Z</time>
      </trkpt>
      <trkpt lat="50.54568" lon="3.63959">
        <ele>56.9</ele>
        <time>2022-05-05T02:08:10Z</time>
      </trkpt>
      <trkpt lat="50.54574" lon="3.63969">
        <ele>57</ele>
        <time>2022-05-05T02:08:10Z</time>
      </trkpt>
      <trkpt lat="50.54581" lon="3.6398">
        <ele>57.2</ele>
        <time>2022-05-05T02:08:11Z</time>
      </trkpt>
      <trkpt lat="50.54588" lon="3.63992">
        <ele>57.4</ele>
        <time>2022-05-05T02:08:12Z</time>
      </trkpt>
      <trkpt lat="50.54595" lon="3.64003">
        <ele>57.6</ele>
        <time>2022-05-05T02:08:13Z</time>
      </trkpt>
      <trkpt lat="50.54603" lon="3.64015">
        <ele>57.7</ele>
        <time>2022-05-05T02:08:14Z</time>
      </trkpt>
      <trkpt lat="50.5461" lon="3.64026">
        <ele>57.9</ele>
        <time>2022-05-05T02:08:15Z</time>
      </trkpt>
      <trkpt lat="50.54618" lon="3.64038">
        <ele>58.2</ele>
        <time>2022-05-05T02:08:16Z</time>
      </trkpt>
      <trkpt lat="50.54625" lon="3.6405">
        <ele>58.5</ele>
        <time>2022-05-05T02:08:17Z</time>
      </trkpt>
      <trkpt lat="50.54633" lon="3.64061">
        <ele>58.8</ele>
        <time>2022-05-05T02:08:18Z</time>
      </trkpt>
      <trkpt lat="50.5464" lon="3.64072">
        <ele>59.1</ele>
        <time>2022-05-05T02:08:19Z</time>
      </trkpt>
      <trkpt lat="50.54648" lon="3.64083">
        <ele>59.6</ele>
        <time>2022-05-05T02:08:20Z</time>
      </trkpt>
      <trkpt lat="50.54656" lon="3.64095">
        <ele>60.2</ele>
        <time>2022-05-05T02:08:21Z</time>
      </trkpt>
      <trkpt lat="50.54666" lon="3.64107">
        <ele>60.6</ele>
        <time>2022-05-05T02:08:23Z</time>
      </trkpt>
      <trkpt lat="50.54675" lon="3.64121">
        <ele>61</ele>
        <time>2022-05-05T02:08:24Z</time>
      </trkpt>
      <trkpt lat="50.54683" lon="3.64133">
        <ele>61.6</ele>
        <time>2022-05-05T02:08:25Z</time>
      </trkpt>
      <trkpt lat="50.54691" lon="3.64144">
        <ele>62.2</ele>
        <time>2022-05-05T02:08:26Z</time>
      </trkpt>
      <trkpt lat="50.54698" lon="3.64154">
        <ele>62.8</ele>
        <time>2022-05-05T02:08:27Z</time>
      </trkpt>
      <trkpt lat="50.54705" lon="3.64164">
        <ele>63.4</ele>
        <time>2022-05-05T02:08:28Z</time>
      </trkpt>
      <trkpt lat="50.54712" lon="3.64175">
        <ele>63.9</ele>
        <time>2022-05-05T02:08:29Z</time>
      </trkpt>
      <trkpt lat="50.5472" lon="3.64185">
        <ele>64.3</ele>
        <time>2022-05-05T02:08:30Z</time>
      </trkpt>
      <trkpt lat="50.54728" lon="3.64196">
        <ele>64.7</ele>
        <time>2022-05-05T02:08:31Z</time>
      </trkpt>
      <trkpt lat="50.54735" lon="3.64206">
        <ele>65.2</ele>
        <time>2022-05-05T02:08:31Z</time>
      </trkpt>
      <trkpt lat="50.54742" lon="3.64217">
        <ele>65.6</ele>
        <time>2022-05-05T02:08:32Z</time>
      </trkpt>
      <trkpt lat="50.5475" lon="3.64228">
        <ele>65.9</ele>
        <time>2022-05-05T02:08:33Z</time>
      </trkpt>
      <trkpt lat="50.54757" lon="3.64238">
        <ele>66.2</ele>
        <time>2022-05-05T02:08:34Z</time>
      </trkpt>
      <trkpt lat="50.54763" lon="3.64247">
        <ele>66.5</ele>
        <time>2022-05-05T02:08:35Z</time>
      </trkpt>
      <trkpt lat="50.5477" lon="3.64256">
        <ele>66.8</ele>
        <time>2022-05-05T02:08:36Z</time>
      </trkpt>
      <trkpt lat="50.54776" lon="3.64265">
        <ele>67.1</ele>
        <time>2022-05-05T02:08:37Z</time>
      </trkpt>
      <trkpt lat="50.54783" lon="3.64273">
        <ele>67.3</ele>
        <time>2022-05-05T02:08:38Z</time>
      </trkpt>
      <trkpt lat="50.54789" lon="3.64281">
        <ele>67.6</ele>
        <time>2022-05-05T02:08:38Z</time>
      </trkpt>
      <trkpt lat="50.54794" lon="3.64289">
        <ele>67.8</ele>
        <time>2022-05-05T02:08:39Z</time>
      </trkpt>
      <trkpt lat="50.548" lon="3.64298">
        <ele>68</ele>
        <time>2022-05-05T02:08:40Z</time>
      </trkpt>
      <trkpt lat="50.54805" lon="3.64306">
        <ele>68.2</ele>
        <time>2022-05-05T02:08:41Z</time>
      </trkpt>
      <trkpt lat="50.54811" lon="3.64315">
        <ele>68.4</ele>
        <time>2022-05-05T02:08:41Z</time>
      </trkpt>
      <trkpt lat="50.54817" lon="3.64324">
        <ele>68.6</ele>
        <time>2022-05-05T02:08:42Z</time>
      </trkpt>
      <trkpt lat="50.54824" lon="3.64334">
        <ele>68.9</ele>
        <time>2022-05-05T02:08:43Z</time>
      </trkpt>
      <trkpt lat="50.54831" lon="3.64344">
        <ele>69.1</ele>
        <time>2022-05-05T02:08:44Z</time>
      </trkpt>
      <trkpt lat="50.54838" lon="3.64354">
        <ele>69.3</ele>
        <time>2022-05-05T02:08:45Z</time>
      </trkpt>
      <trkpt lat="50.54845" lon="3.64363">
        <ele>69.6</ele>
        <time>2022-05-05T02:08:46Z</time>
      </trkpt>
      <trkpt lat="50.54851" lon="3.64372">
        <ele>69.8</ele>
        <time>2022-05-05T02:08:46Z</time>
      </trkpt>
      <trkpt lat="50.54857" lon="3.64382">
        <ele>69.9</ele>
        <time>2022-05-05T02:08:47Z</time>
      </trkpt>
      <trkpt lat="50.54863" lon="3.64392">
        <ele>69.9</ele>
        <time>2022-05-05T02:08:48Z</time>
      </trkpt>
      <trkpt lat="50.54869" lon="3.64404">
        <ele>69.9</ele>
        <time>2022-05-05T02:08:49Z</time>
      </trkpt>
      <trkpt lat="50.54874" lon="3.64415">
        <ele>70</ele>
        <time>2022-05-05T02:08:50Z</time>
      </trkpt>
      <trkpt lat="50.54878" lon="3.64426">
        <ele>70.1</ele>
        <time>2022-05-05T02:08:51Z</time>
      </trkpt>
      <trkpt lat="50.54882" lon="3.64437">
        <ele>70.2</ele>
        <time>2022-05-05T02:08:51Z</time>
      </trkpt>
      <trkpt lat="50.54886" lon="3.64448">
        <ele>70.3</ele>
        <time>2022-05-05T02:08:52Z</time>
      </trkpt>
      <trkpt lat="50.54889" lon="3.64459">
        <ele>70.5</ele>
        <time>2022-05-05T02:08:53Z</time>
      </trkpt>
      <trkpt lat="50.54892" lon="3.64469">
        <ele>70.6</ele>
        <time>2022-05-05T02:08:54Z</time>
      </trkpt>
      <trkpt lat="50.54895" lon="3.64478">
        <ele>70.7</ele>
        <time>2022-05-05T02:08:54Z</time>
      </trkpt>
      <trkpt lat="50.54896" lon="3.64487">
        <ele>70.8</ele>
        <time>2022-05-05T02:08:55Z</time>
      </trkpt>
      <trkpt lat="50.54899" lon="3.64496">
        <ele>70.9</ele>
        <time>2022-05-05T02:08:55Z</time>
      </trkpt>
      <trkpt lat="50.549" lon="3.64506">
        <ele>71</ele>
        <time>2022-05-05T02:08:56Z</time>
      </trkpt>
      <trkpt lat="50.54902" lon="3.64516">
        <ele>71.1</ele>
        <time>2022-05-05T02:08:57Z</time>
      </trkpt>
      <trkpt lat="50.54904" lon="3.64526">
        <ele>71.1</ele>
        <time>2022-05-05T02:08:57Z</time>
      </trkpt>
      <trkpt lat="50.54905" lon="3.64536">
        <ele>71</ele>
        <time>2022-05-05T02:08:58Z</time>
      </trkpt>
      <trkpt lat="50.54907" lon="3.64546">
        <ele>70.9</ele>
        <time>2022-05-05T02:08:58Z</time>
      </trkpt>
      <trkpt lat="50.54909" lon="3.64556">
        <ele>70.9</ele>
        <time>2022-05-05T02:08:59Z</time>
      </trkpt>
      <trkpt lat="50.54911" lon="3.64566">
        <ele>70.9</ele>
        <time>2022-05-05T02:09:00Z</time>
      </trkpt>
      <trkpt lat="50.54911" lon="3.64575">
        <ele>70.8</ele>
        <time>2022-05-05T02:09:00Z</time>
      </trkpt>
      <trkpt lat="50.54913" lon="3.64583">
        <ele>70.8</ele>
        <time>2022-05-05T02:09:01Z</time>
      </trkpt>
      <trkpt lat="50.54915" lon="3.64591">
        <ele>70.7</ele>
        <time>2022-05-05T02:09:01Z</time>
      </trkpt>
      <trkpt lat="50.54917" lon="3.646">
        <ele>70.7</ele>
        <time>2022-05-05T02:09:02Z</time>
      </trkpt>
      <trkpt lat="50.54918" lon="3.64609">
        <ele>70.8</ele>
        <time>2022-05-05T02:09:02Z</time>
      </trkpt>
      <trkpt lat="50.5492" lon="3.64618">
        <ele>70.8</ele>
        <time>2022-05-05T02:09:03Z</time>
      </trkpt>
      <trkpt lat="50.54922" lon="3.64627">
        <ele>70.9</ele>
        <time>2022-05-05T02:09:04Z</time>
      </trkpt>
      <trkpt lat="50.54925" lon="3.64635">
        <ele>70.9</ele>
        <time>2022-05-05T02:09:04Z</time>
      </trkpt>
      <trkpt lat="50.54927" lon="3.64642">
        <ele>71</ele>
        <time>2022-05-05T02:09:05Z</time>
      </trkpt>
      <trkpt lat="50.54931" lon="3.64648">
        <ele>71</ele>
        <time>2022-05-05T02:09:05Z</time>
      </trkpt>
      <trkpt lat="50.54936" lon="3.64653">
        <ele>71.1</ele>
        <time>2022-05-05T02:09:06Z</time>
      </trkpt>
      <trkpt lat="50.54941" lon="3.64657">
        <ele>71.2</ele>
        <time>2022-05-05T02:09:06Z</time>
      </trkpt>
      <trkpt lat="50.54945" lon="3.64662">
        <ele>71.3</ele>
        <time>2022-05-05T02:09:07Z</time>
      </trkpt>
      <trkpt lat="50.5495" lon="3.64666">
        <ele>71.8</ele>
        <time>2022-05-05T02:09:07Z</time>
      </trkpt>
      <trkpt lat="50.54954" lon="3.64672">
        <ele>72</ele>
        <time>2022-05-05T02:09:08Z</time>
      </trkpt>
      <trkpt lat="50.5496" lon="3.64677">
        <ele>72.1</ele>
        <time>2022-05-05T02:09:08Z</time>
      </trkpt>
      <trkpt lat="50.54966" lon="3.64683">
        <ele>72.3</ele>
        <time>2022-05-05T02:09:09Z</time>
      </trkpt>
      <trkpt lat="50.54973" lon="3.64689">
        <ele>72.5</ele>
        <time>2022-05-05T02:09:10Z</time>
      </trkpt>
      <trkpt lat="50.5498" lon="3.64695">
        <ele>72.6</ele>
        <time>2022-05-05T02:09:11Z</time>
      </trkpt>
      <trkpt lat="50.54986" lon="3.64701">
        <ele>72.8</ele>
        <time>2022-05-05T02:09:11Z</time>
      </trkpt>
      <trkpt lat="50.5499" lon="3.64707">
        <ele>73</ele>
        <time>2022-05-05T02:09:12Z</time>
      </trkpt>
      <trkpt lat="50.5499" lon="3.64712">
        <ele>73.2</ele>
        <time>2022-05-05T02:09:12Z</time>
      </trkpt>
      <trkpt lat="50.54987" lon="3.64724">
        <ele>73.3</ele>
        <time>2022-05-05T02:09:13Z</time>
      </trkpt>
      <trkpt lat="50.54983" lon="3.64736">
        <ele>73.3</ele>
        <time>2022-05-05T02:09:14Z</time>
      </trkpt>
      <trkpt lat="50.5498" lon="3.64744">
        <ele>73.4</ele>
        <time>2022-05-05T02:09:14Z</time>
      </trkpt>
      <trkpt lat="50.54977" lon="3.64754">
        <ele>73.5</ele>
        <time>2022-05-05T02:09:15Z</time>
      </trkpt>
      <trkpt lat="50.54973" lon="3.64762">
        <ele>73.6</ele>
        <time>2022-05-05T02:09:15Z</time>
      </trkpt>
      <trkpt lat="50.5497" lon="3.64771">
        <ele>73.5</ele>
        <time>2022-05-05T02:09:16Z</time>
      </trkpt>
      <trkpt lat="50.54967" lon="3.6478">
        <ele>73.3</ele>
        <time>2022-05-05T02:09:17Z</time>
      </trkpt>
      <trkpt lat="50.54963" lon="3.6479">
        <ele>73.1</ele>
        <time>2022-05-05T02:09:17Z</time>
      </trkpt>
      <trkpt lat="50.54959" lon="3.64802">
        <ele>72.9</ele>
        <time>2022-05-05T02:09:18Z</time>
      </trkpt>
      <trkpt lat="50.54955" lon="3.64816">
        <ele>72.7</ele>
        <time>2022-05-05T02:09:19Z</time>
      </trkpt>
      <trkpt lat="50.54951" lon="3.6483">
        <ele>72.5</ele>
        <time>2022-05-05T02:09:20Z</time>
      </trkpt>
      <trkpt lat="50.54948" lon="3.64842">
        <ele>72.3</ele>
        <time>2022-05-05T02:09:21Z</time>
      </trkpt>
      <trkpt lat="50.54944" lon="3.64853">
        <ele>72</ele>
        <time>2022-05-05T02:09:22Z</time>
      </trkpt>
      <trkpt lat="50.54941" lon="3.64865">
        <ele>71.8</ele>
        <time>2022-05-05T02:09:22Z</time>
      </trkpt>
      <trkpt lat="50.54937" lon="3.64877">
        <ele>71.7</ele>
        <time>2022-05-05T02:09:23Z</time>
      </trkpt>
      <trkpt lat="50.54934" lon="3.64888">
        <ele>71.6</ele>
        <time>2022-05-05T02:09:24Z</time>
      </trkpt>
      <trkpt lat="50.54931" lon="3.64899">
        <ele>71.5</ele>
        <time>2022-05-05T02:09:25Z</time>
      </trkpt>
      <trkpt lat="50.54929" lon="3.64912">
        <ele>71.7</ele>
        <time>2022-05-05T02:09:25Z</time>
      </trkpt>
      <trkpt lat="50.54926" lon="3.64925">
        <ele>72</ele>
        <time>2022-05-05T02:09:26Z</time>
      </trkpt>
      <trkpt lat="50.54923" lon="3.6494">
        <ele>72.1</ele>
        <time>2022-05-05T02:09:27Z</time>
      </trkpt>
      <trkpt lat="50.5492" lon="3.64955">
        <ele>72</ele>
        <time>2022-05-05T02:09:28Z</time>
      </trkpt>
      <trkpt lat="50.54917" lon="3.64968">
        <ele>71.9</ele>
        <time>2022-05-05T02:09:29Z</time>
      </trkpt>
      <trkpt lat="50.54914" lon="3.6498">
        <ele>71.8</ele>
        <time>2022-05-05T02:09:30Z</time>
      </trkpt>
      <trkpt lat="50.54912" lon="3.64993">
        <ele>71.7</ele>
        <time>2022-05-05T02:09:31Z</time>
      </trkpt>
      <trkpt lat="50.54909" lon="3.65006">
        <ele>71.6</ele>
        <time>2022-05-05T02:09:31Z</time>
      </trkpt>
      <trkpt lat="50.54907" lon="3.65019">
        <ele>71.8</ele>
        <time>2022-05-05T02:09:32Z</time>
      </trkpt>
      <trkpt lat="50.54904" lon="3.6503">
        <ele>72.1</ele>
        <time>2022-05-05T02:09:33Z</time>
      </trkpt>
      <trkpt lat="50.54901" lon="3.65041">
        <ele>72.3</ele>
        <time>2022-05-05T02:09:34Z</time>
      </trkpt>
      <trkpt lat="50.54897" lon="3.65051">
        <ele>72.3</ele>
        <time>2022-05-05T02:09:34Z</time>
      </trkpt>
      <trkpt lat="50.54892" lon="3.6506">
        <ele>72.1</ele>
        <time>2022-05-05T02:09:35Z</time>
      </trkpt>
      <trkpt lat="50.54887" lon="3.6507">
        <ele>71.9</ele>
        <time>2022-05-05T02:09:36Z</time>
      </trkpt>
      <trkpt lat="50.54882" lon="3.6508">
        <ele>71.8</ele>
        <time>2022-05-05T02:09:37Z</time>
      </trkpt>
      <trkpt lat="50.54876" lon="3.6509">
        <ele>71.8</ele>
        <time>2022-05-05T02:09:38Z</time>
      </trkpt>
      <trkpt lat="50.5487" lon="3.65101">
        <ele>71.8</ele>
        <time>2022-05-05T02:09:38Z</time>
      </trkpt>
      <trkpt lat="50.54864" lon="3.6511">
        <ele>71.8</ele>
        <time>2022-05-05T02:09:39Z</time>
      </trkpt>
      <trkpt lat="50.54859" lon="3.65119">
        <ele>71.8</ele>
        <time>2022-05-05T02:09:40Z</time>
      </trkpt>
      <trkpt lat="50.54854" lon="3.65128">
        <ele>71.7</ele>
        <time>2022-05-05T02:09:41Z</time>
      </trkpt>
      <trkpt lat="50.54849" lon="3.65136">
        <ele>71.6</ele>
        <time>2022-05-05T02:09:41Z</time>
      </trkpt>
      <trkpt lat="50.54844" lon="3.65145">
        <ele>71.4</ele>
        <time>2022-05-05T02:09:42Z</time>
      </trkpt>
      <trkpt lat="50.54839" lon="3.65153">
        <ele>71.2</ele>
        <time>2022-05-05T02:09:43Z</time>
      </trkpt>
      <trkpt lat="50.54835" lon="3.6516">
        <ele>71</ele>
        <time>2022-05-05T02:09:43Z</time>
      </trkpt>
      <trkpt lat="50.54831" lon="3.65167">
        <ele>70.9</ele>
        <time>2022-05-05T02:09:44Z</time>
      </trkpt>
      <trkpt lat="50.54828" lon="3.65173">
        <ele>70.8</ele>
        <time>2022-05-05T02:09:44Z</time>
      </trkpt>
      <trkpt lat="50.54825" lon="3.65179">
        <ele>70.6</ele>
        <time>2022-05-05T02:09:45Z</time>
      </trkpt>
      <trkpt lat="50.54822" lon="3.65185">
        <ele>70.5</ele>
        <time>2022-05-05T02:09:45Z</time>
      </trkpt>
      <trkpt lat="50.54818" lon="3.65191">
        <ele>70.4</ele>
        <time>2022-05-05T02:09:46Z</time>
      </trkpt>
      <trkpt lat="50.54816" lon="3.65196">
        <ele>70.3</ele>
        <time>2022-05-05T02:09:46Z</time>
      </trkpt>
      <trkpt lat="50.54815" lon="3.65201">
        <ele>70.2</ele>
        <time>2022-05-05T02:09:46Z</time>
      </trkpt>
      <trkpt lat="50.54814" lon="3.65205">
        <ele>70.2</ele>
        <time>2022-05-05T02:09:47Z</time>
      </trkpt>
      <trkpt lat="50.54813" lon="3.6521">
        <ele>70.1</ele>
        <time>2022-05-05T02:09:47Z</time>
      </trkpt>
      <trkpt lat="50.54814" lon="3.65212">
        <ele>70.1</ele>
        <time>2022-05-05T02:09:47Z</time>
      </trkpt>
      <trkpt lat="50.54815" lon="3.65214">
        <ele>70.1</ele>
        <time>2022-05-05T02:09:47Z</time>
      </trkpt>
      <trkpt lat="50.54816" lon="3.65215">
        <ele>70.1</ele>
        <time>2022-05-05T02:09:47Z</time>
      </trkpt>
      <trkpt lat="50.54816" lon="3.65216">
        <ele>70.1</ele>
        <time>2022-05-05T02:09:47Z</time>
      </trkpt>
      <trkpt lat="50.54816" lon="3.65215">
        <ele>70.2</ele>
        <time>2022-05-05T02:09:48Z</time>
      </trkpt>
      <trkpt lat="50.54816" lon="3.65214">
        <ele>70.2</ele>
        <time>2022-05-05T02:09:48Z</time>
      </trkpt>
      <trkpt lat="50.54816" lon="3.65213">
        <ele>70.2</ele>
        <time>2022-05-05T02:09:48Z</time>
      </trkpt>
      <trkpt lat="50.54815" lon="3.65213">
        <ele>70.2</ele>
        <time>2022-05-05T02:09:48Z</time>
      </trkpt>
      <trkpt lat="50.54815" lon="3.65212">
        <ele>70.2</ele>
        <time>2022-05-05T02:09:48Z</time>
      </trkpt>
      <trkpt lat="50.54815" lon="3.65213">
        <ele>70.2</ele>
        <time>2022-05-05T02:09:48Z</time>
      </trkpt>
      <trkpt lat="50.54815" lon="3.65213">
        <ele>70.2</ele>
        <time>2022-05-05T02:09:48Z</time>
      </trkpt>
      <trkpt lat="50.54816" lon="3.65216">
        <ele>70.2</ele>
        <time>2022-05-05T02:09:48Z</time>
      </trkpt>
      <trkpt lat="50.54816" lon="3.65216">
        <ele>70.2</ele>
        <time>2022-05-05T02:09:48Z</time>
      </trkpt>
      <trkpt lat="50.54816" lon="3.65217">
        <ele>70.2</ele>
        <time>2022-05-05T02:09:48Z</time>
      </trkpt>
      <trkpt lat="50.54816" lon="3.65219">
        <ele>70.2</ele>
        <time>2022-05-05T02:09:48Z</time>
      </trkpt>
      <trkpt lat="50.54815" lon="3.6522">
        <ele>70.2</ele>
        <time>2022-05-05T02:09:48Z</time>
      </trkpt>
      <trkpt lat="50.54815" lon="3.6522">
        <ele>70.2</ele>
        <time>2022-05-05T02:09:48Z</time>
      </trkpt>
      <trkpt lat="50.54815" lon="3.6522">
        <ele>70.2</ele>
        <time>2022-05-05T02:09:48Z</time>
      </trkpt>
      <trkpt lat="50.54815" lon="3.65219">
        <ele>70.2</ele>
        <time>2022-05-05T02:09:48Z</time>
      </trkpt>
      <trkpt lat="50.54815" lon="3.65219">
        <ele>70.2</ele>
        <time>2022-05-05T02:09:48Z</time>
      </trkpt>
      <trkpt lat="50.54815" lon="3.65219">
        <ele>70.2</ele>
        <time>2022-05-05T02:09:48Z</time>
      </trkpt>
      <trkpt lat="50.54816" lon="3.65219">
        <ele>70.2</ele>
        <time>2022-05-05T02:09:48Z</time>
      </trkpt>
      <trkpt lat="50.54816" lon="3.65218">
        <ele>70.2</ele>
        <time>2022-05-05T02:09:48Z</time>
      </trkpt>
      <trkpt lat="50.54816" lon="3.65219">
        <ele>70.2</ele>
        <time>2022-05-05T02:09:48Z</time>
      </trkpt>
      <trkpt lat="50.54816" lon="3.65219">
        <ele>70.2</ele>
        <time>2022-05-05T02:09:49Z</time>
      </trkpt>
      <trkpt lat="50.54816" lon="3.65219">
        <ele>70.2</ele>
        <time>2022-05-05T02:09:49Z</time>
      </trkpt>
      <trkpt lat="50.54816" lon="3.65219">
        <ele>70.2</ele>
        <time>2022-05-05T02:09:49Z</time>
      </trkpt>
      <trkpt lat="50.54816" lon="3.65219">
        <ele>70.2</ele>
        <time>2022-05-05T02:09:49Z</time>
      </trkpt>
      <trkpt lat="50.54816" lon="3.65219">
        <ele>70.2</ele>
        <time>2022-05-05T02:09:49Z</time>
      </trkpt>
      <trkpt lat="50.54816" lon="3.65219">
        <ele>70.2</ele>
        <time>2022-05-05T02:09:49Z</time>
      </trkpt>
      <trkpt lat="50.54816" lon="3.65218">
        <ele>70.2</ele>
        <time>2022-05-05T02:09:49Z</time>
      </trkpt>
      <trkpt lat="50.54817" lon="3.65219">
        <ele>70.2</ele>
        <time>2022-05-05T02:09:49Z</time>
      </trkpt>
      <trkpt lat="50.54822" lon="3.65217">
        <ele>70.2</ele>
        <time>2022-05-05T02:09:49Z</time>
      </trkpt>
      <trkpt lat="50.54827" lon="3.65216">
        <ele>70.4</ele>
        <time>2022-05-05T02:09:50Z</time>
      </trkpt>
      <trkpt lat="50.54836" lon="3.65221">
        <ele>70.6</ele>
        <time>2022-05-05T02:09:51Z</time>
      </trkpt>
      <trkpt lat="50.5485" lon="3.65224">
        <ele>70.9</ele>
        <time>2022-05-05T02:09:52Z</time>
      </trkpt>
      <trkpt lat="50.54865" lon="3.65228">
        <ele>71.3</ele>
        <time>2022-05-05T02:09:53Z</time>
      </trkpt>
      <trkpt lat="50.54881" lon="3.65234">
        <ele>71.6</ele>
        <time>2022-05-05T02:09:55Z</time>
      </trkpt>
      <trkpt lat="50.54897" lon="3.6524">
        <ele>71.7</ele>
        <time>2022-05-05T02:09:57Z</time>
      </trkpt>
      <trkpt lat="50.54914" lon="3.65246">
        <ele>72.1</ele>
        <time>2022-05-05T02:09:58Z</time>
      </trkpt>
      <trkpt lat="50.5493" lon="3.65251">
        <ele>72.4</ele>
        <time>2022-05-05T02:10:00Z</time>
      </trkpt>
      <trkpt lat="50.54947" lon="3.65256">
        <ele>72.8</ele>
        <time>2022-05-05T02:10:01Z</time>
      </trkpt>
      <trkpt lat="50.54963" lon="3.65258">
        <ele>73.2</ele>
        <time>2022-05-05T02:10:03Z</time>
      </trkpt>
      <trkpt lat="50.54981" lon="3.65262">
        <ele>73.9</ele>
        <time>2022-05-05T02:10:05Z</time>
      </trkpt>
      <trkpt lat="50.54997" lon="3.65266">
        <ele>74.6</ele>
        <time>2022-05-05T02:10:06Z</time>
      </trkpt>
      <trkpt lat="50.55014" lon="3.6527">
        <ele>75.3</ele>
        <time>2022-05-05T02:10:08Z</time>
      </trkpt>
      <trkpt lat="50.55029" lon="3.65273">
        <ele>76</ele>
        <time>2022-05-05T02:10:09Z</time>
      </trkpt>
      <trkpt lat="50.55042" lon="3.65275">
        <ele>76.7</ele>
        <time>2022-05-05T02:10:11Z</time>
      </trkpt>
      <trkpt lat="50.55055" lon="3.65277">
        <ele>77.3</ele>
        <time>2022-05-05T02:10:12Z</time>
      </trkpt>
      <trkpt lat="50.55065" lon="3.6528">
        <ele>77.8</ele>
        <time>2022-05-05T02:10:13Z</time>
      </trkpt>
      <trkpt lat="50.55078" lon="3.6528">
        <ele>78.3</ele>
        <time>2022-05-05T02:10:14Z</time>
      </trkpt>
      <trkpt lat="50.55091" lon="3.65282">
        <ele>78.8</ele>
        <time>2022-05-05T02:10:15Z</time>
      </trkpt>
      <trkpt lat="50.55105" lon="3.65289">
        <ele>79.1</ele>
        <time>2022-05-05T02:10:17Z</time>
      </trkpt>
      <trkpt lat="50.55118" lon="3.6529">
        <ele>79.3</ele>
        <time>2022-05-05T02:10:18Z</time>
      </trkpt>
      <trkpt lat="50.55132" lon="3.65289">
        <ele>79.5</ele>
        <time>2022-05-05T02:10:19Z</time>
      </trkpt>
      <trkpt lat="50.55145" lon="3.65283">
        <ele>79.6</ele>
        <time>2022-05-05T02:10:20Z</time>
      </trkpt>
      <trkpt lat="50.55157" lon="3.65275">
        <ele>79.7</ele>
        <time>2022-05-05T02:10:22Z</time>
      </trkpt>
      <trkpt lat="50.55169" lon="3.65271">
        <ele>79.7</ele>
        <time>2022-05-05T02:10:23Z</time>
      </trkpt>
      <trkpt lat="50.55182" lon="3.65267">
        <ele>79.8</ele>
        <time>2022-05-05T02:10:24Z</time>
      </trkpt>
      <trkpt lat="50.55197" lon="3.65268">
        <ele>79.8</ele>
        <time>2022-05-05T02:10:26Z</time>
      </trkpt>
      <trkpt lat="50.5521" lon="3.65265">
        <ele>79.8</ele>
        <time>2022-05-05T02:10:27Z</time>
      </trkpt>
      <trkpt lat="50.55224" lon="3.65269">
        <ele>79.8</ele>
        <time>2022-05-05T02:10:28Z</time>
      </trkpt>
      <trkpt lat="50.55239" lon="3.65271">
        <ele>79.8</ele>
        <time>2022-05-05T02:10:30Z</time>
      </trkpt>
      <trkpt lat="50.55254" lon="3.65274">
        <ele>79.6</ele>
        <time>2022-05-05T02:10:31Z</time>
      </trkpt>
      <trkpt lat="50.5527" lon="3.65279">
        <ele>79.3</ele>
        <time>2022-05-05T02:10:33Z</time>
      </trkpt>
      <trkpt lat="50.55287" lon="3.65282">
        <ele>78.9</ele>
        <time>2022-05-05T02:10:34Z</time>
      </trkpt>
      <trkpt lat="50.55303" lon="3.65286">
        <ele>78.4</ele>
        <time>2022-05-05T02:10:36Z</time>
      </trkpt>
      <trkpt lat="50.55317" lon="3.65289">
        <ele>77.8</ele>
        <time>2022-05-05T02:10:37Z</time>
      </trkpt>
      <trkpt lat="50.55331" lon="3.65289">
        <ele>77.3</ele>
        <time>2022-05-05T02:10:38Z</time>
      </trkpt>
      <trkpt lat="50.55345" lon="3.65288">
        <ele>76.8</ele>
        <time>2022-05-05T02:10:40Z</time>
      </trkpt>
      <trkpt lat="50.55362" lon="3.65284">
        <ele>76.3</ele>
        <time>2022-05-05T02:10:41Z</time>
      </trkpt>
      <trkpt lat="50.55381" lon="3.65277">
        <ele>75.8</ele>
        <time>2022-05-05T02:10:43Z</time>
      </trkpt>
      <trkpt lat="50.55401" lon="3.65276">
        <ele>75.2</ele>
        <time>2022-05-05T02:10:45Z</time>
      </trkpt>
      <trkpt lat="50.5542" lon="3.65272">
        <ele>74.5</ele>
        <time>2022-05-05T02:10:47Z</time>
      </trkpt>
      <trkpt lat="50.55438" lon="3.6527">
        <ele>73.9</ele>
        <time>2022-05-05T02:10:49Z</time>
      </trkpt>
      <trkpt lat="50.55456" lon="3.6527">
        <ele>73.2</ele>
        <time>2022-05-05T02:10:50Z</time>
      </trkpt>
      <trkpt lat="50.55473" lon="3.65269">
        <ele>72.7</ele>
        <time>2022-05-05T02:10:52Z</time>
      </trkpt>
      <trkpt lat="50.55488" lon="3.65267">
        <ele>72.2</ele>
        <time>2022-05-05T02:10:53Z</time>
      </trkpt>
      <trkpt lat="50.55504" lon="3.65264">
        <ele>71.8</ele>
        <time>2022-05-05T02:10:55Z</time>
      </trkpt>
      <trkpt lat="50.5552" lon="3.65259">
        <ele>71.4</ele>
        <time>2022-05-05T02:10:57Z</time>
      </trkpt>
      <trkpt lat="50.55536" lon="3.65256">
        <ele>71</ele>
        <time>2022-05-05T02:10:58Z</time>
      </trkpt>
      <trkpt lat="50.5555" lon="3.6525">
        <ele>70.7</ele>
        <time>2022-05-05T02:11:00Z</time>
      </trkpt>
      <trkpt lat="50.55564" lon="3.65245">
        <ele>70.4</ele>
        <time>2022-05-05T02:11:01Z</time>
      </trkpt>
      <trkpt lat="50.55578" lon="3.65238">
        <ele>70.1</ele>
        <time>2022-05-05T02:11:02Z</time>
      </trkpt>
      <trkpt lat="50.5559" lon="3.65242">
        <ele>69.9</ele>
        <time>2022-05-05T02:11:03Z</time>
      </trkpt>
      <trkpt lat="50.55605" lon="3.65246">
        <ele>69.7</ele>
        <time>2022-05-05T02:11:05Z</time>
      </trkpt>
      <trkpt lat="50.55622" lon="3.65252">
        <ele>69.5</ele>
        <time>2022-05-05T02:11:06Z</time>
      </trkpt>
      <trkpt lat="50.55638" lon="3.65251">
        <ele>69.1</ele>
        <time>2022-05-05T02:11:08Z</time>
      </trkpt>
      <trkpt lat="50.55655" lon="3.65244">
        <ele>68.7</ele>
        <time>2022-05-05T02:11:10Z</time>
      </trkpt>
      <trkpt lat="50.55673" lon="3.65237">
        <ele>68.3</ele>
        <time>2022-05-05T02:11:12Z</time>
      </trkpt>
      <trkpt lat="50.55691" lon="3.6523">
        <ele>68.1</ele>
        <time>2022-05-05T02:11:13Z</time>
      </trkpt>
      <trkpt lat="50.55708" lon="3.65226">
        <ele>67.8</ele>
        <time>2022-05-05T02:11:15Z</time>
      </trkpt>
      <trkpt lat="50.55725" lon="3.65222">
        <ele>67.5</ele>
        <time>2022-05-05T02:11:17Z</time>
      </trkpt>
      <trkpt lat="50.55744" lon="3.65222">
        <ele>67.2</ele>
        <time>2022-05-05T02:11:18Z</time>
      </trkpt>
      <trkpt lat="50.5576" lon="3.65227">
        <ele>67.1</ele>
        <time>2022-05-05T02:11:20Z</time>
      </trkpt>
      <trkpt lat="50.55777" lon="3.65229">
        <ele>67</ele>
        <time>2022-05-05T02:11:21Z</time>
      </trkpt>
      <trkpt lat="50.55795" lon="3.65229">
        <ele>66.9</ele>
        <time>2022-05-05T02:11:23Z</time>
      </trkpt>
      <trkpt lat="50.55812" lon="3.65226">
        <ele>66.7</ele>
        <time>2022-05-05T02:11:25Z</time>
      </trkpt>
      <trkpt lat="50.55829" lon="3.65219">
        <ele>66.3</ele>
        <time>2022-05-05T02:11:27Z</time>
      </trkpt>
      <trkpt lat="50.55848" lon="3.6521">
        <ele>65.8</ele>
        <time>2022-05-05T02:11:28Z</time>
      </trkpt>
      <trkpt lat="50.55868" lon="3.65204">
        <ele>65.5</ele>
        <time>2022-05-05T02:11:30Z</time>
      </trkpt>
      <trkpt lat="50.55886" lon="3.65198">
        <ele>65.2</ele>
        <time>2022-05-05T02:11:32Z</time>
      </trkpt>
      <trkpt lat="50.55901" lon="3.65192">
        <ele>65.1</ele>
        <time>2022-05-05T02:11:34Z</time>
      </trkpt>
      <trkpt lat="50.55917" lon="3.65186">
        <ele>65</ele>
        <time>2022-05-05T02:11:35Z</time>
      </trkpt>
      <trkpt lat="50.55931" lon="3.65177">
        <ele>64.8</ele>
        <time>2022-05-05T02:11:37Z</time>
      </trkpt>
      <trkpt lat="50.55947" lon="3.6518">
        <ele>64.6</ele>
        <time>2022-05-05T02:11:38Z</time>
      </trkpt>
      <trkpt lat="50.55958" lon="3.6518">
        <ele>64.5</ele>
        <time>2022-05-05T02:11:39Z</time>
      </trkpt>
      <trkpt lat="50.55971" lon="3.65184">
        <ele>64.3</ele>
        <time>2022-05-05T02:11:40Z</time>
      </trkpt>
      <trkpt lat="50.55985" lon="3.65188">
        <ele>64.2</ele>
        <time>2022-05-05T02:11:42Z</time>
      </trkpt>
      <trkpt lat="50.55998" lon="3.65195">
        <ele>63.9</ele>
        <time>2022-05-05T02:11:43Z</time>
      </trkpt>
      <trkpt lat="50.5601" lon="3.65199">
        <ele>63.5</ele>
        <time>2022-05-05T02:11:44Z</time>
      </trkpt>
      <trkpt lat="50.56022" lon="3.65202">
        <ele>63.3</ele>
        <time>2022-05-05T02:11:45Z</time>
      </trkpt>
      <trkpt lat="50.56034" lon="3.65205">
        <ele>63.1</ele>
        <time>2022-05-05T02:11:47Z</time>
      </trkpt>
      <trkpt lat="50.56045" lon="3.65207">
        <ele>63</ele>
        <time>2022-05-05T02:11:48Z</time>
      </trkpt>
      <trkpt lat="50.56054" lon="3.65209">
        <ele>62.9</ele>
        <time>2022-05-05T02:11:48Z</time>
      </trkpt>
      <trkpt lat="50.56063" lon="3.65211">
        <ele>62.9</ele>
        <time>2022-05-05T02:11:49Z</time>
      </trkpt>
      <trkpt lat="50.56071" lon="3.65213">
        <ele>62.9</ele>
        <time>2022-05-05T02:11:50Z</time>
      </trkpt>
      <trkpt lat="50.56077" lon="3.65215">
        <ele>62.8</ele>
        <time>2022-05-05T02:11:51Z</time>
      </trkpt>
      <trkpt lat="50.56083" lon="3.65216">
        <ele>62.8</ele>
        <time>2022-05-05T02:11:51Z</time>
      </trkpt>
      <trkpt lat="50.5609" lon="3.65215">
        <ele>62.8</ele>
        <time>2022-05-05T02:11:52Z</time>
      </trkpt>
      <trkpt lat="50.56097" lon="3.65213">
        <ele>62.8</ele>
        <time>2022-05-05T02:11:53Z</time>
      </trkpt>
      <trkpt lat="50.56105" lon="3.65211">
        <ele>62.8</ele>
        <time>2022-05-05T02:11:53Z</time>
      </trkpt>
      <trkpt lat="50.56112" lon="3.6521">
        <ele>62.7</ele>
        <time>2022-05-05T02:11:54Z</time>
      </trkpt>
      <trkpt lat="50.5612" lon="3.6521">
        <ele>62.6</ele>
        <time>2022-05-05T02:11:55Z</time>
      </trkpt>
      <trkpt lat="50.56129" lon="3.65207">
        <ele>62.4</ele>
        <time>2022-05-05T02:11:56Z</time>
      </trkpt>
      <trkpt lat="50.56137" lon="3.65204">
        <ele>62.3</ele>
        <time>2022-05-05T02:11:57Z</time>
      </trkpt>
      <trkpt lat="50.56146" lon="3.65203">
        <ele>62.1</ele>
        <time>2022-05-05T02:11:57Z</time>
      </trkpt>
      <trkpt lat="50.56156" lon="3.65207">
        <ele>62</ele>
        <time>2022-05-05T02:11:58Z</time>
      </trkpt>
      <trkpt lat="50.56169" lon="3.65214">
        <ele>61.9</ele>
        <time>2022-05-05T02:12:00Z</time>
      </trkpt>
      <trkpt lat="50.56182" lon="3.65223">
        <ele>61.9</ele>
        <time>2022-05-05T02:12:01Z</time>
      </trkpt>
      <trkpt lat="50.56196" lon="3.65229">
        <ele>61.9</ele>
        <time>2022-05-05T02:12:02Z</time>
      </trkpt>
      <trkpt lat="50.56209" lon="3.65235">
        <ele>61.8</ele>
        <time>2022-05-05T02:12:04Z</time>
      </trkpt>
      <trkpt lat="50.56221" lon="3.65238">
        <ele>61.8</ele>
        <time>2022-05-05T02:12:05Z</time>
      </trkpt>
      <trkpt lat="50.5623" lon="3.65243">
        <ele>61.8</ele>
        <time>2022-05-05T02:12:06Z</time>
      </trkpt>
      <trkpt lat="50.56243" lon="3.65245">
        <ele>61.8</ele>
        <time>2022-05-05T02:12:07Z</time>
      </trkpt>
      <trkpt lat="50.56257" lon="3.6525">
        <ele>61.8</ele>
        <time>2022-05-05T02:12:08Z</time>
      </trkpt>
      <trkpt lat="50.56268" lon="3.65261">
        <ele>61.8</ele>
        <time>2022-05-05T02:12:10Z</time>
      </trkpt>
      <trkpt lat="50.5628" lon="3.65271">
        <ele>61.7</ele>
        <time>2022-05-05T02:12:11Z</time>
      </trkpt>
      <trkpt lat="50.56291" lon="3.65284">
        <ele>61.5</ele>
        <time>2022-05-05T02:12:12Z</time>
      </trkpt>
      <trkpt lat="50.563" lon="3.653">
        <ele>61.2</ele>
        <time>2022-05-05T02:12:13Z</time>
      </trkpt>
      <trkpt lat="50.56311" lon="3.65311">
        <ele>60.8</ele>
        <time>2022-05-05T02:12:15Z</time>
      </trkpt>
      <trkpt lat="50.56324" lon="3.65319">
        <ele>60.5</ele>
        <time>2022-05-05T02:12:16Z</time>
      </trkpt>
      <trkpt lat="50.56337" lon="3.65327">
        <ele>60.3</ele>
        <time>2022-05-05T02:12:17Z</time>
      </trkpt>
      <trkpt lat="50.56347" lon="3.65333">
        <ele>60.1</ele>
        <time>2022-05-05T02:12:18Z</time>
      </trkpt>
      <trkpt lat="50.56361" lon="3.65341">
        <ele>60</ele>
        <time>2022-05-05T02:12:20Z</time>
      </trkpt>
      <trkpt lat="50.56372" lon="3.65344">
        <ele>60</ele>
        <time>2022-05-05T02:12:21Z</time>
      </trkpt>
      <trkpt lat="50.56384" lon="3.6535">
        <ele>60</ele>
        <time>2022-05-05T02:12:22Z</time>
      </trkpt>
      <trkpt lat="50.56395" lon="3.65356">
        <ele>59.8</ele>
        <time>2022-05-05T02:12:23Z</time>
      </trkpt>
      <trkpt lat="50.56406" lon="3.65363">
        <ele>59.7</ele>
        <time>2022-05-05T02:12:24Z</time>
      </trkpt>
      <trkpt lat="50.56418" lon="3.65364">
        <ele>59.5</ele>
        <time>2022-05-05T02:12:25Z</time>
      </trkpt>
      <trkpt lat="50.56432" lon="3.65363">
        <ele>59.3</ele>
        <time>2022-05-05T02:12:27Z</time>
      </trkpt>
      <trkpt lat="50.56444" lon="3.65361">
        <ele>59.1</ele>
        <time>2022-05-05T02:12:28Z</time>
      </trkpt>
      <trkpt lat="50.56455" lon="3.65362">
        <ele>59</ele>
        <time>2022-05-05T02:12:29Z</time>
      </trkpt>
      <trkpt lat="50.56465" lon="3.65361">
        <ele>59</ele>
        <time>2022-05-05T02:12:30Z</time>
      </trkpt>
      <trkpt lat="50.56475" lon="3.65359">
        <ele>58.9</ele>
        <time>2022-05-05T02:12:31Z</time>
      </trkpt>
      <trkpt lat="50.56484" lon="3.65359">
        <ele>58.8</ele>
        <time>2022-05-05T02:12:32Z</time>
      </trkpt>
      <trkpt lat="50.56492" lon="3.65359">
        <ele>58.6</ele>
        <time>2022-05-05T02:12:32Z</time>
      </trkpt>
      <trkpt lat="50.56497" lon="3.65353">
        <ele>58.4</ele>
        <time>2022-05-05T02:12:33Z</time>
      </trkpt>
      <trkpt lat="50.56502" lon="3.65352">
        <ele>57.9</ele>
        <time>2022-05-05T02:12:34Z</time>
      </trkpt>
      <trkpt lat="50.56509" lon="3.65352">
        <ele>57.5</ele>
        <time>2022-05-05T02:12:34Z</time>
      </trkpt>
      <trkpt lat="50.56513" lon="3.65358">
        <ele>57.1</ele>
        <time>2022-05-05T02:12:35Z</time>
      </trkpt>
      <trkpt lat="50.56516" lon="3.65365">
        <ele>57.1</ele>
        <time>2022-05-05T02:12:35Z</time>
      </trkpt>
      <trkpt lat="50.56518" lon="3.65381">
        <ele>57.2</ele>
        <time>2022-05-05T02:12:36Z</time>
      </trkpt>
      <trkpt lat="50.5652" lon="3.65397">
        <ele>57.6</ele>
        <time>2022-05-05T02:12:37Z</time>
      </trkpt>
      <trkpt lat="50.56521" lon="3.65417">
        <ele>58.3</ele>
        <time>2022-05-05T02:12:38Z</time>
      </trkpt>
      <trkpt lat="50.56523" lon="3.65439">
        <ele>59.5</ele>
        <time>2022-05-05T02:12:40Z</time>
      </trkpt>
      <trkpt lat="50.56526" lon="3.65458">
        <ele>60.5</ele>
        <time>2022-05-05T02:12:41Z</time>
      </trkpt>
      <trkpt lat="50.56529" lon="3.6548">
        <ele>61.1</ele>
        <time>2022-05-05T02:12:42Z</time>
      </trkpt>
      <trkpt lat="50.56531" lon="3.655">
        <ele>61.3</ele>
        <time>2022-05-05T02:12:44Z</time>
      </trkpt>
      <trkpt lat="50.56535" lon="3.6552">
        <ele>61.1</ele>
        <time>2022-05-05T02:12:45Z</time>
      </trkpt>
      <trkpt lat="50.56537" lon="3.65537">
        <ele>61.5</ele>
        <time>2022-05-05T02:12:46Z</time>
      </trkpt>
      <trkpt lat="50.5654" lon="3.65558">
        <ele>61.8</ele>
        <time>2022-05-05T02:12:47Z</time>
      </trkpt>
      <trkpt lat="50.56542" lon="3.65579">
        <ele>62.1</ele>
        <time>2022-05-05T02:12:48Z</time>
      </trkpt>
      <trkpt lat="50.56544" lon="3.65601">
        <ele>62.5</ele>
        <time>2022-05-05T02:12:50Z</time>
      </trkpt>
      <trkpt lat="50.56548" lon="3.65625">
        <ele>62.8</ele>
        <time>2022-05-05T02:12:51Z</time>
      </trkpt>
      <trkpt lat="50.5655" lon="3.6565">
        <ele>62.9</ele>
        <time>2022-05-05T02:12:53Z</time>
      </trkpt>
      <trkpt lat="50.56556" lon="3.65677">
        <ele>62.9</ele>
        <time>2022-05-05T02:12:55Z</time>
      </trkpt>
      <trkpt lat="50.56557" lon="3.65702">
        <ele>62.6</ele>
        <time>2022-05-05T02:12:56Z</time>
      </trkpt>
      <trkpt lat="50.5656" lon="3.65727">
        <ele>62.7</ele>
        <time>2022-05-05T02:12:58Z</time>
      </trkpt>
      <trkpt lat="50.56561" lon="3.65746">
        <ele>62.7</ele>
        <time>2022-05-05T02:12:59Z</time>
      </trkpt>
      <trkpt lat="50.56565" lon="3.65764">
        <ele>62.9</ele>
        <time>2022-05-05T02:13:00Z</time>
      </trkpt>
      <trkpt lat="50.56568" lon="3.65783">
        <ele>62.9</ele>
        <time>2022-05-05T02:13:01Z</time>
      </trkpt>
      <trkpt lat="50.56568" lon="3.65802">
        <ele>62.9</ele>
        <time>2022-05-05T02:13:02Z</time>
      </trkpt>
      <trkpt lat="50.5657" lon="3.65819">
        <ele>63.1</ele>
        <time>2022-05-05T02:13:03Z</time>
      </trkpt>
      <trkpt lat="50.56571" lon="3.65835">
        <ele>63.2</ele>
        <time>2022-05-05T02:13:04Z</time>
      </trkpt>
      <trkpt lat="50.56572" lon="3.65852">
        <ele>63.3</ele>
        <time>2022-05-05T02:13:05Z</time>
      </trkpt>
      <trkpt lat="50.56568" lon="3.65872">
        <ele>63.2</ele>
        <time>2022-05-05T02:13:07Z</time>
      </trkpt>
      <trkpt lat="50.56562" lon="3.6589">
        <ele>63</ele>
        <time>2022-05-05T02:13:08Z</time>
      </trkpt>
      <trkpt lat="50.56563" lon="3.65908">
        <ele>62.8</ele>
        <time>2022-05-05T02:13:09Z</time>
      </trkpt>
      <trkpt lat="50.56565" lon="3.6593">
        <ele>62.6</ele>
        <time>2022-05-05T02:13:10Z</time>
      </trkpt>
      <trkpt lat="50.56568" lon="3.65954">
        <ele>62.5</ele>
        <time>2022-05-05T02:13:12Z</time>
      </trkpt>
      <trkpt lat="50.56571" lon="3.65978">
        <ele>62.6</ele>
        <time>2022-05-05T02:13:13Z</time>
      </trkpt>
      <trkpt lat="50.56575" lon="3.66002">
        <ele>62.6</ele>
        <time>2022-05-05T02:13:15Z</time>
      </trkpt>
      <trkpt lat="50.56576" lon="3.66026">
        <ele>62.5</ele>
        <time>2022-05-05T02:13:16Z</time>
      </trkpt>
      <trkpt lat="50.56579" lon="3.66051">
        <ele>62.4</ele>
        <time>2022-05-05T02:13:18Z</time>
      </trkpt>
      <trkpt lat="50.56582" lon="3.66076">
        <ele>62.1</ele>
        <time>2022-05-05T02:13:19Z</time>
      </trkpt>
      <trkpt lat="50.56584" lon="3.66099">
        <ele>61.7</ele>
        <time>2022-05-05T02:13:21Z</time>
      </trkpt>
      <trkpt lat="50.56589" lon="3.66124">
        <ele>61.6</ele>
        <time>2022-05-05T02:13:22Z</time>
      </trkpt>
      <trkpt lat="50.56596" lon="3.66149">
        <ele>61.8</ele>
        <time>2022-05-05T02:13:24Z</time>
      </trkpt>
      <trkpt lat="50.566" lon="3.66176">
        <ele>62</ele>
        <time>2022-05-05T02:13:25Z</time>
      </trkpt>
      <trkpt lat="50.56603" lon="3.662">
        <ele>62.1</ele>
        <time>2022-05-05T02:13:27Z</time>
      </trkpt>
      <trkpt lat="50.56605" lon="3.66225">
        <ele>61.9</ele>
        <time>2022-05-05T02:13:29Z</time>
      </trkpt>
      <trkpt lat="50.56608" lon="3.6625">
        <ele>61.8</ele>
        <time>2022-05-05T02:13:30Z</time>
      </trkpt>
      <trkpt lat="50.56608" lon="3.66274">
        <ele>61.4</ele>
        <time>2022-05-05T02:13:32Z</time>
      </trkpt>
      <trkpt lat="50.5661" lon="3.66293">
        <ele>61.3</ele>
        <time>2022-05-05T02:13:33Z</time>
      </trkpt>
      <trkpt lat="50.56614" lon="3.66309">
        <ele>61.4</ele>
        <time>2022-05-05T02:13:34Z</time>
      </trkpt>
      <trkpt lat="50.56617" lon="3.66324">
        <ele>61.5</ele>
        <time>2022-05-05T02:13:35Z</time>
      </trkpt>
      <trkpt lat="50.5662" lon="3.66338">
        <ele>61.7</ele>
        <time>2022-05-05T02:13:36Z</time>
      </trkpt>
      <trkpt lat="50.56622" lon="3.66352">
        <ele>61.8</ele>
        <time>2022-05-05T02:13:36Z</time>
      </trkpt>
      <trkpt lat="50.56626" lon="3.66364">
        <ele>62.2</ele>
        <time>2022-05-05T02:13:37Z</time>
      </trkpt>
      <trkpt lat="50.56627" lon="3.66376">
        <ele>62.4</ele>
        <time>2022-05-05T02:13:38Z</time>
      </trkpt>
      <trkpt lat="50.56631" lon="3.66383">
        <ele>62.5</ele>
        <time>2022-05-05T02:13:39Z</time>
      </trkpt>
      <trkpt lat="50.56634" lon="3.6639">
        <ele>62.2</ele>
        <time>2022-05-05T02:13:39Z</time>
      </trkpt>
      <trkpt lat="50.56635" lon="3.66393">
        <ele>61.8</ele>
        <time>2022-05-05T02:13:39Z</time>
      </trkpt>
      <trkpt lat="50.56637" lon="3.66395">
        <ele>61.4</ele>
        <time>2022-05-05T02:13:39Z</time>
      </trkpt>
      <trkpt lat="50.56639" lon="3.66395">
        <ele>61</ele>
        <time>2022-05-05T02:13:40Z</time>
      </trkpt>
      <trkpt lat="50.5664" lon="3.66397">
        <ele>60.6</ele>
        <time>2022-05-05T02:13:40Z</time>
      </trkpt>
      <trkpt lat="50.5664" lon="3.664">
        <ele>60.3</ele>
        <time>2022-05-05T02:13:40Z</time>
      </trkpt>
      <trkpt lat="50.56642" lon="3.66403">
        <ele>60.1</ele>
        <time>2022-05-05T02:13:40Z</time>
      </trkpt>
      <trkpt lat="50.56645" lon="3.66406">
        <ele>60</ele>
        <time>2022-05-05T02:13:41Z</time>
      </trkpt>
      <trkpt lat="50.56645" lon="3.66412">
        <ele>59.8</ele>
        <time>2022-05-05T02:13:41Z</time>
      </trkpt>
      <trkpt lat="50.56643" lon="3.66417">
        <ele>59.7</ele>
        <time>2022-05-05T02:13:41Z</time>
      </trkpt>
      <trkpt lat="50.56642" lon="3.66426">
        <ele>59.7</ele>
        <time>2022-05-05T02:13:42Z</time>
      </trkpt>
      <trkpt lat="50.56637" lon="3.66437">
        <ele>59.7</ele>
        <time>2022-05-05T02:13:43Z</time>
      </trkpt>
      <trkpt lat="50.56631" lon="3.66451">
        <ele>59.9</ele>
        <time>2022-05-05T02:13:44Z</time>
      </trkpt>
      <trkpt lat="50.56625" lon="3.66467">
        <ele>60.2</ele>
        <time>2022-05-05T02:13:45Z</time>
      </trkpt>
      <trkpt lat="50.56619" lon="3.66484">
        <ele>60.3</ele>
        <time>2022-05-05T02:13:46Z</time>
      </trkpt>
      <trkpt lat="50.56611" lon="3.66501">
        <ele>60.1</ele>
        <time>2022-05-05T02:13:47Z</time>
      </trkpt>
      <trkpt lat="50.56602" lon="3.66521">
        <ele>60</ele>
        <time>2022-05-05T02:13:49Z</time>
      </trkpt>
      <trkpt lat="50.56595" lon="3.66545">
        <ele>59.8</ele>
        <time>2022-05-05T02:13:50Z</time>
      </trkpt>
      <trkpt lat="50.56587" lon="3.66567">
        <ele>59.8</ele>
        <time>2022-05-05T02:13:52Z</time>
      </trkpt>
      <trkpt lat="50.5658" lon="3.66593">
        <ele>59.6</ele>
        <time>2022-05-05T02:13:54Z</time>
      </trkpt>
      <trkpt lat="50.56573" lon="3.66618">
        <ele>59.3</ele>
        <time>2022-05-05T02:13:55Z</time>
      </trkpt>
      <trkpt lat="50.56565" lon="3.66643">
        <ele>59.1</ele>
        <time>2022-05-05T02:13:57Z</time>
      </trkpt>
      <trkpt lat="50.56556" lon="3.66663">
        <ele>59</ele>
        <time>2022-05-05T02:13:58Z</time>
      </trkpt>
      <trkpt lat="50.56551" lon="3.66686">
        <ele>58.9</ele>
        <time>2022-05-05T02:14:00Z</time>
      </trkpt>
      <trkpt lat="50.56547" lon="3.66712">
        <ele>58.9</ele>
        <time>2022-05-05T02:14:02Z</time>
      </trkpt>
      <trkpt lat="50.56538" lon="3.6673">
        <ele>59</ele>
        <time>2022-05-05T02:14:03Z</time>
      </trkpt>
      <trkpt lat="50.5653" lon="3.66751">
        <ele>59.2</ele>
        <time>2022-05-05T02:14:04Z</time>
      </trkpt>
      <trkpt lat="50.56523" lon="3.66773">
        <ele>59.4</ele>
        <time>2022-05-05T02:14:06Z</time>
      </trkpt>
      <trkpt lat="50.56513" lon="3.66797">
        <ele>59.5</ele>
        <time>2022-05-05T02:14:08Z</time>
      </trkpt>
      <trkpt lat="50.56507" lon="3.66827">
        <ele>59.5</ele>
        <time>2022-05-05T02:14:09Z</time>
      </trkpt>
      <trkpt lat="50.56499" lon="3.66853">
        <ele>59.5</ele>
        <time>2022-05-05T02:14:11Z</time>
      </trkpt>
      <trkpt lat="50.56488" lon="3.66876">
        <ele>59.6</ele>
        <time>2022-05-05T02:14:13Z</time>
      </trkpt>
      <trkpt lat="50.56481" lon="3.66899">
        <ele>59.7</ele>
        <time>2022-05-05T02:14:15Z</time>
      </trkpt>
      <trkpt lat="50.56472" lon="3.6692">
        <ele>59.7</ele>
        <time>2022-05-05T02:14:16Z</time>
      </trkpt>
      <trkpt lat="50.56461" lon="3.66941">
        <ele>59.7</ele>
        <time>2022-05-05T02:14:18Z</time>
      </trkpt>
      <trkpt lat="50.5645" lon="3.66962">
        <ele>59.8</ele>
        <time>2022-05-05T02:14:19Z</time>
      </trkpt>
      <trkpt lat="50.56439" lon="3.66982">
        <ele>59.6</ele>
        <time>2022-05-05T02:14:21Z</time>
      </trkpt>
      <trkpt lat="50.56428" lon="3.67">
        <ele>59.3</ele>
        <time>2022-05-05T02:14:22Z</time>
      </trkpt>
      <trkpt lat="50.56417" lon="3.67018">
        <ele>59.1</ele>
        <time>2022-05-05T02:14:24Z</time>
      </trkpt>
      <trkpt lat="50.56409" lon="3.67036">
        <ele>59</ele>
        <time>2022-05-05T02:14:25Z</time>
      </trkpt>
      <trkpt lat="50.56401" lon="3.6705">
        <ele>58.9</ele>
        <time>2022-05-05T02:14:26Z</time>
      </trkpt>
      <trkpt lat="50.56391" lon="3.67062">
        <ele>58.9</ele>
        <time>2022-05-05T02:14:28Z</time>
      </trkpt>
      <trkpt lat="50.56383" lon="3.67079">
        <ele>58.8</ele>
        <time>2022-05-05T02:14:29Z</time>
      </trkpt>
      <trkpt lat="50.56374" lon="3.67098">
        <ele>58.5</ele>
        <time>2022-05-05T02:14:30Z</time>
      </trkpt>
      <trkpt lat="50.56363" lon="3.67115">
        <ele>58.3</ele>
        <time>2022-05-05T02:14:32Z</time>
      </trkpt>
      <trkpt lat="50.56353" lon="3.67133">
        <ele>58.1</ele>
        <time>2022-05-05T02:14:33Z</time>
      </trkpt>
      <trkpt lat="50.56342" lon="3.67148">
        <ele>57.9</ele>
        <time>2022-05-05T02:14:35Z</time>
      </trkpt>
      <trkpt lat="50.56332" lon="3.67165">
        <ele>57.6</ele>
        <time>2022-05-05T02:14:36Z</time>
      </trkpt>
      <trkpt lat="50.56321" lon="3.67181">
        <ele>57.3</ele>
        <time>2022-05-05T02:14:37Z</time>
      </trkpt>
      <trkpt lat="50.56313" lon="3.67196">
        <ele>57.1</ele>
        <time>2022-05-05T02:14:39Z</time>
      </trkpt>
      <trkpt lat="50.56305" lon="3.6721">
        <ele>57</ele>
        <time>2022-05-05T02:14:40Z</time>
      </trkpt>
      <trkpt lat="50.56297" lon="3.6722">
        <ele>56.9</ele>
        <time>2022-05-05T02:14:41Z</time>
      </trkpt>
      <trkpt lat="50.56292" lon="3.67232">
        <ele>56.9</ele>
        <time>2022-05-05T02:14:42Z</time>
      </trkpt>
      <trkpt lat="50.56284" lon="3.67247">
        <ele>56.9</ele>
        <time>2022-05-05T02:14:43Z</time>
      </trkpt>
      <trkpt lat="50.56275" lon="3.67263">
        <ele>56.8</ele>
        <time>2022-05-05T02:14:44Z</time>
      </trkpt>
      <trkpt lat="50.56267" lon="3.67279">
        <ele>56.8</ele>
        <time>2022-05-05T02:14:45Z</time>
      </trkpt>
      <trkpt lat="50.56256" lon="3.67293">
        <ele>56.8</ele>
        <time>2022-05-05T02:14:47Z</time>
      </trkpt>
      <trkpt lat="50.56248" lon="3.67308">
        <ele>56.8</ele>
        <time>2022-05-05T02:14:48Z</time>
      </trkpt>
      <trkpt lat="50.5624" lon="3.67321">
        <ele>56.8</ele>
        <time>2022-05-05T02:14:49Z</time>
      </trkpt>
      <trkpt lat="50.56231" lon="3.67327">
        <ele>56.8</ele>
        <time>2022-05-05T02:14:50Z</time>
      </trkpt>
      <trkpt lat="50.56227" lon="3.67336">
        <ele>56.8</ele>
        <time>2022-05-05T02:14:51Z</time>
      </trkpt>
      <trkpt lat="50.56223" lon="3.67336">
        <ele>56.8</ele>
        <time>2022-05-05T02:14:51Z</time>
      </trkpt>
      <trkpt lat="50.56221" lon="3.67343">
        <ele>56.8</ele>
        <time>2022-05-05T02:14:51Z</time>
      </trkpt>
      <trkpt lat="50.56219" lon="3.67347">
        <ele>56.8</ele>
        <time>2022-05-05T02:14:52Z</time>
      </trkpt>
      <trkpt lat="50.56217" lon="3.67348">
        <ele>56.8</ele>
        <time>2022-05-05T02:14:52Z</time>
      </trkpt>
      <trkpt lat="50.56216" lon="3.67351">
        <ele>56.8</ele>
        <time>2022-05-05T02:14:52Z</time>
      </trkpt>
      <trkpt lat="50.56213" lon="3.67353">
        <ele>56.8</ele>
        <time>2022-05-05T02:14:52Z</time>
      </trkpt>
      <trkpt lat="50.56211" lon="3.67356">
        <ele>56.8</ele>
        <time>2022-05-05T02:14:53Z</time>
      </trkpt>
      <trkpt lat="50.56208" lon="3.6736">
        <ele>56.8</ele>
        <time>2022-05-05T02:14:53Z</time>
      </trkpt>
      <trkpt lat="50.56204" lon="3.67394">
        <ele>56.8</ele>
        <time>2022-05-05T02:14:55Z</time>
      </trkpt>
      <trkpt lat="50.56201" lon="3.67406">
        <ele>56.8</ele>
        <time>2022-05-05T02:14:56Z</time>
      </trkpt>
      <trkpt lat="50.56201" lon="3.6742">
        <ele>56.8</ele>
        <time>2022-05-05T02:14:57Z</time>
      </trkpt>
      <trkpt lat="50.562" lon="3.67431">
        <ele>56.8</ele>
        <time>2022-05-05T02:14:57Z</time>
      </trkpt>
      <trkpt lat="50.56201" lon="3.6745">
        <ele>56.8</ele>
        <time>2022-05-05T02:14:59Z</time>
      </trkpt>
      <trkpt lat="50.56202" lon="3.67466">
        <ele>56.8</ele>
        <time>2022-05-05T02:14:59Z</time>
      </trkpt>
      <trkpt lat="50.56203" lon="3.6748">
        <ele>56.8</ele>
        <time>2022-05-05T02:15:00Z</time>
      </trkpt>
      <trkpt lat="50.56205" lon="3.67494">
        <ele>56.8</ele>
        <time>2022-05-05T02:15:01Z</time>
      </trkpt>
      <trkpt lat="50.56209" lon="3.67509">
        <ele>56.8</ele>
        <time>2022-05-05T02:15:02Z</time>
      </trkpt>
      <trkpt lat="50.56214" lon="3.67525">
        <ele>56.8</ele>
        <time>2022-05-05T02:15:03Z</time>
      </trkpt>
      <trkpt lat="50.56221" lon="3.67541">
        <ele>56.8</ele>
        <time>2022-05-05T02:15:04Z</time>
      </trkpt>
      <trkpt lat="50.56227" lon="3.67558">
        <ele>56.8</ele>
        <time>2022-05-05T02:15:06Z</time>
      </trkpt>
      <trkpt lat="50.56234" lon="3.67576">
        <ele>56.8</ele>
        <time>2022-05-05T02:15:07Z</time>
      </trkpt>
      <trkpt lat="50.56241" lon="3.67594">
        <ele>56.8</ele>
        <time>2022-05-05T02:15:08Z</time>
      </trkpt>
      <trkpt lat="50.56248" lon="3.67611">
        <ele>56.8</ele>
        <time>2022-05-05T02:15:09Z</time>
      </trkpt>
      <trkpt lat="50.56255" lon="3.67624">
        <ele>56.8</ele>
        <time>2022-05-05T02:15:10Z</time>
      </trkpt>
      <trkpt lat="50.5626" lon="3.67639">
        <ele>56.8</ele>
        <time>2022-05-05T02:15:11Z</time>
      </trkpt>
      <trkpt lat="50.56266" lon="3.67653">
        <ele>56.8</ele>
        <time>2022-05-05T02:15:13Z</time>
      </trkpt>
      <trkpt lat="50.56271" lon="3.67667">
        <ele>56.9</ele>
        <time>2022-05-05T02:15:13Z</time>
      </trkpt>
      <trkpt lat="50.56275" lon="3.6768">
        <ele>57</ele>
        <time>2022-05-05T02:15:14Z</time>
      </trkpt>
      <trkpt lat="50.56278" lon="3.67686">
        <ele>57.1</ele>
        <time>2022-05-05T02:15:15Z</time>
      </trkpt>
      <trkpt lat="50.56286" lon="3.67694">
        <ele>57.2</ele>
        <time>2022-05-05T02:15:16Z</time>
      </trkpt>
      <trkpt lat="50.56298" lon="3.677">
        <ele>57.3</ele>
        <time>2022-05-05T02:15:17Z</time>
      </trkpt>
      <trkpt lat="50.56309" lon="3.67714">
        <ele>57.3</ele>
        <time>2022-05-05T02:15:18Z</time>
      </trkpt>
      <trkpt lat="50.56323" lon="3.67726">
        <ele>57.1</ele>
        <time>2022-05-05T02:15:20Z</time>
      </trkpt>
      <trkpt lat="50.56336" lon="3.67736">
        <ele>57</ele>
        <time>2022-05-05T02:15:21Z</time>
      </trkpt>
      <trkpt lat="50.56346" lon="3.6775">
        <ele>56.9</ele>
        <time>2022-05-05T02:15:22Z</time>
      </trkpt>
      <trkpt lat="50.56358" lon="3.67762">
        <ele>56.9</ele>
        <time>2022-05-05T02:15:24Z</time>
      </trkpt>
      <trkpt lat="50.5637" lon="3.67775">
        <ele>56.9</ele>
        <time>2022-05-05T02:15:25Z</time>
      </trkpt>
      <trkpt lat="50.56382" lon="3.67786">
        <ele>56.8</ele>
        <time>2022-05-05T02:15:26Z</time>
      </trkpt>
      <trkpt lat="50.56394" lon="3.67797">
        <ele>56.8</ele>
        <time>2022-05-05T02:15:28Z</time>
      </trkpt>
      <trkpt lat="50.56405" lon="3.67807">
        <ele>56.8</ele>
        <time>2022-05-05T02:15:29Z</time>
      </trkpt>
      <trkpt lat="50.56416" lon="3.67815">
        <ele>56.8</ele>
        <time>2022-05-05T02:15:30Z</time>
      </trkpt>
      <trkpt lat="50.56426" lon="3.67829">
        <ele>56.8</ele>
        <time>2022-05-05T02:15:31Z</time>
      </trkpt>
      <trkpt lat="50.56438" lon="3.67841">
        <ele>56.8</ele>
        <time>2022-05-05T02:15:33Z</time>
      </trkpt>
      <trkpt lat="50.56452" lon="3.67853">
        <ele>56.8</ele>
        <time>2022-05-05T02:15:34Z</time>
      </trkpt>
      <trkpt lat="50.56464" lon="3.67866">
        <ele>56.8</ele>
        <time>2022-05-05T02:15:36Z</time>
      </trkpt>
      <trkpt lat="50.56476" lon="3.67877">
        <ele>56.8</ele>
        <time>2022-05-05T02:15:37Z</time>
      </trkpt>
      <trkpt lat="50.56489" lon="3.67888">
        <ele>56.8</ele>
        <time>2022-05-05T02:15:38Z</time>
      </trkpt>
      <trkpt lat="50.56506" lon="3.67892">
        <ele>56.8</ele>
        <time>2022-05-05T02:15:40Z</time>
      </trkpt>
      <trkpt lat="50.56521" lon="3.67899">
        <ele>56.8</ele>
        <time>2022-05-05T02:15:42Z</time>
      </trkpt>
      <trkpt lat="50.56538" lon="3.67908">
        <ele>56.8</ele>
        <time>2022-05-05T02:15:43Z</time>
      </trkpt>
      <trkpt lat="50.56557" lon="3.67915">
        <ele>56.8</ele>
        <time>2022-05-05T02:15:45Z</time>
      </trkpt>
      <trkpt lat="50.56574" lon="3.67922">
        <ele>56.8</ele>
        <time>2022-05-05T02:15:47Z</time>
      </trkpt>
      <trkpt lat="50.5659" lon="3.67932">
        <ele>57.1</ele>
        <time>2022-05-05T02:15:48Z</time>
      </trkpt>
      <trkpt lat="50.56606" lon="3.6794">
        <ele>57.3</ele>
        <time>2022-05-05T02:15:50Z</time>
      </trkpt>
      <trkpt lat="50.56622" lon="3.6795">
        <ele>57.5</ele>
        <time>2022-05-05T02:15:52Z</time>
      </trkpt>
      <trkpt lat="50.56638" lon="3.67957">
        <ele>57.8</ele>
        <time>2022-05-05T02:15:53Z</time>
      </trkpt>
      <trkpt lat="50.56655" lon="3.67965">
        <ele>58.1</ele>
        <time>2022-05-05T02:15:55Z</time>
      </trkpt>
      <trkpt lat="50.56672" lon="3.67974">
        <ele>58.6</ele>
        <time>2022-05-05T02:15:57Z</time>
      </trkpt>
      <trkpt lat="50.5669" lon="3.67983">
        <ele>59.1</ele>
        <time>2022-05-05T02:15:58Z</time>
      </trkpt>
      <trkpt lat="50.56708" lon="3.67991">
        <ele>59.5</ele>
        <time>2022-05-05T02:16:00Z</time>
      </trkpt>
      <trkpt lat="50.56726" lon="3.68">
        <ele>60</ele>
        <time>2022-05-05T02:16:02Z</time>
      </trkpt>
      <trkpt lat="50.56744" lon="3.68007">
        <ele>60.7</ele>
        <time>2022-05-05T02:16:04Z</time>
      </trkpt>
      <trkpt lat="50.56761" lon="3.68015">
        <ele>61.3</ele>
        <time>2022-05-05T02:16:05Z</time>
      </trkpt>
      <trkpt lat="50.56774" lon="3.68026">
        <ele>61.8</ele>
        <time>2022-05-05T02:16:07Z</time>
      </trkpt>
      <trkpt lat="50.56789" lon="3.68034">
        <ele>62.7</ele>
        <time>2022-05-05T02:16:08Z</time>
      </trkpt>
      <trkpt lat="50.56803" lon="3.68041">
        <ele>63</ele>
        <time>2022-05-05T02:16:10Z</time>
      </trkpt>
      <trkpt lat="50.56817" lon="3.68047">
        <ele>63</ele>
        <time>2022-05-05T02:16:11Z</time>
      </trkpt>
      <trkpt lat="50.5683" lon="3.6805">
        <ele>62.6</ele>
        <time>2022-05-05T02:16:12Z</time>
      </trkpt>
      <trkpt lat="50.56845" lon="3.68052">
        <ele>61.8</ele>
        <time>2022-05-05T02:16:14Z</time>
      </trkpt>
      <trkpt lat="50.5686" lon="3.68053">
        <ele>61.6</ele>
        <time>2022-05-05T02:16:15Z</time>
      </trkpt>
      <trkpt lat="50.56876" lon="3.6805">
        <ele>62.2</ele>
        <time>2022-05-05T02:16:17Z</time>
      </trkpt>
      <trkpt lat="50.56893" lon="3.68048">
        <ele>62.7</ele>
        <time>2022-05-05T02:16:18Z</time>
      </trkpt>
      <trkpt lat="50.56912" lon="3.68045">
        <ele>63</ele>
        <time>2022-05-05T02:16:20Z</time>
      </trkpt>
      <trkpt lat="50.5693" lon="3.68042">
        <ele>63</ele>
        <time>2022-05-05T02:16:22Z</time>
      </trkpt>
      <trkpt lat="50.56947" lon="3.68039">
        <ele>62.7</ele>
        <time>2022-05-05T02:16:24Z</time>
      </trkpt>
      <trkpt lat="50.56965" lon="3.68037">
        <ele>62.1</ele>
        <time>2022-05-05T02:16:25Z</time>
      </trkpt>
      <trkpt lat="50.56984" lon="3.68034">
        <ele>61.5</ele>
        <time>2022-05-05T02:16:27Z</time>
      </trkpt>
      <trkpt lat="50.57002" lon="3.6804">
        <ele>60.8</ele>
        <time>2022-05-05T02:16:29Z</time>
      </trkpt>
      <trkpt lat="50.57021" lon="3.68043">
        <ele>60.2</ele>
        <time>2022-05-05T02:16:31Z</time>
      </trkpt>
      <trkpt lat="50.57039" lon="3.68053">
        <ele>59.8</ele>
        <time>2022-05-05T02:16:32Z</time>
      </trkpt>
      <trkpt lat="50.57058" lon="3.68061">
        <ele>59.3</ele>
        <time>2022-05-05T02:16:34Z</time>
      </trkpt>
      <trkpt lat="50.57076" lon="3.68065">
        <ele>58.8</ele>
        <time>2022-05-05T02:16:36Z</time>
      </trkpt>
      <trkpt lat="50.57094" lon="3.6807">
        <ele>58.5</ele>
        <time>2022-05-05T02:16:38Z</time>
      </trkpt>
      <trkpt lat="50.5711" lon="3.68077">
        <ele>58.2</ele>
        <time>2022-05-05T02:16:39Z</time>
      </trkpt>
      <trkpt lat="50.57125" lon="3.68083">
        <ele>58.1</ele>
        <time>2022-05-05T02:16:41Z</time>
      </trkpt>
      <trkpt lat="50.5714" lon="3.6809">
        <ele>58</ele>
        <time>2022-05-05T02:16:42Z</time>
      </trkpt>
      <trkpt lat="50.57154" lon="3.68098">
        <ele>57.9</ele>
        <time>2022-05-05T02:16:44Z</time>
      </trkpt>
      <trkpt lat="50.57169" lon="3.68108">
        <ele>57.7</ele>
        <time>2022-05-05T02:16:45Z</time>
      </trkpt>
      <trkpt lat="50.57185" lon="3.68114">
        <ele>57.4</ele>
        <time>2022-05-05T02:16:47Z</time>
      </trkpt>
      <trkpt lat="50.57201" lon="3.68123">
        <ele>57.2</ele>
        <time>2022-05-05T02:16:49Z</time>
      </trkpt>
      <trkpt lat="50.57217" lon="3.68131">
        <ele>57</ele>
        <time>2022-05-05T02:16:50Z</time>
      </trkpt>
      <trkpt lat="50.57234" lon="3.68138">
        <ele>57</ele>
        <time>2022-05-05T02:16:52Z</time>
      </trkpt>
      <trkpt lat="50.57252" lon="3.68146">
        <ele>56.8</ele>
        <time>2022-05-05T02:16:54Z</time>
      </trkpt>
      <trkpt lat="50.57269" lon="3.68155">
        <ele>56.4</ele>
        <time>2022-05-05T02:16:55Z</time>
      </trkpt>
      <trkpt lat="50.57285" lon="3.68161">
        <ele>56.1</ele>
        <time>2022-05-05T02:16:57Z</time>
      </trkpt>
      <trkpt lat="50.57303" lon="3.68171">
        <ele>55.8</ele>
        <time>2022-05-05T02:16:59Z</time>
      </trkpt>
      <trkpt lat="50.57319" lon="3.68183">
        <ele>55.5</ele>
        <time>2022-05-05T02:17:00Z</time>
      </trkpt>
      <trkpt lat="50.57338" lon="3.68196">
        <ele>55.1</ele>
        <time>2022-05-05T02:17:02Z</time>
      </trkpt>
      <trkpt lat="50.57355" lon="3.6821">
        <ele>54.6</ele>
        <time>2022-05-05T02:17:04Z</time>
      </trkpt>
      <trkpt lat="50.57373" lon="3.68223">
        <ele>54.4</ele>
        <time>2022-05-05T02:17:06Z</time>
      </trkpt>
      <trkpt lat="50.5739" lon="3.68241">
        <ele>54</ele>
        <time>2022-05-05T02:17:08Z</time>
      </trkpt>
      <trkpt lat="50.57407" lon="3.6826">
        <ele>54</ele>
        <time>2022-05-05T02:17:10Z</time>
      </trkpt>
      <trkpt lat="50.57423" lon="3.68276">
        <ele>53.9</ele>
        <time>2022-05-05T02:17:12Z</time>
      </trkpt>
      <trkpt lat="50.5744" lon="3.68291">
        <ele>53.7</ele>
        <time>2022-05-05T02:17:14Z</time>
      </trkpt>
      <trkpt lat="50.57456" lon="3.68307">
        <ele>53.6</ele>
        <time>2022-05-05T02:17:15Z</time>
      </trkpt>
      <trkpt lat="50.57475" lon="3.68323">
        <ele>53.5</ele>
        <time>2022-05-05T02:17:18Z</time>
      </trkpt>
      <trkpt lat="50.57493" lon="3.6834">
        <ele>53.3</ele>
        <time>2022-05-05T02:17:19Z</time>
      </trkpt>
      <trkpt lat="50.57509" lon="3.6836">
        <ele>53.1</ele>
        <time>2022-05-05T02:17:21Z</time>
      </trkpt>
      <trkpt lat="50.57526" lon="3.68378">
        <ele>52.9</ele>
        <time>2022-05-05T02:17:23Z</time>
      </trkpt>
      <trkpt lat="50.57543" lon="3.68396">
        <ele>52.7</ele>
        <time>2022-05-05T02:17:25Z</time>
      </trkpt>
      <trkpt lat="50.5756" lon="3.68412">
        <ele>52.6</ele>
        <time>2022-05-05T02:17:27Z</time>
      </trkpt>
      <trkpt lat="50.57579" lon="3.6842">
        <ele>52.4</ele>
        <time>2022-05-05T02:17:29Z</time>
      </trkpt>
      <trkpt lat="50.57598" lon="3.68429">
        <ele>52.1</ele>
        <time>2022-05-05T02:17:31Z</time>
      </trkpt>
      <trkpt lat="50.57619" lon="3.68438">
        <ele>52</ele>
        <time>2022-05-05T02:17:33Z</time>
      </trkpt>
      <trkpt lat="50.5764" lon="3.68445">
        <ele>51.9</ele>
        <time>2022-05-05T02:17:35Z</time>
      </trkpt>
      <trkpt lat="50.57659" lon="3.68454">
        <ele>51.8</ele>
        <time>2022-05-05T02:17:37Z</time>
      </trkpt>
      <trkpt lat="50.57679" lon="3.68462">
        <ele>51.7</ele>
        <time>2022-05-05T02:17:39Z</time>
      </trkpt>
      <trkpt lat="50.57698" lon="3.68471">
        <ele>51.7</ele>
        <time>2022-05-05T02:17:41Z</time>
      </trkpt>
      <trkpt lat="50.57718" lon="3.68477">
        <ele>51.6</ele>
        <time>2022-05-05T02:17:43Z</time>
      </trkpt>
      <trkpt lat="50.57737" lon="3.68487">
        <ele>51.6</ele>
        <time>2022-05-05T02:17:45Z</time>
      </trkpt>
      <trkpt lat="50.57756" lon="3.68492">
        <ele>51.4</ele>
        <time>2022-05-05T02:17:47Z</time>
      </trkpt>
      <trkpt lat="50.57774" lon="3.68501">
        <ele>51.5</ele>
        <time>2022-05-05T02:17:48Z</time>
      </trkpt>
      <trkpt lat="50.57791" lon="3.68509">
        <ele>51.6</ele>
        <time>2022-05-05T02:17:50Z</time>
      </trkpt>
      <trkpt lat="50.57811" lon="3.68519">
        <ele>51.7</ele>
        <time>2022-05-05T02:17:52Z</time>
      </trkpt>
      <trkpt lat="50.5783" lon="3.68526">
        <ele>51.7</ele>
        <time>2022-05-05T02:17:54Z</time>
      </trkpt>
      <trkpt lat="50.57849" lon="3.68535">
        <ele>51.7</ele>
        <time>2022-05-05T02:17:56Z</time>
      </trkpt>
      <trkpt lat="50.57866" lon="3.68547">
        <ele>51.8</ele>
        <time>2022-05-05T02:17:58Z</time>
      </trkpt>
      <trkpt lat="50.57883" lon="3.68559">
        <ele>52.3</ele>
        <time>2022-05-05T02:17:59Z</time>
      </trkpt>
      <trkpt lat="50.57898" lon="3.68571">
        <ele>52.5</ele>
        <time>2022-05-05T02:18:01Z</time>
      </trkpt>
      <trkpt lat="50.57916" lon="3.68581">
        <ele>52.9</ele>
        <time>2022-05-05T02:18:03Z</time>
      </trkpt>
      <trkpt lat="50.57934" lon="3.68594">
        <ele>53.2</ele>
        <time>2022-05-05T02:18:05Z</time>
      </trkpt>
      <trkpt lat="50.57952" lon="3.68606">
        <ele>53.5</ele>
        <time>2022-05-05T02:18:06Z</time>
      </trkpt>
      <trkpt lat="50.57969" lon="3.68622">
        <ele>53.6</ele>
        <time>2022-05-05T02:18:08Z</time>
      </trkpt>
      <trkpt lat="50.57987" lon="3.68637">
        <ele>53.7</ele>
        <time>2022-05-05T02:18:10Z</time>
      </trkpt>
      <trkpt lat="50.58005" lon="3.68649">
        <ele>53.9</ele>
        <time>2022-05-05T02:18:12Z</time>
      </trkpt>
      <trkpt lat="50.58022" lon="3.68661">
        <ele>54.2</ele>
        <time>2022-05-05T02:18:14Z</time>
      </trkpt>
      <trkpt lat="50.5804" lon="3.68673">
        <ele>54.7</ele>
        <time>2022-05-05T02:18:16Z</time>
      </trkpt>
      <trkpt lat="50.58057" lon="3.68686">
        <ele>55</ele>
        <time>2022-05-05T02:18:18Z</time>
      </trkpt>
      <trkpt lat="50.58074" lon="3.68699">
        <ele>55.2</ele>
        <time>2022-05-05T02:18:19Z</time>
      </trkpt>
      <trkpt lat="50.58091" lon="3.68712">
        <ele>55.5</ele>
        <time>2022-05-05T02:18:21Z</time>
      </trkpt>
      <trkpt lat="50.58108" lon="3.68723">
        <ele>55.8</ele>
        <time>2022-05-05T02:18:23Z</time>
      </trkpt>
      <trkpt lat="50.58124" lon="3.68736">
        <ele>56.2</ele>
        <time>2022-05-05T02:18:25Z</time>
      </trkpt>
      <trkpt lat="50.58139" lon="3.68746">
        <ele>56.3</ele>
        <time>2022-05-05T02:18:26Z</time>
      </trkpt>
      <trkpt lat="50.58153" lon="3.68756">
        <ele>56.5</ele>
        <time>2022-05-05T02:18:28Z</time>
      </trkpt>
      <trkpt lat="50.58167" lon="3.68768">
        <ele>56.7</ele>
        <time>2022-05-05T02:18:29Z</time>
      </trkpt>
      <trkpt lat="50.5818" lon="3.6878">
        <ele>56.9</ele>
        <time>2022-05-05T02:18:31Z</time>
      </trkpt>
      <trkpt lat="50.58193" lon="3.68791">
        <ele>57.1</ele>
        <time>2022-05-05T02:18:32Z</time>
      </trkpt>
      <trkpt lat="50.58207" lon="3.68802">
        <ele>57.2</ele>
        <time>2022-05-05T02:18:34Z</time>
      </trkpt>
      <trkpt lat="50.58221" lon="3.68811">
        <ele>57.2</ele>
        <time>2022-05-05T02:18:35Z</time>
      </trkpt>
      <trkpt lat="50.58235" lon="3.68821">
        <ele>57.2</ele>
        <time>2022-05-05T02:18:36Z</time>
      </trkpt>
      <trkpt lat="50.58247" lon="3.68833">
        <ele>57.2</ele>
        <time>2022-05-05T02:18:38Z</time>
      </trkpt>
      <trkpt lat="50.5826" lon="3.68842">
        <ele>57.1</ele>
        <time>2022-05-05T02:18:39Z</time>
      </trkpt>
      <trkpt lat="50.58275" lon="3.68853">
        <ele>57</ele>
        <time>2022-05-05T02:18:41Z</time>
      </trkpt>
      <trkpt lat="50.5829" lon="3.68864">
        <ele>57</ele>
        <time>2022-05-05T02:18:42Z</time>
      </trkpt>
      <trkpt lat="50.58306" lon="3.68875">
        <ele>57</ele>
        <time>2022-05-05T02:18:44Z</time>
      </trkpt>
      <trkpt lat="50.58322" lon="3.68887">
        <ele>56.9</ele>
        <time>2022-05-05T02:18:46Z</time>
      </trkpt>
      <trkpt lat="50.58339" lon="3.68899">
        <ele>56.7</ele>
        <time>2022-05-05T02:18:47Z</time>
      </trkpt>
      <trkpt lat="50.58354" lon="3.6891">
        <ele>56.3</ele>
        <time>2022-05-05T02:18:49Z</time>
      </trkpt>
      <trkpt lat="50.58367" lon="3.68923">
        <ele>56.1</ele>
        <time>2022-05-05T02:18:50Z</time>
      </trkpt>
      <trkpt lat="50.5838" lon="3.68933">
        <ele>55.9</ele>
        <time>2022-05-05T02:18:52Z</time>
      </trkpt>
      <trkpt lat="50.58392" lon="3.68942">
        <ele>55.6</ele>
        <time>2022-05-05T02:18:53Z</time>
      </trkpt>
      <trkpt lat="50.58404" lon="3.68953">
        <ele>55.3</ele>
        <time>2022-05-05T02:18:54Z</time>
      </trkpt>
      <trkpt lat="50.58414" lon="3.68968">
        <ele>54.9</ele>
        <time>2022-05-05T02:18:56Z</time>
      </trkpt>
      <trkpt lat="50.58425" lon="3.68982">
        <ele>54.6</ele>
        <time>2022-05-05T02:18:57Z</time>
      </trkpt>
      <trkpt lat="50.58437" lon="3.68995">
        <ele>54.4</ele>
        <time>2022-05-05T02:18:58Z</time>
      </trkpt>
      <trkpt lat="50.58448" lon="3.69011">
        <ele>54.2</ele>
        <time>2022-05-05T02:19:00Z</time>
      </trkpt>
      <trkpt lat="50.58459" lon="3.69026">
        <ele>54.2</ele>
        <time>2022-05-05T02:19:01Z</time>
      </trkpt>
      <trkpt lat="50.5847" lon="3.69041">
        <ele>54.2</ele>
        <time>2022-05-05T02:19:03Z</time>
      </trkpt>
      <trkpt lat="50.58481" lon="3.6905">
        <ele>54.3</ele>
        <time>2022-05-05T02:19:04Z</time>
      </trkpt>
      <trkpt lat="50.58492" lon="3.69063">
        <ele>54.3</ele>
        <time>2022-05-05T02:19:05Z</time>
      </trkpt>
      <trkpt lat="50.58503" lon="3.69076">
        <ele>54.3</ele>
        <time>2022-05-05T02:19:06Z</time>
      </trkpt>
      <trkpt lat="50.58515" lon="3.69085">
        <ele>54.4</ele>
        <time>2022-05-05T02:19:08Z</time>
      </trkpt>
      <trkpt lat="50.58529" lon="3.69093">
        <ele>54.3</ele>
        <time>2022-05-05T02:19:09Z</time>
      </trkpt>
      <trkpt lat="50.58542" lon="3.691">
        <ele>54.3</ele>
        <time>2022-05-05T02:19:10Z</time>
      </trkpt>
      <trkpt lat="50.58557" lon="3.69108">
        <ele>54.2</ele>
        <time>2022-05-05T02:19:12Z</time>
      </trkpt>
      <trkpt lat="50.58572" lon="3.69112">
        <ele>54.1</ele>
        <time>2022-05-05T02:19:13Z</time>
      </trkpt>
      <trkpt lat="50.58585" lon="3.69119">
        <ele>54</ele>
        <time>2022-05-05T02:19:15Z</time>
      </trkpt>
      <trkpt lat="50.58597" lon="3.69127">
        <ele>53.9</ele>
        <time>2022-05-05T02:19:16Z</time>
      </trkpt>
      <trkpt lat="50.58608" lon="3.6914">
        <ele>53.9</ele>
        <time>2022-05-05T02:19:17Z</time>
      </trkpt>
      <trkpt lat="50.5862" lon="3.69146">
        <ele>53.9</ele>
        <time>2022-05-05T02:19:18Z</time>
      </trkpt>
      <trkpt lat="50.58631" lon="3.69153">
        <ele>53.8</ele>
        <time>2022-05-05T02:19:20Z</time>
      </trkpt>
      <trkpt lat="50.58641" lon="3.69152">
        <ele>53.7</ele>
        <time>2022-05-05T02:19:21Z</time>
      </trkpt>
      <trkpt lat="50.58651" lon="3.69151">
        <ele>53.5</ele>
        <time>2022-05-05T02:19:22Z</time>
      </trkpt>
      <trkpt lat="50.5866" lon="3.69157">
        <ele>53.4</ele>
        <time>2022-05-05T02:19:22Z</time>
      </trkpt>
      <trkpt lat="50.5867" lon="3.69159">
        <ele>53.2</ele>
        <time>2022-05-05T02:19:23Z</time>
      </trkpt>
      <trkpt lat="50.58676" lon="3.69166">
        <ele>53.1</ele>
        <time>2022-05-05T02:19:24Z</time>
      </trkpt>
      <trkpt lat="50.58684" lon="3.69165">
        <ele>53</ele>
        <time>2022-05-05T02:19:25Z</time>
      </trkpt>
      <trkpt lat="50.58692" lon="3.69165">
        <ele>52.9</ele>
        <time>2022-05-05T02:19:26Z</time>
      </trkpt>
      <trkpt lat="50.58699" lon="3.69164">
        <ele>52.9</ele>
        <time>2022-05-05T02:19:26Z</time>
      </trkpt>
      <trkpt lat="50.58703" lon="3.69165">
        <ele>52.9</ele>
        <time>2022-05-05T02:19:27Z</time>
      </trkpt>
      <trkpt lat="50.58706" lon="3.69167">
        <ele>52.8</ele>
        <time>2022-05-05T02:19:27Z</time>
      </trkpt>
      <trkpt lat="50.58715" lon="3.69164">
        <ele>52.8</ele>
        <time>2022-05-05T02:19:28Z</time>
      </trkpt>
      <trkpt lat="50.58713" lon="3.6916">
        <ele>52.8</ele>
        <time>2022-05-05T02:19:28Z</time>
      </trkpt>
      <trkpt lat="50.58712" lon="3.69158">
        <ele>52.7</ele>
        <time>2022-05-05T02:19:28Z</time>
      </trkpt>
      <trkpt lat="50.58712" lon="3.69157">
        <ele>52.6</ele>
        <time>2022-05-05T02:19:28Z</time>
      </trkpt>
      <trkpt lat="50.58712" lon="3.69157">
        <ele>52.6</ele>
        <time>2022-05-05T02:19:28Z</time>
      </trkpt>
      <trkpt lat="50.58712" lon="3.69156">
        <ele>52.6</ele>
        <time>2022-05-05T02:19:29Z</time>
      </trkpt>
      <trkpt lat="50.58713" lon="3.69156">
        <ele>52.6</ele>
        <time>2022-05-05T02:19:29Z</time>
      </trkpt>
      <trkpt lat="50.58713" lon="3.69156">
        <ele>52.6</ele>
        <time>2022-05-05T02:19:29Z</time>
      </trkpt>
      <trkpt lat="50.58713" lon="3.69156">
        <ele>52.6</ele>
        <time>2022-05-05T02:19:29Z</time>
      </trkpt>
      <trkpt lat="50.58713" lon="3.69155">
        <ele>52.6</ele>
        <time>2022-05-05T02:19:29Z</time>
      </trkpt>
      <trkpt lat="50.58713" lon="3.69155">
        <ele>52.5</ele>
        <time>2022-05-05T02:19:29Z</time>
      </trkpt>
      <trkpt lat="50.58713" lon="3.69155">
        <ele>52.5</ele>
        <time>2022-05-05T02:19:29Z</time>
      </trkpt>
      <trkpt lat="50.58713" lon="3.69154">
        <ele>52.5</ele>
        <time>2022-05-05T02:19:29Z</time>
      </trkpt>
      <trkpt lat="50.58713" lon="3.69154">
        <ele>52.5</ele>
        <time>2022-05-05T02:19:29Z</time>
      </trkpt>
      <trkpt lat="50.58712" lon="3.69153">
        <ele>52.5</ele>
        <time>2022-05-05T02:19:29Z</time>
      </trkpt>
      <trkpt lat="50.58712" lon="3.69152">
        <ele>52.5</ele>
        <time>2022-05-05T02:19:29Z</time>
      </trkpt>
      <trkpt lat="50.58711" lon="3.69151">
        <ele>52.5</ele>
        <time>2022-05-05T02:19:29Z</time>
      </trkpt>
      <trkpt lat="50.58711" lon="3.6915">
        <ele>52.5</ele>
        <time>2022-05-05T02:19:29Z</time>
      </trkpt>
      <trkpt lat="50.5871" lon="3.6915">
        <ele>52.5</ele>
        <time>2022-05-05T02:19:29Z</time>
      </trkpt>
      <trkpt lat="50.58711" lon="3.6915">
        <ele>52.5</ele>
        <time>2022-05-05T02:19:29Z</time>
      </trkpt>
      <trkpt lat="50.58711" lon="3.6915">
        <ele>52.5</ele>
        <time>2022-05-05T02:19:29Z</time>
      </trkpt>
      <trkpt lat="50.58711" lon="3.6915">
        <ele>52.5</ele>
        <time>2022-05-05T02:19:29Z</time>
      </trkpt>
      <trkpt lat="50.58711" lon="3.6915">
        <ele>52.5</ele>
        <time>2022-05-05T02:19:29Z</time>
      </trkpt>
      <trkpt lat="50.58711" lon="3.6915">
        <ele>52.5</ele>
        <time>2022-05-05T02:19:29Z</time>
      </trkpt>
      <trkpt lat="50.58712" lon="3.69151">
        <ele>52.5</ele>
        <time>2022-05-05T02:19:29Z</time>
      </trkpt>
      <trkpt lat="50.58713" lon="3.69151">
        <ele>52.4</ele>
        <time>2022-05-05T02:19:29Z</time>
      </trkpt>
      <trkpt lat="50.58713" lon="3.69151">
        <ele>52.4</ele>
        <time>2022-05-05T02:19:29Z</time>
      </trkpt>
      <trkpt lat="50.58713" lon="3.69151">
        <ele>52.4</ele>
        <time>2022-05-05T02:19:29Z</time>
      </trkpt>
      <trkpt lat="50.58714" lon="3.6915">
        <ele>52.4</ele>
        <time>2022-05-05T02:19:29Z</time>
      </trkpt>
      <trkpt lat="50.58714" lon="3.6915">
        <ele>52.4</ele>
        <time>2022-05-05T02:19:29Z</time>
      </trkpt>
      <trkpt lat="50.58714" lon="3.69151">
        <ele>52.4</ele>
        <time>2022-05-05T02:19:29Z</time>
      </trkpt>
      <trkpt lat="50.58714" lon="3.69151">
        <ele>52.4</ele>
        <time>2022-05-05T02:19:30Z</time>
      </trkpt>
      <trkpt lat="50.58714" lon="3.69151">
        <ele>52.4</ele>
        <time>2022-05-05T02:19:30Z</time>
      </trkpt>
      <trkpt lat="50.58714" lon="3.69151">
        <ele>52.4</ele>
        <time>2022-05-05T02:19:30Z</time>
      </trkpt>
      <trkpt lat="50.58714" lon="3.69151">
        <ele>52.4</ele>
        <time>2022-05-05T02:19:30Z</time>
      </trkpt>
      <trkpt lat="50.58714" lon="3.69151">
        <ele>52.4</ele>
        <time>2022-05-05T02:19:30Z</time>
      </trkpt>
      <trkpt lat="50.58715" lon="3.69152">
        <ele>52.4</ele>
        <time>2022-05-05T02:19:30Z</time>
      </trkpt>
      <trkpt lat="50.58715" lon="3.69153">
        <ele>52.4</ele>
        <time>2022-05-05T02:19:30Z</time>
      </trkpt>
      <trkpt lat="50.58714" lon="3.69154">
        <ele>52.5</ele>
        <time>2022-05-05T02:19:30Z</time>
      </trkpt>
      <trkpt lat="50.58714" lon="3.69153">
        <ele>52.5</ele>
        <time>2022-05-05T02:19:30Z</time>
      </trkpt>
      <trkpt lat="50.58714" lon="3.69154">
        <ele>52.5</ele>
        <time>2022-05-05T02:19:30Z</time>
      </trkpt>
      <trkpt lat="50.58715" lon="3.69155">
        <ele>52.5</ele>
        <time>2022-05-05T02:19:30Z</time>
      </trkpt>
      <trkpt lat="50.58715" lon="3.69155">
        <ele>52.5</ele>
        <time>2022-05-05T02:19:30Z</time>
      </trkpt>
      <trkpt lat="50.58715" lon="3.69155">
        <ele>52.5</ele>
        <time>2022-05-05T02:19:30Z</time>
      </trkpt>
      <trkpt lat="50.58716" lon="3.69156">
        <ele>52.5</ele>
        <time>2022-05-05T02:19:30Z</time>
      </trkpt>
      <trkpt lat="50.58716" lon="3.69157">
        <ele>52.5</ele>
        <time>2022-05-05T02:19:30Z</time>
      </trkpt>
      <trkpt lat="50.58716" lon="3.69156">
        <ele>52.5</ele>
        <time>2022-05-05T02:19:30Z</time>
      </trkpt>
      <trkpt lat="50.58718" lon="3.69157">
        <ele>51.9</ele>
        <time>2022-05-05T02:19:30Z</time>
      </trkpt>
    </trkseg>
  </trk>
</gpx>